<?xml version="1.0" encoding="UTF-8"?>
<gpx version="1.1" creator="https://www.youtrack.es" xsi:schemaLocation="http://www.topografix.com/GPX/1/1 http://www.topografix.com/GPX/1/1/gpx.xsd http://www.garmin.com/xmlschemas/GpxExtensions/v3 http://www.garmin.com/xmlschemas/GpxExtensionsv3.xsd http://www.garmin.com/xmlschemas/TrackPointExtension/v1 http://www.garmin.com/xmlschemas/TrackPointExtensionv1.xsd" xmlns:gpxtpx="http://www.garmin.com/xmlschemas/TrackPointExtension/v1" xmlns:gpxx="http://www.garmin.com/xmlschemas/GpxExtensions/v3" xmlns:xsi="http://www.w3.org/2001/XMLSchema-instance">
  <metadata>
    <link href="https://www.youtrack.es">
      <text>YouTrack.es</text>
    </link>
    <time>2026-05-09T03:48:58Z</time>
  </metadata>
  <trk>
    <src>https://www.youtrack.es</src>
    <link href="https://www.youtrack.es/ruta/27415-palomar--anzoategui">
      <text>YouTrack.es</text>
    </link>
    <trkseg>
      <trkpt lat="4.415276" lon="-75.178421">
        <ele>1087.9695</ele>
        <time>2021-11-14T10:29:37Z</time>
      </trkpt>
      <trkpt lat="4.415276" lon="-75.178421">
        <ele>1087.9689</ele>
        <time>2021-11-14T10:29:38Z</time>
      </trkpt>
      <trkpt lat="4.415276" lon="-75.178421">
        <ele>1087.972</ele>
        <time>2021-11-14T10:29:39Z</time>
      </trkpt>
      <trkpt lat="4.415273" lon="-75.178421">
        <ele>1088.029</ele>
        <time>2021-11-14T10:29:40Z</time>
      </trkpt>
      <trkpt lat="4.415277" lon="-75.178421">
        <ele>1087.8386</ele>
        <time>2021-11-14T10:29:42Z</time>
      </trkpt>
      <trkpt lat="4.41528" lon="-75.178421">
        <ele>1087.402</ele>
        <time>2021-11-14T10:29:43Z</time>
      </trkpt>
      <trkpt lat="4.415285" lon="-75.178413">
        <ele>1086.7218</ele>
        <time>2021-11-14T10:29:44Z</time>
      </trkpt>
      <trkpt lat="4.415308" lon="-75.17849">
        <ele>1085.9023</ele>
        <time>2021-11-14T10:29:45Z</time>
      </trkpt>
      <trkpt lat="4.415322" lon="-75.178574">
        <ele>1086.7677</ele>
        <time>2021-11-14T10:29:46Z</time>
      </trkpt>
      <trkpt lat="4.415275" lon="-75.178635">
        <ele>1088.3722</ele>
        <time>2021-11-14T10:29:47Z</time>
      </trkpt>
      <trkpt lat="4.41527" lon="-75.178696">
        <ele>1087.4315</ele>
        <time>2021-11-14T10:29:48Z</time>
      </trkpt>
      <trkpt lat="4.41526" lon="-75.178703">
        <ele>1089.0813</ele>
        <time>2021-11-14T10:29:49Z</time>
      </trkpt>
      <trkpt lat="4.415202" lon="-75.178627">
        <ele>1089.5225</ele>
        <time>2021-11-14T10:29:50Z</time>
      </trkpt>
      <trkpt lat="4.415186" lon="-75.178604">
        <ele>1089.5887</ele>
        <time>2021-11-14T10:29:51Z</time>
      </trkpt>
      <trkpt lat="4.415179" lon="-75.178604">
        <ele>1091.3567</ele>
        <time>2021-11-14T10:29:52Z</time>
      </trkpt>
      <trkpt lat="4.415162" lon="-75.178535">
        <ele>1090.8268</ele>
        <time>2021-11-14T10:29:53Z</time>
      </trkpt>
      <trkpt lat="4.415149" lon="-75.178505">
        <ele>1089.3256</ele>
        <time>2021-11-14T10:29:54Z</time>
      </trkpt>
      <trkpt lat="4.415125" lon="-75.178474">
        <ele>1089.366</ele>
        <time>2021-11-14T10:29:55Z</time>
      </trkpt>
      <trkpt lat="4.415132" lon="-75.178452">
        <ele>1088.6864</ele>
        <time>2021-11-14T10:29:56Z</time>
      </trkpt>
      <trkpt lat="4.415105" lon="-75.178413">
        <ele>1085.9283</ele>
        <time>2021-11-14T10:29:57Z</time>
      </trkpt>
      <trkpt lat="4.41499" lon="-75.178345">
        <ele>1086.2517</ele>
        <time>2021-11-14T10:29:58Z</time>
      </trkpt>
      <trkpt lat="4.414979" lon="-75.17836">
        <ele>1083.1226</ele>
        <time>2021-11-14T10:29:59Z</time>
      </trkpt>
      <trkpt lat="4.414928" lon="-75.178299">
        <ele>1082.8743</ele>
        <time>2021-11-14T10:30:00Z</time>
      </trkpt>
      <trkpt lat="4.414943" lon="-75.178291">
        <ele>1082.8033</ele>
        <time>2021-11-14T10:30:01Z</time>
      </trkpt>
      <trkpt lat="4.414839" lon="-75.178185">
        <ele>1082.8033</ele>
        <time>2021-11-14T10:30:02Z</time>
      </trkpt>
      <trkpt lat="4.414915" lon="-75.178055">
        <ele>1082.6399</ele>
        <time>2021-11-14T10:30:05Z</time>
      </trkpt>
      <trkpt lat="4.414931" lon="-75.178017">
        <ele>1082.8308</ele>
        <time>2021-11-14T10:30:06Z</time>
      </trkpt>
      <trkpt lat="4.414916" lon="-75.177963">
        <ele>1083.014</ele>
        <time>2021-11-14T10:30:07Z</time>
      </trkpt>
      <trkpt lat="4.414884" lon="-75.177948">
        <ele>1082.9629</ele>
        <time>2021-11-14T10:30:08Z</time>
      </trkpt>
      <trkpt lat="4.414891" lon="-75.177902">
        <ele>1081.5348</ele>
        <time>2021-11-14T10:30:09Z</time>
      </trkpt>
      <trkpt lat="4.414855" lon="-75.177872">
        <ele>1081.6403</ele>
        <time>2021-11-14T10:30:10Z</time>
      </trkpt>
      <trkpt lat="4.414855" lon="-75.177872">
        <ele>1079.3936</ele>
        <time>2021-11-14T10:30:11Z</time>
      </trkpt>
      <trkpt lat="4.414853" lon="-75.177879">
        <ele>1082.071</ele>
        <time>2021-11-14T10:30:12Z</time>
      </trkpt>
      <trkpt lat="4.414851" lon="-75.177879">
        <ele>1082.9845</ele>
        <time>2021-11-14T10:30:13Z</time>
      </trkpt>
      <trkpt lat="4.414848" lon="-75.177879">
        <ele>1083.5507</ele>
        <time>2021-11-14T10:30:14Z</time>
      </trkpt>
      <trkpt lat="4.414847" lon="-75.177879">
        <ele>1084.0779</ele>
        <time>2021-11-14T10:30:16Z</time>
      </trkpt>
      <trkpt lat="4.41485" lon="-75.177872">
        <ele>1085.1322</ele>
        <time>2021-11-14T10:30:17Z</time>
      </trkpt>
      <trkpt lat="4.414852" lon="-75.177864">
        <ele>1085.7646</ele>
        <time>2021-11-14T10:30:18Z</time>
      </trkpt>
      <trkpt lat="4.414853" lon="-75.177864">
        <ele>1086.1775</ele>
        <time>2021-11-14T10:30:19Z</time>
      </trkpt>
      <trkpt lat="4.414855" lon="-75.177856">
        <ele>1086.5187</ele>
        <time>2021-11-14T10:30:20Z</time>
      </trkpt>
      <trkpt lat="4.414856" lon="-75.177856">
        <ele>1086.8872</ele>
        <time>2021-11-14T10:30:21Z</time>
      </trkpt>
      <trkpt lat="4.414856" lon="-75.177856">
        <ele>1086.636</ele>
        <time>2021-11-14T10:30:22Z</time>
      </trkpt>
      <trkpt lat="4.414857" lon="-75.177856">
        <ele>1086.4689</ele>
        <time>2021-11-14T10:30:24Z</time>
      </trkpt>
      <trkpt lat="4.414857" lon="-75.177856">
        <ele>1086.4772</ele>
        <time>2021-11-14T10:30:25Z</time>
      </trkpt>
      <trkpt lat="4.414857" lon="-75.177856">
        <ele>1086.4674</ele>
        <time>2021-11-14T10:30:26Z</time>
      </trkpt>
      <trkpt lat="4.414857" lon="-75.177856">
        <ele>1086.4639</ele>
        <time>2021-11-14T10:30:27Z</time>
      </trkpt>
      <trkpt lat="4.414857" lon="-75.177856">
        <ele>1086.449</ele>
        <time>2021-11-14T10:30:28Z</time>
      </trkpt>
      <trkpt lat="4.414857" lon="-75.177856">
        <ele>1086.4402</ele>
        <time>2021-11-14T10:30:29Z</time>
      </trkpt>
      <trkpt lat="4.414857" lon="-75.177856">
        <ele>1086.4288</ele>
        <time>2021-11-14T10:30:31Z</time>
      </trkpt>
      <trkpt lat="4.414856" lon="-75.177856">
        <ele>1086.412</ele>
        <time>2021-11-14T10:30:32Z</time>
      </trkpt>
      <trkpt lat="4.414856" lon="-75.177856">
        <ele>1086.4066</ele>
        <time>2021-11-14T10:30:33Z</time>
      </trkpt>
      <trkpt lat="4.414856" lon="-75.177856">
        <ele>1086.4061</ele>
        <time>2021-11-14T10:30:34Z</time>
      </trkpt>
      <trkpt lat="4.414856" lon="-75.177856">
        <ele>1086.4009</ele>
        <time>2021-11-14T10:30:35Z</time>
      </trkpt>
      <trkpt lat="4.414856" lon="-75.177856">
        <ele>1086.4037</ele>
        <time>2021-11-14T10:30:36Z</time>
      </trkpt>
      <trkpt lat="4.414856" lon="-75.177856">
        <ele>1086.4</ele>
        <time>2021-11-14T10:30:37Z</time>
      </trkpt>
      <trkpt lat="4.414856" lon="-75.177856">
        <ele>1086.4048</ele>
        <time>2021-11-14T10:30:38Z</time>
      </trkpt>
      <trkpt lat="4.414856" lon="-75.177856">
        <ele>1086.4095</ele>
        <time>2021-11-14T10:30:39Z</time>
      </trkpt>
      <trkpt lat="4.414856" lon="-75.177856">
        <ele>1086.4095</ele>
        <time>2021-11-14T10:30:40Z</time>
      </trkpt>
      <trkpt lat="4.414856" lon="-75.177856">
        <ele>1086.4161</ele>
        <time>2021-11-14T10:30:42Z</time>
      </trkpt>
      <trkpt lat="4.414856" lon="-75.177856">
        <ele>1086.7352</ele>
        <time>2021-11-14T10:30:43Z</time>
      </trkpt>
      <trkpt lat="4.414852" lon="-75.177856">
        <ele>1086.7195</ele>
        <time>2021-11-14T10:30:44Z</time>
      </trkpt>
      <trkpt lat="4.414848" lon="-75.177849">
        <ele>1086.7283</ele>
        <time>2021-11-14T10:30:45Z</time>
      </trkpt>
      <trkpt lat="4.414847" lon="-75.177849">
        <ele>1086.738</ele>
        <time>2021-11-14T10:30:46Z</time>
      </trkpt>
      <trkpt lat="4.414846" lon="-75.177849">
        <ele>1086.8914</ele>
        <time>2021-11-14T10:30:47Z</time>
      </trkpt>
      <trkpt lat="4.414845" lon="-75.177849">
        <ele>1086.9045</ele>
        <time>2021-11-14T10:30:48Z</time>
      </trkpt>
      <trkpt lat="4.414845" lon="-75.177849">
        <ele>1086.9106</ele>
        <time>2021-11-14T10:30:49Z</time>
      </trkpt>
      <trkpt lat="4.414844" lon="-75.177849">
        <ele>1086.9221</ele>
        <time>2021-11-14T10:30:50Z</time>
      </trkpt>
      <trkpt lat="4.414844" lon="-75.177849">
        <ele>1086.9307</ele>
        <time>2021-11-14T10:30:51Z</time>
      </trkpt>
      <trkpt lat="4.414843" lon="-75.177849">
        <ele>1086.9406</ele>
        <time>2021-11-14T10:30:52Z</time>
      </trkpt>
      <trkpt lat="4.414843" lon="-75.177849">
        <ele>1086.948</ele>
        <time>2021-11-14T10:30:53Z</time>
      </trkpt>
      <trkpt lat="4.414842" lon="-75.177849">
        <ele>1086.958</ele>
        <time>2021-11-14T10:30:54Z</time>
      </trkpt>
      <trkpt lat="4.414842" lon="-75.177856">
        <ele>1086.9635</ele>
        <time>2021-11-14T10:30:55Z</time>
      </trkpt>
      <trkpt lat="4.414842" lon="-75.177856">
        <ele>1086.9634</ele>
        <time>2021-11-14T10:30:56Z</time>
      </trkpt>
      <trkpt lat="4.414841" lon="-75.177856">
        <ele>1086.9628</ele>
        <time>2021-11-14T10:30:58Z</time>
      </trkpt>
      <trkpt lat="4.414841" lon="-75.177856">
        <ele>1086.9722</ele>
        <time>2021-11-14T10:30:59Z</time>
      </trkpt>
      <trkpt lat="4.41484" lon="-75.177856">
        <ele>1086.9655</ele>
        <time>2021-11-14T10:31:00Z</time>
      </trkpt>
      <trkpt lat="4.41484" lon="-75.177856">
        <ele>1086.9657</ele>
        <time>2021-11-14T10:31:01Z</time>
      </trkpt>
      <trkpt lat="4.41484" lon="-75.177856">
        <ele>1086.9706</ele>
        <time>2021-11-14T10:31:02Z</time>
      </trkpt>
      <trkpt lat="4.414839" lon="-75.177856">
        <ele>1086.9741</ele>
        <time>2021-11-14T10:31:03Z</time>
      </trkpt>
      <trkpt lat="4.414839" lon="-75.177856">
        <ele>1086.9741</ele>
        <time>2021-11-14T10:31:04Z</time>
      </trkpt>
      <trkpt lat="4.414839" lon="-75.177856">
        <ele>1086.9717</ele>
        <time>2021-11-14T10:31:05Z</time>
      </trkpt>
      <trkpt lat="4.414838" lon="-75.177856">
        <ele>1086.9802</ele>
        <time>2021-11-14T10:31:06Z</time>
      </trkpt>
      <trkpt lat="4.414838" lon="-75.177856">
        <ele>1086.9867</ele>
        <time>2021-11-14T10:31:07Z</time>
      </trkpt>
      <trkpt lat="4.414837" lon="-75.177856">
        <ele>1086.9862</ele>
        <time>2021-11-14T10:31:08Z</time>
      </trkpt>
      <trkpt lat="4.414837" lon="-75.177856">
        <ele>1086.9984</ele>
        <time>2021-11-14T10:31:09Z</time>
      </trkpt>
      <trkpt lat="4.414836" lon="-75.177856">
        <ele>1087.0032</ele>
        <time>2021-11-14T10:31:10Z</time>
      </trkpt>
      <trkpt lat="4.414836" lon="-75.177856">
        <ele>1087.0105</ele>
        <time>2021-11-14T10:31:11Z</time>
      </trkpt>
      <trkpt lat="4.414836" lon="-75.177856">
        <ele>1087.0125</ele>
        <time>2021-11-14T10:31:12Z</time>
      </trkpt>
      <trkpt lat="4.414835" lon="-75.177856">
        <ele>1087.0144</ele>
        <time>2021-11-14T10:31:13Z</time>
      </trkpt>
      <trkpt lat="4.414835" lon="-75.177856">
        <ele>1087.0187</ele>
        <time>2021-11-14T10:31:14Z</time>
      </trkpt>
      <trkpt lat="4.414835" lon="-75.177856">
        <ele>1087.0624</ele>
        <time>2021-11-14T10:31:15Z</time>
      </trkpt>
      <trkpt lat="4.414834" lon="-75.177856">
        <ele>1087.064</ele>
        <time>2021-11-14T10:31:16Z</time>
      </trkpt>
      <trkpt lat="4.414834" lon="-75.177856">
        <ele>1087.1049</ele>
        <time>2021-11-14T10:31:17Z</time>
      </trkpt>
      <trkpt lat="4.414834" lon="-75.177856">
        <ele>1087.0868</ele>
        <time>2021-11-14T10:31:18Z</time>
      </trkpt>
      <trkpt lat="4.414833" lon="-75.177856">
        <ele>1087.0856</ele>
        <time>2021-11-14T10:31:19Z</time>
      </trkpt>
      <trkpt lat="4.414831" lon="-75.177849">
        <ele>1087.4116</ele>
        <time>2021-11-14T10:31:20Z</time>
      </trkpt>
      <trkpt lat="4.414825" lon="-75.177841">
        <ele>1087.3656</ele>
        <time>2021-11-14T10:31:21Z</time>
      </trkpt>
      <trkpt lat="4.414825" lon="-75.177841">
        <ele>1086.4697</ele>
        <time>2021-11-14T10:31:22Z</time>
      </trkpt>
      <trkpt lat="4.414763" lon="-75.17778">
        <ele>1086.5157</ele>
        <time>2021-11-14T10:31:23Z</time>
      </trkpt>
      <trkpt lat="4.414744" lon="-75.177765">
        <ele>1086.0365</ele>
        <time>2021-11-14T10:31:24Z</time>
      </trkpt>
      <trkpt lat="4.414731" lon="-75.17775">
        <ele>1086.3977</ele>
        <time>2021-11-14T10:31:25Z</time>
      </trkpt>
      <trkpt lat="4.414699" lon="-75.177727">
        <ele>1086.4213</ele>
        <time>2021-11-14T10:31:26Z</time>
      </trkpt>
      <trkpt lat="4.414663" lon="-75.177689">
        <ele>1085.7341</ele>
        <time>2021-11-14T10:31:27Z</time>
      </trkpt>
      <trkpt lat="4.414637" lon="-75.177658">
        <ele>1085.6</ele>
        <time>2021-11-14T10:31:28Z</time>
      </trkpt>
      <trkpt lat="4.41463" lon="-75.177635">
        <ele>1086.0337</ele>
        <time>2021-11-14T10:31:29Z</time>
      </trkpt>
      <trkpt lat="4.414622" lon="-75.177589">
        <ele>1085.3842</ele>
        <time>2021-11-14T10:31:30Z</time>
      </trkpt>
      <trkpt lat="4.414637" lon="-75.177551">
        <ele>1085.5361</ele>
        <time>2021-11-14T10:31:31Z</time>
      </trkpt>
      <trkpt lat="4.414746" lon="-75.177521">
        <ele>1086.0698</ele>
        <time>2021-11-14T10:31:32Z</time>
      </trkpt>
      <trkpt lat="4.414793" lon="-75.177483">
        <ele>1085.3629</ele>
        <time>2021-11-14T10:31:33Z</time>
      </trkpt>
      <trkpt lat="4.414821" lon="-75.17746">
        <ele>1087.6768</ele>
        <time>2021-11-14T10:31:34Z</time>
      </trkpt>
      <trkpt lat="4.414887" lon="-75.177414">
        <ele>1088.3047</ele>
        <time>2021-11-14T10:31:36Z</time>
      </trkpt>
      <trkpt lat="4.415039" lon="-75.177299">
        <ele>1088.4117</ele>
        <time>2021-11-14T10:31:37Z</time>
      </trkpt>
      <trkpt lat="4.415079" lon="-75.177277">
        <ele>1088.6829</ele>
        <time>2021-11-14T10:31:38Z</time>
      </trkpt>
      <trkpt lat="4.415191" lon="-75.177193">
        <ele>1090.9641</ele>
        <time>2021-11-14T10:31:39Z</time>
      </trkpt>
      <trkpt lat="4.415283" lon="-75.177124">
        <ele>1092.8169</ele>
        <time>2021-11-14T10:31:40Z</time>
      </trkpt>
      <trkpt lat="4.415375" lon="-75.177055">
        <ele>1093.8851</ele>
        <time>2021-11-14T10:31:41Z</time>
      </trkpt>
      <trkpt lat="4.415461" lon="-75.176994">
        <ele>1094.645</ele>
        <time>2021-11-14T10:31:42Z</time>
      </trkpt>
      <trkpt lat="4.415547" lon="-75.176933">
        <ele>1095.546</ele>
        <time>2021-11-14T10:31:43Z</time>
      </trkpt>
      <trkpt lat="4.415648" lon="-75.176857">
        <ele>1095.9814</ele>
        <time>2021-11-14T10:31:44Z</time>
      </trkpt>
      <trkpt lat="4.415757" lon="-75.176773">
        <ele>1096.0819</ele>
        <time>2021-11-14T10:31:45Z</time>
      </trkpt>
      <trkpt lat="4.415854" lon="-75.176704">
        <ele>1095.9271</ele>
        <time>2021-11-14T10:31:46Z</time>
      </trkpt>
      <trkpt lat="4.415941" lon="-75.176643">
        <ele>1095.702</ele>
        <time>2021-11-14T10:31:47Z</time>
      </trkpt>
      <trkpt lat="4.416067" lon="-75.176544">
        <ele>1095.691</ele>
        <time>2021-11-14T10:31:48Z</time>
      </trkpt>
      <trkpt lat="4.416155" lon="-75.176483">
        <ele>1095.892</ele>
        <time>2021-11-14T10:31:49Z</time>
      </trkpt>
      <trkpt lat="4.416228" lon="-75.17643">
        <ele>1096.3092</ele>
        <time>2021-11-14T10:31:50Z</time>
      </trkpt>
      <trkpt lat="4.416329" lon="-75.176353">
        <ele>1096.0615</ele>
        <time>2021-11-14T10:31:51Z</time>
      </trkpt>
      <trkpt lat="4.416417" lon="-75.176292">
        <ele>1095.4042</ele>
        <time>2021-11-14T10:31:52Z</time>
      </trkpt>
      <trkpt lat="4.416505" lon="-75.176224">
        <ele>1095.9039</ele>
        <time>2021-11-14T10:31:53Z</time>
      </trkpt>
      <trkpt lat="4.416516" lon="-75.176216">
        <ele>1096.0426</ele>
        <time>2021-11-14T10:31:54Z</time>
      </trkpt>
      <trkpt lat="4.416569" lon="-75.176178">
        <ele>1096.6573</ele>
        <time>2021-11-14T10:31:55Z</time>
      </trkpt>
      <trkpt lat="4.41661" lon="-75.176147">
        <ele>1096.1472</ele>
        <time>2021-11-14T10:31:56Z</time>
      </trkpt>
      <trkpt lat="4.41661" lon="-75.176147">
        <ele>1096.002</ele>
        <time>2021-11-14T10:31:57Z</time>
      </trkpt>
      <trkpt lat="4.416637" lon="-75.176132">
        <ele>1094.7192</ele>
        <time>2021-11-14T10:31:58Z</time>
      </trkpt>
      <trkpt lat="4.416687" lon="-75.176094">
        <ele>1094.3431</ele>
        <time>2021-11-14T10:31:59Z</time>
      </trkpt>
      <trkpt lat="4.416556" lon="-75.175941">
        <ele>1093.7567</ele>
        <time>2021-11-14T10:32:00Z</time>
      </trkpt>
      <trkpt lat="4.416486" lon="-75.175873">
        <ele>1092.9861</ele>
        <time>2021-11-14T10:32:01Z</time>
      </trkpt>
      <trkpt lat="4.41641" lon="-75.175789">
        <ele>1092.1083</ele>
        <time>2021-11-14T10:32:02Z</time>
      </trkpt>
      <trkpt lat="4.416313" lon="-75.17569">
        <ele>1091.702</ele>
        <time>2021-11-14T10:32:03Z</time>
      </trkpt>
      <trkpt lat="4.416218" lon="-75.175598">
        <ele>1090.5059</ele>
        <time>2021-11-14T10:32:04Z</time>
      </trkpt>
      <trkpt lat="4.416097" lon="-75.175468">
        <ele>1089.7938</ele>
        <time>2021-11-14T10:32:05Z</time>
      </trkpt>
      <trkpt lat="4.415958" lon="-75.175331">
        <ele>1088.8022</ele>
        <time>2021-11-14T10:32:06Z</time>
      </trkpt>
      <trkpt lat="4.415833" lon="-75.175201">
        <ele>1088.074</ele>
        <time>2021-11-14T10:32:07Z</time>
      </trkpt>
      <trkpt lat="4.415707" lon="-75.175072">
        <ele>1087.725</ele>
        <time>2021-11-14T10:32:08Z</time>
      </trkpt>
      <trkpt lat="4.415578" lon="-75.174942">
        <ele>1087.4077</ele>
        <time>2021-11-14T10:32:09Z</time>
      </trkpt>
      <trkpt lat="4.415455" lon="-75.17482">
        <ele>1087.2533</ele>
        <time>2021-11-14T10:32:10Z</time>
      </trkpt>
      <trkpt lat="4.415332" lon="-75.174698">
        <ele>1086.854</ele>
        <time>2021-11-14T10:32:11Z</time>
      </trkpt>
      <trkpt lat="4.415221" lon="-75.174583">
        <ele>1086.6204</ele>
        <time>2021-11-14T10:32:12Z</time>
      </trkpt>
      <trkpt lat="4.415114" lon="-75.174477">
        <ele>1086.4645</ele>
        <time>2021-11-14T10:32:13Z</time>
      </trkpt>
      <trkpt lat="4.414981" lon="-75.174347">
        <ele>1085.7844</ele>
        <time>2021-11-14T10:32:14Z</time>
      </trkpt>
      <trkpt lat="4.414851" lon="-75.174217">
        <ele>1085.9589</ele>
        <time>2021-11-14T10:32:15Z</time>
      </trkpt>
      <trkpt lat="4.414728" lon="-75.174095">
        <ele>1085.0541</ele>
        <time>2021-11-14T10:32:16Z</time>
      </trkpt>
      <trkpt lat="4.414621" lon="-75.173981">
        <ele>1084.5524</ele>
        <time>2021-11-14T10:32:17Z</time>
      </trkpt>
      <trkpt lat="4.414497" lon="-75.173859">
        <ele>1084.228</ele>
        <time>2021-11-14T10:32:18Z</time>
      </trkpt>
      <trkpt lat="4.414213" lon="-75.173569">
        <ele>1082.8505</ele>
        <time>2021-11-14T10:32:19Z</time>
      </trkpt>
      <trkpt lat="4.414074" lon="-75.173424">
        <ele>1081.8279</ele>
        <time>2021-11-14T10:32:20Z</time>
      </trkpt>
      <trkpt lat="4.413927" lon="-75.173317">
        <ele>1081.1709</ele>
        <time>2021-11-14T10:32:21Z</time>
      </trkpt>
      <trkpt lat="4.413761" lon="-75.173218">
        <ele>1080.2333</ele>
        <time>2021-11-14T10:32:22Z</time>
      </trkpt>
      <trkpt lat="4.413581" lon="-75.173096">
        <ele>1079.6483</ele>
        <time>2021-11-14T10:32:23Z</time>
      </trkpt>
      <trkpt lat="4.41341" lon="-75.172989">
        <ele>1079.0519</ele>
        <time>2021-11-14T10:32:24Z</time>
      </trkpt>
      <trkpt lat="4.413242" lon="-75.172882">
        <ele>1078.0376</ele>
        <time>2021-11-14T10:32:25Z</time>
      </trkpt>
      <trkpt lat="4.413078" lon="-75.172775">
        <ele>1077.2363</ele>
        <time>2021-11-14T10:32:26Z</time>
      </trkpt>
      <trkpt lat="4.413078" lon="-75.172775">
        <ele>1076.9381</ele>
        <time>2021-11-14T10:32:27Z</time>
      </trkpt>
      <trkpt lat="4.412948" lon="-75.172691">
        <ele>1076.8358</ele>
        <time>2021-11-14T10:32:28Z</time>
      </trkpt>
      <trkpt lat="4.412747" lon="-75.172577">
        <ele>1076.5902</ele>
        <time>2021-11-14T10:32:29Z</time>
      </trkpt>
      <trkpt lat="4.412585" lon="-75.172478">
        <ele>1076.4637</ele>
        <time>2021-11-14T10:32:30Z</time>
      </trkpt>
      <trkpt lat="4.412439" lon="-75.172371">
        <ele>1075.6355</ele>
        <time>2021-11-14T10:32:31Z</time>
      </trkpt>
      <trkpt lat="4.412323" lon="-75.172226">
        <ele>1075.4928</ele>
        <time>2021-11-14T10:32:32Z</time>
      </trkpt>
      <trkpt lat="4.412212" lon="-75.172089">
        <ele>1074.8237</ele>
        <time>2021-11-14T10:32:33Z</time>
      </trkpt>
      <trkpt lat="4.412104" lon="-75.171951">
        <ele>1074.3086</ele>
        <time>2021-11-14T10:32:34Z</time>
      </trkpt>
      <trkpt lat="4.411993" lon="-75.171806">
        <ele>1073.7109</ele>
        <time>2021-11-14T10:32:35Z</time>
      </trkpt>
      <trkpt lat="4.411859" lon="-75.171638">
        <ele>1073.072</ele>
        <time>2021-11-14T10:32:36Z</time>
      </trkpt>
      <trkpt lat="4.411716" lon="-75.171463">
        <ele>1072.2653</ele>
        <time>2021-11-14T10:32:37Z</time>
      </trkpt>
      <trkpt lat="4.411591" lon="-75.171303">
        <ele>1071.4598</ele>
        <time>2021-11-14T10:32:38Z</time>
      </trkpt>
      <trkpt lat="4.411457" lon="-75.171135">
        <ele>1070.261</ele>
        <time>2021-11-14T10:32:39Z</time>
      </trkpt>
      <trkpt lat="4.411323" lon="-75.170967">
        <ele>1069.5442</ele>
        <time>2021-11-14T10:32:40Z</time>
      </trkpt>
      <trkpt lat="4.411195" lon="-75.170807">
        <ele>1067.5236</ele>
        <time>2021-11-14T10:32:41Z</time>
      </trkpt>
      <trkpt lat="4.411062" lon="-75.170639">
        <ele>1065.78</ele>
        <time>2021-11-14T10:32:43Z</time>
      </trkpt>
      <trkpt lat="4.410926" lon="-75.170471">
        <ele>1064.6733</ele>
        <time>2021-11-14T10:32:44Z</time>
      </trkpt>
      <trkpt lat="4.410792" lon="-75.170296">
        <ele>1063.9714</ele>
        <time>2021-11-14T10:32:45Z</time>
      </trkpt>
      <trkpt lat="4.410658" lon="-75.170128">
        <ele>1063.4674</ele>
        <time>2021-11-14T10:32:46Z</time>
      </trkpt>
      <trkpt lat="4.410524" lon="-75.16996">
        <ele>1062.7096</ele>
        <time>2021-11-14T10:32:47Z</time>
      </trkpt>
      <trkpt lat="4.410392" lon="-75.169792">
        <ele>1062.3014</ele>
        <time>2021-11-14T10:32:48Z</time>
      </trkpt>
      <trkpt lat="4.41026" lon="-75.169617">
        <ele>1061.9692</ele>
        <time>2021-11-14T10:32:49Z</time>
      </trkpt>
      <trkpt lat="4.41014" lon="-75.169464">
        <ele>1061.641</ele>
        <time>2021-11-14T10:32:50Z</time>
      </trkpt>
      <trkpt lat="4.41002" lon="-75.169304">
        <ele>1061.087</ele>
        <time>2021-11-14T10:32:51Z</time>
      </trkpt>
      <trkpt lat="4.409897" lon="-75.169144">
        <ele>1060.9854</ele>
        <time>2021-11-14T10:32:52Z</time>
      </trkpt>
      <trkpt lat="4.409779" lon="-75.168991">
        <ele>1060.9396</ele>
        <time>2021-11-14T10:32:53Z</time>
      </trkpt>
      <trkpt lat="4.409653" lon="-75.168823">
        <ele>1060.5221</ele>
        <time>2021-11-14T10:32:54Z</time>
      </trkpt>
      <trkpt lat="4.409541" lon="-75.168678">
        <ele>1060.113</ele>
        <time>2021-11-14T10:32:55Z</time>
      </trkpt>
      <trkpt lat="4.409448" lon="-75.168549">
        <ele>1059.6683</ele>
        <time>2021-11-14T10:32:56Z</time>
      </trkpt>
      <trkpt lat="4.409349" lon="-75.168419">
        <ele>1058.2457</ele>
        <time>2021-11-14T10:32:57Z</time>
      </trkpt>
      <trkpt lat="4.409228" lon="-75.168259">
        <ele>1057.7015</ele>
        <time>2021-11-14T10:32:58Z</time>
      </trkpt>
      <trkpt lat="4.409115" lon="-75.168106">
        <ele>1057.0143</ele>
        <time>2021-11-14T10:32:59Z</time>
      </trkpt>
      <trkpt lat="4.409115" lon="-75.168106">
        <ele>1056.4598</ele>
        <time>2021-11-14T10:33:00Z</time>
      </trkpt>
      <trkpt lat="4.409016" lon="-75.167984">
        <ele>1055.8165</ele>
        <time>2021-11-14T10:33:01Z</time>
      </trkpt>
      <trkpt lat="4.408887" lon="-75.167839">
        <ele>1054.916</ele>
        <time>2021-11-14T10:33:02Z</time>
      </trkpt>
      <trkpt lat="4.408748" lon="-75.167686">
        <ele>1054.1046</ele>
        <time>2021-11-14T10:33:03Z</time>
      </trkpt>
      <trkpt lat="4.408645" lon="-75.167572">
        <ele>1053.2592</ele>
        <time>2021-11-14T10:33:04Z</time>
      </trkpt>
      <trkpt lat="4.408524" lon="-75.167435">
        <ele>1052.5516</ele>
        <time>2021-11-14T10:33:05Z</time>
      </trkpt>
      <trkpt lat="4.408395" lon="-75.167297">
        <ele>1051.9409</ele>
        <time>2021-11-14T10:33:06Z</time>
      </trkpt>
      <trkpt lat="4.408268" lon="-75.167152">
        <ele>1051.0247</ele>
        <time>2021-11-14T10:33:07Z</time>
      </trkpt>
      <trkpt lat="4.408166" lon="-75.167046">
        <ele>1050.531</ele>
        <time>2021-11-14T10:33:08Z</time>
      </trkpt>
      <trkpt lat="4.408077" lon="-75.166946">
        <ele>1049.9003</ele>
        <time>2021-11-14T10:33:09Z</time>
      </trkpt>
      <trkpt lat="4.407993" lon="-75.166862">
        <ele>1049.215</ele>
        <time>2021-11-14T10:33:10Z</time>
      </trkpt>
      <trkpt lat="4.407913" lon="-75.166786">
        <ele>1049.2885</ele>
        <time>2021-11-14T10:33:11Z</time>
      </trkpt>
      <trkpt lat="4.407847" lon="-75.166725">
        <ele>1048.9669</ele>
        <time>2021-11-14T10:33:12Z</time>
      </trkpt>
      <trkpt lat="4.407786" lon="-75.166664">
        <ele>1048.5099</ele>
        <time>2021-11-14T10:33:13Z</time>
      </trkpt>
      <trkpt lat="4.407722" lon="-75.166603">
        <ele>1048.4863</ele>
        <time>2021-11-14T10:33:14Z</time>
      </trkpt>
      <trkpt lat="4.407684" lon="-75.166557">
        <ele>1048.3354</ele>
        <time>2021-11-14T10:33:15Z</time>
      </trkpt>
      <trkpt lat="4.407653" lon="-75.166519">
        <ele>1048.1454</ele>
        <time>2021-11-14T10:33:16Z</time>
      </trkpt>
      <trkpt lat="4.407611" lon="-75.166473">
        <ele>1047.9674</ele>
        <time>2021-11-14T10:33:17Z</time>
      </trkpt>
      <trkpt lat="4.407583" lon="-75.166435">
        <ele>1047.3665</ele>
        <time>2021-11-14T10:33:18Z</time>
      </trkpt>
      <trkpt lat="4.407567" lon="-75.16642">
        <ele>1047.3091</ele>
        <time>2021-11-14T10:33:19Z</time>
      </trkpt>
      <trkpt lat="4.407544" lon="-75.166389">
        <ele>1047.2869</ele>
        <time>2021-11-14T10:33:20Z</time>
      </trkpt>
      <trkpt lat="4.407529" lon="-75.166374">
        <ele>1047.2804</ele>
        <time>2021-11-14T10:33:21Z</time>
      </trkpt>
      <trkpt lat="4.407522" lon="-75.166367">
        <ele>1047.2795</ele>
        <time>2021-11-14T10:33:22Z</time>
      </trkpt>
      <trkpt lat="4.40738" lon="-75.166489">
        <ele>1046.7888</ele>
        <time>2021-11-14T10:33:23Z</time>
      </trkpt>
      <trkpt lat="4.407356" lon="-75.166504">
        <ele>1046.592</ele>
        <time>2021-11-14T10:33:24Z</time>
      </trkpt>
      <trkpt lat="4.407335" lon="-75.16655">
        <ele>1045.8488</ele>
        <time>2021-11-14T10:33:25Z</time>
      </trkpt>
      <trkpt lat="4.407316" lon="-75.166512">
        <ele>1045.9268</ele>
        <time>2021-11-14T10:33:26Z</time>
      </trkpt>
      <trkpt lat="4.407314" lon="-75.166512">
        <ele>1045.5854</ele>
        <time>2021-11-14T10:33:27Z</time>
      </trkpt>
      <trkpt lat="4.407316" lon="-75.166512">
        <ele>1045.4722</ele>
        <time>2021-11-14T10:33:28Z</time>
      </trkpt>
      <trkpt lat="4.407318" lon="-75.166512">
        <ele>1045.512</ele>
        <time>2021-11-14T10:33:29Z</time>
      </trkpt>
      <trkpt lat="4.407316" lon="-75.166512">
        <ele>1044.2465</ele>
        <time>2021-11-14T10:33:30Z</time>
      </trkpt>
      <trkpt lat="4.407316" lon="-75.166512">
        <ele>1044.987</ele>
        <time>2021-11-14T10:33:31Z</time>
      </trkpt>
      <trkpt lat="4.40731" lon="-75.166512">
        <ele>1045.1547</ele>
        <time>2021-11-14T10:33:32Z</time>
      </trkpt>
      <trkpt lat="4.407308" lon="-75.166512">
        <ele>1044.7203</ele>
        <time>2021-11-14T10:33:33Z</time>
      </trkpt>
      <trkpt lat="4.407305" lon="-75.166512">
        <ele>1044.7727</ele>
        <time>2021-11-14T10:33:35Z</time>
      </trkpt>
      <trkpt lat="4.407295" lon="-75.166504">
        <ele>1044.8503</ele>
        <time>2021-11-14T10:33:36Z</time>
      </trkpt>
      <trkpt lat="4.407292" lon="-75.166504">
        <ele>1044.6858</ele>
        <time>2021-11-14T10:33:37Z</time>
      </trkpt>
      <trkpt lat="4.40729" lon="-75.166504">
        <ele>1044.0414</ele>
        <time>2021-11-14T10:33:38Z</time>
      </trkpt>
      <trkpt lat="4.407288" lon="-75.166496">
        <ele>1044.3845</ele>
        <time>2021-11-14T10:33:39Z</time>
      </trkpt>
      <trkpt lat="4.407286" lon="-75.166496">
        <ele>1044.5132</ele>
        <time>2021-11-14T10:33:40Z</time>
      </trkpt>
      <trkpt lat="4.407287" lon="-75.166496">
        <ele>1044.0023</ele>
        <time>2021-11-14T10:33:41Z</time>
      </trkpt>
      <trkpt lat="4.407293" lon="-75.166496">
        <ele>1043.8705</ele>
        <time>2021-11-14T10:33:42Z</time>
      </trkpt>
      <trkpt lat="4.407296" lon="-75.166496">
        <ele>1043.7091</ele>
        <time>2021-11-14T10:33:43Z</time>
      </trkpt>
      <trkpt lat="4.407297" lon="-75.166489">
        <ele>1044.3533</ele>
        <time>2021-11-14T10:33:44Z</time>
      </trkpt>
      <trkpt lat="4.407298" lon="-75.166489">
        <ele>1044.7687</ele>
        <time>2021-11-14T10:33:45Z</time>
      </trkpt>
      <trkpt lat="4.407301" lon="-75.166481">
        <ele>1044.9308</ele>
        <time>2021-11-14T10:33:46Z</time>
      </trkpt>
      <trkpt lat="4.407299" lon="-75.166481">
        <ele>1043.7094</ele>
        <time>2021-11-14T10:33:47Z</time>
      </trkpt>
      <trkpt lat="4.407269" lon="-75.166451">
        <ele>1042.7628</ele>
        <time>2021-11-14T10:33:48Z</time>
      </trkpt>
      <trkpt lat="4.407264" lon="-75.166428">
        <ele>1042.8441</ele>
        <time>2021-11-14T10:33:49Z</time>
      </trkpt>
      <trkpt lat="4.407272" lon="-75.166412">
        <ele>1042.7355</ele>
        <time>2021-11-14T10:33:50Z</time>
      </trkpt>
      <trkpt lat="4.407268" lon="-75.166405">
        <ele>1043.0974</ele>
        <time>2021-11-14T10:33:51Z</time>
      </trkpt>
      <trkpt lat="4.407256" lon="-75.166397">
        <ele>1043.9829</ele>
        <time>2021-11-14T10:33:52Z</time>
      </trkpt>
      <trkpt lat="4.407256" lon="-75.166405">
        <ele>1044.0546</ele>
        <time>2021-11-14T10:33:53Z</time>
      </trkpt>
      <trkpt lat="4.407255" lon="-75.166412">
        <ele>1044.1145</ele>
        <time>2021-11-14T10:33:54Z</time>
      </trkpt>
      <trkpt lat="4.407255" lon="-75.166412">
        <ele>1043.9459</ele>
        <time>2021-11-14T10:33:55Z</time>
      </trkpt>
      <trkpt lat="4.407256" lon="-75.166412">
        <ele>1044.1665</ele>
        <time>2021-11-14T10:33:56Z</time>
      </trkpt>
      <trkpt lat="4.407256" lon="-75.166412">
        <ele>1044.2328</ele>
        <time>2021-11-14T10:33:57Z</time>
      </trkpt>
      <trkpt lat="4.407257" lon="-75.166412">
        <ele>1044.2456</ele>
        <time>2021-11-14T10:33:59Z</time>
      </trkpt>
      <trkpt lat="4.40726" lon="-75.166412">
        <ele>1044.1504</ele>
        <time>2021-11-14T10:34:00Z</time>
      </trkpt>
      <trkpt lat="4.40726" lon="-75.166412">
        <ele>1044.9305</ele>
        <time>2021-11-14T10:34:01Z</time>
      </trkpt>
      <trkpt lat="4.40727" lon="-75.166412">
        <ele>1045.4055</ele>
        <time>2021-11-14T10:34:02Z</time>
      </trkpt>
      <trkpt lat="4.407276" lon="-75.166405">
        <ele>1045.7158</ele>
        <time>2021-11-14T10:34:03Z</time>
      </trkpt>
      <trkpt lat="4.40728" lon="-75.166405">
        <ele>1045.6965</ele>
        <time>2021-11-14T10:34:04Z</time>
      </trkpt>
      <trkpt lat="4.407281" lon="-75.166397">
        <ele>1046.5391</ele>
        <time>2021-11-14T10:34:05Z</time>
      </trkpt>
      <trkpt lat="4.407283" lon="-75.166389">
        <ele>1048.4702</ele>
        <time>2021-11-14T10:34:07Z</time>
      </trkpt>
      <trkpt lat="4.407324" lon="-75.166473">
        <ele>1047.9727</ele>
        <time>2021-11-14T10:34:08Z</time>
      </trkpt>
      <trkpt lat="4.407321" lon="-75.166473">
        <ele>1048.1759</ele>
        <time>2021-11-14T10:34:09Z</time>
      </trkpt>
      <trkpt lat="4.407323" lon="-75.166504">
        <ele>1047.7429</ele>
        <time>2021-11-14T10:34:10Z</time>
      </trkpt>
      <trkpt lat="4.407314" lon="-75.166512">
        <ele>1047.1892</ele>
        <time>2021-11-14T10:34:11Z</time>
      </trkpt>
      <trkpt lat="4.407289" lon="-75.166527">
        <ele>1046.2151</ele>
        <time>2021-11-14T10:34:12Z</time>
      </trkpt>
      <trkpt lat="4.407282" lon="-75.166534">
        <ele>1045.2314</ele>
        <time>2021-11-14T10:34:13Z</time>
      </trkpt>
      <trkpt lat="4.407271" lon="-75.166534">
        <ele>1045.2716</ele>
        <time>2021-11-14T10:34:14Z</time>
      </trkpt>
      <trkpt lat="4.407269" lon="-75.166534">
        <ele>1045.2028</ele>
        <time>2021-11-14T10:34:15Z</time>
      </trkpt>
      <trkpt lat="4.407269" lon="-75.166534">
        <ele>1045.0591</ele>
        <time>2021-11-14T10:34:16Z</time>
      </trkpt>
      <trkpt lat="4.407268" lon="-75.166534">
        <ele>1045.3416</ele>
        <time>2021-11-14T10:34:17Z</time>
      </trkpt>
      <trkpt lat="4.407264" lon="-75.166534">
        <ele>1045.3824</ele>
        <time>2021-11-14T10:34:19Z</time>
      </trkpt>
      <trkpt lat="4.407264" lon="-75.166534">
        <ele>1045.4509</ele>
        <time>2021-11-14T10:34:20Z</time>
      </trkpt>
      <trkpt lat="4.407299" lon="-75.166344">
        <ele>1047.7953</ele>
        <time>2021-11-14T10:36:56Z</time>
      </trkpt>
      <trkpt lat="4.407287" lon="-75.166328">
        <ele>1047.5806</ele>
        <time>2021-11-14T10:36:57Z</time>
      </trkpt>
      <trkpt lat="4.407286" lon="-75.166321">
        <ele>1045.7983</ele>
        <time>2021-11-14T10:36:58Z</time>
      </trkpt>
      <trkpt lat="4.407285" lon="-75.166298">
        <ele>1045.3092</ele>
        <time>2021-11-14T10:36:59Z</time>
      </trkpt>
      <trkpt lat="4.407291" lon="-75.16629">
        <ele>1044.4899</ele>
        <time>2021-11-14T10:37:00Z</time>
      </trkpt>
      <trkpt lat="4.407294" lon="-75.166283">
        <ele>1044.1469</ele>
        <time>2021-11-14T10:37:01Z</time>
      </trkpt>
      <trkpt lat="4.407302" lon="-75.166283">
        <ele>1043.9243</ele>
        <time>2021-11-14T10:37:02Z</time>
      </trkpt>
      <trkpt lat="4.407302" lon="-75.166275">
        <ele>1043.9651</ele>
        <time>2021-11-14T10:37:03Z</time>
      </trkpt>
      <trkpt lat="4.407301" lon="-75.166283">
        <ele>1044.7395</ele>
        <time>2021-11-14T10:37:04Z</time>
      </trkpt>
      <trkpt lat="4.407299" lon="-75.166275">
        <ele>1045.0631</ele>
        <time>2021-11-14T10:37:05Z</time>
      </trkpt>
      <trkpt lat="4.4073" lon="-75.166275">
        <ele>1045.1783</ele>
        <time>2021-11-14T10:37:06Z</time>
      </trkpt>
      <trkpt lat="4.407292" lon="-75.166275">
        <ele>1044.277</ele>
        <time>2021-11-14T10:37:07Z</time>
      </trkpt>
      <trkpt lat="4.4073" lon="-75.166245">
        <ele>1044.1886</ele>
        <time>2021-11-14T10:37:08Z</time>
      </trkpt>
      <trkpt lat="4.407307" lon="-75.166199">
        <ele>1043.8074</ele>
        <time>2021-11-14T10:37:09Z</time>
      </trkpt>
      <trkpt lat="4.407297" lon="-75.166168">
        <ele>1043.5397</ele>
        <time>2021-11-14T10:37:10Z</time>
      </trkpt>
      <trkpt lat="4.407269" lon="-75.166122">
        <ele>1042.9249</ele>
        <time>2021-11-14T10:37:11Z</time>
      </trkpt>
      <trkpt lat="4.407064" lon="-75.165833">
        <ele>1041.8866</ele>
        <time>2021-11-14T10:37:14Z</time>
      </trkpt>
      <trkpt lat="4.406972" lon="-75.165733">
        <ele>1041.3357</ele>
        <time>2021-11-14T10:37:15Z</time>
      </trkpt>
      <trkpt lat="4.406872" lon="-75.165627">
        <ele>1040.8579</ele>
        <time>2021-11-14T10:37:16Z</time>
      </trkpt>
      <trkpt lat="4.406739" lon="-75.165482">
        <ele>1040.6857</ele>
        <time>2021-11-14T10:37:17Z</time>
      </trkpt>
      <trkpt lat="4.406613" lon="-75.165352">
        <ele>1040.2025</ele>
        <time>2021-11-14T10:37:18Z</time>
      </trkpt>
      <trkpt lat="4.406508" lon="-75.165207">
        <ele>1039.7607</ele>
        <time>2021-11-14T10:37:19Z</time>
      </trkpt>
      <trkpt lat="4.4064" lon="-75.165054">
        <ele>1039.3057</ele>
        <time>2021-11-14T10:37:20Z</time>
      </trkpt>
      <trkpt lat="4.406301" lon="-75.164917">
        <ele>1038.2468</ele>
        <time>2021-11-14T10:37:21Z</time>
      </trkpt>
      <trkpt lat="4.40621" lon="-75.164795">
        <ele>1038.0736</ele>
        <time>2021-11-14T10:37:22Z</time>
      </trkpt>
      <trkpt lat="4.406146" lon="-75.164703">
        <ele>1038.2424</ele>
        <time>2021-11-14T10:37:23Z</time>
      </trkpt>
      <trkpt lat="4.406047" lon="-75.164574">
        <ele>1038.2291</ele>
        <time>2021-11-14T10:37:24Z</time>
      </trkpt>
      <trkpt lat="4.405931" lon="-75.164413">
        <ele>1037.2709</ele>
        <time>2021-11-14T10:37:25Z</time>
      </trkpt>
      <trkpt lat="4.405736" lon="-75.164146">
        <ele>1036.2534</ele>
        <time>2021-11-14T10:37:26Z</time>
      </trkpt>
      <trkpt lat="4.405639" lon="-75.164017">
        <ele>1035.8915</ele>
        <time>2021-11-14T10:37:27Z</time>
      </trkpt>
      <trkpt lat="4.405558" lon="-75.163887">
        <ele>1035.2208</ele>
        <time>2021-11-14T10:37:29Z</time>
      </trkpt>
      <trkpt lat="4.405478" lon="-75.163742">
        <ele>1033.7974</ele>
        <time>2021-11-14T10:37:30Z</time>
      </trkpt>
      <trkpt lat="4.405399" lon="-75.163605">
        <ele>1033.0981</ele>
        <time>2021-11-14T10:37:31Z</time>
      </trkpt>
      <trkpt lat="4.405315" lon="-75.16346">
        <ele>1032.3538</ele>
        <time>2021-11-14T10:37:32Z</time>
      </trkpt>
      <trkpt lat="4.405236" lon="-75.163322">
        <ele>1031.8574</ele>
        <time>2021-11-14T10:37:33Z</time>
      </trkpt>
      <trkpt lat="4.405161" lon="-75.163193">
        <ele>1032.1027</ele>
        <time>2021-11-14T10:37:34Z</time>
      </trkpt>
      <trkpt lat="4.405086" lon="-75.163055">
        <ele>1032.008</ele>
        <time>2021-11-14T10:37:36Z</time>
      </trkpt>
      <trkpt lat="4.404934" lon="-75.162796">
        <ele>1031.4569</ele>
        <time>2021-11-14T10:37:37Z</time>
      </trkpt>
      <trkpt lat="4.40486" lon="-75.162666">
        <ele>1031.1975</ele>
        <time>2021-11-14T10:37:38Z</time>
      </trkpt>
      <trkpt lat="4.404789" lon="-75.162544">
        <ele>1030.5952</ele>
        <time>2021-11-14T10:37:39Z</time>
      </trkpt>
      <trkpt lat="4.404721" lon="-75.162422">
        <ele>1030.4261</ele>
        <time>2021-11-14T10:37:41Z</time>
      </trkpt>
      <trkpt lat="4.404654" lon="-75.162308">
        <ele>1029.7921</ele>
        <time>2021-11-14T10:37:42Z</time>
      </trkpt>
      <trkpt lat="4.404585" lon="-75.162186">
        <ele>1029.7517</ele>
        <time>2021-11-14T10:37:43Z</time>
      </trkpt>
      <trkpt lat="4.404538" lon="-75.162064">
        <ele>1029.7476</ele>
        <time>2021-11-14T10:37:44Z</time>
      </trkpt>
      <trkpt lat="4.404489" lon="-75.161942">
        <ele>1029.5438</ele>
        <time>2021-11-14T10:37:45Z</time>
      </trkpt>
      <trkpt lat="4.404461" lon="-75.161835">
        <ele>1029.0503</ele>
        <time>2021-11-14T10:37:46Z</time>
      </trkpt>
      <trkpt lat="4.404445" lon="-75.161713">
        <ele>1028.926</ele>
        <time>2021-11-14T10:37:47Z</time>
      </trkpt>
      <trkpt lat="4.404429" lon="-75.161591">
        <ele>1028.4679</ele>
        <time>2021-11-14T10:37:48Z</time>
      </trkpt>
      <trkpt lat="4.404415" lon="-75.161446">
        <ele>1027.7859</ele>
        <time>2021-11-14T10:37:49Z</time>
      </trkpt>
      <trkpt lat="4.404408" lon="-75.161316">
        <ele>1027.41</ele>
        <time>2021-11-14T10:37:50Z</time>
      </trkpt>
      <trkpt lat="4.404401" lon="-75.161186">
        <ele>1027.1265</ele>
        <time>2021-11-14T10:37:51Z</time>
      </trkpt>
      <trkpt lat="4.404395" lon="-75.161064">
        <ele>1026.505</ele>
        <time>2021-11-14T10:37:52Z</time>
      </trkpt>
      <trkpt lat="4.40439" lon="-75.160957">
        <ele>1026.1316</ele>
        <time>2021-11-14T10:37:53Z</time>
      </trkpt>
      <trkpt lat="4.404385" lon="-75.160858">
        <ele>1025.8372</ele>
        <time>2021-11-14T10:37:54Z</time>
      </trkpt>
      <trkpt lat="4.404376" lon="-75.160675">
        <ele>1025.2943</ele>
        <time>2021-11-14T10:37:55Z</time>
      </trkpt>
      <trkpt lat="4.404372" lon="-75.160599">
        <ele>1024.8346</ele>
        <time>2021-11-14T10:37:56Z</time>
      </trkpt>
      <trkpt lat="4.404369" lon="-75.160545">
        <ele>1024.7996</ele>
        <time>2021-11-14T10:37:57Z</time>
      </trkpt>
      <trkpt lat="4.404367" lon="-75.160515">
        <ele>1024.5306</ele>
        <time>2021-11-14T10:37:58Z</time>
      </trkpt>
      <trkpt lat="4.404366" lon="-75.160484">
        <ele>1024.5222</ele>
        <time>2021-11-14T10:37:59Z</time>
      </trkpt>
      <trkpt lat="4.404365" lon="-75.160469">
        <ele>1024.3973</ele>
        <time>2021-11-14T10:38:00Z</time>
      </trkpt>
      <trkpt lat="4.404364" lon="-75.160446">
        <ele>1023.7261</ele>
        <time>2021-11-14T10:38:01Z</time>
      </trkpt>
      <trkpt lat="4.404363" lon="-75.160439">
        <ele>1023.79504</ele>
        <time>2021-11-14T10:38:03Z</time>
      </trkpt>
      <trkpt lat="4.404363" lon="-75.160439">
        <ele>1023.9933</ele>
        <time>2021-11-14T10:38:04Z</time>
      </trkpt>
      <trkpt lat="4.404363" lon="-75.160439">
        <ele>1023.88306</ele>
        <time>2021-11-14T10:38:05Z</time>
      </trkpt>
      <trkpt lat="4.404363" lon="-75.160439">
        <ele>1023.9807</ele>
        <time>2021-11-14T10:38:06Z</time>
      </trkpt>
      <trkpt lat="4.404363" lon="-75.160439">
        <ele>1023.76685</ele>
        <time>2021-11-14T10:38:07Z</time>
      </trkpt>
      <trkpt lat="4.404363" lon="-75.160439">
        <ele>1023.8114</ele>
        <time>2021-11-14T10:38:08Z</time>
      </trkpt>
      <trkpt lat="4.404363" lon="-75.160439">
        <ele>1024.0215</ele>
        <time>2021-11-14T10:38:09Z</time>
      </trkpt>
      <trkpt lat="4.404363" lon="-75.160439">
        <ele>1024.0001</ele>
        <time>2021-11-14T10:38:10Z</time>
      </trkpt>
      <trkpt lat="4.404363" lon="-75.160439">
        <ele>1024.247</ele>
        <time>2021-11-14T10:38:11Z</time>
      </trkpt>
      <trkpt lat="4.404363" lon="-75.160439">
        <ele>1024.2992</ele>
        <time>2021-11-14T10:38:12Z</time>
      </trkpt>
      <trkpt lat="4.404363" lon="-75.160439">
        <ele>1023.8684</ele>
        <time>2021-11-14T10:38:13Z</time>
      </trkpt>
      <trkpt lat="4.404363" lon="-75.160439">
        <ele>1023.9192</ele>
        <time>2021-11-14T10:38:14Z</time>
      </trkpt>
      <trkpt lat="4.404363" lon="-75.160439">
        <ele>1024.2794</ele>
        <time>2021-11-14T10:38:15Z</time>
      </trkpt>
      <trkpt lat="4.404363" lon="-75.160423">
        <ele>1023.8506</ele>
        <time>2021-11-14T10:38:17Z</time>
      </trkpt>
      <trkpt lat="4.40436" lon="-75.16037">
        <ele>1023.18726</ele>
        <time>2021-11-14T10:38:18Z</time>
      </trkpt>
      <trkpt lat="4.404357" lon="-75.160316">
        <ele>1023.7732</ele>
        <time>2021-11-14T10:38:19Z</time>
      </trkpt>
      <trkpt lat="4.404349" lon="-75.16011">
        <ele>1022.82983</ele>
        <time>2021-11-14T10:38:20Z</time>
      </trkpt>
      <trkpt lat="4.404345" lon="-75.159996">
        <ele>1022.9509</ele>
        <time>2021-11-14T10:38:21Z</time>
      </trkpt>
      <trkpt lat="4.404341" lon="-75.159874">
        <ele>1022.2134</ele>
        <time>2021-11-14T10:38:22Z</time>
      </trkpt>
      <trkpt lat="4.404334" lon="-75.159668">
        <ele>1021.8391</ele>
        <time>2021-11-14T10:38:23Z</time>
      </trkpt>
      <trkpt lat="4.404327" lon="-75.159492">
        <ele>1020.92993</ele>
        <time>2021-11-14T10:38:24Z</time>
      </trkpt>
      <trkpt lat="4.40432" lon="-75.159302">
        <ele>1020.5237</ele>
        <time>2021-11-14T10:38:25Z</time>
      </trkpt>
      <trkpt lat="4.404315" lon="-75.159149">
        <ele>1019.6902</ele>
        <time>2021-11-14T10:38:26Z</time>
      </trkpt>
      <trkpt lat="4.40431" lon="-75.158974">
        <ele>1019.0464</ele>
        <time>2021-11-14T10:38:27Z</time>
      </trkpt>
      <trkpt lat="4.404313" lon="-75.158813">
        <ele>1018.8766</ele>
        <time>2021-11-14T10:38:28Z</time>
      </trkpt>
      <trkpt lat="4.404315" lon="-75.158661">
        <ele>1017.4131</ele>
        <time>2021-11-14T10:38:29Z</time>
      </trkpt>
      <trkpt lat="4.40434" lon="-75.158432">
        <ele>1017.2478</ele>
        <time>2021-11-14T10:38:30Z</time>
      </trkpt>
      <trkpt lat="4.404369" lon="-75.158234">
        <ele>1016.3462</ele>
        <time>2021-11-14T10:38:31Z</time>
      </trkpt>
      <trkpt lat="4.404404" lon="-75.158066">
        <ele>1015.0425</ele>
        <time>2021-11-14T10:38:32Z</time>
      </trkpt>
      <trkpt lat="4.404441" lon="-75.157898">
        <ele>1014.6427</ele>
        <time>2021-11-14T10:38:33Z</time>
      </trkpt>
      <trkpt lat="4.404474" lon="-75.157738">
        <ele>1013.67285</ele>
        <time>2021-11-14T10:38:34Z</time>
      </trkpt>
      <trkpt lat="4.404505" lon="-75.157539">
        <ele>1013.21204</ele>
        <time>2021-11-14T10:38:35Z</time>
      </trkpt>
      <trkpt lat="4.404515" lon="-75.157349">
        <ele>1011.8977</ele>
        <time>2021-11-14T10:38:36Z</time>
      </trkpt>
      <trkpt lat="4.404512" lon="-75.157181">
        <ele>1010.74585</ele>
        <time>2021-11-14T10:38:37Z</time>
      </trkpt>
      <trkpt lat="4.404504" lon="-75.156998">
        <ele>1010.0513</ele>
        <time>2021-11-14T10:38:38Z</time>
      </trkpt>
      <trkpt lat="4.404471" lon="-75.156807">
        <ele>1009.1992</ele>
        <time>2021-11-14T10:38:39Z</time>
      </trkpt>
      <trkpt lat="4.404429" lon="-75.156624">
        <ele>1008.5137</ele>
        <time>2021-11-14T10:38:40Z</time>
      </trkpt>
      <trkpt lat="4.404372" lon="-75.156425">
        <ele>1007.897</ele>
        <time>2021-11-14T10:38:41Z</time>
      </trkpt>
      <trkpt lat="4.404317" lon="-75.15625">
        <ele>1006.92786</ele>
        <time>2021-11-14T10:38:42Z</time>
      </trkpt>
      <trkpt lat="4.404264" lon="-75.156075">
        <ele>1005.3638</ele>
        <time>2021-11-14T10:38:43Z</time>
      </trkpt>
      <trkpt lat="4.404208" lon="-75.155899">
        <ele>1004.8911</ele>
        <time>2021-11-14T10:38:44Z</time>
      </trkpt>
      <trkpt lat="4.404152" lon="-75.155724">
        <ele>1003.6671</ele>
        <time>2021-11-14T10:38:45Z</time>
      </trkpt>
      <trkpt lat="4.404096" lon="-75.155548">
        <ele>1003.34436</ele>
        <time>2021-11-14T10:38:46Z</time>
      </trkpt>
      <trkpt lat="4.404042" lon="-75.15538">
        <ele>1002.9652</ele>
        <time>2021-11-14T10:38:47Z</time>
      </trkpt>
      <trkpt lat="4.403992" lon="-75.155228">
        <ele>1001.8644</ele>
        <time>2021-11-14T10:38:48Z</time>
      </trkpt>
      <trkpt lat="4.40394" lon="-75.155083">
        <ele>1001.55994</ele>
        <time>2021-11-14T10:38:49Z</time>
      </trkpt>
      <trkpt lat="4.403878" lon="-75.15493">
        <ele>1000.20435</ele>
        <time>2021-11-14T10:38:50Z</time>
      </trkpt>
      <trkpt lat="4.403878" lon="-75.15493">
        <ele>1000.1079</ele>
        <time>2021-11-14T10:38:51Z</time>
      </trkpt>
      <trkpt lat="4.403789" lon="-75.154747">
        <ele>999.4695</ele>
        <time>2021-11-14T10:38:52Z</time>
      </trkpt>
      <trkpt lat="4.403728" lon="-75.154633">
        <ele>999.095</ele>
        <time>2021-11-14T10:38:53Z</time>
      </trkpt>
      <trkpt lat="4.403667" lon="-75.154518">
        <ele>998.5221</ele>
        <time>2021-11-14T10:38:54Z</time>
      </trkpt>
      <trkpt lat="4.403598" lon="-75.154388">
        <ele>997.8441</ele>
        <time>2021-11-14T10:38:55Z</time>
      </trkpt>
      <trkpt lat="4.403537" lon="-75.154289">
        <ele>996.8331</ele>
        <time>2021-11-14T10:38:56Z</time>
      </trkpt>
      <trkpt lat="4.403454" lon="-75.15416">
        <ele>995.1792</ele>
        <time>2021-11-14T10:38:57Z</time>
      </trkpt>
      <trkpt lat="4.403352" lon="-75.153999">
        <ele>995.51526</ele>
        <time>2021-11-14T10:38:58Z</time>
      </trkpt>
      <trkpt lat="4.403145" lon="-75.153664">
        <ele>996.7742</ele>
        <time>2021-11-14T10:38:59Z</time>
      </trkpt>
      <trkpt lat="4.403013" lon="-75.153435">
        <ele>996.7665</ele>
        <time>2021-11-14T10:39:00Z</time>
      </trkpt>
      <trkpt lat="4.402917" lon="-75.153267">
        <ele>996.66016</ele>
        <time>2021-11-14T10:39:01Z</time>
      </trkpt>
      <trkpt lat="4.402793" lon="-75.153053">
        <ele>997.0559</ele>
        <time>2021-11-14T10:39:02Z</time>
      </trkpt>
      <trkpt lat="4.402688" lon="-75.15287">
        <ele>995.7152</ele>
        <time>2021-11-14T10:39:03Z</time>
      </trkpt>
      <trkpt lat="4.402591" lon="-75.152702">
        <ele>994.8633</ele>
        <time>2021-11-14T10:39:04Z</time>
      </trkpt>
      <trkpt lat="4.402494" lon="-75.152534">
        <ele>993.69995</ele>
        <time>2021-11-14T10:39:05Z</time>
      </trkpt>
      <trkpt lat="4.402399" lon="-75.152374">
        <ele>993.05444</ele>
        <time>2021-11-14T10:39:06Z</time>
      </trkpt>
      <trkpt lat="4.402315" lon="-75.152222">
        <ele>992.17773</ele>
        <time>2021-11-14T10:39:07Z</time>
      </trkpt>
      <trkpt lat="4.402227" lon="-75.152046">
        <ele>991.7738</ele>
        <time>2021-11-14T10:39:08Z</time>
      </trkpt>
      <trkpt lat="4.402141" lon="-75.151833">
        <ele>991.18054</ele>
        <time>2021-11-14T10:39:09Z</time>
      </trkpt>
      <trkpt lat="4.402067" lon="-75.151642">
        <ele>990.3302</ele>
        <time>2021-11-14T10:39:10Z</time>
      </trkpt>
      <trkpt lat="4.401992" lon="-75.151428">
        <ele>989.56665</ele>
        <time>2021-11-14T10:39:11Z</time>
      </trkpt>
      <trkpt lat="4.40191" lon="-75.151199">
        <ele>988.6206</ele>
        <time>2021-11-14T10:39:12Z</time>
      </trkpt>
      <trkpt lat="4.401838" lon="-75.151024">
        <ele>988.2728</ele>
        <time>2021-11-14T10:39:13Z</time>
      </trkpt>
      <trkpt lat="4.40177" lon="-75.150864">
        <ele>988.76416</ele>
        <time>2021-11-14T10:39:14Z</time>
      </trkpt>
      <trkpt lat="4.401712" lon="-75.150703">
        <ele>988.56665</ele>
        <time>2021-11-14T10:39:16Z</time>
      </trkpt>
      <trkpt lat="4.401712" lon="-75.150703">
        <ele>988.5005</ele>
        <time>2021-11-14T10:39:17Z</time>
      </trkpt>
      <trkpt lat="4.401634" lon="-75.150467">
        <ele>986.6697</ele>
        <time>2021-11-14T10:39:18Z</time>
      </trkpt>
      <trkpt lat="4.401557" lon="-75.150246">
        <ele>985.9177</ele>
        <time>2021-11-14T10:39:19Z</time>
      </trkpt>
      <trkpt lat="4.401467" lon="-75.150032">
        <ele>985.79956</ele>
        <time>2021-11-14T10:39:20Z</time>
      </trkpt>
      <trkpt lat="4.401387" lon="-75.149841">
        <ele>985.40295</ele>
        <time>2021-11-14T10:39:21Z</time>
      </trkpt>
      <trkpt lat="4.4013" lon="-75.149628">
        <ele>984.12366</ele>
        <time>2021-11-14T10:39:22Z</time>
      </trkpt>
      <trkpt lat="4.401219" lon="-75.149406">
        <ele>983.87305</ele>
        <time>2021-11-14T10:39:23Z</time>
      </trkpt>
      <trkpt lat="4.401137" lon="-75.149185">
        <ele>983.2903</ele>
        <time>2021-11-14T10:39:24Z</time>
      </trkpt>
      <trkpt lat="4.401063" lon="-75.148979">
        <ele>982.95447</ele>
        <time>2021-11-14T10:39:25Z</time>
      </trkpt>
      <trkpt lat="4.400993" lon="-75.148788">
        <ele>982.6542</ele>
        <time>2021-11-14T10:39:26Z</time>
      </trkpt>
      <trkpt lat="4.400925" lon="-75.14859">
        <ele>982.43164</ele>
        <time>2021-11-14T10:39:27Z</time>
      </trkpt>
      <trkpt lat="4.400868" lon="-75.148415">
        <ele>982.76904</ele>
        <time>2021-11-14T10:39:28Z</time>
      </trkpt>
      <trkpt lat="4.400809" lon="-75.148239">
        <ele>983.1216</ele>
        <time>2021-11-14T10:39:29Z</time>
      </trkpt>
      <trkpt lat="4.400749" lon="-75.148056">
        <ele>982.4055</ele>
        <time>2021-11-14T10:39:30Z</time>
      </trkpt>
      <trkpt lat="4.400731" lon="-75.147911">
        <ele>983.2595</ele>
        <time>2021-11-14T10:39:31Z</time>
      </trkpt>
      <trkpt lat="4.40072" lon="-75.147774">
        <ele>983.6135</ele>
        <time>2021-11-14T10:39:32Z</time>
      </trkpt>
      <trkpt lat="4.400698" lon="-75.147598">
        <ele>983.4336</ele>
        <time>2021-11-14T10:39:33Z</time>
      </trkpt>
      <trkpt lat="4.400641" lon="-75.14743">
        <ele>983.1428</ele>
        <time>2021-11-14T10:39:34Z</time>
      </trkpt>
      <trkpt lat="4.400608" lon="-75.147331">
        <ele>981.8391</ele>
        <time>2021-11-14T10:39:35Z</time>
      </trkpt>
      <trkpt lat="4.400531" lon="-75.147141">
        <ele>981.0681</ele>
        <time>2021-11-14T10:39:36Z</time>
      </trkpt>
      <trkpt lat="4.400486" lon="-75.147026">
        <ele>980.99414</ele>
        <time>2021-11-14T10:39:37Z</time>
      </trkpt>
      <trkpt lat="4.400426" lon="-75.146881">
        <ele>980.79553</ele>
        <time>2021-11-14T10:39:38Z</time>
      </trkpt>
      <trkpt lat="4.400343" lon="-75.146721">
        <ele>980.05994</ele>
        <time>2021-11-14T10:39:39Z</time>
      </trkpt>
      <trkpt lat="4.400272" lon="-75.146591">
        <ele>980.0831</ele>
        <time>2021-11-14T10:39:40Z</time>
      </trkpt>
      <trkpt lat="4.400212" lon="-75.146477">
        <ele>979.68115</ele>
        <time>2021-11-14T10:39:41Z</time>
      </trkpt>
      <trkpt lat="4.400164" lon="-75.146385">
        <ele>978.34985</ele>
        <time>2021-11-14T10:39:42Z</time>
      </trkpt>
      <trkpt lat="4.400127" lon="-75.146317">
        <ele>977.44604</ele>
        <time>2021-11-14T10:39:43Z</time>
      </trkpt>
      <trkpt lat="4.400079" lon="-75.146233">
        <ele>977.5969</ele>
        <time>2021-11-14T10:39:44Z</time>
      </trkpt>
      <trkpt lat="4.400029" lon="-75.146156">
        <ele>977.3689</ele>
        <time>2021-11-14T10:39:45Z</time>
      </trkpt>
      <trkpt lat="4.400009" lon="-75.146133">
        <ele>976.85547</ele>
        <time>2021-11-14T10:39:46Z</time>
      </trkpt>
      <trkpt lat="4.399991" lon="-75.146118">
        <ele>976.94775</ele>
        <time>2021-11-14T10:39:47Z</time>
      </trkpt>
      <trkpt lat="4.399981" lon="-75.146103">
        <ele>976.99536</ele>
        <time>2021-11-14T10:39:48Z</time>
      </trkpt>
      <trkpt lat="4.39993" lon="-75.146049">
        <ele>976.5775</ele>
        <time>2021-11-14T10:39:49Z</time>
      </trkpt>
      <trkpt lat="4.39993" lon="-75.146049">
        <ele>976.7173</ele>
        <time>2021-11-14T10:39:50Z</time>
      </trkpt>
      <trkpt lat="4.399861" lon="-75.145996">
        <ele>976.7744</ele>
        <time>2021-11-14T10:39:51Z</time>
      </trkpt>
      <trkpt lat="4.399749" lon="-75.14595">
        <ele>976.4407</ele>
        <time>2021-11-14T10:39:52Z</time>
      </trkpt>
      <trkpt lat="4.399684" lon="-75.145897">
        <ele>976.75024</ele>
        <time>2021-11-14T10:39:54Z</time>
      </trkpt>
      <trkpt lat="4.399634" lon="-75.145805">
        <ele>977.5371</ele>
        <time>2021-11-14T10:39:55Z</time>
      </trkpt>
      <trkpt lat="4.39961" lon="-75.145706">
        <ele>977.32446</ele>
        <time>2021-11-14T10:39:56Z</time>
      </trkpt>
      <trkpt lat="4.3996" lon="-75.145607">
        <ele>977.025</ele>
        <time>2021-11-14T10:39:57Z</time>
      </trkpt>
      <trkpt lat="4.399624" lon="-75.145493">
        <ele>977.08105</ele>
        <time>2021-11-14T10:39:58Z</time>
      </trkpt>
      <trkpt lat="4.399665" lon="-75.145432">
        <ele>976.40845</ele>
        <time>2021-11-14T10:39:59Z</time>
      </trkpt>
      <trkpt lat="4.399737" lon="-75.145363">
        <ele>976.4761</ele>
        <time>2021-11-14T10:40:00Z</time>
      </trkpt>
      <trkpt lat="4.399913" lon="-75.145302">
        <ele>976.40515</ele>
        <time>2021-11-14T10:40:01Z</time>
      </trkpt>
      <trkpt lat="4.399969" lon="-75.145294">
        <ele>975.8734</ele>
        <time>2021-11-14T10:40:02Z</time>
      </trkpt>
      <trkpt lat="4.400079" lon="-75.145317">
        <ele>975.9049</ele>
        <time>2021-11-14T10:40:03Z</time>
      </trkpt>
      <trkpt lat="4.400191" lon="-75.14537">
        <ele>976.62744</ele>
        <time>2021-11-14T10:40:04Z</time>
      </trkpt>
      <trkpt lat="4.400333" lon="-75.145454">
        <ele>976.407</ele>
        <time>2021-11-14T10:40:05Z</time>
      </trkpt>
      <trkpt lat="4.400473" lon="-75.145485">
        <ele>975.1105</ele>
        <time>2021-11-14T10:40:06Z</time>
      </trkpt>
      <trkpt lat="4.400604" lon="-75.145454">
        <ele>974.59204</ele>
        <time>2021-11-14T10:40:07Z</time>
      </trkpt>
      <trkpt lat="4.400736" lon="-75.145416">
        <ele>973.3589</ele>
        <time>2021-11-14T10:40:08Z</time>
      </trkpt>
      <trkpt lat="4.400889" lon="-75.145355">
        <ele>972.4487</ele>
        <time>2021-11-14T10:40:09Z</time>
      </trkpt>
      <trkpt lat="4.401067" lon="-75.145287">
        <ele>970.88086</ele>
        <time>2021-11-14T10:40:10Z</time>
      </trkpt>
      <trkpt lat="4.401278" lon="-75.145203">
        <ele>970.1654</ele>
        <time>2021-11-14T10:40:11Z</time>
      </trkpt>
      <trkpt lat="4.401523" lon="-75.145111">
        <ele>969.63196</ele>
        <time>2021-11-14T10:40:12Z</time>
      </trkpt>
      <trkpt lat="4.401743" lon="-75.145035">
        <ele>969.7289</ele>
        <time>2021-11-14T10:40:13Z</time>
      </trkpt>
      <trkpt lat="4.401981" lon="-75.144943">
        <ele>969.6869</ele>
        <time>2021-11-14T10:40:14Z</time>
      </trkpt>
      <trkpt lat="4.402215" lon="-75.144867">
        <ele>968.85645</ele>
        <time>2021-11-14T10:40:15Z</time>
      </trkpt>
      <trkpt lat="4.402455" lon="-75.144783">
        <ele>968.52246</ele>
        <time>2021-11-14T10:40:16Z</time>
      </trkpt>
      <trkpt lat="4.402705" lon="-75.144691">
        <ele>968.2905</ele>
        <time>2021-11-14T10:40:17Z</time>
      </trkpt>
      <trkpt lat="4.402976" lon="-75.1446">
        <ele>967.93506</ele>
        <time>2021-11-14T10:40:18Z</time>
      </trkpt>
      <trkpt lat="4.40323" lon="-75.144508">
        <ele>967.37976</ele>
        <time>2021-11-14T10:40:19Z</time>
      </trkpt>
      <trkpt lat="4.40347" lon="-75.144424">
        <ele>967.6692</ele>
        <time>2021-11-14T10:40:20Z</time>
      </trkpt>
      <trkpt lat="4.404003" lon="-75.144234">
        <ele>967.4824</ele>
        <time>2021-11-14T10:40:21Z</time>
      </trkpt>
      <trkpt lat="4.404237" lon="-75.144157">
        <ele>967.3656</ele>
        <time>2021-11-14T10:40:22Z</time>
      </trkpt>
      <trkpt lat="4.404237" lon="-75.144157">
        <ele>967.4071</ele>
        <time>2021-11-14T10:40:23Z</time>
      </trkpt>
      <trkpt lat="4.40449" lon="-75.144066">
        <ele>966.8252</ele>
        <time>2021-11-14T10:40:24Z</time>
      </trkpt>
      <trkpt lat="4.404733" lon="-75.143974">
        <ele>966.59766</ele>
        <time>2021-11-14T10:40:25Z</time>
      </trkpt>
      <trkpt lat="4.404982" lon="-75.14389">
        <ele>966.448</ele>
        <time>2021-11-14T10:40:26Z</time>
      </trkpt>
      <trkpt lat="4.405245" lon="-75.143791">
        <ele>966.09985</ele>
        <time>2021-11-14T10:40:27Z</time>
      </trkpt>
      <trkpt lat="4.405494" lon="-75.143723">
        <ele>965.44336</ele>
        <time>2021-11-14T10:40:28Z</time>
      </trkpt>
      <trkpt lat="4.405745" lon="-75.143661">
        <ele>965.1377</ele>
        <time>2021-11-14T10:40:29Z</time>
      </trkpt>
      <trkpt lat="4.40601" lon="-75.143593">
        <ele>964.7053</ele>
        <time>2021-11-14T10:40:30Z</time>
      </trkpt>
      <trkpt lat="4.406273" lon="-75.143524">
        <ele>964.42114</ele>
        <time>2021-11-14T10:40:31Z</time>
      </trkpt>
      <trkpt lat="4.40654" lon="-75.143456">
        <ele>963.624</ele>
        <time>2021-11-14T10:40:33Z</time>
      </trkpt>
      <trkpt lat="4.406814" lon="-75.143387">
        <ele>963.3093</ele>
        <time>2021-11-14T10:40:34Z</time>
      </trkpt>
      <trkpt lat="4.407053" lon="-75.143318">
        <ele>962.8375</ele>
        <time>2021-11-14T10:40:35Z</time>
      </trkpt>
      <trkpt lat="4.407209" lon="-75.14328">
        <ele>962.2771</ele>
        <time>2021-11-14T10:40:36Z</time>
      </trkpt>
      <trkpt lat="4.407417" lon="-75.143227">
        <ele>961.92676</ele>
        <time>2021-11-14T10:40:37Z</time>
      </trkpt>
      <trkpt lat="4.40767" lon="-75.14315">
        <ele>961.3981</ele>
        <time>2021-11-14T10:40:38Z</time>
      </trkpt>
      <trkpt lat="4.407924" lon="-75.143082">
        <ele>960.9414</ele>
        <time>2021-11-14T10:40:39Z</time>
      </trkpt>
      <trkpt lat="4.408148" lon="-75.143021">
        <ele>959.8384</ele>
        <time>2021-11-14T10:40:40Z</time>
      </trkpt>
      <trkpt lat="4.408378" lon="-75.14296">
        <ele>959.65967</ele>
        <time>2021-11-14T10:40:41Z</time>
      </trkpt>
      <trkpt lat="4.408627" lon="-75.142891">
        <ele>959.0503</ele>
        <time>2021-11-14T10:40:42Z</time>
      </trkpt>
      <trkpt lat="4.408879" lon="-75.142822">
        <ele>958.3435</ele>
        <time>2021-11-14T10:40:43Z</time>
      </trkpt>
      <trkpt lat="4.409142" lon="-75.142754">
        <ele>957.61584</ele>
        <time>2021-11-14T10:40:44Z</time>
      </trkpt>
      <trkpt lat="4.4094" lon="-75.142685">
        <ele>956.3508</ele>
        <time>2021-11-14T10:40:45Z</time>
      </trkpt>
      <trkpt lat="4.409638" lon="-75.142616">
        <ele>955.76514</ele>
        <time>2021-11-14T10:40:46Z</time>
      </trkpt>
      <trkpt lat="4.409897" lon="-75.142548">
        <ele>955.57275</ele>
        <time>2021-11-14T10:40:47Z</time>
      </trkpt>
      <trkpt lat="4.410153" lon="-75.142487">
        <ele>955.8594</ele>
        <time>2021-11-14T10:40:48Z</time>
      </trkpt>
      <trkpt lat="4.410394" lon="-75.142418">
        <ele>955.34326</ele>
        <time>2021-11-14T10:40:49Z</time>
      </trkpt>
      <trkpt lat="4.410651" lon="-75.142349">
        <ele>955.4812</ele>
        <time>2021-11-14T10:40:50Z</time>
      </trkpt>
      <trkpt lat="4.410898" lon="-75.142281">
        <ele>955.1743</ele>
        <time>2021-11-14T10:40:51Z</time>
      </trkpt>
      <trkpt lat="4.411155" lon="-75.142227">
        <ele>956.0115</ele>
        <time>2021-11-14T10:40:52Z</time>
      </trkpt>
      <trkpt lat="4.411416" lon="-75.142189">
        <ele>956.2671</ele>
        <time>2021-11-14T10:40:53Z</time>
      </trkpt>
      <trkpt lat="4.411657" lon="-75.142174">
        <ele>956.3679</ele>
        <time>2021-11-14T10:40:54Z</time>
      </trkpt>
      <trkpt lat="4.411657" lon="-75.142174">
        <ele>956.51</ele>
        <time>2021-11-14T10:40:55Z</time>
      </trkpt>
      <trkpt lat="4.411916" lon="-75.142159">
        <ele>956.92163</ele>
        <time>2021-11-14T10:40:56Z</time>
      </trkpt>
      <trkpt lat="4.412197" lon="-75.142151">
        <ele>957.42114</ele>
        <time>2021-11-14T10:40:57Z</time>
      </trkpt>
      <trkpt lat="4.412463" lon="-75.142166">
        <ele>957.2422</ele>
        <time>2021-11-14T10:40:58Z</time>
      </trkpt>
      <trkpt lat="4.412719" lon="-75.142174">
        <ele>957.71106</ele>
        <time>2021-11-14T10:40:59Z</time>
      </trkpt>
      <trkpt lat="4.412957" lon="-75.142189">
        <ele>957.8827</ele>
        <time>2021-11-14T10:41:00Z</time>
      </trkpt>
      <trkpt lat="4.41321" lon="-75.142204">
        <ele>958.0676</ele>
        <time>2021-11-14T10:41:01Z</time>
      </trkpt>
      <trkpt lat="4.41346" lon="-75.142212">
        <ele>957.89</ele>
        <time>2021-11-14T10:41:02Z</time>
      </trkpt>
      <trkpt lat="4.413704" lon="-75.142227">
        <ele>957.87415</ele>
        <time>2021-11-14T10:41:03Z</time>
      </trkpt>
      <trkpt lat="4.413948" lon="-75.142242">
        <ele>958.27625</ele>
        <time>2021-11-14T10:41:04Z</time>
      </trkpt>
      <trkpt lat="4.414212" lon="-75.142265">
        <ele>958.9005</ele>
        <time>2021-11-14T10:41:05Z</time>
      </trkpt>
      <trkpt lat="4.414468" lon="-75.142288">
        <ele>958.79614</ele>
        <time>2021-11-14T10:41:06Z</time>
      </trkpt>
      <trkpt lat="4.414718" lon="-75.142311">
        <ele>958.94214</ele>
        <time>2021-11-14T10:41:07Z</time>
      </trkpt>
      <trkpt lat="4.414977" lon="-75.142334">
        <ele>959.3225</ele>
        <time>2021-11-14T10:41:08Z</time>
      </trkpt>
      <trkpt lat="4.415223" lon="-75.142357">
        <ele>959.7617</ele>
        <time>2021-11-14T10:41:09Z</time>
      </trkpt>
      <trkpt lat="4.415478" lon="-75.14238">
        <ele>960.36304</ele>
        <time>2021-11-14T10:41:10Z</time>
      </trkpt>
      <trkpt lat="4.416007" lon="-75.142426">
        <ele>961.792</ele>
        <time>2021-11-14T10:41:11Z</time>
      </trkpt>
      <trkpt lat="4.416262" lon="-75.142441">
        <ele>961.63135</ele>
        <time>2021-11-14T10:41:12Z</time>
      </trkpt>
      <trkpt lat="4.416499" lon="-75.142456">
        <ele>962.13574</ele>
        <time>2021-11-14T10:41:13Z</time>
      </trkpt>
      <trkpt lat="4.416755" lon="-75.142471">
        <ele>962.6062</ele>
        <time>2021-11-14T10:41:14Z</time>
      </trkpt>
      <trkpt lat="4.417027" lon="-75.142494">
        <ele>962.7522</ele>
        <time>2021-11-14T10:41:15Z</time>
      </trkpt>
      <trkpt lat="4.417266" lon="-75.142517">
        <ele>962.78625</ele>
        <time>2021-11-14T10:41:16Z</time>
      </trkpt>
      <trkpt lat="4.417516" lon="-75.142532">
        <ele>962.9403</ele>
        <time>2021-11-14T10:41:17Z</time>
      </trkpt>
      <trkpt lat="4.417768" lon="-75.142555">
        <ele>962.6826</ele>
        <time>2021-11-14T10:41:18Z</time>
      </trkpt>
      <trkpt lat="4.418016" lon="-75.142578">
        <ele>962.7197</ele>
        <time>2021-11-14T10:41:19Z</time>
      </trkpt>
      <trkpt lat="4.418277" lon="-75.142609">
        <ele>962.7129</ele>
        <time>2021-11-14T10:41:20Z</time>
      </trkpt>
      <trkpt lat="4.41852" lon="-75.142647">
        <ele>962.36597</ele>
        <time>2021-11-14T10:41:21Z</time>
      </trkpt>
      <trkpt lat="4.418756" lon="-75.142693">
        <ele>962.2467</ele>
        <time>2021-11-14T10:41:22Z</time>
      </trkpt>
      <trkpt lat="4.418993" lon="-75.142746">
        <ele>962.0669</ele>
        <time>2021-11-14T10:41:23Z</time>
      </trkpt>
      <trkpt lat="4.419228" lon="-75.142807">
        <ele>961.97705</ele>
        <time>2021-11-14T10:41:24Z</time>
      </trkpt>
      <trkpt lat="4.419467" lon="-75.142868">
        <ele>962.0166</ele>
        <time>2021-11-14T10:41:25Z</time>
      </trkpt>
      <trkpt lat="4.419467" lon="-75.142868">
        <ele>962.2417</ele>
        <time>2021-11-14T10:41:26Z</time>
      </trkpt>
      <trkpt lat="4.419687" lon="-75.142929">
        <ele>962.4845</ele>
        <time>2021-11-14T10:41:27Z</time>
      </trkpt>
      <trkpt lat="4.419907" lon="-75.14299">
        <ele>962.83997</ele>
        <time>2021-11-14T10:41:28Z</time>
      </trkpt>
      <trkpt lat="4.420157" lon="-75.143059">
        <ele>962.501</ele>
        <time>2021-11-14T10:41:29Z</time>
      </trkpt>
      <trkpt lat="4.420364" lon="-75.143112">
        <ele>962.7351</ele>
        <time>2021-11-14T10:41:30Z</time>
      </trkpt>
      <trkpt lat="4.420567" lon="-75.14315">
        <ele>963.27</ele>
        <time>2021-11-14T10:41:31Z</time>
      </trkpt>
      <trkpt lat="4.42075" lon="-75.143188">
        <ele>963.3878</ele>
        <time>2021-11-14T10:41:32Z</time>
      </trkpt>
      <trkpt lat="4.420913" lon="-75.143211">
        <ele>963.4453</ele>
        <time>2021-11-14T10:41:33Z</time>
      </trkpt>
      <trkpt lat="4.421081" lon="-75.143227">
        <ele>963.43054</ele>
        <time>2021-11-14T10:41:34Z</time>
      </trkpt>
      <trkpt lat="4.421227" lon="-75.143242">
        <ele>963.71094</ele>
        <time>2021-11-14T10:41:36Z</time>
      </trkpt>
      <trkpt lat="4.421369" lon="-75.143234">
        <ele>963.6399</ele>
        <time>2021-11-14T10:41:37Z</time>
      </trkpt>
      <trkpt lat="4.421496" lon="-75.143227">
        <ele>964.29663</ele>
        <time>2021-11-14T10:41:38Z</time>
      </trkpt>
      <trkpt lat="4.421606" lon="-75.143219">
        <ele>963.77954</ele>
        <time>2021-11-14T10:41:39Z</time>
      </trkpt>
      <trkpt lat="4.421697" lon="-75.143219">
        <ele>963.7949</ele>
        <time>2021-11-14T10:41:40Z</time>
      </trkpt>
      <trkpt lat="4.421791" lon="-75.143211">
        <ele>963.5033</ele>
        <time>2021-11-14T10:41:41Z</time>
      </trkpt>
      <trkpt lat="4.421894" lon="-75.143204">
        <ele>963.7261</ele>
        <time>2021-11-14T10:41:42Z</time>
      </trkpt>
      <trkpt lat="4.422004" lon="-75.143204">
        <ele>963.203</ele>
        <time>2021-11-14T10:41:43Z</time>
      </trkpt>
      <trkpt lat="4.422133" lon="-75.143181">
        <ele>962.73315</ele>
        <time>2021-11-14T10:41:44Z</time>
      </trkpt>
      <trkpt lat="4.422293" lon="-75.143158">
        <ele>962.7009</ele>
        <time>2021-11-14T10:41:45Z</time>
      </trkpt>
      <trkpt lat="4.422392" lon="-75.143127">
        <ele>962.5104</ele>
        <time>2021-11-14T10:41:46Z</time>
      </trkpt>
      <trkpt lat="4.422468" lon="-75.143097">
        <ele>962.2976</ele>
        <time>2021-11-14T10:41:47Z</time>
      </trkpt>
      <trkpt lat="4.422535" lon="-75.143028">
        <ele>962.3568</ele>
        <time>2021-11-14T10:41:48Z</time>
      </trkpt>
      <trkpt lat="4.422607" lon="-75.142944">
        <ele>961.9614</ele>
        <time>2021-11-14T10:41:49Z</time>
      </trkpt>
      <trkpt lat="4.422682" lon="-75.14283">
        <ele>961.1996</ele>
        <time>2021-11-14T10:41:50Z</time>
      </trkpt>
      <trkpt lat="4.422779" lon="-75.142761">
        <ele>960.5559</ele>
        <time>2021-11-14T10:41:51Z</time>
      </trkpt>
      <trkpt lat="4.422861" lon="-75.142715">
        <ele>960.72595</ele>
        <time>2021-11-14T10:41:52Z</time>
      </trkpt>
      <trkpt lat="4.422957" lon="-75.142677">
        <ele>960.7438</ele>
        <time>2021-11-14T10:41:53Z</time>
      </trkpt>
      <trkpt lat="4.423063" lon="-75.142677">
        <ele>960.79956</ele>
        <time>2021-11-14T10:41:54Z</time>
      </trkpt>
      <trkpt lat="4.423212" lon="-75.142723">
        <ele>961.13257</ele>
        <time>2021-11-14T10:41:55Z</time>
      </trkpt>
      <trkpt lat="4.423297" lon="-75.142792">
        <ele>961.427</ele>
        <time>2021-11-14T10:41:56Z</time>
      </trkpt>
      <trkpt lat="4.423387" lon="-75.142891">
        <ele>961.90247</ele>
        <time>2021-11-14T10:41:57Z</time>
      </trkpt>
      <trkpt lat="4.423507" lon="-75.142998">
        <ele>962.58167</ele>
        <time>2021-11-14T10:41:58Z</time>
      </trkpt>
      <trkpt lat="4.423631" lon="-75.143013">
        <ele>961.6417</ele>
        <time>2021-11-14T10:41:59Z</time>
      </trkpt>
      <trkpt lat="4.423631" lon="-75.143013">
        <ele>961.9983</ele>
        <time>2021-11-14T10:42:00Z</time>
      </trkpt>
      <trkpt lat="4.423786" lon="-75.143036">
        <ele>962.2119</ele>
        <time>2021-11-14T10:42:01Z</time>
      </trkpt>
      <trkpt lat="4.423961" lon="-75.143059">
        <ele>962.6366</ele>
        <time>2021-11-14T10:42:02Z</time>
      </trkpt>
      <trkpt lat="4.424165" lon="-75.143089">
        <ele>962.31665</ele>
        <time>2021-11-14T10:42:03Z</time>
      </trkpt>
      <trkpt lat="4.42439" lon="-75.14312">
        <ele>963.00977</ele>
        <time>2021-11-14T10:42:04Z</time>
      </trkpt>
      <trkpt lat="4.424629" lon="-75.143158">
        <ele>963.7959</ele>
        <time>2021-11-14T10:42:05Z</time>
      </trkpt>
      <trkpt lat="4.424857" lon="-75.143188">
        <ele>964.2075</ele>
        <time>2021-11-14T10:42:06Z</time>
      </trkpt>
      <trkpt lat="4.425105" lon="-75.143227">
        <ele>964.7473</ele>
        <time>2021-11-14T10:42:07Z</time>
      </trkpt>
      <trkpt lat="4.425322" lon="-75.143295">
        <ele>964.88367</ele>
        <time>2021-11-14T10:42:08Z</time>
      </trkpt>
      <trkpt lat="4.425532" lon="-75.143364">
        <ele>965.25903</ele>
        <time>2021-11-14T10:42:09Z</time>
      </trkpt>
      <trkpt lat="4.425741" lon="-75.143433">
        <ele>966.20557</ele>
        <time>2021-11-14T10:42:10Z</time>
      </trkpt>
      <trkpt lat="4.42595" lon="-75.143494">
        <ele>967.00806</ele>
        <time>2021-11-14T10:42:11Z</time>
      </trkpt>
      <trkpt lat="4.426164" lon="-75.143562">
        <ele>967.93494</ele>
        <time>2021-11-14T10:42:12Z</time>
      </trkpt>
      <trkpt lat="4.426402" lon="-75.143639">
        <ele>968.82446</ele>
        <time>2021-11-14T10:42:13Z</time>
      </trkpt>
      <trkpt lat="4.426601" lon="-75.143707">
        <ele>969.09814</ele>
        <time>2021-11-14T10:42:14Z</time>
      </trkpt>
      <trkpt lat="4.426791" lon="-75.143768">
        <ele>969.4878</ele>
        <time>2021-11-14T10:42:15Z</time>
      </trkpt>
      <trkpt lat="4.427004" lon="-75.143837">
        <ele>969.88684</ele>
        <time>2021-11-14T10:42:16Z</time>
      </trkpt>
      <trkpt lat="4.427451" lon="-75.143929">
        <ele>970.17993</ele>
        <time>2021-11-14T10:42:17Z</time>
      </trkpt>
      <trkpt lat="4.427663" lon="-75.143921">
        <ele>970.2224</ele>
        <time>2021-11-14T10:42:18Z</time>
      </trkpt>
      <trkpt lat="4.427876" lon="-75.143913">
        <ele>970.3032</ele>
        <time>2021-11-14T10:42:19Z</time>
      </trkpt>
      <trkpt lat="4.428118" lon="-75.143906">
        <ele>969.8092</ele>
        <time>2021-11-14T10:42:20Z</time>
      </trkpt>
      <trkpt lat="4.428341" lon="-75.143898">
        <ele>969.3064</ele>
        <time>2021-11-14T10:42:21Z</time>
      </trkpt>
      <trkpt lat="4.428547" lon="-75.143867">
        <ele>969.079</ele>
        <time>2021-11-14T10:42:22Z</time>
      </trkpt>
      <trkpt lat="4.428741" lon="-75.143768">
        <ele>968.7561</ele>
        <time>2021-11-14T10:42:23Z</time>
      </trkpt>
      <trkpt lat="4.428941" lon="-75.143669">
        <ele>968.14905</ele>
        <time>2021-11-14T10:42:24Z</time>
      </trkpt>
      <trkpt lat="4.42916" lon="-75.143562">
        <ele>967.31226</ele>
        <time>2021-11-14T10:42:25Z</time>
      </trkpt>
      <trkpt lat="4.429384" lon="-75.143456">
        <ele>966.97473</ele>
        <time>2021-11-14T10:42:26Z</time>
      </trkpt>
      <trkpt lat="4.429599" lon="-75.143326">
        <ele>966.2185</ele>
        <time>2021-11-14T10:42:27Z</time>
      </trkpt>
      <trkpt lat="4.429792" lon="-75.143181">
        <ele>965.87036</ele>
        <time>2021-11-14T10:42:29Z</time>
      </trkpt>
      <trkpt lat="4.429988" lon="-75.143036">
        <ele>965.8513</ele>
        <time>2021-11-14T10:42:30Z</time>
      </trkpt>
      <trkpt lat="4.430175" lon="-75.142891">
        <ele>965.64453</ele>
        <time>2021-11-14T10:42:31Z</time>
      </trkpt>
      <trkpt lat="4.430367" lon="-75.142754">
        <ele>965.3745</ele>
        <time>2021-11-14T10:42:32Z</time>
      </trkpt>
      <trkpt lat="4.430367" lon="-75.142754">
        <ele>965.65967</ele>
        <time>2021-11-14T10:42:33Z</time>
      </trkpt>
      <trkpt lat="4.430558" lon="-75.142609">
        <ele>965.3408</ele>
        <time>2021-11-14T10:42:34Z</time>
      </trkpt>
      <trkpt lat="4.430742" lon="-75.142471">
        <ele>965.2654</ele>
        <time>2021-11-14T10:42:35Z</time>
      </trkpt>
      <trkpt lat="4.430927" lon="-75.142334">
        <ele>964.4507</ele>
        <time>2021-11-14T10:42:36Z</time>
      </trkpt>
      <trkpt lat="4.431133" lon="-75.142181">
        <ele>963.6936</ele>
        <time>2021-11-14T10:42:37Z</time>
      </trkpt>
      <trkpt lat="4.431345" lon="-75.142029">
        <ele>963.4187</ele>
        <time>2021-11-14T10:42:38Z</time>
      </trkpt>
      <trkpt lat="4.43156" lon="-75.141884">
        <ele>963.3074</ele>
        <time>2021-11-14T10:42:39Z</time>
      </trkpt>
      <trkpt lat="4.43178" lon="-75.141739">
        <ele>962.692</ele>
        <time>2021-11-14T10:42:40Z</time>
      </trkpt>
      <trkpt lat="4.431985" lon="-75.141602">
        <ele>962.4237</ele>
        <time>2021-11-14T10:42:41Z</time>
      </trkpt>
      <trkpt lat="4.432187" lon="-75.141464">
        <ele>962.0654</ele>
        <time>2021-11-14T10:42:42Z</time>
      </trkpt>
      <trkpt lat="4.432393" lon="-75.141327">
        <ele>961.55054</ele>
        <time>2021-11-14T10:42:43Z</time>
      </trkpt>
      <trkpt lat="4.432608" lon="-75.141182">
        <ele>961.2362</ele>
        <time>2021-11-14T10:42:44Z</time>
      </trkpt>
      <trkpt lat="4.432818" lon="-75.141045">
        <ele>959.8279</ele>
        <time>2021-11-14T10:42:45Z</time>
      </trkpt>
      <trkpt lat="4.433022" lon="-75.140907">
        <ele>958.1697</ele>
        <time>2021-11-14T10:42:46Z</time>
      </trkpt>
      <trkpt lat="4.433225" lon="-75.14077">
        <ele>956.9668</ele>
        <time>2021-11-14T10:42:47Z</time>
      </trkpt>
      <trkpt lat="4.43343" lon="-75.140633">
        <ele>955.6626</ele>
        <time>2021-11-14T10:42:48Z</time>
      </trkpt>
      <trkpt lat="4.433633" lon="-75.140503">
        <ele>955.21277</ele>
        <time>2021-11-14T10:42:49Z</time>
      </trkpt>
      <trkpt lat="4.433843" lon="-75.140366">
        <ele>954.7405</ele>
        <time>2021-11-14T10:42:50Z</time>
      </trkpt>
      <trkpt lat="4.434054" lon="-75.140228">
        <ele>954.1389</ele>
        <time>2021-11-14T10:42:51Z</time>
      </trkpt>
      <trkpt lat="4.434238" lon="-75.140068">
        <ele>954.3843</ele>
        <time>2021-11-14T10:42:52Z</time>
      </trkpt>
      <trkpt lat="4.43441" lon="-75.1399">
        <ele>954.8047</ele>
        <time>2021-11-14T10:42:53Z</time>
      </trkpt>
      <trkpt lat="4.434594" lon="-75.139725">
        <ele>955.2073</ele>
        <time>2021-11-14T10:42:54Z</time>
      </trkpt>
      <trkpt lat="4.434763" lon="-75.139565">
        <ele>955.8147</ele>
        <time>2021-11-14T10:42:55Z</time>
      </trkpt>
      <trkpt lat="4.434941" lon="-75.139389">
        <ele>956.546</ele>
        <time>2021-11-14T10:42:56Z</time>
      </trkpt>
      <trkpt lat="4.435125" lon="-75.139214">
        <ele>956.97974</ele>
        <time>2021-11-14T10:42:57Z</time>
      </trkpt>
      <trkpt lat="4.435302" lon="-75.139046">
        <ele>957.1477</ele>
        <time>2021-11-14T10:42:58Z</time>
      </trkpt>
      <trkpt lat="4.435473" lon="-75.138885">
        <ele>957.5171</ele>
        <time>2021-11-14T10:42:59Z</time>
      </trkpt>
      <trkpt lat="4.435809" lon="-75.138557">
        <ele>956.3655</ele>
        <time>2021-11-14T10:43:00Z</time>
      </trkpt>
      <trkpt lat="4.435987" lon="-75.13839">
        <ele>955.74023</ele>
        <time>2021-11-14T10:43:01Z</time>
      </trkpt>
      <trkpt lat="4.436185" lon="-75.138199">
        <ele>955.0735</ele>
        <time>2021-11-14T10:43:02Z</time>
      </trkpt>
      <trkpt lat="4.43635" lon="-75.138046">
        <ele>954.1299</ele>
        <time>2021-11-14T10:43:03Z</time>
      </trkpt>
      <trkpt lat="4.436529" lon="-75.137871">
        <ele>953.2456</ele>
        <time>2021-11-14T10:43:04Z</time>
      </trkpt>
      <trkpt lat="4.436711" lon="-75.137695">
        <ele>952.74634</ele>
        <time>2021-11-14T10:43:05Z</time>
      </trkpt>
      <trkpt lat="4.436711" lon="-75.137695">
        <ele>951.68774</ele>
        <time>2021-11-14T10:43:06Z</time>
      </trkpt>
      <trkpt lat="4.436887" lon="-75.137527">
        <ele>950.97656</ele>
        <time>2021-11-14T10:43:07Z</time>
      </trkpt>
      <trkpt lat="4.437056" lon="-75.137367">
        <ele>950.4303</ele>
        <time>2021-11-14T10:43:08Z</time>
      </trkpt>
      <trkpt lat="4.437221" lon="-75.137207">
        <ele>949.2538</ele>
        <time>2021-11-14T10:43:09Z</time>
      </trkpt>
      <trkpt lat="4.437397" lon="-75.137039">
        <ele>947.78564</ele>
        <time>2021-11-14T10:43:10Z</time>
      </trkpt>
      <trkpt lat="4.437554" lon="-75.136894">
        <ele>946.1737</ele>
        <time>2021-11-14T10:43:11Z</time>
      </trkpt>
      <trkpt lat="4.437702" lon="-75.13678">
        <ele>944.3154</ele>
        <time>2021-11-14T10:43:12Z</time>
      </trkpt>
      <trkpt lat="4.4379" lon="-75.136719">
        <ele>941.8015</ele>
        <time>2021-11-14T10:43:13Z</time>
      </trkpt>
      <trkpt lat="4.438114" lon="-75.136658">
        <ele>940.4343</ele>
        <time>2021-11-14T10:43:14Z</time>
      </trkpt>
      <trkpt lat="4.438329" lon="-75.136597">
        <ele>938.70337</ele>
        <time>2021-11-14T10:43:16Z</time>
      </trkpt>
      <trkpt lat="4.438528" lon="-75.136536">
        <ele>937.29675</ele>
        <time>2021-11-14T10:43:17Z</time>
      </trkpt>
      <trkpt lat="4.438735" lon="-75.136536">
        <ele>936.56055</ele>
        <time>2021-11-14T10:43:18Z</time>
      </trkpt>
      <trkpt lat="4.438944" lon="-75.136536">
        <ele>935.74524</ele>
        <time>2021-11-14T10:43:19Z</time>
      </trkpt>
      <trkpt lat="4.439189" lon="-75.136551">
        <ele>935.6814</ele>
        <time>2021-11-14T10:43:20Z</time>
      </trkpt>
      <trkpt lat="4.439425" lon="-75.136551">
        <ele>935.8989</ele>
        <time>2021-11-14T10:43:21Z</time>
      </trkpt>
      <trkpt lat="4.43964" lon="-75.136566">
        <ele>936.9236</ele>
        <time>2021-11-14T10:43:22Z</time>
      </trkpt>
      <trkpt lat="4.439851" lon="-75.136574">
        <ele>937.82227</ele>
        <time>2021-11-14T10:43:23Z</time>
      </trkpt>
      <trkpt lat="4.440064" lon="-75.136589">
        <ele>939.04956</ele>
        <time>2021-11-14T10:43:24Z</time>
      </trkpt>
      <trkpt lat="4.44027" lon="-75.136543">
        <ele>941.058</ele>
        <time>2021-11-14T10:43:25Z</time>
      </trkpt>
      <trkpt lat="4.440462" lon="-75.136475">
        <ele>942.8999</ele>
        <time>2021-11-14T10:43:26Z</time>
      </trkpt>
      <trkpt lat="4.440622" lon="-75.136375">
        <ele>944.6362</ele>
        <time>2021-11-14T10:43:27Z</time>
      </trkpt>
      <trkpt lat="4.440771" lon="-75.136246">
        <ele>945.92566</ele>
        <time>2021-11-14T10:43:28Z</time>
      </trkpt>
      <trkpt lat="4.44092" lon="-75.13607">
        <ele>947.7915</ele>
        <time>2021-11-14T10:43:29Z</time>
      </trkpt>
      <trkpt lat="4.441058" lon="-75.135887">
        <ele>949.5703</ele>
        <time>2021-11-14T10:43:30Z</time>
      </trkpt>
      <trkpt lat="4.441186" lon="-75.135704">
        <ele>950.9463</ele>
        <time>2021-11-14T10:43:31Z</time>
      </trkpt>
      <trkpt lat="4.441313" lon="-75.135513">
        <ele>951.8351</ele>
        <time>2021-11-14T10:43:32Z</time>
      </trkpt>
      <trkpt lat="4.441431" lon="-75.135345">
        <ele>952.177</ele>
        <time>2021-11-14T10:43:33Z</time>
      </trkpt>
      <trkpt lat="4.441543" lon="-75.135178">
        <ele>951.5552</ele>
        <time>2021-11-14T10:43:34Z</time>
      </trkpt>
      <trkpt lat="4.441657" lon="-75.13501">
        <ele>951.6084</ele>
        <time>2021-11-14T10:43:35Z</time>
      </trkpt>
      <trkpt lat="4.441782" lon="-75.134827">
        <ele>951.32666</ele>
        <time>2021-11-14T10:43:36Z</time>
      </trkpt>
      <trkpt lat="4.441901" lon="-75.134651">
        <ele>951.2479</ele>
        <time>2021-11-14T10:43:37Z</time>
      </trkpt>
      <trkpt lat="4.441996" lon="-75.134514">
        <ele>950.70483</ele>
        <time>2021-11-14T10:43:38Z</time>
      </trkpt>
      <trkpt lat="4.442099" lon="-75.134361">
        <ele>950.6604</ele>
        <time>2021-11-14T10:43:39Z</time>
      </trkpt>
      <trkpt lat="4.442221" lon="-75.134186">
        <ele>950.41406</ele>
        <time>2021-11-14T10:43:40Z</time>
      </trkpt>
      <trkpt lat="4.442328" lon="-75.134033">
        <ele>950.0488</ele>
        <time>2021-11-14T10:43:41Z</time>
      </trkpt>
      <trkpt lat="4.442443" lon="-75.133911">
        <ele>949.9785</ele>
        <time>2021-11-14T10:43:42Z</time>
      </trkpt>
      <trkpt lat="4.442554" lon="-75.133797">
        <ele>949.76416</ele>
        <time>2021-11-14T10:43:43Z</time>
      </trkpt>
      <trkpt lat="4.442554" lon="-75.133797">
        <ele>949.67554</ele>
        <time>2021-11-14T10:43:44Z</time>
      </trkpt>
      <trkpt lat="4.442675" lon="-75.133667">
        <ele>949.4059</ele>
        <time>2021-11-14T10:43:45Z</time>
      </trkpt>
      <trkpt lat="4.44281" lon="-75.13353">
        <ele>949.0415</ele>
        <time>2021-11-14T10:43:46Z</time>
      </trkpt>
      <trkpt lat="4.442915" lon="-75.133415">
        <ele>948.8633</ele>
        <time>2021-11-14T10:43:47Z</time>
      </trkpt>
      <trkpt lat="4.443007" lon="-75.133324">
        <ele>948.9752</ele>
        <time>2021-11-14T10:43:48Z</time>
      </trkpt>
      <trkpt lat="4.443104" lon="-75.133217">
        <ele>949.19055</ele>
        <time>2021-11-14T10:43:49Z</time>
      </trkpt>
      <trkpt lat="4.443185" lon="-75.133133">
        <ele>949.2446</ele>
        <time>2021-11-14T10:43:50Z</time>
      </trkpt>
      <trkpt lat="4.443252" lon="-75.133057">
        <ele>948.8672</ele>
        <time>2021-11-14T10:43:51Z</time>
      </trkpt>
      <trkpt lat="4.443308" lon="-75.13298">
        <ele>948.60156</ele>
        <time>2021-11-14T10:43:52Z</time>
      </trkpt>
      <trkpt lat="4.443349" lon="-75.132881">
        <ele>948.68555</ele>
        <time>2021-11-14T10:43:53Z</time>
      </trkpt>
      <trkpt lat="4.443382" lon="-75.132797">
        <ele>948.40137</ele>
        <time>2021-11-14T10:43:54Z</time>
      </trkpt>
      <trkpt lat="4.443411" lon="-75.132721">
        <ele>948.82935</ele>
        <time>2021-11-14T10:43:55Z</time>
      </trkpt>
      <trkpt lat="4.443402" lon="-75.132629">
        <ele>949.1748</ele>
        <time>2021-11-14T10:43:56Z</time>
      </trkpt>
      <trkpt lat="4.443397" lon="-75.132462">
        <ele>948.77454</ele>
        <time>2021-11-14T10:43:57Z</time>
      </trkpt>
      <trkpt lat="4.4434" lon="-75.132401">
        <ele>948.9133</ele>
        <time>2021-11-14T10:43:58Z</time>
      </trkpt>
      <trkpt lat="4.443406" lon="-75.132362">
        <ele>949.2312</ele>
        <time>2021-11-14T10:43:59Z</time>
      </trkpt>
      <trkpt lat="4.443419" lon="-75.132301">
        <ele>949.3325</ele>
        <time>2021-11-14T10:44:00Z</time>
      </trkpt>
      <trkpt lat="4.443428" lon="-75.132263">
        <ele>949.52234</ele>
        <time>2021-11-14T10:44:01Z</time>
      </trkpt>
      <trkpt lat="4.443437" lon="-75.132225">
        <ele>949.3956</ele>
        <time>2021-11-14T10:44:02Z</time>
      </trkpt>
      <trkpt lat="4.443454" lon="-75.132195">
        <ele>949.73413</ele>
        <time>2021-11-14T10:44:03Z</time>
      </trkpt>
      <trkpt lat="4.443467" lon="-75.132164">
        <ele>950.26025</ele>
        <time>2021-11-14T10:44:04Z</time>
      </trkpt>
      <trkpt lat="4.443474" lon="-75.132156">
        <ele>950.49695</ele>
        <time>2021-11-14T10:44:05Z</time>
      </trkpt>
      <trkpt lat="4.443483" lon="-75.132141">
        <ele>950.2844</ele>
        <time>2021-11-14T10:44:06Z</time>
      </trkpt>
      <trkpt lat="4.44349" lon="-75.132126">
        <ele>950.0464</ele>
        <time>2021-11-14T10:44:07Z</time>
      </trkpt>
      <trkpt lat="4.443498" lon="-75.132111">
        <ele>950.4619</ele>
        <time>2021-11-14T10:44:08Z</time>
      </trkpt>
      <trkpt lat="4.443517" lon="-75.132057">
        <ele>950.67444</ele>
        <time>2021-11-14T10:44:10Z</time>
      </trkpt>
      <trkpt lat="4.443523" lon="-75.132042">
        <ele>950.1854</ele>
        <time>2021-11-14T10:44:11Z</time>
      </trkpt>
      <trkpt lat="4.443528" lon="-75.132019">
        <ele>950.2705</ele>
        <time>2021-11-14T10:44:12Z</time>
      </trkpt>
      <trkpt lat="4.443534" lon="-75.132004">
        <ele>949.92773</ele>
        <time>2021-11-14T10:44:13Z</time>
      </trkpt>
      <trkpt lat="4.443537" lon="-75.131989">
        <ele>949.73975</ele>
        <time>2021-11-14T10:44:14Z</time>
      </trkpt>
      <trkpt lat="4.443541" lon="-75.131973">
        <ele>949.6626</ele>
        <time>2021-11-14T10:44:15Z</time>
      </trkpt>
      <trkpt lat="4.443545" lon="-75.131966">
        <ele>949.91724</ele>
        <time>2021-11-14T10:44:16Z</time>
      </trkpt>
      <trkpt lat="4.443545" lon="-75.131958">
        <ele>949.80347</ele>
        <time>2021-11-14T10:44:17Z</time>
      </trkpt>
      <trkpt lat="4.443545" lon="-75.131958">
        <ele>949.48364</ele>
        <time>2021-11-14T10:44:18Z</time>
      </trkpt>
      <trkpt lat="4.443545" lon="-75.131958">
        <ele>949.2367</ele>
        <time>2021-11-14T10:44:19Z</time>
      </trkpt>
      <trkpt lat="4.443545" lon="-75.131958">
        <ele>948.5531</ele>
        <time>2021-11-14T10:44:20Z</time>
      </trkpt>
      <trkpt lat="4.443545" lon="-75.131958">
        <ele>948.7169</ele>
        <time>2021-11-14T10:44:21Z</time>
      </trkpt>
      <trkpt lat="4.443598" lon="-75.131775">
        <ele>951.5215</ele>
        <time>2021-11-14T11:39:04Z</time>
      </trkpt>
      <trkpt lat="4.443598" lon="-75.131775">
        <ele>950.9905</ele>
        <time>2021-11-14T11:39:05Z</time>
      </trkpt>
      <trkpt lat="4.443598" lon="-75.131775">
        <ele>950.8965</ele>
        <time>2021-11-14T11:39:06Z</time>
      </trkpt>
      <trkpt lat="4.443598" lon="-75.131775">
        <ele>951.3978</ele>
        <time>2021-11-14T11:39:07Z</time>
      </trkpt>
      <trkpt lat="4.443602" lon="-75.13176">
        <ele>951.33813</ele>
        <time>2021-11-14T11:39:08Z</time>
      </trkpt>
      <trkpt lat="4.443602" lon="-75.13176">
        <ele>950.98584</ele>
        <time>2021-11-14T11:39:09Z</time>
      </trkpt>
      <trkpt lat="4.443614" lon="-75.131721">
        <ele>950.3074</ele>
        <time>2021-11-14T11:39:10Z</time>
      </trkpt>
      <trkpt lat="4.443636" lon="-75.131645">
        <ele>949.8368</ele>
        <time>2021-11-14T11:39:11Z</time>
      </trkpt>
      <trkpt lat="4.443678" lon="-75.131561">
        <ele>949.9944</ele>
        <time>2021-11-14T11:39:12Z</time>
      </trkpt>
      <trkpt lat="4.443673" lon="-75.13147">
        <ele>949.66455</ele>
        <time>2021-11-14T11:39:13Z</time>
      </trkpt>
      <trkpt lat="4.443658" lon="-75.13134">
        <ele>949.45874</ele>
        <time>2021-11-14T11:39:14Z</time>
      </trkpt>
      <trkpt lat="4.443653" lon="-75.131287">
        <ele>949.09204</ele>
        <time>2021-11-14T11:39:15Z</time>
      </trkpt>
      <trkpt lat="4.443621" lon="-75.131081">
        <ele>948.6492</ele>
        <time>2021-11-14T11:39:16Z</time>
      </trkpt>
      <trkpt lat="4.443595" lon="-75.130936">
        <ele>948.19214</ele>
        <time>2021-11-14T11:39:17Z</time>
      </trkpt>
      <trkpt lat="4.443567" lon="-75.130768">
        <ele>948.53284</ele>
        <time>2021-11-14T11:39:18Z</time>
      </trkpt>
      <trkpt lat="4.443531" lon="-75.130562">
        <ele>947.4468</ele>
        <time>2021-11-14T11:39:19Z</time>
      </trkpt>
      <trkpt lat="4.443496" lon="-75.130356">
        <ele>947.14124</ele>
        <time>2021-11-14T11:39:20Z</time>
      </trkpt>
      <trkpt lat="4.443458" lon="-75.130135">
        <ele>947.62866</ele>
        <time>2021-11-14T11:39:21Z</time>
      </trkpt>
      <trkpt lat="4.443426" lon="-75.129951">
        <ele>946.9944</ele>
        <time>2021-11-14T11:39:22Z</time>
      </trkpt>
      <trkpt lat="4.443391" lon="-75.129745">
        <ele>946.3738</ele>
        <time>2021-11-14T11:39:23Z</time>
      </trkpt>
      <trkpt lat="4.443356" lon="-75.129547">
        <ele>945.803</ele>
        <time>2021-11-14T11:39:24Z</time>
      </trkpt>
      <trkpt lat="4.443315" lon="-75.129303">
        <ele>945.47534</ele>
        <time>2021-11-14T11:39:25Z</time>
      </trkpt>
      <trkpt lat="4.44327" lon="-75.129044">
        <ele>944.88184</ele>
        <time>2021-11-14T11:39:26Z</time>
      </trkpt>
      <trkpt lat="4.44323" lon="-75.128807">
        <ele>944.0123</ele>
        <time>2021-11-14T11:39:27Z</time>
      </trkpt>
      <trkpt lat="4.443191" lon="-75.128586">
        <ele>944.81616</ele>
        <time>2021-11-14T11:39:28Z</time>
      </trkpt>
      <trkpt lat="4.443152" lon="-75.128357">
        <ele>944.35986</ele>
        <time>2021-11-14T11:39:29Z</time>
      </trkpt>
      <trkpt lat="4.443107" lon="-75.128098">
        <ele>943.62256</ele>
        <time>2021-11-14T11:39:30Z</time>
      </trkpt>
      <trkpt lat="4.443065" lon="-75.127853">
        <ele>942.5845</ele>
        <time>2021-11-14T11:39:31Z</time>
      </trkpt>
      <trkpt lat="4.443023" lon="-75.127609">
        <ele>943.209</ele>
        <time>2021-11-14T11:39:32Z</time>
      </trkpt>
      <trkpt lat="4.442979" lon="-75.12735">
        <ele>942.71826</ele>
        <time>2021-11-14T11:39:34Z</time>
      </trkpt>
      <trkpt lat="4.442929" lon="-75.127052">
        <ele>942.1708</ele>
        <time>2021-11-14T11:39:35Z</time>
      </trkpt>
      <trkpt lat="4.442879" lon="-75.12677">
        <ele>941.45703</ele>
        <time>2021-11-14T11:39:36Z</time>
      </trkpt>
      <trkpt lat="4.442834" lon="-75.126511">
        <ele>940.8052</ele>
        <time>2021-11-14T11:39:37Z</time>
      </trkpt>
      <trkpt lat="4.442791" lon="-75.126259">
        <ele>940.07544</ele>
        <time>2021-11-14T11:39:38Z</time>
      </trkpt>
      <trkpt lat="4.442748" lon="-75.125999">
        <ele>939.59595</ele>
        <time>2021-11-14T11:39:39Z</time>
      </trkpt>
      <trkpt lat="4.442703" lon="-75.12574">
        <ele>938.8723</ele>
        <time>2021-11-14T11:39:40Z</time>
      </trkpt>
      <trkpt lat="4.442654" lon="-75.125458">
        <ele>938.13306</ele>
        <time>2021-11-14T11:39:41Z</time>
      </trkpt>
      <trkpt lat="4.442605" lon="-75.125175">
        <ele>937.99316</ele>
        <time>2021-11-14T11:39:42Z</time>
      </trkpt>
      <trkpt lat="4.442555" lon="-75.124886">
        <ele>936.8811</ele>
        <time>2021-11-14T11:39:43Z</time>
      </trkpt>
      <trkpt lat="4.442504" lon="-75.124588">
        <ele>935.6222</ele>
        <time>2021-11-14T11:39:44Z</time>
      </trkpt>
      <trkpt lat="4.442453" lon="-75.12429">
        <ele>935.4607</ele>
        <time>2021-11-14T11:39:45Z</time>
      </trkpt>
      <trkpt lat="4.442402" lon="-75.123993">
        <ele>934.6985</ele>
        <time>2021-11-14T11:39:46Z</time>
      </trkpt>
      <trkpt lat="4.442353" lon="-75.123703">
        <ele>933.9973</ele>
        <time>2021-11-14T11:39:47Z</time>
      </trkpt>
      <trkpt lat="4.442306" lon="-75.123428">
        <ele>933.26514</ele>
        <time>2021-11-14T11:39:48Z</time>
      </trkpt>
      <trkpt lat="4.442306" lon="-75.123428">
        <ele>932.8501</ele>
        <time>2021-11-14T11:39:49Z</time>
      </trkpt>
      <trkpt lat="4.442259" lon="-75.123154">
        <ele>932.1172</ele>
        <time>2021-11-14T11:39:50Z</time>
      </trkpt>
      <trkpt lat="4.442209" lon="-75.122864">
        <ele>932.34644</ele>
        <time>2021-11-14T11:39:51Z</time>
      </trkpt>
      <trkpt lat="4.442161" lon="-75.122581">
        <ele>931.25696</ele>
        <time>2021-11-14T11:39:52Z</time>
      </trkpt>
      <trkpt lat="4.442116" lon="-75.122322">
        <ele>931.7053</ele>
        <time>2021-11-14T11:39:53Z</time>
      </trkpt>
      <trkpt lat="4.442064" lon="-75.122017">
        <ele>930.57446</ele>
        <time>2021-11-14T11:39:54Z</time>
      </trkpt>
      <trkpt lat="4.442019" lon="-75.121758">
        <ele>930.0095</ele>
        <time>2021-11-14T11:39:55Z</time>
      </trkpt>
      <trkpt lat="4.441978" lon="-75.121513">
        <ele>929.7092</ele>
        <time>2021-11-14T11:39:56Z</time>
      </trkpt>
      <trkpt lat="4.441965" lon="-75.121262">
        <ele>929.67053</ele>
        <time>2021-11-14T11:39:57Z</time>
      </trkpt>
      <trkpt lat="4.441964" lon="-75.121002">
        <ele>928.43774</ele>
        <time>2021-11-14T11:39:58Z</time>
      </trkpt>
      <trkpt lat="4.441973" lon="-75.120735">
        <ele>927.5786</ele>
        <time>2021-11-14T11:39:59Z</time>
      </trkpt>
      <trkpt lat="4.441991" lon="-75.120415">
        <ele>926.1721</ele>
        <time>2021-11-14T11:40:00Z</time>
      </trkpt>
      <trkpt lat="4.442007" lon="-75.120193">
        <ele>925.15405</ele>
        <time>2021-11-14T11:40:01Z</time>
      </trkpt>
      <trkpt lat="4.442032" lon="-75.119888">
        <ele>924.76074</ele>
        <time>2021-11-14T11:40:02Z</time>
      </trkpt>
      <trkpt lat="4.442053" lon="-75.119629">
        <ele>923.7605</ele>
        <time>2021-11-14T11:40:03Z</time>
      </trkpt>
      <trkpt lat="4.442076" lon="-75.119347">
        <ele>922.463</ele>
        <time>2021-11-14T11:40:04Z</time>
      </trkpt>
      <trkpt lat="4.442099" lon="-75.119049">
        <ele>921.39014</ele>
        <time>2021-11-14T11:40:05Z</time>
      </trkpt>
      <trkpt lat="4.442122" lon="-75.118767">
        <ele>920.6992</ele>
        <time>2021-11-14T11:40:06Z</time>
      </trkpt>
      <trkpt lat="4.442146" lon="-75.118469">
        <ele>920.3513</ele>
        <time>2021-11-14T11:40:07Z</time>
      </trkpt>
      <trkpt lat="4.442168" lon="-75.118195">
        <ele>919.69165</ele>
        <time>2021-11-14T11:40:08Z</time>
      </trkpt>
      <trkpt lat="4.442188" lon="-75.117943">
        <ele>918.7251</ele>
        <time>2021-11-14T11:40:09Z</time>
      </trkpt>
      <trkpt lat="4.442207" lon="-75.117706">
        <ele>918.1116</ele>
        <time>2021-11-14T11:40:10Z</time>
      </trkpt>
      <trkpt lat="4.442227" lon="-75.117462">
        <ele>918.18555</ele>
        <time>2021-11-14T11:40:11Z</time>
      </trkpt>
      <trkpt lat="4.442248" lon="-75.117203">
        <ele>917.78284</ele>
        <time>2021-11-14T11:40:12Z</time>
      </trkpt>
      <trkpt lat="4.442267" lon="-75.116966">
        <ele>916.8939</ele>
        <time>2021-11-14T11:40:13Z</time>
      </trkpt>
      <trkpt lat="4.4423" lon="-75.116547">
        <ele>916.3098</ele>
        <time>2021-11-14T11:40:14Z</time>
      </trkpt>
      <trkpt lat="4.44235" lon="-75.116333">
        <ele>915.94385</ele>
        <time>2021-11-14T11:40:15Z</time>
      </trkpt>
      <trkpt lat="4.442403" lon="-75.116104">
        <ele>916.1841</ele>
        <time>2021-11-14T11:40:16Z</time>
      </trkpt>
      <trkpt lat="4.442403" lon="-75.116104">
        <ele>915.9502</ele>
        <time>2021-11-14T11:40:17Z</time>
      </trkpt>
      <trkpt lat="4.442445" lon="-75.115921">
        <ele>915.38464</ele>
        <time>2021-11-14T11:40:18Z</time>
      </trkpt>
      <trkpt lat="4.442485" lon="-75.115753">
        <ele>914.57544</ele>
        <time>2021-11-14T11:40:19Z</time>
      </trkpt>
      <trkpt lat="4.442537" lon="-75.115532">
        <ele>914.26294</ele>
        <time>2021-11-14T11:40:20Z</time>
      </trkpt>
      <trkpt lat="4.442612" lon="-75.115288">
        <ele>913.58826</ele>
        <time>2021-11-14T11:40:21Z</time>
      </trkpt>
      <trkpt lat="4.442673" lon="-75.115089">
        <ele>911.86694</ele>
        <time>2021-11-14T11:40:22Z</time>
      </trkpt>
      <trkpt lat="4.442754" lon="-75.114822">
        <ele>911.10986</ele>
        <time>2021-11-14T11:40:23Z</time>
      </trkpt>
      <trkpt lat="4.44286" lon="-75.114471">
        <ele>909.386</ele>
        <time>2021-11-14T11:40:24Z</time>
      </trkpt>
      <trkpt lat="4.44295" lon="-75.114189">
        <ele>908.82043</ele>
        <time>2021-11-14T11:40:25Z</time>
      </trkpt>
      <trkpt lat="4.443055" lon="-75.113892">
        <ele>908.36597</ele>
        <time>2021-11-14T11:40:26Z</time>
      </trkpt>
      <trkpt lat="4.443156" lon="-75.113594">
        <ele>908.60986</ele>
        <time>2021-11-14T11:40:27Z</time>
      </trkpt>
      <trkpt lat="4.443257" lon="-75.113312">
        <ele>908.08325</ele>
        <time>2021-11-14T11:40:28Z</time>
      </trkpt>
      <trkpt lat="4.443362" lon="-75.113007">
        <ele>907.2158</ele>
        <time>2021-11-14T11:40:29Z</time>
      </trkpt>
      <trkpt lat="4.443472" lon="-75.112694">
        <ele>906.78687</ele>
        <time>2021-11-14T11:40:30Z</time>
      </trkpt>
      <trkpt lat="4.443578" lon="-75.112389">
        <ele>905.39453</ele>
        <time>2021-11-14T11:40:31Z</time>
      </trkpt>
      <trkpt lat="4.443682" lon="-75.112083">
        <ele>904.9419</ele>
        <time>2021-11-14T11:40:32Z</time>
      </trkpt>
      <trkpt lat="4.4438" lon="-75.111748">
        <ele>904.5088</ele>
        <time>2021-11-14T11:40:33Z</time>
      </trkpt>
      <trkpt lat="4.443911" lon="-75.111427">
        <ele>903.2339</ele>
        <time>2021-11-14T11:40:34Z</time>
      </trkpt>
      <trkpt lat="4.444017" lon="-75.111122">
        <ele>902.8502</ele>
        <time>2021-11-14T11:40:35Z</time>
      </trkpt>
      <trkpt lat="4.444123" lon="-75.110817">
        <ele>902.4834</ele>
        <time>2021-11-14T11:40:36Z</time>
      </trkpt>
      <trkpt lat="4.444246" lon="-75.110466">
        <ele>901.9592</ele>
        <time>2021-11-14T11:40:37Z</time>
      </trkpt>
      <trkpt lat="4.444353" lon="-75.110161">
        <ele>903.7544</ele>
        <time>2021-11-14T11:40:38Z</time>
      </trkpt>
      <trkpt lat="4.44446" lon="-75.109848">
        <ele>903.1781</ele>
        <time>2021-11-14T11:40:39Z</time>
      </trkpt>
      <trkpt lat="4.444569" lon="-75.109535">
        <ele>901.4304</ele>
        <time>2021-11-14T11:40:40Z</time>
      </trkpt>
      <trkpt lat="4.444681" lon="-75.109215">
        <ele>900.8657</ele>
        <time>2021-11-14T11:40:41Z</time>
      </trkpt>
      <trkpt lat="4.444791" lon="-75.108902">
        <ele>899.719</ele>
        <time>2021-11-14T11:40:42Z</time>
      </trkpt>
      <trkpt lat="4.4449" lon="-75.108589">
        <ele>899.4198</ele>
        <time>2021-11-14T11:40:43Z</time>
      </trkpt>
      <trkpt lat="4.445009" lon="-75.108276">
        <ele>897.98315</ele>
        <time>2021-11-14T11:40:44Z</time>
      </trkpt>
      <trkpt lat="4.445116" lon="-75.107964">
        <ele>897.1887</ele>
        <time>2021-11-14T11:40:46Z</time>
      </trkpt>
      <trkpt lat="4.445232" lon="-75.107635">
        <ele>895.8518</ele>
        <time>2021-11-14T11:40:47Z</time>
      </trkpt>
      <trkpt lat="4.445343" lon="-75.107315">
        <ele>894.46265</ele>
        <time>2021-11-14T11:40:48Z</time>
      </trkpt>
      <trkpt lat="4.44545" lon="-75.107002">
        <ele>893.40186</ele>
        <time>2021-11-14T11:40:49Z</time>
      </trkpt>
      <trkpt lat="4.445564" lon="-75.106682">
        <ele>892.5493</ele>
        <time>2021-11-14T11:40:50Z</time>
      </trkpt>
      <trkpt lat="4.445677" lon="-75.106354">
        <ele>891.6456</ele>
        <time>2021-11-14T11:40:51Z</time>
      </trkpt>
      <trkpt lat="4.445677" lon="-75.106354">
        <ele>890.6394</ele>
        <time>2021-11-14T11:40:52Z</time>
      </trkpt>
      <trkpt lat="4.445788" lon="-75.106033">
        <ele>890.1765</ele>
        <time>2021-11-14T11:40:53Z</time>
      </trkpt>
      <trkpt lat="4.445901" lon="-75.105713">
        <ele>889.2893</ele>
        <time>2021-11-14T11:40:54Z</time>
      </trkpt>
      <trkpt lat="4.446015" lon="-75.105385">
        <ele>888.15137</ele>
        <time>2021-11-14T11:40:55Z</time>
      </trkpt>
      <trkpt lat="4.446129" lon="-75.105057">
        <ele>887.75867</ele>
        <time>2021-11-14T11:40:56Z</time>
      </trkpt>
      <trkpt lat="4.446237" lon="-75.104744">
        <ele>886.8568</ele>
        <time>2021-11-14T11:40:57Z</time>
      </trkpt>
      <trkpt lat="4.446346" lon="-75.104431">
        <ele>885.86414</ele>
        <time>2021-11-14T11:40:58Z</time>
      </trkpt>
      <trkpt lat="4.446453" lon="-75.104126">
        <ele>884.6775</ele>
        <time>2021-11-14T11:40:59Z</time>
      </trkpt>
      <trkpt lat="4.446568" lon="-75.103798">
        <ele>883.7423</ele>
        <time>2021-11-14T11:41:00Z</time>
      </trkpt>
      <trkpt lat="4.446679" lon="-75.103477">
        <ele>882.7539</ele>
        <time>2021-11-14T11:41:01Z</time>
      </trkpt>
      <trkpt lat="4.446788" lon="-75.103165">
        <ele>881.5713</ele>
        <time>2021-11-14T11:41:02Z</time>
      </trkpt>
      <trkpt lat="4.446899" lon="-75.102844">
        <ele>880.7805</ele>
        <time>2021-11-14T11:41:03Z</time>
      </trkpt>
      <trkpt lat="4.447014" lon="-75.102516">
        <ele>879.63794</ele>
        <time>2021-11-14T11:41:04Z</time>
      </trkpt>
      <trkpt lat="4.447122" lon="-75.102158">
        <ele>877.8074</ele>
        <time>2021-11-14T11:41:05Z</time>
      </trkpt>
      <trkpt lat="4.44722" lon="-75.101799">
        <ele>873.08984</ele>
        <time>2021-11-14T11:41:06Z</time>
      </trkpt>
      <trkpt lat="4.447316" lon="-75.10144">
        <ele>871.9778</ele>
        <time>2021-11-14T11:41:07Z</time>
      </trkpt>
      <trkpt lat="4.447401" lon="-75.101089">
        <ele>870.7883</ele>
        <time>2021-11-14T11:41:08Z</time>
      </trkpt>
      <trkpt lat="4.447468" lon="-75.100746">
        <ele>870.427</ele>
        <time>2021-11-14T11:41:09Z</time>
      </trkpt>
      <trkpt lat="4.447537" lon="-75.10038">
        <ele>869.3994</ele>
        <time>2021-11-14T11:41:10Z</time>
      </trkpt>
      <trkpt lat="4.447605" lon="-75.100029">
        <ele>868.428</ele>
        <time>2021-11-14T11:41:11Z</time>
      </trkpt>
      <trkpt lat="4.447672" lon="-75.099686">
        <ele>867.8303</ele>
        <time>2021-11-14T11:41:12Z</time>
      </trkpt>
      <trkpt lat="4.447738" lon="-75.099342">
        <ele>866.6344</ele>
        <time>2021-11-14T11:41:13Z</time>
      </trkpt>
      <trkpt lat="4.447803" lon="-75.098999">
        <ele>866.60864</ele>
        <time>2021-11-14T11:41:14Z</time>
      </trkpt>
      <trkpt lat="4.447866" lon="-75.098671">
        <ele>866.0631</ele>
        <time>2021-11-14T11:41:15Z</time>
      </trkpt>
      <trkpt lat="4.447934" lon="-75.098312">
        <ele>865.3522</ele>
        <time>2021-11-14T11:41:16Z</time>
      </trkpt>
      <trkpt lat="4.448001" lon="-75.097969">
        <ele>862.239</ele>
        <time>2021-11-14T11:41:17Z</time>
      </trkpt>
      <trkpt lat="4.448063" lon="-75.097641">
        <ele>861.2727</ele>
        <time>2021-11-14T11:41:18Z</time>
      </trkpt>
      <trkpt lat="4.448125" lon="-75.09729">
        <ele>859.4319</ele>
        <time>2021-11-14T11:41:19Z</time>
      </trkpt>
      <trkpt lat="4.448174" lon="-75.096962">
        <ele>858.4834</ele>
        <time>2021-11-14T11:41:20Z</time>
      </trkpt>
      <trkpt lat="4.448174" lon="-75.096962">
        <ele>857.78345</ele>
        <time>2021-11-14T11:41:21Z</time>
      </trkpt>
      <trkpt lat="4.448223" lon="-75.096626">
        <ele>856.2461</ele>
        <time>2021-11-14T11:41:22Z</time>
      </trkpt>
      <trkpt lat="4.448275" lon="-75.096283">
        <ele>855.3445</ele>
        <time>2021-11-14T11:41:23Z</time>
      </trkpt>
      <trkpt lat="4.448321" lon="-75.095963">
        <ele>854.66113</ele>
        <time>2021-11-14T11:41:24Z</time>
      </trkpt>
      <trkpt lat="4.448367" lon="-75.095657">
        <ele>854.3777</ele>
        <time>2021-11-14T11:41:25Z</time>
      </trkpt>
      <trkpt lat="4.448418" lon="-75.095314">
        <ele>853.18066</ele>
        <time>2021-11-14T11:41:26Z</time>
      </trkpt>
      <trkpt lat="4.448468" lon="-75.094971">
        <ele>852.8274</ele>
        <time>2021-11-14T11:41:27Z</time>
      </trkpt>
      <trkpt lat="4.44852" lon="-75.09462">
        <ele>851.18713</ele>
        <time>2021-11-14T11:41:28Z</time>
      </trkpt>
      <trkpt lat="4.448568" lon="-75.094299">
        <ele>850.2678</ele>
        <time>2021-11-14T11:41:29Z</time>
      </trkpt>
      <trkpt lat="4.448617" lon="-75.093964">
        <ele>848.95703</ele>
        <time>2021-11-14T11:41:30Z</time>
      </trkpt>
      <trkpt lat="4.44867" lon="-75.093605">
        <ele>847.3618</ele>
        <time>2021-11-14T11:41:31Z</time>
      </trkpt>
      <trkpt lat="4.448717" lon="-75.093285">
        <ele>846.5161</ele>
        <time>2021-11-14T11:41:32Z</time>
      </trkpt>
      <trkpt lat="4.448808" lon="-75.092674">
        <ele>844.79016</ele>
        <time>2021-11-14T11:41:33Z</time>
      </trkpt>
      <trkpt lat="4.448857" lon="-75.092339">
        <ele>843.8308</ele>
        <time>2021-11-14T11:41:34Z</time>
      </trkpt>
      <trkpt lat="4.448903" lon="-75.092033">
        <ele>843.0281</ele>
        <time>2021-11-14T11:41:35Z</time>
      </trkpt>
      <trkpt lat="4.448974" lon="-75.091743">
        <ele>841.9126</ele>
        <time>2021-11-14T11:41:36Z</time>
      </trkpt>
      <trkpt lat="4.449061" lon="-75.091408">
        <ele>841.0165</ele>
        <time>2021-11-14T11:41:37Z</time>
      </trkpt>
      <trkpt lat="4.449139" lon="-75.09111">
        <ele>840.1555</ele>
        <time>2021-11-14T11:41:38Z</time>
      </trkpt>
      <trkpt lat="4.449216" lon="-75.09082">
        <ele>839.1356</ele>
        <time>2021-11-14T11:41:39Z</time>
      </trkpt>
      <trkpt lat="4.449293" lon="-75.090523">
        <ele>837.6216</ele>
        <time>2021-11-14T11:41:40Z</time>
      </trkpt>
      <trkpt lat="4.449376" lon="-75.090202">
        <ele>837.4758</ele>
        <time>2021-11-14T11:41:41Z</time>
      </trkpt>
      <trkpt lat="4.449452" lon="-75.089912">
        <ele>837.0122</ele>
        <time>2021-11-14T11:41:42Z</time>
      </trkpt>
      <trkpt lat="4.449521" lon="-75.089645">
        <ele>835.9707</ele>
        <time>2021-11-14T11:41:43Z</time>
      </trkpt>
      <trkpt lat="4.449592" lon="-75.089378">
        <ele>836.39746</ele>
        <time>2021-11-14T11:41:44Z</time>
      </trkpt>
      <trkpt lat="4.449668" lon="-75.089081">
        <ele>835.021</ele>
        <time>2021-11-14T11:41:45Z</time>
      </trkpt>
      <trkpt lat="4.44974" lon="-75.088806">
        <ele>835.8396</ele>
        <time>2021-11-14T11:41:46Z</time>
      </trkpt>
      <trkpt lat="4.449808" lon="-75.088547">
        <ele>835.4636</ele>
        <time>2021-11-14T11:41:47Z</time>
      </trkpt>
      <trkpt lat="4.449876" lon="-75.088287">
        <ele>835.32153</ele>
        <time>2021-11-14T11:41:48Z</time>
      </trkpt>
      <trkpt lat="4.449938" lon="-75.088051">
        <ele>835.6467</ele>
        <time>2021-11-14T11:41:49Z</time>
      </trkpt>
      <trkpt lat="4.449959" lon="-75.087814">
        <ele>834.4341</ele>
        <time>2021-11-14T11:41:50Z</time>
      </trkpt>
      <trkpt lat="4.449959" lon="-75.087601">
        <ele>833.8054</ele>
        <time>2021-11-14T11:41:51Z</time>
      </trkpt>
      <trkpt lat="4.449959" lon="-75.087334">
        <ele>833.0941</ele>
        <time>2021-11-14T11:41:52Z</time>
      </trkpt>
      <trkpt lat="4.449926" lon="-75.087082">
        <ele>833.0493</ele>
        <time>2021-11-14T11:41:53Z</time>
      </trkpt>
      <trkpt lat="4.449886" lon="-75.08683">
        <ele>832.38354</ele>
        <time>2021-11-14T11:41:54Z</time>
      </trkpt>
      <trkpt lat="4.449886" lon="-75.08683">
        <ele>832.1942</ele>
        <time>2021-11-14T11:41:55Z</time>
      </trkpt>
      <trkpt lat="4.44984" lon="-75.086555">
        <ele>832.6553</ele>
        <time>2021-11-14T11:41:56Z</time>
      </trkpt>
      <trkpt lat="4.449798" lon="-75.086296">
        <ele>832.8186</ele>
        <time>2021-11-14T11:41:57Z</time>
      </trkpt>
      <trkpt lat="4.449743" lon="-75.08596">
        <ele>832.1465</ele>
        <time>2021-11-14T11:41:58Z</time>
      </trkpt>
      <trkpt lat="4.449702" lon="-75.085709">
        <ele>831.43774</ele>
        <time>2021-11-14T11:41:59Z</time>
      </trkpt>
      <trkpt lat="4.449651" lon="-75.085396">
        <ele>831.2788</ele>
        <time>2021-11-14T11:42:00Z</time>
      </trkpt>
      <trkpt lat="4.449601" lon="-75.085091">
        <ele>830.2107</ele>
        <time>2021-11-14T11:42:01Z</time>
      </trkpt>
      <trkpt lat="4.449554" lon="-75.084801">
        <ele>829.24976</ele>
        <time>2021-11-14T11:42:02Z</time>
      </trkpt>
      <trkpt lat="4.449506" lon="-75.084511">
        <ele>829.25464</ele>
        <time>2021-11-14T11:42:03Z</time>
      </trkpt>
      <trkpt lat="4.449455" lon="-75.084198">
        <ele>828.69604</ele>
        <time>2021-11-14T11:42:04Z</time>
      </trkpt>
      <trkpt lat="4.449419" lon="-75.083939">
        <ele>828.12646</ele>
        <time>2021-11-14T11:42:05Z</time>
      </trkpt>
      <trkpt lat="4.449412" lon="-75.083679">
        <ele>826.74</ele>
        <time>2021-11-14T11:42:06Z</time>
      </trkpt>
      <trkpt lat="4.449405" lon="-75.083397">
        <ele>825.97815</ele>
        <time>2021-11-14T11:42:08Z</time>
      </trkpt>
      <trkpt lat="4.4494" lon="-75.08316">
        <ele>825.18555</ele>
        <time>2021-11-14T11:42:09Z</time>
      </trkpt>
      <trkpt lat="4.449421" lon="-75.082848">
        <ele>824.45386</ele>
        <time>2021-11-14T11:42:10Z</time>
      </trkpt>
      <trkpt lat="4.449448" lon="-75.08255">
        <ele>822.54395</ele>
        <time>2021-11-14T11:42:11Z</time>
      </trkpt>
      <trkpt lat="4.449473" lon="-75.08226">
        <ele>821.5896</ele>
        <time>2021-11-14T11:42:12Z</time>
      </trkpt>
      <trkpt lat="4.449502" lon="-75.081947">
        <ele>821.47534</ele>
        <time>2021-11-14T11:42:13Z</time>
      </trkpt>
      <trkpt lat="4.449531" lon="-75.081619">
        <ele>820.692</ele>
        <time>2021-11-14T11:42:14Z</time>
      </trkpt>
      <trkpt lat="4.449562" lon="-75.081276">
        <ele>820.04346</ele>
        <time>2021-11-14T11:42:15Z</time>
      </trkpt>
      <trkpt lat="4.449589" lon="-75.080978">
        <ele>819.28503</ele>
        <time>2021-11-14T11:42:16Z</time>
      </trkpt>
      <trkpt lat="4.449617" lon="-75.080673">
        <ele>818.7373</ele>
        <time>2021-11-14T11:42:17Z</time>
      </trkpt>
      <trkpt lat="4.449647" lon="-75.08033">
        <ele>817.22107</ele>
        <time>2021-11-14T11:42:18Z</time>
      </trkpt>
      <trkpt lat="4.44968" lon="-75.079964">
        <ele>816.4004</ele>
        <time>2021-11-14T11:42:19Z</time>
      </trkpt>
      <trkpt lat="4.449714" lon="-75.07959">
        <ele>815.87036</ele>
        <time>2021-11-14T11:42:20Z</time>
      </trkpt>
      <trkpt lat="4.449746" lon="-75.079231">
        <ele>814.66113</ele>
        <time>2021-11-14T11:42:21Z</time>
      </trkpt>
      <trkpt lat="4.449778" lon="-75.078873">
        <ele>813.4458</ele>
        <time>2021-11-14T11:42:22Z</time>
      </trkpt>
      <trkpt lat="4.449809" lon="-75.078529">
        <ele>812.56396</ele>
        <time>2021-11-14T11:42:23Z</time>
      </trkpt>
      <trkpt lat="4.449844" lon="-75.07814">
        <ele>811.87463</ele>
        <time>2021-11-14T11:42:24Z</time>
      </trkpt>
      <trkpt lat="4.449879" lon="-75.077751">
        <ele>810.1388</ele>
        <time>2021-11-14T11:42:25Z</time>
      </trkpt>
      <trkpt lat="4.449912" lon="-75.077393">
        <ele>809.806</ele>
        <time>2021-11-14T11:42:26Z</time>
      </trkpt>
      <trkpt lat="4.449946" lon="-75.077011">
        <ele>808.4448</ele>
        <time>2021-11-14T11:42:27Z</time>
      </trkpt>
      <trkpt lat="4.449977" lon="-75.07666">
        <ele>807.7062</ele>
        <time>2021-11-14T11:42:28Z</time>
      </trkpt>
      <trkpt lat="4.450011" lon="-75.076286">
        <ele>806.4602</ele>
        <time>2021-11-14T11:42:29Z</time>
      </trkpt>
      <trkpt lat="4.450011" lon="-75.076286">
        <ele>805.6627</ele>
        <time>2021-11-14T11:42:30Z</time>
      </trkpt>
      <trkpt lat="4.450041" lon="-75.075951">
        <ele>805.4656</ele>
        <time>2021-11-14T11:42:31Z</time>
      </trkpt>
      <trkpt lat="4.450075" lon="-75.075577">
        <ele>804.21655</ele>
        <time>2021-11-14T11:42:32Z</time>
      </trkpt>
      <trkpt lat="4.450108" lon="-75.075211">
        <ele>802.5603</ele>
        <time>2021-11-14T11:42:33Z</time>
      </trkpt>
      <trkpt lat="4.450139" lon="-75.074867">
        <ele>801.1543</ele>
        <time>2021-11-14T11:42:34Z</time>
      </trkpt>
      <trkpt lat="4.450171" lon="-75.074501">
        <ele>800.6124</ele>
        <time>2021-11-14T11:42:35Z</time>
      </trkpt>
      <trkpt lat="4.450205" lon="-75.074127">
        <ele>799.3635</ele>
        <time>2021-11-14T11:42:36Z</time>
      </trkpt>
      <trkpt lat="4.450237" lon="-75.073769">
        <ele>798.6825</ele>
        <time>2021-11-14T11:42:37Z</time>
      </trkpt>
      <trkpt lat="4.45027" lon="-75.07341">
        <ele>797.58777</ele>
        <time>2021-11-14T11:42:38Z</time>
      </trkpt>
      <trkpt lat="4.450303" lon="-75.073036">
        <ele>796.4951</ele>
        <time>2021-11-14T11:42:39Z</time>
      </trkpt>
      <trkpt lat="4.450332" lon="-75.072716">
        <ele>796.2307</ele>
        <time>2021-11-14T11:42:40Z</time>
      </trkpt>
      <trkpt lat="4.450335" lon="-75.072128">
        <ele>794.6743</ele>
        <time>2021-11-14T11:42:41Z</time>
      </trkpt>
      <trkpt lat="4.450332" lon="-75.071823">
        <ele>793.73584</ele>
        <time>2021-11-14T11:42:42Z</time>
      </trkpt>
      <trkpt lat="4.45033" lon="-75.071548">
        <ele>793.4458</ele>
        <time>2021-11-14T11:42:43Z</time>
      </trkpt>
      <trkpt lat="4.450327" lon="-75.07119">
        <ele>792.92725</ele>
        <time>2021-11-14T11:42:44Z</time>
      </trkpt>
      <trkpt lat="4.450324" lon="-75.070862">
        <ele>792.3456</ele>
        <time>2021-11-14T11:42:45Z</time>
      </trkpt>
      <trkpt lat="4.450321" lon="-75.070518">
        <ele>791.20044</ele>
        <time>2021-11-14T11:42:46Z</time>
      </trkpt>
      <trkpt lat="4.450318" lon="-75.070198">
        <ele>790.56885</ele>
        <time>2021-11-14T11:42:47Z</time>
      </trkpt>
      <trkpt lat="4.450327" lon="-75.069885">
        <ele>789.74536</ele>
        <time>2021-11-14T11:42:48Z</time>
      </trkpt>
      <trkpt lat="4.450336" lon="-75.06958">
        <ele>788.6958</ele>
        <time>2021-11-14T11:42:49Z</time>
      </trkpt>
      <trkpt lat="4.450344" lon="-75.069298">
        <ele>787.8906</ele>
        <time>2021-11-14T11:42:50Z</time>
      </trkpt>
      <trkpt lat="4.450352" lon="-75.069016">
        <ele>786.5759</ele>
        <time>2021-11-14T11:42:51Z</time>
      </trkpt>
      <trkpt lat="4.450368" lon="-75.068756">
        <ele>785.69446</ele>
        <time>2021-11-14T11:42:52Z</time>
      </trkpt>
      <trkpt lat="4.450419" lon="-75.068451">
        <ele>785.01416</ele>
        <time>2021-11-14T11:42:53Z</time>
      </trkpt>
      <trkpt lat="4.450466" lon="-75.068176">
        <ele>783.8816</ele>
        <time>2021-11-14T11:42:54Z</time>
      </trkpt>
      <trkpt lat="4.450502" lon="-75.067963">
        <ele>783.2456</ele>
        <time>2021-11-14T11:42:55Z</time>
      </trkpt>
      <trkpt lat="4.450542" lon="-75.067734">
        <ele>783.08984</ele>
        <time>2021-11-14T11:42:56Z</time>
      </trkpt>
      <trkpt lat="4.450582" lon="-75.067505">
        <ele>781.93945</ele>
        <time>2021-11-14T11:42:58Z</time>
      </trkpt>
      <trkpt lat="4.450614" lon="-75.067314">
        <ele>781.0327</ele>
        <time>2021-11-14T11:42:59Z</time>
      </trkpt>
      <trkpt lat="4.450643" lon="-75.067146">
        <ele>780.79956</ele>
        <time>2021-11-14T11:43:00Z</time>
      </trkpt>
      <trkpt lat="4.450676" lon="-75.066948">
        <ele>780.89014</ele>
        <time>2021-11-14T11:43:01Z</time>
      </trkpt>
      <trkpt lat="4.450717" lon="-75.066711">
        <ele>780.1344</ele>
        <time>2021-11-14T11:43:02Z</time>
      </trkpt>
      <trkpt lat="4.450752" lon="-75.066505">
        <ele>779.74097</ele>
        <time>2021-11-14T11:43:03Z</time>
      </trkpt>
      <trkpt lat="4.45079" lon="-75.066284">
        <ele>779.06494</ele>
        <time>2021-11-14T11:43:04Z</time>
      </trkpt>
      <trkpt lat="4.45079" lon="-75.066284">
        <ele>778.56836</ele>
        <time>2021-11-14T11:43:05Z</time>
      </trkpt>
      <trkpt lat="4.450825" lon="-75.066078">
        <ele>778.28296</ele>
        <time>2021-11-14T11:43:06Z</time>
      </trkpt>
      <trkpt lat="4.450863" lon="-75.065857">
        <ele>777.8717</ele>
        <time>2021-11-14T11:43:07Z</time>
      </trkpt>
      <trkpt lat="4.450903" lon="-75.06562">
        <ele>776.61255</ele>
        <time>2021-11-14T11:43:08Z</time>
      </trkpt>
      <trkpt lat="4.450939" lon="-75.065414">
        <ele>776.573</ele>
        <time>2021-11-14T11:43:09Z</time>
      </trkpt>
      <trkpt lat="4.450979" lon="-75.065178">
        <ele>776.5598</ele>
        <time>2021-11-14T11:43:10Z</time>
      </trkpt>
      <trkpt lat="4.451018" lon="-75.064949">
        <ele>775.364</ele>
        <time>2021-11-14T11:43:11Z</time>
      </trkpt>
      <trkpt lat="4.451054" lon="-75.064735">
        <ele>776.4502</ele>
        <time>2021-11-14T11:43:12Z</time>
      </trkpt>
      <trkpt lat="4.451089" lon="-75.064529">
        <ele>776.15063</ele>
        <time>2021-11-14T11:43:13Z</time>
      </trkpt>
      <trkpt lat="4.451124" lon="-75.064323">
        <ele>775.556</ele>
        <time>2021-11-14T11:43:14Z</time>
      </trkpt>
      <trkpt lat="4.451169" lon="-75.064064">
        <ele>774.92993</ele>
        <time>2021-11-14T11:43:15Z</time>
      </trkpt>
      <trkpt lat="4.451201" lon="-75.063873">
        <ele>775.1653</ele>
        <time>2021-11-14T11:43:16Z</time>
      </trkpt>
      <trkpt lat="4.451215" lon="-75.063675">
        <ele>774.6835</ele>
        <time>2021-11-14T11:43:17Z</time>
      </trkpt>
      <trkpt lat="4.451207" lon="-75.063469">
        <ele>773.60205</ele>
        <time>2021-11-14T11:43:18Z</time>
      </trkpt>
      <trkpt lat="4.451199" lon="-75.063271">
        <ele>774.28735</ele>
        <time>2021-11-14T11:43:19Z</time>
      </trkpt>
      <trkpt lat="4.451191" lon="-75.063072">
        <ele>773.14746</ele>
        <time>2021-11-14T11:43:20Z</time>
      </trkpt>
      <trkpt lat="4.451183" lon="-75.062851">
        <ele>772.36914</ele>
        <time>2021-11-14T11:43:21Z</time>
      </trkpt>
      <trkpt lat="4.451174" lon="-75.06263">
        <ele>771.3666</ele>
        <time>2021-11-14T11:43:22Z</time>
      </trkpt>
      <trkpt lat="4.451165" lon="-75.062393">
        <ele>771.78284</ele>
        <time>2021-11-14T11:43:23Z</time>
      </trkpt>
      <trkpt lat="4.451155" lon="-75.062149">
        <ele>771.17114</ele>
        <time>2021-11-14T11:43:24Z</time>
      </trkpt>
      <trkpt lat="4.451145" lon="-75.061897">
        <ele>770.5908</ele>
        <time>2021-11-14T11:43:25Z</time>
      </trkpt>
      <trkpt lat="4.451135" lon="-75.061646">
        <ele>769.84045</ele>
        <time>2021-11-14T11:43:26Z</time>
      </trkpt>
      <trkpt lat="4.451123" lon="-75.061356">
        <ele>769.33203</ele>
        <time>2021-11-14T11:43:27Z</time>
      </trkpt>
      <trkpt lat="4.451117" lon="-75.061081">
        <ele>769.01575</ele>
        <time>2021-11-14T11:43:28Z</time>
      </trkpt>
      <trkpt lat="4.451117" lon="-75.060799">
        <ele>768.2002</ele>
        <time>2021-11-14T11:43:29Z</time>
      </trkpt>
      <trkpt lat="4.451117" lon="-75.060524">
        <ele>767.64417</ele>
        <time>2021-11-14T11:43:30Z</time>
      </trkpt>
      <trkpt lat="4.451117" lon="-75.060265">
        <ele>767.1262</ele>
        <time>2021-11-14T11:43:31Z</time>
      </trkpt>
      <trkpt lat="4.451117" lon="-75.059998">
        <ele>766.7119</ele>
        <time>2021-11-14T11:43:32Z</time>
      </trkpt>
      <trkpt lat="4.451117" lon="-75.059715">
        <ele>766.17395</ele>
        <time>2021-11-14T11:43:33Z</time>
      </trkpt>
      <trkpt lat="4.45112" lon="-75.059418">
        <ele>765.8738</ele>
        <time>2021-11-14T11:43:34Z</time>
      </trkpt>
      <trkpt lat="4.451144" lon="-75.059151">
        <ele>766.4934</ele>
        <time>2021-11-14T11:43:35Z</time>
      </trkpt>
      <trkpt lat="4.451167" lon="-75.058884">
        <ele>766.05054</ele>
        <time>2021-11-14T11:43:36Z</time>
      </trkpt>
      <trkpt lat="4.451167" lon="-75.058884">
        <ele>765.9568</ele>
        <time>2021-11-14T11:43:37Z</time>
      </trkpt>
      <trkpt lat="4.451187" lon="-75.058655">
        <ele>765.6616</ele>
        <time>2021-11-14T11:43:38Z</time>
      </trkpt>
      <trkpt lat="4.451208" lon="-75.058418">
        <ele>765.7754</ele>
        <time>2021-11-14T11:43:39Z</time>
      </trkpt>
      <trkpt lat="4.45123" lon="-75.058167">
        <ele>765.12146</ele>
        <time>2021-11-14T11:43:40Z</time>
      </trkpt>
      <trkpt lat="4.451256" lon="-75.057869">
        <ele>764.3579</ele>
        <time>2021-11-14T11:43:41Z</time>
      </trkpt>
      <trkpt lat="4.451296" lon="-75.057594">
        <ele>763.79456</ele>
        <time>2021-11-14T11:43:42Z</time>
      </trkpt>
      <trkpt lat="4.451344" lon="-75.057343">
        <ele>763.8967</ele>
        <time>2021-11-14T11:43:43Z</time>
      </trkpt>
      <trkpt lat="4.451393" lon="-75.057098">
        <ele>762.89136</ele>
        <time>2021-11-14T11:43:44Z</time>
      </trkpt>
      <trkpt lat="4.451445" lon="-75.056831">
        <ele>762.2947</ele>
        <time>2021-11-14T11:43:45Z</time>
      </trkpt>
      <trkpt lat="4.451504" lon="-75.056526">
        <ele>761.4767</ele>
        <time>2021-11-14T11:43:46Z</time>
      </trkpt>
      <trkpt lat="4.45156" lon="-75.056236">
        <ele>761.08264</ele>
        <time>2021-11-14T11:43:47Z</time>
      </trkpt>
      <trkpt lat="4.451613" lon="-75.055962">
        <ele>760.61633</ele>
        <time>2021-11-14T11:43:48Z</time>
      </trkpt>
      <trkpt lat="4.451719" lon="-75.055412">
        <ele>759.69946</ele>
        <time>2021-11-14T11:43:49Z</time>
      </trkpt>
      <trkpt lat="4.451771" lon="-75.055145">
        <ele>759.8756</ele>
        <time>2021-11-14T11:43:50Z</time>
      </trkpt>
      <trkpt lat="4.451826" lon="-75.054863">
        <ele>758.86755</ele>
        <time>2021-11-14T11:43:51Z</time>
      </trkpt>
      <trkpt lat="4.451885" lon="-75.054558">
        <ele>758.4263</ele>
        <time>2021-11-14T11:43:52Z</time>
      </trkpt>
      <trkpt lat="4.45194" lon="-75.054276">
        <ele>757.5676</ele>
        <time>2021-11-14T11:43:53Z</time>
      </trkpt>
      <trkpt lat="4.451992" lon="-75.054008">
        <ele>756.74695</ele>
        <time>2021-11-14T11:43:54Z</time>
      </trkpt>
      <trkpt lat="4.452045" lon="-75.053734">
        <ele>756.27344</ele>
        <time>2021-11-14T11:43:55Z</time>
      </trkpt>
      <trkpt lat="4.452099" lon="-75.053452">
        <ele>756.1957</ele>
        <time>2021-11-14T11:43:56Z</time>
      </trkpt>
      <trkpt lat="4.452178" lon="-75.053162">
        <ele>755.6304</ele>
        <time>2021-11-14T11:43:57Z</time>
      </trkpt>
      <trkpt lat="4.452256" lon="-75.052902">
        <ele>755.26294</ele>
        <time>2021-11-14T11:43:58Z</time>
      </trkpt>
      <trkpt lat="4.452339" lon="-75.052658">
        <ele>754.552</ele>
        <time>2021-11-14T11:43:59Z</time>
      </trkpt>
      <trkpt lat="4.452454" lon="-75.052391">
        <ele>753.75024</ele>
        <time>2021-11-14T11:44:00Z</time>
      </trkpt>
      <trkpt lat="4.452561" lon="-75.052132">
        <ele>753.15894</ele>
        <time>2021-11-14T11:44:01Z</time>
      </trkpt>
      <trkpt lat="4.452663" lon="-75.051888">
        <ele>753.0995</ele>
        <time>2021-11-14T11:44:02Z</time>
      </trkpt>
      <trkpt lat="4.452787" lon="-75.051636">
        <ele>752.2754</ele>
        <time>2021-11-14T11:44:03Z</time>
      </trkpt>
      <trkpt lat="4.452918" lon="-75.051376">
        <ele>751.12366</ele>
        <time>2021-11-14T11:44:04Z</time>
      </trkpt>
      <trkpt lat="4.453046" lon="-75.051125">
        <ele>749.95935</ele>
        <time>2021-11-14T11:44:05Z</time>
      </trkpt>
      <trkpt lat="4.453176" lon="-75.050865">
        <ele>749.0112</ele>
        <time>2021-11-14T11:44:07Z</time>
      </trkpt>
      <trkpt lat="4.453309" lon="-75.050606">
        <ele>748.4734</ele>
        <time>2021-11-14T11:44:08Z</time>
      </trkpt>
      <trkpt lat="4.453469" lon="-75.050293">
        <ele>748.2897</ele>
        <time>2021-11-14T11:44:09Z</time>
      </trkpt>
      <trkpt lat="4.453606" lon="-75.050018">
        <ele>747.5342</ele>
        <time>2021-11-14T11:44:10Z</time>
      </trkpt>
      <trkpt lat="4.453734" lon="-75.049767">
        <ele>746.8972</ele>
        <time>2021-11-14T11:44:11Z</time>
      </trkpt>
      <trkpt lat="4.453854" lon="-75.04953">
        <ele>746.37427</ele>
        <time>2021-11-14T11:44:12Z</time>
      </trkpt>
      <trkpt lat="4.453854" lon="-75.04953">
        <ele>745.4048</ele>
        <time>2021-11-14T11:44:13Z</time>
      </trkpt>
      <trkpt lat="4.453969" lon="-75.049309">
        <ele>744.8921</ele>
        <time>2021-11-14T11:44:14Z</time>
      </trkpt>
      <trkpt lat="4.454106" lon="-75.049034">
        <ele>744.1138</ele>
        <time>2021-11-14T11:44:15Z</time>
      </trkpt>
      <trkpt lat="4.454241" lon="-75.048775">
        <ele>742.5762</ele>
        <time>2021-11-14T11:44:16Z</time>
      </trkpt>
      <trkpt lat="4.454361" lon="-75.048531">
        <ele>742.2903</ele>
        <time>2021-11-14T11:44:17Z</time>
      </trkpt>
      <trkpt lat="4.454484" lon="-75.048294">
        <ele>741.4336</ele>
        <time>2021-11-14T11:44:18Z</time>
      </trkpt>
      <trkpt lat="4.454616" lon="-75.048035">
        <ele>741.0471</ele>
        <time>2021-11-14T11:44:19Z</time>
      </trkpt>
      <trkpt lat="4.454738" lon="-75.047798">
        <ele>740.70557</ele>
        <time>2021-11-14T11:44:20Z</time>
      </trkpt>
      <trkpt lat="4.454858" lon="-75.047569">
        <ele>740.5242</ele>
        <time>2021-11-14T11:44:21Z</time>
      </trkpt>
      <trkpt lat="4.454991" lon="-75.04731">
        <ele>740.0215</ele>
        <time>2021-11-14T11:44:22Z</time>
      </trkpt>
      <trkpt lat="4.455127" lon="-75.047073">
        <ele>738.8074</ele>
        <time>2021-11-14T11:44:23Z</time>
      </trkpt>
      <trkpt lat="4.455275" lon="-75.046844">
        <ele>738.2717</ele>
        <time>2021-11-14T11:44:24Z</time>
      </trkpt>
      <trkpt lat="4.455416" lon="-75.046631">
        <ele>737.4407</ele>
        <time>2021-11-14T11:44:25Z</time>
      </trkpt>
      <trkpt lat="4.455572" lon="-75.046394">
        <ele>736.2556</ele>
        <time>2021-11-14T11:44:26Z</time>
      </trkpt>
      <trkpt lat="4.455743" lon="-75.046127">
        <ele>736.5558</ele>
        <time>2021-11-14T11:44:27Z</time>
      </trkpt>
      <trkpt lat="4.455892" lon="-75.045906">
        <ele>736.7709</ele>
        <time>2021-11-14T11:44:28Z</time>
      </trkpt>
      <trkpt lat="4.456043" lon="-75.04567">
        <ele>736.20215</ele>
        <time>2021-11-14T11:44:29Z</time>
      </trkpt>
      <trkpt lat="4.456183" lon="-75.045456">
        <ele>735.353</ele>
        <time>2021-11-14T11:44:30Z</time>
      </trkpt>
      <trkpt lat="4.456324" lon="-75.045242">
        <ele>734.61743</ele>
        <time>2021-11-14T11:44:31Z</time>
      </trkpt>
      <trkpt lat="4.456488" lon="-75.044991">
        <ele>733.57886</ele>
        <time>2021-11-14T11:44:32Z</time>
      </trkpt>
      <trkpt lat="4.456641" lon="-75.044762">
        <ele>732.6815</ele>
        <time>2021-11-14T11:44:33Z</time>
      </trkpt>
      <trkpt lat="4.456792" lon="-75.044525">
        <ele>732.54175</ele>
        <time>2021-11-14T11:44:34Z</time>
      </trkpt>
      <trkpt lat="4.456954" lon="-75.044281">
        <ele>731.0857</ele>
        <time>2021-11-14T11:44:35Z</time>
      </trkpt>
      <trkpt lat="4.457109" lon="-75.044044">
        <ele>730.03076</ele>
        <time>2021-11-14T11:44:36Z</time>
      </trkpt>
      <trkpt lat="4.457264" lon="-75.043808">
        <ele>729.1533</ele>
        <time>2021-11-14T11:44:37Z</time>
      </trkpt>
      <trkpt lat="4.457412" lon="-75.043579">
        <ele>728.50085</ele>
        <time>2021-11-14T11:44:38Z</time>
      </trkpt>
      <trkpt lat="4.457552" lon="-75.043365">
        <ele>727.4148</ele>
        <time>2021-11-14T11:44:39Z</time>
      </trkpt>
      <trkpt lat="4.4577" lon="-75.043137">
        <ele>726.8408</ele>
        <time>2021-11-14T11:44:40Z</time>
      </trkpt>
      <trkpt lat="4.457868" lon="-75.042877">
        <ele>726.3782</ele>
        <time>2021-11-14T11:44:41Z</time>
      </trkpt>
      <trkpt lat="4.458035" lon="-75.042625">
        <ele>725.3745</ele>
        <time>2021-11-14T11:44:42Z</time>
      </trkpt>
      <trkpt lat="4.458195" lon="-75.042381">
        <ele>724.5886</ele>
        <time>2021-11-14T11:44:43Z</time>
      </trkpt>
      <trkpt lat="4.458357" lon="-75.04213">
        <ele>723.6118</ele>
        <time>2021-11-14T11:44:44Z</time>
      </trkpt>
      <trkpt lat="4.458516" lon="-75.041885">
        <ele>722.96094</ele>
        <time>2021-11-14T11:44:45Z</time>
      </trkpt>
      <trkpt lat="4.458665" lon="-75.041664">
        <ele>722.365</ele>
        <time>2021-11-14T11:44:46Z</time>
      </trkpt>
      <trkpt lat="4.458822" lon="-75.04142">
        <ele>721.8113</ele>
        <time>2021-11-14T11:44:47Z</time>
      </trkpt>
      <trkpt lat="4.45899" lon="-75.041168">
        <ele>721.49927</ele>
        <time>2021-11-14T11:44:48Z</time>
      </trkpt>
      <trkpt lat="4.459149" lon="-75.040924">
        <ele>720.64453</ele>
        <time>2021-11-14T11:44:49Z</time>
      </trkpt>
      <trkpt lat="4.4593" lon="-75.040688">
        <ele>719.9707</ele>
        <time>2021-11-14T11:44:50Z</time>
      </trkpt>
      <trkpt lat="4.459476" lon="-75.040428">
        <ele>719.68164</ele>
        <time>2021-11-14T11:44:51Z</time>
      </trkpt>
      <trkpt lat="4.459634" lon="-75.040222">
        <ele>718.667</ele>
        <time>2021-11-14T11:44:52Z</time>
      </trkpt>
      <trkpt lat="4.459634" lon="-75.040222">
        <ele>717.59973</ele>
        <time>2021-11-14T11:44:53Z</time>
      </trkpt>
      <trkpt lat="4.459787" lon="-75.040001">
        <ele>716.2905</ele>
        <time>2021-11-14T11:44:54Z</time>
      </trkpt>
      <trkpt lat="4.459954" lon="-75.039742">
        <ele>715.2722</ele>
        <time>2021-11-14T11:44:55Z</time>
      </trkpt>
      <trkpt lat="4.460102" lon="-75.039513">
        <ele>714.71313</ele>
        <time>2021-11-14T11:44:56Z</time>
      </trkpt>
      <trkpt lat="4.460258" lon="-75.039268">
        <ele>713.8956</ele>
        <time>2021-11-14T11:44:57Z</time>
      </trkpt>
      <trkpt lat="4.460421" lon="-75.039017">
        <ele>713.94495</ele>
        <time>2021-11-14T11:44:58Z</time>
      </trkpt>
      <trkpt lat="4.46058" lon="-75.038773">
        <ele>712.94995</ele>
        <time>2021-11-14T11:44:59Z</time>
      </trkpt>
      <trkpt lat="4.460731" lon="-75.038536">
        <ele>712.16565</ele>
        <time>2021-11-14T11:45:00Z</time>
      </trkpt>
      <trkpt lat="4.460886" lon="-75.038292">
        <ele>710.9087</ele>
        <time>2021-11-14T11:45:01Z</time>
      </trkpt>
      <trkpt lat="4.461049" lon="-75.03804">
        <ele>711.02026</ele>
        <time>2021-11-14T11:45:02Z</time>
      </trkpt>
      <trkpt lat="4.461209" lon="-75.037788">
        <ele>710.3865</ele>
        <time>2021-11-14T11:45:03Z</time>
      </trkpt>
      <trkpt lat="4.461361" lon="-75.037552">
        <ele>710.04126</ele>
        <time>2021-11-14T11:45:04Z</time>
      </trkpt>
      <trkpt lat="4.461521" lon="-75.037308">
        <ele>709.4094</ele>
        <time>2021-11-14T11:45:05Z</time>
      </trkpt>
      <trkpt lat="4.461686" lon="-75.037048">
        <ele>709.3273</ele>
        <time>2021-11-14T11:45:06Z</time>
      </trkpt>
      <trkpt lat="4.461837" lon="-75.036812">
        <ele>708.7665</ele>
        <time>2021-11-14T11:45:07Z</time>
      </trkpt>
      <trkpt lat="4.461984" lon="-75.036583">
        <ele>708.5227</ele>
        <time>2021-11-14T11:45:08Z</time>
      </trkpt>
      <trkpt lat="4.462133" lon="-75.036354">
        <ele>707.6919</ele>
        <time>2021-11-14T11:45:09Z</time>
      </trkpt>
      <trkpt lat="4.462281" lon="-75.036133">
        <ele>706.82495</ele>
        <time>2021-11-14T11:45:10Z</time>
      </trkpt>
      <trkpt lat="4.462444" lon="-75.035873">
        <ele>706.11487</ele>
        <time>2021-11-14T11:45:11Z</time>
      </trkpt>
      <trkpt lat="4.462714" lon="-75.035461">
        <ele>704.4807</ele>
        <time>2021-11-14T11:45:12Z</time>
      </trkpt>
      <trkpt lat="4.462848" lon="-75.035255">
        <ele>703.8041</ele>
        <time>2021-11-14T11:45:13Z</time>
      </trkpt>
      <trkpt lat="4.462996" lon="-75.035027">
        <ele>702.901</ele>
        <time>2021-11-14T11:45:14Z</time>
      </trkpt>
      <trkpt lat="4.46315" lon="-75.03479">
        <ele>703.1244</ele>
        <time>2021-11-14T11:45:15Z</time>
      </trkpt>
      <trkpt lat="4.463291" lon="-75.034576">
        <ele>702.26587</ele>
        <time>2021-11-14T11:45:16Z</time>
      </trkpt>
      <trkpt lat="4.463426" lon="-75.034363">
        <ele>701.96387</ele>
        <time>2021-11-14T11:45:17Z</time>
      </trkpt>
      <trkpt lat="4.463569" lon="-75.034142">
        <ele>701.9863</ele>
        <time>2021-11-14T11:45:18Z</time>
      </trkpt>
      <trkpt lat="4.463723" lon="-75.033905">
        <ele>701.32825</ele>
        <time>2021-11-14T11:45:19Z</time>
      </trkpt>
      <trkpt lat="4.463865" lon="-75.033691">
        <ele>701.12354</ele>
        <time>2021-11-14T11:45:20Z</time>
      </trkpt>
      <trkpt lat="4.464" lon="-75.033485">
        <ele>700.2842</ele>
        <time>2021-11-14T11:45:21Z</time>
      </trkpt>
      <trkpt lat="4.464125" lon="-75.033287">
        <ele>699.99023</ele>
        <time>2021-11-14T11:45:22Z</time>
      </trkpt>
      <trkpt lat="4.464251" lon="-75.033096">
        <ele>699.5759</ele>
        <time>2021-11-14T11:45:23Z</time>
      </trkpt>
      <trkpt lat="4.464397" lon="-75.032867">
        <ele>698.7959</ele>
        <time>2021-11-14T11:45:24Z</time>
      </trkpt>
      <trkpt lat="4.464532" lon="-75.032661">
        <ele>698.4203</ele>
        <time>2021-11-14T11:45:25Z</time>
      </trkpt>
      <trkpt lat="4.464655" lon="-75.032471">
        <ele>698.57495</ele>
        <time>2021-11-14T11:45:26Z</time>
      </trkpt>
      <trkpt lat="4.464803" lon="-75.032265">
        <ele>698.3655</ele>
        <time>2021-11-14T11:45:27Z</time>
      </trkpt>
      <trkpt lat="4.464803" lon="-75.032265">
        <ele>698.00073</ele>
        <time>2021-11-14T11:45:28Z</time>
      </trkpt>
      <trkpt lat="4.464941" lon="-75.032066">
        <ele>696.97314</ele>
        <time>2021-11-14T11:45:30Z</time>
      </trkpt>
      <trkpt lat="4.465075" lon="-75.031868">
        <ele>696.7892</ele>
        <time>2021-11-14T11:45:31Z</time>
      </trkpt>
      <trkpt lat="4.465204" lon="-75.031685">
        <ele>696.782</ele>
        <time>2021-11-14T11:45:32Z</time>
      </trkpt>
      <trkpt lat="4.465335" lon="-75.031494">
        <ele>696.46826</ele>
        <time>2021-11-14T11:45:33Z</time>
      </trkpt>
      <trkpt lat="4.465482" lon="-75.031288">
        <ele>695.4148</ele>
        <time>2021-11-14T11:45:34Z</time>
      </trkpt>
      <trkpt lat="4.465614" lon="-75.031097">
        <ele>695.32886</ele>
        <time>2021-11-14T11:45:35Z</time>
      </trkpt>
      <trkpt lat="4.46574" lon="-75.030914">
        <ele>694.2595</ele>
        <time>2021-11-14T11:45:36Z</time>
      </trkpt>
      <trkpt lat="4.465872" lon="-75.030724">
        <ele>693.39966</ele>
        <time>2021-11-14T11:45:37Z</time>
      </trkpt>
      <trkpt lat="4.465983" lon="-75.030563">
        <ele>692.44617</ele>
        <time>2021-11-14T11:45:38Z</time>
      </trkpt>
      <trkpt lat="4.466119" lon="-75.030373">
        <ele>691.44946</ele>
        <time>2021-11-14T11:45:39Z</time>
      </trkpt>
      <trkpt lat="4.466239" lon="-75.030205">
        <ele>690.57263</ele>
        <time>2021-11-14T11:45:40Z</time>
      </trkpt>
      <trkpt lat="4.466348" lon="-75.030045">
        <ele>689.749</ele>
        <time>2021-11-14T11:45:41Z</time>
      </trkpt>
      <trkpt lat="4.466451" lon="-75.0299">
        <ele>689.6001</ele>
        <time>2021-11-14T11:45:42Z</time>
      </trkpt>
      <trkpt lat="4.46656" lon="-75.029739">
        <ele>689.27673</ele>
        <time>2021-11-14T11:45:43Z</time>
      </trkpt>
      <trkpt lat="4.466688" lon="-75.029556">
        <ele>688.46313</ele>
        <time>2021-11-14T11:45:44Z</time>
      </trkpt>
      <trkpt lat="4.466812" lon="-75.029381">
        <ele>688.2268</ele>
        <time>2021-11-14T11:45:45Z</time>
      </trkpt>
      <trkpt lat="4.466914" lon="-75.029228">
        <ele>687.4075</ele>
        <time>2021-11-14T11:45:46Z</time>
      </trkpt>
      <trkpt lat="4.467024" lon="-75.029076">
        <ele>686.8081</ele>
        <time>2021-11-14T11:45:47Z</time>
      </trkpt>
      <trkpt lat="4.467146" lon="-75.0289">
        <ele>686.47217</ele>
        <time>2021-11-14T11:45:48Z</time>
      </trkpt>
      <trkpt lat="4.467253" lon="-75.028748">
        <ele>685.67993</ele>
        <time>2021-11-14T11:45:49Z</time>
      </trkpt>
      <trkpt lat="4.467361" lon="-75.028595">
        <ele>685.1118</ele>
        <time>2021-11-14T11:45:50Z</time>
      </trkpt>
      <trkpt lat="4.467472" lon="-75.028442">
        <ele>684.6072</ele>
        <time>2021-11-14T11:45:51Z</time>
      </trkpt>
      <trkpt lat="4.467582" lon="-75.028282">
        <ele>684.2178</ele>
        <time>2021-11-14T11:45:52Z</time>
      </trkpt>
      <trkpt lat="4.467688" lon="-75.028137">
        <ele>684.21533</ele>
        <time>2021-11-14T11:45:53Z</time>
      </trkpt>
      <trkpt lat="4.467797" lon="-75.027985">
        <ele>683.9038</ele>
        <time>2021-11-14T11:45:54Z</time>
      </trkpt>
      <trkpt lat="4.467913" lon="-75.027817">
        <ele>683.48096</ele>
        <time>2021-11-14T11:45:55Z</time>
      </trkpt>
      <trkpt lat="4.468041" lon="-75.027641">
        <ele>684.104</ele>
        <time>2021-11-14T11:45:56Z</time>
      </trkpt>
      <trkpt lat="4.468159" lon="-75.027473">
        <ele>683.5205</ele>
        <time>2021-11-14T11:45:57Z</time>
      </trkpt>
      <trkpt lat="4.468277" lon="-75.027306">
        <ele>682.8612</ele>
        <time>2021-11-14T11:45:58Z</time>
      </trkpt>
      <trkpt lat="4.468418" lon="-75.027107">
        <ele>682.16797</ele>
        <time>2021-11-14T11:45:59Z</time>
      </trkpt>
      <trkpt lat="4.468578" lon="-75.026886">
        <ele>681.16223</ele>
        <time>2021-11-14T11:46:00Z</time>
      </trkpt>
      <trkpt lat="4.468724" lon="-75.02668">
        <ele>680.61255</ele>
        <time>2021-11-14T11:46:01Z</time>
      </trkpt>
      <trkpt lat="4.468904" lon="-75.026428">
        <ele>678.6636</ele>
        <time>2021-11-14T11:46:02Z</time>
      </trkpt>
      <trkpt lat="4.468904" lon="-75.026428">
        <ele>677.94165</ele>
        <time>2021-11-14T11:46:03Z</time>
      </trkpt>
      <trkpt lat="4.469073" lon="-75.026192">
        <ele>676.39954</ele>
        <time>2021-11-14T11:46:04Z</time>
      </trkpt>
      <trkpt lat="4.469251" lon="-75.02594">
        <ele>675.1217</ele>
        <time>2021-11-14T11:46:05Z</time>
      </trkpt>
      <trkpt lat="4.469418" lon="-75.025703">
        <ele>674.687</ele>
        <time>2021-11-14T11:46:06Z</time>
      </trkpt>
      <trkpt lat="4.469593" lon="-75.025459">
        <ele>674.0786</ele>
        <time>2021-11-14T11:46:07Z</time>
      </trkpt>
      <trkpt lat="4.46982" lon="-75.025139">
        <ele>674.1011</ele>
        <time>2021-11-14T11:46:08Z</time>
      </trkpt>
      <trkpt lat="4.469995" lon="-75.024895">
        <ele>673.51465</ele>
        <time>2021-11-14T11:46:09Z</time>
      </trkpt>
      <trkpt lat="4.470184" lon="-75.024628">
        <ele>673.0918</ele>
        <time>2021-11-14T11:46:10Z</time>
      </trkpt>
      <trkpt lat="4.470356" lon="-75.024384">
        <ele>672.58765</ele>
        <time>2021-11-14T11:46:11Z</time>
      </trkpt>
      <trkpt lat="4.470532" lon="-75.024132">
        <ele>673.34326</ele>
        <time>2021-11-14T11:46:12Z</time>
      </trkpt>
      <trkpt lat="4.470873" lon="-75.023628">
        <ele>672.80835</ele>
        <time>2021-11-14T11:46:13Z</time>
      </trkpt>
      <trkpt lat="4.471034" lon="-75.023399">
        <ele>672.6406</ele>
        <time>2021-11-14T11:46:14Z</time>
      </trkpt>
      <trkpt lat="4.471204" lon="-75.023148">
        <ele>672.3478</ele>
        <time>2021-11-14T11:46:15Z</time>
      </trkpt>
      <trkpt lat="4.471382" lon="-75.022888">
        <ele>670.7573</ele>
        <time>2021-11-14T11:46:16Z</time>
      </trkpt>
      <trkpt lat="4.471546" lon="-75.022652">
        <ele>669.98315</ele>
        <time>2021-11-14T11:46:17Z</time>
      </trkpt>
      <trkpt lat="4.471708" lon="-75.022415">
        <ele>668.8047</ele>
        <time>2021-11-14T11:46:18Z</time>
      </trkpt>
      <trkpt lat="4.471877" lon="-75.022163">
        <ele>668.96924</ele>
        <time>2021-11-14T11:46:19Z</time>
      </trkpt>
      <trkpt lat="4.472046" lon="-75.021919">
        <ele>668.229</ele>
        <time>2021-11-14T11:46:20Z</time>
      </trkpt>
      <trkpt lat="4.472216" lon="-75.021667">
        <ele>667.6223</ele>
        <time>2021-11-14T11:46:21Z</time>
      </trkpt>
      <trkpt lat="4.472394" lon="-75.021408">
        <ele>667.3545</ele>
        <time>2021-11-14T11:46:22Z</time>
      </trkpt>
      <trkpt lat="4.472562" lon="-75.021164">
        <ele>666.8391</ele>
        <time>2021-11-14T11:46:23Z</time>
      </trkpt>
      <trkpt lat="4.472741" lon="-75.020905">
        <ele>666.2976</ele>
        <time>2021-11-14T11:46:24Z</time>
      </trkpt>
      <trkpt lat="4.472917" lon="-75.020645">
        <ele>666.61084</ele>
        <time>2021-11-14T11:46:25Z</time>
      </trkpt>
      <trkpt lat="4.473094" lon="-75.020386">
        <ele>665.5791</ele>
        <time>2021-11-14T11:46:27Z</time>
      </trkpt>
      <trkpt lat="4.473248" lon="-75.020164">
        <ele>665.5127</ele>
        <time>2021-11-14T11:46:28Z</time>
      </trkpt>
      <trkpt lat="4.473426" lon="-75.019951">
        <ele>665.93335</ele>
        <time>2021-11-14T11:46:29Z</time>
      </trkpt>
      <trkpt lat="4.473614" lon="-75.019753">
        <ele>666.15857</ele>
        <time>2021-11-14T11:46:30Z</time>
      </trkpt>
      <trkpt lat="4.473823" lon="-75.019554">
        <ele>666.60986</ele>
        <time>2021-11-14T11:46:31Z</time>
      </trkpt>
      <trkpt lat="4.474033" lon="-75.019394">
        <ele>666.2329</ele>
        <time>2021-11-14T11:46:32Z</time>
      </trkpt>
      <trkpt lat="4.474033" lon="-75.019394">
        <ele>666.38354</ele>
        <time>2021-11-14T11:46:33Z</time>
      </trkpt>
      <trkpt lat="4.474299" lon="-75.019226">
        <ele>666.6349</ele>
        <time>2021-11-14T11:46:34Z</time>
      </trkpt>
      <trkpt lat="4.474583" lon="-75.019043">
        <ele>666.7971</ele>
        <time>2021-11-14T11:46:35Z</time>
      </trkpt>
      <trkpt lat="4.474827" lon="-75.01889">
        <ele>666.4595</ele>
        <time>2021-11-14T11:46:36Z</time>
      </trkpt>
      <trkpt lat="4.475083" lon="-75.018723">
        <ele>666.3512</ele>
        <time>2021-11-14T11:46:37Z</time>
      </trkpt>
      <trkpt lat="4.475319" lon="-75.01857">
        <ele>665.9188</ele>
        <time>2021-11-14T11:46:38Z</time>
      </trkpt>
      <trkpt lat="4.47557" lon="-75.01841">
        <ele>665.49585</ele>
        <time>2021-11-14T11:46:39Z</time>
      </trkpt>
      <trkpt lat="4.475834" lon="-75.018242">
        <ele>664.5676</ele>
        <time>2021-11-14T11:46:40Z</time>
      </trkpt>
      <trkpt lat="4.476106" lon="-75.018066">
        <ele>663.7434</ele>
        <time>2021-11-14T11:46:41Z</time>
      </trkpt>
      <trkpt lat="4.476363" lon="-75.017899">
        <ele>663.1316</ele>
        <time>2021-11-14T11:46:42Z</time>
      </trkpt>
      <trkpt lat="4.476624" lon="-75.017731">
        <ele>662.2626</ele>
        <time>2021-11-14T11:46:43Z</time>
      </trkpt>
      <trkpt lat="4.476874" lon="-75.017563">
        <ele>661.37744</ele>
        <time>2021-11-14T11:46:44Z</time>
      </trkpt>
      <trkpt lat="4.477132" lon="-75.017395">
        <ele>660.70154</ele>
        <time>2021-11-14T11:46:45Z</time>
      </trkpt>
      <trkpt lat="4.477386" lon="-75.017235">
        <ele>660.4414</ele>
        <time>2021-11-14T11:46:46Z</time>
      </trkpt>
      <trkpt lat="4.477636" lon="-75.017075">
        <ele>659.6023</ele>
        <time>2021-11-14T11:46:47Z</time>
      </trkpt>
      <trkpt lat="4.477891" lon="-75.016907">
        <ele>658.6842</ele>
        <time>2021-11-14T11:46:48Z</time>
      </trkpt>
      <trkpt lat="4.478143" lon="-75.016739">
        <ele>657.7617</ele>
        <time>2021-11-14T11:46:49Z</time>
      </trkpt>
      <trkpt lat="4.478421" lon="-75.016563">
        <ele>656.3779</ele>
        <time>2021-11-14T11:46:50Z</time>
      </trkpt>
      <trkpt lat="4.478688" lon="-75.016388">
        <ele>655.5592</ele>
        <time>2021-11-14T11:46:51Z</time>
      </trkpt>
      <trkpt lat="4.478969" lon="-75.016205">
        <ele>654.5073</ele>
        <time>2021-11-14T11:46:52Z</time>
      </trkpt>
      <trkpt lat="4.479224" lon="-75.016037">
        <ele>653.8502</ele>
        <time>2021-11-14T11:46:53Z</time>
      </trkpt>
      <trkpt lat="4.479501" lon="-75.015862">
        <ele>653.1323</ele>
        <time>2021-11-14T11:46:54Z</time>
      </trkpt>
      <trkpt lat="4.479774" lon="-75.015686">
        <ele>652.2644</ele>
        <time>2021-11-14T11:46:55Z</time>
      </trkpt>
      <trkpt lat="4.480037" lon="-75.015511">
        <ele>651.728</ele>
        <time>2021-11-14T11:46:56Z</time>
      </trkpt>
      <trkpt lat="4.480307" lon="-75.015335">
        <ele>650.9619</ele>
        <time>2021-11-14T11:46:57Z</time>
      </trkpt>
      <trkpt lat="4.480576" lon="-75.015167">
        <ele>650.42126</ele>
        <time>2021-11-14T11:46:58Z</time>
      </trkpt>
      <trkpt lat="4.480843" lon="-75.014999">
        <ele>649.6655</ele>
        <time>2021-11-14T11:46:59Z</time>
      </trkpt>
      <trkpt lat="4.481104" lon="-75.014839">
        <ele>648.8911</ele>
        <time>2021-11-14T11:47:00Z</time>
      </trkpt>
      <trkpt lat="4.481391" lon="-75.014664">
        <ele>648.91846</ele>
        <time>2021-11-14T11:47:01Z</time>
      </trkpt>
      <trkpt lat="4.481391" lon="-75.014664">
        <ele>648.3436</ele>
        <time>2021-11-14T11:47:02Z</time>
      </trkpt>
      <trkpt lat="4.481674" lon="-75.014488">
        <ele>648.0112</ele>
        <time>2021-11-14T11:47:03Z</time>
      </trkpt>
      <trkpt lat="4.481937" lon="-75.014328">
        <ele>647.7991</ele>
        <time>2021-11-14T11:47:04Z</time>
      </trkpt>
      <trkpt lat="4.482218" lon="-75.014153">
        <ele>647.5089</ele>
        <time>2021-11-14T11:47:05Z</time>
      </trkpt>
      <trkpt lat="4.482493" lon="-75.013985">
        <ele>647.4457</ele>
        <time>2021-11-14T11:47:06Z</time>
      </trkpt>
      <trkpt lat="4.482755" lon="-75.013824">
        <ele>646.651</ele>
        <time>2021-11-14T11:47:07Z</time>
      </trkpt>
      <trkpt lat="4.483008" lon="-75.013664">
        <ele>646.2167</ele>
        <time>2021-11-14T11:47:08Z</time>
      </trkpt>
      <trkpt lat="4.483278" lon="-75.013496">
        <ele>645.24866</ele>
        <time>2021-11-14T11:47:09Z</time>
      </trkpt>
      <trkpt lat="4.483562" lon="-75.013321">
        <ele>645.479</ele>
        <time>2021-11-14T11:47:10Z</time>
      </trkpt>
      <trkpt lat="4.483838" lon="-75.013153">
        <ele>644.96375</ele>
        <time>2021-11-14T11:47:11Z</time>
      </trkpt>
      <trkpt lat="4.484095" lon="-75.012978">
        <ele>645.08325</ele>
        <time>2021-11-14T11:47:12Z</time>
      </trkpt>
      <trkpt lat="4.484324" lon="-75.012802">
        <ele>645.19946</ele>
        <time>2021-11-14T11:47:13Z</time>
      </trkpt>
      <trkpt lat="4.484567" lon="-75.012619">
        <ele>646.27344</ele>
        <time>2021-11-14T11:47:14Z</time>
      </trkpt>
      <trkpt lat="4.48482" lon="-75.012428">
        <ele>646.2367</ele>
        <time>2021-11-14T11:47:15Z</time>
      </trkpt>
      <trkpt lat="4.485076" lon="-75.012238">
        <ele>646.1074</ele>
        <time>2021-11-14T11:47:16Z</time>
      </trkpt>
      <trkpt lat="4.485588" lon="-75.011871">
        <ele>646.25635</ele>
        <time>2021-11-14T11:47:17Z</time>
      </trkpt>
      <trkpt lat="4.485826" lon="-75.011696">
        <ele>646.334</ele>
        <time>2021-11-14T11:47:18Z</time>
      </trkpt>
      <trkpt lat="4.486071" lon="-75.01152">
        <ele>645.9293</ele>
        <time>2021-11-14T11:47:20Z</time>
      </trkpt>
      <trkpt lat="4.486308" lon="-75.011345">
        <ele>645.7539</ele>
        <time>2021-11-14T11:47:21Z</time>
      </trkpt>
      <trkpt lat="4.48657" lon="-75.011154">
        <ele>645.8893</ele>
        <time>2021-11-14T11:47:22Z</time>
      </trkpt>
      <trkpt lat="4.486859" lon="-75.010948">
        <ele>645.4741</ele>
        <time>2021-11-14T11:47:23Z</time>
      </trkpt>
      <trkpt lat="4.487104" lon="-75.010773">
        <ele>644.96875</ele>
        <time>2021-11-14T11:47:24Z</time>
      </trkpt>
      <trkpt lat="4.48735" lon="-75.01059">
        <ele>645.0171</ele>
        <time>2021-11-14T11:47:25Z</time>
      </trkpt>
      <trkpt lat="4.487604" lon="-75.010406">
        <ele>644.95386</ele>
        <time>2021-11-14T11:47:26Z</time>
      </trkpt>
      <trkpt lat="4.487846" lon="-75.010231">
        <ele>644.8966</ele>
        <time>2021-11-14T11:47:27Z</time>
      </trkpt>
      <trkpt lat="4.488097" lon="-75.010048">
        <ele>644.31775</ele>
        <time>2021-11-14T11:47:28Z</time>
      </trkpt>
      <trkpt lat="4.488368" lon="-75.00985">
        <ele>643.97864</ele>
        <time>2021-11-14T11:47:29Z</time>
      </trkpt>
      <trkpt lat="4.488626" lon="-75.009666">
        <ele>643.4939</ele>
        <time>2021-11-14T11:47:30Z</time>
      </trkpt>
      <trkpt lat="4.488871" lon="-75.009491">
        <ele>643.1428</ele>
        <time>2021-11-14T11:47:31Z</time>
      </trkpt>
      <trkpt lat="4.488871" lon="-75.009491">
        <ele>642.2876</ele>
        <time>2021-11-14T11:47:32Z</time>
      </trkpt>
      <trkpt lat="4.489127" lon="-75.0093">
        <ele>641.9635</ele>
        <time>2021-11-14T11:47:33Z</time>
      </trkpt>
      <trkpt lat="4.489378" lon="-75.009117">
        <ele>642.0115</ele>
        <time>2021-11-14T11:47:34Z</time>
      </trkpt>
      <trkpt lat="4.489629" lon="-75.008942">
        <ele>641.469</ele>
        <time>2021-11-14T11:47:35Z</time>
      </trkpt>
      <trkpt lat="4.4899" lon="-75.008743">
        <ele>640.975</ele>
        <time>2021-11-14T11:47:36Z</time>
      </trkpt>
      <trkpt lat="4.490169" lon="-75.008545">
        <ele>640.2975</ele>
        <time>2021-11-14T11:47:37Z</time>
      </trkpt>
      <trkpt lat="4.490437" lon="-75.008354">
        <ele>639.7467</ele>
        <time>2021-11-14T11:47:38Z</time>
      </trkpt>
      <trkpt lat="4.490702" lon="-75.008163">
        <ele>639.3203</ele>
        <time>2021-11-14T11:47:39Z</time>
      </trkpt>
      <trkpt lat="4.490963" lon="-75.00798">
        <ele>638.52734</ele>
        <time>2021-11-14T11:47:40Z</time>
      </trkpt>
      <trkpt lat="4.491237" lon="-75.00779">
        <ele>637.90967</ele>
        <time>2021-11-14T11:47:41Z</time>
      </trkpt>
      <trkpt lat="4.491505" lon="-75.007607">
        <ele>637.18726</ele>
        <time>2021-11-14T11:47:42Z</time>
      </trkpt>
      <trkpt lat="4.491776" lon="-75.007423">
        <ele>636.5747</ele>
        <time>2021-11-14T11:47:43Z</time>
      </trkpt>
      <trkpt lat="4.492048" lon="-75.007233">
        <ele>635.93774</ele>
        <time>2021-11-14T11:47:44Z</time>
      </trkpt>
      <trkpt lat="4.492305" lon="-75.007057">
        <ele>635.49805</ele>
        <time>2021-11-14T11:47:45Z</time>
      </trkpt>
      <trkpt lat="4.492567" lon="-75.006874">
        <ele>635.00684</ele>
        <time>2021-11-14T11:47:46Z</time>
      </trkpt>
      <trkpt lat="4.492816" lon="-75.006699">
        <ele>634.5834</ele>
        <time>2021-11-14T11:47:47Z</time>
      </trkpt>
      <trkpt lat="4.493074" lon="-75.006523">
        <ele>634.022</ele>
        <time>2021-11-14T11:47:48Z</time>
      </trkpt>
      <trkpt lat="4.493336" lon="-75.00634">
        <ele>633.45386</ele>
        <time>2021-11-14T11:47:49Z</time>
      </trkpt>
      <trkpt lat="4.4936" lon="-75.006157">
        <ele>632.95654</ele>
        <time>2021-11-14T11:47:50Z</time>
      </trkpt>
      <trkpt lat="4.49387" lon="-75.005974">
        <ele>632.6074</ele>
        <time>2021-11-14T11:47:51Z</time>
      </trkpt>
      <trkpt lat="4.494132" lon="-75.005791">
        <ele>632.16736</ele>
        <time>2021-11-14T11:47:52Z</time>
      </trkpt>
      <trkpt lat="4.494399" lon="-75.005608">
        <ele>631.7339</ele>
        <time>2021-11-14T11:47:53Z</time>
      </trkpt>
      <trkpt lat="4.494685" lon="-75.005432">
        <ele>631.4054</ele>
        <time>2021-11-14T11:47:54Z</time>
      </trkpt>
      <trkpt lat="4.494943" lon="-75.005272">
        <ele>630.91675</ele>
        <time>2021-11-14T11:47:55Z</time>
      </trkpt>
      <trkpt lat="4.495217" lon="-75.005104">
        <ele>630.06885</ele>
        <time>2021-11-14T11:47:56Z</time>
      </trkpt>
      <trkpt lat="4.495483" lon="-75.004944">
        <ele>629.6963</ele>
        <time>2021-11-14T11:47:57Z</time>
      </trkpt>
      <trkpt lat="4.495752" lon="-75.004776">
        <ele>629.6742</ele>
        <time>2021-11-14T11:47:58Z</time>
      </trkpt>
      <trkpt lat="4.496011" lon="-75.004616">
        <ele>629.41345</ele>
        <time>2021-11-14T11:47:59Z</time>
      </trkpt>
      <trkpt lat="4.496267" lon="-75.004456">
        <ele>629.1001</ele>
        <time>2021-11-14T11:48:00Z</time>
      </trkpt>
      <trkpt lat="4.496516" lon="-75.004303">
        <ele>628.6998</ele>
        <time>2021-11-14T11:48:01Z</time>
      </trkpt>
      <trkpt lat="4.496787" lon="-75.004135">
        <ele>628.19446</ele>
        <time>2021-11-14T11:48:02Z</time>
      </trkpt>
      <trkpt lat="4.496787" lon="-75.004135">
        <ele>627.5696</ele>
        <time>2021-11-14T11:48:03Z</time>
      </trkpt>
      <trkpt lat="4.49706" lon="-75.003967">
        <ele>626.677</ele>
        <time>2021-11-14T11:48:04Z</time>
      </trkpt>
      <trkpt lat="4.497302" lon="-75.003822">
        <ele>626.312</ele>
        <time>2021-11-14T11:48:05Z</time>
      </trkpt>
      <trkpt lat="4.497572" lon="-75.003654">
        <ele>625.9365</ele>
        <time>2021-11-14T11:48:06Z</time>
      </trkpt>
      <trkpt lat="4.497849" lon="-75.003487">
        <ele>625.7578</ele>
        <time>2021-11-14T11:48:07Z</time>
      </trkpt>
      <trkpt lat="4.49811" lon="-75.003326">
        <ele>625.5038</ele>
        <time>2021-11-14T11:48:08Z</time>
      </trkpt>
      <trkpt lat="4.498356" lon="-75.003174">
        <ele>624.9962</ele>
        <time>2021-11-14T11:48:09Z</time>
      </trkpt>
      <trkpt lat="4.498592" lon="-75.003021">
        <ele>625.2811</ele>
        <time>2021-11-14T11:48:10Z</time>
      </trkpt>
      <trkpt lat="4.498803" lon="-75.002892">
        <ele>624.8706</ele>
        <time>2021-11-14T11:48:11Z</time>
      </trkpt>
      <trkpt lat="4.499033" lon="-75.002754">
        <ele>624.80615</ele>
        <time>2021-11-14T11:48:12Z</time>
      </trkpt>
      <trkpt lat="4.499257" lon="-75.002617">
        <ele>625.01514</ele>
        <time>2021-11-14T11:48:13Z</time>
      </trkpt>
      <trkpt lat="4.499469" lon="-75.002487">
        <ele>624.9126</ele>
        <time>2021-11-14T11:48:14Z</time>
      </trkpt>
      <trkpt lat="4.499682" lon="-75.002357">
        <ele>624.84143</ele>
        <time>2021-11-14T11:48:15Z</time>
      </trkpt>
      <trkpt lat="4.499924" lon="-75.002205">
        <ele>624.8667</ele>
        <time>2021-11-14T11:48:16Z</time>
      </trkpt>
      <trkpt lat="4.500121" lon="-75.002083">
        <ele>624.3513</ele>
        <time>2021-11-14T11:48:17Z</time>
      </trkpt>
      <trkpt lat="4.500337" lon="-75.001945">
        <ele>624.313</ele>
        <time>2021-11-14T11:48:18Z</time>
      </trkpt>
      <trkpt lat="4.500557" lon="-75.001808">
        <ele>624.1057</ele>
        <time>2021-11-14T11:48:19Z</time>
      </trkpt>
      <trkpt lat="4.500993" lon="-75.001534">
        <ele>622.80786</ele>
        <time>2021-11-14T11:48:20Z</time>
      </trkpt>
      <trkpt lat="4.501207" lon="-75.001404">
        <ele>622.68274</ele>
        <time>2021-11-14T11:48:21Z</time>
      </trkpt>
      <trkpt lat="4.501407" lon="-75.001274">
        <ele>622.21155</ele>
        <time>2021-11-14T11:48:22Z</time>
      </trkpt>
      <trkpt lat="4.501648" lon="-75.001129">
        <ele>621.5303</ele>
        <time>2021-11-14T11:48:23Z</time>
      </trkpt>
      <trkpt lat="4.501856" lon="-75.000992">
        <ele>620.6703</ele>
        <time>2021-11-14T11:48:24Z</time>
      </trkpt>
      <trkpt lat="4.502038" lon="-75.000885">
        <ele>619.73535</ele>
        <time>2021-11-14T11:48:26Z</time>
      </trkpt>
      <trkpt lat="4.502207" lon="-75.00071">
        <ele>618.8557</ele>
        <time>2021-11-14T11:48:27Z</time>
      </trkpt>
      <trkpt lat="4.502207" lon="-75.00071">
        <ele>617.98804</ele>
        <time>2021-11-14T11:48:28Z</time>
      </trkpt>
      <trkpt lat="4.502398" lon="-75.000504">
        <ele>617.6106</ele>
        <time>2021-11-14T11:48:29Z</time>
      </trkpt>
      <trkpt lat="4.502521" lon="-75.000313">
        <ele>616.6239</ele>
        <time>2021-11-14T11:48:30Z</time>
      </trkpt>
      <trkpt lat="4.502622" lon="-75.000099">
        <ele>616.51416</ele>
        <time>2021-11-14T11:48:31Z</time>
      </trkpt>
      <trkpt lat="4.502699" lon="-74.999893">
        <ele>614.8296</ele>
        <time>2021-11-14T11:48:32Z</time>
      </trkpt>
      <trkpt lat="4.502758" lon="-74.999672">
        <ele>614.26074</ele>
        <time>2021-11-14T11:48:33Z</time>
      </trkpt>
      <trkpt lat="4.502803" lon="-74.999413">
        <ele>614.4219</ele>
        <time>2021-11-14T11:48:34Z</time>
      </trkpt>
      <trkpt lat="4.502848" lon="-74.999168">
        <ele>612.73804</ele>
        <time>2021-11-14T11:48:35Z</time>
      </trkpt>
      <trkpt lat="4.502893" lon="-74.998909">
        <ele>611.6365</ele>
        <time>2021-11-14T11:48:36Z</time>
      </trkpt>
      <trkpt lat="4.502942" lon="-74.998627">
        <ele>610.4813</ele>
        <time>2021-11-14T11:48:37Z</time>
      </trkpt>
      <trkpt lat="4.502991" lon="-74.998352">
        <ele>610.15234</ele>
        <time>2021-11-14T11:48:38Z</time>
      </trkpt>
      <trkpt lat="4.503036" lon="-74.9981">
        <ele>610.30334</ele>
        <time>2021-11-14T11:48:39Z</time>
      </trkpt>
      <trkpt lat="4.50308" lon="-74.997849">
        <ele>610.47534</ele>
        <time>2021-11-14T11:48:40Z</time>
      </trkpt>
      <trkpt lat="4.503127" lon="-74.997581">
        <ele>609.9481</ele>
        <time>2021-11-14T11:48:41Z</time>
      </trkpt>
      <trkpt lat="4.503175" lon="-74.997307">
        <ele>608.8379</ele>
        <time>2021-11-14T11:48:42Z</time>
      </trkpt>
      <trkpt lat="4.503218" lon="-74.99707">
        <ele>608.1011</ele>
        <time>2021-11-14T11:48:43Z</time>
      </trkpt>
      <trkpt lat="4.503258" lon="-74.996841">
        <ele>606.9768</ele>
        <time>2021-11-14T11:48:44Z</time>
      </trkpt>
      <trkpt lat="4.503298" lon="-74.996613">
        <ele>605.5659</ele>
        <time>2021-11-14T11:48:45Z</time>
      </trkpt>
      <trkpt lat="4.503336" lon="-74.996399">
        <ele>604.6183</ele>
        <time>2021-11-14T11:48:46Z</time>
      </trkpt>
      <trkpt lat="4.503397" lon="-74.996201">
        <ele>603.02954</ele>
        <time>2021-11-14T11:48:47Z</time>
      </trkpt>
      <trkpt lat="4.503456" lon="-74.996033">
        <ele>602.09375</ele>
        <time>2021-11-14T11:48:48Z</time>
      </trkpt>
      <trkpt lat="4.503583" lon="-74.995842">
        <ele>601.4055</ele>
        <time>2021-11-14T11:48:49Z</time>
      </trkpt>
      <trkpt lat="4.503733" lon="-74.995674">
        <ele>600.1952</ele>
        <time>2021-11-14T11:48:50Z</time>
      </trkpt>
      <trkpt lat="4.503884" lon="-74.995514">
        <ele>598.8623</ele>
        <time>2021-11-14T11:48:51Z</time>
      </trkpt>
      <trkpt lat="4.504044" lon="-74.995346">
        <ele>597.57324</ele>
        <time>2021-11-14T11:48:52Z</time>
      </trkpt>
      <trkpt lat="4.504202" lon="-74.995178">
        <ele>595.9065</ele>
        <time>2021-11-14T11:48:53Z</time>
      </trkpt>
      <trkpt lat="4.504368" lon="-74.99501">
        <ele>594.8164</ele>
        <time>2021-11-14T11:48:54Z</time>
      </trkpt>
      <trkpt lat="4.504537" lon="-74.994827">
        <ele>593.55457</ele>
        <time>2021-11-14T11:48:55Z</time>
      </trkpt>
      <trkpt lat="4.504702" lon="-74.994659">
        <ele>592.45325</ele>
        <time>2021-11-14T11:48:56Z</time>
      </trkpt>
      <trkpt lat="4.504859" lon="-74.994492">
        <ele>591.5968</ele>
        <time>2021-11-14T11:48:57Z</time>
      </trkpt>
      <trkpt lat="4.504859" lon="-74.994492">
        <ele>589.5259</ele>
        <time>2021-11-14T11:48:58Z</time>
      </trkpt>
      <trkpt lat="4.505042" lon="-74.994301">
        <ele>588.7781</ele>
        <time>2021-11-14T11:48:59Z</time>
      </trkpt>
      <trkpt lat="4.505231" lon="-74.994102">
        <ele>588.38086</ele>
        <time>2021-11-14T11:49:00Z</time>
      </trkpt>
      <trkpt lat="4.505401" lon="-74.993927">
        <ele>588.3364</ele>
        <time>2021-11-14T11:49:01Z</time>
      </trkpt>
      <trkpt lat="4.505586" lon="-74.993736">
        <ele>587.81006</ele>
        <time>2021-11-14T11:49:02Z</time>
      </trkpt>
      <trkpt lat="4.505762" lon="-74.993546">
        <ele>587.4324</ele>
        <time>2021-11-14T11:49:03Z</time>
      </trkpt>
      <trkpt lat="4.50591" lon="-74.993393">
        <ele>586.7274</ele>
        <time>2021-11-14T11:49:04Z</time>
      </trkpt>
      <trkpt lat="4.506048" lon="-74.993248">
        <ele>586.9409</ele>
        <time>2021-11-14T11:49:05Z</time>
      </trkpt>
      <trkpt lat="4.506192" lon="-74.993103">
        <ele>587.0012</ele>
        <time>2021-11-14T11:49:06Z</time>
      </trkpt>
      <trkpt lat="4.506313" lon="-74.992973">
        <ele>586.28564</ele>
        <time>2021-11-14T11:49:07Z</time>
      </trkpt>
      <trkpt lat="4.506454" lon="-74.992828">
        <ele>585.3364</ele>
        <time>2021-11-14T11:49:08Z</time>
      </trkpt>
      <trkpt lat="4.506587" lon="-74.992691">
        <ele>585.56995</ele>
        <time>2021-11-14T11:49:09Z</time>
      </trkpt>
      <trkpt lat="4.506691" lon="-74.992584">
        <ele>585.1865</ele>
        <time>2021-11-14T11:49:10Z</time>
      </trkpt>
      <trkpt lat="4.506808" lon="-74.99247">
        <ele>584.72314</ele>
        <time>2021-11-14T11:49:11Z</time>
      </trkpt>
      <trkpt lat="4.506906" lon="-74.992363">
        <ele>584.66833</ele>
        <time>2021-11-14T11:49:12Z</time>
      </trkpt>
      <trkpt lat="4.507007" lon="-74.992264">
        <ele>583.8052</ele>
        <time>2021-11-14T11:49:14Z</time>
      </trkpt>
      <trkpt lat="4.507184" lon="-74.992081">
        <ele>583.343</ele>
        <time>2021-11-14T11:49:15Z</time>
      </trkpt>
      <trkpt lat="4.507272" lon="-74.991989">
        <ele>583.3876</ele>
        <time>2021-11-14T11:49:16Z</time>
      </trkpt>
      <trkpt lat="4.507339" lon="-74.99192">
        <ele>583.11633</ele>
        <time>2021-11-14T11:49:17Z</time>
      </trkpt>
      <trkpt lat="4.507403" lon="-74.991852">
        <ele>582.7068</ele>
        <time>2021-11-14T11:49:18Z</time>
      </trkpt>
      <trkpt lat="4.50744" lon="-74.991821">
        <ele>582.505</ele>
        <time>2021-11-14T11:49:19Z</time>
      </trkpt>
      <trkpt lat="4.507461" lon="-74.991798">
        <ele>582.6443</ele>
        <time>2021-11-14T11:49:20Z</time>
      </trkpt>
      <trkpt lat="4.507491" lon="-74.991768">
        <ele>581.99365</ele>
        <time>2021-11-14T11:49:21Z</time>
      </trkpt>
      <trkpt lat="4.50754" lon="-74.991714">
        <ele>582.0781</ele>
        <time>2021-11-14T11:49:22Z</time>
      </trkpt>
      <trkpt lat="4.507624" lon="-74.991631">
        <ele>581.9016</ele>
        <time>2021-11-14T11:49:23Z</time>
      </trkpt>
      <trkpt lat="4.507663" lon="-74.991592">
        <ele>582.1089</ele>
        <time>2021-11-14T11:49:24Z</time>
      </trkpt>
      <trkpt lat="4.507724" lon="-74.991524">
        <ele>581.69543</ele>
        <time>2021-11-14T11:49:25Z</time>
      </trkpt>
      <trkpt lat="4.507774" lon="-74.991478">
        <ele>581.39966</ele>
        <time>2021-11-14T11:49:26Z</time>
      </trkpt>
      <trkpt lat="4.507811" lon="-74.99144">
        <ele>581.2102</ele>
        <time>2021-11-14T11:49:27Z</time>
      </trkpt>
      <trkpt lat="4.507852" lon="-74.991394">
        <ele>580.729</ele>
        <time>2021-11-14T11:49:28Z</time>
      </trkpt>
      <trkpt lat="4.507944" lon="-74.991302">
        <ele>581.4729</ele>
        <time>2021-11-14T11:49:29Z</time>
      </trkpt>
      <trkpt lat="4.507944" lon="-74.991302">
        <ele>581.18994</ele>
        <time>2021-11-14T11:49:30Z</time>
      </trkpt>
      <trkpt lat="4.508059" lon="-74.99118">
        <ele>580.63916</ele>
        <time>2021-11-14T11:49:31Z</time>
      </trkpt>
      <trkpt lat="4.508163" lon="-74.991074">
        <ele>580.50195</ele>
        <time>2021-11-14T11:49:32Z</time>
      </trkpt>
      <trkpt lat="4.508279" lon="-74.990952">
        <ele>580.1304</ele>
        <time>2021-11-14T11:49:33Z</time>
      </trkpt>
      <trkpt lat="4.508383" lon="-74.990845">
        <ele>579.7914</ele>
        <time>2021-11-14T11:49:34Z</time>
      </trkpt>
      <trkpt lat="4.508488" lon="-74.99073">
        <ele>579.6328</ele>
        <time>2021-11-14T11:49:35Z</time>
      </trkpt>
      <trkpt lat="4.508598" lon="-74.990616">
        <ele>579.1448</ele>
        <time>2021-11-14T11:49:36Z</time>
      </trkpt>
      <trkpt lat="4.508727" lon="-74.990479">
        <ele>578.7261</ele>
        <time>2021-11-14T11:49:37Z</time>
      </trkpt>
      <trkpt lat="4.508859" lon="-74.990341">
        <ele>577.9258</ele>
        <time>2021-11-14T11:49:38Z</time>
      </trkpt>
      <trkpt lat="4.50898" lon="-74.990219">
        <ele>577.33264</ele>
        <time>2021-11-14T11:49:39Z</time>
      </trkpt>
      <trkpt lat="4.509091" lon="-74.990097">
        <ele>577.1277</ele>
        <time>2021-11-14T11:49:40Z</time>
      </trkpt>
      <trkpt lat="4.50919" lon="-74.989998">
        <ele>577.1677</ele>
        <time>2021-11-14T11:49:41Z</time>
      </trkpt>
      <trkpt lat="4.50929" lon="-74.989891">
        <ele>576.062</ele>
        <time>2021-11-14T11:49:42Z</time>
      </trkpt>
      <trkpt lat="4.509385" lon="-74.989807">
        <ele>575.9651</ele>
        <time>2021-11-14T11:49:43Z</time>
      </trkpt>
      <trkpt lat="4.509488" lon="-74.989716">
        <ele>575.6304</ele>
        <time>2021-11-14T11:49:44Z</time>
      </trkpt>
      <trkpt lat="4.509634" lon="-74.989632">
        <ele>575.60254</ele>
        <time>2021-11-14T11:49:45Z</time>
      </trkpt>
      <trkpt lat="4.509792" lon="-74.989548">
        <ele>575.5642</ele>
        <time>2021-11-14T11:49:46Z</time>
      </trkpt>
      <trkpt lat="4.509959" lon="-74.989456">
        <ele>575.30054</ele>
        <time>2021-11-14T11:49:47Z</time>
      </trkpt>
      <trkpt lat="4.51009" lon="-74.989388">
        <ele>574.80444</ele>
        <time>2021-11-14T11:49:48Z</time>
      </trkpt>
      <trkpt lat="4.510223" lon="-74.989311">
        <ele>574.5951</ele>
        <time>2021-11-14T11:49:49Z</time>
      </trkpt>
      <trkpt lat="4.510368" lon="-74.989235">
        <ele>574.7185</ele>
        <time>2021-11-14T11:49:50Z</time>
      </trkpt>
      <trkpt lat="4.510513" lon="-74.989159">
        <ele>574.8755</ele>
        <time>2021-11-14T11:49:51Z</time>
      </trkpt>
      <trkpt lat="4.510657" lon="-74.989082">
        <ele>574.83765</ele>
        <time>2021-11-14T11:49:52Z</time>
      </trkpt>
      <trkpt lat="4.510797" lon="-74.989006">
        <ele>574.5615</ele>
        <time>2021-11-14T11:49:53Z</time>
      </trkpt>
      <trkpt lat="4.510923" lon="-74.988937">
        <ele>573.87085</ele>
        <time>2021-11-14T11:49:54Z</time>
      </trkpt>
      <trkpt lat="4.511054" lon="-74.988869">
        <ele>573.7639</ele>
        <time>2021-11-14T11:49:55Z</time>
      </trkpt>
      <trkpt lat="4.511151" lon="-74.988823">
        <ele>573.40405</ele>
        <time>2021-11-14T11:49:56Z</time>
      </trkpt>
      <trkpt lat="4.511245" lon="-74.98877">
        <ele>573.5874</ele>
        <time>2021-11-14T11:49:57Z</time>
      </trkpt>
      <trkpt lat="4.511359" lon="-74.988708">
        <ele>573.73</ele>
        <time>2021-11-14T11:49:58Z</time>
      </trkpt>
      <trkpt lat="4.511458" lon="-74.988655">
        <ele>573.4448</ele>
        <time>2021-11-14T11:49:59Z</time>
      </trkpt>
      <trkpt lat="4.511576" lon="-74.988594">
        <ele>572.68994</ele>
        <time>2021-11-14T11:50:00Z</time>
      </trkpt>
      <trkpt lat="4.511697" lon="-74.988525">
        <ele>572.0204</ele>
        <time>2021-11-14T11:50:01Z</time>
      </trkpt>
      <trkpt lat="4.511697" lon="-74.988525">
        <ele>571.61365</ele>
        <time>2021-11-14T11:50:02Z</time>
      </trkpt>
      <trkpt lat="4.511817" lon="-74.988464">
        <ele>571.098</ele>
        <time>2021-11-14T11:50:04Z</time>
      </trkpt>
      <trkpt lat="4.512066" lon="-74.988335">
        <ele>570.2954</ele>
        <time>2021-11-14T11:50:05Z</time>
      </trkpt>
      <trkpt lat="4.512218" lon="-74.988251">
        <ele>569.27405</ele>
        <time>2021-11-14T11:50:06Z</time>
      </trkpt>
      <trkpt lat="4.512371" lon="-74.988167">
        <ele>568.92725</ele>
        <time>2021-11-14T11:50:07Z</time>
      </trkpt>
      <trkpt lat="4.512484" lon="-74.988113">
        <ele>568.3439</ele>
        <time>2021-11-14T11:50:08Z</time>
      </trkpt>
      <trkpt lat="4.512612" lon="-74.988045">
        <ele>566.8008</ele>
        <time>2021-11-14T11:50:09Z</time>
      </trkpt>
      <trkpt lat="4.512763" lon="-74.987961">
        <ele>566.124</ele>
        <time>2021-11-14T11:50:10Z</time>
      </trkpt>
      <trkpt lat="4.5129" lon="-74.987885">
        <ele>565.58276</ele>
        <time>2021-11-14T11:50:11Z</time>
      </trkpt>
      <trkpt lat="4.513044" lon="-74.987808">
        <ele>563.38477</ele>
        <time>2021-11-14T11:50:12Z</time>
      </trkpt>
      <trkpt lat="4.513204" lon="-74.987724">
        <ele>561.9475</ele>
        <time>2021-11-14T11:50:13Z</time>
      </trkpt>
      <trkpt lat="4.513355" lon="-74.987648">
        <ele>559.4487</ele>
        <time>2021-11-14T11:50:14Z</time>
      </trkpt>
      <trkpt lat="4.513503" lon="-74.987564">
        <ele>559.1304</ele>
        <time>2021-11-14T11:50:15Z</time>
      </trkpt>
      <trkpt lat="4.513641" lon="-74.987495">
        <ele>557.3767</ele>
        <time>2021-11-14T11:50:16Z</time>
      </trkpt>
      <trkpt lat="4.5138" lon="-74.987411">
        <ele>556.39087</ele>
        <time>2021-11-14T11:50:17Z</time>
      </trkpt>
      <trkpt lat="4.513964" lon="-74.98732">
        <ele>555.20557</ele>
        <time>2021-11-14T11:50:18Z</time>
      </trkpt>
      <trkpt lat="4.51429" lon="-74.987144">
        <ele>552.77344</ele>
        <time>2021-11-14T11:50:20Z</time>
      </trkpt>
      <trkpt lat="4.514442" lon="-74.987068">
        <ele>551.14185</ele>
        <time>2021-11-14T11:50:21Z</time>
      </trkpt>
      <trkpt lat="4.514569" lon="-74.987">
        <ele>550.4551</ele>
        <time>2021-11-14T11:50:22Z</time>
      </trkpt>
      <trkpt lat="4.514744" lon="-74.986908">
        <ele>549.5082</ele>
        <time>2021-11-14T11:50:23Z</time>
      </trkpt>
      <trkpt lat="4.514909" lon="-74.986816">
        <ele>548.49146</ele>
        <time>2021-11-14T11:50:24Z</time>
      </trkpt>
      <trkpt lat="4.515069" lon="-74.986732">
        <ele>547.09644</ele>
        <time>2021-11-14T11:50:25Z</time>
      </trkpt>
      <trkpt lat="4.515069" lon="-74.986732">
        <ele>546.4165</ele>
        <time>2021-11-14T11:50:26Z</time>
      </trkpt>
      <trkpt lat="4.515236" lon="-74.986641">
        <ele>545.08374</ele>
        <time>2021-11-14T11:50:27Z</time>
      </trkpt>
      <trkpt lat="4.515402" lon="-74.986557">
        <ele>544.0491</ele>
        <time>2021-11-14T11:50:28Z</time>
      </trkpt>
      <trkpt lat="4.515568" lon="-74.986465">
        <ele>543.1714</ele>
        <time>2021-11-14T11:50:29Z</time>
      </trkpt>
      <trkpt lat="4.515744" lon="-74.986374">
        <ele>541.5276</ele>
        <time>2021-11-14T11:50:30Z</time>
      </trkpt>
      <trkpt lat="4.515896" lon="-74.98629">
        <ele>540.5576</ele>
        <time>2021-11-14T11:50:31Z</time>
      </trkpt>
      <trkpt lat="4.516047" lon="-74.986198">
        <ele>539.1343</ele>
        <time>2021-11-14T11:50:32Z</time>
      </trkpt>
      <trkpt lat="4.516212" lon="-74.986099">
        <ele>537.86865</ele>
        <time>2021-11-14T11:50:33Z</time>
      </trkpt>
      <trkpt lat="4.51636" lon="-74.985985">
        <ele>536.91895</ele>
        <time>2021-11-14T11:50:34Z</time>
      </trkpt>
      <trkpt lat="4.516501" lon="-74.985863">
        <ele>535.433</ele>
        <time>2021-11-14T11:50:35Z</time>
      </trkpt>
      <trkpt lat="4.516632" lon="-74.985733">
        <ele>534.56274</ele>
        <time>2021-11-14T11:50:36Z</time>
      </trkpt>
      <trkpt lat="4.516767" lon="-74.985588">
        <ele>534.1067</ele>
        <time>2021-11-14T11:50:37Z</time>
      </trkpt>
      <trkpt lat="4.51689" lon="-74.985451">
        <ele>533.63257</ele>
        <time>2021-11-14T11:50:38Z</time>
      </trkpt>
      <trkpt lat="4.517058" lon="-74.98526">
        <ele>532.4977</ele>
        <time>2021-11-14T11:50:39Z</time>
      </trkpt>
      <trkpt lat="4.517248" lon="-74.985046">
        <ele>531.4426</ele>
        <time>2021-11-14T11:50:40Z</time>
      </trkpt>
      <trkpt lat="4.517436" lon="-74.984825">
        <ele>531.2532</ele>
        <time>2021-11-14T11:50:41Z</time>
      </trkpt>
      <trkpt lat="4.517655" lon="-74.984566">
        <ele>531.38306</ele>
        <time>2021-11-14T11:50:42Z</time>
      </trkpt>
      <trkpt lat="4.517855" lon="-74.984329">
        <ele>531.0239</ele>
        <time>2021-11-14T11:50:43Z</time>
      </trkpt>
      <trkpt lat="4.518022" lon="-74.984131">
        <ele>531.1996</ele>
        <time>2021-11-14T11:50:44Z</time>
      </trkpt>
      <trkpt lat="4.518168" lon="-74.983955">
        <ele>531.3203</ele>
        <time>2021-11-14T11:50:45Z</time>
      </trkpt>
      <trkpt lat="4.518309" lon="-74.98378">
        <ele>531.2805</ele>
        <time>2021-11-14T11:50:46Z</time>
      </trkpt>
      <trkpt lat="4.518457" lon="-74.983589">
        <ele>531.4607</ele>
        <time>2021-11-14T11:50:47Z</time>
      </trkpt>
      <trkpt lat="4.51857" lon="-74.983444">
        <ele>532.1002</ele>
        <time>2021-11-14T11:50:48Z</time>
      </trkpt>
      <trkpt lat="4.518706" lon="-74.983261">
        <ele>532.18896</ele>
        <time>2021-11-14T11:50:49Z</time>
      </trkpt>
      <trkpt lat="4.518824" lon="-74.983101">
        <ele>532.124</ele>
        <time>2021-11-14T11:50:50Z</time>
      </trkpt>
      <trkpt lat="4.518922" lon="-74.982964">
        <ele>532.93774</ele>
        <time>2021-11-14T11:50:51Z</time>
      </trkpt>
      <trkpt lat="4.519063" lon="-74.982773">
        <ele>533.0211</ele>
        <time>2021-11-14T11:50:52Z</time>
      </trkpt>
      <trkpt lat="4.519197" lon="-74.98259">
        <ele>532.3462</ele>
        <time>2021-11-14T11:50:53Z</time>
      </trkpt>
      <trkpt lat="4.519302" lon="-74.982452">
        <ele>532.6538</ele>
        <time>2021-11-14T11:50:54Z</time>
      </trkpt>
      <trkpt lat="4.519405" lon="-74.982307">
        <ele>532.5154</ele>
        <time>2021-11-14T11:50:55Z</time>
      </trkpt>
      <trkpt lat="4.519405" lon="-74.982307">
        <ele>533.5039</ele>
        <time>2021-11-14T11:50:56Z</time>
      </trkpt>
      <trkpt lat="4.51952" lon="-74.982155">
        <ele>534.2864</ele>
        <time>2021-11-14T11:50:57Z</time>
      </trkpt>
      <trkpt lat="4.51964" lon="-74.982002">
        <ele>533.8878</ele>
        <time>2021-11-14T11:50:58Z</time>
      </trkpt>
      <trkpt lat="4.51975" lon="-74.981857">
        <ele>534.00354</ele>
        <time>2021-11-14T11:51:00Z</time>
      </trkpt>
      <trkpt lat="4.520031" lon="-74.981552">
        <ele>532.46313</ele>
        <time>2021-11-14T11:51:01Z</time>
      </trkpt>
      <trkpt lat="4.520168" lon="-74.98143">
        <ele>534.12134</ele>
        <time>2021-11-14T11:51:02Z</time>
      </trkpt>
      <trkpt lat="4.520298" lon="-74.981323">
        <ele>532.9761</ele>
        <time>2021-11-14T11:51:03Z</time>
      </trkpt>
      <trkpt lat="4.52044" lon="-74.981209">
        <ele>534.9873</ele>
        <time>2021-11-14T11:51:04Z</time>
      </trkpt>
      <trkpt lat="4.520567" lon="-74.981102">
        <ele>535.5199</ele>
        <time>2021-11-14T11:51:05Z</time>
      </trkpt>
      <trkpt lat="4.520707" lon="-74.980988">
        <ele>535.38965</ele>
        <time>2021-11-14T11:51:06Z</time>
      </trkpt>
      <trkpt lat="4.520842" lon="-74.980865">
        <ele>535.30493</ele>
        <time>2021-11-14T11:51:07Z</time>
      </trkpt>
      <trkpt lat="4.520959" lon="-74.980766">
        <ele>536.0593</ele>
        <time>2021-11-14T11:51:08Z</time>
      </trkpt>
      <trkpt lat="4.521094" lon="-74.980644">
        <ele>535.9536</ele>
        <time>2021-11-14T11:51:09Z</time>
      </trkpt>
      <trkpt lat="4.521234" lon="-74.98053">
        <ele>536.521</ele>
        <time>2021-11-14T11:51:10Z</time>
      </trkpt>
      <trkpt lat="4.521342" lon="-74.980438">
        <ele>536.2772</ele>
        <time>2021-11-14T11:51:11Z</time>
      </trkpt>
      <trkpt lat="4.521441" lon="-74.980354">
        <ele>535.9563</ele>
        <time>2021-11-14T11:51:12Z</time>
      </trkpt>
      <trkpt lat="4.521575" lon="-74.98024">
        <ele>537.04663</ele>
        <time>2021-11-14T11:51:13Z</time>
      </trkpt>
      <trkpt lat="4.521729" lon="-74.98011">
        <ele>537.29126</ele>
        <time>2021-11-14T11:51:14Z</time>
      </trkpt>
      <trkpt lat="4.521849" lon="-74.980011">
        <ele>537.68604</ele>
        <time>2021-11-14T11:51:15Z</time>
      </trkpt>
      <trkpt lat="4.521983" lon="-74.979897">
        <ele>538.04517</ele>
        <time>2021-11-14T11:51:16Z</time>
      </trkpt>
      <trkpt lat="4.522132" lon="-74.979774">
        <ele>539.21545</ele>
        <time>2021-11-14T11:51:17Z</time>
      </trkpt>
      <trkpt lat="4.522253" lon="-74.979675">
        <ele>539.6199</ele>
        <time>2021-11-14T11:51:18Z</time>
      </trkpt>
      <trkpt lat="4.522373" lon="-74.979568">
        <ele>539.38086</ele>
        <time>2021-11-14T11:51:19Z</time>
      </trkpt>
      <trkpt lat="4.522492" lon="-74.979469">
        <ele>539.8496</ele>
        <time>2021-11-14T11:51:20Z</time>
      </trkpt>
      <trkpt lat="4.522492" lon="-74.979469">
        <ele>540.1438</ele>
        <time>2021-11-14T11:51:21Z</time>
      </trkpt>
      <trkpt lat="4.522618" lon="-74.979362">
        <ele>540.00085</ele>
        <time>2021-11-14T11:51:22Z</time>
      </trkpt>
      <trkpt lat="4.522741" lon="-74.979256">
        <ele>540.4872</ele>
        <time>2021-11-14T11:51:24Z</time>
      </trkpt>
      <trkpt lat="4.522855" lon="-74.979156">
        <ele>540.63477</ele>
        <time>2021-11-14T11:51:25Z</time>
      </trkpt>
      <trkpt lat="4.522976" lon="-74.97905">
        <ele>540.7969</ele>
        <time>2021-11-14T11:51:26Z</time>
      </trkpt>
      <trkpt lat="4.523094" lon="-74.978951">
        <ele>541.49194</ele>
        <time>2021-11-14T11:51:27Z</time>
      </trkpt>
      <trkpt lat="4.523229" lon="-74.978836">
        <ele>541.5664</ele>
        <time>2021-11-14T11:51:28Z</time>
      </trkpt>
      <trkpt lat="4.523351" lon="-74.978729">
        <ele>541.3225</ele>
        <time>2021-11-14T11:51:29Z</time>
      </trkpt>
      <trkpt lat="4.523466" lon="-74.97863">
        <ele>541.26514</ele>
        <time>2021-11-14T11:51:30Z</time>
      </trkpt>
      <trkpt lat="4.523609" lon="-74.978508">
        <ele>540.64185</ele>
        <time>2021-11-14T11:51:31Z</time>
      </trkpt>
      <trkpt lat="4.523726" lon="-74.978409">
        <ele>540.21313</ele>
        <time>2021-11-14T11:51:32Z</time>
      </trkpt>
      <trkpt lat="4.523986" lon="-74.97818">
        <ele>539.19434</ele>
        <time>2021-11-14T11:51:33Z</time>
      </trkpt>
      <trkpt lat="4.524117" lon="-74.978065">
        <ele>539.197</ele>
        <time>2021-11-14T11:51:34Z</time>
      </trkpt>
      <trkpt lat="4.524227" lon="-74.977974">
        <ele>538.98755</ele>
        <time>2021-11-14T11:51:35Z</time>
      </trkpt>
      <trkpt lat="4.524343" lon="-74.977875">
        <ele>539.6758</ele>
        <time>2021-11-14T11:51:36Z</time>
      </trkpt>
      <trkpt lat="4.524467" lon="-74.977768">
        <ele>538.9652</ele>
        <time>2021-11-14T11:51:37Z</time>
      </trkpt>
      <trkpt lat="4.524607" lon="-74.977654">
        <ele>538.6355</ele>
        <time>2021-11-14T11:51:38Z</time>
      </trkpt>
      <trkpt lat="4.524738" lon="-74.977539">
        <ele>538.0176</ele>
        <time>2021-11-14T11:51:39Z</time>
      </trkpt>
      <trkpt lat="4.524865" lon="-74.977432">
        <ele>537.67786</ele>
        <time>2021-11-14T11:51:40Z</time>
      </trkpt>
      <trkpt lat="4.524999" lon="-74.977318">
        <ele>537.27844</ele>
        <time>2021-11-14T11:51:41Z</time>
      </trkpt>
      <trkpt lat="4.525122" lon="-74.977219">
        <ele>536.79517</ele>
        <time>2021-11-14T11:51:42Z</time>
      </trkpt>
      <trkpt lat="4.52525" lon="-74.977112">
        <ele>536.7427</ele>
        <time>2021-11-14T11:51:43Z</time>
      </trkpt>
      <trkpt lat="4.52525" lon="-74.977112">
        <ele>536.38916</ele>
        <time>2021-11-14T11:51:44Z</time>
      </trkpt>
      <trkpt lat="4.525388" lon="-74.977005">
        <ele>536.20435</ele>
        <time>2021-11-14T11:51:45Z</time>
      </trkpt>
      <trkpt lat="4.525525" lon="-74.976891">
        <ele>535.9048</ele>
        <time>2021-11-14T11:51:46Z</time>
      </trkpt>
      <trkpt lat="4.525642" lon="-74.976799">
        <ele>535.6228</ele>
        <time>2021-11-14T11:51:47Z</time>
      </trkpt>
      <trkpt lat="4.525759" lon="-74.9767">
        <ele>535.33325</ele>
        <time>2021-11-14T11:51:49Z</time>
      </trkpt>
      <trkpt lat="4.525907" lon="-74.976593">
        <ele>534.8833</ele>
        <time>2021-11-14T11:51:50Z</time>
      </trkpt>
      <trkpt lat="4.526054" lon="-74.976494">
        <ele>535.0166</ele>
        <time>2021-11-14T11:51:51Z</time>
      </trkpt>
      <trkpt lat="4.526187" lon="-74.976402">
        <ele>534.8179</ele>
        <time>2021-11-14T11:51:52Z</time>
      </trkpt>
      <trkpt lat="4.526496" lon="-74.976212">
        <ele>534.38916</ele>
        <time>2021-11-14T11:51:53Z</time>
      </trkpt>
      <trkpt lat="4.526617" lon="-74.976135">
        <ele>533.7168</ele>
        <time>2021-11-14T11:51:54Z</time>
      </trkpt>
      <trkpt lat="4.526782" lon="-74.976036">
        <ele>533.4651</ele>
        <time>2021-11-14T11:51:55Z</time>
      </trkpt>
      <trkpt lat="4.526926" lon="-74.975952">
        <ele>533.1809</ele>
        <time>2021-11-14T11:51:56Z</time>
      </trkpt>
      <trkpt lat="4.527052" lon="-74.975883">
        <ele>532.93286</ele>
        <time>2021-11-14T11:51:57Z</time>
      </trkpt>
      <trkpt lat="4.527178" lon="-74.975822">
        <ele>532.4563</ele>
        <time>2021-11-14T11:51:58Z</time>
      </trkpt>
      <trkpt lat="4.527348" lon="-74.975731">
        <ele>531.94836</ele>
        <time>2021-11-14T11:51:59Z</time>
      </trkpt>
      <trkpt lat="4.527538" lon="-74.975639">
        <ele>531.17944</ele>
        <time>2021-11-14T11:52:00Z</time>
      </trkpt>
      <trkpt lat="4.527678" lon="-74.975563">
        <ele>530.81665</ele>
        <time>2021-11-14T11:52:01Z</time>
      </trkpt>
      <trkpt lat="4.52787" lon="-74.975471">
        <ele>530.32983</ele>
        <time>2021-11-14T11:52:02Z</time>
      </trkpt>
      <trkpt lat="4.528049" lon="-74.97538">
        <ele>529.58276</ele>
        <time>2021-11-14T11:52:03Z</time>
      </trkpt>
      <trkpt lat="4.528191" lon="-74.975304">
        <ele>529.48376</ele>
        <time>2021-11-14T11:52:04Z</time>
      </trkpt>
      <trkpt lat="4.528349" lon="-74.975227">
        <ele>528.9929</ele>
        <time>2021-11-14T11:52:05Z</time>
      </trkpt>
      <trkpt lat="4.528496" lon="-74.975151">
        <ele>528.5217</ele>
        <time>2021-11-14T11:52:06Z</time>
      </trkpt>
      <trkpt lat="4.528671" lon="-74.97506">
        <ele>527.897</ele>
        <time>2021-11-14T11:52:07Z</time>
      </trkpt>
      <trkpt lat="4.528841" lon="-74.974976">
        <ele>527.54004</ele>
        <time>2021-11-14T11:52:08Z</time>
      </trkpt>
      <trkpt lat="4.528841" lon="-74.974976">
        <ele>527.0032</ele>
        <time>2021-11-14T11:52:09Z</time>
      </trkpt>
      <trkpt lat="4.52899" lon="-74.974899">
        <ele>526.75305</ele>
        <time>2021-11-14T11:52:10Z</time>
      </trkpt>
      <trkpt lat="4.529156" lon="-74.974815">
        <ele>526.0072</ele>
        <time>2021-11-14T11:52:11Z</time>
      </trkpt>
      <trkpt lat="4.529326" lon="-74.974724">
        <ele>526.1952</ele>
        <time>2021-11-14T11:52:12Z</time>
      </trkpt>
      <trkpt lat="4.529493" lon="-74.97464">
        <ele>526.00586</ele>
        <time>2021-11-14T11:52:13Z</time>
      </trkpt>
      <trkpt lat="4.529659" lon="-74.974556">
        <ele>525.5593</ele>
        <time>2021-11-14T11:52:14Z</time>
      </trkpt>
      <trkpt lat="4.529848" lon="-74.974457">
        <ele>525.386</ele>
        <time>2021-11-14T11:52:15Z</time>
      </trkpt>
      <trkpt lat="4.529999" lon="-74.97438">
        <ele>525.1824</ele>
        <time>2021-11-14T11:52:16Z</time>
      </trkpt>
      <trkpt lat="4.530157" lon="-74.974304">
        <ele>525.1852</ele>
        <time>2021-11-14T11:52:17Z</time>
      </trkpt>
      <trkpt lat="4.530339" lon="-74.974213">
        <ele>524.9009</ele>
        <time>2021-11-14T11:52:18Z</time>
      </trkpt>
      <trkpt lat="4.530509" lon="-74.974121">
        <ele>525.1133</ele>
        <time>2021-11-14T11:52:19Z</time>
      </trkpt>
      <trkpt lat="4.530642" lon="-74.974052">
        <ele>524.54004</ele>
        <time>2021-11-14T11:52:20Z</time>
      </trkpt>
      <trkpt lat="4.530771" lon="-74.973991">
        <ele>525.0117</ele>
        <time>2021-11-14T11:52:21Z</time>
      </trkpt>
      <trkpt lat="4.530922" lon="-74.973915">
        <ele>524.80664</ele>
        <time>2021-11-14T11:52:22Z</time>
      </trkpt>
      <trkpt lat="4.531095" lon="-74.973824">
        <ele>524.3794</ele>
        <time>2021-11-14T11:52:23Z</time>
      </trkpt>
      <trkpt lat="4.531243" lon="-74.973747">
        <ele>524.2285</ele>
        <time>2021-11-14T11:52:24Z</time>
      </trkpt>
      <trkpt lat="4.531418" lon="-74.973663">
        <ele>522.90393</ele>
        <time>2021-11-14T11:52:25Z</time>
      </trkpt>
      <trkpt lat="4.531577" lon="-74.973579">
        <ele>522.8002</ele>
        <time>2021-11-14T11:52:26Z</time>
      </trkpt>
      <trkpt lat="4.531738" lon="-74.973495">
        <ele>523.01514</ele>
        <time>2021-11-14T11:52:27Z</time>
      </trkpt>
      <trkpt lat="4.531886" lon="-74.973419">
        <ele>522.2527</ele>
        <time>2021-11-14T11:52:28Z</time>
      </trkpt>
      <trkpt lat="4.532052" lon="-74.973335">
        <ele>521.5184</ele>
        <time>2021-11-14T11:52:29Z</time>
      </trkpt>
      <trkpt lat="4.532222" lon="-74.973251">
        <ele>520.998</ele>
        <time>2021-11-14T11:52:30Z</time>
      </trkpt>
      <trkpt lat="4.532381" lon="-74.973167">
        <ele>520.76807</ele>
        <time>2021-11-14T11:52:31Z</time>
      </trkpt>
      <trkpt lat="4.53254" lon="-74.973076">
        <ele>520.2205</ele>
        <time>2021-11-14T11:52:32Z</time>
      </trkpt>
      <trkpt lat="4.532684" lon="-74.973">
        <ele>519.86127</ele>
        <time>2021-11-14T11:52:34Z</time>
      </trkpt>
      <trkpt lat="4.532853" lon="-74.9729">
        <ele>518.7979</ele>
        <time>2021-11-14T11:52:35Z</time>
      </trkpt>
      <trkpt lat="4.532853" lon="-74.9729">
        <ele>518.5691</ele>
        <time>2021-11-14T11:52:36Z</time>
      </trkpt>
      <trkpt lat="4.53303" lon="-74.972801">
        <ele>518.0385</ele>
        <time>2021-11-14T11:52:37Z</time>
      </trkpt>
      <trkpt lat="4.533192" lon="-74.97271">
        <ele>517.35864</ele>
        <time>2021-11-14T11:52:38Z</time>
      </trkpt>
      <trkpt lat="4.533355" lon="-74.97261">
        <ele>517.183</ele>
        <time>2021-11-14T11:52:39Z</time>
      </trkpt>
      <trkpt lat="4.533502" lon="-74.972534">
        <ele>517.446</ele>
        <time>2021-11-14T11:52:40Z</time>
      </trkpt>
      <trkpt lat="4.533676" lon="-74.972435">
        <ele>516.8649</ele>
        <time>2021-11-14T11:52:41Z</time>
      </trkpt>
      <trkpt lat="4.533833" lon="-74.972343">
        <ele>517.3614</ele>
        <time>2021-11-14T11:52:42Z</time>
      </trkpt>
      <trkpt lat="4.534122" lon="-74.97213">
        <ele>517.3084</ele>
        <time>2021-11-14T11:52:43Z</time>
      </trkpt>
      <trkpt lat="4.534262" lon="-74.972015">
        <ele>517.5394</ele>
        <time>2021-11-14T11:52:44Z</time>
      </trkpt>
      <trkpt lat="4.534396" lon="-74.971901">
        <ele>517.6179</ele>
        <time>2021-11-14T11:52:45Z</time>
      </trkpt>
      <trkpt lat="4.534528" lon="-74.971786">
        <ele>517.5724</ele>
        <time>2021-11-14T11:52:46Z</time>
      </trkpt>
      <trkpt lat="4.534644" lon="-74.971687">
        <ele>517.362</ele>
        <time>2021-11-14T11:52:47Z</time>
      </trkpt>
      <trkpt lat="4.534752" lon="-74.971596">
        <ele>517.4421</ele>
        <time>2021-11-14T11:52:48Z</time>
      </trkpt>
      <trkpt lat="4.534859" lon="-74.971504">
        <ele>517.1608</ele>
        <time>2021-11-14T11:52:49Z</time>
      </trkpt>
      <trkpt lat="4.534997" lon="-74.97139">
        <ele>517.23315</ele>
        <time>2021-11-14T11:52:50Z</time>
      </trkpt>
      <trkpt lat="4.535162" lon="-74.971245">
        <ele>517.04</ele>
        <time>2021-11-14T11:52:51Z</time>
      </trkpt>
      <trkpt lat="4.535307" lon="-74.971123">
        <ele>516.4739</ele>
        <time>2021-11-14T11:52:52Z</time>
      </trkpt>
      <trkpt lat="4.535479" lon="-74.970978">
        <ele>516.29095</ele>
        <time>2021-11-14T11:52:53Z</time>
      </trkpt>
      <trkpt lat="4.535691" lon="-74.970795">
        <ele>515.7357</ele>
        <time>2021-11-14T11:52:54Z</time>
      </trkpt>
      <trkpt lat="4.535931" lon="-74.970596">
        <ele>515.3431</ele>
        <time>2021-11-14T11:52:55Z</time>
      </trkpt>
      <trkpt lat="4.536166" lon="-74.97039">
        <ele>513.91376</ele>
        <time>2021-11-14T11:52:56Z</time>
      </trkpt>
      <trkpt lat="4.536372" lon="-74.970222">
        <ele>512.5067</ele>
        <time>2021-11-14T11:52:57Z</time>
      </trkpt>
      <trkpt lat="4.536639" lon="-74.969994">
        <ele>511.79962</ele>
        <time>2021-11-14T11:52:58Z</time>
      </trkpt>
      <trkpt lat="4.536924" lon="-74.969749">
        <ele>511.1139</ele>
        <time>2021-11-14T11:52:59Z</time>
      </trkpt>
      <trkpt lat="4.537223" lon="-74.969498">
        <ele>510.55786</ele>
        <time>2021-11-14T11:53:00Z</time>
      </trkpt>
      <trkpt lat="4.537502" lon="-74.969261">
        <ele>509.05756</ele>
        <time>2021-11-14T11:53:01Z</time>
      </trkpt>
      <trkpt lat="4.537801" lon="-74.969002">
        <ele>508.26758</ele>
        <time>2021-11-14T11:53:02Z</time>
      </trkpt>
      <trkpt lat="4.538111" lon="-74.968742">
        <ele>507.95105</ele>
        <time>2021-11-14T11:53:03Z</time>
      </trkpt>
      <trkpt lat="4.538111" lon="-74.968742">
        <ele>507.05188</ele>
        <time>2021-11-14T11:53:04Z</time>
      </trkpt>
      <trkpt lat="4.538428" lon="-74.968475">
        <ele>506.56372</ele>
        <time>2021-11-14T11:53:05Z</time>
      </trkpt>
      <trkpt lat="4.53872" lon="-74.968224">
        <ele>506.12036</ele>
        <time>2021-11-14T11:53:06Z</time>
      </trkpt>
      <trkpt lat="4.539037" lon="-74.967957">
        <ele>505.2173</ele>
        <time>2021-11-14T11:53:07Z</time>
      </trkpt>
      <trkpt lat="4.539326" lon="-74.967712">
        <ele>504.37976</ele>
        <time>2021-11-14T11:53:08Z</time>
      </trkpt>
      <trkpt lat="4.539616" lon="-74.967461">
        <ele>504.07355</ele>
        <time>2021-11-14T11:53:09Z</time>
      </trkpt>
      <trkpt lat="4.539903" lon="-74.967216">
        <ele>503.3202</ele>
        <time>2021-11-14T11:53:10Z</time>
      </trkpt>
      <trkpt lat="4.540176" lon="-74.966988">
        <ele>502.7586</ele>
        <time>2021-11-14T11:53:11Z</time>
      </trkpt>
      <trkpt lat="4.540453" lon="-74.966751">
        <ele>502.72626</ele>
        <time>2021-11-14T11:53:12Z</time>
      </trkpt>
      <trkpt lat="4.540744" lon="-74.966507">
        <ele>501.31433</ele>
        <time>2021-11-14T11:53:13Z</time>
      </trkpt>
      <trkpt lat="4.541017" lon="-74.96627">
        <ele>500.27075</ele>
        <time>2021-11-14T11:53:14Z</time>
      </trkpt>
      <trkpt lat="4.541319" lon="-74.966019">
        <ele>499.4944</ele>
        <time>2021-11-14T11:53:15Z</time>
      </trkpt>
      <trkpt lat="4.541604" lon="-74.965775">
        <ele>498.3368</ele>
        <time>2021-11-14T11:53:16Z</time>
      </trkpt>
      <trkpt lat="4.541888" lon="-74.96553">
        <ele>497.6908</ele>
        <time>2021-11-14T11:53:17Z</time>
      </trkpt>
      <trkpt lat="4.542177" lon="-74.965286">
        <ele>496.7304</ele>
        <time>2021-11-14T11:53:18Z</time>
      </trkpt>
      <trkpt lat="4.542426" lon="-74.965073">
        <ele>495.86188</ele>
        <time>2021-11-14T11:53:19Z</time>
      </trkpt>
      <trkpt lat="4.542684" lon="-74.964859">
        <ele>494.10638</ele>
        <time>2021-11-14T11:53:20Z</time>
      </trkpt>
      <trkpt lat="4.542929" lon="-74.964645">
        <ele>493.47852</ele>
        <time>2021-11-14T11:53:21Z</time>
      </trkpt>
      <trkpt lat="4.543184" lon="-74.964432">
        <ele>492.8551</ele>
        <time>2021-11-14T11:53:22Z</time>
      </trkpt>
      <trkpt lat="4.543451" lon="-74.964203">
        <ele>491.98657</ele>
        <time>2021-11-14T11:53:23Z</time>
      </trkpt>
      <trkpt lat="4.543687" lon="-74.964005">
        <ele>491.31427</ele>
        <time>2021-11-14T11:53:24Z</time>
      </trkpt>
      <trkpt lat="4.54397" lon="-74.963791">
        <ele>490.72375</ele>
        <time>2021-11-14T11:53:25Z</time>
      </trkpt>
      <trkpt lat="4.544273" lon="-74.9636">
        <ele>490.1037</ele>
        <time>2021-11-14T11:53:26Z</time>
      </trkpt>
      <trkpt lat="4.544579" lon="-74.963409">
        <ele>489.4157</ele>
        <time>2021-11-14T11:53:27Z</time>
      </trkpt>
      <trkpt lat="4.544886" lon="-74.963219">
        <ele>488.77344</ele>
        <time>2021-11-14T11:53:28Z</time>
      </trkpt>
      <trkpt lat="4.545177" lon="-74.963043">
        <ele>487.97253</ele>
        <time>2021-11-14T11:53:29Z</time>
      </trkpt>
      <trkpt lat="4.545472" lon="-74.962883">
        <ele>487.16565</ele>
        <time>2021-11-14T11:53:30Z</time>
      </trkpt>
      <trkpt lat="4.545472" lon="-74.962883">
        <ele>486.68774</ele>
        <time>2021-11-14T11:53:31Z</time>
      </trkpt>
      <trkpt lat="4.545787" lon="-74.962715">
        <ele>486.00842</ele>
        <time>2021-11-14T11:53:32Z</time>
      </trkpt>
      <trkpt lat="4.546111" lon="-74.96254">
        <ele>485.21558</ele>
        <time>2021-11-14T11:53:33Z</time>
      </trkpt>
      <trkpt lat="4.54641" lon="-74.962372">
        <ele>484.2448</ele>
        <time>2021-11-14T11:53:34Z</time>
      </trkpt>
      <trkpt lat="4.546737" lon="-74.962196">
        <ele>483.5819</ele>
        <time>2021-11-14T11:53:35Z</time>
      </trkpt>
      <trkpt lat="4.547076" lon="-74.962013">
        <ele>482.7514</ele>
        <time>2021-11-14T11:53:36Z</time>
      </trkpt>
      <trkpt lat="4.547413" lon="-74.96183">
        <ele>482.01562</ele>
        <time>2021-11-14T11:53:37Z</time>
      </trkpt>
      <trkpt lat="4.547761" lon="-74.961639">
        <ele>481.46936</ele>
        <time>2021-11-14T11:53:38Z</time>
      </trkpt>
      <trkpt lat="4.548091" lon="-74.961456">
        <ele>480.8667</ele>
        <time>2021-11-14T11:53:39Z</time>
      </trkpt>
      <trkpt lat="4.548382" lon="-74.961296">
        <ele>480.14996</ele>
        <time>2021-11-14T11:53:40Z</time>
      </trkpt>
      <trkpt lat="4.548677" lon="-74.961136">
        <ele>479.203</ele>
        <time>2021-11-14T11:53:42Z</time>
      </trkpt>
      <trkpt lat="4.548911" lon="-74.961006">
        <ele>478.5504</ele>
        <time>2021-11-14T11:53:43Z</time>
      </trkpt>
      <trkpt lat="4.54921" lon="-74.960846">
        <ele>477.9369</ele>
        <time>2021-11-14T11:53:44Z</time>
      </trkpt>
      <trkpt lat="4.549526" lon="-74.960678">
        <ele>477.33215</ele>
        <time>2021-11-14T11:53:45Z</time>
      </trkpt>
      <trkpt lat="4.549804" lon="-74.960533">
        <ele>476.63318</ele>
        <time>2021-11-14T11:53:46Z</time>
      </trkpt>
      <trkpt lat="4.550079" lon="-74.960388">
        <ele>475.53394</ele>
        <time>2021-11-14T11:53:47Z</time>
      </trkpt>
      <trkpt lat="4.55039" lon="-74.96022">
        <ele>474.9453</ele>
        <time>2021-11-14T11:53:48Z</time>
      </trkpt>
      <trkpt lat="4.550657" lon="-74.960083">
        <ele>474.25378</ele>
        <time>2021-11-14T11:53:49Z</time>
      </trkpt>
      <trkpt lat="4.550896" lon="-74.959953">
        <ele>473.80115</ele>
        <time>2021-11-14T11:53:50Z</time>
      </trkpt>
      <trkpt lat="4.551174" lon="-74.959808">
        <ele>473.1217</ele>
        <time>2021-11-14T11:53:51Z</time>
      </trkpt>
      <trkpt lat="4.551418" lon="-74.959679">
        <ele>472.5246</ele>
        <time>2021-11-14T11:53:52Z</time>
      </trkpt>
      <trkpt lat="4.551641" lon="-74.959564">
        <ele>472.05914</ele>
        <time>2021-11-14T11:53:53Z</time>
      </trkpt>
      <trkpt lat="4.551871" lon="-74.959473">
        <ele>471.1416</ele>
        <time>2021-11-14T11:53:54Z</time>
      </trkpt>
      <trkpt lat="4.552261" lon="-74.95932">
        <ele>470.23328</ele>
        <time>2021-11-14T11:53:55Z</time>
      </trkpt>
      <trkpt lat="4.552448" lon="-74.959251">
        <ele>469.78418</ele>
        <time>2021-11-14T11:53:56Z</time>
      </trkpt>
      <trkpt lat="4.552448" lon="-74.959251">
        <ele>469.7661</ele>
        <time>2021-11-14T11:53:57Z</time>
      </trkpt>
      <trkpt lat="4.552632" lon="-74.959183">
        <ele>469.67792</ele>
        <time>2021-11-14T11:53:58Z</time>
      </trkpt>
      <trkpt lat="4.552773" lon="-74.959122">
        <ele>469.62323</ele>
        <time>2021-11-14T11:53:59Z</time>
      </trkpt>
      <trkpt lat="4.552913" lon="-74.959068">
        <ele>469.45618</ele>
        <time>2021-11-14T11:54:00Z</time>
      </trkpt>
      <trkpt lat="4.553065" lon="-74.959015">
        <ele>469.5135</ele>
        <time>2021-11-14T11:54:01Z</time>
      </trkpt>
      <trkpt lat="4.553177" lon="-74.958969">
        <ele>469.41113</ele>
        <time>2021-11-14T11:54:02Z</time>
      </trkpt>
      <trkpt lat="4.55327" lon="-74.958931">
        <ele>469.18054</ele>
        <time>2021-11-14T11:54:03Z</time>
      </trkpt>
      <trkpt lat="4.553329" lon="-74.958908">
        <ele>469.12524</ele>
        <time>2021-11-14T11:54:04Z</time>
      </trkpt>
      <trkpt lat="4.553398" lon="-74.958885">
        <ele>468.86523</ele>
        <time>2021-11-14T11:54:05Z</time>
      </trkpt>
      <trkpt lat="4.553504" lon="-74.958839">
        <ele>468.73474</ele>
        <time>2021-11-14T11:54:06Z</time>
      </trkpt>
      <trkpt lat="4.553622" lon="-74.958794">
        <ele>467.92676</ele>
        <time>2021-11-14T11:54:07Z</time>
      </trkpt>
      <trkpt lat="4.553642" lon="-74.958786">
        <ele>467.7704</ele>
        <time>2021-11-14T11:54:08Z</time>
      </trkpt>
      <trkpt lat="4.553551" lon="-74.95842">
        <ele>467.39154</ele>
        <time>2021-11-14T11:54:09Z</time>
      </trkpt>
      <trkpt lat="4.553594" lon="-74.958405">
        <ele>467.52734</ele>
        <time>2021-11-14T11:54:10Z</time>
      </trkpt>
      <trkpt lat="4.553663" lon="-74.958397">
        <ele>467.11316</ele>
        <time>2021-11-14T11:54:11Z</time>
      </trkpt>
      <trkpt lat="4.553708" lon="-74.958405">
        <ele>467.34863</ele>
        <time>2021-11-14T11:54:12Z</time>
      </trkpt>
      <trkpt lat="4.553748" lon="-74.958405">
        <ele>467.4085</ele>
        <time>2021-11-14T11:54:13Z</time>
      </trkpt>
      <trkpt lat="4.553777" lon="-74.958389">
        <ele>467.5827</ele>
        <time>2021-11-14T11:54:14Z</time>
      </trkpt>
      <trkpt lat="4.553809" lon="-74.958382">
        <ele>467.37073</ele>
        <time>2021-11-14T11:54:15Z</time>
      </trkpt>
      <trkpt lat="4.553818" lon="-74.958382">
        <ele>467.64868</ele>
        <time>2021-11-14T11:54:16Z</time>
      </trkpt>
      <trkpt lat="4.553823" lon="-74.958389">
        <ele>466.6018</ele>
        <time>2021-11-14T11:54:17Z</time>
      </trkpt>
      <trkpt lat="4.55383" lon="-74.958389">
        <ele>466.26343</ele>
        <time>2021-11-14T11:54:18Z</time>
      </trkpt>
      <trkpt lat="4.553834" lon="-74.958382">
        <ele>465.66113</ele>
        <time>2021-11-14T11:54:19Z</time>
      </trkpt>
      <trkpt lat="4.553833" lon="-74.958382">
        <ele>465.63306</ele>
        <time>2021-11-14T11:54:20Z</time>
      </trkpt>
      <trkpt lat="4.553836" lon="-74.958382">
        <ele>465.8058</ele>
        <time>2021-11-14T11:54:21Z</time>
      </trkpt>
      <trkpt lat="4.557455" lon="-74.957344">
        <ele>463.28564</ele>
        <time>2021-11-14T11:58:47Z</time>
      </trkpt>
      <trkpt lat="4.557654" lon="-74.95726">
        <ele>463.26013</ele>
        <time>2021-11-14T11:58:48Z</time>
      </trkpt>
      <trkpt lat="4.557654" lon="-74.95726">
        <ele>462.4878</ele>
        <time>2021-11-14T11:58:49Z</time>
      </trkpt>
      <trkpt lat="4.557869" lon="-74.957161">
        <ele>462.14685</ele>
        <time>2021-11-14T11:58:50Z</time>
      </trkpt>
      <trkpt lat="4.558105" lon="-74.957062">
        <ele>461.0774</ele>
        <time>2021-11-14T11:58:51Z</time>
      </trkpt>
      <trkpt lat="4.558338" lon="-74.956955">
        <ele>460.50452</ele>
        <time>2021-11-14T11:58:52Z</time>
      </trkpt>
      <trkpt lat="4.558564" lon="-74.956856">
        <ele>460.33716</ele>
        <time>2021-11-14T11:58:53Z</time>
      </trkpt>
      <trkpt lat="4.55879" lon="-74.956757">
        <ele>458.73914</ele>
        <time>2021-11-14T11:58:54Z</time>
      </trkpt>
      <trkpt lat="4.559006" lon="-74.956657">
        <ele>458.6057</ele>
        <time>2021-11-14T11:58:55Z</time>
      </trkpt>
      <trkpt lat="4.559225" lon="-74.956566">
        <ele>458.3152</ele>
        <time>2021-11-14T11:58:56Z</time>
      </trkpt>
      <trkpt lat="4.559431" lon="-74.956474">
        <ele>457.80798</ele>
        <time>2021-11-14T11:58:57Z</time>
      </trkpt>
      <trkpt lat="4.559637" lon="-74.956383">
        <ele>457.05072</ele>
        <time>2021-11-14T11:58:58Z</time>
      </trkpt>
      <trkpt lat="4.55984" lon="-74.956291">
        <ele>457.15735</ele>
        <time>2021-11-14T11:58:59Z</time>
      </trkpt>
      <trkpt lat="4.560036" lon="-74.9562">
        <ele>456.02234</ele>
        <time>2021-11-14T11:59:01Z</time>
      </trkpt>
      <trkpt lat="4.560218" lon="-74.956116">
        <ele>454.62634</ele>
        <time>2021-11-14T11:59:02Z</time>
      </trkpt>
      <trkpt lat="4.560388" lon="-74.956039">
        <ele>456.67737</ele>
        <time>2021-11-14T11:59:03Z</time>
      </trkpt>
      <trkpt lat="4.560598" lon="-74.95594">
        <ele>456.70398</ele>
        <time>2021-11-14T11:59:04Z</time>
      </trkpt>
      <trkpt lat="4.560814" lon="-74.955841">
        <ele>456.6256</ele>
        <time>2021-11-14T11:59:05Z</time>
      </trkpt>
      <trkpt lat="4.560992" lon="-74.955765">
        <ele>456.20557</ele>
        <time>2021-11-14T11:59:06Z</time>
      </trkpt>
      <trkpt lat="4.561173" lon="-74.955711">
        <ele>456.86035</ele>
        <time>2021-11-14T11:59:07Z</time>
      </trkpt>
      <trkpt lat="4.561384" lon="-74.955681">
        <ele>456.50745</ele>
        <time>2021-11-14T11:59:08Z</time>
      </trkpt>
      <trkpt lat="4.561609" lon="-74.955643">
        <ele>455.2995</ele>
        <time>2021-11-14T11:59:09Z</time>
      </trkpt>
      <trkpt lat="4.561805" lon="-74.955612">
        <ele>454.7245</ele>
        <time>2021-11-14T11:59:10Z</time>
      </trkpt>
      <trkpt lat="4.561979" lon="-74.955597">
        <ele>454.7522</ele>
        <time>2021-11-14T11:59:11Z</time>
      </trkpt>
      <trkpt lat="4.562113" lon="-74.955597">
        <ele>454.5135</ele>
        <time>2021-11-14T11:59:12Z</time>
      </trkpt>
      <trkpt lat="4.562248" lon="-74.955589">
        <ele>453.49524</ele>
        <time>2021-11-14T11:59:13Z</time>
      </trkpt>
      <trkpt lat="4.562432" lon="-74.955597">
        <ele>452.58215</ele>
        <time>2021-11-14T11:59:14Z</time>
      </trkpt>
      <trkpt lat="4.562647" lon="-74.955612">
        <ele>452.198</ele>
        <time>2021-11-14T11:59:15Z</time>
      </trkpt>
      <trkpt lat="4.562883" lon="-74.955643">
        <ele>451.62762</ele>
        <time>2021-11-14T11:59:16Z</time>
      </trkpt>
      <trkpt lat="4.563061" lon="-74.955673">
        <ele>451.47638</ele>
        <time>2021-11-14T11:59:17Z</time>
      </trkpt>
      <trkpt lat="4.563216" lon="-74.955696">
        <ele>451.0598</ele>
        <time>2021-11-14T11:59:18Z</time>
      </trkpt>
      <trkpt lat="4.563378" lon="-74.955719">
        <ele>449.9829</ele>
        <time>2021-11-14T11:59:19Z</time>
      </trkpt>
      <trkpt lat="4.563582" lon="-74.95575">
        <ele>449.0531</ele>
        <time>2021-11-14T11:59:20Z</time>
      </trkpt>
      <trkpt lat="4.563802" lon="-74.955772">
        <ele>447.98352</ele>
        <time>2021-11-14T11:59:21Z</time>
      </trkpt>
      <trkpt lat="4.563989" lon="-74.955795">
        <ele>447.3907</ele>
        <time>2021-11-14T11:59:22Z</time>
      </trkpt>
      <trkpt lat="4.564196" lon="-74.955818">
        <ele>446.88025</ele>
        <time>2021-11-14T11:59:23Z</time>
      </trkpt>
      <trkpt lat="4.564407" lon="-74.955841">
        <ele>446.15747</ele>
        <time>2021-11-14T11:59:24Z</time>
      </trkpt>
      <trkpt lat="4.564595" lon="-74.955841">
        <ele>445.73376</ele>
        <time>2021-11-14T11:59:25Z</time>
      </trkpt>
      <trkpt lat="4.564796" lon="-74.955841">
        <ele>444.84705</ele>
        <time>2021-11-14T11:59:26Z</time>
      </trkpt>
      <trkpt lat="4.564796" lon="-74.955841">
        <ele>444.78394</ele>
        <time>2021-11-14T11:59:27Z</time>
      </trkpt>
      <trkpt lat="4.564987" lon="-74.955841">
        <ele>444.3158</ele>
        <time>2021-11-14T11:59:28Z</time>
      </trkpt>
      <trkpt lat="4.565231" lon="-74.955841">
        <ele>444.36304</ele>
        <time>2021-11-14T11:59:29Z</time>
      </trkpt>
      <trkpt lat="4.565416" lon="-74.955811">
        <ele>443.8147</ele>
        <time>2021-11-14T11:59:30Z</time>
      </trkpt>
      <trkpt lat="4.56558" lon="-74.95578">
        <ele>443.6986</ele>
        <time>2021-11-14T11:59:31Z</time>
      </trkpt>
      <trkpt lat="4.565746" lon="-74.955742">
        <ele>443.2099</ele>
        <time>2021-11-14T11:59:32Z</time>
      </trkpt>
      <trkpt lat="4.565884" lon="-74.955711">
        <ele>443.24292</ele>
        <time>2021-11-14T11:59:33Z</time>
      </trkpt>
      <trkpt lat="4.566021" lon="-74.955681">
        <ele>443.11798</ele>
        <time>2021-11-14T11:59:34Z</time>
      </trkpt>
      <trkpt lat="4.566159" lon="-74.955627">
        <ele>442.54968</ele>
        <time>2021-11-14T11:59:35Z</time>
      </trkpt>
      <trkpt lat="4.566484" lon="-74.95549">
        <ele>441.7895</ele>
        <time>2021-11-14T11:59:36Z</time>
      </trkpt>
      <trkpt lat="4.566644" lon="-74.955421">
        <ele>442.01947</ele>
        <time>2021-11-14T11:59:37Z</time>
      </trkpt>
      <trkpt lat="4.566835" lon="-74.955353">
        <ele>441.70026</ele>
        <time>2021-11-14T11:59:38Z</time>
      </trkpt>
      <trkpt lat="4.567016" lon="-74.955292">
        <ele>441.84076</ele>
        <time>2021-11-14T11:59:39Z</time>
      </trkpt>
      <trkpt lat="4.567213" lon="-74.955231">
        <ele>441.9541</ele>
        <time>2021-11-14T11:59:40Z</time>
      </trkpt>
      <trkpt lat="4.567407" lon="-74.955162">
        <ele>441.66638</ele>
        <time>2021-11-14T11:59:41Z</time>
      </trkpt>
      <trkpt lat="4.567596" lon="-74.955093">
        <ele>441.21606</ele>
        <time>2021-11-14T11:59:42Z</time>
      </trkpt>
      <trkpt lat="4.567766" lon="-74.955025">
        <ele>440.83655</ele>
        <time>2021-11-14T11:59:43Z</time>
      </trkpt>
      <trkpt lat="4.567954" lon="-74.954956">
        <ele>440.68042</ele>
        <time>2021-11-14T11:59:44Z</time>
      </trkpt>
      <trkpt lat="4.568144" lon="-74.95488">
        <ele>440.66577</ele>
        <time>2021-11-14T11:59:45Z</time>
      </trkpt>
      <trkpt lat="4.56832" lon="-74.954811">
        <ele>440.1338</ele>
        <time>2021-11-14T11:59:46Z</time>
      </trkpt>
      <trkpt lat="4.568436" lon="-74.954765">
        <ele>440.06067</ele>
        <time>2021-11-14T11:59:47Z</time>
      </trkpt>
      <trkpt lat="4.568566" lon="-74.954712">
        <ele>440.0027</ele>
        <time>2021-11-14T11:59:48Z</time>
      </trkpt>
      <trkpt lat="4.568697" lon="-74.954659">
        <ele>439.90186</ele>
        <time>2021-11-14T11:59:49Z</time>
      </trkpt>
      <trkpt lat="4.568804" lon="-74.954613">
        <ele>439.9165</ele>
        <time>2021-11-14T11:59:50Z</time>
      </trkpt>
      <trkpt lat="4.568921" lon="-74.954567">
        <ele>439.16284</ele>
        <time>2021-11-14T11:59:51Z</time>
      </trkpt>
      <trkpt lat="4.569023" lon="-74.954521">
        <ele>438.76178</ele>
        <time>2021-11-14T11:59:52Z</time>
      </trkpt>
      <trkpt lat="4.569181" lon="-74.954437">
        <ele>438.90027</ele>
        <time>2021-11-14T11:59:53Z</time>
      </trkpt>
      <trkpt lat="4.569321" lon="-74.954353">
        <ele>438.6989</ele>
        <time>2021-11-14T11:59:54Z</time>
      </trkpt>
      <trkpt lat="4.569467" lon="-74.954277">
        <ele>438.69275</ele>
        <time>2021-11-14T11:59:56Z</time>
      </trkpt>
      <trkpt lat="4.569672" lon="-74.954163">
        <ele>438.36707</ele>
        <time>2021-11-14T11:59:57Z</time>
      </trkpt>
      <trkpt lat="4.569855" lon="-74.954033">
        <ele>438.48615</ele>
        <time>2021-11-14T11:59:58Z</time>
      </trkpt>
      <trkpt lat="4.570008" lon="-74.953918">
        <ele>438.2091</ele>
        <time>2021-11-14T11:59:59Z</time>
      </trkpt>
      <trkpt lat="4.570232" lon="-74.953743">
        <ele>438.34595</ele>
        <time>2021-11-14T12:00:00Z</time>
      </trkpt>
      <trkpt lat="4.570232" lon="-74.953743">
        <ele>437.85168</ele>
        <time>2021-11-14T12:00:01Z</time>
      </trkpt>
      <trkpt lat="4.570417" lon="-74.953506">
        <ele>437.40723</ele>
        <time>2021-11-14T12:00:02Z</time>
      </trkpt>
      <trkpt lat="4.570617" lon="-74.953247">
        <ele>437.36658</ele>
        <time>2021-11-14T12:00:03Z</time>
      </trkpt>
      <trkpt lat="4.570807" lon="-74.953026">
        <ele>437.48602</ele>
        <time>2021-11-14T12:00:04Z</time>
      </trkpt>
      <trkpt lat="4.570995" lon="-74.952797">
        <ele>437.7273</ele>
        <time>2021-11-14T12:00:05Z</time>
      </trkpt>
      <trkpt lat="4.571098" lon="-74.952675">
        <ele>437.33105</ele>
        <time>2021-11-14T12:00:06Z</time>
      </trkpt>
      <trkpt lat="4.571199" lon="-74.95256">
        <ele>437.16974</ele>
        <time>2021-11-14T12:00:07Z</time>
      </trkpt>
      <trkpt lat="4.571306" lon="-74.952431">
        <ele>437.0647</ele>
        <time>2021-11-14T12:00:08Z</time>
      </trkpt>
      <trkpt lat="4.571419" lon="-74.952293">
        <ele>436.70862</ele>
        <time>2021-11-14T12:00:09Z</time>
      </trkpt>
      <trkpt lat="4.571556" lon="-74.952148">
        <ele>437.02637</ele>
        <time>2021-11-14T12:00:10Z</time>
      </trkpt>
      <trkpt lat="4.571716" lon="-74.951981">
        <ele>436.85785</ele>
        <time>2021-11-14T12:00:11Z</time>
      </trkpt>
      <trkpt lat="4.571884" lon="-74.951813">
        <ele>436.85242</ele>
        <time>2021-11-14T12:00:12Z</time>
      </trkpt>
      <trkpt lat="4.572035" lon="-74.95166">
        <ele>436.61853</ele>
        <time>2021-11-14T12:00:13Z</time>
      </trkpt>
      <trkpt lat="4.572208" lon="-74.951477">
        <ele>436.3584</ele>
        <time>2021-11-14T12:00:14Z</time>
      </trkpt>
      <trkpt lat="4.572383" lon="-74.951294">
        <ele>435.35095</ele>
        <time>2021-11-14T12:00:15Z</time>
      </trkpt>
      <trkpt lat="4.572575" lon="-74.951118">
        <ele>435.69885</ele>
        <time>2021-11-14T12:00:16Z</time>
      </trkpt>
      <trkpt lat="4.572829" lon="-74.951027">
        <ele>435.89557</ele>
        <time>2021-11-14T12:00:17Z</time>
      </trkpt>
      <trkpt lat="4.573116" lon="-74.950897">
        <ele>435.91785</ele>
        <time>2021-11-14T12:00:18Z</time>
      </trkpt>
      <trkpt lat="4.573364" lon="-74.950752">
        <ele>434.4386</ele>
        <time>2021-11-14T12:00:19Z</time>
      </trkpt>
      <trkpt lat="4.573617" lon="-74.950607">
        <ele>434.0221</ele>
        <time>2021-11-14T12:00:20Z</time>
      </trkpt>
      <trkpt lat="4.573886" lon="-74.950455">
        <ele>434.0855</ele>
        <time>2021-11-14T12:00:21Z</time>
      </trkpt>
      <trkpt lat="4.57415" lon="-74.95031">
        <ele>434.0796</ele>
        <time>2021-11-14T12:00:22Z</time>
      </trkpt>
      <trkpt lat="4.574422" lon="-74.95015">
        <ele>433.7202</ele>
        <time>2021-11-14T12:00:23Z</time>
      </trkpt>
      <trkpt lat="4.574692" lon="-74.949997">
        <ele>432.0473</ele>
        <time>2021-11-14T12:00:24Z</time>
      </trkpt>
      <trkpt lat="4.57494" lon="-74.94986">
        <ele>431.96692</ele>
        <time>2021-11-14T12:00:25Z</time>
      </trkpt>
      <trkpt lat="4.575191" lon="-74.949715">
        <ele>431.10645</ele>
        <time>2021-11-14T12:00:26Z</time>
      </trkpt>
      <trkpt lat="4.575477" lon="-74.949547">
        <ele>430.73102</ele>
        <time>2021-11-14T12:00:27Z</time>
      </trkpt>
      <trkpt lat="4.575751" lon="-74.949394">
        <ele>430.35486</ele>
        <time>2021-11-14T12:00:28Z</time>
      </trkpt>
      <trkpt lat="4.575751" lon="-74.949394">
        <ele>429.6679</ele>
        <time>2021-11-14T12:00:29Z</time>
      </trkpt>
      <trkpt lat="4.576019" lon="-74.949242">
        <ele>429.49017</ele>
        <time>2021-11-14T12:00:30Z</time>
      </trkpt>
      <trkpt lat="4.576265" lon="-74.949104">
        <ele>428.4809</ele>
        <time>2021-11-14T12:00:31Z</time>
      </trkpt>
      <trkpt lat="4.576511" lon="-74.948959">
        <ele>427.7815</ele>
        <time>2021-11-14T12:00:32Z</time>
      </trkpt>
      <trkpt lat="4.576783" lon="-74.948807">
        <ele>426.9933</ele>
        <time>2021-11-14T12:00:33Z</time>
      </trkpt>
      <trkpt lat="4.57703" lon="-74.948662">
        <ele>426.333</ele>
        <time>2021-11-14T12:00:34Z</time>
      </trkpt>
      <trkpt lat="4.577303" lon="-74.948509">
        <ele>426.11243</ele>
        <time>2021-11-14T12:00:35Z</time>
      </trkpt>
      <trkpt lat="4.577843" lon="-74.948204">
        <ele>425.3578</ele>
        <time>2021-11-14T12:00:36Z</time>
      </trkpt>
      <trkpt lat="4.578072" lon="-74.948074">
        <ele>424.82007</ele>
        <time>2021-11-14T12:00:37Z</time>
      </trkpt>
      <trkpt lat="4.578308" lon="-74.947929">
        <ele>424.4171</ele>
        <time>2021-11-14T12:00:38Z</time>
      </trkpt>
      <trkpt lat="4.578558" lon="-74.947777">
        <ele>423.45667</ele>
        <time>2021-11-14T12:00:39Z</time>
      </trkpt>
      <trkpt lat="4.578778" lon="-74.947647">
        <ele>423.2566</ele>
        <time>2021-11-14T12:00:40Z</time>
      </trkpt>
      <trkpt lat="4.578978" lon="-74.947525">
        <ele>422.62793</ele>
        <time>2021-11-14T12:00:41Z</time>
      </trkpt>
      <trkpt lat="4.579168" lon="-74.947411">
        <ele>422.5504</ele>
        <time>2021-11-14T12:00:42Z</time>
      </trkpt>
      <trkpt lat="4.57936" lon="-74.947296">
        <ele>421.92444</ele>
        <time>2021-11-14T12:00:43Z</time>
      </trkpt>
      <trkpt lat="4.579558" lon="-74.947174">
        <ele>421.61804</ele>
        <time>2021-11-14T12:00:44Z</time>
      </trkpt>
      <trkpt lat="4.579741" lon="-74.94706">
        <ele>420.78772</ele>
        <time>2021-11-14T12:00:45Z</time>
      </trkpt>
      <trkpt lat="4.579851" lon="-74.946999">
        <ele>420.06073</ele>
        <time>2021-11-14T12:00:46Z</time>
      </trkpt>
      <trkpt lat="4.579962" lon="-74.946915">
        <ele>419.98328</ele>
        <time>2021-11-14T12:00:48Z</time>
      </trkpt>
      <trkpt lat="4.580082" lon="-74.946831">
        <ele>419.27094</ele>
        <time>2021-11-14T12:00:49Z</time>
      </trkpt>
      <trkpt lat="4.580174" lon="-74.946762">
        <ele>418.9629</ele>
        <time>2021-11-14T12:00:50Z</time>
      </trkpt>
      <trkpt lat="4.580279" lon="-74.946686">
        <ele>418.97144</ele>
        <time>2021-11-14T12:00:51Z</time>
      </trkpt>
      <trkpt lat="4.580412" lon="-74.946594">
        <ele>418.30927</ele>
        <time>2021-11-14T12:00:52Z</time>
      </trkpt>
      <trkpt lat="4.580531" lon="-74.94651">
        <ele>418.3208</ele>
        <time>2021-11-14T12:00:53Z</time>
      </trkpt>
      <trkpt lat="4.58067" lon="-74.946411">
        <ele>418.26794</ele>
        <time>2021-11-14T12:00:54Z</time>
      </trkpt>
      <trkpt lat="4.580758" lon="-74.946342">
        <ele>418.14532</ele>
        <time>2021-11-14T12:00:55Z</time>
      </trkpt>
      <trkpt lat="4.580853" lon="-74.946274">
        <ele>417.67383</ele>
        <time>2021-11-14T12:00:56Z</time>
      </trkpt>
      <trkpt lat="4.580979" lon="-74.946182">
        <ele>417.1623</ele>
        <time>2021-11-14T12:00:57Z</time>
      </trkpt>
      <trkpt lat="4.581124" lon="-74.946068">
        <ele>417.1084</ele>
        <time>2021-11-14T12:00:58Z</time>
      </trkpt>
      <trkpt lat="4.581326" lon="-74.9459">
        <ele>416.49512</ele>
        <time>2021-11-14T12:00:59Z</time>
      </trkpt>
      <trkpt lat="4.581541" lon="-74.945724">
        <ele>416.05048</ele>
        <time>2021-11-14T12:01:00Z</time>
      </trkpt>
      <trkpt lat="4.581737" lon="-74.945564">
        <ele>415.67786</ele>
        <time>2021-11-14T12:01:01Z</time>
      </trkpt>
      <trkpt lat="4.581998" lon="-74.945335">
        <ele>415.2002</ele>
        <time>2021-11-14T12:01:02Z</time>
      </trkpt>
      <trkpt lat="4.581998" lon="-74.945335">
        <ele>414.51794</ele>
        <time>2021-11-14T12:01:03Z</time>
      </trkpt>
      <trkpt lat="4.582246" lon="-74.945129">
        <ele>413.80908</ele>
        <time>2021-11-14T12:01:04Z</time>
      </trkpt>
      <trkpt lat="4.582484" lon="-74.944923">
        <ele>413.26135</ele>
        <time>2021-11-14T12:01:05Z</time>
      </trkpt>
      <trkpt lat="4.582702" lon="-74.944733">
        <ele>413.0147</ele>
        <time>2021-11-14T12:01:06Z</time>
      </trkpt>
      <trkpt lat="4.582905" lon="-74.944565">
        <ele>412.47662</ele>
        <time>2021-11-14T12:01:07Z</time>
      </trkpt>
      <trkpt lat="4.583124" lon="-74.944374">
        <ele>412.25403</ele>
        <time>2021-11-14T12:01:08Z</time>
      </trkpt>
      <trkpt lat="4.583342" lon="-74.944183">
        <ele>411.5199</ele>
        <time>2021-11-14T12:01:09Z</time>
      </trkpt>
      <trkpt lat="4.583541" lon="-74.944016">
        <ele>411.21826</ele>
        <time>2021-11-14T12:01:10Z</time>
      </trkpt>
      <trkpt lat="4.583757" lon="-74.943832">
        <ele>410.31537</ele>
        <time>2021-11-14T12:01:11Z</time>
      </trkpt>
      <trkpt lat="4.583997" lon="-74.943626">
        <ele>410.26855</ele>
        <time>2021-11-14T12:01:12Z</time>
      </trkpt>
      <trkpt lat="4.584209" lon="-74.943443">
        <ele>409.6314</ele>
        <time>2021-11-14T12:01:13Z</time>
      </trkpt>
      <trkpt lat="4.584429" lon="-74.943253">
        <ele>408.9181</ele>
        <time>2021-11-14T12:01:14Z</time>
      </trkpt>
      <trkpt lat="4.584675" lon="-74.943047">
        <ele>408.53516</ele>
        <time>2021-11-14T12:01:15Z</time>
      </trkpt>
      <trkpt lat="4.584902" lon="-74.942848">
        <ele>408.2688</ele>
        <time>2021-11-14T12:01:16Z</time>
      </trkpt>
      <trkpt lat="4.585114" lon="-74.942673">
        <ele>407.93274</ele>
        <time>2021-11-14T12:01:17Z</time>
      </trkpt>
      <trkpt lat="4.585577" lon="-74.942276">
        <ele>407.2494</ele>
        <time>2021-11-14T12:01:18Z</time>
      </trkpt>
      <trkpt lat="4.585824" lon="-74.942062">
        <ele>407.13794</ele>
        <time>2021-11-14T12:01:19Z</time>
      </trkpt>
      <trkpt lat="4.58606" lon="-74.941856">
        <ele>406.73254</ele>
        <time>2021-11-14T12:01:20Z</time>
      </trkpt>
      <trkpt lat="4.586289" lon="-74.941666">
        <ele>406.47736</ele>
        <time>2021-11-14T12:01:21Z</time>
      </trkpt>
      <trkpt lat="4.586527" lon="-74.94146">
        <ele>406.27875</ele>
        <time>2021-11-14T12:01:22Z</time>
      </trkpt>
      <trkpt lat="4.586765" lon="-74.941254">
        <ele>406.26038</ele>
        <time>2021-11-14T12:01:24Z</time>
      </trkpt>
      <trkpt lat="4.587023" lon="-74.941032">
        <ele>406.00397</ele>
        <time>2021-11-14T12:01:25Z</time>
      </trkpt>
      <trkpt lat="4.587267" lon="-74.940826">
        <ele>406.20947</ele>
        <time>2021-11-14T12:01:26Z</time>
      </trkpt>
      <trkpt lat="4.587512" lon="-74.940613">
        <ele>405.72363</ele>
        <time>2021-11-14T12:01:27Z</time>
      </trkpt>
      <trkpt lat="4.587786" lon="-74.940384">
        <ele>405.0752</ele>
        <time>2021-11-14T12:01:28Z</time>
      </trkpt>
      <trkpt lat="4.58804" lon="-74.940163">
        <ele>404.4381</ele>
        <time>2021-11-14T12:01:29Z</time>
      </trkpt>
      <trkpt lat="4.588275" lon="-74.939964">
        <ele>404.30414</ele>
        <time>2021-11-14T12:01:30Z</time>
      </trkpt>
      <trkpt lat="4.588508" lon="-74.939812">
        <ele>403.84937</ele>
        <time>2021-11-14T12:01:31Z</time>
      </trkpt>
      <trkpt lat="4.588707" lon="-74.93969">
        <ele>403.17725</ele>
        <time>2021-11-14T12:01:32Z</time>
      </trkpt>
      <trkpt lat="4.588707" lon="-74.93969">
        <ele>402.13208</ele>
        <time>2021-11-14T12:01:33Z</time>
      </trkpt>
      <trkpt lat="4.588994" lon="-74.939507">
        <ele>402.1803</ele>
        <time>2021-11-14T12:01:34Z</time>
      </trkpt>
      <trkpt lat="4.589244" lon="-74.939346">
        <ele>401.92896</ele>
        <time>2021-11-14T12:01:35Z</time>
      </trkpt>
      <trkpt lat="4.589503" lon="-74.939262">
        <ele>401.4685</ele>
        <time>2021-11-14T12:01:36Z</time>
      </trkpt>
      <trkpt lat="4.589762" lon="-74.939209">
        <ele>401.04926</ele>
        <time>2021-11-14T12:01:37Z</time>
      </trkpt>
      <trkpt lat="4.589982" lon="-74.939156">
        <ele>401.05334</ele>
        <time>2021-11-14T12:01:38Z</time>
      </trkpt>
      <trkpt lat="4.590258" lon="-74.939102">
        <ele>400.22058</ele>
        <time>2021-11-14T12:01:39Z</time>
      </trkpt>
      <trkpt lat="4.59051" lon="-74.939133">
        <ele>399.3498</ele>
        <time>2021-11-14T12:01:40Z</time>
      </trkpt>
      <trkpt lat="4.590764" lon="-74.939171">
        <ele>398.17224</ele>
        <time>2021-11-14T12:01:41Z</time>
      </trkpt>
      <trkpt lat="4.591031" lon="-74.939201">
        <ele>396.96155</ele>
        <time>2021-11-14T12:01:42Z</time>
      </trkpt>
      <trkpt lat="4.591314" lon="-74.93924">
        <ele>395.39392</ele>
        <time>2021-11-14T12:01:43Z</time>
      </trkpt>
      <trkpt lat="4.591579" lon="-74.93927">
        <ele>393.81763</ele>
        <time>2021-11-14T12:01:44Z</time>
      </trkpt>
      <trkpt lat="4.591777" lon="-74.939369">
        <ele>392.4065</ele>
        <time>2021-11-14T12:01:45Z</time>
      </trkpt>
      <trkpt lat="4.592022" lon="-74.939484">
        <ele>391.2708</ele>
        <time>2021-11-14T12:01:46Z</time>
      </trkpt>
      <trkpt lat="4.592219" lon="-74.93959">
        <ele>389.7738</ele>
        <time>2021-11-14T12:01:47Z</time>
      </trkpt>
      <trkpt lat="4.592413" lon="-74.939728">
        <ele>388.7011</ele>
        <time>2021-11-14T12:01:48Z</time>
      </trkpt>
      <trkpt lat="4.592596" lon="-74.939865">
        <ele>387.1941</ele>
        <time>2021-11-14T12:01:49Z</time>
      </trkpt>
      <trkpt lat="4.592784" lon="-74.940018">
        <ele>386.54352</ele>
        <time>2021-11-14T12:01:50Z</time>
      </trkpt>
      <trkpt lat="4.592971" lon="-74.94017">
        <ele>385.35413</ele>
        <time>2021-11-14T12:01:51Z</time>
      </trkpt>
      <trkpt lat="4.593167" lon="-74.940331">
        <ele>384.34167</ele>
        <time>2021-11-14T12:01:52Z</time>
      </trkpt>
      <trkpt lat="4.593351" lon="-74.940475">
        <ele>383.0194</ele>
        <time>2021-11-14T12:01:53Z</time>
      </trkpt>
      <trkpt lat="4.593536" lon="-74.940636">
        <ele>381.37268</ele>
        <time>2021-11-14T12:01:54Z</time>
      </trkpt>
      <trkpt lat="4.593706" lon="-74.940781">
        <ele>380.84802</ele>
        <time>2021-11-14T12:01:55Z</time>
      </trkpt>
      <trkpt lat="4.593871" lon="-74.940918">
        <ele>379.29797</ele>
        <time>2021-11-14T12:01:56Z</time>
      </trkpt>
      <trkpt lat="4.59404" lon="-74.941063">
        <ele>377.58643</ele>
        <time>2021-11-14T12:01:57Z</time>
      </trkpt>
      <trkpt lat="4.594232" lon="-74.941216">
        <ele>376.23254</ele>
        <time>2021-11-14T12:01:58Z</time>
      </trkpt>
      <trkpt lat="4.594407" lon="-74.941353">
        <ele>374.266</ele>
        <time>2021-11-14T12:01:59Z</time>
      </trkpt>
      <trkpt lat="4.59458" lon="-74.941483">
        <ele>374.21167</ele>
        <time>2021-11-14T12:02:00Z</time>
      </trkpt>
      <trkpt lat="4.594756" lon="-74.94162">
        <ele>374.14868</ele>
        <time>2021-11-14T12:02:01Z</time>
      </trkpt>
      <trkpt lat="4.594934" lon="-74.941757">
        <ele>373.37366</ele>
        <time>2021-11-14T12:02:02Z</time>
      </trkpt>
      <trkpt lat="4.595104" lon="-74.941872">
        <ele>372.83875</ele>
        <time>2021-11-14T12:02:03Z</time>
      </trkpt>
      <trkpt lat="4.595104" lon="-74.941872">
        <ele>372.40967</ele>
        <time>2021-11-14T12:02:04Z</time>
      </trkpt>
      <trkpt lat="4.595308" lon="-74.941994">
        <ele>372.20093</ele>
        <time>2021-11-14T12:02:05Z</time>
      </trkpt>
      <trkpt lat="4.595486" lon="-74.942085">
        <ele>373.23395</ele>
        <time>2021-11-14T12:02:06Z</time>
      </trkpt>
      <trkpt lat="4.595667" lon="-74.942139">
        <ele>373.22137</ele>
        <time>2021-11-14T12:02:07Z</time>
      </trkpt>
      <trkpt lat="4.595887" lon="-74.942184">
        <ele>373.03687</ele>
        <time>2021-11-14T12:02:08Z</time>
      </trkpt>
      <trkpt lat="4.596098" lon="-74.942207">
        <ele>372.61993</ele>
        <time>2021-11-14T12:02:09Z</time>
      </trkpt>
      <trkpt lat="4.596305" lon="-74.942223">
        <ele>372.43085</ele>
        <time>2021-11-14T12:02:10Z</time>
      </trkpt>
      <trkpt lat="4.596547" lon="-74.942223">
        <ele>371.63922</ele>
        <time>2021-11-14T12:02:11Z</time>
      </trkpt>
      <trkpt lat="4.596761" lon="-74.942215">
        <ele>371.9486</ele>
        <time>2021-11-14T12:02:12Z</time>
      </trkpt>
      <trkpt lat="4.596962" lon="-74.942184">
        <ele>372.06653</ele>
        <time>2021-11-14T12:02:13Z</time>
      </trkpt>
      <trkpt lat="4.59718" lon="-74.942154">
        <ele>371.34766</ele>
        <time>2021-11-14T12:02:14Z</time>
      </trkpt>
      <trkpt lat="4.597381" lon="-74.942123">
        <ele>371.74377</ele>
        <time>2021-11-14T12:02:15Z</time>
      </trkpt>
      <trkpt lat="4.597571" lon="-74.942093">
        <ele>371.49487</ele>
        <time>2021-11-14T12:02:16Z</time>
      </trkpt>
      <trkpt lat="4.597814" lon="-74.942047">
        <ele>371.29578</ele>
        <time>2021-11-14T12:02:17Z</time>
      </trkpt>
      <trkpt lat="4.598035" lon="-74.942009">
        <ele>370.94745</ele>
        <time>2021-11-14T12:02:18Z</time>
      </trkpt>
      <trkpt lat="4.59823" lon="-74.941971">
        <ele>371.43982</ele>
        <time>2021-11-14T12:02:19Z</time>
      </trkpt>
      <trkpt lat="4.598434" lon="-74.941925">
        <ele>372.17145</ele>
        <time>2021-11-14T12:02:20Z</time>
      </trkpt>
      <trkpt lat="4.598683" lon="-74.941872">
        <ele>372.42993</ele>
        <time>2021-11-14T12:02:21Z</time>
      </trkpt>
      <trkpt lat="4.598911" lon="-74.941826">
        <ele>372.56274</ele>
        <time>2021-11-14T12:02:22Z</time>
      </trkpt>
      <trkpt lat="4.599129" lon="-74.94178">
        <ele>372.39252</ele>
        <time>2021-11-14T12:02:23Z</time>
      </trkpt>
      <trkpt lat="4.599582" lon="-74.941689">
        <ele>373.59064</ele>
        <time>2021-11-14T12:02:24Z</time>
      </trkpt>
      <trkpt lat="4.599795" lon="-74.941643">
        <ele>374.8587</ele>
        <time>2021-11-14T12:02:25Z</time>
      </trkpt>
      <trkpt lat="4.600023" lon="-74.941589">
        <ele>374.73853</ele>
        <time>2021-11-14T12:02:27Z</time>
      </trkpt>
      <trkpt lat="4.600276" lon="-74.941544">
        <ele>375.20166</ele>
        <time>2021-11-14T12:02:28Z</time>
      </trkpt>
      <trkpt lat="4.600517" lon="-74.94149">
        <ele>375.92383</ele>
        <time>2021-11-14T12:02:29Z</time>
      </trkpt>
      <trkpt lat="4.600517" lon="-74.94149">
        <ele>376.70117</ele>
        <time>2021-11-14T12:02:30Z</time>
      </trkpt>
      <trkpt lat="4.600723" lon="-74.941444">
        <ele>377.443</ele>
        <time>2021-11-14T12:02:31Z</time>
      </trkpt>
      <trkpt lat="4.600928" lon="-74.941406">
        <ele>377.82983</ele>
        <time>2021-11-14T12:02:32Z</time>
      </trkpt>
      <trkpt lat="4.601139" lon="-74.94136">
        <ele>378.19452</ele>
        <time>2021-11-14T12:02:33Z</time>
      </trkpt>
      <trkpt lat="4.601349" lon="-74.941315">
        <ele>378.09082</ele>
        <time>2021-11-14T12:02:34Z</time>
      </trkpt>
      <trkpt lat="4.601603" lon="-74.941261">
        <ele>378.04175</ele>
        <time>2021-11-14T12:02:35Z</time>
      </trkpt>
      <trkpt lat="4.601873" lon="-74.941208">
        <ele>377.34082</ele>
        <time>2021-11-14T12:02:36Z</time>
      </trkpt>
      <trkpt lat="4.602173" lon="-74.941139">
        <ele>376.237</ele>
        <time>2021-11-14T12:02:37Z</time>
      </trkpt>
      <trkpt lat="4.602503" lon="-74.941071">
        <ele>376.44147</ele>
        <time>2021-11-14T12:02:38Z</time>
      </trkpt>
      <trkpt lat="4.602827" lon="-74.94101">
        <ele>375.65906</ele>
        <time>2021-11-14T12:02:39Z</time>
      </trkpt>
      <trkpt lat="4.603157" lon="-74.940933">
        <ele>374.265</ele>
        <time>2021-11-14T12:02:40Z</time>
      </trkpt>
      <trkpt lat="4.603509" lon="-74.940865">
        <ele>373.59613</ele>
        <time>2021-11-14T12:02:41Z</time>
      </trkpt>
      <trkpt lat="4.60385" lon="-74.940796">
        <ele>373.3108</ele>
        <time>2021-11-14T12:02:42Z</time>
      </trkpt>
      <trkpt lat="4.604228" lon="-74.94072">
        <ele>372.2279</ele>
        <time>2021-11-14T12:02:43Z</time>
      </trkpt>
      <trkpt lat="4.604584" lon="-74.940651">
        <ele>371.06427</ele>
        <time>2021-11-14T12:02:44Z</time>
      </trkpt>
      <trkpt lat="4.604932" lon="-74.940582">
        <ele>370.43018</ele>
        <time>2021-11-14T12:02:45Z</time>
      </trkpt>
      <trkpt lat="4.605274" lon="-74.940514">
        <ele>370.2967</ele>
        <time>2021-11-14T12:02:46Z</time>
      </trkpt>
      <trkpt lat="4.605616" lon="-74.940445">
        <ele>371.03076</ele>
        <time>2021-11-14T12:02:47Z</time>
      </trkpt>
      <trkpt lat="4.605948" lon="-74.940384">
        <ele>371.2649</ele>
        <time>2021-11-14T12:02:48Z</time>
      </trkpt>
      <trkpt lat="4.606257" lon="-74.940323">
        <ele>371.7473</ele>
        <time>2021-11-14T12:02:49Z</time>
      </trkpt>
      <trkpt lat="4.606577" lon="-74.940254">
        <ele>372.19336</ele>
        <time>2021-11-14T12:02:50Z</time>
      </trkpt>
      <trkpt lat="4.606921" lon="-74.940186">
        <ele>372.21387</ele>
        <time>2021-11-14T12:02:51Z</time>
      </trkpt>
      <trkpt lat="4.607256" lon="-74.940125">
        <ele>373.3037</ele>
        <time>2021-11-14T12:02:52Z</time>
      </trkpt>
      <trkpt lat="4.6076" lon="-74.940056">
        <ele>372.13873</ele>
        <time>2021-11-14T12:02:53Z</time>
      </trkpt>
      <trkpt lat="4.607925" lon="-74.939987">
        <ele>370.84332</ele>
        <time>2021-11-14T12:02:54Z</time>
      </trkpt>
      <trkpt lat="4.608278" lon="-74.939911">
        <ele>369.80872</ele>
        <time>2021-11-14T12:02:55Z</time>
      </trkpt>
      <trkpt lat="4.608585" lon="-74.93985">
        <ele>369.2649</ele>
        <time>2021-11-14T12:02:56Z</time>
      </trkpt>
      <trkpt lat="4.60893" lon="-74.939781">
        <ele>368.8568</ele>
        <time>2021-11-14T12:02:57Z</time>
      </trkpt>
      <trkpt lat="4.60893" lon="-74.939781">
        <ele>368.37317</ele>
        <time>2021-11-14T12:02:58Z</time>
      </trkpt>
      <trkpt lat="4.609265" lon="-74.939713">
        <ele>367.96576</ele>
        <time>2021-11-14T12:02:59Z</time>
      </trkpt>
      <trkpt lat="4.609604" lon="-74.939636">
        <ele>367.12</ele>
        <time>2021-11-14T12:03:00Z</time>
      </trkpt>
      <trkpt lat="4.60994" lon="-74.939568">
        <ele>366.1543</ele>
        <time>2021-11-14T12:03:01Z</time>
      </trkpt>
      <trkpt lat="4.610281" lon="-74.939499">
        <ele>365.65808</ele>
        <time>2021-11-14T12:03:02Z</time>
      </trkpt>
      <trkpt lat="4.61057" lon="-74.939438">
        <ele>364.71863</ele>
        <time>2021-11-14T12:03:03Z</time>
      </trkpt>
      <trkpt lat="4.610943" lon="-74.939362">
        <ele>363.7992</ele>
        <time>2021-11-14T12:03:04Z</time>
      </trkpt>
      <trkpt lat="4.611266" lon="-74.939293">
        <ele>362.95813</ele>
        <time>2021-11-14T12:03:05Z</time>
      </trkpt>
      <trkpt lat="4.611605" lon="-74.939224">
        <ele>361.67627</ele>
        <time>2021-11-14T12:03:06Z</time>
      </trkpt>
      <trkpt lat="4.611946" lon="-74.939156">
        <ele>360.87048</ele>
        <time>2021-11-14T12:03:07Z</time>
      </trkpt>
      <trkpt lat="4.612276" lon="-74.939087">
        <ele>360.51025</ele>
        <time>2021-11-14T12:03:08Z</time>
      </trkpt>
      <trkpt lat="4.612617" lon="-74.939018">
        <ele>360.11475</ele>
        <time>2021-11-14T12:03:09Z</time>
      </trkpt>
      <trkpt lat="4.612966" lon="-74.93895">
        <ele>359.06482</ele>
        <time>2021-11-14T12:03:10Z</time>
      </trkpt>
      <trkpt lat="4.613322" lon="-74.938881">
        <ele>358.89374</ele>
        <time>2021-11-14T12:03:11Z</time>
      </trkpt>
      <trkpt lat="4.613688" lon="-74.938812">
        <ele>359.0489</ele>
        <time>2021-11-14T12:03:12Z</time>
      </trkpt>
      <trkpt lat="4.614042" lon="-74.938744">
        <ele>358.9325</ele>
        <time>2021-11-14T12:03:13Z</time>
      </trkpt>
      <trkpt lat="4.61439" lon="-74.938667">
        <ele>359.11176</ele>
        <time>2021-11-14T12:03:14Z</time>
      </trkpt>
      <trkpt lat="4.614741" lon="-74.938591">
        <ele>358.81714</ele>
        <time>2021-11-14T12:03:15Z</time>
      </trkpt>
      <trkpt lat="4.615415" lon="-74.938454">
        <ele>358.6537</ele>
        <time>2021-11-14T12:03:17Z</time>
      </trkpt>
      <trkpt lat="4.615773" lon="-74.938377">
        <ele>359.17847</ele>
        <time>2021-11-14T12:03:18Z</time>
      </trkpt>
      <trkpt lat="4.616137" lon="-74.938301">
        <ele>358.77478</ele>
        <time>2021-11-14T12:03:19Z</time>
      </trkpt>
      <trkpt lat="4.616502" lon="-74.938225">
        <ele>358.99792</ele>
        <time>2021-11-14T12:03:20Z</time>
      </trkpt>
      <trkpt lat="4.616842" lon="-74.938148">
        <ele>358.32996</ele>
        <time>2021-11-14T12:03:21Z</time>
      </trkpt>
      <trkpt lat="4.617191" lon="-74.93808">
        <ele>358.78235</ele>
        <time>2021-11-14T12:03:22Z</time>
      </trkpt>
      <trkpt lat="4.617538" lon="-74.938004">
        <ele>358.64752</ele>
        <time>2021-11-14T12:03:23Z</time>
      </trkpt>
      <trkpt lat="4.617867" lon="-74.937935">
        <ele>359.85333</ele>
        <time>2021-11-14T12:03:24Z</time>
      </trkpt>
      <trkpt lat="4.618198" lon="-74.937866">
        <ele>359.4192</ele>
        <time>2021-11-14T12:03:25Z</time>
      </trkpt>
      <trkpt lat="4.618531" lon="-74.937798">
        <ele>359.07532</ele>
        <time>2021-11-14T12:03:26Z</time>
      </trkpt>
      <trkpt lat="4.618892" lon="-74.937729">
        <ele>360.0525</ele>
        <time>2021-11-14T12:03:27Z</time>
      </trkpt>
      <trkpt lat="4.619243" lon="-74.937653">
        <ele>359.28088</ele>
        <time>2021-11-14T12:03:28Z</time>
      </trkpt>
      <trkpt lat="4.619598" lon="-74.937584">
        <ele>359.19202</ele>
        <time>2021-11-14T12:03:29Z</time>
      </trkpt>
      <trkpt lat="4.619936" lon="-74.937515">
        <ele>358.69598</ele>
        <time>2021-11-14T12:03:30Z</time>
      </trkpt>
      <trkpt lat="4.62026" lon="-74.937454">
        <ele>357.7096</ele>
        <time>2021-11-14T12:03:31Z</time>
      </trkpt>
      <trkpt lat="4.620583" lon="-74.937393">
        <ele>357.43176</ele>
        <time>2021-11-14T12:03:32Z</time>
      </trkpt>
      <trkpt lat="4.620932" lon="-74.937325">
        <ele>358.16455</ele>
        <time>2021-11-14T12:03:33Z</time>
      </trkpt>
      <trkpt lat="4.621269" lon="-74.937256">
        <ele>359.4336</ele>
        <time>2021-11-14T12:03:34Z</time>
      </trkpt>
      <trkpt lat="4.62163" lon="-74.93718">
        <ele>361.06543</ele>
        <time>2021-11-14T12:03:35Z</time>
      </trkpt>
      <trkpt lat="4.621977" lon="-74.937111">
        <ele>362.2279</ele>
        <time>2021-11-14T12:03:36Z</time>
      </trkpt>
      <trkpt lat="4.6223" lon="-74.93705">
        <ele>363.25513</ele>
        <time>2021-11-14T12:03:37Z</time>
      </trkpt>
      <trkpt lat="4.6223" lon="-74.93705">
        <ele>364.84045</ele>
        <time>2021-11-14T12:03:38Z</time>
      </trkpt>
      <trkpt lat="4.62264" lon="-74.936981">
        <ele>365.37018</ele>
        <time>2021-11-14T12:03:39Z</time>
      </trkpt>
      <trkpt lat="4.622998" lon="-74.936913">
        <ele>366.50598</ele>
        <time>2021-11-14T12:03:40Z</time>
      </trkpt>
      <trkpt lat="4.623376" lon="-74.936836">
        <ele>367.5218</ele>
        <time>2021-11-14T12:03:41Z</time>
      </trkpt>
      <trkpt lat="4.623711" lon="-74.936768">
        <ele>368.69928</ele>
        <time>2021-11-14T12:03:42Z</time>
      </trkpt>
      <trkpt lat="4.624058" lon="-74.936699">
        <ele>369.28662</ele>
        <time>2021-11-14T12:03:43Z</time>
      </trkpt>
      <trkpt lat="4.624412" lon="-74.93663">
        <ele>370.84033</ele>
        <time>2021-11-14T12:03:44Z</time>
      </trkpt>
      <trkpt lat="4.624751" lon="-74.936562">
        <ele>371.03406</ele>
        <time>2021-11-14T12:03:45Z</time>
      </trkpt>
      <trkpt lat="4.62508" lon="-74.936501">
        <ele>371.92615</ele>
        <time>2021-11-14T12:03:46Z</time>
      </trkpt>
      <trkpt lat="4.625409" lon="-74.936432">
        <ele>372.83557</ele>
        <time>2021-11-14T12:03:47Z</time>
      </trkpt>
      <trkpt lat="4.625726" lon="-74.936363">
        <ele>374.85248</ele>
        <time>2021-11-14T12:03:48Z</time>
      </trkpt>
      <trkpt lat="4.626079" lon="-74.936295">
        <ele>376.24335</ele>
        <time>2021-11-14T12:03:49Z</time>
      </trkpt>
      <trkpt lat="4.62641" lon="-74.936226">
        <ele>377.52258</ele>
        <time>2021-11-14T12:03:50Z</time>
      </trkpt>
      <trkpt lat="4.626737" lon="-74.936157">
        <ele>378.3247</ele>
        <time>2021-11-14T12:03:51Z</time>
      </trkpt>
      <trkpt lat="4.627064" lon="-74.936089">
        <ele>378.32825</ele>
        <time>2021-11-14T12:03:52Z</time>
      </trkpt>
      <trkpt lat="4.627354" lon="-74.936028">
        <ele>378.4309</ele>
        <time>2021-11-14T12:03:53Z</time>
      </trkpt>
      <trkpt lat="4.627638" lon="-74.935966">
        <ele>377.04175</ele>
        <time>2021-11-14T12:03:54Z</time>
      </trkpt>
      <trkpt lat="4.627931" lon="-74.935905">
        <ele>377.30542</ele>
        <time>2021-11-14T12:03:55Z</time>
      </trkpt>
      <trkpt lat="4.62825" lon="-74.935837">
        <ele>375.6056</ele>
        <time>2021-11-14T12:03:56Z</time>
      </trkpt>
      <trkpt lat="4.628569" lon="-74.935776">
        <ele>374.06836</ele>
        <time>2021-11-14T12:03:57Z</time>
      </trkpt>
      <trkpt lat="4.628928" lon="-74.935692">
        <ele>372.6272</ele>
        <time>2021-11-14T12:03:58Z</time>
      </trkpt>
      <trkpt lat="4.629243" lon="-74.935623">
        <ele>370.87152</ele>
        <time>2021-11-14T12:03:59Z</time>
      </trkpt>
      <trkpt lat="4.629536" lon="-74.935555">
        <ele>369.5572</ele>
        <time>2021-11-14T12:04:00Z</time>
      </trkpt>
      <trkpt lat="4.629812" lon="-74.935493">
        <ele>368.77637</ele>
        <time>2021-11-14T12:04:01Z</time>
      </trkpt>
      <trkpt lat="4.630139" lon="-74.935402">
        <ele>368.26654</ele>
        <time>2021-11-14T12:04:02Z</time>
      </trkpt>
      <trkpt lat="4.630363" lon="-74.93528">
        <ele>368.32336</ele>
        <time>2021-11-14T12:04:03Z</time>
      </trkpt>
      <trkpt lat="4.630532" lon="-74.935188">
        <ele>368.22095</ele>
        <time>2021-11-14T12:04:04Z</time>
      </trkpt>
      <trkpt lat="4.630704" lon="-74.935097">
        <ele>368.77087</ele>
        <time>2021-11-14T12:04:05Z</time>
      </trkpt>
      <trkpt lat="4.630889" lon="-74.93499">
        <ele>369.39893</ele>
        <time>2021-11-14T12:04:06Z</time>
      </trkpt>
      <trkpt lat="4.631065" lon="-74.934898">
        <ele>370.00482</ele>
        <time>2021-11-14T12:04:07Z</time>
      </trkpt>
      <trkpt lat="4.631065" lon="-74.934898">
        <ele>370.57324</ele>
        <time>2021-11-14T12:04:09Z</time>
      </trkpt>
      <trkpt lat="4.631266" lon="-74.934784">
        <ele>370.68372</ele>
        <time>2021-11-14T12:04:10Z</time>
      </trkpt>
      <trkpt lat="4.631647" lon="-74.934578">
        <ele>371.7672</ele>
        <time>2021-11-14T12:04:11Z</time>
      </trkpt>
      <trkpt lat="4.631814" lon="-74.934486">
        <ele>372.45996</ele>
        <time>2021-11-14T12:04:12Z</time>
      </trkpt>
      <trkpt lat="4.632024" lon="-74.934364">
        <ele>372.62476</ele>
        <time>2021-11-14T12:04:13Z</time>
      </trkpt>
      <trkpt lat="4.632219" lon="-74.934273">
        <ele>373.1988</ele>
        <time>2021-11-14T12:04:14Z</time>
      </trkpt>
      <trkpt lat="4.63239" lon="-74.934212">
        <ele>373.25073</ele>
        <time>2021-11-14T12:04:15Z</time>
      </trkpt>
      <trkpt lat="4.632597" lon="-74.934128">
        <ele>373.66345</ele>
        <time>2021-11-14T12:04:16Z</time>
      </trkpt>
      <trkpt lat="4.632809" lon="-74.934052">
        <ele>374.15833</ele>
        <time>2021-11-14T12:04:17Z</time>
      </trkpt>
      <trkpt lat="4.633008" lon="-74.933968">
        <ele>374.20685</ele>
        <time>2021-11-14T12:04:18Z</time>
      </trkpt>
      <trkpt lat="4.633232" lon="-74.933922">
        <ele>374.5432</ele>
        <time>2021-11-14T12:04:19Z</time>
      </trkpt>
      <trkpt lat="4.633476" lon="-74.933929">
        <ele>374.5586</ele>
        <time>2021-11-14T12:04:20Z</time>
      </trkpt>
      <trkpt lat="4.633711" lon="-74.933937">
        <ele>375.68225</ele>
        <time>2021-11-14T12:04:21Z</time>
      </trkpt>
      <trkpt lat="4.633938" lon="-74.933945">
        <ele>376.22693</ele>
        <time>2021-11-14T12:04:22Z</time>
      </trkpt>
      <trkpt lat="4.634148" lon="-74.933952">
        <ele>376.44482</ele>
        <time>2021-11-14T12:04:23Z</time>
      </trkpt>
      <trkpt lat="4.634392" lon="-74.933952">
        <ele>376.71082</ele>
        <time>2021-11-14T12:04:24Z</time>
      </trkpt>
      <trkpt lat="4.634653" lon="-74.93396">
        <ele>376.72852</ele>
        <time>2021-11-14T12:04:25Z</time>
      </trkpt>
      <trkpt lat="4.634864" lon="-74.933968">
        <ele>377.11218</ele>
        <time>2021-11-14T12:04:26Z</time>
      </trkpt>
      <trkpt lat="4.635108" lon="-74.933975">
        <ele>377.1739</ele>
        <time>2021-11-14T12:04:27Z</time>
      </trkpt>
      <trkpt lat="4.635371" lon="-74.933983">
        <ele>377.68353</ele>
        <time>2021-11-14T12:04:28Z</time>
      </trkpt>
      <trkpt lat="4.63559" lon="-74.93399">
        <ele>378.1366</ele>
        <time>2021-11-14T12:04:29Z</time>
      </trkpt>
      <trkpt lat="4.635842" lon="-74.93399">
        <ele>378.2843</ele>
        <time>2021-11-14T12:04:30Z</time>
      </trkpt>
      <trkpt lat="4.636118" lon="-74.934006">
        <ele>378.65845</ele>
        <time>2021-11-14T12:04:31Z</time>
      </trkpt>
      <trkpt lat="4.63639" lon="-74.934006">
        <ele>378.66174</ele>
        <time>2021-11-14T12:04:32Z</time>
      </trkpt>
      <trkpt lat="4.636673" lon="-74.934013">
        <ele>378.98456</ele>
        <time>2021-11-14T12:04:33Z</time>
      </trkpt>
      <trkpt lat="4.636986" lon="-74.934029">
        <ele>378.2345</ele>
        <time>2021-11-14T12:04:34Z</time>
      </trkpt>
      <trkpt lat="4.637309" lon="-74.934044">
        <ele>378.62286</ele>
        <time>2021-11-14T12:04:35Z</time>
      </trkpt>
      <trkpt lat="4.637607" lon="-74.934052">
        <ele>378.90387</ele>
        <time>2021-11-14T12:04:36Z</time>
      </trkpt>
      <trkpt lat="4.637941" lon="-74.934067">
        <ele>378.75763</ele>
        <time>2021-11-14T12:04:37Z</time>
      </trkpt>
      <trkpt lat="4.638269" lon="-74.934082">
        <ele>379.1084</ele>
        <time>2021-11-14T12:04:38Z</time>
      </trkpt>
      <trkpt lat="4.638269" lon="-74.934082">
        <ele>379.81458</ele>
        <time>2021-11-14T12:04:39Z</time>
      </trkpt>
      <trkpt lat="4.638599" lon="-74.934097">
        <ele>380.46167</ele>
        <time>2021-11-14T12:04:40Z</time>
      </trkpt>
      <trkpt lat="4.63895" lon="-74.934113">
        <ele>380.91278</ele>
        <time>2021-11-14T12:04:41Z</time>
      </trkpt>
      <trkpt lat="4.639277" lon="-74.93412">
        <ele>382.1621</ele>
        <time>2021-11-14T12:04:42Z</time>
      </trkpt>
      <trkpt lat="4.639602" lon="-74.934135">
        <ele>382.93878</ele>
        <time>2021-11-14T12:04:43Z</time>
      </trkpt>
      <trkpt lat="4.639942" lon="-74.934151">
        <ele>383.35876</ele>
        <time>2021-11-14T12:04:44Z</time>
      </trkpt>
      <trkpt lat="4.640275" lon="-74.934158">
        <ele>384.44482</ele>
        <time>2021-11-14T12:04:45Z</time>
      </trkpt>
      <trkpt lat="4.640615" lon="-74.934174">
        <ele>384.06335</ele>
        <time>2021-11-14T12:04:46Z</time>
      </trkpt>
      <trkpt lat="4.640948" lon="-74.934189">
        <ele>384.6737</ele>
        <time>2021-11-14T12:04:47Z</time>
      </trkpt>
      <trkpt lat="4.641265" lon="-74.934204">
        <ele>385.32153</ele>
        <time>2021-11-14T12:04:48Z</time>
      </trkpt>
      <trkpt lat="4.641596" lon="-74.934219">
        <ele>386.15552</ele>
        <time>2021-11-14T12:04:49Z</time>
      </trkpt>
      <trkpt lat="4.641952" lon="-74.934227">
        <ele>386.4615</ele>
        <time>2021-11-14T12:04:50Z</time>
      </trkpt>
      <trkpt lat="4.642289" lon="-74.934242">
        <ele>387.60962</ele>
        <time>2021-11-14T12:04:51Z</time>
      </trkpt>
      <trkpt lat="4.642594" lon="-74.934258">
        <ele>388.1494</ele>
        <time>2021-11-14T12:04:52Z</time>
      </trkpt>
      <trkpt lat="4.642941" lon="-74.934273">
        <ele>388.52576</ele>
        <time>2021-11-14T12:04:53Z</time>
      </trkpt>
      <trkpt lat="4.643277" lon="-74.93428">
        <ele>388.69562</ele>
        <time>2021-11-14T12:04:54Z</time>
      </trkpt>
      <trkpt lat="4.643595" lon="-74.934296">
        <ele>388.37427</ele>
        <time>2021-11-14T12:04:55Z</time>
      </trkpt>
      <trkpt lat="4.643915" lon="-74.934311">
        <ele>388.97638</ele>
        <time>2021-11-14T12:04:56Z</time>
      </trkpt>
      <trkpt lat="4.644258" lon="-74.934326">
        <ele>389.4192</ele>
        <time>2021-11-14T12:04:57Z</time>
      </trkpt>
      <trkpt lat="4.644583" lon="-74.934334">
        <ele>391.13617</ele>
        <time>2021-11-14T12:04:58Z</time>
      </trkpt>
      <trkpt lat="4.644914" lon="-74.934349">
        <ele>392.9685</ele>
        <time>2021-11-14T12:04:59Z</time>
      </trkpt>
      <trkpt lat="4.645232" lon="-74.934364">
        <ele>393.19733</ele>
        <time>2021-11-14T12:05:00Z</time>
      </trkpt>
      <trkpt lat="4.64554" lon="-74.93438">
        <ele>394.91895</ele>
        <time>2021-11-14T12:05:01Z</time>
      </trkpt>
      <trkpt lat="4.645803" lon="-74.934387">
        <ele>396.2915</ele>
        <time>2021-11-14T12:05:02Z</time>
      </trkpt>
      <trkpt lat="4.646114" lon="-74.934395">
        <ele>397.61023</ele>
        <time>2021-11-14T12:05:03Z</time>
      </trkpt>
      <trkpt lat="4.646415" lon="-74.934402">
        <ele>398.17834</ele>
        <time>2021-11-14T12:05:04Z</time>
      </trkpt>
      <trkpt lat="4.646686" lon="-74.93441">
        <ele>399.59998</ele>
        <time>2021-11-14T12:05:05Z</time>
      </trkpt>
      <trkpt lat="4.646976" lon="-74.934425">
        <ele>400.6194</ele>
        <time>2021-11-14T12:05:06Z</time>
      </trkpt>
      <trkpt lat="4.646976" lon="-74.934425">
        <ele>401.55707</ele>
        <time>2021-11-14T12:05:07Z</time>
      </trkpt>
      <trkpt lat="4.647244" lon="-74.934433">
        <ele>401.66516</ele>
        <time>2021-11-14T12:05:08Z</time>
      </trkpt>
      <trkpt lat="4.647513" lon="-74.934441">
        <ele>401.9143</ele>
        <time>2021-11-14T12:05:09Z</time>
      </trkpt>
      <trkpt lat="4.647733" lon="-74.934448">
        <ele>402.8042</ele>
        <time>2021-11-14T12:05:10Z</time>
      </trkpt>
      <trkpt lat="4.647964" lon="-74.934456">
        <ele>403.86658</ele>
        <time>2021-11-14T12:05:11Z</time>
      </trkpt>
      <trkpt lat="4.648156" lon="-74.934464">
        <ele>404.18628</ele>
        <time>2021-11-14T12:05:12Z</time>
      </trkpt>
      <trkpt lat="4.648297" lon="-74.934464">
        <ele>404.71277</ele>
        <time>2021-11-14T12:05:13Z</time>
      </trkpt>
      <trkpt lat="4.648424" lon="-74.934471">
        <ele>405.2948</ele>
        <time>2021-11-14T12:05:14Z</time>
      </trkpt>
      <trkpt lat="4.648561" lon="-74.934471">
        <ele>406.12524</ele>
        <time>2021-11-14T12:05:15Z</time>
      </trkpt>
      <trkpt lat="4.648615" lon="-74.934471">
        <ele>405.9568</ele>
        <time>2021-11-14T12:05:16Z</time>
      </trkpt>
      <trkpt lat="4.648682" lon="-74.934479">
        <ele>405.763</ele>
        <time>2021-11-14T12:05:17Z</time>
      </trkpt>
      <trkpt lat="4.648742" lon="-74.934479">
        <ele>405.6361</ele>
        <time>2021-11-14T12:05:18Z</time>
      </trkpt>
      <trkpt lat="4.648789" lon="-74.934479">
        <ele>405.5349</ele>
        <time>2021-11-14T12:05:19Z</time>
      </trkpt>
      <trkpt lat="4.648831" lon="-74.934479">
        <ele>405.83606</ele>
        <time>2021-11-14T12:05:20Z</time>
      </trkpt>
      <trkpt lat="4.648774" lon="-74.934616">
        <ele>405.75684</ele>
        <time>2021-11-14T12:05:21Z</time>
      </trkpt>
      <trkpt lat="4.648766" lon="-74.934761">
        <ele>406.47156</ele>
        <time>2021-11-14T12:05:22Z</time>
      </trkpt>
      <trkpt lat="4.648763" lon="-74.934837">
        <ele>406.4513</ele>
        <time>2021-11-14T12:05:24Z</time>
      </trkpt>
      <trkpt lat="4.648802" lon="-74.934998">
        <ele>405.94812</ele>
        <time>2021-11-14T12:05:25Z</time>
      </trkpt>
      <trkpt lat="4.648831" lon="-74.935059">
        <ele>405.7599</ele>
        <time>2021-11-14T12:05:26Z</time>
      </trkpt>
      <trkpt lat="4.648864" lon="-74.935127">
        <ele>406.0056</ele>
        <time>2021-11-14T12:05:27Z</time>
      </trkpt>
      <trkpt lat="4.648936" lon="-74.935234">
        <ele>406.57312</ele>
        <time>2021-11-14T12:05:28Z</time>
      </trkpt>
      <trkpt lat="4.649019" lon="-74.935341">
        <ele>407.22913</ele>
        <time>2021-11-14T12:05:29Z</time>
      </trkpt>
      <trkpt lat="4.649239" lon="-74.935547">
        <ele>406.36536</ele>
        <time>2021-11-14T12:05:30Z</time>
      </trkpt>
      <trkpt lat="4.649338" lon="-74.935616">
        <ele>407.7638</ele>
        <time>2021-11-14T12:05:31Z</time>
      </trkpt>
      <trkpt lat="4.649464" lon="-74.935707">
        <ele>408.20068</ele>
        <time>2021-11-14T12:05:32Z</time>
      </trkpt>
      <trkpt lat="4.649648" lon="-74.935844">
        <ele>408.5879</ele>
        <time>2021-11-14T12:05:33Z</time>
      </trkpt>
      <trkpt lat="4.649792" lon="-74.935944">
        <ele>408.8723</ele>
        <time>2021-11-14T12:05:34Z</time>
      </trkpt>
      <trkpt lat="4.649923" lon="-74.936043">
        <ele>409.67444</ele>
        <time>2021-11-14T12:05:35Z</time>
      </trkpt>
      <trkpt lat="4.650043" lon="-74.936127">
        <ele>409.93018</ele>
        <time>2021-11-14T12:05:36Z</time>
      </trkpt>
      <trkpt lat="4.650204" lon="-74.936249">
        <ele>409.8861</ele>
        <time>2021-11-14T12:05:37Z</time>
      </trkpt>
      <trkpt lat="4.650334" lon="-74.93634">
        <ele>410.60168</ele>
        <time>2021-11-14T12:05:38Z</time>
      </trkpt>
      <trkpt lat="4.650334" lon="-74.93634">
        <ele>410.4602</ele>
        <time>2021-11-14T12:05:39Z</time>
      </trkpt>
      <trkpt lat="4.650495" lon="-74.936455">
        <ele>410.57446</ele>
        <time>2021-11-14T12:05:40Z</time>
      </trkpt>
      <trkpt lat="4.650631" lon="-74.936554">
        <ele>410.1347</ele>
        <time>2021-11-14T12:05:41Z</time>
      </trkpt>
      <trkpt lat="4.650761" lon="-74.936653">
        <ele>409.68872</ele>
        <time>2021-11-14T12:05:42Z</time>
      </trkpt>
      <trkpt lat="4.650899" lon="-74.936752">
        <ele>409.599</ele>
        <time>2021-11-14T12:05:43Z</time>
      </trkpt>
      <trkpt lat="4.651016" lon="-74.936836">
        <ele>409.39514</ele>
        <time>2021-11-14T12:05:44Z</time>
      </trkpt>
      <trkpt lat="4.651117" lon="-74.936905">
        <ele>409.3015</ele>
        <time>2021-11-14T12:05:45Z</time>
      </trkpt>
      <trkpt lat="4.651229" lon="-74.936989">
        <ele>409.26465</ele>
        <time>2021-11-14T12:05:46Z</time>
      </trkpt>
      <trkpt lat="4.651365" lon="-74.937088">
        <ele>409.93372</ele>
        <time>2021-11-14T12:05:47Z</time>
      </trkpt>
      <trkpt lat="4.651454" lon="-74.937149">
        <ele>409.66394</ele>
        <time>2021-11-14T12:05:48Z</time>
      </trkpt>
      <trkpt lat="4.651548" lon="-74.937218">
        <ele>409.39722</ele>
        <time>2021-11-14T12:05:49Z</time>
      </trkpt>
      <trkpt lat="4.651636" lon="-74.937286">
        <ele>409.53503</ele>
        <time>2021-11-14T12:05:50Z</time>
      </trkpt>
      <trkpt lat="4.651767" lon="-74.937378">
        <ele>409.6338</ele>
        <time>2021-11-14T12:05:51Z</time>
      </trkpt>
      <trkpt lat="4.651865" lon="-74.937447">
        <ele>409.93408</ele>
        <time>2021-11-14T12:05:52Z</time>
      </trkpt>
      <trkpt lat="4.652005" lon="-74.937546">
        <ele>410.39362</ele>
        <time>2021-11-14T12:05:53Z</time>
      </trkpt>
      <trkpt lat="4.652169" lon="-74.937653">
        <ele>410.83105</ele>
        <time>2021-11-14T12:05:54Z</time>
      </trkpt>
      <trkpt lat="4.652306" lon="-74.937752">
        <ele>412.02612</ele>
        <time>2021-11-14T12:05:55Z</time>
      </trkpt>
      <trkpt lat="4.652441" lon="-74.937843">
        <ele>412.63757</ele>
        <time>2021-11-14T12:05:56Z</time>
      </trkpt>
      <trkpt lat="4.652587" lon="-74.937943">
        <ele>413.30927</ele>
        <time>2021-11-14T12:05:57Z</time>
      </trkpt>
      <trkpt lat="4.652766" lon="-74.938065">
        <ele>413.20288</ele>
        <time>2021-11-14T12:05:58Z</time>
      </trkpt>
      <trkpt lat="4.652891" lon="-74.938148">
        <ele>413.83032</ele>
        <time>2021-11-14T12:05:59Z</time>
      </trkpt>
      <trkpt lat="4.653013" lon="-74.938232">
        <ele>414.57202</ele>
        <time>2021-11-14T12:06:00Z</time>
      </trkpt>
      <trkpt lat="4.65314" lon="-74.938316">
        <ele>414.75293</ele>
        <time>2021-11-14T12:06:01Z</time>
      </trkpt>
      <trkpt lat="4.65329" lon="-74.938416">
        <ele>415.00647</ele>
        <time>2021-11-14T12:06:02Z</time>
      </trkpt>
      <trkpt lat="4.653401" lon="-74.938492">
        <ele>416.2765</ele>
        <time>2021-11-14T12:06:03Z</time>
      </trkpt>
      <trkpt lat="4.653531" lon="-74.938583">
        <ele>416.5232</ele>
        <time>2021-11-14T12:06:04Z</time>
      </trkpt>
      <trkpt lat="4.653664" lon="-74.938675">
        <ele>417.19592</ele>
        <time>2021-11-14T12:06:05Z</time>
      </trkpt>
      <trkpt lat="4.653821" lon="-74.938782">
        <ele>416.74756</ele>
        <time>2021-11-14T12:06:06Z</time>
      </trkpt>
      <trkpt lat="4.653821" lon="-74.938782">
        <ele>417.32886</ele>
        <time>2021-11-14T12:06:07Z</time>
      </trkpt>
      <trkpt lat="4.65398" lon="-74.938889">
        <ele>417.7116</ele>
        <time>2021-11-14T12:06:08Z</time>
      </trkpt>
      <trkpt lat="4.654132" lon="-74.938995">
        <ele>417.12042</ele>
        <time>2021-11-14T12:06:09Z</time>
      </trkpt>
      <trkpt lat="4.654243" lon="-74.939072">
        <ele>417.82092</ele>
        <time>2021-11-14T12:06:10Z</time>
      </trkpt>
      <trkpt lat="4.654342" lon="-74.93914">
        <ele>418.46466</ele>
        <time>2021-11-14T12:06:11Z</time>
      </trkpt>
      <trkpt lat="4.654499" lon="-74.93924">
        <ele>419.1159</ele>
        <time>2021-11-14T12:06:12Z</time>
      </trkpt>
      <trkpt lat="4.654611" lon="-74.939323">
        <ele>419.63715</ele>
        <time>2021-11-14T12:06:13Z</time>
      </trkpt>
      <trkpt lat="4.654741" lon="-74.939407">
        <ele>419.39526</ele>
        <time>2021-11-14T12:06:14Z</time>
      </trkpt>
      <trkpt lat="4.654866" lon="-74.939491">
        <ele>420.37775</ele>
        <time>2021-11-14T12:06:15Z</time>
      </trkpt>
      <trkpt lat="4.655007" lon="-74.93959">
        <ele>420.67175</ele>
        <time>2021-11-14T12:06:16Z</time>
      </trkpt>
      <trkpt lat="4.655153" lon="-74.93969">
        <ele>420.7268</ele>
        <time>2021-11-14T12:06:17Z</time>
      </trkpt>
      <trkpt lat="4.655279" lon="-74.939774">
        <ele>421.9181</ele>
        <time>2021-11-14T12:06:18Z</time>
      </trkpt>
      <trkpt lat="4.655418" lon="-74.939873">
        <ele>422.9906</ele>
        <time>2021-11-14T12:06:19Z</time>
      </trkpt>
      <trkpt lat="4.655555" lon="-74.939964">
        <ele>423.0244</ele>
        <time>2021-11-14T12:06:20Z</time>
      </trkpt>
      <trkpt lat="4.655684" lon="-74.940048">
        <ele>422.9983</ele>
        <time>2021-11-14T12:06:21Z</time>
      </trkpt>
      <trkpt lat="4.655846" lon="-74.940163">
        <ele>423.5338</ele>
        <time>2021-11-14T12:06:22Z</time>
      </trkpt>
      <trkpt lat="4.656063" lon="-74.940308">
        <ele>424.4773</ele>
        <time>2021-11-14T12:06:23Z</time>
      </trkpt>
      <trkpt lat="4.656195" lon="-74.940399">
        <ele>424.51062</ele>
        <time>2021-11-14T12:06:24Z</time>
      </trkpt>
      <trkpt lat="4.656385" lon="-74.940529">
        <ele>425.48145</ele>
        <time>2021-11-14T12:06:25Z</time>
      </trkpt>
      <trkpt lat="4.656563" lon="-74.940643">
        <ele>426.72205</ele>
        <time>2021-11-14T12:06:26Z</time>
      </trkpt>
      <trkpt lat="4.656721" lon="-74.940735">
        <ele>426.44476</ele>
        <time>2021-11-14T12:06:27Z</time>
      </trkpt>
      <trkpt lat="4.656908" lon="-74.940857">
        <ele>428.62463</ele>
        <time>2021-11-14T12:06:28Z</time>
      </trkpt>
      <trkpt lat="4.657084" lon="-74.940964">
        <ele>428.7417</ele>
        <time>2021-11-14T12:06:29Z</time>
      </trkpt>
      <trkpt lat="4.657249" lon="-74.941071">
        <ele>429.61163</ele>
        <time>2021-11-14T12:06:31Z</time>
      </trkpt>
      <trkpt lat="4.657412" lon="-74.94117">
        <ele>429.87598</ele>
        <time>2021-11-14T12:06:32Z</time>
      </trkpt>
      <trkpt lat="4.657584" lon="-74.941284">
        <ele>430.32275</ele>
        <time>2021-11-14T12:06:33Z</time>
      </trkpt>
      <trkpt lat="4.657738" lon="-74.941383">
        <ele>430.43646</ele>
        <time>2021-11-14T12:06:34Z</time>
      </trkpt>
      <trkpt lat="4.657899" lon="-74.941498">
        <ele>431.67883</ele>
        <time>2021-11-14T12:06:35Z</time>
      </trkpt>
      <trkpt lat="4.658062" lon="-74.941612">
        <ele>432.31396</ele>
        <time>2021-11-14T12:06:36Z</time>
      </trkpt>
      <trkpt lat="4.658062" lon="-74.941612">
        <ele>432.5929</ele>
        <time>2021-11-14T12:06:37Z</time>
      </trkpt>
      <trkpt lat="4.658223" lon="-74.941719">
        <ele>433.43616</ele>
        <time>2021-11-14T12:06:38Z</time>
      </trkpt>
      <trkpt lat="4.658536" lon="-74.94194">
        <ele>434.19324</ele>
        <time>2021-11-14T12:06:39Z</time>
      </trkpt>
      <trkpt lat="4.658698" lon="-74.942047">
        <ele>433.98077</ele>
        <time>2021-11-14T12:06:40Z</time>
      </trkpt>
      <trkpt lat="4.658872" lon="-74.942169">
        <ele>433.5686</ele>
        <time>2021-11-14T12:06:41Z</time>
      </trkpt>
      <trkpt lat="4.659035" lon="-74.942284">
        <ele>433.83716</ele>
        <time>2021-11-14T12:06:42Z</time>
      </trkpt>
      <trkpt lat="4.659194" lon="-74.94239">
        <ele>433.92065</ele>
        <time>2021-11-14T12:06:43Z</time>
      </trkpt>
      <trkpt lat="4.659362" lon="-74.942505">
        <ele>434.14417</ele>
        <time>2021-11-14T12:06:44Z</time>
      </trkpt>
      <trkpt lat="4.659539" lon="-74.942627">
        <ele>434.43677</ele>
        <time>2021-11-14T12:06:45Z</time>
      </trkpt>
      <trkpt lat="4.6597" lon="-74.942741">
        <ele>434.93823</ele>
        <time>2021-11-14T12:06:46Z</time>
      </trkpt>
      <trkpt lat="4.659872" lon="-74.942856">
        <ele>435.58923</ele>
        <time>2021-11-14T12:06:47Z</time>
      </trkpt>
      <trkpt lat="4.660043" lon="-74.94297">
        <ele>435.82568</ele>
        <time>2021-11-14T12:06:48Z</time>
      </trkpt>
      <trkpt lat="4.660216" lon="-74.943092">
        <ele>435.9466</ele>
        <time>2021-11-14T12:06:49Z</time>
      </trkpt>
      <trkpt lat="4.660388" lon="-74.943214">
        <ele>436.00012</ele>
        <time>2021-11-14T12:06:50Z</time>
      </trkpt>
      <trkpt lat="4.660564" lon="-74.943329">
        <ele>436.41406</ele>
        <time>2021-11-14T12:06:51Z</time>
      </trkpt>
      <trkpt lat="4.660725" lon="-74.943443">
        <ele>436.92377</ele>
        <time>2021-11-14T12:06:52Z</time>
      </trkpt>
      <trkpt lat="4.660914" lon="-74.943573">
        <ele>436.59058</ele>
        <time>2021-11-14T12:06:53Z</time>
      </trkpt>
      <trkpt lat="4.661073" lon="-74.94368">
        <ele>437.10815</ele>
        <time>2021-11-14T12:06:54Z</time>
      </trkpt>
      <trkpt lat="4.66127" lon="-74.943817">
        <ele>437.4469</ele>
        <time>2021-11-14T12:06:55Z</time>
      </trkpt>
      <trkpt lat="4.66143" lon="-74.943932">
        <ele>438.34863</ele>
        <time>2021-11-14T12:06:56Z</time>
      </trkpt>
      <trkpt lat="4.661601" lon="-74.944046">
        <ele>438.71118</ele>
        <time>2021-11-14T12:06:57Z</time>
      </trkpt>
      <trkpt lat="4.661771" lon="-74.94416">
        <ele>439.28174</ele>
        <time>2021-11-14T12:06:58Z</time>
      </trkpt>
      <trkpt lat="4.661956" lon="-74.94429">
        <ele>440.14972</ele>
        <time>2021-11-14T12:06:59Z</time>
      </trkpt>
      <trkpt lat="4.662145" lon="-74.94442">
        <ele>439.84058</ele>
        <time>2021-11-14T12:07:00Z</time>
      </trkpt>
      <trkpt lat="4.662321" lon="-74.944542">
        <ele>440.43616</ele>
        <time>2021-11-14T12:07:01Z</time>
      </trkpt>
      <trkpt lat="4.6625" lon="-74.944664">
        <ele>440.8283</ele>
        <time>2021-11-14T12:07:02Z</time>
      </trkpt>
      <trkpt lat="4.662661" lon="-74.944778">
        <ele>441.6084</ele>
        <time>2021-11-14T12:07:03Z</time>
      </trkpt>
      <trkpt lat="4.662817" lon="-74.944885">
        <ele>441.96802</ele>
        <time>2021-11-14T12:07:04Z</time>
      </trkpt>
      <trkpt lat="4.66298" lon="-74.944992">
        <ele>442.38556</ele>
        <time>2021-11-14T12:07:05Z</time>
      </trkpt>
      <trkpt lat="4.663168" lon="-74.945122">
        <ele>443.27588</ele>
        <time>2021-11-14T12:07:06Z</time>
      </trkpt>
      <trkpt lat="4.663318" lon="-74.945229">
        <ele>443.8888</ele>
        <time>2021-11-14T12:07:07Z</time>
      </trkpt>
      <trkpt lat="4.663318" lon="-74.945229">
        <ele>444.07092</ele>
        <time>2021-11-14T12:07:08Z</time>
      </trkpt>
      <trkpt lat="4.663487" lon="-74.945351">
        <ele>444.11774</ele>
        <time>2021-11-14T12:07:09Z</time>
      </trkpt>
      <trkpt lat="4.663649" lon="-74.945457">
        <ele>445.0755</ele>
        <time>2021-11-14T12:07:10Z</time>
      </trkpt>
      <trkpt lat="4.663804" lon="-74.945564">
        <ele>445.3153</ele>
        <time>2021-11-14T12:07:11Z</time>
      </trkpt>
      <trkpt lat="4.663981" lon="-74.945694">
        <ele>445.91644</ele>
        <time>2021-11-14T12:07:12Z</time>
      </trkpt>
      <trkpt lat="4.664152" lon="-74.945808">
        <ele>445.87213</ele>
        <time>2021-11-14T12:07:13Z</time>
      </trkpt>
      <trkpt lat="4.664286" lon="-74.945908">
        <ele>445.95715</ele>
        <time>2021-11-14T12:07:14Z</time>
      </trkpt>
      <trkpt lat="4.664413" lon="-74.945992">
        <ele>446.1659</ele>
        <time>2021-11-14T12:07:15Z</time>
      </trkpt>
      <trkpt lat="4.664523" lon="-74.946068">
        <ele>446.22668</ele>
        <time>2021-11-14T12:07:16Z</time>
      </trkpt>
      <trkpt lat="4.66466" lon="-74.946167">
        <ele>446.43726</ele>
        <time>2021-11-14T12:07:17Z</time>
      </trkpt>
      <trkpt lat="4.66484" lon="-74.946289">
        <ele>446.61975</ele>
        <time>2021-11-14T12:07:18Z</time>
      </trkpt>
      <trkpt lat="4.664997" lon="-74.946373">
        <ele>446.6928</ele>
        <time>2021-11-14T12:07:19Z</time>
      </trkpt>
      <trkpt lat="4.665149" lon="-74.946449">
        <ele>447.01794</ele>
        <time>2021-11-14T12:07:20Z</time>
      </trkpt>
      <trkpt lat="4.665348" lon="-74.94651">
        <ele>447.15442</ele>
        <time>2021-11-14T12:07:21Z</time>
      </trkpt>
      <trkpt lat="4.665539" lon="-74.946556">
        <ele>447.83545</ele>
        <time>2021-11-14T12:07:22Z</time>
      </trkpt>
      <trkpt lat="4.665684" lon="-74.946579">
        <ele>448.3673</ele>
        <time>2021-11-14T12:07:23Z</time>
      </trkpt>
      <trkpt lat="4.665905" lon="-74.946617">
        <ele>449.36194</ele>
        <time>2021-11-14T12:07:24Z</time>
      </trkpt>
      <trkpt lat="4.666121" lon="-74.946648">
        <ele>449.815</ele>
        <time>2021-11-14T12:07:25Z</time>
      </trkpt>
      <trkpt lat="4.666346" lon="-74.946686">
        <ele>450.78577</ele>
        <time>2021-11-14T12:07:26Z</time>
      </trkpt>
      <trkpt lat="4.666573" lon="-74.946724">
        <ele>450.8333</ele>
        <time>2021-11-14T12:07:27Z</time>
      </trkpt>
      <trkpt lat="4.66679" lon="-74.946762">
        <ele>451.47632</ele>
        <time>2021-11-14T12:07:28Z</time>
      </trkpt>
      <trkpt lat="4.666981" lon="-74.946793">
        <ele>452.38013</ele>
        <time>2021-11-14T12:07:29Z</time>
      </trkpt>
      <trkpt lat="4.667166" lon="-74.946823">
        <ele>452.79376</ele>
        <time>2021-11-14T12:07:30Z</time>
      </trkpt>
      <trkpt lat="4.667365" lon="-74.946854">
        <ele>453.6864</ele>
        <time>2021-11-14T12:07:31Z</time>
      </trkpt>
      <trkpt lat="4.667548" lon="-74.946884">
        <ele>454.20264</ele>
        <time>2021-11-14T12:07:32Z</time>
      </trkpt>
      <trkpt lat="4.667697" lon="-74.946907">
        <ele>454.7268</ele>
        <time>2021-11-14T12:07:33Z</time>
      </trkpt>
      <trkpt lat="4.667876" lon="-74.946938">
        <ele>454.96094</ele>
        <time>2021-11-14T12:07:34Z</time>
      </trkpt>
      <trkpt lat="4.667876" lon="-74.946938">
        <ele>455.68896</ele>
        <time>2021-11-14T12:07:35Z</time>
      </trkpt>
      <trkpt lat="4.668089" lon="-74.946968">
        <ele>455.67444</ele>
        <time>2021-11-14T12:07:36Z</time>
      </trkpt>
      <trkpt lat="4.668291" lon="-74.947006">
        <ele>456.11462</ele>
        <time>2021-11-14T12:07:37Z</time>
      </trkpt>
      <trkpt lat="4.668483" lon="-74.947037">
        <ele>456.6646</ele>
        <time>2021-11-14T12:07:39Z</time>
      </trkpt>
      <trkpt lat="4.668706" lon="-74.947067">
        <ele>457.2932</ele>
        <time>2021-11-14T12:07:40Z</time>
      </trkpt>
      <trkpt lat="4.668933" lon="-74.947105">
        <ele>457.97552</ele>
        <time>2021-11-14T12:07:41Z</time>
      </trkpt>
      <trkpt lat="4.669129" lon="-74.947144">
        <ele>458.39685</ele>
        <time>2021-11-14T12:07:42Z</time>
      </trkpt>
      <trkpt lat="4.669328" lon="-74.947174">
        <ele>459.04883</ele>
        <time>2021-11-14T12:07:43Z</time>
      </trkpt>
      <trkpt lat="4.669524" lon="-74.947205">
        <ele>459.74237</ele>
        <time>2021-11-14T12:07:44Z</time>
      </trkpt>
      <trkpt lat="4.669734" lon="-74.947243">
        <ele>460.87024</ele>
        <time>2021-11-14T12:07:45Z</time>
      </trkpt>
      <trkpt lat="4.669873" lon="-74.947258">
        <ele>461.30237</ele>
        <time>2021-11-14T12:07:46Z</time>
      </trkpt>
      <trkpt lat="4.669928" lon="-74.947273">
        <ele>461.4712</ele>
        <time>2021-11-14T12:07:47Z</time>
      </trkpt>
      <trkpt lat="4.670034" lon="-74.947289">
        <ele>462.07263</ele>
        <time>2021-11-14T12:07:48Z</time>
      </trkpt>
      <trkpt lat="4.670138" lon="-74.947304">
        <ele>462.62585</ele>
        <time>2021-11-14T12:07:49Z</time>
      </trkpt>
      <trkpt lat="4.670177" lon="-74.947311">
        <ele>462.432</ele>
        <time>2021-11-14T12:07:50Z</time>
      </trkpt>
      <trkpt lat="4.67018" lon="-74.947311">
        <ele>463.22656</ele>
        <time>2021-11-14T12:07:51Z</time>
      </trkpt>
      <trkpt lat="4.670298" lon="-74.947365">
        <ele>463.9749</ele>
        <time>2021-11-14T12:07:52Z</time>
      </trkpt>
      <trkpt lat="4.670413" lon="-74.947441">
        <ele>463.83636</ele>
        <time>2021-11-14T12:07:53Z</time>
      </trkpt>
      <trkpt lat="4.670464" lon="-74.947479">
        <ele>463.9828</ele>
        <time>2021-11-14T12:07:54Z</time>
      </trkpt>
      <trkpt lat="4.670485" lon="-74.947525">
        <ele>463.8911</ele>
        <time>2021-11-14T12:07:55Z</time>
      </trkpt>
      <trkpt lat="4.670515" lon="-74.947586">
        <ele>464.03064</ele>
        <time>2021-11-14T12:07:56Z</time>
      </trkpt>
      <trkpt lat="4.67052" lon="-74.94767">
        <ele>464.4342</ele>
        <time>2021-11-14T12:07:57Z</time>
      </trkpt>
      <trkpt lat="4.670526" lon="-74.947823">
        <ele>465.05005</ele>
        <time>2021-11-14T12:07:58Z</time>
      </trkpt>
      <trkpt lat="4.670527" lon="-74.947861">
        <ele>464.4922</ele>
        <time>2021-11-14T12:07:59Z</time>
      </trkpt>
      <trkpt lat="4.67053" lon="-74.947914">
        <ele>464.2649</ele>
        <time>2021-11-14T12:08:00Z</time>
      </trkpt>
      <trkpt lat="4.670532" lon="-74.947975">
        <ele>463.91528</ele>
        <time>2021-11-14T12:08:01Z</time>
      </trkpt>
      <trkpt lat="4.670533" lon="-74.947983">
        <ele>464.0152</ele>
        <time>2021-11-14T12:08:02Z</time>
      </trkpt>
      <trkpt lat="4.670533" lon="-74.94799">
        <ele>464.46588</ele>
        <time>2021-11-14T12:08:03Z</time>
      </trkpt>
      <trkpt lat="4.670534" lon="-74.948029">
        <ele>464.5912</ele>
        <time>2021-11-14T12:08:04Z</time>
      </trkpt>
      <trkpt lat="4.670538" lon="-74.948128">
        <ele>464.5398</ele>
        <time>2021-11-14T12:08:05Z</time>
      </trkpt>
      <trkpt lat="4.670543" lon="-74.94825">
        <ele>464.6463</ele>
        <time>2021-11-14T12:08:06Z</time>
      </trkpt>
      <trkpt lat="4.670543" lon="-74.94825">
        <ele>464.5431</ele>
        <time>2021-11-14T12:08:07Z</time>
      </trkpt>
      <trkpt lat="4.670549" lon="-74.948387">
        <ele>464.48187</ele>
        <time>2021-11-14T12:08:08Z</time>
      </trkpt>
      <trkpt lat="4.670554" lon="-74.948502">
        <ele>464.8186</ele>
        <time>2021-11-14T12:08:09Z</time>
      </trkpt>
      <trkpt lat="4.670552" lon="-74.948608">
        <ele>464.3647</ele>
        <time>2021-11-14T12:08:10Z</time>
      </trkpt>
      <trkpt lat="4.670549" lon="-74.9487">
        <ele>464.39777</ele>
        <time>2021-11-14T12:08:11Z</time>
      </trkpt>
      <trkpt lat="4.670521" lon="-74.948769">
        <ele>465.00818</ele>
        <time>2021-11-14T12:08:12Z</time>
      </trkpt>
      <trkpt lat="4.670473" lon="-74.948845">
        <ele>465.21472</ele>
        <time>2021-11-14T12:08:13Z</time>
      </trkpt>
      <trkpt lat="4.670376" lon="-74.948936">
        <ele>464.8781</ele>
        <time>2021-11-14T12:08:14Z</time>
      </trkpt>
      <trkpt lat="4.670292" lon="-74.948967">
        <ele>464.98706</ele>
        <time>2021-11-14T12:08:15Z</time>
      </trkpt>
      <trkpt lat="4.670204" lon="-74.94899">
        <ele>466.4325</ele>
        <time>2021-11-14T12:08:16Z</time>
      </trkpt>
      <trkpt lat="4.670107" lon="-74.948975">
        <ele>467.14893</ele>
        <time>2021-11-14T12:08:17Z</time>
      </trkpt>
      <trkpt lat="4.670092" lon="-74.948967">
        <ele>467.44098</ele>
        <time>2021-11-14T12:08:18Z</time>
      </trkpt>
      <trkpt lat="4.670087" lon="-74.948967">
        <ele>467.71423</ele>
        <time>2021-11-14T12:08:19Z</time>
      </trkpt>
      <trkpt lat="4.670036" lon="-74.948959">
        <ele>467.84143</ele>
        <time>2021-11-14T12:08:20Z</time>
      </trkpt>
      <trkpt lat="4.669912" lon="-74.948944">
        <ele>468.2959</ele>
        <time>2021-11-14T12:08:21Z</time>
      </trkpt>
      <trkpt lat="4.669815" lon="-74.948959">
        <ele>468.8933</ele>
        <time>2021-11-14T12:08:22Z</time>
      </trkpt>
      <trkpt lat="4.669727" lon="-74.94899">
        <ele>469.39417</ele>
        <time>2021-11-14T12:08:23Z</time>
      </trkpt>
      <trkpt lat="4.669638" lon="-74.949051">
        <ele>469.67133</ele>
        <time>2021-11-14T12:08:24Z</time>
      </trkpt>
      <trkpt lat="4.669557" lon="-74.94912">
        <ele>470.51843</ele>
        <time>2021-11-14T12:08:25Z</time>
      </trkpt>
      <trkpt lat="4.669461" lon="-74.949203">
        <ele>471.24744</ele>
        <time>2021-11-14T12:08:26Z</time>
      </trkpt>
      <trkpt lat="4.669337" lon="-74.94931">
        <ele>471.068</ele>
        <time>2021-11-14T12:08:28Z</time>
      </trkpt>
      <trkpt lat="4.669231" lon="-74.949402">
        <ele>472.16815</ele>
        <time>2021-11-14T12:08:29Z</time>
      </trkpt>
      <trkpt lat="4.669231" lon="-74.949402">
        <ele>472.5974</ele>
        <time>2021-11-14T12:08:30Z</time>
      </trkpt>
      <trkpt lat="4.669128" lon="-74.949471">
        <ele>472.63916</ele>
        <time>2021-11-14T12:08:31Z</time>
      </trkpt>
      <trkpt lat="4.669038" lon="-74.949524">
        <ele>472.51917</ele>
        <time>2021-11-14T12:08:32Z</time>
      </trkpt>
      <trkpt lat="4.668948" lon="-74.94957">
        <ele>474.75763</ele>
        <time>2021-11-14T12:08:33Z</time>
      </trkpt>
      <trkpt lat="4.668849" lon="-74.949585">
        <ele>475.75037</ele>
        <time>2021-11-14T12:08:34Z</time>
      </trkpt>
      <trkpt lat="4.668695" lon="-74.949608">
        <ele>475.96826</ele>
        <time>2021-11-14T12:08:35Z</time>
      </trkpt>
      <trkpt lat="4.668545" lon="-74.949623">
        <ele>476.90283</ele>
        <time>2021-11-14T12:08:36Z</time>
      </trkpt>
      <trkpt lat="4.668423" lon="-74.949631">
        <ele>477.6438</ele>
        <time>2021-11-14T12:08:37Z</time>
      </trkpt>
      <trkpt lat="4.668291" lon="-74.949615">
        <ele>478.46216</ele>
        <time>2021-11-14T12:08:38Z</time>
      </trkpt>
      <trkpt lat="4.668161" lon="-74.949608">
        <ele>479.52393</ele>
        <time>2021-11-14T12:08:39Z</time>
      </trkpt>
      <trkpt lat="4.668025" lon="-74.949593">
        <ele>480.76367</ele>
        <time>2021-11-14T12:08:40Z</time>
      </trkpt>
      <trkpt lat="4.667907" lon="-74.949585">
        <ele>481.71466</ele>
        <time>2021-11-14T12:08:41Z</time>
      </trkpt>
      <trkpt lat="4.667755" lon="-74.94957">
        <ele>481.71466</ele>
        <time>2021-11-14T12:08:42Z</time>
      </trkpt>
      <trkpt lat="4.667591" lon="-74.94957">
        <ele>482.7777</ele>
        <time>2021-11-14T12:08:43Z</time>
      </trkpt>
      <trkpt lat="4.667481" lon="-74.949593">
        <ele>484.40356</ele>
        <time>2021-11-14T12:08:44Z</time>
      </trkpt>
      <trkpt lat="4.667394" lon="-74.949608">
        <ele>485.61108</ele>
        <time>2021-11-14T12:08:45Z</time>
      </trkpt>
      <trkpt lat="4.667195" lon="-74.949669">
        <ele>487.13208</ele>
        <time>2021-11-14T12:08:46Z</time>
      </trkpt>
      <trkpt lat="4.667038" lon="-74.949722">
        <ele>487.13208</ele>
        <time>2021-11-14T12:08:47Z</time>
      </trkpt>
      <trkpt lat="4.666865" lon="-74.949776">
        <ele>489.53772</ele>
        <time>2021-11-14T12:08:48Z</time>
      </trkpt>
      <trkpt lat="4.666718" lon="-74.949821">
        <ele>490.79736</ele>
        <time>2021-11-14T12:08:49Z</time>
      </trkpt>
      <trkpt lat="4.666551" lon="-74.949905">
        <ele>491.9466</ele>
        <time>2021-11-14T12:08:50Z</time>
      </trkpt>
      <trkpt lat="4.666398" lon="-74.949982">
        <ele>493.63635</ele>
        <time>2021-11-14T12:08:51Z</time>
      </trkpt>
      <trkpt lat="4.666295" lon="-74.950027">
        <ele>494.3656</ele>
        <time>2021-11-14T12:08:52Z</time>
      </trkpt>
      <trkpt lat="4.66621" lon="-74.950073">
        <ele>495.05432</ele>
        <time>2021-11-14T12:08:53Z</time>
      </trkpt>
      <trkpt lat="4.666163" lon="-74.950172">
        <ele>495.40918</ele>
        <time>2021-11-14T12:08:54Z</time>
      </trkpt>
      <trkpt lat="4.666124" lon="-74.95031">
        <ele>497.03235</ele>
        <time>2021-11-14T12:08:55Z</time>
      </trkpt>
      <trkpt lat="4.666132" lon="-74.950508">
        <ele>498.48077</ele>
        <time>2021-11-14T12:08:56Z</time>
      </trkpt>
      <trkpt lat="4.666168" lon="-74.950615">
        <ele>499.1709</ele>
        <time>2021-11-14T12:08:57Z</time>
      </trkpt>
      <trkpt lat="4.666236" lon="-74.950737">
        <ele>499.5514</ele>
        <time>2021-11-14T12:08:58Z</time>
      </trkpt>
      <trkpt lat="4.666325" lon="-74.95089">
        <ele>500.6775</ele>
        <time>2021-11-14T12:08:59Z</time>
      </trkpt>
      <trkpt lat="4.666408" lon="-74.951035">
        <ele>500.8202</ele>
        <time>2021-11-14T12:09:00Z</time>
      </trkpt>
      <trkpt lat="4.666477" lon="-74.951157">
        <ele>501.91272</ele>
        <time>2021-11-14T12:09:01Z</time>
      </trkpt>
      <trkpt lat="4.666541" lon="-74.951271">
        <ele>502.1093</ele>
        <time>2021-11-14T12:09:02Z</time>
      </trkpt>
      <trkpt lat="4.666598" lon="-74.951355">
        <ele>502.70447</ele>
        <time>2021-11-14T12:09:03Z</time>
      </trkpt>
      <trkpt lat="4.666653" lon="-74.951424">
        <ele>503.4898</ele>
        <time>2021-11-14T12:09:04Z</time>
      </trkpt>
      <trkpt lat="4.666653" lon="-74.951424">
        <ele>504.9032</ele>
        <time>2021-11-14T12:09:05Z</time>
      </trkpt>
      <trkpt lat="4.66673" lon="-74.951477">
        <ele>505.2279</ele>
        <time>2021-11-14T12:09:06Z</time>
      </trkpt>
      <trkpt lat="4.666853" lon="-74.951508">
        <ele>506.1665</ele>
        <time>2021-11-14T12:09:07Z</time>
      </trkpt>
      <trkpt lat="4.667" lon="-74.95153">
        <ele>506.818</ele>
        <time>2021-11-14T12:09:08Z</time>
      </trkpt>
      <trkpt lat="4.66716" lon="-74.951553">
        <ele>508.31293</ele>
        <time>2021-11-14T12:09:09Z</time>
      </trkpt>
      <trkpt lat="4.667308" lon="-74.951591">
        <ele>508.9392</ele>
        <time>2021-11-14T12:09:10Z</time>
      </trkpt>
      <trkpt lat="4.667483" lon="-74.951683">
        <ele>509.7887</ele>
        <time>2021-11-14T12:09:11Z</time>
      </trkpt>
      <trkpt lat="4.667636" lon="-74.951759">
        <ele>509.581</ele>
        <time>2021-11-14T12:09:12Z</time>
      </trkpt>
      <trkpt lat="4.667789" lon="-74.951843">
        <ele>510.89197</ele>
        <time>2021-11-14T12:09:13Z</time>
      </trkpt>
      <trkpt lat="4.667868" lon="-74.951859">
        <ele>511.0075</ele>
        <time>2021-11-14T12:09:14Z</time>
      </trkpt>
      <trkpt lat="4.667993" lon="-74.951881">
        <ele>511.53687</ele>
        <time>2021-11-14T12:09:15Z</time>
      </trkpt>
      <trkpt lat="4.668104" lon="-74.951904">
        <ele>512.81396</ele>
        <time>2021-11-14T12:09:16Z</time>
      </trkpt>
      <trkpt lat="4.668241" lon="-74.951927">
        <ele>513.68463</ele>
        <time>2021-11-14T12:09:17Z</time>
      </trkpt>
      <trkpt lat="4.668394" lon="-74.951912">
        <ele>514.5775</ele>
        <time>2021-11-14T12:09:18Z</time>
      </trkpt>
      <trkpt lat="4.66858" lon="-74.951889">
        <ele>516.1313</ele>
        <time>2021-11-14T12:09:19Z</time>
      </trkpt>
      <trkpt lat="4.668742" lon="-74.951866">
        <ele>517.18225</ele>
        <time>2021-11-14T12:09:20Z</time>
      </trkpt>
      <trkpt lat="4.668862" lon="-74.951843">
        <ele>517.7757</ele>
        <time>2021-11-14T12:09:21Z</time>
      </trkpt>
      <trkpt lat="4.668949" lon="-74.951851">
        <ele>518.9002</ele>
        <time>2021-11-14T12:09:22Z</time>
      </trkpt>
      <trkpt lat="4.669071" lon="-74.951866">
        <ele>519.25116</ele>
        <time>2021-11-14T12:09:23Z</time>
      </trkpt>
      <trkpt lat="4.669164" lon="-74.951881">
        <ele>519.68005</ele>
        <time>2021-11-14T12:09:24Z</time>
      </trkpt>
      <trkpt lat="4.669297" lon="-74.951942">
        <ele>520.5665</ele>
        <time>2021-11-14T12:09:25Z</time>
      </trkpt>
      <trkpt lat="4.66944" lon="-74.952003">
        <ele>522.1961</ele>
        <time>2021-11-14T12:09:26Z</time>
      </trkpt>
      <trkpt lat="4.669542" lon="-74.952042">
        <ele>523.118</ele>
        <time>2021-11-14T12:09:27Z</time>
      </trkpt>
      <trkpt lat="4.669665" lon="-74.952087">
        <ele>524.0359</ele>
        <time>2021-11-14T12:09:28Z</time>
      </trkpt>
      <trkpt lat="4.669788" lon="-74.952133">
        <ele>525.3003</ele>
        <time>2021-11-14T12:09:29Z</time>
      </trkpt>
      <trkpt lat="4.669877" lon="-74.952187">
        <ele>526.6565</ele>
        <time>2021-11-14T12:09:30Z</time>
      </trkpt>
      <trkpt lat="4.669945" lon="-74.952255">
        <ele>526.59204</ele>
        <time>2021-11-14T12:09:31Z</time>
      </trkpt>
      <trkpt lat="4.670011" lon="-74.952377">
        <ele>527.6279</ele>
        <time>2021-11-14T12:09:32Z</time>
      </trkpt>
      <trkpt lat="4.670104" lon="-74.952538">
        <ele>529.13745</ele>
        <time>2021-11-14T12:09:34Z</time>
      </trkpt>
      <trkpt lat="4.670104" lon="-74.952538">
        <ele>531.01404</ele>
        <time>2021-11-14T12:09:35Z</time>
      </trkpt>
      <trkpt lat="4.670177" lon="-74.952667">
        <ele>531.81885</ele>
        <time>2021-11-14T12:09:36Z</time>
      </trkpt>
      <trkpt lat="4.670249" lon="-74.952782">
        <ele>533.13135</ele>
        <time>2021-11-14T12:09:37Z</time>
      </trkpt>
      <trkpt lat="4.670327" lon="-74.952888">
        <ele>533.2876</ele>
        <time>2021-11-14T12:09:38Z</time>
      </trkpt>
      <trkpt lat="4.670406" lon="-74.952957">
        <ele>533.32227</ele>
        <time>2021-11-14T12:09:39Z</time>
      </trkpt>
      <trkpt lat="4.670515" lon="-74.953011">
        <ele>534.4243</ele>
        <time>2021-11-14T12:09:40Z</time>
      </trkpt>
      <trkpt lat="4.670637" lon="-74.953079">
        <ele>537.02</ele>
        <time>2021-11-14T12:09:41Z</time>
      </trkpt>
      <trkpt lat="4.670767" lon="-74.953156">
        <ele>538.6848</ele>
        <time>2021-11-14T12:09:42Z</time>
      </trkpt>
      <trkpt lat="4.670874" lon="-74.953217">
        <ele>540.0624</ele>
        <time>2021-11-14T12:09:43Z</time>
      </trkpt>
      <trkpt lat="4.671042" lon="-74.953392">
        <ele>541.6887</ele>
        <time>2021-11-14T12:09:44Z</time>
      </trkpt>
      <trkpt lat="4.671126" lon="-74.953522">
        <ele>542.0436</ele>
        <time>2021-11-14T12:09:45Z</time>
      </trkpt>
      <trkpt lat="4.671154" lon="-74.953621">
        <ele>542.48145</ele>
        <time>2021-11-14T12:09:46Z</time>
      </trkpt>
      <trkpt lat="4.671138" lon="-74.953697">
        <ele>543.1848</ele>
        <time>2021-11-14T12:09:47Z</time>
      </trkpt>
      <trkpt lat="4.671118" lon="-74.953789">
        <ele>543.7239</ele>
        <time>2021-11-14T12:09:48Z</time>
      </trkpt>
      <trkpt lat="4.671056" lon="-74.953873">
        <ele>544.5134</ele>
        <time>2021-11-14T12:09:49Z</time>
      </trkpt>
      <trkpt lat="4.670971" lon="-74.953995">
        <ele>544.4065</ele>
        <time>2021-11-14T12:09:50Z</time>
      </trkpt>
      <trkpt lat="4.670886" lon="-74.954109">
        <ele>544.6572</ele>
        <time>2021-11-14T12:09:51Z</time>
      </trkpt>
      <trkpt lat="4.670813" lon="-74.954224">
        <ele>545.13696</ele>
        <time>2021-11-14T12:09:52Z</time>
      </trkpt>
      <trkpt lat="4.670793" lon="-74.954323">
        <ele>546.463</ele>
        <time>2021-11-14T12:09:53Z</time>
      </trkpt>
      <trkpt lat="4.670782" lon="-74.954422">
        <ele>547.76294</ele>
        <time>2021-11-14T12:09:54Z</time>
      </trkpt>
      <trkpt lat="4.670807" lon="-74.954544">
        <ele>548.7704</ele>
        <time>2021-11-14T12:09:55Z</time>
      </trkpt>
      <trkpt lat="4.670841" lon="-74.954697">
        <ele>550.3097</ele>
        <time>2021-11-14T12:09:56Z</time>
      </trkpt>
      <trkpt lat="4.670893" lon="-74.954819">
        <ele>551.65796</ele>
        <time>2021-11-14T12:09:57Z</time>
      </trkpt>
      <trkpt lat="4.670981" lon="-74.954933">
        <ele>553.2794</ele>
        <time>2021-11-14T12:09:58Z</time>
      </trkpt>
      <trkpt lat="4.671114" lon="-74.955017">
        <ele>554.3904</ele>
        <time>2021-11-14T12:09:59Z</time>
      </trkpt>
      <trkpt lat="4.671273" lon="-74.955078">
        <ele>555.93115</ele>
        <time>2021-11-14T12:10:00Z</time>
      </trkpt>
      <trkpt lat="4.671416" lon="-74.955124">
        <ele>556.65845</ele>
        <time>2021-11-14T12:10:01Z</time>
      </trkpt>
      <trkpt lat="4.671573" lon="-74.955147">
        <ele>557.505</ele>
        <time>2021-11-14T12:10:02Z</time>
      </trkpt>
      <trkpt lat="4.671573" lon="-74.955147">
        <ele>559.1808</ele>
        <time>2021-11-14T12:10:03Z</time>
      </trkpt>
      <trkpt lat="4.671749" lon="-74.95517">
        <ele>560.21655</ele>
        <time>2021-11-14T12:10:04Z</time>
      </trkpt>
      <trkpt lat="4.671943" lon="-74.955193">
        <ele>561.45703</ele>
        <time>2021-11-14T12:10:05Z</time>
      </trkpt>
      <trkpt lat="4.672098" lon="-74.955208">
        <ele>562.9043</ele>
        <time>2021-11-14T12:10:06Z</time>
      </trkpt>
      <trkpt lat="4.67222" lon="-74.955223">
        <ele>563.36475</ele>
        <time>2021-11-14T12:10:07Z</time>
      </trkpt>
      <trkpt lat="4.672319" lon="-74.955231">
        <ele>564.281</ele>
        <time>2021-11-14T12:10:08Z</time>
      </trkpt>
      <trkpt lat="4.672395" lon="-74.955284">
        <ele>564.86646</ele>
        <time>2021-11-14T12:10:09Z</time>
      </trkpt>
      <trkpt lat="4.672467" lon="-74.95536">
        <ele>565.87976</ele>
        <time>2021-11-14T12:10:11Z</time>
      </trkpt>
      <trkpt lat="4.672502" lon="-74.955498">
        <ele>566.3135</ele>
        <time>2021-11-14T12:10:12Z</time>
      </trkpt>
      <trkpt lat="4.6725" lon="-74.955589">
        <ele>566.8323</ele>
        <time>2021-11-14T12:10:13Z</time>
      </trkpt>
      <trkpt lat="4.672427" lon="-74.955704">
        <ele>567.64624</ele>
        <time>2021-11-14T12:10:14Z</time>
      </trkpt>
      <trkpt lat="4.672343" lon="-74.955811">
        <ele>569.30225</ele>
        <time>2021-11-14T12:10:15Z</time>
      </trkpt>
      <trkpt lat="4.672252" lon="-74.955917">
        <ele>569.9429</ele>
        <time>2021-11-14T12:10:16Z</time>
      </trkpt>
      <trkpt lat="4.672145" lon="-74.956055">
        <ele>570.58813</ele>
        <time>2021-11-14T12:10:17Z</time>
      </trkpt>
      <trkpt lat="4.672074" lon="-74.956215">
        <ele>572.54834</ele>
        <time>2021-11-14T12:10:18Z</time>
      </trkpt>
      <trkpt lat="4.672014" lon="-74.956383">
        <ele>573.8844</ele>
        <time>2021-11-14T12:10:19Z</time>
      </trkpt>
      <trkpt lat="4.671936" lon="-74.956589">
        <ele>575.01953</ele>
        <time>2021-11-14T12:10:20Z</time>
      </trkpt>
      <trkpt lat="4.671903" lon="-74.956711">
        <ele>576.31226</ele>
        <time>2021-11-14T12:10:21Z</time>
      </trkpt>
      <trkpt lat="4.6719" lon="-74.956825">
        <ele>577.843</ele>
        <time>2021-11-14T12:10:22Z</time>
      </trkpt>
      <trkpt lat="4.671896" lon="-74.956993">
        <ele>578.0676</ele>
        <time>2021-11-14T12:10:23Z</time>
      </trkpt>
      <trkpt lat="4.671897" lon="-74.957176">
        <ele>580.6941</ele>
        <time>2021-11-14T12:10:24Z</time>
      </trkpt>
      <trkpt lat="4.671851" lon="-74.957451">
        <ele>582.82764</ele>
        <time>2021-11-14T12:10:25Z</time>
      </trkpt>
      <trkpt lat="4.671811" lon="-74.957642">
        <ele>583.91235</ele>
        <time>2021-11-14T12:10:26Z</time>
      </trkpt>
      <trkpt lat="4.671804" lon="-74.957756">
        <ele>585.0737</ele>
        <time>2021-11-14T12:10:27Z</time>
      </trkpt>
      <trkpt lat="4.671799" lon="-74.957863">
        <ele>585.70557</ele>
        <time>2021-11-14T12:10:28Z</time>
      </trkpt>
      <trkpt lat="4.671834" lon="-74.958">
        <ele>586.71155</ele>
        <time>2021-11-14T12:10:29Z</time>
      </trkpt>
      <trkpt lat="4.671834" lon="-74.958">
        <ele>587.40027</ele>
        <time>2021-11-14T12:10:30Z</time>
      </trkpt>
      <trkpt lat="4.671906" lon="-74.95813">
        <ele>588.416</ele>
        <time>2021-11-14T12:10:31Z</time>
      </trkpt>
      <trkpt lat="4.67198" lon="-74.958206">
        <ele>589.49365</ele>
        <time>2021-11-14T12:10:32Z</time>
      </trkpt>
      <trkpt lat="4.672081" lon="-74.958321">
        <ele>590.1448</ele>
        <time>2021-11-14T12:10:33Z</time>
      </trkpt>
      <trkpt lat="4.672198" lon="-74.958443">
        <ele>591.0974</ele>
        <time>2021-11-14T12:10:34Z</time>
      </trkpt>
      <trkpt lat="4.672311" lon="-74.958565">
        <ele>591.5925</ele>
        <time>2021-11-14T12:10:35Z</time>
      </trkpt>
      <trkpt lat="4.672379" lon="-74.958633">
        <ele>592.59827</ele>
        <time>2021-11-14T12:10:36Z</time>
      </trkpt>
      <trkpt lat="4.672452" lon="-74.958725">
        <ele>593.10046</ele>
        <time>2021-11-14T12:10:37Z</time>
      </trkpt>
      <trkpt lat="4.672499" lon="-74.958878">
        <ele>594.58203</ele>
        <time>2021-11-14T12:10:38Z</time>
      </trkpt>
      <trkpt lat="4.672511" lon="-74.959007">
        <ele>596.1084</ele>
        <time>2021-11-14T12:10:39Z</time>
      </trkpt>
      <trkpt lat="4.672493" lon="-74.959198">
        <ele>597.36804</ele>
        <time>2021-11-14T12:10:40Z</time>
      </trkpt>
      <trkpt lat="4.672477" lon="-74.959358">
        <ele>598.6609</ele>
        <time>2021-11-14T12:10:41Z</time>
      </trkpt>
      <trkpt lat="4.672462" lon="-74.959518">
        <ele>599.7163</ele>
        <time>2021-11-14T12:10:42Z</time>
      </trkpt>
      <trkpt lat="4.672448" lon="-74.959625">
        <ele>599.9524</ele>
        <time>2021-11-14T12:10:43Z</time>
      </trkpt>
      <trkpt lat="4.67241" lon="-74.95974">
        <ele>601.4935</ele>
        <time>2021-11-14T12:10:44Z</time>
      </trkpt>
      <trkpt lat="4.672343" lon="-74.959938">
        <ele>601.7959</ele>
        <time>2021-11-14T12:10:45Z</time>
      </trkpt>
      <trkpt lat="4.67228" lon="-74.960129">
        <ele>602.1466</ele>
        <time>2021-11-14T12:10:46Z</time>
      </trkpt>
      <trkpt lat="4.672251" lon="-74.960243">
        <ele>603.72925</ele>
        <time>2021-11-14T12:10:47Z</time>
      </trkpt>
      <trkpt lat="4.672237" lon="-74.96035">
        <ele>604.16284</ele>
        <time>2021-11-14T12:10:48Z</time>
      </trkpt>
      <trkpt lat="4.672235" lon="-74.960495">
        <ele>604.52026</ele>
        <time>2021-11-14T12:10:49Z</time>
      </trkpt>
      <trkpt lat="4.672264" lon="-74.960617">
        <ele>604.76636</ele>
        <time>2021-11-14T12:10:50Z</time>
      </trkpt>
      <trkpt lat="4.672337" lon="-74.960724">
        <ele>604.75415</ele>
        <time>2021-11-14T12:10:51Z</time>
      </trkpt>
      <trkpt lat="4.672408" lon="-74.960831">
        <ele>605.1437</ele>
        <time>2021-11-14T12:10:52Z</time>
      </trkpt>
      <trkpt lat="4.672503" lon="-74.960922">
        <ele>605.551</ele>
        <time>2021-11-14T12:10:53Z</time>
      </trkpt>
      <trkpt lat="4.672626" lon="-74.961037">
        <ele>605.74976</ele>
        <time>2021-11-14T12:10:54Z</time>
      </trkpt>
      <trkpt lat="4.672741" lon="-74.961151">
        <ele>605.49927</ele>
        <time>2021-11-14T12:10:55Z</time>
      </trkpt>
      <trkpt lat="4.67286" lon="-74.961258">
        <ele>605.1013</ele>
        <time>2021-11-14T12:10:56Z</time>
      </trkpt>
      <trkpt lat="4.67298" lon="-74.961372">
        <ele>605.23584</ele>
        <time>2021-11-14T12:10:57Z</time>
      </trkpt>
      <trkpt lat="4.67309" lon="-74.961479">
        <ele>605.75964</ele>
        <time>2021-11-14T12:10:58Z</time>
      </trkpt>
      <trkpt lat="4.673196" lon="-74.961578">
        <ele>605.7311</ele>
        <time>2021-11-14T12:10:59Z</time>
      </trkpt>
      <trkpt lat="4.673284" lon="-74.961662">
        <ele>605.9171</ele>
        <time>2021-11-14T12:11:00Z</time>
      </trkpt>
      <trkpt lat="4.673284" lon="-74.961662">
        <ele>606.5574</ele>
        <time>2021-11-14T12:11:01Z</time>
      </trkpt>
      <trkpt lat="4.673395" lon="-74.961777">
        <ele>606.82764</ele>
        <time>2021-11-14T12:11:02Z</time>
      </trkpt>
      <trkpt lat="4.673485" lon="-74.961891">
        <ele>606.6736</ele>
        <time>2021-11-14T12:11:03Z</time>
      </trkpt>
      <trkpt lat="4.673564" lon="-74.962006">
        <ele>607.3533</ele>
        <time>2021-11-14T12:11:04Z</time>
      </trkpt>
      <trkpt lat="4.673631" lon="-74.962128">
        <ele>607.4446</ele>
        <time>2021-11-14T12:11:06Z</time>
      </trkpt>
      <trkpt lat="4.673709" lon="-74.96228">
        <ele>607.9442</ele>
        <time>2021-11-14T12:11:07Z</time>
      </trkpt>
      <trkpt lat="4.673799" lon="-74.962448">
        <ele>608.7876</ele>
        <time>2021-11-14T12:11:08Z</time>
      </trkpt>
      <trkpt lat="4.673876" lon="-74.962593">
        <ele>608.9773</ele>
        <time>2021-11-14T12:11:09Z</time>
      </trkpt>
      <trkpt lat="4.67396" lon="-74.962753">
        <ele>609.34094</ele>
        <time>2021-11-14T12:11:10Z</time>
      </trkpt>
      <trkpt lat="4.674054" lon="-74.962936">
        <ele>609.8025</ele>
        <time>2021-11-14T12:11:11Z</time>
      </trkpt>
      <trkpt lat="4.674132" lon="-74.963081">
        <ele>610.6946</ele>
        <time>2021-11-14T12:11:12Z</time>
      </trkpt>
      <trkpt lat="4.674231" lon="-74.963272">
        <ele>610.8506</ele>
        <time>2021-11-14T12:11:13Z</time>
      </trkpt>
      <trkpt lat="4.674319" lon="-74.96344">
        <ele>611.0154</ele>
        <time>2021-11-14T12:11:14Z</time>
      </trkpt>
      <trkpt lat="4.674422" lon="-74.963631">
        <ele>611.2217</ele>
        <time>2021-11-14T12:11:15Z</time>
      </trkpt>
      <trkpt lat="4.674507" lon="-74.963791">
        <ele>611.59937</ele>
        <time>2021-11-14T12:11:16Z</time>
      </trkpt>
      <trkpt lat="4.674617" lon="-74.964005">
        <ele>612.3119</ele>
        <time>2021-11-14T12:11:17Z</time>
      </trkpt>
      <trkpt lat="4.674698" lon="-74.964157">
        <ele>612.9343</ele>
        <time>2021-11-14T12:11:18Z</time>
      </trkpt>
      <trkpt lat="4.674752" lon="-74.964302">
        <ele>614.65576</ele>
        <time>2021-11-14T12:11:19Z</time>
      </trkpt>
      <trkpt lat="4.674795" lon="-74.964539">
        <ele>616.9807</ele>
        <time>2021-11-14T12:11:20Z</time>
      </trkpt>
      <trkpt lat="4.674796" lon="-74.964645">
        <ele>617.1144</ele>
        <time>2021-11-14T12:11:21Z</time>
      </trkpt>
      <trkpt lat="4.674778" lon="-74.964806">
        <ele>618.28174</ele>
        <time>2021-11-14T12:11:22Z</time>
      </trkpt>
      <trkpt lat="4.674733" lon="-74.964996">
        <ele>618.4099</ele>
        <time>2021-11-14T12:11:23Z</time>
      </trkpt>
      <trkpt lat="4.674651" lon="-74.965149">
        <ele>620.032</ele>
        <time>2021-11-14T12:11:24Z</time>
      </trkpt>
      <trkpt lat="4.67457" lon="-74.965294">
        <ele>620.64404</ele>
        <time>2021-11-14T12:11:25Z</time>
      </trkpt>
      <trkpt lat="4.674487" lon="-74.965446">
        <ele>620.5735</ele>
        <time>2021-11-14T12:11:26Z</time>
      </trkpt>
      <trkpt lat="4.674412" lon="-74.965584">
        <ele>622.001</ele>
        <time>2021-11-14T12:11:27Z</time>
      </trkpt>
      <trkpt lat="4.674412" lon="-74.965584">
        <ele>621.855</ele>
        <time>2021-11-14T12:11:28Z</time>
      </trkpt>
      <trkpt lat="4.674365" lon="-74.965714">
        <ele>622.8186</ele>
        <time>2021-11-14T12:11:29Z</time>
      </trkpt>
      <trkpt lat="4.674343" lon="-74.96582">
        <ele>622.7512</ele>
        <time>2021-11-14T12:11:30Z</time>
      </trkpt>
      <trkpt lat="4.674316" lon="-74.965942">
        <ele>623.7565</ele>
        <time>2021-11-14T12:11:31Z</time>
      </trkpt>
      <trkpt lat="4.67427" lon="-74.966095">
        <ele>623.5967</ele>
        <time>2021-11-14T12:11:32Z</time>
      </trkpt>
      <trkpt lat="4.674223" lon="-74.96624">
        <ele>624.5503</ele>
        <time>2021-11-14T12:11:33Z</time>
      </trkpt>
      <trkpt lat="4.674178" lon="-74.966324">
        <ele>624.5674</ele>
        <time>2021-11-14T12:11:34Z</time>
      </trkpt>
      <trkpt lat="4.674096" lon="-74.966415">
        <ele>624.6626</ele>
        <time>2021-11-14T12:11:35Z</time>
      </trkpt>
      <trkpt lat="4.674027" lon="-74.966499">
        <ele>624.22375</ele>
        <time>2021-11-14T12:11:36Z</time>
      </trkpt>
      <trkpt lat="4.673981" lon="-74.966591">
        <ele>623.8501</ele>
        <time>2021-11-14T12:11:37Z</time>
      </trkpt>
      <trkpt lat="4.673948" lon="-74.966743">
        <ele>624.1218</ele>
        <time>2021-11-14T12:11:38Z</time>
      </trkpt>
      <trkpt lat="4.673949" lon="-74.966812">
        <ele>624.2235</ele>
        <time>2021-11-14T12:11:39Z</time>
      </trkpt>
      <trkpt lat="4.67396" lon="-74.966904">
        <ele>622.7842</ele>
        <time>2021-11-14T12:11:40Z</time>
      </trkpt>
      <trkpt lat="4.673987" lon="-74.967056">
        <ele>621.4148</ele>
        <time>2021-11-14T12:11:41Z</time>
      </trkpt>
      <trkpt lat="4.673995" lon="-74.967178">
        <ele>620.417</ele>
        <time>2021-11-14T12:11:42Z</time>
      </trkpt>
      <trkpt lat="4.67399" lon="-74.9673">
        <ele>619.8214</ele>
        <time>2021-11-14T12:11:43Z</time>
      </trkpt>
      <trkpt lat="4.673987" lon="-74.967354">
        <ele>619.3469</ele>
        <time>2021-11-14T12:11:44Z</time>
      </trkpt>
      <trkpt lat="4.673976" lon="-74.967407">
        <ele>618.9695</ele>
        <time>2021-11-14T12:11:46Z</time>
      </trkpt>
      <trkpt lat="4.673915" lon="-74.967506">
        <ele>617.50525</ele>
        <time>2021-11-14T12:11:47Z</time>
      </trkpt>
      <trkpt lat="4.67384" lon="-74.967613">
        <ele>617.17737</ele>
        <time>2021-11-14T12:11:48Z</time>
      </trkpt>
      <trkpt lat="4.673786" lon="-74.967682">
        <ele>617.1499</ele>
        <time>2021-11-14T12:11:49Z</time>
      </trkpt>
      <trkpt lat="4.673719" lon="-74.967766">
        <ele>617.41064</ele>
        <time>2021-11-14T12:11:50Z</time>
      </trkpt>
      <trkpt lat="4.673669" lon="-74.967842">
        <ele>617.43604</ele>
        <time>2021-11-14T12:11:51Z</time>
      </trkpt>
      <trkpt lat="4.673679" lon="-74.967941">
        <ele>618.31824</ele>
        <time>2021-11-14T12:11:52Z</time>
      </trkpt>
      <trkpt lat="4.673696" lon="-74.968025">
        <ele>618.7468</ele>
        <time>2021-11-14T12:11:53Z</time>
      </trkpt>
      <trkpt lat="4.673743" lon="-74.968094">
        <ele>618.0657</ele>
        <time>2021-11-14T12:11:54Z</time>
      </trkpt>
      <trkpt lat="4.673855" lon="-74.968208">
        <ele>617.968</ele>
        <time>2021-11-14T12:11:55Z</time>
      </trkpt>
      <trkpt lat="4.673995" lon="-74.968315">
        <ele>617.50146</ele>
        <time>2021-11-14T12:11:56Z</time>
      </trkpt>
      <trkpt lat="4.674088" lon="-74.968384">
        <ele>618.57214</ele>
        <time>2021-11-14T12:11:57Z</time>
      </trkpt>
      <trkpt lat="4.674123" lon="-74.968407">
        <ele>618.96655</ele>
        <time>2021-11-14T12:11:58Z</time>
      </trkpt>
      <trkpt lat="4.674123" lon="-74.968407">
        <ele>619.6013</ele>
        <time>2021-11-14T12:11:59Z</time>
      </trkpt>
      <trkpt lat="4.674198" lon="-74.968468">
        <ele>622.0863</ele>
        <time>2021-11-14T12:12:00Z</time>
      </trkpt>
      <trkpt lat="4.674274" lon="-74.968544">
        <ele>622.6572</ele>
        <time>2021-11-14T12:12:01Z</time>
      </trkpt>
      <trkpt lat="4.674311" lon="-74.96859">
        <ele>623.4114</ele>
        <time>2021-11-14T12:12:02Z</time>
      </trkpt>
      <trkpt lat="4.674365" lon="-74.968658">
        <ele>624.0631</ele>
        <time>2021-11-14T12:12:03Z</time>
      </trkpt>
      <trkpt lat="4.6744" lon="-74.968719">
        <ele>624.8025</ele>
        <time>2021-11-14T12:12:04Z</time>
      </trkpt>
      <trkpt lat="4.674423" lon="-74.968788">
        <ele>626.3037</ele>
        <time>2021-11-14T12:12:05Z</time>
      </trkpt>
      <trkpt lat="4.674447" lon="-74.968864">
        <ele>627.29504</ele>
        <time>2021-11-14T12:12:06Z</time>
      </trkpt>
      <trkpt lat="4.674431" lon="-74.968956">
        <ele>627.76025</ele>
        <time>2021-11-14T12:12:07Z</time>
      </trkpt>
      <trkpt lat="4.674422" lon="-74.969002">
        <ele>630.0249</ele>
        <time>2021-11-14T12:12:08Z</time>
      </trkpt>
      <trkpt lat="4.674402" lon="-74.969093">
        <ele>630.595</ele>
        <time>2021-11-14T12:12:09Z</time>
      </trkpt>
      <trkpt lat="4.674282" lon="-74.969231">
        <ele>628.9767</ele>
        <time>2021-11-14T12:12:10Z</time>
      </trkpt>
      <trkpt lat="4.674205" lon="-74.969307">
        <ele>630.28687</ele>
        <time>2021-11-14T12:12:11Z</time>
      </trkpt>
      <trkpt lat="4.674156" lon="-74.969353">
        <ele>630.25525</ele>
        <time>2021-11-14T12:12:12Z</time>
      </trkpt>
      <trkpt lat="4.674083" lon="-74.969406">
        <ele>630.0962</ele>
        <time>2021-11-14T12:12:13Z</time>
      </trkpt>
      <trkpt lat="4.674" lon="-74.969475">
        <ele>630.2521</ele>
        <time>2021-11-14T12:12:14Z</time>
      </trkpt>
      <trkpt lat="4.673931" lon="-74.969559">
        <ele>630.6355</ele>
        <time>2021-11-14T12:12:15Z</time>
      </trkpt>
      <trkpt lat="4.673887" lon="-74.969658">
        <ele>630.655</ele>
        <time>2021-11-14T12:12:16Z</time>
      </trkpt>
      <trkpt lat="4.67382" lon="-74.969795">
        <ele>631.7903</ele>
        <time>2021-11-14T12:12:17Z</time>
      </trkpt>
      <trkpt lat="4.673716" lon="-74.969963">
        <ele>630.8386</ele>
        <time>2021-11-14T12:12:18Z</time>
      </trkpt>
      <trkpt lat="4.673582" lon="-74.970161">
        <ele>631.8987</ele>
        <time>2021-11-14T12:12:19Z</time>
      </trkpt>
      <trkpt lat="4.673476" lon="-74.970299">
        <ele>632.27</ele>
        <time>2021-11-14T12:12:20Z</time>
      </trkpt>
      <trkpt lat="4.673376" lon="-74.970428">
        <ele>632.9724</ele>
        <time>2021-11-14T12:12:21Z</time>
      </trkpt>
      <trkpt lat="4.673271" lon="-74.970573">
        <ele>633.4326</ele>
        <time>2021-11-14T12:12:22Z</time>
      </trkpt>
      <trkpt lat="4.673165" lon="-74.970718">
        <ele>634.1267</ele>
        <time>2021-11-14T12:12:23Z</time>
      </trkpt>
      <trkpt lat="4.673053" lon="-74.970879">
        <ele>635.7417</ele>
        <time>2021-11-14T12:12:24Z</time>
      </trkpt>
      <trkpt lat="4.673053" lon="-74.970879">
        <ele>635.3264</ele>
        <time>2021-11-14T12:12:25Z</time>
      </trkpt>
      <trkpt lat="4.672944" lon="-74.971024">
        <ele>637.666</ele>
        <time>2021-11-14T12:12:26Z</time>
      </trkpt>
      <trkpt lat="4.672845" lon="-74.971161">
        <ele>639.52734</ele>
        <time>2021-11-14T12:12:27Z</time>
      </trkpt>
      <trkpt lat="4.672754" lon="-74.971291">
        <ele>640.3533</ele>
        <time>2021-11-14T12:12:28Z</time>
      </trkpt>
      <trkpt lat="4.67267" lon="-74.971413">
        <ele>641.2532</ele>
        <time>2021-11-14T12:12:29Z</time>
      </trkpt>
      <trkpt lat="4.67261" lon="-74.971504">
        <ele>643.6179</ele>
        <time>2021-11-14T12:12:30Z</time>
      </trkpt>
      <trkpt lat="4.6726" lon="-74.971611">
        <ele>645.05493</ele>
        <time>2021-11-14T12:12:31Z</time>
      </trkpt>
      <trkpt lat="4.672606" lon="-74.971672">
        <ele>647.39087</ele>
        <time>2021-11-14T12:12:32Z</time>
      </trkpt>
      <trkpt lat="4.672693" lon="-74.971779">
        <ele>648.12085</ele>
        <time>2021-11-14T12:12:33Z</time>
      </trkpt>
      <trkpt lat="4.672789" lon="-74.971878">
        <ele>649.2583</ele>
        <time>2021-11-14T12:12:34Z</time>
      </trkpt>
      <trkpt lat="4.67288" lon="-74.97197">
        <ele>651.20654</ele>
        <time>2021-11-14T12:12:35Z</time>
      </trkpt>
      <trkpt lat="4.672988" lon="-74.972084">
        <ele>652.86816</ele>
        <time>2021-11-14T12:12:36Z</time>
      </trkpt>
      <trkpt lat="4.673082" lon="-74.972229">
        <ele>653.19165</ele>
        <time>2021-11-14T12:12:37Z</time>
      </trkpt>
      <trkpt lat="4.673089" lon="-74.972244">
        <ele>654.82446</ele>
        <time>2021-11-14T12:12:39Z</time>
      </trkpt>
      <trkpt lat="4.673109" lon="-74.972359">
        <ele>656.901</ele>
        <time>2021-11-14T12:12:40Z</time>
      </trkpt>
      <trkpt lat="4.673089" lon="-74.97245">
        <ele>658.2412</ele>
        <time>2021-11-14T12:12:41Z</time>
      </trkpt>
      <trkpt lat="4.673056" lon="-74.972618">
        <ele>658.963</ele>
        <time>2021-11-14T12:12:42Z</time>
      </trkpt>
      <trkpt lat="4.67304" lon="-74.972771">
        <ele>659.4883</ele>
        <time>2021-11-14T12:12:43Z</time>
      </trkpt>
      <trkpt lat="4.673028" lon="-74.972885">
        <ele>660.5885</ele>
        <time>2021-11-14T12:12:44Z</time>
      </trkpt>
      <trkpt lat="4.673038" lon="-74.972954">
        <ele>661.3054</ele>
        <time>2021-11-14T12:12:45Z</time>
      </trkpt>
      <trkpt lat="4.673051" lon="-74.973038">
        <ele>662.72754</ele>
        <time>2021-11-14T12:12:46Z</time>
      </trkpt>
      <trkpt lat="4.673068" lon="-74.973145">
        <ele>663.5437</ele>
        <time>2021-11-14T12:12:47Z</time>
      </trkpt>
      <trkpt lat="4.673113" lon="-74.973289">
        <ele>665.6487</ele>
        <time>2021-11-14T12:12:48Z</time>
      </trkpt>
      <trkpt lat="4.673161" lon="-74.973457">
        <ele>667.1636</ele>
        <time>2021-11-14T12:12:49Z</time>
      </trkpt>
      <trkpt lat="4.673182" lon="-74.973602">
        <ele>667.4409</ele>
        <time>2021-11-14T12:12:50Z</time>
      </trkpt>
      <trkpt lat="4.673177" lon="-74.973709">
        <ele>668.2865</ele>
        <time>2021-11-14T12:12:51Z</time>
      </trkpt>
      <trkpt lat="4.67315" lon="-74.973801">
        <ele>668.98975</ele>
        <time>2021-11-14T12:12:52Z</time>
      </trkpt>
      <trkpt lat="4.673115" lon="-74.973869">
        <ele>668.5835</ele>
        <time>2021-11-14T12:12:53Z</time>
      </trkpt>
      <trkpt lat="4.673089" lon="-74.973923">
        <ele>667.7324</ele>
        <time>2021-11-14T12:12:54Z</time>
      </trkpt>
      <trkpt lat="4.673016" lon="-74.973938">
        <ele>667.7446</ele>
        <time>2021-11-14T12:12:55Z</time>
      </trkpt>
      <trkpt lat="4.673016" lon="-74.973938">
        <ele>669.61914</ele>
        <time>2021-11-14T12:12:56Z</time>
      </trkpt>
      <trkpt lat="4.672932" lon="-74.973953">
        <ele>671.1018</ele>
        <time>2021-11-14T12:12:57Z</time>
      </trkpt>
      <trkpt lat="4.672718" lon="-74.973938">
        <ele>671.9192</ele>
        <time>2021-11-14T12:12:58Z</time>
      </trkpt>
      <trkpt lat="4.672605" lon="-74.973984">
        <ele>672.2334</ele>
        <time>2021-11-14T12:12:59Z</time>
      </trkpt>
      <trkpt lat="4.67254" lon="-74.974022">
        <ele>673.574</ele>
        <time>2021-11-14T12:13:00Z</time>
      </trkpt>
      <trkpt lat="4.672435" lon="-74.974098">
        <ele>675.3694</ele>
        <time>2021-11-14T12:13:01Z</time>
      </trkpt>
      <trkpt lat="4.672379" lon="-74.974182">
        <ele>676.1726</ele>
        <time>2021-11-14T12:13:02Z</time>
      </trkpt>
      <trkpt lat="4.67233" lon="-74.974266">
        <ele>675.54724</ele>
        <time>2021-11-14T12:13:03Z</time>
      </trkpt>
      <trkpt lat="4.672246" lon="-74.974396">
        <ele>675.5856</ele>
        <time>2021-11-14T12:13:04Z</time>
      </trkpt>
      <trkpt lat="4.672191" lon="-74.97448">
        <ele>676.22034</ele>
        <time>2021-11-14T12:13:05Z</time>
      </trkpt>
      <trkpt lat="4.672055" lon="-74.974495">
        <ele>677.1387</ele>
        <time>2021-11-14T12:13:06Z</time>
      </trkpt>
      <trkpt lat="4.671954" lon="-74.974449">
        <ele>676.9324</ele>
        <time>2021-11-14T12:13:07Z</time>
      </trkpt>
      <trkpt lat="4.671859" lon="-74.974403">
        <ele>677.3821</ele>
        <time>2021-11-14T12:13:08Z</time>
      </trkpt>
      <trkpt lat="4.671749" lon="-74.97435">
        <ele>678.0281</ele>
        <time>2021-11-14T12:13:09Z</time>
      </trkpt>
      <trkpt lat="4.6716" lon="-74.974274">
        <ele>679.3967</ele>
        <time>2021-11-14T12:13:10Z</time>
      </trkpt>
      <trkpt lat="4.671453" lon="-74.974213">
        <ele>681.7185</ele>
        <time>2021-11-14T12:13:11Z</time>
      </trkpt>
      <trkpt lat="4.671372" lon="-74.974205">
        <ele>682.94006</ele>
        <time>2021-11-14T12:13:12Z</time>
      </trkpt>
      <trkpt lat="4.671314" lon="-74.974197">
        <ele>684.65857</ele>
        <time>2021-11-14T12:13:13Z</time>
      </trkpt>
      <trkpt lat="4.671234" lon="-74.97422">
        <ele>685.35254</ele>
        <time>2021-11-14T12:13:14Z</time>
      </trkpt>
      <trkpt lat="4.671166" lon="-74.974274">
        <ele>686.5381</ele>
        <time>2021-11-14T12:13:15Z</time>
      </trkpt>
      <trkpt lat="4.671099" lon="-74.974342">
        <ele>687.146</ele>
        <time>2021-11-14T12:13:16Z</time>
      </trkpt>
      <trkpt lat="4.671067" lon="-74.974472">
        <ele>688.13074</ele>
        <time>2021-11-14T12:13:17Z</time>
      </trkpt>
      <trkpt lat="4.67106" lon="-74.974556">
        <ele>690.1135</ele>
        <time>2021-11-14T12:13:18Z</time>
      </trkpt>
      <trkpt lat="4.671084" lon="-74.974709">
        <ele>691.3661</ele>
        <time>2021-11-14T12:13:19Z</time>
      </trkpt>
      <trkpt lat="4.671111" lon="-74.974854">
        <ele>693.0215</ele>
        <time>2021-11-14T12:13:20Z</time>
      </trkpt>
      <trkpt lat="4.67113" lon="-74.97496">
        <ele>693.1052</ele>
        <time>2021-11-14T12:13:21Z</time>
      </trkpt>
      <trkpt lat="4.671154" lon="-74.975082">
        <ele>696.4336</ele>
        <time>2021-11-14T12:13:22Z</time>
      </trkpt>
      <trkpt lat="4.671154" lon="-74.975082">
        <ele>697.71436</ele>
        <time>2021-11-14T12:13:23Z</time>
      </trkpt>
      <trkpt lat="4.671178" lon="-74.975212">
        <ele>698.9155</ele>
        <time>2021-11-14T12:13:24Z</time>
      </trkpt>
      <trkpt lat="4.671192" lon="-74.975334">
        <ele>699.7196</ele>
        <time>2021-11-14T12:13:25Z</time>
      </trkpt>
      <trkpt lat="4.671145" lon="-74.975433">
        <ele>699.6968</ele>
        <time>2021-11-14T12:13:26Z</time>
      </trkpt>
      <trkpt lat="4.671089" lon="-74.975548">
        <ele>699.1559</ele>
        <time>2021-11-14T12:13:28Z</time>
      </trkpt>
      <trkpt lat="4.670995" lon="-74.975632">
        <ele>699.7678</ele>
        <time>2021-11-14T12:13:29Z</time>
      </trkpt>
      <trkpt lat="4.670914" lon="-74.975693">
        <ele>699.69495</ele>
        <time>2021-11-14T12:13:30Z</time>
      </trkpt>
      <trkpt lat="4.670866" lon="-74.975731">
        <ele>699.64966</ele>
        <time>2021-11-14T12:13:31Z</time>
      </trkpt>
      <trkpt lat="4.670768" lon="-74.975792">
        <ele>699.5679</ele>
        <time>2021-11-14T12:13:32Z</time>
      </trkpt>
      <trkpt lat="4.670651" lon="-74.975807">
        <ele>699.8071</ele>
        <time>2021-11-14T12:13:33Z</time>
      </trkpt>
      <trkpt lat="4.670532" lon="-74.975822">
        <ele>702.6399</ele>
        <time>2021-11-14T12:13:34Z</time>
      </trkpt>
      <trkpt lat="4.670267" lon="-74.97583">
        <ele>703.94604</ele>
        <time>2021-11-14T12:13:35Z</time>
      </trkpt>
      <trkpt lat="4.670138" lon="-74.97583">
        <ele>705.34265</ele>
        <time>2021-11-14T12:13:36Z</time>
      </trkpt>
      <trkpt lat="4.670074" lon="-74.975815">
        <ele>705.5664</ele>
        <time>2021-11-14T12:13:37Z</time>
      </trkpt>
      <trkpt lat="4.669944" lon="-74.975761">
        <ele>707.4912</ele>
        <time>2021-11-14T12:13:38Z</time>
      </trkpt>
      <trkpt lat="4.66978" lon="-74.975693">
        <ele>709.02747</ele>
        <time>2021-11-14T12:13:39Z</time>
      </trkpt>
      <trkpt lat="4.669649" lon="-74.975624">
        <ele>711.0</ele>
        <time>2021-11-14T12:13:40Z</time>
      </trkpt>
      <trkpt lat="4.669544" lon="-74.975594">
        <ele>712.61255</ele>
        <time>2021-11-14T12:13:41Z</time>
      </trkpt>
      <trkpt lat="4.669392" lon="-74.975586">
        <ele>714.11743</ele>
        <time>2021-11-14T12:13:42Z</time>
      </trkpt>
      <trkpt lat="4.669207" lon="-74.975571">
        <ele>715.563</ele>
        <time>2021-11-14T12:13:43Z</time>
      </trkpt>
      <trkpt lat="4.669038" lon="-74.975563">
        <ele>716.69116</ele>
        <time>2021-11-14T12:13:44Z</time>
      </trkpt>
      <trkpt lat="4.668877" lon="-74.975555">
        <ele>717.12427</ele>
        <time>2021-11-14T12:13:45Z</time>
      </trkpt>
      <trkpt lat="4.668752" lon="-74.975571">
        <ele>719.0083</ele>
        <time>2021-11-14T12:13:46Z</time>
      </trkpt>
      <trkpt lat="4.668692" lon="-74.975616">
        <ele>720.0581</ele>
        <time>2021-11-14T12:13:47Z</time>
      </trkpt>
      <trkpt lat="4.668644" lon="-74.975662">
        <ele>721.73096</ele>
        <time>2021-11-14T12:13:48Z</time>
      </trkpt>
      <trkpt lat="4.668598" lon="-74.975754">
        <ele>723.04565</ele>
        <time>2021-11-14T12:13:49Z</time>
      </trkpt>
      <trkpt lat="4.668553" lon="-74.975853">
        <ele>724.55835</ele>
        <time>2021-11-14T12:13:50Z</time>
      </trkpt>
      <trkpt lat="4.668501" lon="-74.975975">
        <ele>725.2991</ele>
        <time>2021-11-14T12:13:51Z</time>
      </trkpt>
      <trkpt lat="4.668434" lon="-74.97612">
        <ele>726.9281</ele>
        <time>2021-11-14T12:13:52Z</time>
      </trkpt>
      <trkpt lat="4.668355" lon="-74.976257">
        <ele>727.59326</ele>
        <time>2021-11-14T12:13:53Z</time>
      </trkpt>
      <trkpt lat="4.668309" lon="-74.976318">
        <ele>728.30225</ele>
        <time>2021-11-14T12:13:54Z</time>
      </trkpt>
      <trkpt lat="4.668252" lon="-74.976387">
        <ele>728.9934</ele>
        <time>2021-11-14T12:13:55Z</time>
      </trkpt>
      <trkpt lat="4.668252" lon="-74.976387">
        <ele>729.51</ele>
        <time>2021-11-14T12:13:56Z</time>
      </trkpt>
      <trkpt lat="4.66814" lon="-74.976456">
        <ele>731.7573</ele>
        <time>2021-11-14T12:13:57Z</time>
      </trkpt>
      <trkpt lat="4.668009" lon="-74.976524">
        <ele>732.87866</ele>
        <time>2021-11-14T12:13:58Z</time>
      </trkpt>
      <trkpt lat="4.667798" lon="-74.976631">
        <ele>733.15967</ele>
        <time>2021-11-14T12:13:59Z</time>
      </trkpt>
      <trkpt lat="4.667574" lon="-74.976761">
        <ele>734.67334</ele>
        <time>2021-11-14T12:14:00Z</time>
      </trkpt>
      <trkpt lat="4.66751" lon="-74.976837">
        <ele>734.9529</ele>
        <time>2021-11-14T12:14:01Z</time>
      </trkpt>
      <trkpt lat="4.667451" lon="-74.976906">
        <ele>736.8772</ele>
        <time>2021-11-14T12:14:02Z</time>
      </trkpt>
      <trkpt lat="4.667359" lon="-74.977013">
        <ele>737.4414</ele>
        <time>2021-11-14T12:14:03Z</time>
      </trkpt>
      <trkpt lat="4.667255" lon="-74.977135">
        <ele>737.2665</ele>
        <time>2021-11-14T12:14:04Z</time>
      </trkpt>
      <trkpt lat="4.66717" lon="-74.977226">
        <ele>737.886</ele>
        <time>2021-11-14T12:14:05Z</time>
      </trkpt>
      <trkpt lat="4.667104" lon="-74.977295">
        <ele>738.56995</ele>
        <time>2021-11-14T12:14:06Z</time>
      </trkpt>
      <trkpt lat="4.66704" lon="-74.977318">
        <ele>739.6417</ele>
        <time>2021-11-14T12:14:07Z</time>
      </trkpt>
      <trkpt lat="4.666909" lon="-74.977325">
        <ele>739.83093</ele>
        <time>2021-11-14T12:14:08Z</time>
      </trkpt>
      <trkpt lat="4.666702" lon="-74.977303">
        <ele>741.605</ele>
        <time>2021-11-14T12:14:09Z</time>
      </trkpt>
      <trkpt lat="4.666549" lon="-74.97728">
        <ele>743.9204</ele>
        <time>2021-11-14T12:14:10Z</time>
      </trkpt>
      <trkpt lat="4.666363" lon="-74.977257">
        <ele>744.74023</ele>
        <time>2021-11-14T12:14:11Z</time>
      </trkpt>
      <trkpt lat="4.666213" lon="-74.977242">
        <ele>746.17883</ele>
        <time>2021-11-14T12:14:12Z</time>
      </trkpt>
      <trkpt lat="4.666073" lon="-74.977196">
        <ele>746.8352</ele>
        <time>2021-11-14T12:14:13Z</time>
      </trkpt>
      <trkpt lat="4.665988" lon="-74.977142">
        <ele>747.04346</ele>
        <time>2021-11-14T12:14:14Z</time>
      </trkpt>
      <trkpt lat="4.665909" lon="-74.977066">
        <ele>746.74</ele>
        <time>2021-11-14T12:14:15Z</time>
      </trkpt>
      <trkpt lat="4.665864" lon="-74.97699">
        <ele>747.8042</ele>
        <time>2021-11-14T12:14:16Z</time>
      </trkpt>
      <trkpt lat="4.665792" lon="-74.976814">
        <ele>748.8291</ele>
        <time>2021-11-14T12:14:17Z</time>
      </trkpt>
      <trkpt lat="4.665726" lon="-74.976639">
        <ele>749.4796</ele>
        <time>2021-11-14T12:14:18Z</time>
      </trkpt>
      <trkpt lat="4.665681" lon="-74.976517">
        <ele>751.03076</ele>
        <time>2021-11-14T12:14:19Z</time>
      </trkpt>
      <trkpt lat="4.665603" lon="-74.976418">
        <ele>752.0692</ele>
        <time>2021-11-14T12:14:20Z</time>
      </trkpt>
      <trkpt lat="4.665516" lon="-74.976341">
        <ele>753.5875</ele>
        <time>2021-11-14T12:14:21Z</time>
      </trkpt>
      <trkpt lat="4.665418" lon="-74.976303">
        <ele>754.56274</ele>
        <time>2021-11-14T12:14:22Z</time>
      </trkpt>
      <trkpt lat="4.665371" lon="-74.97628">
        <ele>755.5913</ele>
        <time>2021-11-14T12:14:23Z</time>
      </trkpt>
      <trkpt lat="4.665371" lon="-74.97628">
        <ele>756.9678</ele>
        <time>2021-11-14T12:14:24Z</time>
      </trkpt>
      <trkpt lat="4.665311" lon="-74.976227">
        <ele>757.31213</ele>
        <time>2021-11-14T12:14:25Z</time>
      </trkpt>
      <trkpt lat="4.665266" lon="-74.976143">
        <ele>757.4087</ele>
        <time>2021-11-14T12:14:26Z</time>
      </trkpt>
      <trkpt lat="4.665252" lon="-74.976067">
        <ele>758.2024</ele>
        <time>2021-11-14T12:14:27Z</time>
      </trkpt>
      <trkpt lat="4.665243" lon="-74.976013">
        <ele>759.30786</ele>
        <time>2021-11-14T12:14:28Z</time>
      </trkpt>
      <trkpt lat="4.665249" lon="-74.975929">
        <ele>760.13184</ele>
        <time>2021-11-14T12:14:29Z</time>
      </trkpt>
      <trkpt lat="4.665266" lon="-74.975784">
        <ele>761.3699</ele>
        <time>2021-11-14T12:14:30Z</time>
      </trkpt>
      <trkpt lat="4.665285" lon="-74.975632">
        <ele>763.04175</ele>
        <time>2021-11-14T12:14:31Z</time>
      </trkpt>
      <trkpt lat="4.665279" lon="-74.975502">
        <ele>764.1194</ele>
        <time>2021-11-14T12:14:32Z</time>
      </trkpt>
      <trkpt lat="4.66524" lon="-74.975433">
        <ele>765.4529</ele>
        <time>2021-11-14T12:14:34Z</time>
      </trkpt>
      <trkpt lat="4.665163" lon="-74.975357">
        <ele>765.6284</ele>
        <time>2021-11-14T12:14:35Z</time>
      </trkpt>
      <trkpt lat="4.665079" lon="-74.975327">
        <ele>766.89343</ele>
        <time>2021-11-14T12:14:36Z</time>
      </trkpt>
      <trkpt lat="4.664917" lon="-74.975319">
        <ele>767.4949</ele>
        <time>2021-11-14T12:14:37Z</time>
      </trkpt>
      <trkpt lat="4.664824" lon="-74.97538">
        <ele>768.67725</ele>
        <time>2021-11-14T12:14:38Z</time>
      </trkpt>
      <trkpt lat="4.664784" lon="-74.975456">
        <ele>770.0796</ele>
        <time>2021-11-14T12:14:39Z</time>
      </trkpt>
      <trkpt lat="4.664762" lon="-74.97554">
        <ele>771.32056</ele>
        <time>2021-11-14T12:14:40Z</time>
      </trkpt>
      <trkpt lat="4.664733" lon="-74.975647">
        <ele>772.79224</ele>
        <time>2021-11-14T12:14:41Z</time>
      </trkpt>
      <trkpt lat="4.66472" lon="-74.9758">
        <ele>774.10547</ele>
        <time>2021-11-14T12:14:42Z</time>
      </trkpt>
      <trkpt lat="4.664711" lon="-74.975952">
        <ele>775.40125</ele>
        <time>2021-11-14T12:14:43Z</time>
      </trkpt>
      <trkpt lat="4.664701" lon="-74.97612">
        <ele>776.7589</ele>
        <time>2021-11-14T12:14:44Z</time>
      </trkpt>
      <trkpt lat="4.664727" lon="-74.976257">
        <ele>778.33704</ele>
        <time>2021-11-14T12:14:45Z</time>
      </trkpt>
      <trkpt lat="4.664752" lon="-74.976364">
        <ele>779.4031</ele>
        <time>2021-11-14T12:14:46Z</time>
      </trkpt>
      <trkpt lat="4.6648" lon="-74.976517">
        <ele>781.22</ele>
        <time>2021-11-14T12:14:47Z</time>
      </trkpt>
      <trkpt lat="4.664924" lon="-74.976692">
        <ele>782.3379</ele>
        <time>2021-11-14T12:14:48Z</time>
      </trkpt>
      <trkpt lat="4.665031" lon="-74.976837">
        <ele>784.2366</ele>
        <time>2021-11-14T12:14:49Z</time>
      </trkpt>
      <trkpt lat="4.665121" lon="-74.977013">
        <ele>785.31226</ele>
        <time>2021-11-14T12:14:50Z</time>
      </trkpt>
      <trkpt lat="4.665196" lon="-74.977165">
        <ele>786.3364</ele>
        <time>2021-11-14T12:14:51Z</time>
      </trkpt>
      <trkpt lat="4.665269" lon="-74.977318">
        <ele>788.02783</ele>
        <time>2021-11-14T12:14:52Z</time>
      </trkpt>
      <trkpt lat="4.665341" lon="-74.977463">
        <ele>789.62085</ele>
        <time>2021-11-14T12:14:53Z</time>
      </trkpt>
      <trkpt lat="4.665518" lon="-74.97776">
        <ele>792.7046</ele>
        <time>2021-11-14T12:14:54Z</time>
      </trkpt>
      <trkpt lat="4.665571" lon="-74.977852">
        <ele>794.1393</ele>
        <time>2021-11-14T12:14:55Z</time>
      </trkpt>
      <trkpt lat="4.665631" lon="-74.977951">
        <ele>795.9131</ele>
        <time>2021-11-14T12:14:56Z</time>
      </trkpt>
      <trkpt lat="4.665732" lon="-74.978081">
        <ele>797.53735</ele>
        <time>2021-11-14T12:14:57Z</time>
      </trkpt>
      <trkpt lat="4.66585" lon="-74.978218">
        <ele>798.25354</ele>
        <time>2021-11-14T12:14:58Z</time>
      </trkpt>
      <trkpt lat="4.66585" lon="-74.978218">
        <ele>799.40845</ele>
        <time>2021-11-14T12:14:59Z</time>
      </trkpt>
      <trkpt lat="4.665946" lon="-74.97834">
        <ele>800.20337</ele>
        <time>2021-11-14T12:15:00Z</time>
      </trkpt>
      <trkpt lat="4.665999" lon="-74.978416">
        <ele>800.8115</ele>
        <time>2021-11-14T12:15:01Z</time>
      </trkpt>
      <trkpt lat="4.666012" lon="-74.978516">
        <ele>801.0305</ele>
        <time>2021-11-14T12:15:02Z</time>
      </trkpt>
      <trkpt lat="4.666014" lon="-74.978638">
        <ele>802.4888</ele>
        <time>2021-11-14T12:15:03Z</time>
      </trkpt>
      <trkpt lat="4.666005" lon="-74.978767">
        <ele>803.58765</ele>
        <time>2021-11-14T12:15:04Z</time>
      </trkpt>
      <trkpt lat="4.665995" lon="-74.978928">
        <ele>804.67615</ele>
        <time>2021-11-14T12:15:05Z</time>
      </trkpt>
      <trkpt lat="4.66599" lon="-74.979019">
        <ele>806.3098</ele>
        <time>2021-11-14T12:15:06Z</time>
      </trkpt>
      <trkpt lat="4.666039" lon="-74.979095">
        <ele>807.4614</ele>
        <time>2021-11-14T12:15:07Z</time>
      </trkpt>
      <trkpt lat="4.666129" lon="-74.979195">
        <ele>808.30347</ele>
        <time>2021-11-14T12:15:08Z</time>
      </trkpt>
      <trkpt lat="4.666224" lon="-74.979256">
        <ele>809.3324</ele>
        <time>2021-11-14T12:15:09Z</time>
      </trkpt>
      <trkpt lat="4.6663" lon="-74.979301">
        <ele>810.194</ele>
        <time>2021-11-14T12:15:10Z</time>
      </trkpt>
      <trkpt lat="4.666428" lon="-74.97937">
        <ele>812.31445</ele>
        <time>2021-11-14T12:15:11Z</time>
      </trkpt>
      <trkpt lat="4.66656" lon="-74.979408">
        <ele>812.1675</ele>
        <time>2021-11-14T12:15:12Z</time>
      </trkpt>
      <trkpt lat="4.666664" lon="-74.979431">
        <ele>813.10815</ele>
        <time>2021-11-14T12:15:13Z</time>
      </trkpt>
      <trkpt lat="4.666735" lon="-74.979401">
        <ele>813.7202</ele>
        <time>2021-11-14T12:15:14Z</time>
      </trkpt>
      <trkpt lat="4.666815" lon="-74.979324">
        <ele>814.7096</ele>
        <time>2021-11-14T12:15:15Z</time>
      </trkpt>
      <trkpt lat="4.666892" lon="-74.97921">
        <ele>815.7195</ele>
        <time>2021-11-14T12:15:16Z</time>
      </trkpt>
      <trkpt lat="4.66696" lon="-74.979103">
        <ele>816.43774</ele>
        <time>2021-11-14T12:15:17Z</time>
      </trkpt>
      <trkpt lat="4.667033" lon="-74.978996">
        <ele>817.68384</ele>
        <time>2021-11-14T12:15:18Z</time>
      </trkpt>
      <trkpt lat="4.667148" lon="-74.978897">
        <ele>818.59863</ele>
        <time>2021-11-14T12:15:19Z</time>
      </trkpt>
      <trkpt lat="4.667255" lon="-74.978867">
        <ele>819.5576</ele>
        <time>2021-11-14T12:15:20Z</time>
      </trkpt>
      <trkpt lat="4.667368" lon="-74.978844">
        <ele>821.31226</ele>
        <time>2021-11-14T12:15:21Z</time>
      </trkpt>
      <trkpt lat="4.667522" lon="-74.978813">
        <ele>821.50806</ele>
        <time>2021-11-14T12:15:22Z</time>
      </trkpt>
      <trkpt lat="4.667696" lon="-74.978783">
        <ele>822.02075</ele>
        <time>2021-11-14T12:15:23Z</time>
      </trkpt>
      <trkpt lat="4.667845" lon="-74.97876">
        <ele>823.485</ele>
        <time>2021-11-14T12:15:24Z</time>
      </trkpt>
      <trkpt lat="4.667998" lon="-74.978729">
        <ele>824.6399</ele>
        <time>2021-11-14T12:15:26Z</time>
      </trkpt>
      <trkpt lat="4.668129" lon="-74.978691">
        <ele>825.61536</ele>
        <time>2021-11-14T12:15:27Z</time>
      </trkpt>
      <trkpt lat="4.668214" lon="-74.978622">
        <ele>826.7886</ele>
        <time>2021-11-14T12:15:28Z</time>
      </trkpt>
      <trkpt lat="4.668323" lon="-74.978546">
        <ele>826.8485</ele>
        <time>2021-11-14T12:15:29Z</time>
      </trkpt>
      <trkpt lat="4.668475" lon="-74.978477">
        <ele>827.3894</ele>
        <time>2021-11-14T12:15:30Z</time>
      </trkpt>
      <trkpt lat="4.668592" lon="-74.978477">
        <ele>828.5571</ele>
        <time>2021-11-14T12:15:31Z</time>
      </trkpt>
      <trkpt lat="4.668738" lon="-74.9785">
        <ele>829.4856</ele>
        <time>2021-11-14T12:15:32Z</time>
      </trkpt>
      <trkpt lat="4.668893" lon="-74.978477">
        <ele>830.411</ele>
        <time>2021-11-14T12:15:33Z</time>
      </trkpt>
      <trkpt lat="4.669005" lon="-74.978432">
        <ele>831.35254</ele>
        <time>2021-11-14T12:15:34Z</time>
      </trkpt>
      <trkpt lat="4.669164" lon="-74.978363">
        <ele>832.5552</ele>
        <time>2021-11-14T12:15:35Z</time>
      </trkpt>
      <trkpt lat="4.669314" lon="-74.978279">
        <ele>834.005</ele>
        <time>2021-11-14T12:15:36Z</time>
      </trkpt>
      <trkpt lat="4.669451" lon="-74.978188">
        <ele>834.9104</ele>
        <time>2021-11-14T12:15:37Z</time>
      </trkpt>
      <trkpt lat="4.669451" lon="-74.978188">
        <ele>836.0315</ele>
        <time>2021-11-14T12:15:38Z</time>
      </trkpt>
      <trkpt lat="4.66956" lon="-74.978104">
        <ele>837.7283</ele>
        <time>2021-11-14T12:15:39Z</time>
      </trkpt>
      <trkpt lat="4.669657" lon="-74.97802">
        <ele>838.97595</ele>
        <time>2021-11-14T12:15:40Z</time>
      </trkpt>
      <trkpt lat="4.669744" lon="-74.977951">
        <ele>840.3711</ele>
        <time>2021-11-14T12:15:41Z</time>
      </trkpt>
      <trkpt lat="4.669812" lon="-74.977943">
        <ele>841.9075</ele>
        <time>2021-11-14T12:15:42Z</time>
      </trkpt>
      <trkpt lat="4.669957" lon="-74.977997">
        <ele>843.90063</ele>
        <time>2021-11-14T12:15:43Z</time>
      </trkpt>
      <trkpt lat="4.670051" lon="-74.978096">
        <ele>844.66345</ele>
        <time>2021-11-14T12:15:44Z</time>
      </trkpt>
      <trkpt lat="4.670155" lon="-74.97821">
        <ele>845.17664</ele>
        <time>2021-11-14T12:15:45Z</time>
      </trkpt>
      <trkpt lat="4.670259" lon="-74.978325">
        <ele>846.0471</ele>
        <time>2021-11-14T12:15:46Z</time>
      </trkpt>
      <trkpt lat="4.670314" lon="-74.978355">
        <ele>846.7612</ele>
        <time>2021-11-14T12:15:47Z</time>
      </trkpt>
      <trkpt lat="4.670407" lon="-74.978386">
        <ele>847.87537</ele>
        <time>2021-11-14T12:15:48Z</time>
      </trkpt>
      <trkpt lat="4.670551" lon="-74.978455">
        <ele>849.047</ele>
        <time>2021-11-14T12:15:49Z</time>
      </trkpt>
      <trkpt lat="4.670612" lon="-74.978539">
        <ele>850.26465</ele>
        <time>2021-11-14T12:15:50Z</time>
      </trkpt>
      <trkpt lat="4.670665" lon="-74.97863">
        <ele>851.3302</ele>
        <time>2021-11-14T12:15:51Z</time>
      </trkpt>
      <trkpt lat="4.670732" lon="-74.97876">
        <ele>851.979</ele>
        <time>2021-11-14T12:15:52Z</time>
      </trkpt>
      <trkpt lat="4.670779" lon="-74.978851">
        <ele>852.5383</ele>
        <time>2021-11-14T12:15:53Z</time>
      </trkpt>
      <trkpt lat="4.67082" lon="-74.97892">
        <ele>852.99854</ele>
        <time>2021-11-14T12:15:54Z</time>
      </trkpt>
      <trkpt lat="4.670896" lon="-74.979027">
        <ele>854.1709</ele>
        <time>2021-11-14T12:15:55Z</time>
      </trkpt>
      <trkpt lat="4.670999" lon="-74.979164">
        <ele>855.4448</ele>
        <time>2021-11-14T12:15:56Z</time>
      </trkpt>
      <trkpt lat="4.671093" lon="-74.979294">
        <ele>856.5491</ele>
        <time>2021-11-14T12:15:57Z</time>
      </trkpt>
      <trkpt lat="4.671186" lon="-74.979424">
        <ele>857.10486</ele>
        <time>2021-11-14T12:15:58Z</time>
      </trkpt>
      <trkpt lat="4.671279" lon="-74.979538">
        <ele>857.8644</ele>
        <time>2021-11-14T12:15:59Z</time>
      </trkpt>
      <trkpt lat="4.671383" lon="-74.979645">
        <ele>858.26196</ele>
        <time>2021-11-14T12:16:00Z</time>
      </trkpt>
      <trkpt lat="4.671508" lon="-74.979713">
        <ele>861.32996</ele>
        <time>2021-11-14T12:16:01Z</time>
      </trkpt>
      <trkpt lat="4.671595" lon="-74.979767">
        <ele>862.7765</ele>
        <time>2021-11-14T12:16:02Z</time>
      </trkpt>
      <trkpt lat="4.671678" lon="-74.97982">
        <ele>864.0908</ele>
        <time>2021-11-14T12:16:03Z</time>
      </trkpt>
      <trkpt lat="4.671695" lon="-74.979881">
        <ele>865.3633</ele>
        <time>2021-11-14T12:16:04Z</time>
      </trkpt>
      <trkpt lat="4.671695" lon="-74.979881">
        <ele>866.92065</ele>
        <time>2021-11-14T12:16:05Z</time>
      </trkpt>
      <trkpt lat="4.671768" lon="-74.980179">
        <ele>868.1345</ele>
        <time>2021-11-14T12:16:06Z</time>
      </trkpt>
      <trkpt lat="4.671785" lon="-74.980331">
        <ele>869.0193</ele>
        <time>2021-11-14T12:16:07Z</time>
      </trkpt>
      <trkpt lat="4.67183" lon="-74.980469">
        <ele>869.9702</ele>
        <time>2021-11-14T12:16:08Z</time>
      </trkpt>
      <trkpt lat="4.671863" lon="-74.980568">
        <ele>870.49414</ele>
        <time>2021-11-14T12:16:09Z</time>
      </trkpt>
      <trkpt lat="4.671902" lon="-74.980667">
        <ele>870.7969</ele>
        <time>2021-11-14T12:16:10Z</time>
      </trkpt>
      <trkpt lat="4.671937" lon="-74.980751">
        <ele>870.24084</ele>
        <time>2021-11-14T12:16:11Z</time>
      </trkpt>
      <trkpt lat="4.67195" lon="-74.980782">
        <ele>871.38916</ele>
        <time>2021-11-14T12:16:12Z</time>
      </trkpt>
      <trkpt lat="4.671976" lon="-74.980843">
        <ele>871.1185</ele>
        <time>2021-11-14T12:16:13Z</time>
      </trkpt>
      <trkpt lat="4.672058" lon="-74.980865">
        <ele>872.2217</ele>
        <time>2021-11-14T12:16:14Z</time>
      </trkpt>
      <trkpt lat="4.672145" lon="-74.980858">
        <ele>872.437</ele>
        <time>2021-11-14T12:16:15Z</time>
      </trkpt>
      <trkpt lat="4.672264" lon="-74.980789">
        <ele>874.3081</ele>
        <time>2021-11-14T12:16:16Z</time>
      </trkpt>
      <trkpt lat="4.672334" lon="-74.980721">
        <ele>873.9885</ele>
        <time>2021-11-14T12:16:17Z</time>
      </trkpt>
      <trkpt lat="4.672419" lon="-74.980591">
        <ele>876.4999</ele>
        <time>2021-11-14T12:16:18Z</time>
      </trkpt>
      <trkpt lat="4.672505" lon="-74.980484">
        <ele>877.77136</ele>
        <time>2021-11-14T12:16:19Z</time>
      </trkpt>
      <trkpt lat="4.672615" lon="-74.980446">
        <ele>878.86536</ele>
        <time>2021-11-14T12:16:20Z</time>
      </trkpt>
      <trkpt lat="4.672699" lon="-74.980415">
        <ele>879.51</ele>
        <time>2021-11-14T12:16:21Z</time>
      </trkpt>
      <trkpt lat="4.672816" lon="-74.980461">
        <ele>880.1891</ele>
        <time>2021-11-14T12:16:22Z</time>
      </trkpt>
      <trkpt lat="4.672906" lon="-74.980522">
        <ele>881.7943</ele>
        <time>2021-11-14T12:16:23Z</time>
      </trkpt>
      <trkpt lat="4.673005" lon="-74.980652">
        <ele>882.30054</ele>
        <time>2021-11-14T12:16:24Z</time>
      </trkpt>
      <trkpt lat="4.673068" lon="-74.980736">
        <ele>883.26416</ele>
        <time>2021-11-14T12:16:25Z</time>
      </trkpt>
      <trkpt lat="4.673122" lon="-74.980804">
        <ele>884.6185</ele>
        <time>2021-11-14T12:16:26Z</time>
      </trkpt>
      <trkpt lat="4.673158" lon="-74.98085">
        <ele>884.5537</ele>
        <time>2021-11-14T12:16:27Z</time>
      </trkpt>
      <trkpt lat="4.673278" lon="-74.98085">
        <ele>885.9558</ele>
        <time>2021-11-14T12:16:28Z</time>
      </trkpt>
      <trkpt lat="4.673398" lon="-74.980812">
        <ele>886.6323</ele>
        <time>2021-11-14T12:16:29Z</time>
      </trkpt>
      <trkpt lat="4.673501" lon="-74.980759">
        <ele>887.19666</ele>
        <time>2021-11-14T12:16:30Z</time>
      </trkpt>
      <trkpt lat="4.673501" lon="-74.980759">
        <ele>887.98486</ele>
        <time>2021-11-14T12:16:32Z</time>
      </trkpt>
      <trkpt lat="4.673626" lon="-74.980698">
        <ele>888.4155</ele>
        <time>2021-11-14T12:16:33Z</time>
      </trkpt>
      <trkpt lat="4.673716" lon="-74.980667">
        <ele>889.0553</ele>
        <time>2021-11-14T12:16:34Z</time>
      </trkpt>
      <trkpt lat="4.673797" lon="-74.980698">
        <ele>889.5967</ele>
        <time>2021-11-14T12:16:35Z</time>
      </trkpt>
      <trkpt lat="4.673941" lon="-74.980759">
        <ele>890.26746</ele>
        <time>2021-11-14T12:16:36Z</time>
      </trkpt>
      <trkpt lat="4.674075" lon="-74.980827">
        <ele>892.03357</ele>
        <time>2021-11-14T12:16:37Z</time>
      </trkpt>
      <trkpt lat="4.674221" lon="-74.980896">
        <ele>892.93164</ele>
        <time>2021-11-14T12:16:38Z</time>
      </trkpt>
      <trkpt lat="4.674335" lon="-74.980957">
        <ele>893.48267</ele>
        <time>2021-11-14T12:16:39Z</time>
      </trkpt>
      <trkpt lat="4.674447" lon="-74.98101">
        <ele>894.9509</ele>
        <time>2021-11-14T12:16:40Z</time>
      </trkpt>
      <trkpt lat="4.674576" lon="-74.981079">
        <ele>895.8867</ele>
        <time>2021-11-14T12:16:41Z</time>
      </trkpt>
      <trkpt lat="4.674679" lon="-74.981133">
        <ele>896.25354</ele>
        <time>2021-11-14T12:16:42Z</time>
      </trkpt>
      <trkpt lat="4.674794" lon="-74.981186">
        <ele>897.1338</ele>
        <time>2021-11-14T12:16:43Z</time>
      </trkpt>
      <trkpt lat="4.674926" lon="-74.981255">
        <ele>898.17334</ele>
        <time>2021-11-14T12:16:44Z</time>
      </trkpt>
      <trkpt lat="4.674962" lon="-74.981339">
        <ele>898.5775</ele>
        <time>2021-11-14T12:16:45Z</time>
      </trkpt>
      <trkpt lat="4.674991" lon="-74.98143">
        <ele>899.53613</ele>
        <time>2021-11-14T12:16:46Z</time>
      </trkpt>
      <trkpt lat="4.674993" lon="-74.981567">
        <ele>900.2322</ele>
        <time>2021-11-14T12:16:47Z</time>
      </trkpt>
      <trkpt lat="4.674923" lon="-74.981651">
        <ele>900.4177</ele>
        <time>2021-11-14T12:16:48Z</time>
      </trkpt>
      <trkpt lat="4.674846" lon="-74.98175">
        <ele>899.8784</ele>
        <time>2021-11-14T12:16:49Z</time>
      </trkpt>
      <trkpt lat="4.674757" lon="-74.981865">
        <ele>900.0891</ele>
        <time>2021-11-14T12:16:50Z</time>
      </trkpt>
      <trkpt lat="4.674672" lon="-74.98201">
        <ele>900.03613</ele>
        <time>2021-11-14T12:16:51Z</time>
      </trkpt>
      <trkpt lat="4.674614" lon="-74.982109">
        <ele>901.23096</ele>
        <time>2021-11-14T12:16:52Z</time>
      </trkpt>
      <trkpt lat="4.674515" lon="-74.982216">
        <ele>901.91113</ele>
        <time>2021-11-14T12:16:53Z</time>
      </trkpt>
      <trkpt lat="4.674418" lon="-74.982323">
        <ele>902.6699</ele>
        <time>2021-11-14T12:16:54Z</time>
      </trkpt>
      <trkpt lat="4.674338" lon="-74.982414">
        <ele>902.97217</ele>
        <time>2021-11-14T12:16:55Z</time>
      </trkpt>
      <trkpt lat="4.674255" lon="-74.982521">
        <ele>904.12744</ele>
        <time>2021-11-14T12:16:56Z</time>
      </trkpt>
      <trkpt lat="4.674227" lon="-74.982567">
        <ele>905.1371</ele>
        <time>2021-11-14T12:16:57Z</time>
      </trkpt>
      <trkpt lat="4.674218" lon="-74.982658">
        <ele>904.90186</ele>
        <time>2021-11-14T12:16:58Z</time>
      </trkpt>
      <trkpt lat="4.674218" lon="-74.982658">
        <ele>905.90576</ele>
        <time>2021-11-14T12:16:59Z</time>
      </trkpt>
      <trkpt lat="4.674217" lon="-74.982796">
        <ele>905.7095</ele>
        <time>2021-11-14T12:17:00Z</time>
      </trkpt>
      <trkpt lat="4.67424" lon="-74.982918">
        <ele>909.12744</ele>
        <time>2021-11-14T12:17:01Z</time>
      </trkpt>
      <trkpt lat="4.67425" lon="-74.98307">
        <ele>909.9131</ele>
        <time>2021-11-14T12:17:02Z</time>
      </trkpt>
      <trkpt lat="4.674253" lon="-74.983177">
        <ele>911.5913</ele>
        <time>2021-11-14T12:17:03Z</time>
      </trkpt>
      <trkpt lat="4.674231" lon="-74.983292">
        <ele>913.0012</ele>
        <time>2021-11-14T12:17:04Z</time>
      </trkpt>
      <trkpt lat="4.674195" lon="-74.983391">
        <ele>914.0073</ele>
        <time>2021-11-14T12:17:05Z</time>
      </trkpt>
      <trkpt lat="4.674132" lon="-74.983475">
        <ele>914.67847</ele>
        <time>2021-11-14T12:17:06Z</time>
      </trkpt>
      <trkpt lat="4.674042" lon="-74.983513">
        <ele>915.94885</ele>
        <time>2021-11-14T12:17:07Z</time>
      </trkpt>
      <trkpt lat="4.673878" lon="-74.983582">
        <ele>916.58813</ele>
        <time>2021-11-14T12:17:08Z</time>
      </trkpt>
      <trkpt lat="4.673717" lon="-74.98362">
        <ele>917.4794</ele>
        <time>2021-11-14T12:17:09Z</time>
      </trkpt>
      <trkpt lat="4.673605" lon="-74.983673">
        <ele>918.65186</ele>
        <time>2021-11-14T12:17:10Z</time>
      </trkpt>
      <trkpt lat="4.673495" lon="-74.983749">
        <ele>919.47046</ele>
        <time>2021-11-14T12:17:11Z</time>
      </trkpt>
      <trkpt lat="4.673356" lon="-74.983841">
        <ele>919.8679</ele>
        <time>2021-11-14T12:17:12Z</time>
      </trkpt>
      <trkpt lat="4.673232" lon="-74.983925">
        <ele>921.5405</ele>
        <time>2021-11-14T12:17:13Z</time>
      </trkpt>
      <trkpt lat="4.673092" lon="-74.984001">
        <ele>922.83496</ele>
        <time>2021-11-14T12:17:14Z</time>
      </trkpt>
      <trkpt lat="4.672944" lon="-74.984047">
        <ele>924.4021</ele>
        <time>2021-11-14T12:17:15Z</time>
      </trkpt>
      <trkpt lat="4.672763" lon="-74.984093">
        <ele>925.694</ele>
        <time>2021-11-14T12:17:16Z</time>
      </trkpt>
      <trkpt lat="4.672612" lon="-74.984131">
        <ele>926.84375</ele>
        <time>2021-11-14T12:17:17Z</time>
      </trkpt>
      <trkpt lat="4.67252" lon="-74.984169">
        <ele>927.5287</ele>
        <time>2021-11-14T12:17:18Z</time>
      </trkpt>
      <trkpt lat="4.672446" lon="-74.984238">
        <ele>928.3147</ele>
        <time>2021-11-14T12:17:19Z</time>
      </trkpt>
      <trkpt lat="4.672396" lon="-74.984314">
        <ele>929.15283</ele>
        <time>2021-11-14T12:17:20Z</time>
      </trkpt>
      <trkpt lat="4.672361" lon="-74.98439">
        <ele>930.0051</ele>
        <time>2021-11-14T12:17:21Z</time>
      </trkpt>
      <trkpt lat="4.672305" lon="-74.984505">
        <ele>930.729</ele>
        <time>2021-11-14T12:17:22Z</time>
      </trkpt>
      <trkpt lat="4.672233" lon="-74.98465">
        <ele>930.2947</ele>
        <time>2021-11-14T12:17:23Z</time>
      </trkpt>
      <trkpt lat="4.672138" lon="-74.984779">
        <ele>930.9265</ele>
        <time>2021-11-14T12:17:24Z</time>
      </trkpt>
      <trkpt lat="4.672078" lon="-74.984825">
        <ele>931.3933</ele>
        <time>2021-11-14T12:17:25Z</time>
      </trkpt>
      <trkpt lat="4.672055" lon="-74.984833">
        <ele>932.83765</ele>
        <time>2021-11-14T12:17:26Z</time>
      </trkpt>
      <trkpt lat="4.671961" lon="-74.984863">
        <ele>933.35864</ele>
        <time>2021-11-14T12:17:27Z</time>
      </trkpt>
      <trkpt lat="4.671859" lon="-74.984894">
        <ele>936.4603</ele>
        <time>2021-11-14T12:17:28Z</time>
      </trkpt>
      <trkpt lat="4.671536" lon="-74.985008">
        <ele>938.739</ele>
        <time>2021-11-14T12:17:29Z</time>
      </trkpt>
      <trkpt lat="4.671536" lon="-74.985008">
        <ele>940.12573</ele>
        <time>2021-11-14T12:17:30Z</time>
      </trkpt>
      <trkpt lat="4.671413" lon="-74.985077">
        <ele>941.3955</ele>
        <time>2021-11-14T12:17:31Z</time>
      </trkpt>
      <trkpt lat="4.671252" lon="-74.985153">
        <ele>943.29175</ele>
        <time>2021-11-14T12:17:32Z</time>
      </trkpt>
      <trkpt lat="4.671112" lon="-74.985222">
        <ele>943.93115</ele>
        <time>2021-11-14T12:17:33Z</time>
      </trkpt>
      <trkpt lat="4.670986" lon="-74.985275">
        <ele>945.2722</ele>
        <time>2021-11-14T12:17:34Z</time>
      </trkpt>
      <trkpt lat="4.670833" lon="-74.985359">
        <ele>946.5542</ele>
        <time>2021-11-14T12:17:35Z</time>
      </trkpt>
      <trkpt lat="4.670756" lon="-74.985405">
        <ele>947.0991</ele>
        <time>2021-11-14T12:17:36Z</time>
      </trkpt>
      <trkpt lat="4.670631" lon="-74.985474">
        <ele>948.68555</ele>
        <time>2021-11-14T12:17:37Z</time>
      </trkpt>
      <trkpt lat="4.670529" lon="-74.985504">
        <ele>951.4214</ele>
        <time>2021-11-14T12:17:38Z</time>
      </trkpt>
      <trkpt lat="4.670378" lon="-74.985519">
        <ele>952.3563</ele>
        <time>2021-11-14T12:17:39Z</time>
      </trkpt>
      <trkpt lat="4.670189" lon="-74.985527">
        <ele>953.5984</ele>
        <time>2021-11-14T12:17:40Z</time>
      </trkpt>
      <trkpt lat="4.670127" lon="-74.985565">
        <ele>954.4208</ele>
        <time>2021-11-14T12:17:41Z</time>
      </trkpt>
      <trkpt lat="4.670055" lon="-74.985611">
        <ele>955.10767</ele>
        <time>2021-11-14T12:17:42Z</time>
      </trkpt>
      <trkpt lat="4.669938" lon="-74.98568">
        <ele>955.76965</ele>
        <time>2021-11-14T12:17:43Z</time>
      </trkpt>
      <trkpt lat="4.669828" lon="-74.985794">
        <ele>956.2549</ele>
        <time>2021-11-14T12:17:44Z</time>
      </trkpt>
      <trkpt lat="4.669731" lon="-74.985939">
        <ele>955.9453</ele>
        <time>2021-11-14T12:17:45Z</time>
      </trkpt>
      <trkpt lat="4.669629" lon="-74.986076">
        <ele>956.1697</ele>
        <time>2021-11-14T12:17:46Z</time>
      </trkpt>
      <trkpt lat="4.669529" lon="-74.986176">
        <ele>956.21387</ele>
        <time>2021-11-14T12:17:47Z</time>
      </trkpt>
      <trkpt lat="4.669422" lon="-74.986252">
        <ele>956.26697</ele>
        <time>2021-11-14T12:17:48Z</time>
      </trkpt>
      <trkpt lat="4.669283" lon="-74.986328">
        <ele>960.0449</ele>
        <time>2021-11-14T12:17:49Z</time>
      </trkpt>
      <trkpt lat="4.669122" lon="-74.98642">
        <ele>962.5503</ele>
        <time>2021-11-14T12:17:50Z</time>
      </trkpt>
      <trkpt lat="4.669024" lon="-74.986488">
        <ele>964.74744</ele>
        <time>2021-11-14T12:17:51Z</time>
      </trkpt>
      <trkpt lat="4.668949" lon="-74.986542">
        <ele>965.6908</ele>
        <time>2021-11-14T12:17:52Z</time>
      </trkpt>
      <trkpt lat="4.668869" lon="-74.986664">
        <ele>967.281</ele>
        <time>2021-11-14T12:17:53Z</time>
      </trkpt>
      <trkpt lat="4.668792" lon="-74.986794">
        <ele>967.999</ele>
        <time>2021-11-14T12:17:54Z</time>
      </trkpt>
      <trkpt lat="4.668707" lon="-74.986923">
        <ele>968.19434</ele>
        <time>2021-11-14T12:17:55Z</time>
      </trkpt>
      <trkpt lat="4.668663" lon="-74.987">
        <ele>968.3508</ele>
        <time>2021-11-14T12:17:57Z</time>
      </trkpt>
      <trkpt lat="4.668663" lon="-74.987">
        <ele>968.51855</ele>
        <time>2021-11-14T12:17:58Z</time>
      </trkpt>
      <trkpt lat="4.668614" lon="-74.987076">
        <ele>968.6196</ele>
        <time>2021-11-14T12:17:59Z</time>
      </trkpt>
      <trkpt lat="4.668549" lon="-74.987183">
        <ele>969.51953</ele>
        <time>2021-11-14T12:18:00Z</time>
      </trkpt>
      <trkpt lat="4.668502" lon="-74.987251">
        <ele>970.0586</ele>
        <time>2021-11-14T12:18:01Z</time>
      </trkpt>
      <trkpt lat="4.668456" lon="-74.987373">
        <ele>971.147</ele>
        <time>2021-11-14T12:18:02Z</time>
      </trkpt>
      <trkpt lat="4.668407" lon="-74.987556">
        <ele>972.2783</ele>
        <time>2021-11-14T12:18:03Z</time>
      </trkpt>
      <trkpt lat="4.668366" lon="-74.987709">
        <ele>973.04614</ele>
        <time>2021-11-14T12:18:04Z</time>
      </trkpt>
      <trkpt lat="4.668335" lon="-74.987885">
        <ele>975.1338</ele>
        <time>2021-11-14T12:18:05Z</time>
      </trkpt>
      <trkpt lat="4.668364" lon="-74.988037">
        <ele>977.4072</ele>
        <time>2021-11-14T12:18:06Z</time>
      </trkpt>
      <trkpt lat="4.668368" lon="-74.988235">
        <ele>979.4728</ele>
        <time>2021-11-14T12:18:07Z</time>
      </trkpt>
      <trkpt lat="4.668368" lon="-74.988419">
        <ele>982.1294</ele>
        <time>2021-11-14T12:18:08Z</time>
      </trkpt>
      <trkpt lat="4.66835" lon="-74.988579">
        <ele>983.3391</ele>
        <time>2021-11-14T12:18:09Z</time>
      </trkpt>
      <trkpt lat="4.668335" lon="-74.988708">
        <ele>984.17126</ele>
        <time>2021-11-14T12:18:10Z</time>
      </trkpt>
      <trkpt lat="4.66832" lon="-74.988831">
        <ele>985.5532</ele>
        <time>2021-11-14T12:18:11Z</time>
      </trkpt>
      <trkpt lat="4.668323" lon="-74.988953">
        <ele>987.68726</ele>
        <time>2021-11-14T12:18:12Z</time>
      </trkpt>
      <trkpt lat="4.668386" lon="-74.989113">
        <ele>989.0936</ele>
        <time>2021-11-14T12:18:13Z</time>
      </trkpt>
      <trkpt lat="4.668388" lon="-74.989273">
        <ele>991.08215</ele>
        <time>2021-11-14T12:18:14Z</time>
      </trkpt>
      <trkpt lat="4.668375" lon="-74.989449">
        <ele>992.7593</ele>
        <time>2021-11-14T12:18:15Z</time>
      </trkpt>
      <trkpt lat="4.668383" lon="-74.989586">
        <ele>993.4485</ele>
        <time>2021-11-14T12:18:16Z</time>
      </trkpt>
      <trkpt lat="4.668409" lon="-74.989655">
        <ele>993.9772</ele>
        <time>2021-11-14T12:18:17Z</time>
      </trkpt>
      <trkpt lat="4.668456" lon="-74.989792">
        <ele>995.61597</ele>
        <time>2021-11-14T12:18:18Z</time>
      </trkpt>
      <trkpt lat="4.668511" lon="-74.989952">
        <ele>996.25</ele>
        <time>2021-11-14T12:18:19Z</time>
      </trkpt>
      <trkpt lat="4.668555" lon="-74.990097">
        <ele>998.3071</ele>
        <time>2021-11-14T12:18:20Z</time>
      </trkpt>
      <trkpt lat="4.668585" lon="-74.990242">
        <ele>999.917</ele>
        <time>2021-11-14T12:18:21Z</time>
      </trkpt>
      <trkpt lat="4.668622" lon="-74.990433">
        <ele>1001.61475</ele>
        <time>2021-11-14T12:18:22Z</time>
      </trkpt>
      <trkpt lat="4.668651" lon="-74.990578">
        <ele>1003.1177</ele>
        <time>2021-11-14T12:18:23Z</time>
      </trkpt>
      <trkpt lat="4.668672" lon="-74.990685">
        <ele>1004.0713</ele>
        <time>2021-11-14T12:18:24Z</time>
      </trkpt>
      <trkpt lat="4.668672" lon="-74.990685">
        <ele>1006.2427</ele>
        <time>2021-11-14T12:18:25Z</time>
      </trkpt>
      <trkpt lat="4.668696" lon="-74.990799">
        <ele>1007.8019</ele>
        <time>2021-11-14T12:18:26Z</time>
      </trkpt>
      <trkpt lat="4.668707" lon="-74.990974">
        <ele>1009.0127</ele>
        <time>2021-11-14T12:18:27Z</time>
      </trkpt>
      <trkpt lat="4.668714" lon="-74.991089">
        <ele>1009.286</ele>
        <time>2021-11-14T12:18:28Z</time>
      </trkpt>
      <trkpt lat="4.668723" lon="-74.991241">
        <ele>1009.60254</ele>
        <time>2021-11-14T12:18:29Z</time>
      </trkpt>
      <trkpt lat="4.668732" lon="-74.991409">
        <ele>1010.198</ele>
        <time>2021-11-14T12:18:30Z</time>
      </trkpt>
      <trkpt lat="4.668737" lon="-74.99157">
        <ele>1011.71655</ele>
        <time>2021-11-14T12:18:31Z</time>
      </trkpt>
      <trkpt lat="4.668733" lon="-74.991699">
        <ele>1012.5127</ele>
        <time>2021-11-14T12:18:32Z</time>
      </trkpt>
      <trkpt lat="4.668728" lon="-74.991844">
        <ele>1013.87476</ele>
        <time>2021-11-14T12:18:33Z</time>
      </trkpt>
      <trkpt lat="4.668723" lon="-74.99202">
        <ele>1014.43677</ele>
        <time>2021-11-14T12:18:34Z</time>
      </trkpt>
      <trkpt lat="4.668716" lon="-74.992203">
        <ele>1015.6561</ele>
        <time>2021-11-14T12:18:35Z</time>
      </trkpt>
      <trkpt lat="4.668682" lon="-74.992348">
        <ele>1016.7926</ele>
        <time>2021-11-14T12:18:36Z</time>
      </trkpt>
      <trkpt lat="4.668659" lon="-74.992447">
        <ele>1017.6627</ele>
        <time>2021-11-14T12:18:37Z</time>
      </trkpt>
      <trkpt lat="4.668631" lon="-74.992561">
        <ele>1019.0867</ele>
        <time>2021-11-14T12:18:38Z</time>
      </trkpt>
      <trkpt lat="4.668628" lon="-74.992706">
        <ele>1020.68896</ele>
        <time>2021-11-14T12:18:39Z</time>
      </trkpt>
      <trkpt lat="4.668628" lon="-74.992813">
        <ele>1021.5426</ele>
        <time>2021-11-14T12:18:40Z</time>
      </trkpt>
      <trkpt lat="4.668628" lon="-74.992882">
        <ele>1021.6936</ele>
        <time>2021-11-14T12:18:41Z</time>
      </trkpt>
      <trkpt lat="4.668695" lon="-74.992973">
        <ele>1023.6499</ele>
        <time>2021-11-14T12:18:42Z</time>
      </trkpt>
      <trkpt lat="4.668886" lon="-74.993195">
        <ele>1024.6862</ele>
        <time>2021-11-14T12:18:43Z</time>
      </trkpt>
      <trkpt lat="4.669" lon="-74.993301">
        <ele>1025.8782</ele>
        <time>2021-11-14T12:18:44Z</time>
      </trkpt>
      <trkpt lat="4.669123" lon="-74.993408">
        <ele>1027.6653</ele>
        <time>2021-11-14T12:18:45Z</time>
      </trkpt>
      <trkpt lat="4.669196" lon="-74.993492">
        <ele>1027.4392</ele>
        <time>2021-11-14T12:18:46Z</time>
      </trkpt>
      <trkpt lat="4.669236" lon="-74.993591">
        <ele>1027.6385</ele>
        <time>2021-11-14T12:18:47Z</time>
      </trkpt>
      <trkpt lat="4.669268" lon="-74.993668">
        <ele>1028.5421</ele>
        <time>2021-11-14T12:18:48Z</time>
      </trkpt>
      <trkpt lat="4.669315" lon="-74.993805">
        <ele>1029.6499</ele>
        <time>2021-11-14T12:18:49Z</time>
      </trkpt>
      <trkpt lat="4.669294" lon="-74.993935">
        <ele>1029.5098</ele>
        <time>2021-11-14T12:18:50Z</time>
      </trkpt>
      <trkpt lat="4.669264" lon="-74.994118">
        <ele>1029.9878</ele>
        <time>2021-11-14T12:18:51Z</time>
      </trkpt>
      <trkpt lat="4.669251" lon="-74.994202">
        <ele>1030.296</ele>
        <time>2021-11-14T12:18:52Z</time>
      </trkpt>
      <trkpt lat="4.669221" lon="-74.994339">
        <ele>1029.85</ele>
        <time>2021-11-14T12:18:53Z</time>
      </trkpt>
      <trkpt lat="4.669142" lon="-74.994453">
        <ele>1029.5562</ele>
        <time>2021-11-14T12:18:54Z</time>
      </trkpt>
      <trkpt lat="4.669142" lon="-74.994453">
        <ele>1030.097</ele>
        <time>2021-11-14T12:18:56Z</time>
      </trkpt>
      <trkpt lat="4.66908" lon="-74.99456">
        <ele>1029.7809</ele>
        <time>2021-11-14T12:18:57Z</time>
      </trkpt>
      <trkpt lat="4.669009" lon="-74.994713">
        <ele>1030.6963</ele>
        <time>2021-11-14T12:18:58Z</time>
      </trkpt>
      <trkpt lat="4.668972" lon="-74.99482">
        <ele>1031.5881</ele>
        <time>2021-11-14T12:18:59Z</time>
      </trkpt>
      <trkpt lat="4.668958" lon="-74.994865">
        <ele>1033.0023</ele>
        <time>2021-11-14T12:19:00Z</time>
      </trkpt>
      <trkpt lat="4.668948" lon="-74.99498">
        <ele>1030.4106</ele>
        <time>2021-11-14T12:19:01Z</time>
      </trkpt>
      <trkpt lat="4.66895" lon="-74.995087">
        <ele>1029.6672</ele>
        <time>2021-11-14T12:19:02Z</time>
      </trkpt>
      <trkpt lat="4.669017" lon="-74.995155">
        <ele>1030.0907</ele>
        <time>2021-11-14T12:19:03Z</time>
      </trkpt>
      <trkpt lat="4.669132" lon="-74.995277">
        <ele>1031.8903</ele>
        <time>2021-11-14T12:19:04Z</time>
      </trkpt>
      <trkpt lat="4.669201" lon="-74.995415">
        <ele>1034.9689</ele>
        <time>2021-11-14T12:19:05Z</time>
      </trkpt>
      <trkpt lat="4.669232" lon="-74.995506">
        <ele>1037.1085</ele>
        <time>2021-11-14T12:19:06Z</time>
      </trkpt>
      <trkpt lat="4.669242" lon="-74.99559">
        <ele>1037.3424</ele>
        <time>2021-11-14T12:19:07Z</time>
      </trkpt>
      <trkpt lat="4.669225" lon="-74.995689">
        <ele>1039.4946</ele>
        <time>2021-11-14T12:19:08Z</time>
      </trkpt>
      <trkpt lat="4.669205" lon="-74.995796">
        <ele>1040.7</ele>
        <time>2021-11-14T12:19:09Z</time>
      </trkpt>
      <trkpt lat="4.669147" lon="-74.995934">
        <ele>1041.6106</ele>
        <time>2021-11-14T12:19:10Z</time>
      </trkpt>
      <trkpt lat="4.66911" lon="-74.996025">
        <ele>1040.6521</ele>
        <time>2021-11-14T12:19:11Z</time>
      </trkpt>
      <trkpt lat="4.669064" lon="-74.996132">
        <ele>1041.4296</ele>
        <time>2021-11-14T12:19:12Z</time>
      </trkpt>
      <trkpt lat="4.669004" lon="-74.996277">
        <ele>1041.7312</ele>
        <time>2021-11-14T12:19:13Z</time>
      </trkpt>
      <trkpt lat="4.668949" lon="-74.996414">
        <ele>1042.7208</ele>
        <time>2021-11-14T12:19:14Z</time>
      </trkpt>
      <trkpt lat="4.668933" lon="-74.99649">
        <ele>1042.5514</ele>
        <time>2021-11-14T12:19:15Z</time>
      </trkpt>
      <trkpt lat="4.668914" lon="-74.996582">
        <ele>1042.0616</ele>
        <time>2021-11-14T12:19:16Z</time>
      </trkpt>
      <trkpt lat="4.668893" lon="-74.996689">
        <ele>1044.1254</ele>
        <time>2021-11-14T12:19:17Z</time>
      </trkpt>
      <trkpt lat="4.668889" lon="-74.996773">
        <ele>1042.9485</ele>
        <time>2021-11-14T12:19:18Z</time>
      </trkpt>
      <trkpt lat="4.668907" lon="-74.996811">
        <ele>1042.2094</ele>
        <time>2021-11-14T12:19:19Z</time>
      </trkpt>
      <trkpt lat="4.668949" lon="-74.996841">
        <ele>1041.5948</ele>
        <time>2021-11-14T12:19:20Z</time>
      </trkpt>
      <trkpt lat="4.669025" lon="-74.99688">
        <ele>1040.9962</ele>
        <time>2021-11-14T12:19:21Z</time>
      </trkpt>
      <trkpt lat="4.669108" lon="-74.996864">
        <ele>1041.8842</ele>
        <time>2021-11-14T12:19:22Z</time>
      </trkpt>
      <trkpt lat="4.669122" lon="-74.996864">
        <ele>1044.5046</ele>
        <time>2021-11-14T12:19:23Z</time>
      </trkpt>
      <trkpt lat="4.669264" lon="-74.996826">
        <ele>1046.9324</ele>
        <time>2021-11-14T12:19:24Z</time>
      </trkpt>
      <trkpt lat="4.669383" lon="-74.996788">
        <ele>1049.0062</ele>
        <time>2021-11-14T12:19:25Z</time>
      </trkpt>
      <trkpt lat="4.669455" lon="-74.996719">
        <ele>1051.3574</ele>
        <time>2021-11-14T12:19:26Z</time>
      </trkpt>
      <trkpt lat="4.669522" lon="-74.996605">
        <ele>1053.7992</ele>
        <time>2021-11-14T12:19:27Z</time>
      </trkpt>
      <trkpt lat="4.669578" lon="-74.996506">
        <ele>1056.541</ele>
        <time>2021-11-14T12:19:28Z</time>
      </trkpt>
      <trkpt lat="4.669638" lon="-74.996414">
        <ele>1057.8118</ele>
        <time>2021-11-14T12:19:29Z</time>
      </trkpt>
      <trkpt lat="4.669701" lon="-74.996368">
        <ele>1056.9252</ele>
        <time>2021-11-14T12:19:30Z</time>
      </trkpt>
      <trkpt lat="4.669701" lon="-74.996368">
        <ele>1056.4912</ele>
        <time>2021-11-14T12:19:31Z</time>
      </trkpt>
      <trkpt lat="4.669757" lon="-74.99633">
        <ele>1057.0536</ele>
        <time>2021-11-14T12:19:32Z</time>
      </trkpt>
      <trkpt lat="4.669845" lon="-74.996262">
        <ele>1057.1621</ele>
        <time>2021-11-14T12:19:33Z</time>
      </trkpt>
      <trkpt lat="4.669971" lon="-74.99614">
        <ele>1057.1492</ele>
        <time>2021-11-14T12:19:34Z</time>
      </trkpt>
      <trkpt lat="4.670058" lon="-74.996002">
        <ele>1058.5613</ele>
        <time>2021-11-14T12:19:35Z</time>
      </trkpt>
      <trkpt lat="4.670127" lon="-74.995895">
        <ele>1059.1514</ele>
        <time>2021-11-14T12:19:36Z</time>
      </trkpt>
      <trkpt lat="4.670175" lon="-74.995781">
        <ele>1059.6136</ele>
        <time>2021-11-14T12:19:37Z</time>
      </trkpt>
      <trkpt lat="4.670151" lon="-74.995628">
        <ele>1061.379</ele>
        <time>2021-11-14T12:19:38Z</time>
      </trkpt>
      <trkpt lat="4.670139" lon="-74.995552">
        <ele>1062.9829</ele>
        <time>2021-11-14T12:19:39Z</time>
      </trkpt>
      <trkpt lat="4.670123" lon="-74.995438">
        <ele>1063.1671</ele>
        <time>2021-11-14T12:19:40Z</time>
      </trkpt>
      <trkpt lat="4.670097" lon="-74.995277">
        <ele>1064.8518</ele>
        <time>2021-11-14T12:19:41Z</time>
      </trkpt>
      <trkpt lat="4.670084" lon="-74.995155">
        <ele>1066.5009</ele>
        <time>2021-11-14T12:19:42Z</time>
      </trkpt>
      <trkpt lat="4.670075" lon="-74.995026">
        <ele>1067.4464</ele>
        <time>2021-11-14T12:19:43Z</time>
      </trkpt>
      <trkpt lat="4.670097" lon="-74.994904">
        <ele>1068.2208</ele>
        <time>2021-11-14T12:19:44Z</time>
      </trkpt>
      <trkpt lat="4.670192" lon="-74.994804">
        <ele>1069.0759</ele>
        <time>2021-11-14T12:19:45Z</time>
      </trkpt>
      <trkpt lat="4.670276" lon="-74.99472">
        <ele>1070.1698</ele>
        <time>2021-11-14T12:19:46Z</time>
      </trkpt>
      <trkpt lat="4.670381" lon="-74.994614">
        <ele>1070.7095</ele>
        <time>2021-11-14T12:19:47Z</time>
      </trkpt>
      <trkpt lat="4.670475" lon="-74.994469">
        <ele>1071.1051</ele>
        <time>2021-11-14T12:19:48Z</time>
      </trkpt>
      <trkpt lat="4.670522" lon="-74.99437">
        <ele>1071.3182</ele>
        <time>2021-11-14T12:19:49Z</time>
      </trkpt>
      <trkpt lat="4.670557" lon="-74.994301">
        <ele>1071.7561</ele>
        <time>2021-11-14T12:19:50Z</time>
      </trkpt>
      <trkpt lat="4.670585" lon="-74.994217">
        <ele>1074.2216</ele>
        <time>2021-11-14T12:19:51Z</time>
      </trkpt>
      <trkpt lat="4.670607" lon="-74.99408">
        <ele>1073.5338</ele>
        <time>2021-11-14T12:19:52Z</time>
      </trkpt>
      <trkpt lat="4.670625" lon="-74.993958">
        <ele>1076.5295</ele>
        <time>2021-11-14T12:19:54Z</time>
      </trkpt>
      <trkpt lat="4.670658" lon="-74.993759">
        <ele>1077.541</ele>
        <time>2021-11-14T12:19:55Z</time>
      </trkpt>
      <trkpt lat="4.670671" lon="-74.993698">
        <ele>1078.0558</ele>
        <time>2021-11-14T12:19:56Z</time>
      </trkpt>
      <trkpt lat="4.670671" lon="-74.993698">
        <ele>1079.5054</ele>
        <time>2021-11-14T12:19:57Z</time>
      </trkpt>
      <trkpt lat="4.670708" lon="-74.993538">
        <ele>1079.9043</ele>
        <time>2021-11-14T12:19:58Z</time>
      </trkpt>
      <trkpt lat="4.67083" lon="-74.993446">
        <ele>1080.7899</ele>
        <time>2021-11-14T12:19:59Z</time>
      </trkpt>
      <trkpt lat="4.670878" lon="-74.993408">
        <ele>1081.4229</ele>
        <time>2021-11-14T12:20:00Z</time>
      </trkpt>
      <trkpt lat="4.671017" lon="-74.993347">
        <ele>1082.3143</ele>
        <time>2021-11-14T12:20:01Z</time>
      </trkpt>
      <trkpt lat="4.671157" lon="-74.993324">
        <ele>1083.1332</ele>
        <time>2021-11-14T12:20:02Z</time>
      </trkpt>
      <trkpt lat="4.671273" lon="-74.993362">
        <ele>1083.7441</ele>
        <time>2021-11-14T12:20:03Z</time>
      </trkpt>
      <trkpt lat="4.671436" lon="-74.993401">
        <ele>1085.2764</ele>
        <time>2021-11-14T12:20:04Z</time>
      </trkpt>
      <trkpt lat="4.671556" lon="-74.993362">
        <ele>1086.7523</ele>
        <time>2021-11-14T12:20:05Z</time>
      </trkpt>
      <trkpt lat="4.671658" lon="-74.993324">
        <ele>1085.9923</ele>
        <time>2021-11-14T12:20:06Z</time>
      </trkpt>
      <trkpt lat="4.671779" lon="-74.993286">
        <ele>1088.024</ele>
        <time>2021-11-14T12:20:07Z</time>
      </trkpt>
      <trkpt lat="4.671858" lon="-74.993263">
        <ele>1087.9282</ele>
        <time>2021-11-14T12:20:08Z</time>
      </trkpt>
      <trkpt lat="4.671929" lon="-74.993301">
        <ele>1089.7424</ele>
        <time>2021-11-14T12:20:09Z</time>
      </trkpt>
      <trkpt lat="4.672029" lon="-74.99337">
        <ele>1091.2958</ele>
        <time>2021-11-14T12:20:10Z</time>
      </trkpt>
      <trkpt lat="4.672096" lon="-74.993446">
        <ele>1092.0573</ele>
        <time>2021-11-14T12:20:11Z</time>
      </trkpt>
      <trkpt lat="4.672118" lon="-74.993538">
        <ele>1092.8882</ele>
        <time>2021-11-14T12:20:12Z</time>
      </trkpt>
      <trkpt lat="4.672105" lon="-74.993607">
        <ele>1092.8729</ele>
        <time>2021-11-14T12:20:13Z</time>
      </trkpt>
      <trkpt lat="4.672048" lon="-74.993675">
        <ele>1093.9478</ele>
        <time>2021-11-14T12:20:14Z</time>
      </trkpt>
      <trkpt lat="4.671882" lon="-74.993858">
        <ele>1094.6279</ele>
        <time>2021-11-14T12:20:15Z</time>
      </trkpt>
      <trkpt lat="4.671818" lon="-74.993965">
        <ele>1094.5444</ele>
        <time>2021-11-14T12:20:16Z</time>
      </trkpt>
      <trkpt lat="4.671765" lon="-74.994072">
        <ele>1095.9977</ele>
        <time>2021-11-14T12:20:17Z</time>
      </trkpt>
      <trkpt lat="4.671709" lon="-74.994186">
        <ele>1096.8477</ele>
        <time>2021-11-14T12:20:18Z</time>
      </trkpt>
      <trkpt lat="4.671643" lon="-74.994324">
        <ele>1098.4048</ele>
        <time>2021-11-14T12:20:19Z</time>
      </trkpt>
      <trkpt lat="4.671592" lon="-74.994431">
        <ele>1099.5845</ele>
        <time>2021-11-14T12:20:20Z</time>
      </trkpt>
      <trkpt lat="4.671627" lon="-74.994591">
        <ele>1100.1932</ele>
        <time>2021-11-14T12:20:21Z</time>
      </trkpt>
      <trkpt lat="4.671666" lon="-74.994743">
        <ele>1099.8368</ele>
        <time>2021-11-14T12:20:22Z</time>
      </trkpt>
      <trkpt lat="4.671703" lon="-74.994881">
        <ele>1103.047</ele>
        <time>2021-11-14T12:20:23Z</time>
      </trkpt>
      <trkpt lat="4.671736" lon="-74.995026">
        <ele>1103.6221</ele>
        <time>2021-11-14T12:20:24Z</time>
      </trkpt>
      <trkpt lat="4.671728" lon="-74.99514">
        <ele>1104.2607</ele>
        <time>2021-11-14T12:20:25Z</time>
      </trkpt>
      <trkpt lat="4.671723" lon="-74.995216">
        <ele>1104.3569</ele>
        <time>2021-11-14T12:20:26Z</time>
      </trkpt>
      <trkpt lat="4.671685" lon="-74.995392">
        <ele>1105.0203</ele>
        <time>2021-11-14T12:20:27Z</time>
      </trkpt>
      <trkpt lat="4.671653" lon="-74.995514">
        <ele>1107.038</ele>
        <time>2021-11-14T12:20:28Z</time>
      </trkpt>
      <trkpt lat="4.671653" lon="-74.995514">
        <ele>1107.2482</ele>
        <time>2021-11-14T12:20:29Z</time>
      </trkpt>
      <trkpt lat="4.671663" lon="-74.995628">
        <ele>1108.0712</ele>
        <time>2021-11-14T12:20:30Z</time>
      </trkpt>
      <trkpt lat="4.67172" lon="-74.99575">
        <ele>1108.701</ele>
        <time>2021-11-14T12:20:31Z</time>
      </trkpt>
      <trkpt lat="4.671785" lon="-74.995888">
        <ele>1110.151</ele>
        <time>2021-11-14T12:20:32Z</time>
      </trkpt>
      <trkpt lat="4.671823" lon="-74.995995">
        <ele>1111.6788</ele>
        <time>2021-11-14T12:20:33Z</time>
      </trkpt>
      <trkpt lat="4.671792" lon="-74.996056">
        <ele>1111.5453</ele>
        <time>2021-11-14T12:20:34Z</time>
      </trkpt>
      <trkpt lat="4.671719" lon="-74.996193">
        <ele>1110.4196</ele>
        <time>2021-11-14T12:20:35Z</time>
      </trkpt>
      <trkpt lat="4.6716" lon="-74.996338">
        <ele>1111.6703</ele>
        <time>2021-11-14T12:20:36Z</time>
      </trkpt>
      <trkpt lat="4.671514" lon="-74.996445">
        <ele>1111.1654</ele>
        <time>2021-11-14T12:20:37Z</time>
      </trkpt>
      <trkpt lat="4.671451" lon="-74.996521">
        <ele>1114.045</ele>
        <time>2021-11-14T12:20:38Z</time>
      </trkpt>
      <trkpt lat="4.671381" lon="-74.996826">
        <ele>1115.3545</ele>
        <time>2021-11-14T12:20:39Z</time>
      </trkpt>
      <trkpt lat="4.671364" lon="-74.996956">
        <ele>1115.3679</ele>
        <time>2021-11-14T12:20:40Z</time>
      </trkpt>
      <trkpt lat="4.671368" lon="-74.997086">
        <ele>1116.8474</ele>
        <time>2021-11-14T12:20:41Z</time>
      </trkpt>
      <trkpt lat="4.671381" lon="-74.997223">
        <ele>1117.3584</ele>
        <time>2021-11-14T12:20:42Z</time>
      </trkpt>
      <trkpt lat="4.671396" lon="-74.997383">
        <ele>1118.9801</ele>
        <time>2021-11-14T12:20:43Z</time>
      </trkpt>
      <trkpt lat="4.671411" lon="-74.997543">
        <ele>1119.9819</ele>
        <time>2021-11-14T12:20:44Z</time>
      </trkpt>
      <trkpt lat="4.671426" lon="-74.997688">
        <ele>1120.6962</ele>
        <time>2021-11-14T12:20:45Z</time>
      </trkpt>
      <trkpt lat="4.671438" lon="-74.99781">
        <ele>1122.5234</ele>
        <time>2021-11-14T12:20:46Z</time>
      </trkpt>
      <trkpt lat="4.671497" lon="-74.997978">
        <ele>1125.2069</ele>
        <time>2021-11-14T12:20:48Z</time>
      </trkpt>
      <trkpt lat="4.671545" lon="-74.998093">
        <ele>1128.0681</ele>
        <time>2021-11-14T12:20:49Z</time>
      </trkpt>
      <trkpt lat="4.671585" lon="-74.998192">
        <ele>1129.0276</ele>
        <time>2021-11-14T12:20:50Z</time>
      </trkpt>
      <trkpt lat="4.671657" lon="-74.998283">
        <ele>1128.3663</ele>
        <time>2021-11-14T12:20:51Z</time>
      </trkpt>
      <trkpt lat="4.671754" lon="-74.998344">
        <ele>1130.3989</ele>
        <time>2021-11-14T12:20:52Z</time>
      </trkpt>
      <trkpt lat="4.671856" lon="-74.998413">
        <ele>1131.2296</ele>
        <time>2021-11-14T12:20:53Z</time>
      </trkpt>
      <trkpt lat="4.671977" lon="-74.998497">
        <ele>1132.1372</ele>
        <time>2021-11-14T12:20:54Z</time>
      </trkpt>
      <trkpt lat="4.672073" lon="-74.998558">
        <ele>1133.931</ele>
        <time>2021-11-14T12:20:55Z</time>
      </trkpt>
      <trkpt lat="4.672073" lon="-74.998558">
        <ele>1136.4696</ele>
        <time>2021-11-14T12:20:56Z</time>
      </trkpt>
      <trkpt lat="4.672144" lon="-74.998695">
        <ele>1137.5806</ele>
        <time>2021-11-14T12:20:57Z</time>
      </trkpt>
      <trkpt lat="4.672204" lon="-74.998886">
        <ele>1138.6765</ele>
        <time>2021-11-14T12:20:58Z</time>
      </trkpt>
      <trkpt lat="4.672315" lon="-74.999001">
        <ele>1139.849</ele>
        <time>2021-11-14T12:20:59Z</time>
      </trkpt>
      <trkpt lat="4.672404" lon="-74.999084">
        <ele>1141.107</ele>
        <time>2021-11-14T12:21:00Z</time>
      </trkpt>
      <trkpt lat="4.672473" lon="-74.999123">
        <ele>1143.8733</ele>
        <time>2021-11-14T12:21:01Z</time>
      </trkpt>
      <trkpt lat="4.672561" lon="-74.999168">
        <ele>1144.8875</ele>
        <time>2021-11-14T12:21:02Z</time>
      </trkpt>
      <trkpt lat="4.672691" lon="-74.999229">
        <ele>1146.0819</ele>
        <time>2021-11-14T12:21:03Z</time>
      </trkpt>
      <trkpt lat="4.672822" lon="-74.99929">
        <ele>1148.007</ele>
        <time>2021-11-14T12:21:04Z</time>
      </trkpt>
      <trkpt lat="4.67296" lon="-74.999359">
        <ele>1149.1115</ele>
        <time>2021-11-14T12:21:05Z</time>
      </trkpt>
      <trkpt lat="4.673081" lon="-74.99942">
        <ele>1150.521</ele>
        <time>2021-11-14T12:21:06Z</time>
      </trkpt>
      <trkpt lat="4.673196" lon="-74.999474">
        <ele>1151.7086</ele>
        <time>2021-11-14T12:21:07Z</time>
      </trkpt>
      <trkpt lat="4.673334" lon="-74.99955">
        <ele>1152.855</ele>
        <time>2021-11-14T12:21:08Z</time>
      </trkpt>
      <trkpt lat="4.67345" lon="-74.999702">
        <ele>1154.2784</ele>
        <time>2021-11-14T12:21:09Z</time>
      </trkpt>
      <trkpt lat="4.673481" lon="-74.999855">
        <ele>1155.8075</ele>
        <time>2021-11-14T12:21:10Z</time>
      </trkpt>
      <trkpt lat="4.673485" lon="-74.999954">
        <ele>1156.1011</ele>
        <time>2021-11-14T12:21:11Z</time>
      </trkpt>
      <trkpt lat="4.673489" lon="-75.000076">
        <ele>1155.6842</ele>
        <time>2021-11-14T12:21:12Z</time>
      </trkpt>
      <trkpt lat="4.673493" lon="-75.000191">
        <ele>1158.158</ele>
        <time>2021-11-14T12:21:13Z</time>
      </trkpt>
      <trkpt lat="4.673502" lon="-75.000404">
        <ele>1159.1372</ele>
        <time>2021-11-14T12:21:14Z</time>
      </trkpt>
      <trkpt lat="4.673572" lon="-75.000549">
        <ele>1160.9879</ele>
        <time>2021-11-14T12:21:15Z</time>
      </trkpt>
      <trkpt lat="4.673624" lon="-75.000648">
        <ele>1161.6865</ele>
        <time>2021-11-14T12:21:16Z</time>
      </trkpt>
      <trkpt lat="4.673599" lon="-75.000755">
        <ele>1162.2021</ele>
        <time>2021-11-14T12:21:17Z</time>
      </trkpt>
      <trkpt lat="4.673581" lon="-75.000809">
        <ele>1162.2831</ele>
        <time>2021-11-14T12:21:18Z</time>
      </trkpt>
      <trkpt lat="4.673525" lon="-75.000984">
        <ele>1162.3185</ele>
        <time>2021-11-14T12:21:19Z</time>
      </trkpt>
      <trkpt lat="4.673428" lon="-75.001076">
        <ele>1162.4298</ele>
        <time>2021-11-14T12:21:20Z</time>
      </trkpt>
      <trkpt lat="4.673359" lon="-75.001129">
        <ele>1163.5144</ele>
        <time>2021-11-14T12:21:21Z</time>
      </trkpt>
      <trkpt lat="4.673203" lon="-75.001259">
        <ele>1164.0812</ele>
        <time>2021-11-14T12:21:22Z</time>
      </trkpt>
      <trkpt lat="4.673093" lon="-75.001343">
        <ele>1163.3499</ele>
        <time>2021-11-14T12:21:23Z</time>
      </trkpt>
      <trkpt lat="4.672931" lon="-75.001472">
        <ele>1163.2345</ele>
        <time>2021-11-14T12:21:24Z</time>
      </trkpt>
      <trkpt lat="4.672931" lon="-75.001472">
        <ele>1163.452</ele>
        <time>2021-11-14T12:21:25Z</time>
      </trkpt>
      <trkpt lat="4.672795" lon="-75.001518">
        <ele>1166.6976</ele>
        <time>2021-11-14T12:21:26Z</time>
      </trkpt>
      <trkpt lat="4.672658" lon="-75.001564">
        <ele>1169.269</ele>
        <time>2021-11-14T12:21:27Z</time>
      </trkpt>
      <trkpt lat="4.672543" lon="-75.001633">
        <ele>1170.7534</ele>
        <time>2021-11-14T12:21:28Z</time>
      </trkpt>
      <trkpt lat="4.672503" lon="-75.001701">
        <ele>1171.0284</ele>
        <time>2021-11-14T12:21:29Z</time>
      </trkpt>
      <trkpt lat="4.672451" lon="-75.001801">
        <ele>1171.345</ele>
        <time>2021-11-14T12:21:30Z</time>
      </trkpt>
      <trkpt lat="4.672391" lon="-75.001923">
        <ele>1171.4126</ele>
        <time>2021-11-14T12:21:31Z</time>
      </trkpt>
      <trkpt lat="4.67236" lon="-75.001991">
        <ele>1172.1757</ele>
        <time>2021-11-14T12:21:32Z</time>
      </trkpt>
      <trkpt lat="4.672352" lon="-75.002007">
        <ele>1172.5977</ele>
        <time>2021-11-14T12:21:33Z</time>
      </trkpt>
      <trkpt lat="4.67231" lon="-75.00209">
        <ele>1171.641</ele>
        <time>2021-11-14T12:21:34Z</time>
      </trkpt>
      <trkpt lat="4.67227" lon="-75.002182">
        <ele>1173.2124</ele>
        <time>2021-11-14T12:21:35Z</time>
      </trkpt>
      <trkpt lat="4.672253" lon="-75.00222">
        <ele>1173.6351</ele>
        <time>2021-11-14T12:21:36Z</time>
      </trkpt>
      <trkpt lat="4.672208" lon="-75.002312">
        <ele>1173.8894</ele>
        <time>2021-11-14T12:21:37Z</time>
      </trkpt>
      <trkpt lat="4.672136" lon="-75.002357">
        <ele>1175.8057</ele>
        <time>2021-11-14T12:21:38Z</time>
      </trkpt>
      <trkpt lat="4.67209" lon="-75.00238">
        <ele>1175.055</ele>
        <time>2021-11-14T12:21:39Z</time>
      </trkpt>
      <trkpt lat="4.672048" lon="-75.002411">
        <ele>1173.7891</ele>
        <time>2021-11-14T12:21:40Z</time>
      </trkpt>
      <trkpt lat="4.671917" lon="-75.002411">
        <ele>1177.0271</ele>
        <time>2021-11-14T12:21:41Z</time>
      </trkpt>
      <trkpt lat="4.671829" lon="-75.002373">
        <ele>1178.6086</ele>
        <time>2021-11-14T12:21:42Z</time>
      </trkpt>
      <trkpt lat="4.671725" lon="-75.002327">
        <ele>1179.4902</ele>
        <time>2021-11-14T12:21:43Z</time>
      </trkpt>
      <trkpt lat="4.671645" lon="-75.002335">
        <ele>1181.7349</ele>
        <time>2021-11-14T12:21:44Z</time>
      </trkpt>
      <trkpt lat="4.671584" lon="-75.00238">
        <ele>1183.6089</ele>
        <time>2021-11-14T12:21:46Z</time>
      </trkpt>
      <trkpt lat="4.671463" lon="-75.00248">
        <ele>1184.7751</ele>
        <time>2021-11-14T12:21:47Z</time>
      </trkpt>
      <trkpt lat="4.671426" lon="-75.002586">
        <ele>1186.0624</ele>
        <time>2021-11-14T12:21:48Z</time>
      </trkpt>
      <trkpt lat="4.671396" lon="-75.002693">
        <ele>1187.3191</ele>
        <time>2021-11-14T12:21:49Z</time>
      </trkpt>
      <trkpt lat="4.671353" lon="-75.002838">
        <ele>1190.0103</ele>
        <time>2021-11-14T12:21:50Z</time>
      </trkpt>
      <trkpt lat="4.671265" lon="-75.003029">
        <ele>1191.3953</ele>
        <time>2021-11-14T12:21:51Z</time>
      </trkpt>
      <trkpt lat="4.671179" lon="-75.003189">
        <ele>1192.7104</ele>
        <time>2021-11-14T12:21:52Z</time>
      </trkpt>
      <trkpt lat="4.671116" lon="-75.003304">
        <ele>1194.6064</ele>
        <time>2021-11-14T12:21:53Z</time>
      </trkpt>
      <trkpt lat="4.671048" lon="-75.00341">
        <ele>1195.8564</ele>
        <time>2021-11-14T12:21:54Z</time>
      </trkpt>
      <trkpt lat="4.670954" lon="-75.003517">
        <ele>1196.9213</ele>
        <time>2021-11-14T12:21:55Z</time>
      </trkpt>
      <trkpt lat="4.670954" lon="-75.003517">
        <ele>1197.8362</ele>
        <time>2021-11-14T12:21:56Z</time>
      </trkpt>
      <trkpt lat="4.670874" lon="-75.003601">
        <ele>1197.8977</ele>
        <time>2021-11-14T12:21:57Z</time>
      </trkpt>
      <trkpt lat="4.670776" lon="-75.003693">
        <ele>1197.7393</ele>
        <time>2021-11-14T12:21:58Z</time>
      </trkpt>
      <trkpt lat="4.670666" lon="-75.003761">
        <ele>1197.4655</ele>
        <time>2021-11-14T12:21:59Z</time>
      </trkpt>
      <trkpt lat="4.670593" lon="-75.003784">
        <ele>1197.1775</ele>
        <time>2021-11-14T12:22:00Z</time>
      </trkpt>
      <trkpt lat="4.670544" lon="-75.003807">
        <ele>1199.3073</ele>
        <time>2021-11-14T12:22:01Z</time>
      </trkpt>
      <trkpt lat="4.670441" lon="-75.003838">
        <ele>1199.6357</ele>
        <time>2021-11-14T12:22:02Z</time>
      </trkpt>
      <trkpt lat="4.670301" lon="-75.003868">
        <ele>1201.7318</ele>
        <time>2021-11-14T12:22:03Z</time>
      </trkpt>
      <trkpt lat="4.670153" lon="-75.003899">
        <ele>1203.4619</ele>
        <time>2021-11-14T12:22:04Z</time>
      </trkpt>
      <trkpt lat="4.669998" lon="-75.003937">
        <ele>1204.8405</ele>
        <time>2021-11-14T12:22:05Z</time>
      </trkpt>
      <trkpt lat="4.669866" lon="-75.003967">
        <ele>1205.3927</ele>
        <time>2021-11-14T12:22:06Z</time>
      </trkpt>
      <trkpt lat="4.669764" lon="-75.004044">
        <ele>1207.8708</ele>
        <time>2021-11-14T12:22:07Z</time>
      </trkpt>
      <trkpt lat="4.669711" lon="-75.004112">
        <ele>1209.804</ele>
        <time>2021-11-14T12:22:08Z</time>
      </trkpt>
      <trkpt lat="4.669686" lon="-75.004173">
        <ele>1211.0536</ele>
        <time>2021-11-14T12:22:09Z</time>
      </trkpt>
      <trkpt lat="4.669658" lon="-75.004272">
        <ele>1212.0406</ele>
        <time>2021-11-14T12:22:10Z</time>
      </trkpt>
      <trkpt lat="4.669658" lon="-75.004364">
        <ele>1213.3224</ele>
        <time>2021-11-14T12:22:11Z</time>
      </trkpt>
      <trkpt lat="4.669695" lon="-75.004433">
        <ele>1214.653</ele>
        <time>2021-11-14T12:22:12Z</time>
      </trkpt>
      <trkpt lat="4.669737" lon="-75.004478">
        <ele>1215.1631</ele>
        <time>2021-11-14T12:22:13Z</time>
      </trkpt>
      <trkpt lat="4.669802" lon="-75.004555">
        <ele>1216.9174</ele>
        <time>2021-11-14T12:22:14Z</time>
      </trkpt>
      <trkpt lat="4.669855" lon="-75.004616">
        <ele>1218.259</ele>
        <time>2021-11-14T12:22:15Z</time>
      </trkpt>
      <trkpt lat="4.669918" lon="-75.0047">
        <ele>1220.0986</ele>
        <time>2021-11-14T12:22:16Z</time>
      </trkpt>
      <trkpt lat="4.669964" lon="-75.004761">
        <ele>1221.0499</ele>
        <time>2021-11-14T12:22:17Z</time>
      </trkpt>
      <trkpt lat="4.670013" lon="-75.004822">
        <ele>1222.3274</ele>
        <time>2021-11-14T12:22:18Z</time>
      </trkpt>
      <trkpt lat="4.670095" lon="-75.004837">
        <ele>1223.2985</ele>
        <time>2021-11-14T12:22:19Z</time>
      </trkpt>
      <trkpt lat="4.670269" lon="-75.004822">
        <ele>1224.3484</ele>
        <time>2021-11-14T12:22:20Z</time>
      </trkpt>
      <trkpt lat="4.670387" lon="-75.004814">
        <ele>1225.5007</ele>
        <time>2021-11-14T12:22:21Z</time>
      </trkpt>
      <trkpt lat="4.670522" lon="-75.004791">
        <ele>1226.5227</ele>
        <time>2021-11-14T12:22:22Z</time>
      </trkpt>
      <trkpt lat="4.670522" lon="-75.004791">
        <ele>1227.4899</ele>
        <time>2021-11-14T12:22:23Z</time>
      </trkpt>
      <trkpt lat="4.67067" lon="-75.00473">
        <ele>1228.4847</ele>
        <time>2021-11-14T12:22:24Z</time>
      </trkpt>
      <trkpt lat="4.670809" lon="-75.004669">
        <ele>1229.2206</ele>
        <time>2021-11-14T12:22:25Z</time>
      </trkpt>
      <trkpt lat="4.670897" lon="-75.004639">
        <ele>1229.4536</ele>
        <time>2021-11-14T12:22:26Z</time>
      </trkpt>
      <trkpt lat="4.671012" lon="-75.004585">
        <ele>1231.0453</ele>
        <time>2021-11-14T12:22:27Z</time>
      </trkpt>
      <trkpt lat="4.67115" lon="-75.004593">
        <ele>1232.5425</ele>
        <time>2021-11-14T12:22:28Z</time>
      </trkpt>
      <trkpt lat="4.67128" lon="-75.004601">
        <ele>1235.3533</ele>
        <time>2021-11-14T12:22:29Z</time>
      </trkpt>
      <trkpt lat="4.67139" lon="-75.004608">
        <ele>1236.5944</ele>
        <time>2021-11-14T12:22:30Z</time>
      </trkpt>
      <trkpt lat="4.671497" lon="-75.004616">
        <ele>1236.9185</ele>
        <time>2021-11-14T12:22:31Z</time>
      </trkpt>
      <trkpt lat="4.671604" lon="-75.004623">
        <ele>1237.7484</ele>
        <time>2021-11-14T12:22:32Z</time>
      </trkpt>
      <trkpt lat="4.671715" lon="-75.004654">
        <ele>1238.1744</ele>
        <time>2021-11-14T12:22:33Z</time>
      </trkpt>
      <trkpt lat="4.671774" lon="-75.004684">
        <ele>1240.1423</ele>
        <time>2021-11-14T12:22:34Z</time>
      </trkpt>
      <trkpt lat="4.671793" lon="-75.004707">
        <ele>1239.5702</ele>
        <time>2021-11-14T12:22:35Z</time>
      </trkpt>
      <trkpt lat="4.671838" lon="-75.004761">
        <ele>1240.7744</ele>
        <time>2021-11-14T12:22:36Z</time>
      </trkpt>
      <trkpt lat="4.671849" lon="-75.004776">
        <ele>1241.1202</ele>
        <time>2021-11-14T12:22:37Z</time>
      </trkpt>
      <trkpt lat="4.671855" lon="-75.004784">
        <ele>1241.4633</ele>
        <time>2021-11-14T12:22:38Z</time>
      </trkpt>
      <trkpt lat="4.671876" lon="-75.004807">
        <ele>1242.2084</ele>
        <time>2021-11-14T12:22:39Z</time>
      </trkpt>
      <trkpt lat="4.671933" lon="-75.004875">
        <ele>1242.768</ele>
        <time>2021-11-14T12:22:40Z</time>
      </trkpt>
      <trkpt lat="4.671989" lon="-75.004936">
        <ele>1243.3872</ele>
        <time>2021-11-14T12:22:41Z</time>
      </trkpt>
      <trkpt lat="4.672036" lon="-75.004997">
        <ele>1244.0146</ele>
        <time>2021-11-14T12:22:42Z</time>
      </trkpt>
      <trkpt lat="4.672078" lon="-75.005043">
        <ele>1245.09</ele>
        <time>2021-11-14T12:22:43Z</time>
      </trkpt>
      <trkpt lat="4.672124" lon="-75.005096">
        <ele>1246.6272</ele>
        <time>2021-11-14T12:22:44Z</time>
      </trkpt>
      <trkpt lat="4.672173" lon="-75.005157">
        <ele>1247.3987</ele>
        <time>2021-11-14T12:22:45Z</time>
      </trkpt>
      <trkpt lat="4.672173" lon="-75.005157">
        <ele>1248.2174</ele>
        <time>2021-11-14T12:22:46Z</time>
      </trkpt>
      <trkpt lat="4.672217" lon="-75.005203">
        <ele>1249.1667</ele>
        <time>2021-11-14T12:22:47Z</time>
      </trkpt>
      <trkpt lat="4.672259" lon="-75.005249">
        <ele>1249.7555</ele>
        <time>2021-11-14T12:22:48Z</time>
      </trkpt>
      <trkpt lat="4.672298" lon="-75.005287">
        <ele>1250.2958</ele>
        <time>2021-11-14T12:22:49Z</time>
      </trkpt>
      <trkpt lat="4.672342" lon="-75.005333">
        <ele>1250.4862</ele>
        <time>2021-11-14T12:22:50Z</time>
      </trkpt>
      <trkpt lat="4.67242" lon="-75.005409">
        <ele>1251.2477</ele>
        <time>2021-11-14T12:22:51Z</time>
      </trkpt>
      <trkpt lat="4.672474" lon="-75.00547">
        <ele>1251.9166</ele>
        <time>2021-11-14T12:22:52Z</time>
      </trkpt>
      <trkpt lat="4.672506" lon="-75.005501">
        <ele>1252.152</ele>
        <time>2021-11-14T12:22:53Z</time>
      </trkpt>
      <trkpt lat="4.672565" lon="-75.005554">
        <ele>1252.351</ele>
        <time>2021-11-14T12:22:55Z</time>
      </trkpt>
      <trkpt lat="4.672617" lon="-75.005608">
        <ele>1253.0837</ele>
        <time>2021-11-14T12:22:56Z</time>
      </trkpt>
      <trkpt lat="4.672633" lon="-75.005676">
        <ele>1253.8271</ele>
        <time>2021-11-14T12:22:57Z</time>
      </trkpt>
      <trkpt lat="4.672653" lon="-75.005768">
        <ele>1254.239</ele>
        <time>2021-11-14T12:22:58Z</time>
      </trkpt>
      <trkpt lat="4.672677" lon="-75.005875">
        <ele>1254.5013</ele>
        <time>2021-11-14T12:22:59Z</time>
      </trkpt>
      <trkpt lat="4.672694" lon="-75.005959">
        <ele>1255.949</ele>
        <time>2021-11-14T12:23:00Z</time>
      </trkpt>
      <trkpt lat="4.672708" lon="-75.006027">
        <ele>1256.0531</ele>
        <time>2021-11-14T12:23:01Z</time>
      </trkpt>
      <trkpt lat="4.672711" lon="-75.006042">
        <ele>1256.0793</ele>
        <time>2021-11-14T12:23:02Z</time>
      </trkpt>
      <trkpt lat="4.672714" lon="-75.006073">
        <ele>1256.4584</ele>
        <time>2021-11-14T12:23:03Z</time>
      </trkpt>
      <trkpt lat="4.672722" lon="-75.006142">
        <ele>1257.031</ele>
        <time>2021-11-14T12:23:04Z</time>
      </trkpt>
      <trkpt lat="4.672735" lon="-75.006256">
        <ele>1258.0199</ele>
        <time>2021-11-14T12:23:05Z</time>
      </trkpt>
      <trkpt lat="4.672745" lon="-75.006348">
        <ele>1258.7786</ele>
        <time>2021-11-14T12:23:06Z</time>
      </trkpt>
      <trkpt lat="4.672726" lon="-75.006416">
        <ele>1259.5719</ele>
        <time>2021-11-14T12:23:07Z</time>
      </trkpt>
      <trkpt lat="4.672708" lon="-75.006447">
        <ele>1260.7739</ele>
        <time>2021-11-14T12:23:08Z</time>
      </trkpt>
      <trkpt lat="4.672685" lon="-75.006493">
        <ele>1260.7291</ele>
        <time>2021-11-14T12:23:09Z</time>
      </trkpt>
      <trkpt lat="4.672643" lon="-75.006577">
        <ele>1260.9586</ele>
        <time>2021-11-14T12:23:10Z</time>
      </trkpt>
      <trkpt lat="4.67262" lon="-75.006622">
        <ele>1260.9707</ele>
        <time>2021-11-14T12:23:11Z</time>
      </trkpt>
      <trkpt lat="4.672615" lon="-75.006645">
        <ele>1261.2179</ele>
        <time>2021-11-14T12:23:12Z</time>
      </trkpt>
      <trkpt lat="4.67261" lon="-75.006676">
        <ele>1261.1815</ele>
        <time>2021-11-14T12:23:13Z</time>
      </trkpt>
      <trkpt lat="4.672603" lon="-75.006767">
        <ele>1261.385</ele>
        <time>2021-11-14T12:23:14Z</time>
      </trkpt>
      <trkpt lat="4.67262" lon="-75.006844">
        <ele>1260.5803</ele>
        <time>2021-11-14T12:23:15Z</time>
      </trkpt>
      <trkpt lat="4.67265" lon="-75.006973">
        <ele>1261.0153</ele>
        <time>2021-11-14T12:23:16Z</time>
      </trkpt>
      <trkpt lat="4.67265" lon="-75.006973">
        <ele>1261.169</ele>
        <time>2021-11-14T12:23:17Z</time>
      </trkpt>
      <trkpt lat="4.672675" lon="-75.007118">
        <ele>1261.5591</ele>
        <time>2021-11-14T12:23:18Z</time>
      </trkpt>
      <trkpt lat="4.67268" lon="-75.007172">
        <ele>1262.204</ele>
        <time>2021-11-14T12:23:19Z</time>
      </trkpt>
      <trkpt lat="4.672683" lon="-75.007278">
        <ele>1262.8657</ele>
        <time>2021-11-14T12:23:20Z</time>
      </trkpt>
      <trkpt lat="4.67266" lon="-75.00737">
        <ele>1263.0413</ele>
        <time>2021-11-14T12:23:21Z</time>
      </trkpt>
      <trkpt lat="4.672629" lon="-75.0075">
        <ele>1263.9596</ele>
        <time>2021-11-14T12:23:22Z</time>
      </trkpt>
      <trkpt lat="4.672599" lon="-75.007622">
        <ele>1265.8118</ele>
        <time>2021-11-14T12:23:23Z</time>
      </trkpt>
      <trkpt lat="4.672574" lon="-75.007729">
        <ele>1266.8877</ele>
        <time>2021-11-14T12:23:24Z</time>
      </trkpt>
      <trkpt lat="4.672548" lon="-75.007835">
        <ele>1268.4359</ele>
        <time>2021-11-14T12:23:25Z</time>
      </trkpt>
      <trkpt lat="4.672552" lon="-75.007912">
        <ele>1269.8354</ele>
        <time>2021-11-14T12:23:26Z</time>
      </trkpt>
      <trkpt lat="4.672564" lon="-75.007942">
        <ele>1271.823</ele>
        <time>2021-11-14T12:23:27Z</time>
      </trkpt>
      <trkpt lat="4.672569" lon="-75.007965">
        <ele>1272.8093</ele>
        <time>2021-11-14T12:23:28Z</time>
      </trkpt>
      <trkpt lat="4.672599" lon="-75.008057">
        <ele>1271.9213</ele>
        <time>2021-11-14T12:23:29Z</time>
      </trkpt>
      <trkpt lat="4.672636" lon="-75.008163">
        <ele>1272.3438</ele>
        <time>2021-11-14T12:23:30Z</time>
      </trkpt>
      <trkpt lat="4.672662" lon="-75.008247">
        <ele>1273.0343</ele>
        <time>2021-11-14T12:23:31Z</time>
      </trkpt>
      <trkpt lat="4.672705" lon="-75.008377">
        <ele>1273.7875</ele>
        <time>2021-11-14T12:23:32Z</time>
      </trkpt>
      <trkpt lat="4.67273" lon="-75.008499">
        <ele>1273.6671</ele>
        <time>2021-11-14T12:23:33Z</time>
      </trkpt>
      <trkpt lat="4.67273" lon="-75.008598">
        <ele>1274.2545</ele>
        <time>2021-11-14T12:23:34Z</time>
      </trkpt>
      <trkpt lat="4.672679" lon="-75.00872">
        <ele>1273.884</ele>
        <time>2021-11-14T12:23:35Z</time>
      </trkpt>
      <trkpt lat="4.67261" lon="-75.00885">
        <ele>1275.9254</ele>
        <time>2021-11-14T12:23:36Z</time>
      </trkpt>
      <trkpt lat="4.672557" lon="-75.008957">
        <ele>1275.7424</ele>
        <time>2021-11-14T12:23:37Z</time>
      </trkpt>
      <trkpt lat="4.67252" lon="-75.009064">
        <ele>1275.9585</ele>
        <time>2021-11-14T12:23:38Z</time>
      </trkpt>
      <trkpt lat="4.672523" lon="-75.009117">
        <ele>1275.9105</ele>
        <time>2021-11-14T12:23:39Z</time>
      </trkpt>
      <trkpt lat="4.672528" lon="-75.009178">
        <ele>1276.5898</ele>
        <time>2021-11-14T12:23:40Z</time>
      </trkpt>
      <trkpt lat="4.672536" lon="-75.0093">
        <ele>1276.6642</ele>
        <time>2021-11-14T12:23:41Z</time>
      </trkpt>
      <trkpt lat="4.672542" lon="-75.009392">
        <ele>1276.8976</ele>
        <time>2021-11-14T12:23:42Z</time>
      </trkpt>
      <trkpt lat="4.672546" lon="-75.009453">
        <ele>1277.688</ele>
        <time>2021-11-14T12:23:43Z</time>
      </trkpt>
      <trkpt lat="4.672551" lon="-75.009537">
        <ele>1278.2482</ele>
        <time>2021-11-14T12:23:44Z</time>
      </trkpt>
      <trkpt lat="4.672556" lon="-75.009605">
        <ele>1277.5562</ele>
        <time>2021-11-14T12:23:45Z</time>
      </trkpt>
      <trkpt lat="4.672567" lon="-75.009682">
        <ele>1278.199</ele>
        <time>2021-11-14T12:23:46Z</time>
      </trkpt>
      <trkpt lat="4.67258" lon="-75.009758">
        <ele>1278.5935</ele>
        <time>2021-11-14T12:23:47Z</time>
      </trkpt>
      <trkpt lat="4.672594" lon="-75.009834">
        <ele>1279.5605</ele>
        <time>2021-11-14T12:23:48Z</time>
      </trkpt>
      <trkpt lat="4.672579" lon="-75.009888">
        <ele>1279.7366</ele>
        <time>2021-11-14T12:23:49Z</time>
      </trkpt>
      <trkpt lat="4.672579" lon="-75.009888">
        <ele>1281.307</ele>
        <time>2021-11-14T12:23:50Z</time>
      </trkpt>
      <trkpt lat="4.672522" lon="-75.009964">
        <ele>1281.7112</ele>
        <time>2021-11-14T12:23:51Z</time>
      </trkpt>
      <trkpt lat="4.67245" lon="-75.010063">
        <ele>1281.6569</ele>
        <time>2021-11-14T12:23:52Z</time>
      </trkpt>
      <trkpt lat="4.67241" lon="-75.010117">
        <ele>1281.3414</ele>
        <time>2021-11-14T12:23:53Z</time>
      </trkpt>
      <trkpt lat="4.672367" lon="-75.01017">
        <ele>1282.0033</ele>
        <time>2021-11-14T12:23:54Z</time>
      </trkpt>
      <trkpt lat="4.672338" lon="-75.010239">
        <ele>1281.497</ele>
        <time>2021-11-14T12:23:55Z</time>
      </trkpt>
      <trkpt lat="4.672338" lon="-75.010292">
        <ele>1281.5243</ele>
        <time>2021-11-14T12:23:56Z</time>
      </trkpt>
      <trkpt lat="4.672338" lon="-75.010368">
        <ele>1283.5281</ele>
        <time>2021-11-14T12:23:57Z</time>
      </trkpt>
      <trkpt lat="4.672385" lon="-75.010475">
        <ele>1284.0851</ele>
        <time>2021-11-14T12:23:58Z</time>
      </trkpt>
      <trkpt lat="4.67244" lon="-75.010536">
        <ele>1285.5739</ele>
        <time>2021-11-14T12:23:59Z</time>
      </trkpt>
      <trkpt lat="4.672492" lon="-75.01059">
        <ele>1285.699</ele>
        <time>2021-11-14T12:24:00Z</time>
      </trkpt>
      <trkpt lat="4.672546" lon="-75.010651">
        <ele>1286.496</ele>
        <time>2021-11-14T12:24:02Z</time>
      </trkpt>
      <trkpt lat="4.672591" lon="-75.010712">
        <ele>1286.6498</ele>
        <time>2021-11-14T12:24:03Z</time>
      </trkpt>
      <trkpt lat="4.672635" lon="-75.010765">
        <ele>1287.2758</ele>
        <time>2021-11-14T12:24:04Z</time>
      </trkpt>
      <trkpt lat="4.672677" lon="-75.010818">
        <ele>1288.7744</ele>
        <time>2021-11-14T12:24:05Z</time>
      </trkpt>
      <trkpt lat="4.672742" lon="-75.01091">
        <ele>1289.6266</ele>
        <time>2021-11-14T12:24:06Z</time>
      </trkpt>
      <trkpt lat="4.672759" lon="-75.010933">
        <ele>1291.1649</ele>
        <time>2021-11-14T12:24:07Z</time>
      </trkpt>
      <trkpt lat="4.672748" lon="-75.011002">
        <ele>1291.8203</ele>
        <time>2021-11-14T12:24:08Z</time>
      </trkpt>
      <trkpt lat="4.672724" lon="-75.011078">
        <ele>1291.6437</ele>
        <time>2021-11-14T12:24:09Z</time>
      </trkpt>
      <trkpt lat="4.672714" lon="-75.011108">
        <ele>1291.2009</ele>
        <time>2021-11-14T12:24:10Z</time>
      </trkpt>
      <trkpt lat="4.672675" lon="-75.011177">
        <ele>1291.8513</ele>
        <time>2021-11-14T12:24:11Z</time>
      </trkpt>
      <trkpt lat="4.672647" lon="-75.011223">
        <ele>1292.3005</ele>
        <time>2021-11-14T12:24:12Z</time>
      </trkpt>
      <trkpt lat="4.672608" lon="-75.011276">
        <ele>1292.3242</ele>
        <time>2021-11-14T12:24:13Z</time>
      </trkpt>
      <trkpt lat="4.672562" lon="-75.011345">
        <ele>1292.8661</ele>
        <time>2021-11-14T12:24:14Z</time>
      </trkpt>
      <trkpt lat="4.672525" lon="-75.011398">
        <ele>1293.2032</ele>
        <time>2021-11-14T12:24:15Z</time>
      </trkpt>
      <trkpt lat="4.672485" lon="-75.011452">
        <ele>1293.5037</ele>
        <time>2021-11-14T12:24:16Z</time>
      </trkpt>
      <trkpt lat="4.672431" lon="-75.011536">
        <ele>1293.6647</ele>
        <time>2021-11-14T12:24:17Z</time>
      </trkpt>
      <trkpt lat="4.672396" lon="-75.011581">
        <ele>1293.544</ele>
        <time>2021-11-14T12:24:18Z</time>
      </trkpt>
      <trkpt lat="4.672355" lon="-75.011642">
        <ele>1293.3446</ele>
        <time>2021-11-14T12:24:19Z</time>
      </trkpt>
      <trkpt lat="4.672305" lon="-75.011711">
        <ele>1293.754</ele>
        <time>2021-11-14T12:24:20Z</time>
      </trkpt>
      <trkpt lat="4.672264" lon="-75.011772">
        <ele>1293.8314</ele>
        <time>2021-11-14T12:24:21Z</time>
      </trkpt>
      <trkpt lat="4.672264" lon="-75.011772">
        <ele>1293.3657</ele>
        <time>2021-11-14T12:24:22Z</time>
      </trkpt>
      <trkpt lat="4.672222" lon="-75.011833">
        <ele>1293.8484</ele>
        <time>2021-11-14T12:24:23Z</time>
      </trkpt>
      <trkpt lat="4.672166" lon="-75.011917">
        <ele>1294.9146</ele>
        <time>2021-11-14T12:24:24Z</time>
      </trkpt>
      <trkpt lat="4.672128" lon="-75.011993">
        <ele>1295.192</ele>
        <time>2021-11-14T12:24:25Z</time>
      </trkpt>
      <trkpt lat="4.672096" lon="-75.01207">
        <ele>1295.5415</ele>
        <time>2021-11-14T12:24:26Z</time>
      </trkpt>
      <trkpt lat="4.67206" lon="-75.012169">
        <ele>1296.7921</ele>
        <time>2021-11-14T12:24:27Z</time>
      </trkpt>
      <trkpt lat="4.672034" lon="-75.01223">
        <ele>1296.7627</ele>
        <time>2021-11-14T12:24:28Z</time>
      </trkpt>
      <trkpt lat="4.672023" lon="-75.012291">
        <ele>1297.4513</ele>
        <time>2021-11-14T12:24:29Z</time>
      </trkpt>
      <trkpt lat="4.672043" lon="-75.01236">
        <ele>1298.4463</ele>
        <time>2021-11-14T12:24:30Z</time>
      </trkpt>
      <trkpt lat="4.672068" lon="-75.012451">
        <ele>1300.8553</ele>
        <time>2021-11-14T12:24:31Z</time>
      </trkpt>
      <trkpt lat="4.672097" lon="-75.012558">
        <ele>1300.7762</ele>
        <time>2021-11-14T12:24:32Z</time>
      </trkpt>
      <trkpt lat="4.672111" lon="-75.012611">
        <ele>1301.6649</ele>
        <time>2021-11-14T12:24:33Z</time>
      </trkpt>
      <trkpt lat="4.672133" lon="-75.012688">
        <ele>1302.2382</ele>
        <time>2021-11-14T12:24:34Z</time>
      </trkpt>
      <trkpt lat="4.672154" lon="-75.012764">
        <ele>1302.3878</ele>
        <time>2021-11-14T12:24:35Z</time>
      </trkpt>
      <trkpt lat="4.672166" lon="-75.012825">
        <ele>1302.4364</ele>
        <time>2021-11-14T12:24:36Z</time>
      </trkpt>
      <trkpt lat="4.67214" lon="-75.012878">
        <ele>1302.3413</ele>
        <time>2021-11-14T12:24:37Z</time>
      </trkpt>
      <trkpt lat="4.67209" lon="-75.012978">
        <ele>1303.8717</ele>
        <time>2021-11-14T12:24:38Z</time>
      </trkpt>
      <trkpt lat="4.672057" lon="-75.013046">
        <ele>1303.8518</ele>
        <time>2021-11-14T12:24:39Z</time>
      </trkpt>
      <trkpt lat="4.672011" lon="-75.013107">
        <ele>1303.0646</ele>
        <time>2021-11-14T12:24:40Z</time>
      </trkpt>
      <trkpt lat="4.671953" lon="-75.013176">
        <ele>1302.7137</ele>
        <time>2021-11-14T12:24:41Z</time>
      </trkpt>
      <trkpt lat="4.671908" lon="-75.013222">
        <ele>1304.4585</ele>
        <time>2021-11-14T12:24:42Z</time>
      </trkpt>
      <trkpt lat="4.671865" lon="-75.013268">
        <ele>1304.3954</ele>
        <time>2021-11-14T12:24:43Z</time>
      </trkpt>
      <trkpt lat="4.671771" lon="-75.013367">
        <ele>1305.3793</ele>
        <time>2021-11-14T12:24:44Z</time>
      </trkpt>
      <trkpt lat="4.671686" lon="-75.013458">
        <ele>1305.1808</ele>
        <time>2021-11-14T12:24:45Z</time>
      </trkpt>
      <trkpt lat="4.671565" lon="-75.013596">
        <ele>1306.9126</ele>
        <time>2021-11-14T12:24:46Z</time>
      </trkpt>
      <trkpt lat="4.671565" lon="-75.013596">
        <ele>1305.8049</ele>
        <time>2021-11-14T12:24:47Z</time>
      </trkpt>
      <trkpt lat="4.671466" lon="-75.013702">
        <ele>1306.0197</ele>
        <time>2021-11-14T12:24:48Z</time>
      </trkpt>
      <trkpt lat="4.671407" lon="-75.013763">
        <ele>1305.651</ele>
        <time>2021-11-14T12:24:49Z</time>
      </trkpt>
      <trkpt lat="4.671368" lon="-75.013863">
        <ele>1305.7882</ele>
        <time>2021-11-14T12:24:50Z</time>
      </trkpt>
      <trkpt lat="4.67133" lon="-75.013969">
        <ele>1307.8364</ele>
        <time>2021-11-14T12:24:51Z</time>
      </trkpt>
      <trkpt lat="4.671283" lon="-75.014107">
        <ele>1309.8632</ele>
        <time>2021-11-14T12:24:52Z</time>
      </trkpt>
      <trkpt lat="4.671262" lon="-75.014282">
        <ele>1310.3221</ele>
        <time>2021-11-14T12:24:53Z</time>
      </trkpt>
      <trkpt lat="4.671253" lon="-75.014473">
        <ele>1311.5884</ele>
        <time>2021-11-14T12:24:54Z</time>
      </trkpt>
      <trkpt lat="4.671201" lon="-75.014641">
        <ele>1311.8679</ele>
        <time>2021-11-14T12:24:55Z</time>
      </trkpt>
      <trkpt lat="4.671116" lon="-75.014786">
        <ele>1311.6674</ele>
        <time>2021-11-14T12:24:56Z</time>
      </trkpt>
      <trkpt lat="4.671037" lon="-75.014931">
        <ele>1312.1752</ele>
        <time>2021-11-14T12:24:57Z</time>
      </trkpt>
      <trkpt lat="4.670941" lon="-75.015091">
        <ele>1314.3864</ele>
        <time>2021-11-14T12:24:58Z</time>
      </trkpt>
      <trkpt lat="4.670845" lon="-75.015205">
        <ele>1314.9396</ele>
        <time>2021-11-14T12:24:59Z</time>
      </trkpt>
      <trkpt lat="4.670763" lon="-75.015312">
        <ele>1314.9635</ele>
        <time>2021-11-14T12:25:00Z</time>
      </trkpt>
      <trkpt lat="4.670679" lon="-75.015457">
        <ele>1315.202</ele>
        <time>2021-11-14T12:25:01Z</time>
      </trkpt>
      <trkpt lat="4.670607" lon="-75.015579">
        <ele>1314.6926</ele>
        <time>2021-11-14T12:25:02Z</time>
      </trkpt>
      <trkpt lat="4.670602" lon="-75.015686">
        <ele>1317.2474</ele>
        <time>2021-11-14T12:25:03Z</time>
      </trkpt>
      <trkpt lat="4.670596" lon="-75.015823">
        <ele>1319.6564</ele>
        <time>2021-11-14T12:25:04Z</time>
      </trkpt>
      <trkpt lat="4.670586" lon="-75.016014">
        <ele>1320.4978</ele>
        <time>2021-11-14T12:25:05Z</time>
      </trkpt>
      <trkpt lat="4.670576" lon="-75.016174">
        <ele>1320.6649</ele>
        <time>2021-11-14T12:25:06Z</time>
      </trkpt>
      <trkpt lat="4.670519" lon="-75.016281">
        <ele>1320.2168</ele>
        <time>2021-11-14T12:25:07Z</time>
      </trkpt>
      <trkpt lat="4.670437" lon="-75.016434">
        <ele>1320.5822</ele>
        <time>2021-11-14T12:25:08Z</time>
      </trkpt>
      <trkpt lat="4.670368" lon="-75.016563">
        <ele>1320.609</ele>
        <time>2021-11-14T12:25:10Z</time>
      </trkpt>
      <trkpt lat="4.670327" lon="-75.016693">
        <ele>1320.5573</ele>
        <time>2021-11-14T12:25:11Z</time>
      </trkpt>
      <trkpt lat="4.670299" lon="-75.016815">
        <ele>1320.7382</ele>
        <time>2021-11-14T12:25:12Z</time>
      </trkpt>
      <trkpt lat="4.670275" lon="-75.016914">
        <ele>1321.9572</ele>
        <time>2021-11-14T12:25:13Z</time>
      </trkpt>
      <trkpt lat="4.670238" lon="-75.017075">
        <ele>1326.5414</ele>
        <time>2021-11-14T12:25:14Z</time>
      </trkpt>
      <trkpt lat="4.670221" lon="-75.017151">
        <ele>1326.1241</ele>
        <time>2021-11-14T12:25:15Z</time>
      </trkpt>
      <trkpt lat="4.670164" lon="-75.017273">
        <ele>1325.4895</ele>
        <time>2021-11-14T12:25:16Z</time>
      </trkpt>
      <trkpt lat="4.6701" lon="-75.017395">
        <ele>1326.0488</ele>
        <time>2021-11-14T12:25:17Z</time>
      </trkpt>
      <trkpt lat="4.670015" lon="-75.017502">
        <ele>1324.9512</ele>
        <time>2021-11-14T12:25:18Z</time>
      </trkpt>
      <trkpt lat="4.669917" lon="-75.017609">
        <ele>1324.8765</ele>
        <time>2021-11-14T12:25:19Z</time>
      </trkpt>
      <trkpt lat="4.669917" lon="-75.017609">
        <ele>1325.0243</ele>
        <time>2021-11-14T12:25:20Z</time>
      </trkpt>
      <trkpt lat="4.669808" lon="-75.017693">
        <ele>1325.0828</ele>
        <time>2021-11-14T12:25:21Z</time>
      </trkpt>
      <trkpt lat="4.669705" lon="-75.017761">
        <ele>1325.0632</ele>
        <time>2021-11-14T12:25:22Z</time>
      </trkpt>
      <trkpt lat="4.669605" lon="-75.017838">
        <ele>1325.5795</ele>
        <time>2021-11-14T12:25:23Z</time>
      </trkpt>
      <trkpt lat="4.669497" lon="-75.017914">
        <ele>1325.7765</ele>
        <time>2021-11-14T12:25:24Z</time>
      </trkpt>
      <trkpt lat="4.669356" lon="-75.018013">
        <ele>1325.8325</ele>
        <time>2021-11-14T12:25:25Z</time>
      </trkpt>
      <trkpt lat="4.66923" lon="-75.018105">
        <ele>1326.0985</ele>
        <time>2021-11-14T12:25:26Z</time>
      </trkpt>
      <trkpt lat="4.66916" lon="-75.018181">
        <ele>1325.6248</ele>
        <time>2021-11-14T12:25:27Z</time>
      </trkpt>
      <trkpt lat="4.66909" lon="-75.018257">
        <ele>1326.8629</ele>
        <time>2021-11-14T12:25:28Z</time>
      </trkpt>
      <trkpt lat="4.669051" lon="-75.018303">
        <ele>1327.2607</ele>
        <time>2021-11-14T12:25:29Z</time>
      </trkpt>
      <trkpt lat="4.669013" lon="-75.018425">
        <ele>1327.9327</ele>
        <time>2021-11-14T12:25:30Z</time>
      </trkpt>
      <trkpt lat="4.668982" lon="-75.018555">
        <ele>1328.0322</ele>
        <time>2021-11-14T12:25:31Z</time>
      </trkpt>
      <trkpt lat="4.668951" lon="-75.018684">
        <ele>1329.56</ele>
        <time>2021-11-14T12:25:32Z</time>
      </trkpt>
      <trkpt lat="4.668936" lon="-75.018745">
        <ele>1329.4286</ele>
        <time>2021-11-14T12:25:33Z</time>
      </trkpt>
      <trkpt lat="4.668927" lon="-75.018799">
        <ele>1331.9894</ele>
        <time>2021-11-14T12:25:34Z</time>
      </trkpt>
      <trkpt lat="4.668921" lon="-75.018875">
        <ele>1334.2163</ele>
        <time>2021-11-14T12:25:35Z</time>
      </trkpt>
      <trkpt lat="4.668911" lon="-75.01899">
        <ele>1335.0803</ele>
        <time>2021-11-14T12:25:36Z</time>
      </trkpt>
      <trkpt lat="4.668899" lon="-75.019142">
        <ele>1336.4751</ele>
        <time>2021-11-14T12:25:37Z</time>
      </trkpt>
      <trkpt lat="4.668889" lon="-75.019272">
        <ele>1337.3353</ele>
        <time>2021-11-14T12:25:38Z</time>
      </trkpt>
      <trkpt lat="4.66888" lon="-75.019386">
        <ele>1338.5145</ele>
        <time>2021-11-14T12:25:39Z</time>
      </trkpt>
      <trkpt lat="4.668871" lon="-75.019493">
        <ele>1339.816</ele>
        <time>2021-11-14T12:25:40Z</time>
      </trkpt>
      <trkpt lat="4.668837" lon="-75.019608">
        <ele>1339.6373</ele>
        <time>2021-11-14T12:25:41Z</time>
      </trkpt>
      <trkpt lat="4.668752" lon="-75.01973">
        <ele>1340.1023</ele>
        <time>2021-11-14T12:25:42Z</time>
      </trkpt>
      <trkpt lat="4.668672" lon="-75.019806">
        <ele>1340.49</ele>
        <time>2021-11-14T12:25:43Z</time>
      </trkpt>
      <trkpt lat="4.668561" lon="-75.019913">
        <ele>1340.9785</ele>
        <time>2021-11-14T12:25:44Z</time>
      </trkpt>
      <trkpt lat="4.668446" lon="-75.02002">
        <ele>1341.329</ele>
        <time>2021-11-14T12:25:45Z</time>
      </trkpt>
      <trkpt lat="4.668331" lon="-75.020126">
        <ele>1341.3748</ele>
        <time>2021-11-14T12:25:46Z</time>
      </trkpt>
      <trkpt lat="4.668214" lon="-75.020256">
        <ele>1341.4344</ele>
        <time>2021-11-14T12:25:47Z</time>
      </trkpt>
      <trkpt lat="4.668214" lon="-75.020256">
        <ele>1341.8759</ele>
        <time>2021-11-14T12:25:48Z</time>
      </trkpt>
      <trkpt lat="4.668128" lon="-75.020363">
        <ele>1342.2347</ele>
        <time>2021-11-14T12:25:49Z</time>
      </trkpt>
      <trkpt lat="4.668061" lon="-75.020477">
        <ele>1342.5281</ele>
        <time>2021-11-14T12:25:50Z</time>
      </trkpt>
      <trkpt lat="4.668033" lon="-75.020607">
        <ele>1342.7145</ele>
        <time>2021-11-14T12:25:51Z</time>
      </trkpt>
      <trkpt lat="4.668007" lon="-75.020737">
        <ele>1341.7122</ele>
        <time>2021-11-14T12:25:52Z</time>
      </trkpt>
      <trkpt lat="4.66797" lon="-75.020882">
        <ele>1343.828</ele>
        <time>2021-11-14T12:25:53Z</time>
      </trkpt>
      <trkpt lat="4.667917" lon="-75.021019">
        <ele>1344.3198</ele>
        <time>2021-11-14T12:25:54Z</time>
      </trkpt>
      <trkpt lat="4.667868" lon="-75.021156">
        <ele>1345.1042</ele>
        <time>2021-11-14T12:25:55Z</time>
      </trkpt>
      <trkpt lat="4.667822" lon="-75.021278">
        <ele>1345.7372</ele>
        <time>2021-11-14T12:25:56Z</time>
      </trkpt>
      <trkpt lat="4.667766" lon="-75.021423">
        <ele>1346.732</ele>
        <time>2021-11-14T12:25:57Z</time>
      </trkpt>
      <trkpt lat="4.667702" lon="-75.021599">
        <ele>1346.9705</ele>
        <time>2021-11-14T12:25:58Z</time>
      </trkpt>
      <trkpt lat="4.667645" lon="-75.021713">
        <ele>1347.9899</ele>
        <time>2021-11-14T12:25:59Z</time>
      </trkpt>
      <trkpt lat="4.667546" lon="-75.021812">
        <ele>1349.6125</ele>
        <time>2021-11-14T12:26:00Z</time>
      </trkpt>
      <trkpt lat="4.667428" lon="-75.021927">
        <ele>1350.1365</ele>
        <time>2021-11-14T12:26:01Z</time>
      </trkpt>
      <trkpt lat="4.66729" lon="-75.022064">
        <ele>1351.6774</ele>
        <time>2021-11-14T12:26:02Z</time>
      </trkpt>
      <trkpt lat="4.667194" lon="-75.022156">
        <ele>1353.2544</ele>
        <time>2021-11-14T12:26:03Z</time>
      </trkpt>
      <trkpt lat="4.667106" lon="-75.022247">
        <ele>1354.1791</ele>
        <time>2021-11-14T12:26:04Z</time>
      </trkpt>
      <trkpt lat="4.666966" lon="-75.022362">
        <ele>1354.7795</ele>
        <time>2021-11-14T12:26:05Z</time>
      </trkpt>
      <trkpt lat="4.666846" lon="-75.022453">
        <ele>1356.8423</ele>
        <time>2021-11-14T12:26:06Z</time>
      </trkpt>
      <trkpt lat="4.666706" lon="-75.022552">
        <ele>1357.1354</ele>
        <time>2021-11-14T12:26:07Z</time>
      </trkpt>
      <trkpt lat="4.666563" lon="-75.022636">
        <ele>1358.5723</ele>
        <time>2021-11-14T12:26:08Z</time>
      </trkpt>
      <trkpt lat="4.666459" lon="-75.02269">
        <ele>1359.4045</ele>
        <time>2021-11-14T12:26:09Z</time>
      </trkpt>
      <trkpt lat="4.666333" lon="-75.022758">
        <ele>1360.1089</ele>
        <time>2021-11-14T12:26:10Z</time>
      </trkpt>
      <trkpt lat="4.666211" lon="-75.02282">
        <ele>1361.9291</ele>
        <time>2021-11-14T12:26:11Z</time>
      </trkpt>
      <trkpt lat="4.666084" lon="-75.02282">
        <ele>1362.5973</ele>
        <time>2021-11-14T12:26:12Z</time>
      </trkpt>
      <trkpt lat="4.666" lon="-75.022812">
        <ele>1362.9318</ele>
        <time>2021-11-14T12:26:13Z</time>
      </trkpt>
      <trkpt lat="4.665906" lon="-75.022728">
        <ele>1364.2853</ele>
        <time>2021-11-14T12:26:15Z</time>
      </trkpt>
      <trkpt lat="4.665803" lon="-75.022629">
        <ele>1365.3798</ele>
        <time>2021-11-14T12:26:16Z</time>
      </trkpt>
      <trkpt lat="4.665699" lon="-75.02253">
        <ele>1365.6864</ele>
        <time>2021-11-14T12:26:17Z</time>
      </trkpt>
      <trkpt lat="4.665593" lon="-75.022453">
        <ele>1365.903</ele>
        <time>2021-11-14T12:26:18Z</time>
      </trkpt>
      <trkpt lat="4.665477" lon="-75.022385">
        <ele>1366.3401</ele>
        <time>2021-11-14T12:26:19Z</time>
      </trkpt>
      <trkpt lat="4.66541" lon="-75.022346">
        <ele>1367.2067</ele>
        <time>2021-11-14T12:26:20Z</time>
      </trkpt>
      <trkpt lat="4.665304" lon="-75.022346">
        <ele>1367.8306</ele>
        <time>2021-11-14T12:26:21Z</time>
      </trkpt>
      <trkpt lat="4.665221" lon="-75.022339">
        <ele>1368.4296</ele>
        <time>2021-11-14T12:26:22Z</time>
      </trkpt>
      <trkpt lat="4.665134" lon="-75.022331">
        <ele>1368.8142</ele>
        <time>2021-11-14T12:26:23Z</time>
      </trkpt>
      <trkpt lat="4.665081" lon="-75.022499">
        <ele>1370.5847</ele>
        <time>2021-11-14T12:26:24Z</time>
      </trkpt>
      <trkpt lat="4.665061" lon="-75.022629">
        <ele>1371.8628</ele>
        <time>2021-11-14T12:26:25Z</time>
      </trkpt>
      <trkpt lat="4.665049" lon="-75.022697">
        <ele>1372.5133</ele>
        <time>2021-11-14T12:26:26Z</time>
      </trkpt>
      <trkpt lat="4.66504" lon="-75.022751">
        <ele>1373.272</ele>
        <time>2021-11-14T12:26:27Z</time>
      </trkpt>
      <trkpt lat="4.665023" lon="-75.022835">
        <ele>1374.7339</ele>
        <time>2021-11-14T12:26:28Z</time>
      </trkpt>
      <trkpt lat="4.664989" lon="-75.022903">
        <ele>1374.9213</ele>
        <time>2021-11-14T12:26:29Z</time>
      </trkpt>
      <trkpt lat="4.664941" lon="-75.02301">
        <ele>1375.2495</ele>
        <time>2021-11-14T12:26:30Z</time>
      </trkpt>
      <trkpt lat="4.664892" lon="-75.023117">
        <ele>1376.001</ele>
        <time>2021-11-14T12:26:31Z</time>
      </trkpt>
      <trkpt lat="4.664849" lon="-75.023209">
        <ele>1375.693</ele>
        <time>2021-11-14T12:26:32Z</time>
      </trkpt>
      <trkpt lat="4.664788" lon="-75.023338">
        <ele>1376.0914</ele>
        <time>2021-11-14T12:26:33Z</time>
      </trkpt>
      <trkpt lat="4.66474" lon="-75.023399">
        <ele>1375.5479</ele>
        <time>2021-11-14T12:26:34Z</time>
      </trkpt>
      <trkpt lat="4.66464" lon="-75.023537">
        <ele>1375.9338</ele>
        <time>2021-11-14T12:26:35Z</time>
      </trkpt>
      <trkpt lat="4.66457" lon="-75.023628">
        <ele>1376.0518</ele>
        <time>2021-11-14T12:26:36Z</time>
      </trkpt>
      <trkpt lat="4.664518" lon="-75.023705">
        <ele>1376.9631</ele>
        <time>2021-11-14T12:26:37Z</time>
      </trkpt>
      <trkpt lat="4.66448" lon="-75.023804">
        <ele>1378.2318</ele>
        <time>2021-11-14T12:26:38Z</time>
      </trkpt>
      <trkpt lat="4.664423" lon="-75.023941">
        <ele>1378.0842</ele>
        <time>2021-11-14T12:26:39Z</time>
      </trkpt>
      <trkpt lat="4.664358" lon="-75.024055">
        <ele>1379.3907</ele>
        <time>2021-11-14T12:26:40Z</time>
      </trkpt>
      <trkpt lat="4.664299" lon="-75.024132">
        <ele>1380.2422</ele>
        <time>2021-11-14T12:26:41Z</time>
      </trkpt>
      <trkpt lat="4.66423" lon="-75.024193">
        <ele>1379.527</ele>
        <time>2021-11-14T12:26:42Z</time>
      </trkpt>
      <trkpt lat="4.664143" lon="-75.024261">
        <ele>1379.5688</ele>
        <time>2021-11-14T12:26:43Z</time>
      </trkpt>
      <trkpt lat="4.66404" lon="-75.024353">
        <ele>1379.3887</ele>
        <time>2021-11-14T12:26:44Z</time>
      </trkpt>
      <trkpt lat="4.663927" lon="-75.024452">
        <ele>1380.6329</ele>
        <time>2021-11-14T12:26:45Z</time>
      </trkpt>
      <trkpt lat="4.663806" lon="-75.024551">
        <ele>1382.0005</ele>
        <time>2021-11-14T12:26:46Z</time>
      </trkpt>
      <trkpt lat="4.663743" lon="-75.024612">
        <ele>1384.6982</ele>
        <time>2021-11-14T12:26:47Z</time>
      </trkpt>
      <trkpt lat="4.663701" lon="-75.024666">
        <ele>1387.681</ele>
        <time>2021-11-14T12:26:48Z</time>
      </trkpt>
      <trkpt lat="4.663701" lon="-75.024666">
        <ele>1388.8392</ele>
        <time>2021-11-14T12:26:49Z</time>
      </trkpt>
      <trkpt lat="4.66365" lon="-75.024773">
        <ele>1389.2609</ele>
        <time>2021-11-14T12:26:50Z</time>
      </trkpt>
      <trkpt lat="4.663609" lon="-75.024864">
        <ele>1390.1157</ele>
        <time>2021-11-14T12:26:51Z</time>
      </trkpt>
      <trkpt lat="4.663564" lon="-75.024956">
        <ele>1391.5005</ele>
        <time>2021-11-14T12:26:52Z</time>
      </trkpt>
      <trkpt lat="4.663521" lon="-75.025047">
        <ele>1392.0243</ele>
        <time>2021-11-14T12:26:53Z</time>
      </trkpt>
      <trkpt lat="4.663513" lon="-75.02507">
        <ele>1391.7476</ele>
        <time>2021-11-14T12:26:54Z</time>
      </trkpt>
      <trkpt lat="4.663464" lon="-75.025131">
        <ele>1391.3461</ele>
        <time>2021-11-14T12:26:55Z</time>
      </trkpt>
      <trkpt lat="4.663407" lon="-75.025185">
        <ele>1392.4187</ele>
        <time>2021-11-14T12:26:56Z</time>
      </trkpt>
      <trkpt lat="4.663362" lon="-75.0252">
        <ele>1392.7826</ele>
        <time>2021-11-14T12:26:57Z</time>
      </trkpt>
      <trkpt lat="4.663231" lon="-75.025208">
        <ele>1394.3307</ele>
        <time>2021-11-14T12:26:58Z</time>
      </trkpt>
      <trkpt lat="4.663104" lon="-75.025154">
        <ele>1396.3986</ele>
        <time>2021-11-14T12:26:59Z</time>
      </trkpt>
      <trkpt lat="4.66298" lon="-75.025093">
        <ele>1396.6213</ele>
        <time>2021-11-14T12:27:00Z</time>
      </trkpt>
      <trkpt lat="4.662889" lon="-75.02504">
        <ele>1397.9692</ele>
        <time>2021-11-14T12:27:01Z</time>
      </trkpt>
      <trkpt lat="4.662818" lon="-75.024994">
        <ele>1399.1901</ele>
        <time>2021-11-14T12:27:02Z</time>
      </trkpt>
      <trkpt lat="4.66275" lon="-75.024956">
        <ele>1399.9584</ele>
        <time>2021-11-14T12:27:03Z</time>
      </trkpt>
      <trkpt lat="4.662637" lon="-75.024895">
        <ele>1400.6636</ele>
        <time>2021-11-14T12:27:04Z</time>
      </trkpt>
      <trkpt lat="4.662546" lon="-75.024841">
        <ele>1400.9509</ele>
        <time>2021-11-14T12:27:05Z</time>
      </trkpt>
      <trkpt lat="4.662446" lon="-75.02478">
        <ele>1402.9025</ele>
        <time>2021-11-14T12:27:06Z</time>
      </trkpt>
      <trkpt lat="4.662355" lon="-75.02478">
        <ele>1405.1678</ele>
        <time>2021-11-14T12:27:07Z</time>
      </trkpt>
      <trkpt lat="4.662308" lon="-75.02478">
        <ele>1406.0894</ele>
        <time>2021-11-14T12:27:09Z</time>
      </trkpt>
      <trkpt lat="4.662269" lon="-75.02478">
        <ele>1407.0924</ele>
        <time>2021-11-14T12:27:10Z</time>
      </trkpt>
      <trkpt lat="4.662075" lon="-75.024826">
        <ele>1407.5195</ele>
        <time>2021-11-14T12:27:11Z</time>
      </trkpt>
      <trkpt lat="4.662046" lon="-75.024834">
        <ele>1407.961</ele>
        <time>2021-11-14T12:27:12Z</time>
      </trkpt>
      <trkpt lat="4.661995" lon="-75.024918">
        <ele>1409.3951</ele>
        <time>2021-11-14T12:27:13Z</time>
      </trkpt>
      <trkpt lat="4.66194" lon="-75.025009">
        <ele>1411.2756</ele>
        <time>2021-11-14T12:27:14Z</time>
      </trkpt>
      <trkpt lat="4.661902" lon="-75.02504">
        <ele>1412.4647</ele>
        <time>2021-11-14T12:27:15Z</time>
      </trkpt>
      <trkpt lat="4.661886" lon="-75.025047">
        <ele>1412.202</ele>
        <time>2021-11-14T12:27:16Z</time>
      </trkpt>
      <trkpt lat="4.661847" lon="-75.025078">
        <ele>1411.7853</ele>
        <time>2021-11-14T12:27:17Z</time>
      </trkpt>
      <trkpt lat="4.661784" lon="-75.025124">
        <ele>1411.8556</ele>
        <time>2021-11-14T12:27:18Z</time>
      </trkpt>
      <trkpt lat="4.661694" lon="-75.025223">
        <ele>1412.9275</ele>
        <time>2021-11-14T12:27:19Z</time>
      </trkpt>
      <trkpt lat="4.661612" lon="-75.02533">
        <ele>1412.6144</ele>
        <time>2021-11-14T12:27:20Z</time>
      </trkpt>
      <trkpt lat="4.661612" lon="-75.02533">
        <ele>1413.6278</ele>
        <time>2021-11-14T12:27:21Z</time>
      </trkpt>
      <trkpt lat="4.661597" lon="-75.025414">
        <ele>1412.5964</ele>
        <time>2021-11-14T12:27:22Z</time>
      </trkpt>
      <trkpt lat="4.661577" lon="-75.025551">
        <ele>1413.859</ele>
        <time>2021-11-14T12:27:23Z</time>
      </trkpt>
      <trkpt lat="4.661554" lon="-75.025711">
        <ele>1415.0892</ele>
        <time>2021-11-14T12:27:24Z</time>
      </trkpt>
      <trkpt lat="4.661527" lon="-75.025902">
        <ele>1416.0431</ele>
        <time>2021-11-14T12:27:25Z</time>
      </trkpt>
      <trkpt lat="4.661502" lon="-75.02607">
        <ele>1417.4879</ele>
        <time>2021-11-14T12:27:26Z</time>
      </trkpt>
      <trkpt lat="4.661481" lon="-75.026215">
        <ele>1418.7445</ele>
        <time>2021-11-14T12:27:27Z</time>
      </trkpt>
      <trkpt lat="4.661464" lon="-75.026329">
        <ele>1419.9956</ele>
        <time>2021-11-14T12:27:28Z</time>
      </trkpt>
      <trkpt lat="4.661441" lon="-75.026489">
        <ele>1422.3673</ele>
        <time>2021-11-14T12:27:29Z</time>
      </trkpt>
      <trkpt lat="4.661425" lon="-75.026604">
        <ele>1425.6578</ele>
        <time>2021-11-14T12:27:30Z</time>
      </trkpt>
      <trkpt lat="4.661394" lon="-75.02668">
        <ele>1426.038</ele>
        <time>2021-11-14T12:27:31Z</time>
      </trkpt>
      <trkpt lat="4.661336" lon="-75.026779">
        <ele>1426.0387</ele>
        <time>2021-11-14T12:27:32Z</time>
      </trkpt>
      <trkpt lat="4.66128" lon="-75.026871">
        <ele>1426.1775</ele>
        <time>2021-11-14T12:27:33Z</time>
      </trkpt>
      <trkpt lat="4.661259" lon="-75.026901">
        <ele>1424.1223</ele>
        <time>2021-11-14T12:27:34Z</time>
      </trkpt>
      <trkpt lat="4.661217" lon="-75.026978">
        <ele>1426.6553</ele>
        <time>2021-11-14T12:27:35Z</time>
      </trkpt>
      <trkpt lat="4.661216" lon="-75.026978">
        <ele>1426.5471</ele>
        <time>2021-11-14T12:27:36Z</time>
      </trkpt>
      <trkpt lat="4.661208" lon="-75.026993">
        <ele>1426.1222</ele>
        <time>2021-11-14T12:27:37Z</time>
      </trkpt>
      <trkpt lat="4.661179" lon="-75.027039">
        <ele>1425.9292</ele>
        <time>2021-11-14T12:27:38Z</time>
      </trkpt>
      <trkpt lat="4.661141" lon="-75.027084">
        <ele>1425.9354</ele>
        <time>2021-11-14T12:27:39Z</time>
      </trkpt>
      <trkpt lat="4.661081" lon="-75.02713">
        <ele>1426.0367</ele>
        <time>2021-11-14T12:27:40Z</time>
      </trkpt>
      <trkpt lat="4.661" lon="-75.027191">
        <ele>1427.2131</ele>
        <time>2021-11-14T12:27:41Z</time>
      </trkpt>
      <trkpt lat="4.660928" lon="-75.027237">
        <ele>1427.2434</ele>
        <time>2021-11-14T12:27:42Z</time>
      </trkpt>
      <trkpt lat="4.66084" lon="-75.027306">
        <ele>1429.566</ele>
        <time>2021-11-14T12:27:43Z</time>
      </trkpt>
      <trkpt lat="4.66076" lon="-75.027359">
        <ele>1428.3239</ele>
        <time>2021-11-14T12:27:44Z</time>
      </trkpt>
      <trkpt lat="4.660686" lon="-75.027412">
        <ele>1428.1384</ele>
        <time>2021-11-14T12:27:45Z</time>
      </trkpt>
      <trkpt lat="4.660604" lon="-75.027473">
        <ele>1427.8771</ele>
        <time>2021-11-14T12:27:46Z</time>
      </trkpt>
      <trkpt lat="4.660604" lon="-75.027473">
        <ele>1427.8151</ele>
        <time>2021-11-14T12:27:47Z</time>
      </trkpt>
      <trkpt lat="4.660527" lon="-75.027534">
        <ele>1430.3987</ele>
        <time>2021-11-14T12:27:48Z</time>
      </trkpt>
      <trkpt lat="4.660486" lon="-75.027565">
        <ele>1430.2224</ele>
        <time>2021-11-14T12:27:49Z</time>
      </trkpt>
      <trkpt lat="4.660455" lon="-75.02758">
        <ele>1431.8276</ele>
        <time>2021-11-14T12:27:50Z</time>
      </trkpt>
      <trkpt lat="4.660379" lon="-75.027641">
        <ele>1432.1475</ele>
        <time>2021-11-14T12:27:51Z</time>
      </trkpt>
      <trkpt lat="4.660305" lon="-75.027695">
        <ele>1434.6418</ele>
        <time>2021-11-14T12:27:52Z</time>
      </trkpt>
      <trkpt lat="4.660169" lon="-75.027718">
        <ele>1435.1702</ele>
        <time>2021-11-14T12:27:53Z</time>
      </trkpt>
      <trkpt lat="4.66013" lon="-75.027718">
        <ele>1435.9196</ele>
        <time>2021-11-14T12:27:54Z</time>
      </trkpt>
      <trkpt lat="4.660079" lon="-75.027603">
        <ele>1438.7731</ele>
        <time>2021-11-14T12:27:55Z</time>
      </trkpt>
      <trkpt lat="4.660051" lon="-75.027534">
        <ele>1439.8419</ele>
        <time>2021-11-14T12:27:56Z</time>
      </trkpt>
      <trkpt lat="4.660008" lon="-75.027435">
        <ele>1440.5828</ele>
        <time>2021-11-14T12:27:57Z</time>
      </trkpt>
      <trkpt lat="4.659967" lon="-75.027336">
        <ele>1441.1819</ele>
        <time>2021-11-14T12:27:58Z</time>
      </trkpt>
      <trkpt lat="4.659924" lon="-75.02726">
        <ele>1442.1322</ele>
        <time>2021-11-14T12:27:59Z</time>
      </trkpt>
      <trkpt lat="4.659827" lon="-75.027222">
        <ele>1443.8164</ele>
        <time>2021-11-14T12:28:00Z</time>
      </trkpt>
      <trkpt lat="4.659763" lon="-75.027222">
        <ele>1445.219</ele>
        <time>2021-11-14T12:28:01Z</time>
      </trkpt>
      <trkpt lat="4.659623" lon="-75.027222">
        <ele>1446.623</ele>
        <time>2021-11-14T12:28:03Z</time>
      </trkpt>
      <trkpt lat="4.659494" lon="-75.027229">
        <ele>1447.7443</ele>
        <time>2021-11-14T12:28:04Z</time>
      </trkpt>
      <trkpt lat="4.659394" lon="-75.027229">
        <ele>1448.4023</ele>
        <time>2021-11-14T12:28:05Z</time>
      </trkpt>
      <trkpt lat="4.659247" lon="-75.027237">
        <ele>1448.777</ele>
        <time>2021-11-14T12:28:06Z</time>
      </trkpt>
      <trkpt lat="4.659162" lon="-75.027237">
        <ele>1448.8431</ele>
        <time>2021-11-14T12:28:07Z</time>
      </trkpt>
      <trkpt lat="4.659067" lon="-75.027237">
        <ele>1449.4954</ele>
        <time>2021-11-14T12:28:08Z</time>
      </trkpt>
      <trkpt lat="4.659039" lon="-75.027237">
        <ele>1450.1067</ele>
        <time>2021-11-14T12:28:09Z</time>
      </trkpt>
      <trkpt lat="4.658987" lon="-75.027245">
        <ele>1450.0673</ele>
        <time>2021-11-14T12:28:10Z</time>
      </trkpt>
      <trkpt lat="4.658917" lon="-75.027199">
        <ele>1451.2633</ele>
        <time>2021-11-14T12:28:11Z</time>
      </trkpt>
      <trkpt lat="4.658881" lon="-75.027176">
        <ele>1451.6078</ele>
        <time>2021-11-14T12:28:12Z</time>
      </trkpt>
      <trkpt lat="4.658853" lon="-75.027153">
        <ele>1452.7555</ele>
        <time>2021-11-14T12:28:13Z</time>
      </trkpt>
      <trkpt lat="4.658796" lon="-75.027115">
        <ele>1452.9628</ele>
        <time>2021-11-14T12:28:14Z</time>
      </trkpt>
      <trkpt lat="4.658796" lon="-75.027115">
        <ele>1453.8995</ele>
        <time>2021-11-14T12:28:15Z</time>
      </trkpt>
      <trkpt lat="4.658657" lon="-75.027016">
        <ele>1454.7571</ele>
        <time>2021-11-14T12:28:16Z</time>
      </trkpt>
      <trkpt lat="4.658562" lon="-75.026985">
        <ele>1456.3354</ele>
        <time>2021-11-14T12:28:17Z</time>
      </trkpt>
      <trkpt lat="4.658476" lon="-75.026962">
        <ele>1456.661</ele>
        <time>2021-11-14T12:28:18Z</time>
      </trkpt>
      <trkpt lat="4.658446" lon="-75.026955">
        <ele>1457.759</ele>
        <time>2021-11-14T12:28:19Z</time>
      </trkpt>
      <trkpt lat="4.658348" lon="-75.026924">
        <ele>1458.4276</ele>
        <time>2021-11-14T12:28:20Z</time>
      </trkpt>
      <trkpt lat="4.658205" lon="-75.027031">
        <ele>1458.5918</ele>
        <time>2021-11-14T12:28:21Z</time>
      </trkpt>
      <trkpt lat="4.658107" lon="-75.027184">
        <ele>1458.6096</ele>
        <time>2021-11-14T12:28:22Z</time>
      </trkpt>
      <trkpt lat="4.65803" lon="-75.027298">
        <ele>1460.0021</ele>
        <time>2021-11-14T12:28:23Z</time>
      </trkpt>
      <trkpt lat="4.657945" lon="-75.027428">
        <ele>1459.833</ele>
        <time>2021-11-14T12:28:24Z</time>
      </trkpt>
      <trkpt lat="4.657873" lon="-75.027534">
        <ele>1458.2422</ele>
        <time>2021-11-14T12:28:25Z</time>
      </trkpt>
      <trkpt lat="4.657802" lon="-75.027641">
        <ele>1458.1924</ele>
        <time>2021-11-14T12:28:26Z</time>
      </trkpt>
      <trkpt lat="4.657748" lon="-75.027672">
        <ele>1458.0525</ele>
        <time>2021-11-14T12:28:27Z</time>
      </trkpt>
      <trkpt lat="4.657671" lon="-75.027702">
        <ele>1458.4424</ele>
        <time>2021-11-14T12:28:28Z</time>
      </trkpt>
      <trkpt lat="4.6576" lon="-75.027733">
        <ele>1458.751</ele>
        <time>2021-11-14T12:28:29Z</time>
      </trkpt>
      <trkpt lat="4.657545" lon="-75.027748">
        <ele>1459.6238</ele>
        <time>2021-11-14T12:28:30Z</time>
      </trkpt>
      <trkpt lat="4.657444" lon="-75.027763">
        <ele>1461.3914</ele>
        <time>2021-11-14T12:28:31Z</time>
      </trkpt>
      <trkpt lat="4.657386" lon="-75.027771">
        <ele>1464.6182</ele>
        <time>2021-11-14T12:28:32Z</time>
      </trkpt>
      <trkpt lat="4.657289" lon="-75.027756">
        <ele>1465.6803</ele>
        <time>2021-11-14T12:28:33Z</time>
      </trkpt>
      <trkpt lat="4.657226" lon="-75.027725">
        <ele>1466.5624</ele>
        <time>2021-11-14T12:28:34Z</time>
      </trkpt>
      <trkpt lat="4.657203" lon="-75.027687">
        <ele>1468.3373</ele>
        <time>2021-11-14T12:28:35Z</time>
      </trkpt>
      <trkpt lat="4.657145" lon="-75.027557">
        <ele>1468.6007</ele>
        <time>2021-11-14T12:28:36Z</time>
      </trkpt>
      <trkpt lat="4.657084" lon="-75.027443">
        <ele>1470.4567</ele>
        <time>2021-11-14T12:28:37Z</time>
      </trkpt>
      <trkpt lat="4.657005" lon="-75.027328">
        <ele>1464.3589</ele>
        <time>2021-11-14T12:28:38Z</time>
      </trkpt>
      <trkpt lat="4.656934" lon="-75.027222">
        <ele>1466.1624</ele>
        <time>2021-11-14T12:28:39Z</time>
      </trkpt>
      <trkpt lat="4.656845" lon="-75.027184">
        <ele>1466.7039</ele>
        <time>2021-11-14T12:28:40Z</time>
      </trkpt>
      <trkpt lat="4.656749" lon="-75.027153">
        <ele>1467.7211</ele>
        <time>2021-11-14T12:28:41Z</time>
      </trkpt>
      <trkpt lat="4.656648" lon="-75.027145">
        <ele>1469.7626</ele>
        <time>2021-11-14T12:28:42Z</time>
      </trkpt>
      <trkpt lat="4.656525" lon="-75.027145">
        <ele>1472.0116</ele>
        <time>2021-11-14T12:28:43Z</time>
      </trkpt>
      <trkpt lat="4.65641" lon="-75.027168">
        <ele>1474.0543</ele>
        <time>2021-11-14T12:28:44Z</time>
      </trkpt>
      <trkpt lat="4.656339" lon="-75.027191">
        <ele>1475.1879</ele>
        <time>2021-11-14T12:28:45Z</time>
      </trkpt>
      <trkpt lat="4.656264" lon="-75.027252">
        <ele>1475.7325</ele>
        <time>2021-11-14T12:28:46Z</time>
      </trkpt>
      <trkpt lat="4.656185" lon="-75.027336">
        <ele>1477.4872</ele>
        <time>2021-11-14T12:28:47Z</time>
      </trkpt>
      <trkpt lat="4.656128" lon="-75.027428">
        <ele>1478.7594</ele>
        <time>2021-11-14T12:28:48Z</time>
      </trkpt>
      <trkpt lat="4.65604" lon="-75.02758">
        <ele>1479.4719</ele>
        <time>2021-11-14T12:28:49Z</time>
      </trkpt>
      <trkpt lat="4.655935" lon="-75.027756">
        <ele>1479.9725</ele>
        <time>2021-11-14T12:28:51Z</time>
      </trkpt>
      <trkpt lat="4.655877" lon="-75.027847">
        <ele>1480.8757</ele>
        <time>2021-11-14T12:28:52Z</time>
      </trkpt>
      <trkpt lat="4.655877" lon="-75.027847">
        <ele>1481.1342</ele>
        <time>2021-11-14T12:28:53Z</time>
      </trkpt>
      <trkpt lat="4.655833" lon="-75.027924">
        <ele>1480.958</ele>
        <time>2021-11-14T12:28:54Z</time>
      </trkpt>
      <trkpt lat="4.655783" lon="-75.028008">
        <ele>1480.8374</ele>
        <time>2021-11-14T12:28:55Z</time>
      </trkpt>
      <trkpt lat="4.655742" lon="-75.028076">
        <ele>1480.687</ele>
        <time>2021-11-14T12:28:56Z</time>
      </trkpt>
      <trkpt lat="4.655688" lon="-75.028168">
        <ele>1482.3322</ele>
        <time>2021-11-14T12:28:57Z</time>
      </trkpt>
      <trkpt lat="4.655681" lon="-75.028175">
        <ele>1483.2202</ele>
        <time>2021-11-14T12:28:58Z</time>
      </trkpt>
      <trkpt lat="4.655673" lon="-75.028191">
        <ele>1483.9589</ele>
        <time>2021-11-14T12:28:59Z</time>
      </trkpt>
      <trkpt lat="4.655484" lon="-75.028183">
        <ele>1484.8427</ele>
        <time>2021-11-14T12:29:00Z</time>
      </trkpt>
      <trkpt lat="4.655412" lon="-75.027946">
        <ele>1485.5681</ele>
        <time>2021-11-14T12:29:01Z</time>
      </trkpt>
      <trkpt lat="4.655386" lon="-75.027863">
        <ele>1485.7798</ele>
        <time>2021-11-14T12:29:02Z</time>
      </trkpt>
      <trkpt lat="4.655334" lon="-75.027786">
        <ele>1485.7842</ele>
        <time>2021-11-14T12:29:03Z</time>
      </trkpt>
      <trkpt lat="4.655203" lon="-75.027733">
        <ele>1487.3265</ele>
        <time>2021-11-14T12:29:04Z</time>
      </trkpt>
      <trkpt lat="4.655189" lon="-75.027725">
        <ele>1489.0662</ele>
        <time>2021-11-14T12:29:05Z</time>
      </trkpt>
      <trkpt lat="4.655357" lon="-75.027359">
        <ele>1490.6625</ele>
        <time>2021-11-14T12:29:06Z</time>
      </trkpt>
      <trkpt lat="4.655297" lon="-75.027275">
        <ele>1491.1017</ele>
        <time>2021-11-14T12:29:07Z</time>
      </trkpt>
      <trkpt lat="4.655202" lon="-75.027222">
        <ele>1492.0194</ele>
        <time>2021-11-14T12:29:08Z</time>
      </trkpt>
      <trkpt lat="4.655115" lon="-75.027206">
        <ele>1493.3989</ele>
        <time>2021-11-14T12:29:09Z</time>
      </trkpt>
      <trkpt lat="4.655" lon="-75.027191">
        <ele>1494.4508</ele>
        <time>2021-11-14T12:29:10Z</time>
      </trkpt>
      <trkpt lat="4.654897" lon="-75.027222">
        <ele>1495.1981</ele>
        <time>2021-11-14T12:29:11Z</time>
      </trkpt>
      <trkpt lat="4.654789" lon="-75.027222">
        <ele>1495.4923</ele>
        <time>2021-11-14T12:29:12Z</time>
      </trkpt>
      <trkpt lat="4.654725" lon="-75.027206">
        <ele>1495.966</ele>
        <time>2021-11-14T12:29:13Z</time>
      </trkpt>
      <trkpt lat="4.654642" lon="-75.027176">
        <ele>1495.8135</ele>
        <time>2021-11-14T12:29:14Z</time>
      </trkpt>
      <trkpt lat="4.654577" lon="-75.027122">
        <ele>1495.7964</ele>
        <time>2021-11-14T12:29:15Z</time>
      </trkpt>
      <trkpt lat="4.654529" lon="-75.027031">
        <ele>1496.3771</ele>
        <time>2021-11-14T12:29:16Z</time>
      </trkpt>
      <trkpt lat="4.654505" lon="-75.026924">
        <ele>1496.7142</ele>
        <time>2021-11-14T12:29:17Z</time>
      </trkpt>
      <trkpt lat="4.654484" lon="-75.02684">
        <ele>1497.9492</ele>
        <time>2021-11-14T12:29:18Z</time>
      </trkpt>
      <trkpt lat="4.654466" lon="-75.026787">
        <ele>1498.8849</ele>
        <time>2021-11-14T12:29:19Z</time>
      </trkpt>
      <trkpt lat="4.654593" lon="-75.026672">
        <ele>1499.8832</ele>
        <time>2021-11-14T12:29:20Z</time>
      </trkpt>
      <trkpt lat="4.654584" lon="-75.026581">
        <ele>1500.7339</ele>
        <time>2021-11-14T12:29:21Z</time>
      </trkpt>
      <trkpt lat="4.654573" lon="-75.026459">
        <ele>1501.2517</ele>
        <time>2021-11-14T12:29:22Z</time>
      </trkpt>
      <trkpt lat="4.654564" lon="-75.026367">
        <ele>1501.6022</ele>
        <time>2021-11-14T12:29:23Z</time>
      </trkpt>
      <trkpt lat="4.654558" lon="-75.026299">
        <ele>1502.5449</ele>
        <time>2021-11-14T12:29:24Z</time>
      </trkpt>
      <trkpt lat="4.654558" lon="-75.026299">
        <ele>1502.7318</ele>
        <time>2021-11-14T12:29:25Z</time>
      </trkpt>
      <trkpt lat="4.654574" lon="-75.02626">
        <ele>1503.2634</ele>
        <time>2021-11-14T12:29:26Z</time>
      </trkpt>
      <trkpt lat="4.654592" lon="-75.026215">
        <ele>1503.7</ele>
        <time>2021-11-14T12:29:27Z</time>
      </trkpt>
      <trkpt lat="4.6546" lon="-75.026199">
        <ele>1504.2593</ele>
        <time>2021-11-14T12:29:28Z</time>
      </trkpt>
      <trkpt lat="4.654628" lon="-75.026138">
        <ele>1504.7678</ele>
        <time>2021-11-14T12:29:29Z</time>
      </trkpt>
      <trkpt lat="4.654655" lon="-75.02607">
        <ele>1505.0806</ele>
        <time>2021-11-14T12:29:30Z</time>
      </trkpt>
      <trkpt lat="4.654659" lon="-75.026039">
        <ele>1505.869</ele>
        <time>2021-11-14T12:29:31Z</time>
      </trkpt>
      <trkpt lat="4.654659" lon="-75.025925">
        <ele>1506.24</ele>
        <time>2021-11-14T12:29:32Z</time>
      </trkpt>
      <trkpt lat="4.654634" lon="-75.025833">
        <ele>1507.8967</ele>
        <time>2021-11-14T12:29:33Z</time>
      </trkpt>
      <trkpt lat="4.654607" lon="-75.025818">
        <ele>1508.6902</ele>
        <time>2021-11-14T12:29:34Z</time>
      </trkpt>
      <trkpt lat="4.654594" lon="-75.025803">
        <ele>1509.4667</ele>
        <time>2021-11-14T12:29:35Z</time>
      </trkpt>
      <trkpt lat="4.654574" lon="-75.025795">
        <ele>1509.883</ele>
        <time>2021-11-14T12:29:36Z</time>
      </trkpt>
      <trkpt lat="4.654493" lon="-75.025757">
        <ele>1510.6271</ele>
        <time>2021-11-14T12:29:37Z</time>
      </trkpt>
      <trkpt lat="4.654381" lon="-75.025742">
        <ele>1511.5812</ele>
        <time>2021-11-14T12:29:38Z</time>
      </trkpt>
      <trkpt lat="4.654314" lon="-75.025757">
        <ele>1511.8477</ele>
        <time>2021-11-14T12:29:39Z</time>
      </trkpt>
      <trkpt lat="4.654252" lon="-75.025772">
        <ele>1512.5892</ele>
        <time>2021-11-14T12:29:40Z</time>
      </trkpt>
      <trkpt lat="4.654212" lon="-75.02578">
        <ele>1513.9883</ele>
        <time>2021-11-14T12:29:41Z</time>
      </trkpt>
      <trkpt lat="4.654162" lon="-75.02581">
        <ele>1514.989</ele>
        <time>2021-11-14T12:29:42Z</time>
      </trkpt>
      <trkpt lat="4.654079" lon="-75.025871">
        <ele>1515.3107</ele>
        <time>2021-11-14T12:29:43Z</time>
      </trkpt>
      <trkpt lat="4.654046" lon="-75.025963">
        <ele>1515.4642</ele>
        <time>2021-11-14T12:29:44Z</time>
      </trkpt>
      <trkpt lat="4.654007" lon="-75.026077">
        <ele>1516.9581</ele>
        <time>2021-11-14T12:29:45Z</time>
      </trkpt>
      <trkpt lat="4.653946" lon="-75.02626">
        <ele>1518.2507</ele>
        <time>2021-11-14T12:29:46Z</time>
      </trkpt>
      <trkpt lat="4.653904" lon="-75.026382">
        <ele>1519.3193</ele>
        <time>2021-11-14T12:29:47Z</time>
      </trkpt>
      <trkpt lat="4.653865" lon="-75.02652">
        <ele>1519.8796</ele>
        <time>2021-11-14T12:29:48Z</time>
      </trkpt>
      <trkpt lat="4.653831" lon="-75.026657">
        <ele>1522.1644</ele>
        <time>2021-11-14T12:29:50Z</time>
      </trkpt>
      <trkpt lat="4.653794" lon="-75.026817">
        <ele>1524.1979</ele>
        <time>2021-11-14T12:29:51Z</time>
      </trkpt>
      <trkpt lat="4.653765" lon="-75.026962">
        <ele>1525.1809</ele>
        <time>2021-11-14T12:29:52Z</time>
      </trkpt>
      <trkpt lat="4.653739" lon="-75.027145">
        <ele>1526.1864</ele>
        <time>2021-11-14T12:29:53Z</time>
      </trkpt>
      <trkpt lat="4.653739" lon="-75.027145">
        <ele>1527.7228</ele>
        <time>2021-11-14T12:29:54Z</time>
      </trkpt>
      <trkpt lat="4.653712" lon="-75.027328">
        <ele>1528.0071</ele>
        <time>2021-11-14T12:29:55Z</time>
      </trkpt>
      <trkpt lat="4.653687" lon="-75.027496">
        <ele>1528.4209</ele>
        <time>2021-11-14T12:29:56Z</time>
      </trkpt>
      <trkpt lat="4.653649" lon="-75.027763">
        <ele>1531.5642</ele>
        <time>2021-11-14T12:29:57Z</time>
      </trkpt>
      <trkpt lat="4.653629" lon="-75.027893">
        <ele>1532.0315</ele>
        <time>2021-11-14T12:29:58Z</time>
      </trkpt>
      <trkpt lat="4.65361" lon="-75.02803">
        <ele>1532.813</ele>
        <time>2021-11-14T12:29:59Z</time>
      </trkpt>
      <trkpt lat="4.653638" lon="-75.028091">
        <ele>1534.4547</ele>
        <time>2021-11-14T12:30:00Z</time>
      </trkpt>
      <trkpt lat="4.653725" lon="-75.028236">
        <ele>1535.4281</ele>
        <time>2021-11-14T12:30:01Z</time>
      </trkpt>
      <trkpt lat="4.65382" lon="-75.028381">
        <ele>1536.5397</ele>
        <time>2021-11-14T12:30:02Z</time>
      </trkpt>
      <trkpt lat="4.653938" lon="-75.028488">
        <ele>1537.5334</ele>
        <time>2021-11-14T12:30:03Z</time>
      </trkpt>
      <trkpt lat="4.654068" lon="-75.02861">
        <ele>1537.9546</ele>
        <time>2021-11-14T12:30:04Z</time>
      </trkpt>
      <trkpt lat="4.654167" lon="-75.028694">
        <ele>1538.1376</ele>
        <time>2021-11-14T12:30:05Z</time>
      </trkpt>
      <trkpt lat="4.654235" lon="-75.028755">
        <ele>1536.6746</ele>
        <time>2021-11-14T12:30:06Z</time>
      </trkpt>
      <trkpt lat="4.654291" lon="-75.028809">
        <ele>1537.1964</ele>
        <time>2021-11-14T12:30:07Z</time>
      </trkpt>
      <trkpt lat="4.654359" lon="-75.028877">
        <ele>1537.0045</ele>
        <time>2021-11-14T12:30:08Z</time>
      </trkpt>
      <trkpt lat="4.654413" lon="-75.028992">
        <ele>1536.5012</ele>
        <time>2021-11-14T12:30:09Z</time>
      </trkpt>
      <trkpt lat="4.654444" lon="-75.029106">
        <ele>1536.6504</ele>
        <time>2021-11-14T12:30:10Z</time>
      </trkpt>
      <trkpt lat="4.654431" lon="-75.029243">
        <ele>1537.393</ele>
        <time>2021-11-14T12:30:11Z</time>
      </trkpt>
      <trkpt lat="4.654455" lon="-75.029388">
        <ele>1538.2166</ele>
        <time>2021-11-14T12:30:12Z</time>
      </trkpt>
      <trkpt lat="4.654467" lon="-75.029442">
        <ele>1537.5382</ele>
        <time>2021-11-14T12:30:13Z</time>
      </trkpt>
      <trkpt lat="4.654495" lon="-75.029488">
        <ele>1537.9614</ele>
        <time>2021-11-14T12:30:14Z</time>
      </trkpt>
      <trkpt lat="4.654557" lon="-75.029564">
        <ele>1538.1207</ele>
        <time>2021-11-14T12:30:15Z</time>
      </trkpt>
      <trkpt lat="4.654586" lon="-75.029594">
        <ele>1538.7963</ele>
        <time>2021-11-14T12:30:16Z</time>
      </trkpt>
      <trkpt lat="4.654586" lon="-75.029594">
        <ele>1541.5763</ele>
        <time>2021-11-14T12:30:17Z</time>
      </trkpt>
      <trkpt lat="4.654627" lon="-75.029648">
        <ele>1542.7174</ele>
        <time>2021-11-14T12:30:18Z</time>
      </trkpt>
      <trkpt lat="4.654696" lon="-75.029732">
        <ele>1544.4741</ele>
        <time>2021-11-14T12:30:19Z</time>
      </trkpt>
      <trkpt lat="4.654735" lon="-75.029785">
        <ele>1545.7544</ele>
        <time>2021-11-14T12:30:20Z</time>
      </trkpt>
      <trkpt lat="4.65477" lon="-75.029854">
        <ele>1546.9648</ele>
        <time>2021-11-14T12:30:21Z</time>
      </trkpt>
      <trkpt lat="4.654792" lon="-75.029915">
        <ele>1547.1575</ele>
        <time>2021-11-14T12:30:22Z</time>
      </trkpt>
      <trkpt lat="4.654828" lon="-75.030014">
        <ele>1549.521</ele>
        <time>2021-11-14T12:30:23Z</time>
      </trkpt>
      <trkpt lat="4.654808" lon="-75.030121">
        <ele>1550.2712</ele>
        <time>2021-11-14T12:30:24Z</time>
      </trkpt>
      <trkpt lat="4.654769" lon="-75.030251">
        <ele>1551.8848</ele>
        <time>2021-11-14T12:30:25Z</time>
      </trkpt>
      <trkpt lat="4.654704" lon="-75.030334">
        <ele>1552.7163</ele>
        <time>2021-11-14T12:30:26Z</time>
      </trkpt>
      <trkpt lat="4.654611" lon="-75.030441">
        <ele>1553.7905</ele>
        <time>2021-11-14T12:30:27Z</time>
      </trkpt>
      <trkpt lat="4.654514" lon="-75.030556">
        <ele>1554.0122</ele>
        <time>2021-11-14T12:30:28Z</time>
      </trkpt>
      <trkpt lat="4.654411" lon="-75.030678">
        <ele>1554.9434</ele>
        <time>2021-11-14T12:30:29Z</time>
      </trkpt>
      <trkpt lat="4.65436" lon="-75.030739">
        <ele>1556.1772</ele>
        <time>2021-11-14T12:30:30Z</time>
      </trkpt>
      <trkpt lat="4.654386" lon="-75.030807">
        <ele>1556.5664</ele>
        <time>2021-11-14T12:30:31Z</time>
      </trkpt>
      <trkpt lat="4.654412" lon="-75.030869">
        <ele>1557.9082</ele>
        <time>2021-11-14T12:30:32Z</time>
      </trkpt>
      <trkpt lat="4.654448" lon="-75.03096">
        <ele>1558.581</ele>
        <time>2021-11-14T12:30:33Z</time>
      </trkpt>
      <trkpt lat="4.654492" lon="-75.031067">
        <ele>1559.1274</ele>
        <time>2021-11-14T12:30:34Z</time>
      </trkpt>
      <trkpt lat="4.654546" lon="-75.031197">
        <ele>1559.6284</ele>
        <time>2021-11-14T12:30:35Z</time>
      </trkpt>
      <trkpt lat="4.654572" lon="-75.031265">
        <ele>1560.1433</ele>
        <time>2021-11-14T12:30:36Z</time>
      </trkpt>
      <trkpt lat="4.654564" lon="-75.031311">
        <ele>1560.1062</ele>
        <time>2021-11-14T12:30:37Z</time>
      </trkpt>
      <trkpt lat="4.654534" lon="-75.031387">
        <ele>1560.2109</ele>
        <time>2021-11-14T12:30:38Z</time>
      </trkpt>
      <trkpt lat="4.6545" lon="-75.031464">
        <ele>1559.8428</ele>
        <time>2021-11-14T12:30:40Z</time>
      </trkpt>
      <trkpt lat="4.654446" lon="-75.031509">
        <ele>1559.9609</ele>
        <time>2021-11-14T12:30:41Z</time>
      </trkpt>
      <trkpt lat="4.65437" lon="-75.031555">
        <ele>1561.0137</ele>
        <time>2021-11-14T12:30:42Z</time>
      </trkpt>
      <trkpt lat="4.654275" lon="-75.031578">
        <ele>1561.6465</ele>
        <time>2021-11-14T12:30:43Z</time>
      </trkpt>
      <trkpt lat="4.654113" lon="-75.03157">
        <ele>1562.7585</ele>
        <time>2021-11-14T12:30:44Z</time>
      </trkpt>
      <trkpt lat="4.653983" lon="-75.031555">
        <ele>1563.8252</ele>
        <time>2021-11-14T12:30:45Z</time>
      </trkpt>
      <trkpt lat="4.653826" lon="-75.031548">
        <ele>1564.7041</ele>
        <time>2021-11-14T12:30:46Z</time>
      </trkpt>
      <trkpt lat="4.653669" lon="-75.03154">
        <ele>1565.4905</ele>
        <time>2021-11-14T12:30:47Z</time>
      </trkpt>
      <trkpt lat="4.653669" lon="-75.03154">
        <ele>1566.551</ele>
        <time>2021-11-14T12:30:48Z</time>
      </trkpt>
      <trkpt lat="4.653543" lon="-75.031525">
        <ele>1567.3906</ele>
        <time>2021-11-14T12:30:49Z</time>
      </trkpt>
      <trkpt lat="4.653466" lon="-75.031525">
        <ele>1568.186</ele>
        <time>2021-11-14T12:30:50Z</time>
      </trkpt>
      <trkpt lat="4.653399" lon="-75.031517">
        <ele>1568.9893</ele>
        <time>2021-11-14T12:30:51Z</time>
      </trkpt>
      <trkpt lat="4.653282" lon="-75.031517">
        <ele>1570.2637</ele>
        <time>2021-11-14T12:30:52Z</time>
      </trkpt>
      <trkpt lat="4.653172" lon="-75.031593">
        <ele>1570.7246</ele>
        <time>2021-11-14T12:30:53Z</time>
      </trkpt>
      <trkpt lat="4.653139" lon="-75.031677">
        <ele>1571.6831</ele>
        <time>2021-11-14T12:30:54Z</time>
      </trkpt>
      <trkpt lat="4.653139" lon="-75.031738">
        <ele>1572.6011</ele>
        <time>2021-11-14T12:30:55Z</time>
      </trkpt>
      <trkpt lat="4.653266" lon="-75.032051">
        <ele>1575.813</ele>
        <time>2021-11-14T12:30:56Z</time>
      </trkpt>
      <trkpt lat="4.653305" lon="-75.03212">
        <ele>1577.2241</ele>
        <time>2021-11-14T12:30:57Z</time>
      </trkpt>
      <trkpt lat="4.653364" lon="-75.032234">
        <ele>1578.2456</ele>
        <time>2021-11-14T12:30:58Z</time>
      </trkpt>
      <trkpt lat="4.653424" lon="-75.032341">
        <ele>1578.5972</ele>
        <time>2021-11-14T12:30:59Z</time>
      </trkpt>
      <trkpt lat="4.653489" lon="-75.032463">
        <ele>1577.9531</ele>
        <time>2021-11-14T12:31:00Z</time>
      </trkpt>
      <trkpt lat="4.653523" lon="-75.032524">
        <ele>1580.6335</ele>
        <time>2021-11-14T12:31:01Z</time>
      </trkpt>
      <trkpt lat="4.653555" lon="-75.032585">
        <ele>1580.5701</ele>
        <time>2021-11-14T12:31:02Z</time>
      </trkpt>
      <trkpt lat="4.653618" lon="-75.032707">
        <ele>1580.3335</ele>
        <time>2021-11-14T12:31:03Z</time>
      </trkpt>
      <trkpt lat="4.653703" lon="-75.03286">
        <ele>1580.7549</ele>
        <time>2021-11-14T12:31:04Z</time>
      </trkpt>
      <trkpt lat="4.653765" lon="-75.032974">
        <ele>1581.0354</ele>
        <time>2021-11-14T12:31:05Z</time>
      </trkpt>
      <trkpt lat="4.653836" lon="-75.033112">
        <ele>1582.9023</ele>
        <time>2021-11-14T12:31:06Z</time>
      </trkpt>
      <trkpt lat="4.653895" lon="-75.033218">
        <ele>1583.6338</ele>
        <time>2021-11-14T12:31:07Z</time>
      </trkpt>
      <trkpt lat="4.653947" lon="-75.033318">
        <ele>1584.439</ele>
        <time>2021-11-14T12:31:08Z</time>
      </trkpt>
      <trkpt lat="4.654008" lon="-75.033432">
        <ele>1584.1475</ele>
        <time>2021-11-14T12:31:09Z</time>
      </trkpt>
      <trkpt lat="4.654002" lon="-75.033554">
        <ele>1584.791</ele>
        <time>2021-11-14T12:31:10Z</time>
      </trkpt>
      <trkpt lat="4.653986" lon="-75.033661">
        <ele>1585.5476</ele>
        <time>2021-11-14T12:31:11Z</time>
      </trkpt>
      <trkpt lat="4.653971" lon="-75.033752">
        <ele>1585.9888</ele>
        <time>2021-11-14T12:31:12Z</time>
      </trkpt>
      <trkpt lat="4.653955" lon="-75.033859">
        <ele>1586.3618</ele>
        <time>2021-11-14T12:31:13Z</time>
      </trkpt>
      <trkpt lat="4.653978" lon="-75.033928">
        <ele>1586.5381</ele>
        <time>2021-11-14T12:31:14Z</time>
      </trkpt>
      <trkpt lat="4.654015" lon="-75.033951">
        <ele>1587.0635</ele>
        <time>2021-11-14T12:31:15Z</time>
      </trkpt>
      <trkpt lat="4.654077" lon="-75.034004">
        <ele>1587.168</ele>
        <time>2021-11-14T12:31:16Z</time>
      </trkpt>
      <trkpt lat="4.654077" lon="-75.034004">
        <ele>1587.5464</ele>
        <time>2021-11-14T12:31:17Z</time>
      </trkpt>
      <trkpt lat="4.654162" lon="-75.03405">
        <ele>1587.8616</ele>
        <time>2021-11-14T12:31:18Z</time>
      </trkpt>
      <trkpt lat="4.654262" lon="-75.034103">
        <ele>1588.3374</ele>
        <time>2021-11-14T12:31:19Z</time>
      </trkpt>
      <trkpt lat="4.654367" lon="-75.034149">
        <ele>1588.7812</ele>
        <time>2021-11-14T12:31:20Z</time>
      </trkpt>
      <trkpt lat="4.654467" lon="-75.034203">
        <ele>1589.6777</ele>
        <time>2021-11-14T12:31:21Z</time>
      </trkpt>
      <trkpt lat="4.654517" lon="-75.034271">
        <ele>1589.6514</ele>
        <time>2021-11-14T12:31:22Z</time>
      </trkpt>
      <trkpt lat="4.654516" lon="-75.034416">
        <ele>1590.1201</ele>
        <time>2021-11-14T12:31:23Z</time>
      </trkpt>
      <trkpt lat="4.654487" lon="-75.034569">
        <ele>1591.3999</ele>
        <time>2021-11-14T12:31:24Z</time>
      </trkpt>
      <trkpt lat="4.654458" lon="-75.034721">
        <ele>1591.8877</ele>
        <time>2021-11-14T12:31:25Z</time>
      </trkpt>
      <trkpt lat="4.65444" lon="-75.034821">
        <ele>1592.8823</ele>
        <time>2021-11-14T12:31:26Z</time>
      </trkpt>
      <trkpt lat="4.654422" lon="-75.034912">
        <ele>1593.374</ele>
        <time>2021-11-14T12:31:27Z</time>
      </trkpt>
      <trkpt lat="4.654419" lon="-75.035049">
        <ele>1595.4224</ele>
        <time>2021-11-14T12:31:28Z</time>
      </trkpt>
      <trkpt lat="4.654444" lon="-75.035172">
        <ele>1596.8135</ele>
        <time>2021-11-14T12:31:29Z</time>
      </trkpt>
      <trkpt lat="4.654468" lon="-75.035286">
        <ele>1597.1406</ele>
        <time>2021-11-14T12:31:30Z</time>
      </trkpt>
      <trkpt lat="4.654432" lon="-75.035416">
        <ele>1597.0366</ele>
        <time>2021-11-14T12:31:31Z</time>
      </trkpt>
      <trkpt lat="4.654405" lon="-75.0355">
        <ele>1598.1069</ele>
        <time>2021-11-14T12:31:32Z</time>
      </trkpt>
      <trkpt lat="4.65436" lon="-75.035652">
        <ele>1598.8486</ele>
        <time>2021-11-14T12:31:33Z</time>
      </trkpt>
      <trkpt lat="4.65432" lon="-75.035782">
        <ele>1598.6982</ele>
        <time>2021-11-14T12:31:34Z</time>
      </trkpt>
      <trkpt lat="4.654293" lon="-75.035873">
        <ele>1597.8408</ele>
        <time>2021-11-14T12:31:35Z</time>
      </trkpt>
      <trkpt lat="4.654254" lon="-75.036003">
        <ele>1597.5496</ele>
        <time>2021-11-14T12:31:36Z</time>
      </trkpt>
      <trkpt lat="4.654148" lon="-75.03614">
        <ele>1596.907</ele>
        <time>2021-11-14T12:31:37Z</time>
      </trkpt>
      <trkpt lat="4.654037" lon="-75.03627">
        <ele>1596.0522</ele>
        <time>2021-11-14T12:31:39Z</time>
      </trkpt>
      <trkpt lat="4.65399" lon="-75.036354">
        <ele>1595.0835</ele>
        <time>2021-11-14T12:31:40Z</time>
      </trkpt>
      <trkpt lat="4.654031" lon="-75.036407">
        <ele>1594.7571</ele>
        <time>2021-11-14T12:31:41Z</time>
      </trkpt>
      <trkpt lat="4.654052" lon="-75.03643">
        <ele>1593.7051</ele>
        <time>2021-11-14T12:31:42Z</time>
      </trkpt>
      <trkpt lat="4.654092" lon="-75.036476">
        <ele>1592.3345</ele>
        <time>2021-11-14T12:31:43Z</time>
      </trkpt>
      <trkpt lat="4.654154" lon="-75.036552">
        <ele>1591.8848</ele>
        <time>2021-11-14T12:31:44Z</time>
      </trkpt>
      <trkpt lat="4.654225" lon="-75.036636">
        <ele>1591.1904</ele>
        <time>2021-11-14T12:31:45Z</time>
      </trkpt>
      <trkpt lat="4.654292" lon="-75.03672">
        <ele>1590.5496</ele>
        <time>2021-11-14T12:31:46Z</time>
      </trkpt>
      <trkpt lat="4.654301" lon="-75.036797">
        <ele>1590.8184</ele>
        <time>2021-11-14T12:31:47Z</time>
      </trkpt>
      <trkpt lat="4.654239" lon="-75.036957">
        <ele>1590.5239</ele>
        <time>2021-11-14T12:31:48Z</time>
      </trkpt>
      <trkpt lat="4.654189" lon="-75.037086">
        <ele>1589.936</ele>
        <time>2021-11-14T12:31:49Z</time>
      </trkpt>
      <trkpt lat="4.654126" lon="-75.037178">
        <ele>1589.3276</ele>
        <time>2021-11-14T12:31:50Z</time>
      </trkpt>
      <trkpt lat="4.654126" lon="-75.037178">
        <ele>1588.2004</ele>
        <time>2021-11-14T12:31:51Z</time>
      </trkpt>
      <trkpt lat="4.654006" lon="-75.037292">
        <ele>1587.21</ele>
        <time>2021-11-14T12:31:52Z</time>
      </trkpt>
      <trkpt lat="4.653882" lon="-75.037415">
        <ele>1588.491</ele>
        <time>2021-11-14T12:31:53Z</time>
      </trkpt>
      <trkpt lat="4.653764" lon="-75.037521">
        <ele>1587.3086</ele>
        <time>2021-11-14T12:31:54Z</time>
      </trkpt>
      <trkpt lat="4.653669" lon="-75.037613">
        <ele>1586.0562</ele>
        <time>2021-11-14T12:31:55Z</time>
      </trkpt>
      <trkpt lat="4.653615" lon="-75.037704">
        <ele>1585.4766</ele>
        <time>2021-11-14T12:31:56Z</time>
      </trkpt>
      <trkpt lat="4.65356" lon="-75.037819">
        <ele>1585.1162</ele>
        <time>2021-11-14T12:31:57Z</time>
      </trkpt>
      <trkpt lat="4.6535" lon="-75.037949">
        <ele>1584.0464</ele>
        <time>2021-11-14T12:31:58Z</time>
      </trkpt>
      <trkpt lat="4.653483" lon="-75.038086">
        <ele>1582.8511</ele>
        <time>2021-11-14T12:31:59Z</time>
      </trkpt>
      <trkpt lat="4.653466" lon="-75.038239">
        <ele>1581.0508</ele>
        <time>2021-11-14T12:32:00Z</time>
      </trkpt>
      <trkpt lat="4.653449" lon="-75.038391">
        <ele>1579.8975</ele>
        <time>2021-11-14T12:32:01Z</time>
      </trkpt>
      <trkpt lat="4.653433" lon="-75.038528">
        <ele>1578.938</ele>
        <time>2021-11-14T12:32:02Z</time>
      </trkpt>
      <trkpt lat="4.653417" lon="-75.038666">
        <ele>1578.0508</ele>
        <time>2021-11-14T12:32:03Z</time>
      </trkpt>
      <trkpt lat="4.653403" lon="-75.038795">
        <ele>1576.8188</ele>
        <time>2021-11-14T12:32:04Z</time>
      </trkpt>
      <trkpt lat="4.653388" lon="-75.038933">
        <ele>1576.1143</ele>
        <time>2021-11-14T12:32:05Z</time>
      </trkpt>
      <trkpt lat="4.653372" lon="-75.03907">
        <ele>1575.3867</ele>
        <time>2021-11-14T12:32:06Z</time>
      </trkpt>
      <trkpt lat="4.653355" lon="-75.039215">
        <ele>1575.5981</ele>
        <time>2021-11-14T12:32:07Z</time>
      </trkpt>
      <trkpt lat="4.653355" lon="-75.039375">
        <ele>1574.71</ele>
        <time>2021-11-14T12:32:08Z</time>
      </trkpt>
      <trkpt lat="4.653366" lon="-75.039543">
        <ele>1573.8013</ele>
        <time>2021-11-14T12:32:09Z</time>
      </trkpt>
      <trkpt lat="4.653387" lon="-75.039848">
        <ele>1571.8079</ele>
        <time>2021-11-14T12:32:10Z</time>
      </trkpt>
      <trkpt lat="4.653396" lon="-75.03997">
        <ele>1571.3943</ele>
        <time>2021-11-14T12:32:11Z</time>
      </trkpt>
      <trkpt lat="4.653392" lon="-75.040092">
        <ele>1570.3633</ele>
        <time>2021-11-14T12:32:12Z</time>
      </trkpt>
      <trkpt lat="4.653385" lon="-75.040184">
        <ele>1569.8647</ele>
        <time>2021-11-14T12:32:13Z</time>
      </trkpt>
      <trkpt lat="4.653376" lon="-75.040283">
        <ele>1569.3359</ele>
        <time>2021-11-14T12:32:14Z</time>
      </trkpt>
      <trkpt lat="4.653366" lon="-75.040413">
        <ele>1569.2876</ele>
        <time>2021-11-14T12:32:15Z</time>
      </trkpt>
      <trkpt lat="4.653357" lon="-75.04052">
        <ele>1569.874</ele>
        <time>2021-11-14T12:32:16Z</time>
      </trkpt>
      <trkpt lat="4.653344" lon="-75.040642">
        <ele>1570.3975</ele>
        <time>2021-11-14T12:32:17Z</time>
      </trkpt>
      <trkpt lat="4.653296" lon="-75.040764">
        <ele>1570.6133</ele>
        <time>2021-11-14T12:32:18Z</time>
      </trkpt>
      <trkpt lat="4.653241" lon="-75.040909">
        <ele>1571.874</ele>
        <time>2021-11-14T12:32:19Z</time>
      </trkpt>
      <trkpt lat="4.653183" lon="-75.041061">
        <ele>1572.1145</ele>
        <time>2021-11-14T12:32:20Z</time>
      </trkpt>
      <trkpt lat="4.653137" lon="-75.041183">
        <ele>1574.0005</ele>
        <time>2021-11-14T12:32:21Z</time>
      </trkpt>
      <trkpt lat="4.653079" lon="-75.041298">
        <ele>1574.9673</ele>
        <time>2021-11-14T12:32:22Z</time>
      </trkpt>
      <trkpt lat="4.653016" lon="-75.041405">
        <ele>1575.8855</ele>
        <time>2021-11-14T12:32:23Z</time>
      </trkpt>
      <trkpt lat="4.653016" lon="-75.041405">
        <ele>1576.6946</ele>
        <time>2021-11-14T12:32:24Z</time>
      </trkpt>
      <trkpt lat="4.652937" lon="-75.041542">
        <ele>1577.8481</ele>
        <time>2021-11-14T12:32:25Z</time>
      </trkpt>
      <trkpt lat="4.652863" lon="-75.041656">
        <ele>1578.7349</ele>
        <time>2021-11-14T12:32:26Z</time>
      </trkpt>
      <trkpt lat="4.652769" lon="-75.041748">
        <ele>1579.862</ele>
        <time>2021-11-14T12:32:27Z</time>
      </trkpt>
      <trkpt lat="4.652685" lon="-75.04187">
        <ele>1580.2476</ele>
        <time>2021-11-14T12:32:28Z</time>
      </trkpt>
      <trkpt lat="4.652636" lon="-75.041977">
        <ele>1581.1621</ele>
        <time>2021-11-14T12:32:29Z</time>
      </trkpt>
      <trkpt lat="4.652601" lon="-75.042053">
        <ele>1581.6914</ele>
        <time>2021-11-14T12:32:30Z</time>
      </trkpt>
      <trkpt lat="4.652551" lon="-75.042168">
        <ele>1582.1274</ele>
        <time>2021-11-14T12:32:31Z</time>
      </trkpt>
      <trkpt lat="4.65251" lon="-75.042282">
        <ele>1582.4536</ele>
        <time>2021-11-14T12:32:32Z</time>
      </trkpt>
      <trkpt lat="4.65248" lon="-75.042427">
        <ele>1583.2378</ele>
        <time>2021-11-14T12:32:33Z</time>
      </trkpt>
      <trkpt lat="4.652439" lon="-75.042534">
        <ele>1584.6143</ele>
        <time>2021-11-14T12:32:34Z</time>
      </trkpt>
      <trkpt lat="4.652366" lon="-75.042656">
        <ele>1585.6514</ele>
        <time>2021-11-14T12:32:36Z</time>
      </trkpt>
      <trkpt lat="4.65229" lon="-75.042793">
        <ele>1586.1978</ele>
        <time>2021-11-14T12:32:37Z</time>
      </trkpt>
      <trkpt lat="4.652222" lon="-75.042908">
        <ele>1586.707</ele>
        <time>2021-11-14T12:32:38Z</time>
      </trkpt>
      <trkpt lat="4.65214" lon="-75.043053">
        <ele>1587.189</ele>
        <time>2021-11-14T12:32:39Z</time>
      </trkpt>
      <trkpt lat="4.652064" lon="-75.043182">
        <ele>1588.2251</ele>
        <time>2021-11-14T12:32:40Z</time>
      </trkpt>
      <trkpt lat="4.651992" lon="-75.043304">
        <ele>1588.4229</ele>
        <time>2021-11-14T12:32:41Z</time>
      </trkpt>
      <trkpt lat="4.651924" lon="-75.043442">
        <ele>1589.3853</ele>
        <time>2021-11-14T12:32:42Z</time>
      </trkpt>
      <trkpt lat="4.651873" lon="-75.043617">
        <ele>1590.3525</ele>
        <time>2021-11-14T12:32:43Z</time>
      </trkpt>
      <trkpt lat="4.651826" lon="-75.043777">
        <ele>1591.7175</ele>
        <time>2021-11-14T12:32:44Z</time>
      </trkpt>
      <trkpt lat="4.651796" lon="-75.043877">
        <ele>1591.7783</ele>
        <time>2021-11-14T12:32:45Z</time>
      </trkpt>
      <trkpt lat="4.651754" lon="-75.044022">
        <ele>1592.7358</ele>
        <time>2021-11-14T12:32:46Z</time>
      </trkpt>
      <trkpt lat="4.651709" lon="-75.04409">
        <ele>1593.8086</ele>
        <time>2021-11-14T12:32:47Z</time>
      </trkpt>
      <trkpt lat="4.651636" lon="-75.044144">
        <ele>1594.3813</ele>
        <time>2021-11-14T12:32:48Z</time>
      </trkpt>
      <trkpt lat="4.651547" lon="-75.044212">
        <ele>1594.2839</ele>
        <time>2021-11-14T12:32:49Z</time>
      </trkpt>
      <trkpt lat="4.651453" lon="-75.044273">
        <ele>1595.7507</ele>
        <time>2021-11-14T12:32:50Z</time>
      </trkpt>
      <trkpt lat="4.651345" lon="-75.044327">
        <ele>1596.7776</ele>
        <time>2021-11-14T12:32:51Z</time>
      </trkpt>
      <trkpt lat="4.651237" lon="-75.044365">
        <ele>1596.3032</ele>
        <time>2021-11-14T12:32:52Z</time>
      </trkpt>
      <trkpt lat="4.651163" lon="-75.044395">
        <ele>1596.6641</ele>
        <time>2021-11-14T12:32:53Z</time>
      </trkpt>
      <trkpt lat="4.651105" lon="-75.044449">
        <ele>1596.7505</ele>
        <time>2021-11-14T12:32:54Z</time>
      </trkpt>
      <trkpt lat="4.650995" lon="-75.044556">
        <ele>1596.6055</ele>
        <time>2021-11-14T12:32:55Z</time>
      </trkpt>
      <trkpt lat="4.650902" lon="-75.04464">
        <ele>1596.6445</ele>
        <time>2021-11-14T12:32:56Z</time>
      </trkpt>
      <trkpt lat="4.650814" lon="-75.044693">
        <ele>1596.5283</ele>
        <time>2021-11-14T12:32:57Z</time>
      </trkpt>
      <trkpt lat="4.650709" lon="-75.044754">
        <ele>1595.5166</ele>
        <time>2021-11-14T12:32:58Z</time>
      </trkpt>
      <trkpt lat="4.650574" lon="-75.044838">
        <ele>1594.2905</ele>
        <time>2021-11-14T12:32:59Z</time>
      </trkpt>
      <trkpt lat="4.650452" lon="-75.044914">
        <ele>1594.156</ele>
        <time>2021-11-14T12:33:00Z</time>
      </trkpt>
      <trkpt lat="4.650312" lon="-75.044998">
        <ele>1593.061</ele>
        <time>2021-11-14T12:33:01Z</time>
      </trkpt>
      <trkpt lat="4.650312" lon="-75.044998">
        <ele>1592.2002</ele>
        <time>2021-11-14T12:33:02Z</time>
      </trkpt>
      <trkpt lat="4.650207" lon="-75.045074">
        <ele>1591.6025</ele>
        <time>2021-11-14T12:33:03Z</time>
      </trkpt>
      <trkpt lat="4.650104" lon="-75.045158">
        <ele>1591.074</ele>
        <time>2021-11-14T12:33:04Z</time>
      </trkpt>
      <trkpt lat="4.649992" lon="-75.04525">
        <ele>1590.1028</ele>
        <time>2021-11-14T12:33:05Z</time>
      </trkpt>
      <trkpt lat="4.649916" lon="-75.045296">
        <ele>1589.2339</ele>
        <time>2021-11-14T12:33:06Z</time>
      </trkpt>
      <trkpt lat="4.649837" lon="-75.045303">
        <ele>1588.8716</ele>
        <time>2021-11-14T12:33:07Z</time>
      </trkpt>
      <trkpt lat="4.649739" lon="-75.045303">
        <ele>1587.97</ele>
        <time>2021-11-14T12:33:08Z</time>
      </trkpt>
      <trkpt lat="4.649624" lon="-75.04528">
        <ele>1586.7383</ele>
        <time>2021-11-14T12:33:09Z</time>
      </trkpt>
      <trkpt lat="4.649493" lon="-75.045242">
        <ele>1585.8743</ele>
        <time>2021-11-14T12:33:10Z</time>
      </trkpt>
      <trkpt lat="4.649403" lon="-75.045235">
        <ele>1585.519</ele>
        <time>2021-11-14T12:33:11Z</time>
      </trkpt>
      <trkpt lat="4.649295" lon="-75.04525">
        <ele>1584.56</ele>
        <time>2021-11-14T12:33:12Z</time>
      </trkpt>
      <trkpt lat="4.649218" lon="-75.045288">
        <ele>1583.4763</ele>
        <time>2021-11-14T12:33:13Z</time>
      </trkpt>
      <trkpt lat="4.649147" lon="-75.045349">
        <ele>1582.5474</ele>
        <time>2021-11-14T12:33:14Z</time>
      </trkpt>
      <trkpt lat="4.649076" lon="-75.045578">
        <ele>1580.0952</ele>
        <time>2021-11-14T12:33:15Z</time>
      </trkpt>
      <trkpt lat="4.64908" lon="-75.045715">
        <ele>1578.9858</ele>
        <time>2021-11-14T12:33:16Z</time>
      </trkpt>
      <trkpt lat="4.649104" lon="-75.045815">
        <ele>1578.367</ele>
        <time>2021-11-14T12:33:17Z</time>
      </trkpt>
      <trkpt lat="4.649151" lon="-75.045883">
        <ele>1577.6455</ele>
        <time>2021-11-14T12:33:18Z</time>
      </trkpt>
      <trkpt lat="4.649222" lon="-75.045975">
        <ele>1576.8682</ele>
        <time>2021-11-14T12:33:19Z</time>
      </trkpt>
      <trkpt lat="4.649286" lon="-75.046051">
        <ele>1576.3042</ele>
        <time>2021-11-14T12:33:20Z</time>
      </trkpt>
      <trkpt lat="4.649349" lon="-75.046127">
        <ele>1575.8208</ele>
        <time>2021-11-14T12:33:21Z</time>
      </trkpt>
      <trkpt lat="4.649427" lon="-75.046219">
        <ele>1575.081</ele>
        <time>2021-11-14T12:33:22Z</time>
      </trkpt>
      <trkpt lat="4.649492" lon="-75.046303">
        <ele>1574.169</ele>
        <time>2021-11-14T12:33:23Z</time>
      </trkpt>
      <trkpt lat="4.649547" lon="-75.046371">
        <ele>1573.1982</ele>
        <time>2021-11-14T12:33:24Z</time>
      </trkpt>
      <trkpt lat="4.64958" lon="-75.046463">
        <ele>1572.7593</ele>
        <time>2021-11-14T12:33:25Z</time>
      </trkpt>
      <trkpt lat="4.649582" lon="-75.046555">
        <ele>1571.4111</ele>
        <time>2021-11-14T12:33:26Z</time>
      </trkpt>
      <trkpt lat="4.649544" lon="-75.046616">
        <ele>1569.8833</ele>
        <time>2021-11-14T12:33:27Z</time>
      </trkpt>
      <trkpt lat="4.649486" lon="-75.046707">
        <ele>1570.1465</ele>
        <time>2021-11-14T12:33:28Z</time>
      </trkpt>
      <trkpt lat="4.649415" lon="-75.046814">
        <ele>1570.3696</ele>
        <time>2021-11-14T12:33:29Z</time>
      </trkpt>
      <trkpt lat="4.649372" lon="-75.046883">
        <ele>1569.6729</ele>
        <time>2021-11-14T12:33:30Z</time>
      </trkpt>
      <trkpt lat="4.649372" lon="-75.046883">
        <ele>1569.4238</ele>
        <time>2021-11-14T12:33:31Z</time>
      </trkpt>
      <trkpt lat="4.649288" lon="-75.046936">
        <ele>1569.6829</ele>
        <time>2021-11-14T12:33:32Z</time>
      </trkpt>
      <trkpt lat="4.649227" lon="-75.046967">
        <ele>1569.3855</ele>
        <time>2021-11-14T12:33:33Z</time>
      </trkpt>
      <trkpt lat="4.64912" lon="-75.04705">
        <ele>1569.2935</ele>
        <time>2021-11-14T12:33:34Z</time>
      </trkpt>
      <trkpt lat="4.649076" lon="-75.047119">
        <ele>1570.0269</ele>
        <time>2021-11-14T12:33:35Z</time>
      </trkpt>
      <trkpt lat="4.649053" lon="-75.047203">
        <ele>1569.4419</ele>
        <time>2021-11-14T12:33:37Z</time>
      </trkpt>
      <trkpt lat="4.649042" lon="-75.047333">
        <ele>1570.8364</ele>
        <time>2021-11-14T12:33:38Z</time>
      </trkpt>
      <trkpt lat="4.649035" lon="-75.047417">
        <ele>1572.0583</ele>
        <time>2021-11-14T12:33:39Z</time>
      </trkpt>
      <trkpt lat="4.649034" lon="-75.047424">
        <ele>1572.0273</ele>
        <time>2021-11-14T12:33:40Z</time>
      </trkpt>
      <trkpt lat="4.649029" lon="-75.047493">
        <ele>1572.1064</ele>
        <time>2021-11-14T12:33:41Z</time>
      </trkpt>
      <trkpt lat="4.649021" lon="-75.047585">
        <ele>1572.7109</ele>
        <time>2021-11-14T12:33:42Z</time>
      </trkpt>
      <trkpt lat="4.648977" lon="-75.047699">
        <ele>1573.6841</ele>
        <time>2021-11-14T12:33:43Z</time>
      </trkpt>
      <trkpt lat="4.648926" lon="-75.047806">
        <ele>1574.2188</ele>
        <time>2021-11-14T12:33:44Z</time>
      </trkpt>
      <trkpt lat="4.648889" lon="-75.04789">
        <ele>1574.4656</ele>
        <time>2021-11-14T12:33:45Z</time>
      </trkpt>
      <trkpt lat="4.648876" lon="-75.047913">
        <ele>1574.959</ele>
        <time>2021-11-14T12:33:46Z</time>
      </trkpt>
      <trkpt lat="4.648861" lon="-75.047951">
        <ele>1575.3857</ele>
        <time>2021-11-14T12:33:47Z</time>
      </trkpt>
      <trkpt lat="4.648833" lon="-75.048012">
        <ele>1575.5972</ele>
        <time>2021-11-14T12:33:48Z</time>
      </trkpt>
      <trkpt lat="4.648805" lon="-75.048073">
        <ele>1576.3296</ele>
        <time>2021-11-14T12:33:49Z</time>
      </trkpt>
      <trkpt lat="4.648772" lon="-75.048141">
        <ele>1576.9863</ele>
        <time>2021-11-14T12:33:50Z</time>
      </trkpt>
      <trkpt lat="4.648744" lon="-75.048225">
        <ele>1577.3613</ele>
        <time>2021-11-14T12:33:51Z</time>
      </trkpt>
      <trkpt lat="4.64872" lon="-75.048317">
        <ele>1577.6018</ele>
        <time>2021-11-14T12:33:52Z</time>
      </trkpt>
      <trkpt lat="4.648702" lon="-75.048424">
        <ele>1578.438</ele>
        <time>2021-11-14T12:33:53Z</time>
      </trkpt>
      <trkpt lat="4.648717" lon="-75.048553">
        <ele>1578.9421</ele>
        <time>2021-11-14T12:33:54Z</time>
      </trkpt>
      <trkpt lat="4.648736" lon="-75.048714">
        <ele>1579.8074</ele>
        <time>2021-11-14T12:33:55Z</time>
      </trkpt>
      <trkpt lat="4.648763" lon="-75.048874">
        <ele>1580.0769</ele>
        <time>2021-11-14T12:33:56Z</time>
      </trkpt>
      <trkpt lat="4.648816" lon="-75.049019">
        <ele>1580.8003</ele>
        <time>2021-11-14T12:33:57Z</time>
      </trkpt>
      <trkpt lat="4.648855" lon="-75.049141">
        <ele>1582.1028</ele>
        <time>2021-11-14T12:33:58Z</time>
      </trkpt>
      <trkpt lat="4.648866" lon="-75.049271">
        <ele>1582.6411</ele>
        <time>2021-11-14T12:33:59Z</time>
      </trkpt>
      <trkpt lat="4.648858" lon="-75.04937">
        <ele>1582.0073</ele>
        <time>2021-11-14T12:34:00Z</time>
      </trkpt>
      <trkpt lat="4.648846" lon="-75.049438">
        <ele>1581.5269</ele>
        <time>2021-11-14T12:34:01Z</time>
      </trkpt>
      <trkpt lat="4.648804" lon="-75.049545">
        <ele>1580.7878</ele>
        <time>2021-11-14T12:34:02Z</time>
      </trkpt>
      <trkpt lat="4.64869" lon="-75.049652">
        <ele>1579.3691</ele>
        <time>2021-11-14T12:34:03Z</time>
      </trkpt>
      <trkpt lat="4.648567" lon="-75.049706">
        <ele>1578.5928</ele>
        <time>2021-11-14T12:34:04Z</time>
      </trkpt>
      <trkpt lat="4.648489" lon="-75.049744">
        <ele>1578.4409</ele>
        <time>2021-11-14T12:34:05Z</time>
      </trkpt>
      <trkpt lat="4.648352" lon="-75.04982">
        <ele>1577.9978</ele>
        <time>2021-11-14T12:34:06Z</time>
      </trkpt>
      <trkpt lat="4.648264" lon="-75.049866">
        <ele>1576.3511</ele>
        <time>2021-11-14T12:34:07Z</time>
      </trkpt>
      <trkpt lat="4.648185" lon="-75.049942">
        <ele>1575.185</ele>
        <time>2021-11-14T12:34:08Z</time>
      </trkpt>
      <trkpt lat="4.648016" lon="-75.050102">
        <ele>1573.9451</ele>
        <time>2021-11-14T12:34:09Z</time>
      </trkpt>
      <trkpt lat="4.647907" lon="-75.050209">
        <ele>1573.126</ele>
        <time>2021-11-14T12:34:10Z</time>
      </trkpt>
      <trkpt lat="4.647791" lon="-75.050323">
        <ele>1572.2297</ele>
        <time>2021-11-14T12:34:11Z</time>
      </trkpt>
      <trkpt lat="4.647695" lon="-75.050415">
        <ele>1570.6208</ele>
        <time>2021-11-14T12:34:12Z</time>
      </trkpt>
      <trkpt lat="4.647622" lon="-75.050484">
        <ele>1570.3838</ele>
        <time>2021-11-14T12:34:13Z</time>
      </trkpt>
      <trkpt lat="4.647586" lon="-75.050514">
        <ele>1569.1777</ele>
        <time>2021-11-14T12:34:14Z</time>
      </trkpt>
      <trkpt lat="4.647551" lon="-75.050545">
        <ele>1569.8467</ele>
        <time>2021-11-14T12:34:15Z</time>
      </trkpt>
      <trkpt lat="4.647523" lon="-75.050568">
        <ele>1569.5215</ele>
        <time>2021-11-14T12:34:16Z</time>
      </trkpt>
      <trkpt lat="4.647483" lon="-75.050606">
        <ele>1569.311</ele>
        <time>2021-11-14T12:34:17Z</time>
      </trkpt>
      <trkpt lat="4.64739" lon="-75.050682">
        <ele>1568.9341</ele>
        <time>2021-11-14T12:34:18Z</time>
      </trkpt>
      <trkpt lat="4.647301" lon="-75.050781">
        <ele>1568.4849</ele>
        <time>2021-11-14T12:34:19Z</time>
      </trkpt>
      <trkpt lat="4.647248" lon="-75.050858">
        <ele>1568.3389</ele>
        <time>2021-11-14T12:34:20Z</time>
      </trkpt>
      <trkpt lat="4.647209" lon="-75.050957">
        <ele>1568.0967</ele>
        <time>2021-11-14T12:34:21Z</time>
      </trkpt>
      <trkpt lat="4.647182" lon="-75.05101">
        <ele>1568.292</ele>
        <time>2021-11-14T12:34:22Z</time>
      </trkpt>
      <trkpt lat="4.647157" lon="-75.051056">
        <ele>1568.1758</ele>
        <time>2021-11-14T12:34:23Z</time>
      </trkpt>
      <trkpt lat="4.647157" lon="-75.051056">
        <ele>1568.2876</ele>
        <time>2021-11-14T12:34:25Z</time>
      </trkpt>
      <trkpt lat="4.647144" lon="-75.051178">
        <ele>1567.2354</ele>
        <time>2021-11-14T12:34:26Z</time>
      </trkpt>
      <trkpt lat="4.647156" lon="-75.051262">
        <ele>1567.2219</ele>
        <time>2021-11-14T12:34:27Z</time>
      </trkpt>
      <trkpt lat="4.647195" lon="-75.051369">
        <ele>1567.4819</ele>
        <time>2021-11-14T12:34:28Z</time>
      </trkpt>
      <trkpt lat="4.647212" lon="-75.051414">
        <ele>1568.8811</ele>
        <time>2021-11-14T12:34:29Z</time>
      </trkpt>
      <trkpt lat="4.647242" lon="-75.051483">
        <ele>1569.1772</ele>
        <time>2021-11-14T12:34:30Z</time>
      </trkpt>
      <trkpt lat="4.647304" lon="-75.051605">
        <ele>1568.8706</ele>
        <time>2021-11-14T12:34:31Z</time>
      </trkpt>
      <trkpt lat="4.647374" lon="-75.051712">
        <ele>1568.8169</ele>
        <time>2021-11-14T12:34:32Z</time>
      </trkpt>
      <trkpt lat="4.647449" lon="-75.051819">
        <ele>1568.1179</ele>
        <time>2021-11-14T12:34:33Z</time>
      </trkpt>
      <trkpt lat="4.647488" lon="-75.051865">
        <ele>1567.9932</ele>
        <time>2021-11-14T12:34:34Z</time>
      </trkpt>
      <trkpt lat="4.647542" lon="-75.051926">
        <ele>1568.0151</ele>
        <time>2021-11-14T12:34:35Z</time>
      </trkpt>
      <trkpt lat="4.647617" lon="-75.05201">
        <ele>1567.8455</ele>
        <time>2021-11-14T12:34:36Z</time>
      </trkpt>
      <trkpt lat="4.647702" lon="-75.052109">
        <ele>1566.5854</ele>
        <time>2021-11-14T12:34:37Z</time>
      </trkpt>
      <trkpt lat="4.64775" lon="-75.05217">
        <ele>1566.2583</ele>
        <time>2021-11-14T12:34:38Z</time>
      </trkpt>
      <trkpt lat="4.647789" lon="-75.052246">
        <ele>1567.0952</ele>
        <time>2021-11-14T12:34:39Z</time>
      </trkpt>
      <trkpt lat="4.647817" lon="-75.052368">
        <ele>1566.0527</ele>
        <time>2021-11-14T12:34:40Z</time>
      </trkpt>
      <trkpt lat="4.6478" lon="-75.052513">
        <ele>1565.6187</ele>
        <time>2021-11-14T12:34:41Z</time>
      </trkpt>
      <trkpt lat="4.647773" lon="-75.05262">
        <ele>1563.815</ele>
        <time>2021-11-14T12:34:42Z</time>
      </trkpt>
      <trkpt lat="4.647748" lon="-75.052734">
        <ele>1563.2935</ele>
        <time>2021-11-14T12:34:43Z</time>
      </trkpt>
      <trkpt lat="4.647717" lon="-75.052933">
        <ele>1563.3962</ele>
        <time>2021-11-14T12:34:44Z</time>
      </trkpt>
      <trkpt lat="4.647726" lon="-75.053047">
        <ele>1563.3354</ele>
        <time>2021-11-14T12:34:45Z</time>
      </trkpt>
      <trkpt lat="4.647748" lon="-75.053139">
        <ele>1563.8916</ele>
        <time>2021-11-14T12:34:46Z</time>
      </trkpt>
      <trkpt lat="4.647773" lon="-75.05323">
        <ele>1563.9387</ele>
        <time>2021-11-14T12:34:47Z</time>
      </trkpt>
      <trkpt lat="4.647799" lon="-75.053307">
        <ele>1564.237</ele>
        <time>2021-11-14T12:34:48Z</time>
      </trkpt>
      <trkpt lat="4.647832" lon="-75.053398">
        <ele>1564.8281</ele>
        <time>2021-11-14T12:34:49Z</time>
      </trkpt>
      <trkpt lat="4.647889" lon="-75.053505">
        <ele>1565.2812</ele>
        <time>2021-11-14T12:34:50Z</time>
      </trkpt>
      <trkpt lat="4.647958" lon="-75.053612">
        <ele>1564.6641</ele>
        <time>2021-11-14T12:34:51Z</time>
      </trkpt>
      <trkpt lat="4.647958" lon="-75.053612">
        <ele>1564.3193</ele>
        <time>2021-11-14T12:34:52Z</time>
      </trkpt>
      <trkpt lat="4.648022" lon="-75.053703">
        <ele>1564.6943</ele>
        <time>2021-11-14T12:34:53Z</time>
      </trkpt>
      <trkpt lat="4.648089" lon="-75.053772">
        <ele>1564.5537</ele>
        <time>2021-11-14T12:34:54Z</time>
      </trkpt>
      <trkpt lat="4.648145" lon="-75.053833">
        <ele>1564.4775</ele>
        <time>2021-11-14T12:34:55Z</time>
      </trkpt>
      <trkpt lat="4.648228" lon="-75.053909">
        <ele>1564.8252</ele>
        <time>2021-11-14T12:34:56Z</time>
      </trkpt>
      <trkpt lat="4.6483" lon="-75.053978">
        <ele>1565.0161</ele>
        <time>2021-11-14T12:34:57Z</time>
      </trkpt>
      <trkpt lat="4.648392" lon="-75.054077">
        <ele>1564.8501</ele>
        <time>2021-11-14T12:34:58Z</time>
      </trkpt>
      <trkpt lat="4.64845" lon="-75.054153">
        <ele>1565.4297</ele>
        <time>2021-11-14T12:34:59Z</time>
      </trkpt>
      <trkpt lat="4.648499" lon="-75.054245">
        <ele>1565.7588</ele>
        <time>2021-11-14T12:35:00Z</time>
      </trkpt>
      <trkpt lat="4.648505" lon="-75.054352">
        <ele>1566.229</ele>
        <time>2021-11-14T12:35:01Z</time>
      </trkpt>
      <trkpt lat="4.648477" lon="-75.054436">
        <ele>1566.4565</ele>
        <time>2021-11-14T12:35:02Z</time>
      </trkpt>
      <trkpt lat="4.648425" lon="-75.054535">
        <ele>1566.1018</ele>
        <time>2021-11-14T12:35:03Z</time>
      </trkpt>
      <trkpt lat="4.648372" lon="-75.054626">
        <ele>1566.1821</ele>
        <time>2021-11-14T12:35:04Z</time>
      </trkpt>
      <trkpt lat="4.648307" lon="-75.054703">
        <ele>1567.3428</ele>
        <time>2021-11-14T12:35:05Z</time>
      </trkpt>
      <trkpt lat="4.648228" lon="-75.054756">
        <ele>1566.2004</ele>
        <time>2021-11-14T12:35:06Z</time>
      </trkpt>
      <trkpt lat="4.648131" lon="-75.054832">
        <ele>1566.1719</ele>
        <time>2021-11-14T12:35:07Z</time>
      </trkpt>
      <trkpt lat="4.648068" lon="-75.054893">
        <ele>1565.9756</ele>
        <time>2021-11-14T12:35:08Z</time>
      </trkpt>
      <trkpt lat="4.648011" lon="-75.054962">
        <ele>1565.927</ele>
        <time>2021-11-14T12:35:09Z</time>
      </trkpt>
      <trkpt lat="4.647972" lon="-75.055023">
        <ele>1566.873</ele>
        <time>2021-11-14T12:35:10Z</time>
      </trkpt>
      <trkpt lat="4.647954" lon="-75.055077">
        <ele>1566.9473</ele>
        <time>2021-11-14T12:35:11Z</time>
      </trkpt>
      <trkpt lat="4.647939" lon="-75.055107">
        <ele>1566.6816</ele>
        <time>2021-11-14T12:35:12Z</time>
      </trkpt>
      <trkpt lat="4.647924" lon="-75.055145">
        <ele>1566.5161</ele>
        <time>2021-11-14T12:35:13Z</time>
      </trkpt>
      <trkpt lat="4.647894" lon="-75.055222">
        <ele>1567.7295</ele>
        <time>2021-11-14T12:35:14Z</time>
      </trkpt>
      <trkpt lat="4.647847" lon="-75.055344">
        <ele>1568.4529</ele>
        <time>2021-11-14T12:35:15Z</time>
      </trkpt>
      <trkpt lat="4.647801" lon="-75.055458">
        <ele>1569.7285</ele>
        <time>2021-11-14T12:35:16Z</time>
      </trkpt>
      <trkpt lat="4.647749" lon="-75.055565">
        <ele>1570.6411</ele>
        <time>2021-11-14T12:35:18Z</time>
      </trkpt>
      <trkpt lat="4.647704" lon="-75.055649">
        <ele>1572.1187</ele>
        <time>2021-11-14T12:35:19Z</time>
      </trkpt>
      <trkpt lat="4.647641" lon="-75.055733">
        <ele>1573.292</ele>
        <time>2021-11-14T12:35:20Z</time>
      </trkpt>
      <trkpt lat="4.647565" lon="-75.055817">
        <ele>1574.3423</ele>
        <time>2021-11-14T12:35:21Z</time>
      </trkpt>
      <trkpt lat="4.647478" lon="-75.055901">
        <ele>1575.7507</ele>
        <time>2021-11-14T12:35:22Z</time>
      </trkpt>
      <trkpt lat="4.647425" lon="-75.055962">
        <ele>1576.2773</ele>
        <time>2021-11-14T12:35:23Z</time>
      </trkpt>
      <trkpt lat="4.647292" lon="-75.056068">
        <ele>1576.4126</ele>
        <time>2021-11-14T12:35:24Z</time>
      </trkpt>
      <trkpt lat="4.64722" lon="-75.056137">
        <ele>1576.5884</ele>
        <time>2021-11-14T12:35:25Z</time>
      </trkpt>
      <trkpt lat="4.64717" lon="-75.056236">
        <ele>1576.4409</ele>
        <time>2021-11-14T12:35:26Z</time>
      </trkpt>
      <trkpt lat="4.64717" lon="-75.056236">
        <ele>1576.1384</ele>
        <time>2021-11-14T12:35:27Z</time>
      </trkpt>
      <trkpt lat="4.647159" lon="-75.056313">
        <ele>1576.2322</ele>
        <time>2021-11-14T12:35:28Z</time>
      </trkpt>
      <trkpt lat="4.647156" lon="-75.056412">
        <ele>1575.508</ele>
        <time>2021-11-14T12:35:29Z</time>
      </trkpt>
      <trkpt lat="4.64716" lon="-75.056549">
        <ele>1576.2708</ele>
        <time>2021-11-14T12:35:30Z</time>
      </trkpt>
      <trkpt lat="4.647165" lon="-75.056648">
        <ele>1575.1357</ele>
        <time>2021-11-14T12:35:31Z</time>
      </trkpt>
      <trkpt lat="4.647174" lon="-75.056801">
        <ele>1575.0801</ele>
        <time>2021-11-14T12:35:32Z</time>
      </trkpt>
      <trkpt lat="4.64718" lon="-75.056892">
        <ele>1575.0581</ele>
        <time>2021-11-14T12:35:33Z</time>
      </trkpt>
      <trkpt lat="4.647186" lon="-75.05703">
        <ele>1574.7505</ele>
        <time>2021-11-14T12:35:34Z</time>
      </trkpt>
      <trkpt lat="4.647182" lon="-75.057152">
        <ele>1573.1113</ele>
        <time>2021-11-14T12:35:35Z</time>
      </trkpt>
      <trkpt lat="4.64716" lon="-75.057228">
        <ele>1572.0664</ele>
        <time>2021-11-14T12:35:36Z</time>
      </trkpt>
      <trkpt lat="4.647104" lon="-75.057381">
        <ele>1570.8105</ele>
        <time>2021-11-14T12:35:37Z</time>
      </trkpt>
      <trkpt lat="4.647063" lon="-75.05751">
        <ele>1570.6782</ele>
        <time>2021-11-14T12:35:38Z</time>
      </trkpt>
      <trkpt lat="4.647053" lon="-75.057632">
        <ele>1569.0908</ele>
        <time>2021-11-14T12:35:39Z</time>
      </trkpt>
      <trkpt lat="4.647053" lon="-75.057739">
        <ele>1568.1592</ele>
        <time>2021-11-14T12:35:40Z</time>
      </trkpt>
      <trkpt lat="4.647078" lon="-75.057823">
        <ele>1568.085</ele>
        <time>2021-11-14T12:35:41Z</time>
      </trkpt>
      <trkpt lat="4.647141" lon="-75.057915">
        <ele>1567.1816</ele>
        <time>2021-11-14T12:35:42Z</time>
      </trkpt>
      <trkpt lat="4.647229" lon="-75.057991">
        <ele>1565.9531</ele>
        <time>2021-11-14T12:35:43Z</time>
      </trkpt>
      <trkpt lat="4.647355" lon="-75.058067">
        <ele>1565.0376</ele>
        <time>2021-11-14T12:35:44Z</time>
      </trkpt>
      <trkpt lat="4.647482" lon="-75.058098">
        <ele>1563.062</ele>
        <time>2021-11-14T12:35:45Z</time>
      </trkpt>
      <trkpt lat="4.647602" lon="-75.058113">
        <ele>1561.6118</ele>
        <time>2021-11-14T12:35:46Z</time>
      </trkpt>
      <trkpt lat="4.647721" lon="-75.058128">
        <ele>1559.8037</ele>
        <time>2021-11-14T12:35:47Z</time>
      </trkpt>
      <trkpt lat="4.647821" lon="-75.058167">
        <ele>1558.2786</ele>
        <time>2021-11-14T12:35:48Z</time>
      </trkpt>
      <trkpt lat="4.647888" lon="-75.058205">
        <ele>1557.8125</ele>
        <time>2021-11-14T12:35:49Z</time>
      </trkpt>
      <trkpt lat="4.647935" lon="-75.058266">
        <ele>1556.5132</ele>
        <time>2021-11-14T12:35:50Z</time>
      </trkpt>
      <trkpt lat="4.647977" lon="-75.058372">
        <ele>1556.2451</ele>
        <time>2021-11-14T12:35:51Z</time>
      </trkpt>
      <trkpt lat="4.647995" lon="-75.058456">
        <ele>1555.6016</ele>
        <time>2021-11-14T12:35:52Z</time>
      </trkpt>
      <trkpt lat="4.648038" lon="-75.058662">
        <ele>1554.665</ele>
        <time>2021-11-14T12:35:53Z</time>
      </trkpt>
      <trkpt lat="4.648075" lon="-75.058807">
        <ele>1553.9844</ele>
        <time>2021-11-14T12:35:54Z</time>
      </trkpt>
      <trkpt lat="4.648106" lon="-75.058922">
        <ele>1553.26</ele>
        <time>2021-11-14T12:35:55Z</time>
      </trkpt>
      <trkpt lat="4.648106" lon="-75.058922">
        <ele>1551.8413</ele>
        <time>2021-11-14T12:35:56Z</time>
      </trkpt>
      <trkpt lat="4.648188" lon="-75.059204">
        <ele>1550.0654</ele>
        <time>2021-11-14T12:35:57Z</time>
      </trkpt>
      <trkpt lat="4.648245" lon="-75.059341">
        <ele>1550.0107</ele>
        <time>2021-11-14T12:35:58Z</time>
      </trkpt>
      <trkpt lat="4.648298" lon="-75.059464">
        <ele>1548.3435</ele>
        <time>2021-11-14T12:35:59Z</time>
      </trkpt>
      <trkpt lat="4.64835" lon="-75.059563">
        <ele>1547.1876</ele>
        <time>2021-11-14T12:36:00Z</time>
      </trkpt>
      <trkpt lat="4.648436" lon="-75.059662">
        <ele>1546.4756</ele>
        <time>2021-11-14T12:36:01Z</time>
      </trkpt>
      <trkpt lat="4.648534" lon="-75.059746">
        <ele>1546.509</ele>
        <time>2021-11-14T12:36:02Z</time>
      </trkpt>
      <trkpt lat="4.648639" lon="-75.05983">
        <ele>1546.0286</ele>
        <time>2021-11-14T12:36:03Z</time>
      </trkpt>
      <trkpt lat="4.648777" lon="-75.059921">
        <ele>1545.7749</ele>
        <time>2021-11-14T12:36:04Z</time>
      </trkpt>
      <trkpt lat="4.648882" lon="-75.05999">
        <ele>1544.7557</ele>
        <time>2021-11-14T12:36:05Z</time>
      </trkpt>
      <trkpt lat="4.648953" lon="-75.060036">
        <ele>1543.8113</ele>
        <time>2021-11-14T12:36:06Z</time>
      </trkpt>
      <trkpt lat="4.649042" lon="-75.060097">
        <ele>1543.5931</ele>
        <time>2021-11-14T12:36:07Z</time>
      </trkpt>
      <trkpt lat="4.649117" lon="-75.06015">
        <ele>1543.2644</ele>
        <time>2021-11-14T12:36:08Z</time>
      </trkpt>
      <trkpt lat="4.649184" lon="-75.060204">
        <ele>1543.0581</ele>
        <time>2021-11-14T12:36:09Z</time>
      </trkpt>
      <trkpt lat="4.649239" lon="-75.060265">
        <ele>1542.7815</ele>
        <time>2021-11-14T12:36:10Z</time>
      </trkpt>
      <trkpt lat="4.649318" lon="-75.060402">
        <ele>1543.2916</ele>
        <time>2021-11-14T12:36:11Z</time>
      </trkpt>
      <trkpt lat="4.649358" lon="-75.060555">
        <ele>1543.1234</ele>
        <time>2021-11-14T12:36:12Z</time>
      </trkpt>
      <trkpt lat="4.649392" lon="-75.060715">
        <ele>1543.3606</ele>
        <time>2021-11-14T12:36:13Z</time>
      </trkpt>
      <trkpt lat="4.649444" lon="-75.060875">
        <ele>1542.8947</ele>
        <time>2021-11-14T12:36:14Z</time>
      </trkpt>
      <trkpt lat="4.649485" lon="-75.060944">
        <ele>1542.1228</ele>
        <time>2021-11-14T12:36:15Z</time>
      </trkpt>
      <trkpt lat="4.649544" lon="-75.061012">
        <ele>1542.0752</ele>
        <time>2021-11-14T12:36:16Z</time>
      </trkpt>
      <trkpt lat="4.649611" lon="-75.061096">
        <ele>1542.5623</ele>
        <time>2021-11-14T12:36:17Z</time>
      </trkpt>
      <trkpt lat="4.649706" lon="-75.061203">
        <ele>1542.8096</ele>
        <time>2021-11-14T12:36:18Z</time>
      </trkpt>
      <trkpt lat="4.649793" lon="-75.061302">
        <ele>1543.0864</ele>
        <time>2021-11-14T12:36:19Z</time>
      </trkpt>
      <trkpt lat="4.649889" lon="-75.061386">
        <ele>1542.4951</ele>
        <time>2021-11-14T12:36:20Z</time>
      </trkpt>
      <trkpt lat="4.649981" lon="-75.061447">
        <ele>1542.4354</ele>
        <time>2021-11-14T12:36:21Z</time>
      </trkpt>
      <trkpt lat="4.650108" lon="-75.061516">
        <ele>1541.5098</ele>
        <time>2021-11-14T12:36:22Z</time>
      </trkpt>
      <trkpt lat="4.650222" lon="-75.061577">
        <ele>1541.7532</ele>
        <time>2021-11-14T12:36:24Z</time>
      </trkpt>
      <trkpt lat="4.650286" lon="-75.06163">
        <ele>1541.9493</ele>
        <time>2021-11-14T12:36:25Z</time>
      </trkpt>
      <trkpt lat="4.650344" lon="-75.061684">
        <ele>1542.0293</ele>
        <time>2021-11-14T12:36:26Z</time>
      </trkpt>
      <trkpt lat="4.650402" lon="-75.06179">
        <ele>1541.3468</ele>
        <time>2021-11-14T12:36:27Z</time>
      </trkpt>
      <trkpt lat="4.650455" lon="-75.061958">
        <ele>1541.3365</ele>
        <time>2021-11-14T12:36:28Z</time>
      </trkpt>
      <trkpt lat="4.650455" lon="-75.061958">
        <ele>1540.1189</ele>
        <time>2021-11-14T12:36:29Z</time>
      </trkpt>
      <trkpt lat="4.650464" lon="-75.06208">
        <ele>1540.1301</ele>
        <time>2021-11-14T12:36:30Z</time>
      </trkpt>
      <trkpt lat="4.650451" lon="-75.062164">
        <ele>1539.2235</ele>
        <time>2021-11-14T12:36:31Z</time>
      </trkpt>
      <trkpt lat="4.650431" lon="-75.062256">
        <ele>1539.4462</ele>
        <time>2021-11-14T12:36:32Z</time>
      </trkpt>
      <trkpt lat="4.650373" lon="-75.06237">
        <ele>1538.754</ele>
        <time>2021-11-14T12:36:33Z</time>
      </trkpt>
      <trkpt lat="4.650324" lon="-75.062477">
        <ele>1537.7833</ele>
        <time>2021-11-14T12:36:34Z</time>
      </trkpt>
      <trkpt lat="4.650278" lon="-75.062637">
        <ele>1538.307</ele>
        <time>2021-11-14T12:36:35Z</time>
      </trkpt>
      <trkpt lat="4.650253" lon="-75.062729">
        <ele>1538.7455</ele>
        <time>2021-11-14T12:36:36Z</time>
      </trkpt>
      <trkpt lat="4.650228" lon="-75.062836">
        <ele>1538.6705</ele>
        <time>2021-11-14T12:36:37Z</time>
      </trkpt>
      <trkpt lat="4.650214" lon="-75.062904">
        <ele>1539.1007</ele>
        <time>2021-11-14T12:36:38Z</time>
      </trkpt>
      <trkpt lat="4.6502" lon="-75.062981">
        <ele>1538.9568</ele>
        <time>2021-11-14T12:36:39Z</time>
      </trkpt>
      <trkpt lat="4.650211" lon="-75.063118">
        <ele>1539.7874</ele>
        <time>2021-11-14T12:36:40Z</time>
      </trkpt>
      <trkpt lat="4.65024" lon="-75.063255">
        <ele>1540.6504</ele>
        <time>2021-11-14T12:36:41Z</time>
      </trkpt>
      <trkpt lat="4.65029" lon="-75.06337">
        <ele>1541.6497</ele>
        <time>2021-11-14T12:36:42Z</time>
      </trkpt>
      <trkpt lat="4.650329" lon="-75.063492">
        <ele>1542.4703</ele>
        <time>2021-11-14T12:36:43Z</time>
      </trkpt>
      <trkpt lat="4.650363" lon="-75.063629">
        <ele>1543.7052</ele>
        <time>2021-11-14T12:36:44Z</time>
      </trkpt>
      <trkpt lat="4.650379" lon="-75.063782">
        <ele>1544.3606</ele>
        <time>2021-11-14T12:36:45Z</time>
      </trkpt>
      <trkpt lat="4.650383" lon="-75.063934">
        <ele>1545.0193</ele>
        <time>2021-11-14T12:36:46Z</time>
      </trkpt>
      <trkpt lat="4.650368" lon="-75.064102">
        <ele>1545.5597</ele>
        <time>2021-11-14T12:36:47Z</time>
      </trkpt>
      <trkpt lat="4.65035" lon="-75.064285">
        <ele>1546.0317</ele>
        <time>2021-11-14T12:36:48Z</time>
      </trkpt>
      <trkpt lat="4.650341" lon="-75.064468">
        <ele>1547.1136</ele>
        <time>2021-11-14T12:36:49Z</time>
      </trkpt>
      <trkpt lat="4.650334" lon="-75.064651">
        <ele>1548.7305</ele>
        <time>2021-11-14T12:36:50Z</time>
      </trkpt>
      <trkpt lat="4.650329" lon="-75.064796">
        <ele>1549.4995</ele>
        <time>2021-11-14T12:36:51Z</time>
      </trkpt>
      <trkpt lat="4.650324" lon="-75.064934">
        <ele>1550.8008</ele>
        <time>2021-11-14T12:36:52Z</time>
      </trkpt>
      <trkpt lat="4.65032" lon="-75.065033">
        <ele>1551.4902</ele>
        <time>2021-11-14T12:36:53Z</time>
      </trkpt>
      <trkpt lat="4.650356" lon="-75.065147">
        <ele>1552.144</ele>
        <time>2021-11-14T12:36:54Z</time>
      </trkpt>
      <trkpt lat="4.650402" lon="-75.065308">
        <ele>1552.6724</ele>
        <time>2021-11-14T12:36:55Z</time>
      </trkpt>
      <trkpt lat="4.650449" lon="-75.065498">
        <ele>1553.0547</ele>
        <time>2021-11-14T12:36:56Z</time>
      </trkpt>
      <trkpt lat="4.650449" lon="-75.065498">
        <ele>1553.6196</ele>
        <time>2021-11-14T12:36:57Z</time>
      </trkpt>
      <trkpt lat="4.650488" lon="-75.065651">
        <ele>1555.2808</ele>
        <time>2021-11-14T12:36:58Z</time>
      </trkpt>
      <trkpt lat="4.650516" lon="-75.065842">
        <ele>1556.8406</ele>
        <time>2021-11-14T12:36:59Z</time>
      </trkpt>
      <trkpt lat="4.65054" lon="-75.066032">
        <ele>1558.6223</ele>
        <time>2021-11-14T12:37:00Z</time>
      </trkpt>
      <trkpt lat="4.650577" lon="-75.066345">
        <ele>1561.28</ele>
        <time>2021-11-14T12:37:01Z</time>
      </trkpt>
      <trkpt lat="4.650623" lon="-75.066483">
        <ele>1562.2681</ele>
        <time>2021-11-14T12:37:02Z</time>
      </trkpt>
      <trkpt lat="4.650678" lon="-75.066589">
        <ele>1562.617</ele>
        <time>2021-11-14T12:37:03Z</time>
      </trkpt>
      <trkpt lat="4.650742" lon="-75.06665">
        <ele>1563.3433</ele>
        <time>2021-11-14T12:37:04Z</time>
      </trkpt>
      <trkpt lat="4.650791" lon="-75.066689">
        <ele>1563.6509</ele>
        <time>2021-11-14T12:37:05Z</time>
      </trkpt>
      <trkpt lat="4.650877" lon="-75.066734">
        <ele>1564.0264</ele>
        <time>2021-11-14T12:37:06Z</time>
      </trkpt>
      <trkpt lat="4.65095" lon="-75.066742">
        <ele>1564.554</ele>
        <time>2021-11-14T12:37:07Z</time>
      </trkpt>
      <trkpt lat="4.651066" lon="-75.066696">
        <ele>1564.9746</ele>
        <time>2021-11-14T12:37:08Z</time>
      </trkpt>
      <trkpt lat="4.651123" lon="-75.066635">
        <ele>1565.4265</ele>
        <time>2021-11-14T12:37:09Z</time>
      </trkpt>
      <trkpt lat="4.651126" lon="-75.066635">
        <ele>1565.3843</ele>
        <time>2021-11-14T12:37:10Z</time>
      </trkpt>
      <trkpt lat="4.651146" lon="-75.066605">
        <ele>1566.144</ele>
        <time>2021-11-14T12:37:11Z</time>
      </trkpt>
      <trkpt lat="4.651187" lon="-75.066528">
        <ele>1566.6653</ele>
        <time>2021-11-14T12:37:12Z</time>
      </trkpt>
      <trkpt lat="4.651225" lon="-75.066437">
        <ele>1566.9263</ele>
        <time>2021-11-14T12:37:13Z</time>
      </trkpt>
      <trkpt lat="4.651263" lon="-75.066322">
        <ele>1567.3872</ele>
        <time>2021-11-14T12:37:14Z</time>
      </trkpt>
      <trkpt lat="4.651293" lon="-75.066185">
        <ele>1567.9116</ele>
        <time>2021-11-14T12:37:15Z</time>
      </trkpt>
      <trkpt lat="4.651319" lon="-75.066055">
        <ele>1568.2534</ele>
        <time>2021-11-14T12:37:16Z</time>
      </trkpt>
      <trkpt lat="4.651357" lon="-75.065948">
        <ele>1569.2793</ele>
        <time>2021-11-14T12:37:17Z</time>
      </trkpt>
      <trkpt lat="4.651422" lon="-75.065849">
        <ele>1569.206</ele>
        <time>2021-11-14T12:37:18Z</time>
      </trkpt>
      <trkpt lat="4.651491" lon="-75.065773">
        <ele>1569.5186</ele>
        <time>2021-11-14T12:37:19Z</time>
      </trkpt>
      <trkpt lat="4.651566" lon="-75.065735">
        <ele>1569.0579</ele>
        <time>2021-11-14T12:37:20Z</time>
      </trkpt>
      <trkpt lat="4.651685" lon="-75.065704">
        <ele>1569.2903</ele>
        <time>2021-11-14T12:37:21Z</time>
      </trkpt>
      <trkpt lat="4.65181" lon="-75.065735">
        <ele>1570.4404</ele>
        <time>2021-11-14T12:37:22Z</time>
      </trkpt>
      <trkpt lat="4.65181" lon="-75.065735">
        <ele>1570.5544</ele>
        <time>2021-11-14T12:37:24Z</time>
      </trkpt>
      <trkpt lat="4.651946" lon="-75.065796">
        <ele>1571.0317</ele>
        <time>2021-11-14T12:37:25Z</time>
      </trkpt>
      <trkpt lat="4.652032" lon="-75.065842">
        <ele>1571.7095</ele>
        <time>2021-11-14T12:37:26Z</time>
      </trkpt>
      <trkpt lat="4.65217" lon="-75.065903">
        <ele>1572.8618</ele>
        <time>2021-11-14T12:37:27Z</time>
      </trkpt>
      <trkpt lat="4.652298" lon="-75.065948">
        <ele>1573.9204</ele>
        <time>2021-11-14T12:37:28Z</time>
      </trkpt>
      <trkpt lat="4.652419" lon="-75.06601">
        <ele>1574.7524</ele>
        <time>2021-11-14T12:37:29Z</time>
      </trkpt>
      <trkpt lat="4.652526" lon="-75.066093">
        <ele>1575.3003</ele>
        <time>2021-11-14T12:37:30Z</time>
      </trkpt>
      <trkpt lat="4.652635" lon="-75.066193">
        <ele>1576.0894</ele>
        <time>2021-11-14T12:37:31Z</time>
      </trkpt>
      <trkpt lat="4.652703" lon="-75.066299">
        <ele>1576.294</ele>
        <time>2021-11-14T12:37:32Z</time>
      </trkpt>
      <trkpt lat="4.652743" lon="-75.066406">
        <ele>1577.4341</ele>
        <time>2021-11-14T12:37:33Z</time>
      </trkpt>
      <trkpt lat="4.652775" lon="-75.066536">
        <ele>1579.48</ele>
        <time>2021-11-14T12:37:34Z</time>
      </trkpt>
      <trkpt lat="4.652809" lon="-75.066711">
        <ele>1580.1494</ele>
        <time>2021-11-14T12:37:35Z</time>
      </trkpt>
      <trkpt lat="4.652817" lon="-75.066795">
        <ele>1581.2979</ele>
        <time>2021-11-14T12:37:36Z</time>
      </trkpt>
      <trkpt lat="4.652833" lon="-75.066963">
        <ele>1582.4307</ele>
        <time>2021-11-14T12:37:37Z</time>
      </trkpt>
      <trkpt lat="4.652849" lon="-75.067139">
        <ele>1583.3723</ele>
        <time>2021-11-14T12:37:38Z</time>
      </trkpt>
      <trkpt lat="4.652844" lon="-75.067284">
        <ele>1584.3784</ele>
        <time>2021-11-14T12:37:39Z</time>
      </trkpt>
      <trkpt lat="4.65284" lon="-75.067413">
        <ele>1586.4868</ele>
        <time>2021-11-14T12:37:40Z</time>
      </trkpt>
      <trkpt lat="4.652844" lon="-75.067543">
        <ele>1587.4131</ele>
        <time>2021-11-14T12:37:41Z</time>
      </trkpt>
      <trkpt lat="4.652857" lon="-75.067657">
        <ele>1588.144</ele>
        <time>2021-11-14T12:37:42Z</time>
      </trkpt>
      <trkpt lat="4.652882" lon="-75.067734">
        <ele>1589.1201</ele>
        <time>2021-11-14T12:37:43Z</time>
      </trkpt>
      <trkpt lat="4.652922" lon="-75.06781">
        <ele>1590.0957</ele>
        <time>2021-11-14T12:37:44Z</time>
      </trkpt>
      <trkpt lat="4.652961" lon="-75.067848">
        <ele>1590.4414</ele>
        <time>2021-11-14T12:37:45Z</time>
      </trkpt>
      <trkpt lat="4.652993" lon="-75.067879">
        <ele>1591.0679</ele>
        <time>2021-11-14T12:37:46Z</time>
      </trkpt>
      <trkpt lat="4.653029" lon="-75.067902">
        <ele>1591.7139</ele>
        <time>2021-11-14T12:37:47Z</time>
      </trkpt>
      <trkpt lat="4.653101" lon="-75.067909">
        <ele>1591.9744</ele>
        <time>2021-11-14T12:37:48Z</time>
      </trkpt>
      <trkpt lat="4.653167" lon="-75.067894">
        <ele>1591.8164</ele>
        <time>2021-11-14T12:37:49Z</time>
      </trkpt>
      <trkpt lat="4.653237" lon="-75.067871">
        <ele>1592.262</ele>
        <time>2021-11-14T12:37:50Z</time>
      </trkpt>
      <trkpt lat="4.653318" lon="-75.067848">
        <ele>1592.7876</ele>
        <time>2021-11-14T12:37:51Z</time>
      </trkpt>
      <trkpt lat="4.653459" lon="-75.067841">
        <ele>1593.2395</ele>
        <time>2021-11-14T12:37:52Z</time>
      </trkpt>
      <trkpt lat="4.653459" lon="-75.067841">
        <ele>1594.7578</ele>
        <time>2021-11-14T12:37:53Z</time>
      </trkpt>
      <trkpt lat="4.653539" lon="-75.067871">
        <ele>1595.6313</ele>
        <time>2021-11-14T12:37:54Z</time>
      </trkpt>
      <trkpt lat="4.653633" lon="-75.06794">
        <ele>1596.1077</ele>
        <time>2021-11-14T12:37:55Z</time>
      </trkpt>
      <trkpt lat="4.65372" lon="-75.068024">
        <ele>1597.3657</ele>
        <time>2021-11-14T12:37:56Z</time>
      </trkpt>
      <trkpt lat="4.653815" lon="-75.068146">
        <ele>1597.988</ele>
        <time>2021-11-14T12:37:57Z</time>
      </trkpt>
      <trkpt lat="4.653879" lon="-75.068291">
        <ele>1599.9365</ele>
        <time>2021-11-14T12:37:58Z</time>
      </trkpt>
      <trkpt lat="4.65395" lon="-75.068466">
        <ele>1599.9492</ele>
        <time>2021-11-14T12:37:59Z</time>
      </trkpt>
      <trkpt lat="4.653989" lon="-75.068527">
        <ele>1600.9658</ele>
        <time>2021-11-14T12:38:00Z</time>
      </trkpt>
      <trkpt lat="4.65405" lon="-75.068581">
        <ele>1601.3918</ele>
        <time>2021-11-14T12:38:01Z</time>
      </trkpt>
      <trkpt lat="4.654155" lon="-75.068619">
        <ele>1601.1094</ele>
        <time>2021-11-14T12:38:02Z</time>
      </trkpt>
      <trkpt lat="4.654314" lon="-75.068634">
        <ele>1602.3376</ele>
        <time>2021-11-14T12:38:03Z</time>
      </trkpt>
      <trkpt lat="4.654392" lon="-75.068611">
        <ele>1602.6858</ele>
        <time>2021-11-14T12:38:04Z</time>
      </trkpt>
      <trkpt lat="4.654467" lon="-75.068558">
        <ele>1603.6587</ele>
        <time>2021-11-14T12:38:05Z</time>
      </trkpt>
      <trkpt lat="4.654547" lon="-75.068451">
        <ele>1602.8462</ele>
        <time>2021-11-14T12:38:06Z</time>
      </trkpt>
      <trkpt lat="4.654585" lon="-75.068352">
        <ele>1604.637</ele>
        <time>2021-11-14T12:38:07Z</time>
      </trkpt>
      <trkpt lat="4.6546" lon="-75.06823">
        <ele>1604.1362</ele>
        <time>2021-11-14T12:38:08Z</time>
      </trkpt>
      <trkpt lat="4.65459" lon="-75.068146">
        <ele>1605.3569</ele>
        <time>2021-11-14T12:38:09Z</time>
      </trkpt>
      <trkpt lat="4.654565" lon="-75.068047">
        <ele>1606.0645</ele>
        <time>2021-11-14T12:38:10Z</time>
      </trkpt>
      <trkpt lat="4.654533" lon="-75.06794">
        <ele>1606.979</ele>
        <time>2021-11-14T12:38:11Z</time>
      </trkpt>
      <trkpt lat="4.6545" lon="-75.067825">
        <ele>1607.7783</ele>
        <time>2021-11-14T12:38:13Z</time>
      </trkpt>
      <trkpt lat="4.654469" lon="-75.067726">
        <ele>1609.1057</ele>
        <time>2021-11-14T12:38:14Z</time>
      </trkpt>
      <trkpt lat="4.654443" lon="-75.067619">
        <ele>1610.061</ele>
        <time>2021-11-14T12:38:15Z</time>
      </trkpt>
      <trkpt lat="4.654423" lon="-75.06752">
        <ele>1610.6289</ele>
        <time>2021-11-14T12:38:16Z</time>
      </trkpt>
      <trkpt lat="4.654417" lon="-75.067413">
        <ele>1610.5532</ele>
        <time>2021-11-14T12:38:17Z</time>
      </trkpt>
      <trkpt lat="4.654422" lon="-75.067307">
        <ele>1611.4355</ele>
        <time>2021-11-14T12:38:18Z</time>
      </trkpt>
      <trkpt lat="4.65444" lon="-75.067215">
        <ele>1612.415</ele>
        <time>2021-11-14T12:38:19Z</time>
      </trkpt>
      <trkpt lat="4.654478" lon="-75.067116">
        <ele>1613.3032</ele>
        <time>2021-11-14T12:38:20Z</time>
      </trkpt>
      <trkpt lat="4.654525" lon="-75.067032">
        <ele>1613.6924</ele>
        <time>2021-11-14T12:38:21Z</time>
      </trkpt>
      <trkpt lat="4.654584" lon="-75.066978">
        <ele>1614.3784</ele>
        <time>2021-11-14T12:38:22Z</time>
      </trkpt>
      <trkpt lat="4.654667" lon="-75.066948">
        <ele>1615.4316</ele>
        <time>2021-11-14T12:38:23Z</time>
      </trkpt>
      <trkpt lat="4.654772" lon="-75.066986">
        <ele>1616.4116</ele>
        <time>2021-11-14T12:38:24Z</time>
      </trkpt>
      <trkpt lat="4.654772" lon="-75.066986">
        <ele>1617.1902</ele>
        <time>2021-11-14T12:38:25Z</time>
      </trkpt>
      <trkpt lat="4.65486" lon="-75.067078">
        <ele>1618.5571</ele>
        <time>2021-11-14T12:38:26Z</time>
      </trkpt>
      <trkpt lat="4.654905" lon="-75.067146">
        <ele>1618.874</ele>
        <time>2021-11-14T12:38:27Z</time>
      </trkpt>
      <trkpt lat="4.654934" lon="-75.067253">
        <ele>1618.4448</ele>
        <time>2021-11-14T12:38:28Z</time>
      </trkpt>
      <trkpt lat="4.654949" lon="-75.067345">
        <ele>1619.8008</ele>
        <time>2021-11-14T12:38:29Z</time>
      </trkpt>
      <trkpt lat="4.654975" lon="-75.067513">
        <ele>1620.9521</ele>
        <time>2021-11-14T12:38:30Z</time>
      </trkpt>
      <trkpt lat="4.654992" lon="-75.067627">
        <ele>1621.8049</ele>
        <time>2021-11-14T12:38:31Z</time>
      </trkpt>
      <trkpt lat="4.655015" lon="-75.067726">
        <ele>1622.001</ele>
        <time>2021-11-14T12:38:32Z</time>
      </trkpt>
      <trkpt lat="4.655026" lon="-75.067749">
        <ele>1622.0303</ele>
        <time>2021-11-14T12:38:33Z</time>
      </trkpt>
      <trkpt lat="4.655041" lon="-75.067787">
        <ele>1623.1531</ele>
        <time>2021-11-14T12:38:34Z</time>
      </trkpt>
      <trkpt lat="4.655069" lon="-75.067818">
        <ele>1622.8518</ele>
        <time>2021-11-14T12:38:35Z</time>
      </trkpt>
      <trkpt lat="4.655131" lon="-75.067841">
        <ele>1623.6865</ele>
        <time>2021-11-14T12:38:36Z</time>
      </trkpt>
      <trkpt lat="4.655198" lon="-75.067863">
        <ele>1623.4233</ele>
        <time>2021-11-14T12:38:37Z</time>
      </trkpt>
      <trkpt lat="4.655277" lon="-75.06794">
        <ele>1623.8955</ele>
        <time>2021-11-14T12:38:38Z</time>
      </trkpt>
      <trkpt lat="4.655351" lon="-75.068024">
        <ele>1624.5117</ele>
        <time>2021-11-14T12:38:39Z</time>
      </trkpt>
      <trkpt lat="4.655396" lon="-75.068108">
        <ele>1624.4531</ele>
        <time>2021-11-14T12:38:40Z</time>
      </trkpt>
      <trkpt lat="4.655426" lon="-75.068199">
        <ele>1625.9258</ele>
        <time>2021-11-14T12:38:41Z</time>
      </trkpt>
      <trkpt lat="4.655443" lon="-75.068306">
        <ele>1626.1694</ele>
        <time>2021-11-14T12:38:42Z</time>
      </trkpt>
      <trkpt lat="4.655456" lon="-75.068459">
        <ele>1626.6807</ele>
        <time>2021-11-14T12:38:43Z</time>
      </trkpt>
      <trkpt lat="4.65549" lon="-75.068626">
        <ele>1628.636</ele>
        <time>2021-11-14T12:38:44Z</time>
      </trkpt>
      <trkpt lat="4.655522" lon="-75.068733">
        <ele>1628.936</ele>
        <time>2021-11-14T12:38:45Z</time>
      </trkpt>
      <trkpt lat="4.655552" lon="-75.068794">
        <ele>1629.728</ele>
        <time>2021-11-14T12:38:46Z</time>
      </trkpt>
      <trkpt lat="4.6556" lon="-75.068848">
        <ele>1630.0227</ele>
        <time>2021-11-14T12:38:47Z</time>
      </trkpt>
      <trkpt lat="4.65565" lon="-75.068871">
        <ele>1629.9634</ele>
        <time>2021-11-14T12:38:48Z</time>
      </trkpt>
      <trkpt lat="4.655739" lon="-75.068886">
        <ele>1629.8159</ele>
        <time>2021-11-14T12:38:49Z</time>
      </trkpt>
      <trkpt lat="4.655814" lon="-75.068871">
        <ele>1630.583</ele>
        <time>2021-11-14T12:38:50Z</time>
      </trkpt>
      <trkpt lat="4.655872" lon="-75.068825">
        <ele>1631.8479</ele>
        <time>2021-11-14T12:38:51Z</time>
      </trkpt>
      <trkpt lat="4.655872" lon="-75.068825">
        <ele>1632.5625</ele>
        <time>2021-11-14T12:38:52Z</time>
      </trkpt>
      <trkpt lat="4.655921" lon="-75.068764">
        <ele>1632.4639</ele>
        <time>2021-11-14T12:38:53Z</time>
      </trkpt>
      <trkpt lat="4.655963" lon="-75.068703">
        <ele>1632.4421</ele>
        <time>2021-11-14T12:38:54Z</time>
      </trkpt>
      <trkpt lat="4.655996" lon="-75.068634">
        <ele>1632.311</ele>
        <time>2021-11-14T12:38:55Z</time>
      </trkpt>
      <trkpt lat="4.656036" lon="-75.06855">
        <ele>1631.915</ele>
        <time>2021-11-14T12:38:56Z</time>
      </trkpt>
      <trkpt lat="4.656147" lon="-75.068237">
        <ele>1632.9639</ele>
        <time>2021-11-14T12:38:57Z</time>
      </trkpt>
      <trkpt lat="4.656186" lon="-75.068146">
        <ele>1634.3496</ele>
        <time>2021-11-14T12:38:58Z</time>
      </trkpt>
      <trkpt lat="4.656239" lon="-75.068062">
        <ele>1634.4443</ele>
        <time>2021-11-14T12:38:59Z</time>
      </trkpt>
      <trkpt lat="4.656311" lon="-75.067993">
        <ele>1634.4946</ele>
        <time>2021-11-14T12:39:00Z</time>
      </trkpt>
      <trkpt lat="4.656394" lon="-75.067932">
        <ele>1636.3765</ele>
        <time>2021-11-14T12:39:01Z</time>
      </trkpt>
      <trkpt lat="4.656523" lon="-75.067863">
        <ele>1635.457</ele>
        <time>2021-11-14T12:39:02Z</time>
      </trkpt>
      <trkpt lat="4.656648" lon="-75.067818">
        <ele>1637.1191</ele>
        <time>2021-11-14T12:39:04Z</time>
      </trkpt>
      <trkpt lat="4.65682" lon="-75.067764">
        <ele>1637.8789</ele>
        <time>2021-11-14T12:39:05Z</time>
      </trkpt>
      <trkpt lat="4.656958" lon="-75.067719">
        <ele>1638.3442</ele>
        <time>2021-11-14T12:39:06Z</time>
      </trkpt>
      <trkpt lat="4.657068" lon="-75.067673">
        <ele>1640.5547</ele>
        <time>2021-11-14T12:39:07Z</time>
      </trkpt>
      <trkpt lat="4.657134" lon="-75.067642">
        <ele>1640.636</ele>
        <time>2021-11-14T12:39:08Z</time>
      </trkpt>
      <trkpt lat="4.657232" lon="-75.067566">
        <ele>1639.897</ele>
        <time>2021-11-14T12:39:09Z</time>
      </trkpt>
      <trkpt lat="4.65728" lon="-75.067497">
        <ele>1642.2263</ele>
        <time>2021-11-14T12:39:10Z</time>
      </trkpt>
      <trkpt lat="4.657302" lon="-75.067436">
        <ele>1642.8401</ele>
        <time>2021-11-14T12:39:11Z</time>
      </trkpt>
      <trkpt lat="4.657312" lon="-75.06739">
        <ele>1644.6079</ele>
        <time>2021-11-14T12:39:12Z</time>
      </trkpt>
      <trkpt lat="4.657298" lon="-75.067299">
        <ele>1645.8542</ele>
        <time>2021-11-14T12:39:13Z</time>
      </trkpt>
      <trkpt lat="4.657258" lon="-75.067215">
        <ele>1645.7017</ele>
        <time>2021-11-14T12:39:14Z</time>
      </trkpt>
      <trkpt lat="4.657228" lon="-75.067162">
        <ele>1644.593</ele>
        <time>2021-11-14T12:39:15Z</time>
      </trkpt>
      <trkpt lat="4.657121" lon="-75.067024">
        <ele>1644.4326</ele>
        <time>2021-11-14T12:39:16Z</time>
      </trkpt>
      <trkpt lat="4.657039" lon="-75.066925">
        <ele>1645.4546</ele>
        <time>2021-11-14T12:39:17Z</time>
      </trkpt>
      <trkpt lat="4.656978" lon="-75.066856">
        <ele>1645.3296</ele>
        <time>2021-11-14T12:39:18Z</time>
      </trkpt>
      <trkpt lat="4.656945" lon="-75.066818">
        <ele>1645.103</ele>
        <time>2021-11-14T12:39:19Z</time>
      </trkpt>
      <trkpt lat="4.656945" lon="-75.066818">
        <ele>1646.4697</ele>
        <time>2021-11-14T12:39:20Z</time>
      </trkpt>
      <trkpt lat="4.656935" lon="-75.066734">
        <ele>1647.477</ele>
        <time>2021-11-14T12:39:21Z</time>
      </trkpt>
      <trkpt lat="4.656997" lon="-75.066643">
        <ele>1647.999</ele>
        <time>2021-11-14T12:39:22Z</time>
      </trkpt>
      <trkpt lat="4.657084" lon="-75.066566">
        <ele>1650.5698</ele>
        <time>2021-11-14T12:39:23Z</time>
      </trkpt>
      <trkpt lat="4.65716" lon="-75.066505">
        <ele>1653.5044</ele>
        <time>2021-11-14T12:39:24Z</time>
      </trkpt>
      <trkpt lat="4.657322" lon="-75.066391">
        <ele>1654.8555</ele>
        <time>2021-11-14T12:39:25Z</time>
      </trkpt>
      <trkpt lat="4.657443" lon="-75.066307">
        <ele>1656.5874</ele>
        <time>2021-11-14T12:39:26Z</time>
      </trkpt>
      <trkpt lat="4.657571" lon="-75.066216">
        <ele>1657.7632</ele>
        <time>2021-11-14T12:39:27Z</time>
      </trkpt>
      <trkpt lat="4.657665" lon="-75.066139">
        <ele>1659.1782</ele>
        <time>2021-11-14T12:39:28Z</time>
      </trkpt>
      <trkpt lat="4.657749" lon="-75.06604">
        <ele>1660.3525</ele>
        <time>2021-11-14T12:39:29Z</time>
      </trkpt>
      <trkpt lat="4.657808" lon="-75.065941">
        <ele>1660.6909</ele>
        <time>2021-11-14T12:39:30Z</time>
      </trkpt>
      <trkpt lat="4.657848" lon="-75.065849">
        <ele>1662.9131</ele>
        <time>2021-11-14T12:39:31Z</time>
      </trkpt>
      <trkpt lat="4.657881" lon="-75.065742">
        <ele>1663.8862</ele>
        <time>2021-11-14T12:39:32Z</time>
      </trkpt>
      <trkpt lat="4.657916" lon="-75.06562">
        <ele>1664.508</ele>
        <time>2021-11-14T12:39:33Z</time>
      </trkpt>
      <trkpt lat="4.657955" lon="-75.065468">
        <ele>1664.8442</ele>
        <time>2021-11-14T12:39:34Z</time>
      </trkpt>
      <trkpt lat="4.657979" lon="-75.065353">
        <ele>1666.0378</ele>
        <time>2021-11-14T12:39:35Z</time>
      </trkpt>
      <trkpt lat="4.658017" lon="-75.065247">
        <ele>1666.9338</ele>
        <time>2021-11-14T12:39:36Z</time>
      </trkpt>
      <trkpt lat="4.65808" lon="-75.065147">
        <ele>1666.3555</ele>
        <time>2021-11-14T12:39:37Z</time>
      </trkpt>
      <trkpt lat="4.658145" lon="-75.065094">
        <ele>1668.5679</ele>
        <time>2021-11-14T12:39:38Z</time>
      </trkpt>
      <trkpt lat="4.658216" lon="-75.065071">
        <ele>1668.8711</ele>
        <time>2021-11-14T12:39:39Z</time>
      </trkpt>
      <trkpt lat="4.65828" lon="-75.065079">
        <ele>1670.6492</ele>
        <time>2021-11-14T12:39:40Z</time>
      </trkpt>
      <trkpt lat="4.658395" lon="-75.065102">
        <ele>1670.9429</ele>
        <time>2021-11-14T12:39:41Z</time>
      </trkpt>
      <trkpt lat="4.658474" lon="-75.06514">
        <ele>1672.9751</ele>
        <time>2021-11-14T12:39:42Z</time>
      </trkpt>
      <trkpt lat="4.658639" lon="-75.065224">
        <ele>1674.9082</ele>
        <time>2021-11-14T12:39:43Z</time>
      </trkpt>
      <trkpt lat="4.658743" lon="-75.065285">
        <ele>1676.7876</ele>
        <time>2021-11-14T12:39:44Z</time>
      </trkpt>
      <trkpt lat="4.658853" lon="-75.065361">
        <ele>1677.6919</ele>
        <time>2021-11-14T12:39:45Z</time>
      </trkpt>
      <trkpt lat="4.658935" lon="-75.065422">
        <ele>1678.728</ele>
        <time>2021-11-14T12:39:46Z</time>
      </trkpt>
      <trkpt lat="4.659035" lon="-75.065491">
        <ele>1679.8018</ele>
        <time>2021-11-14T12:39:47Z</time>
      </trkpt>
      <trkpt lat="4.659114" lon="-75.065567">
        <ele>1681.1196</ele>
        <time>2021-11-14T12:39:48Z</time>
      </trkpt>
      <trkpt lat="4.659114" lon="-75.065567">
        <ele>1683.0381</ele>
        <time>2021-11-14T12:39:49Z</time>
      </trkpt>
      <trkpt lat="4.659199" lon="-75.065681">
        <ele>1683.2666</ele>
        <time>2021-11-14T12:39:50Z</time>
      </trkpt>
      <trkpt lat="4.659307" lon="-75.065788">
        <ele>1684.9841</ele>
        <time>2021-11-14T12:39:51Z</time>
      </trkpt>
      <trkpt lat="4.6594" lon="-75.065849">
        <ele>1686.1763</ele>
        <time>2021-11-14T12:39:52Z</time>
      </trkpt>
      <trkpt lat="4.659526" lon="-75.065918">
        <ele>1687.0776</ele>
        <time>2021-11-14T12:39:53Z</time>
      </trkpt>
      <trkpt lat="4.659687" lon="-75.06601">
        <ele>1688.0845</ele>
        <time>2021-11-14T12:39:54Z</time>
      </trkpt>
      <trkpt lat="4.659833" lon="-75.066086">
        <ele>1688.6094</ele>
        <time>2021-11-14T12:39:55Z</time>
      </trkpt>
      <trkpt lat="4.660136" lon="-75.066231">
        <ele>1692.2424</ele>
        <time>2021-11-14T12:39:56Z</time>
      </trkpt>
      <trkpt lat="4.66023" lon="-75.066269">
        <ele>1693.4482</ele>
        <time>2021-11-14T12:39:57Z</time>
      </trkpt>
      <trkpt lat="4.660327" lon="-75.066307">
        <ele>1694.27</ele>
        <time>2021-11-14T12:39:58Z</time>
      </trkpt>
      <trkpt lat="4.660445" lon="-75.06633">
        <ele>1694.4775</ele>
        <time>2021-11-14T12:39:59Z</time>
      </trkpt>
      <trkpt lat="4.660567" lon="-75.066315">
        <ele>1695.6177</ele>
        <time>2021-11-14T12:40:00Z</time>
      </trkpt>
      <trkpt lat="4.660707" lon="-75.066284">
        <ele>1695.5107</ele>
        <time>2021-11-14T12:40:01Z</time>
      </trkpt>
      <trkpt lat="4.660841" lon="-75.066284">
        <ele>1696.061</ele>
        <time>2021-11-14T12:40:02Z</time>
      </trkpt>
      <trkpt lat="4.660937" lon="-75.066284">
        <ele>1696.1802</ele>
        <time>2021-11-14T12:40:03Z</time>
      </trkpt>
      <trkpt lat="4.660995" lon="-75.066261">
        <ele>1696.7112</ele>
        <time>2021-11-14T12:40:04Z</time>
      </trkpt>
      <trkpt lat="4.661052" lon="-75.066238">
        <ele>1697.1626</ele>
        <time>2021-11-14T12:40:05Z</time>
      </trkpt>
      <trkpt lat="4.661164" lon="-75.066177">
        <ele>1698.147</ele>
        <time>2021-11-14T12:40:06Z</time>
      </trkpt>
      <trkpt lat="4.66123" lon="-75.066093">
        <ele>1697.8784</ele>
        <time>2021-11-14T12:40:07Z</time>
      </trkpt>
      <trkpt lat="4.661261" lon="-75.066017">
        <ele>1699.263</ele>
        <time>2021-11-14T12:40:08Z</time>
      </trkpt>
      <trkpt lat="4.661272" lon="-75.065842">
        <ele>1699.1116</ele>
        <time>2021-11-14T12:40:09Z</time>
      </trkpt>
      <trkpt lat="4.661276" lon="-75.065758">
        <ele>1699.637</ele>
        <time>2021-11-14T12:40:10Z</time>
      </trkpt>
      <trkpt lat="4.661284" lon="-75.065643">
        <ele>1699.855</ele>
        <time>2021-11-14T12:40:11Z</time>
      </trkpt>
      <trkpt lat="4.66131" lon="-75.065498">
        <ele>1700.0044</ele>
        <time>2021-11-14T12:40:13Z</time>
      </trkpt>
      <trkpt lat="4.661343" lon="-75.065384">
        <ele>1700.0823</ele>
        <time>2021-11-14T12:40:14Z</time>
      </trkpt>
      <trkpt lat="4.661394" lon="-75.065292">
        <ele>1701.292</ele>
        <time>2021-11-14T12:40:15Z</time>
      </trkpt>
      <trkpt lat="4.661482" lon="-75.065178">
        <ele>1700.6165</ele>
        <time>2021-11-14T12:40:16Z</time>
      </trkpt>
      <trkpt lat="4.661553" lon="-75.06514">
        <ele>1699.8281</ele>
        <time>2021-11-14T12:40:17Z</time>
      </trkpt>
      <trkpt lat="4.661605" lon="-75.065125">
        <ele>1698.7031</ele>
        <time>2021-11-14T12:40:18Z</time>
      </trkpt>
      <trkpt lat="4.661605" lon="-75.065125">
        <ele>1700.4968</ele>
        <time>2021-11-14T12:40:19Z</time>
      </trkpt>
      <trkpt lat="4.661715" lon="-75.065132">
        <ele>1701.4319</ele>
        <time>2021-11-14T12:40:20Z</time>
      </trkpt>
      <trkpt lat="4.661848" lon="-75.065147">
        <ele>1702.8467</ele>
        <time>2021-11-14T12:40:21Z</time>
      </trkpt>
      <trkpt lat="4.662041" lon="-75.065201">
        <ele>1702.332</ele>
        <time>2021-11-14T12:40:22Z</time>
      </trkpt>
      <trkpt lat="4.662144" lon="-75.065254">
        <ele>1702.5659</ele>
        <time>2021-11-14T12:40:23Z</time>
      </trkpt>
      <trkpt lat="4.662232" lon="-75.065308">
        <ele>1703.8145</ele>
        <time>2021-11-14T12:40:24Z</time>
      </trkpt>
      <trkpt lat="4.662344" lon="-75.065384">
        <ele>1704.7109</ele>
        <time>2021-11-14T12:40:25Z</time>
      </trkpt>
      <trkpt lat="4.662469" lon="-75.065468">
        <ele>1705.2319</ele>
        <time>2021-11-14T12:40:26Z</time>
      </trkpt>
      <trkpt lat="4.662584" lon="-75.065529">
        <ele>1705.935</ele>
        <time>2021-11-14T12:40:27Z</time>
      </trkpt>
      <trkpt lat="4.66266" lon="-75.065552">
        <ele>1706.1084</ele>
        <time>2021-11-14T12:40:28Z</time>
      </trkpt>
      <trkpt lat="4.662763" lon="-75.065552">
        <ele>1707.396</ele>
        <time>2021-11-14T12:40:29Z</time>
      </trkpt>
      <trkpt lat="4.662854" lon="-75.065514">
        <ele>1708.2295</ele>
        <time>2021-11-14T12:40:30Z</time>
      </trkpt>
      <trkpt lat="4.662902" lon="-75.065468">
        <ele>1708.9414</ele>
        <time>2021-11-14T12:40:31Z</time>
      </trkpt>
      <trkpt lat="4.66294" lon="-75.065407">
        <ele>1707.8262</ele>
        <time>2021-11-14T12:40:32Z</time>
      </trkpt>
      <trkpt lat="4.662955" lon="-75.065315">
        <ele>1708.8706</ele>
        <time>2021-11-14T12:40:33Z</time>
      </trkpt>
      <trkpt lat="4.66295" lon="-75.06517">
        <ele>1709.167</ele>
        <time>2021-11-14T12:40:34Z</time>
      </trkpt>
      <trkpt lat="4.662926" lon="-75.065071">
        <ele>1710.1011</ele>
        <time>2021-11-14T12:40:35Z</time>
      </trkpt>
      <trkpt lat="4.662893" lon="-75.064987">
        <ele>1711.9297</ele>
        <time>2021-11-14T12:40:36Z</time>
      </trkpt>
      <trkpt lat="4.662836" lon="-75.064873">
        <ele>1711.4541</ele>
        <time>2021-11-14T12:40:37Z</time>
      </trkpt>
      <trkpt lat="4.662761" lon="-75.064728">
        <ele>1711.9375</ele>
        <time>2021-11-14T12:40:38Z</time>
      </trkpt>
      <trkpt lat="4.662703" lon="-75.064613">
        <ele>1712.3198</ele>
        <time>2021-11-14T12:40:39Z</time>
      </trkpt>
      <trkpt lat="4.662658" lon="-75.064499">
        <ele>1712.0442</ele>
        <time>2021-11-14T12:40:40Z</time>
      </trkpt>
      <trkpt lat="4.662627" lon="-75.064415">
        <ele>1712.6177</ele>
        <time>2021-11-14T12:40:41Z</time>
      </trkpt>
      <trkpt lat="4.662608" lon="-75.064339">
        <ele>1714.4648</ele>
        <time>2021-11-14T12:40:42Z</time>
      </trkpt>
      <trkpt lat="4.662604" lon="-75.064262">
        <ele>1713.74</ele>
        <time>2021-11-14T12:40:43Z</time>
      </trkpt>
      <trkpt lat="4.662667" lon="-75.064148">
        <ele>1714.7739</ele>
        <time>2021-11-14T12:40:44Z</time>
      </trkpt>
      <trkpt lat="4.662737" lon="-75.064095">
        <ele>1714.904</ele>
        <time>2021-11-14T12:40:45Z</time>
      </trkpt>
      <trkpt lat="4.662755" lon="-75.064079">
        <ele>1714.9253</ele>
        <time>2021-11-14T12:40:46Z</time>
      </trkpt>
      <trkpt lat="4.662807" lon="-75.064041">
        <ele>1715.7417</ele>
        <time>2021-11-14T12:40:47Z</time>
      </trkpt>
      <trkpt lat="4.662817" lon="-75.064034">
        <ele>1716.0916</ele>
        <time>2021-11-14T12:40:48Z</time>
      </trkpt>
      <trkpt lat="4.662913" lon="-75.063965">
        <ele>1715.6587</ele>
        <time>2021-11-14T12:40:49Z</time>
      </trkpt>
      <trkpt lat="4.663019" lon="-75.063873">
        <ele>1716.249</ele>
        <time>2021-11-14T12:40:50Z</time>
      </trkpt>
      <trkpt lat="4.663019" lon="-75.063873">
        <ele>1717.0168</ele>
        <time>2021-11-14T12:40:51Z</time>
      </trkpt>
      <trkpt lat="4.663104" lon="-75.063766">
        <ele>1717.9097</ele>
        <time>2021-11-14T12:40:52Z</time>
      </trkpt>
      <trkpt lat="4.66314" lon="-75.06366">
        <ele>1718.0454</ele>
        <time>2021-11-14T12:40:53Z</time>
      </trkpt>
      <trkpt lat="4.663179" lon="-75.063538">
        <ele>1718.9319</ele>
        <time>2021-11-14T12:40:54Z</time>
      </trkpt>
      <trkpt lat="4.663231" lon="-75.06337">
        <ele>1720.5742</ele>
        <time>2021-11-14T12:40:55Z</time>
      </trkpt>
      <trkpt lat="4.663285" lon="-75.063248">
        <ele>1721.2266</ele>
        <time>2021-11-14T12:40:56Z</time>
      </trkpt>
      <trkpt lat="4.663339" lon="-75.063133">
        <ele>1721.8896</ele>
        <time>2021-11-14T12:40:57Z</time>
      </trkpt>
      <trkpt lat="4.663401" lon="-75.063042">
        <ele>1721.9453</ele>
        <time>2021-11-14T12:40:58Z</time>
      </trkpt>
      <trkpt lat="4.663462" lon="-75.062988">
        <ele>1722.9414</ele>
        <time>2021-11-14T12:40:59Z</time>
      </trkpt>
      <trkpt lat="4.66355" lon="-75.062943">
        <ele>1724.2207</ele>
        <time>2021-11-14T12:41:00Z</time>
      </trkpt>
      <trkpt lat="4.66369" lon="-75.062904">
        <ele>1724.313</ele>
        <time>2021-11-14T12:41:01Z</time>
      </trkpt>
      <trkpt lat="4.663789" lon="-75.062927">
        <ele>1725.4136</ele>
        <time>2021-11-14T12:41:02Z</time>
      </trkpt>
      <trkpt lat="4.66381" lon="-75.062958">
        <ele>1726.4639</ele>
        <time>2021-11-14T12:41:03Z</time>
      </trkpt>
      <trkpt lat="4.663835" lon="-75.063004">
        <ele>1728.6145</ele>
        <time>2021-11-14T12:41:04Z</time>
      </trkpt>
      <trkpt lat="4.663875" lon="-75.063072">
        <ele>1729.1943</ele>
        <time>2021-11-14T12:41:05Z</time>
      </trkpt>
      <trkpt lat="4.663882" lon="-75.063179">
        <ele>1730.2886</ele>
        <time>2021-11-14T12:41:06Z</time>
      </trkpt>
      <trkpt lat="4.663807" lon="-75.063347">
        <ele>1731.3594</ele>
        <time>2021-11-14T12:41:07Z</time>
      </trkpt>
      <trkpt lat="4.663777" lon="-75.063393">
        <ele>1732.9578</ele>
        <time>2021-11-14T12:41:08Z</time>
      </trkpt>
      <trkpt lat="4.663669" lon="-75.063515">
        <ele>1733.3887</ele>
        <time>2021-11-14T12:41:09Z</time>
      </trkpt>
      <trkpt lat="4.663556" lon="-75.063629">
        <ele>1733.894</ele>
        <time>2021-11-14T12:41:10Z</time>
      </trkpt>
      <trkpt lat="4.663483" lon="-75.063736">
        <ele>1734.7529</ele>
        <time>2021-11-14T12:41:11Z</time>
      </trkpt>
      <trkpt lat="4.663438" lon="-75.063843">
        <ele>1735.31</ele>
        <time>2021-11-14T12:41:12Z</time>
      </trkpt>
      <trkpt lat="4.6634" lon="-75.063942">
        <ele>1736.0479</ele>
        <time>2021-11-14T12:41:13Z</time>
      </trkpt>
      <trkpt lat="4.663357" lon="-75.064072">
        <ele>1737.1792</ele>
        <time>2021-11-14T12:41:14Z</time>
      </trkpt>
      <trkpt lat="4.663313" lon="-75.064186">
        <ele>1737.9097</ele>
        <time>2021-11-14T12:41:15Z</time>
      </trkpt>
      <trkpt lat="4.663277" lon="-75.064262">
        <ele>1738.5615</ele>
        <time>2021-11-14T12:41:16Z</time>
      </trkpt>
      <trkpt lat="4.663237" lon="-75.064346">
        <ele>1738.7778</ele>
        <time>2021-11-14T12:41:18Z</time>
      </trkpt>
      <trkpt lat="4.663206" lon="-75.064445">
        <ele>1739.7661</ele>
        <time>2021-11-14T12:41:19Z</time>
      </trkpt>
      <trkpt lat="4.663225" lon="-75.064552">
        <ele>1741.8396</ele>
        <time>2021-11-14T12:41:20Z</time>
      </trkpt>
      <trkpt lat="4.663262" lon="-75.064629">
        <ele>1741.9292</ele>
        <time>2021-11-14T12:41:21Z</time>
      </trkpt>
      <trkpt lat="4.663301" lon="-75.064713">
        <ele>1743.1919</ele>
        <time>2021-11-14T12:41:22Z</time>
      </trkpt>
      <trkpt lat="4.663336" lon="-75.064827">
        <ele>1745.4832</ele>
        <time>2021-11-14T12:41:23Z</time>
      </trkpt>
      <trkpt lat="4.663368" lon="-75.064949">
        <ele>1745.9917</ele>
        <time>2021-11-14T12:41:24Z</time>
      </trkpt>
      <trkpt lat="4.663406" lon="-75.065102">
        <ele>1747.1245</ele>
        <time>2021-11-14T12:41:25Z</time>
      </trkpt>
      <trkpt lat="4.663462" lon="-75.065247">
        <ele>1747.3677</ele>
        <time>2021-11-14T12:41:26Z</time>
      </trkpt>
      <trkpt lat="4.663496" lon="-75.065323">
        <ele>1748.1992</ele>
        <time>2021-11-14T12:41:27Z</time>
      </trkpt>
      <trkpt lat="4.663538" lon="-75.065392">
        <ele>1748.6782</ele>
        <time>2021-11-14T12:41:28Z</time>
      </trkpt>
      <trkpt lat="4.663608" lon="-75.065506">
        <ele>1749.4419</ele>
        <time>2021-11-14T12:41:29Z</time>
      </trkpt>
      <trkpt lat="4.663608" lon="-75.065506">
        <ele>1749.967</ele>
        <time>2021-11-14T12:41:30Z</time>
      </trkpt>
      <trkpt lat="4.663694" lon="-75.065628">
        <ele>1751.323</ele>
        <time>2021-11-14T12:41:31Z</time>
      </trkpt>
      <trkpt lat="4.663775" lon="-75.065735">
        <ele>1752.4568</ele>
        <time>2021-11-14T12:41:32Z</time>
      </trkpt>
      <trkpt lat="4.663854" lon="-75.065811">
        <ele>1752.8472</ele>
        <time>2021-11-14T12:41:33Z</time>
      </trkpt>
      <trkpt lat="4.663936" lon="-75.065895">
        <ele>1754.1484</ele>
        <time>2021-11-14T12:41:34Z</time>
      </trkpt>
      <trkpt lat="4.663991" lon="-75.065979">
        <ele>1754.9626</ele>
        <time>2021-11-14T12:41:35Z</time>
      </trkpt>
      <trkpt lat="4.664015" lon="-75.066078">
        <ele>1756.3586</ele>
        <time>2021-11-14T12:41:36Z</time>
      </trkpt>
      <trkpt lat="4.664015" lon="-75.06617">
        <ele>1756.3887</ele>
        <time>2021-11-14T12:41:37Z</time>
      </trkpt>
      <trkpt lat="4.663993" lon="-75.066254">
        <ele>1756.5557</ele>
        <time>2021-11-14T12:41:38Z</time>
      </trkpt>
      <trkpt lat="4.66393" lon="-75.066315">
        <ele>1758.0359</ele>
        <time>2021-11-14T12:41:39Z</time>
      </trkpt>
      <trkpt lat="4.663824" lon="-75.06633">
        <ele>1758.3765</ele>
        <time>2021-11-14T12:41:40Z</time>
      </trkpt>
      <trkpt lat="4.663739" lon="-75.06633">
        <ele>1757.832</ele>
        <time>2021-11-14T12:41:41Z</time>
      </trkpt>
      <trkpt lat="4.663662" lon="-75.06633">
        <ele>1758.9321</ele>
        <time>2021-11-14T12:41:42Z</time>
      </trkpt>
      <trkpt lat="4.66357" lon="-75.066322">
        <ele>1759.3245</ele>
        <time>2021-11-14T12:41:43Z</time>
      </trkpt>
      <trkpt lat="4.663513" lon="-75.06636">
        <ele>1758.8506</ele>
        <time>2021-11-14T12:41:44Z</time>
      </trkpt>
      <trkpt lat="4.663498" lon="-75.066376">
        <ele>1759.3628</ele>
        <time>2021-11-14T12:41:45Z</time>
      </trkpt>
      <trkpt lat="4.663493" lon="-75.066383">
        <ele>1760.0549</ele>
        <time>2021-11-14T12:41:46Z</time>
      </trkpt>
      <trkpt lat="4.663466" lon="-75.066422">
        <ele>1760.6941</ele>
        <time>2021-11-14T12:41:47Z</time>
      </trkpt>
      <trkpt lat="4.663418" lon="-75.066483">
        <ele>1761.209</ele>
        <time>2021-11-14T12:41:48Z</time>
      </trkpt>
      <trkpt lat="4.663393" lon="-75.066521">
        <ele>1761.2075</ele>
        <time>2021-11-14T12:41:49Z</time>
      </trkpt>
      <trkpt lat="4.663382" lon="-75.066528">
        <ele>1761.4368</ele>
        <time>2021-11-14T12:41:50Z</time>
      </trkpt>
      <trkpt lat="4.663337" lon="-75.066605">
        <ele>1761.9424</ele>
        <time>2021-11-14T12:41:51Z</time>
      </trkpt>
      <trkpt lat="4.663306" lon="-75.066666">
        <ele>1761.9492</ele>
        <time>2021-11-14T12:41:52Z</time>
      </trkpt>
      <trkpt lat="4.663293" lon="-75.066696">
        <ele>1762.1104</ele>
        <time>2021-11-14T12:41:53Z</time>
      </trkpt>
      <trkpt lat="4.663288" lon="-75.066742">
        <ele>1761.7883</ele>
        <time>2021-11-14T12:41:54Z</time>
      </trkpt>
      <trkpt lat="4.663278" lon="-75.066818">
        <ele>1762.2502</ele>
        <time>2021-11-14T12:41:55Z</time>
      </trkpt>
      <trkpt lat="4.663273" lon="-75.066864">
        <ele>1763.4619</ele>
        <time>2021-11-14T12:41:56Z</time>
      </trkpt>
      <trkpt lat="4.663241" lon="-75.066917">
        <ele>1763.8921</ele>
        <time>2021-11-14T12:41:57Z</time>
      </trkpt>
      <trkpt lat="4.663196" lon="-75.066948">
        <ele>1763.3906</ele>
        <time>2021-11-14T12:41:58Z</time>
      </trkpt>
      <trkpt lat="4.663119" lon="-75.066994">
        <ele>1763.5044</ele>
        <time>2021-11-14T12:41:59Z</time>
      </trkpt>
      <trkpt lat="4.663119" lon="-75.066994">
        <ele>1763.2051</ele>
        <time>2021-11-14T12:42:00Z</time>
      </trkpt>
      <trkpt lat="4.663032" lon="-75.067039">
        <ele>1763.4785</ele>
        <time>2021-11-14T12:42:01Z</time>
      </trkpt>
      <trkpt lat="4.662959" lon="-75.06707">
        <ele>1763.8926</ele>
        <time>2021-11-14T12:42:02Z</time>
      </trkpt>
      <trkpt lat="4.662908" lon="-75.067093">
        <ele>1763.9321</ele>
        <time>2021-11-14T12:42:03Z</time>
      </trkpt>
      <trkpt lat="4.662843" lon="-75.067123">
        <ele>1763.6992</ele>
        <time>2021-11-14T12:42:04Z</time>
      </trkpt>
      <trkpt lat="4.662755" lon="-75.067154">
        <ele>1764.367</ele>
        <time>2021-11-14T12:42:05Z</time>
      </trkpt>
      <trkpt lat="4.662664" lon="-75.067184">
        <ele>1764.8374</ele>
        <time>2021-11-14T12:42:06Z</time>
      </trkpt>
      <trkpt lat="4.66256" lon="-75.067215">
        <ele>1766.0557</ele>
        <time>2021-11-14T12:42:07Z</time>
      </trkpt>
      <trkpt lat="4.662485" lon="-75.06723">
        <ele>1766.2107</ele>
        <time>2021-11-14T12:42:08Z</time>
      </trkpt>
      <trkpt lat="4.662466" lon="-75.06723">
        <ele>1766.8774</ele>
        <time>2021-11-14T12:42:09Z</time>
      </trkpt>
      <trkpt lat="4.66242" lon="-75.067238">
        <ele>1767.3813</ele>
        <time>2021-11-14T12:42:10Z</time>
      </trkpt>
      <trkpt lat="4.662321" lon="-75.067253">
        <ele>1767.7502</ele>
        <time>2021-11-14T12:42:11Z</time>
      </trkpt>
      <trkpt lat="4.662271" lon="-75.067276">
        <ele>1768.3794</ele>
        <time>2021-11-14T12:42:12Z</time>
      </trkpt>
      <trkpt lat="4.662218" lon="-75.067322">
        <ele>1769.1487</ele>
        <time>2021-11-14T12:42:13Z</time>
      </trkpt>
      <trkpt lat="4.662178" lon="-75.067421">
        <ele>1770.127</ele>
        <time>2021-11-14T12:42:14Z</time>
      </trkpt>
      <trkpt lat="4.662174" lon="-75.067497">
        <ele>1771.0366</ele>
        <time>2021-11-14T12:42:15Z</time>
      </trkpt>
      <trkpt lat="4.662171" lon="-75.067566">
        <ele>1771.9526</ele>
        <time>2021-11-14T12:42:16Z</time>
      </trkpt>
      <trkpt lat="4.662164" lon="-75.067657">
        <ele>1772.522</ele>
        <time>2021-11-14T12:42:17Z</time>
      </trkpt>
      <trkpt lat="4.662143" lon="-75.067741">
        <ele>1772.6582</ele>
        <time>2021-11-14T12:42:18Z</time>
      </trkpt>
      <trkpt lat="4.66211" lon="-75.067833">
        <ele>1773.0371</ele>
        <time>2021-11-14T12:42:19Z</time>
      </trkpt>
      <trkpt lat="4.662088" lon="-75.067894">
        <ele>1772.9517</ele>
        <time>2021-11-14T12:42:20Z</time>
      </trkpt>
      <trkpt lat="4.662044" lon="-75.067978">
        <ele>1773.645</ele>
        <time>2021-11-14T12:42:21Z</time>
      </trkpt>
      <trkpt lat="4.661994" lon="-75.068047">
        <ele>1774.7375</ele>
        <time>2021-11-14T12:42:22Z</time>
      </trkpt>
      <trkpt lat="4.661917" lon="-75.068108">
        <ele>1774.6438</ele>
        <time>2021-11-14T12:42:23Z</time>
      </trkpt>
      <trkpt lat="4.661719" lon="-75.068245">
        <ele>1776.3901</ele>
        <time>2021-11-14T12:42:24Z</time>
      </trkpt>
      <trkpt lat="4.661669" lon="-75.068275">
        <ele>1776.7168</ele>
        <time>2021-11-14T12:42:25Z</time>
      </trkpt>
      <trkpt lat="4.661555" lon="-75.068352">
        <ele>1776.8608</ele>
        <time>2021-11-14T12:42:26Z</time>
      </trkpt>
      <trkpt lat="4.661476" lon="-75.068398">
        <ele>1777.4409</ele>
        <time>2021-11-14T12:42:27Z</time>
      </trkpt>
      <trkpt lat="4.661368" lon="-75.068466">
        <ele>1777.7056</ele>
        <time>2021-11-14T12:42:28Z</time>
      </trkpt>
      <trkpt lat="4.661368" lon="-75.068466">
        <ele>1777.6594</ele>
        <time>2021-11-14T12:42:29Z</time>
      </trkpt>
      <trkpt lat="4.661239" lon="-75.06855">
        <ele>1777.8164</ele>
        <time>2021-11-14T12:42:30Z</time>
      </trkpt>
      <trkpt lat="4.661158" lon="-75.068611">
        <ele>1778.0527</ele>
        <time>2021-11-14T12:42:32Z</time>
      </trkpt>
      <trkpt lat="4.661062" lon="-75.068687">
        <ele>1779.3115</ele>
        <time>2021-11-14T12:42:33Z</time>
      </trkpt>
      <trkpt lat="4.660967" lon="-75.068756">
        <ele>1779.9736</ele>
        <time>2021-11-14T12:42:34Z</time>
      </trkpt>
      <trkpt lat="4.660881" lon="-75.068817">
        <ele>1779.9915</ele>
        <time>2021-11-14T12:42:35Z</time>
      </trkpt>
      <trkpt lat="4.660764" lon="-75.068871">
        <ele>1780.1731</ele>
        <time>2021-11-14T12:42:36Z</time>
      </trkpt>
      <trkpt lat="4.660647" lon="-75.068893">
        <ele>1781.3203</ele>
        <time>2021-11-14T12:42:37Z</time>
      </trkpt>
      <trkpt lat="4.66056" lon="-75.068893">
        <ele>1781.9275</ele>
        <time>2021-11-14T12:42:38Z</time>
      </trkpt>
      <trkpt lat="4.660464" lon="-75.068886">
        <ele>1781.9556</ele>
        <time>2021-11-14T12:42:39Z</time>
      </trkpt>
      <trkpt lat="4.660307" lon="-75.068863">
        <ele>1782.9829</ele>
        <time>2021-11-14T12:42:40Z</time>
      </trkpt>
      <trkpt lat="4.660169" lon="-75.068855">
        <ele>1784.8064</ele>
        <time>2021-11-14T12:42:41Z</time>
      </trkpt>
      <trkpt lat="4.660079" lon="-75.068855">
        <ele>1785.9968</ele>
        <time>2021-11-14T12:42:42Z</time>
      </trkpt>
      <trkpt lat="4.660006" lon="-75.068863">
        <ele>1786.0195</ele>
        <time>2021-11-14T12:42:43Z</time>
      </trkpt>
      <trkpt lat="4.659907" lon="-75.068893">
        <ele>1786.4395</ele>
        <time>2021-11-14T12:42:44Z</time>
      </trkpt>
      <trkpt lat="4.659833" lon="-75.068939">
        <ele>1786.4316</ele>
        <time>2021-11-14T12:42:45Z</time>
      </trkpt>
      <trkpt lat="4.65979" lon="-75.069">
        <ele>1787.321</ele>
        <time>2021-11-14T12:42:46Z</time>
      </trkpt>
      <trkpt lat="4.659761" lon="-75.069092">
        <ele>1787.7256</ele>
        <time>2021-11-14T12:42:47Z</time>
      </trkpt>
      <trkpt lat="4.659771" lon="-75.069183">
        <ele>1787.6411</ele>
        <time>2021-11-14T12:42:48Z</time>
      </trkpt>
      <trkpt lat="4.659859" lon="-75.069298">
        <ele>1788.4971</ele>
        <time>2021-11-14T12:42:49Z</time>
      </trkpt>
      <trkpt lat="4.65997" lon="-75.069382">
        <ele>1789.9038</ele>
        <time>2021-11-14T12:42:50Z</time>
      </trkpt>
      <trkpt lat="4.66005" lon="-75.069443">
        <ele>1790.6909</ele>
        <time>2021-11-14T12:42:51Z</time>
      </trkpt>
      <trkpt lat="4.66016" lon="-75.069542">
        <ele>1790.7212</ele>
        <time>2021-11-14T12:42:52Z</time>
      </trkpt>
      <trkpt lat="4.660206" lon="-75.069595">
        <ele>1791.3496</ele>
        <time>2021-11-14T12:42:53Z</time>
      </trkpt>
      <trkpt lat="4.660238" lon="-75.069664">
        <ele>1792.4956</ele>
        <time>2021-11-14T12:42:54Z</time>
      </trkpt>
      <trkpt lat="4.660256" lon="-75.069756">
        <ele>1793.0845</ele>
        <time>2021-11-14T12:42:55Z</time>
      </trkpt>
      <trkpt lat="4.660258" lon="-75.069832">
        <ele>1793.2117</ele>
        <time>2021-11-14T12:42:56Z</time>
      </trkpt>
      <trkpt lat="4.660254" lon="-75.069893">
        <ele>1794.3794</ele>
        <time>2021-11-14T12:42:57Z</time>
      </trkpt>
      <trkpt lat="4.660237" lon="-75.070038">
        <ele>1794.7021</ele>
        <time>2021-11-14T12:42:58Z</time>
      </trkpt>
      <trkpt lat="4.660221" lon="-75.070107">
        <ele>1795.188</ele>
        <time>2021-11-14T12:42:59Z</time>
      </trkpt>
      <trkpt lat="4.660198" lon="-75.070206">
        <ele>1795.2476</ele>
        <time>2021-11-14T12:43:00Z</time>
      </trkpt>
      <trkpt lat="4.660198" lon="-75.070206">
        <ele>1795.5945</ele>
        <time>2021-11-14T12:43:01Z</time>
      </trkpt>
      <trkpt lat="4.660175" lon="-75.07032">
        <ele>1796.8271</ele>
        <time>2021-11-14T12:43:02Z</time>
      </trkpt>
      <trkpt lat="4.660171" lon="-75.070457">
        <ele>1797.1958</ele>
        <time>2021-11-14T12:43:03Z</time>
      </trkpt>
      <trkpt lat="4.660187" lon="-75.070572">
        <ele>1797.5552</ele>
        <time>2021-11-14T12:43:04Z</time>
      </trkpt>
      <trkpt lat="4.660213" lon="-75.070709">
        <ele>1798.1274</ele>
        <time>2021-11-14T12:43:05Z</time>
      </trkpt>
      <trkpt lat="4.660235" lon="-75.070831">
        <ele>1799.3857</ele>
        <time>2021-11-14T12:43:06Z</time>
      </trkpt>
      <trkpt lat="4.660245" lon="-75.07093">
        <ele>1799.7661</ele>
        <time>2021-11-14T12:43:07Z</time>
      </trkpt>
      <trkpt lat="4.66025" lon="-75.071045">
        <ele>1800.04</ele>
        <time>2021-11-14T12:43:08Z</time>
      </trkpt>
      <trkpt lat="4.660237" lon="-75.071152">
        <ele>1800.9497</ele>
        <time>2021-11-14T12:43:09Z</time>
      </trkpt>
      <trkpt lat="4.660188" lon="-75.071251">
        <ele>1801.5027</ele>
        <time>2021-11-14T12:43:10Z</time>
      </trkpt>
      <trkpt lat="4.660105" lon="-75.07135">
        <ele>1801.9673</ele>
        <time>2021-11-14T12:43:11Z</time>
      </trkpt>
      <trkpt lat="4.660032" lon="-75.071434">
        <ele>1802.0564</ele>
        <time>2021-11-14T12:43:12Z</time>
      </trkpt>
      <trkpt lat="4.659932" lon="-75.071541">
        <ele>1802.2603</ele>
        <time>2021-11-14T12:43:13Z</time>
      </trkpt>
      <trkpt lat="4.659808" lon="-75.071655">
        <ele>1802.282</ele>
        <time>2021-11-14T12:43:14Z</time>
      </trkpt>
      <trkpt lat="4.659705" lon="-75.071739">
        <ele>1802.4878</ele>
        <time>2021-11-14T12:43:15Z</time>
      </trkpt>
      <trkpt lat="4.659583" lon="-75.071846">
        <ele>1802.8843</ele>
        <time>2021-11-14T12:43:16Z</time>
      </trkpt>
      <trkpt lat="4.659437" lon="-75.071968">
        <ele>1803.2505</ele>
        <time>2021-11-14T12:43:17Z</time>
      </trkpt>
      <trkpt lat="4.659258" lon="-75.072105">
        <ele>1803.8772</ele>
        <time>2021-11-14T12:43:18Z</time>
      </trkpt>
      <trkpt lat="4.659147" lon="-75.072197">
        <ele>1804.2974</ele>
        <time>2021-11-14T12:43:19Z</time>
      </trkpt>
      <trkpt lat="4.658997" lon="-75.072311">
        <ele>1804.7749</ele>
        <time>2021-11-14T12:43:20Z</time>
      </trkpt>
      <trkpt lat="4.658887" lon="-75.072403">
        <ele>1805.3774</ele>
        <time>2021-11-14T12:43:21Z</time>
      </trkpt>
      <trkpt lat="4.658738" lon="-75.07254">
        <ele>1805.9941</ele>
        <time>2021-11-14T12:43:22Z</time>
      </trkpt>
      <trkpt lat="4.658631" lon="-75.072647">
        <ele>1806.8035</ele>
        <time>2021-11-14T12:43:23Z</time>
      </trkpt>
      <trkpt lat="4.658631" lon="-75.072647">
        <ele>1807.4724</ele>
        <time>2021-11-14T12:43:24Z</time>
      </trkpt>
      <trkpt lat="4.658558" lon="-75.072723">
        <ele>1807.669</ele>
        <time>2021-11-14T12:43:25Z</time>
      </trkpt>
      <trkpt lat="4.658484" lon="-75.07283">
        <ele>1808.206</ele>
        <time>2021-11-14T12:43:26Z</time>
      </trkpt>
      <trkpt lat="4.658386" lon="-75.073044">
        <ele>1808.4546</ele>
        <time>2021-11-14T12:43:27Z</time>
      </trkpt>
      <trkpt lat="4.658368" lon="-75.073166">
        <ele>1808.2998</ele>
        <time>2021-11-14T12:43:28Z</time>
      </trkpt>
      <trkpt lat="4.658363" lon="-75.073303">
        <ele>1808.5098</ele>
        <time>2021-11-14T12:43:29Z</time>
      </trkpt>
      <trkpt lat="4.658362" lon="-75.073364">
        <ele>1809.0879</ele>
        <time>2021-11-14T12:43:31Z</time>
      </trkpt>
      <trkpt lat="4.658361" lon="-75.073395">
        <ele>1809.4507</ele>
        <time>2021-11-14T12:43:32Z</time>
      </trkpt>
      <trkpt lat="4.658359" lon="-75.073463">
        <ele>1809.148</ele>
        <time>2021-11-14T12:43:33Z</time>
      </trkpt>
      <trkpt lat="4.658353" lon="-75.073532">
        <ele>1809.29</ele>
        <time>2021-11-14T12:43:34Z</time>
      </trkpt>
      <trkpt lat="4.658338" lon="-75.073647">
        <ele>1808.614</ele>
        <time>2021-11-14T12:43:35Z</time>
      </trkpt>
      <trkpt lat="4.658303" lon="-75.073814">
        <ele>1808.3567</ele>
        <time>2021-11-14T12:43:36Z</time>
      </trkpt>
      <trkpt lat="4.658274" lon="-75.073921">
        <ele>1807.5073</ele>
        <time>2021-11-14T12:43:37Z</time>
      </trkpt>
      <trkpt lat="4.658232" lon="-75.07402">
        <ele>1807.3989</ele>
        <time>2021-11-14T12:43:38Z</time>
      </trkpt>
      <trkpt lat="4.658152" lon="-75.074127">
        <ele>1806.8486</ele>
        <time>2021-11-14T12:43:39Z</time>
      </trkpt>
      <trkpt lat="4.65811" lon="-75.074158">
        <ele>1807.1445</ele>
        <time>2021-11-14T12:43:40Z</time>
      </trkpt>
      <trkpt lat="4.658093" lon="-75.074173">
        <ele>1806.294</ele>
        <time>2021-11-14T12:43:41Z</time>
      </trkpt>
      <trkpt lat="4.658004" lon="-75.074219">
        <ele>1805.7935</ele>
        <time>2021-11-14T12:43:42Z</time>
      </trkpt>
      <trkpt lat="4.657873" lon="-75.07428">
        <ele>1805.3652</ele>
        <time>2021-11-14T12:43:43Z</time>
      </trkpt>
      <trkpt lat="4.657716" lon="-75.074341">
        <ele>1805.5635</ele>
        <time>2021-11-14T12:43:44Z</time>
      </trkpt>
      <trkpt lat="4.657614" lon="-75.074394">
        <ele>1804.9292</ele>
        <time>2021-11-14T12:43:45Z</time>
      </trkpt>
      <trkpt lat="4.657485" lon="-75.074501">
        <ele>1804.9551</ele>
        <time>2021-11-14T12:43:46Z</time>
      </trkpt>
      <trkpt lat="4.657366" lon="-75.074554">
        <ele>1805.2998</ele>
        <time>2021-11-14T12:43:47Z</time>
      </trkpt>
      <trkpt lat="4.657228" lon="-75.074608">
        <ele>1805.55</ele>
        <time>2021-11-14T12:43:48Z</time>
      </trkpt>
      <trkpt lat="4.657101" lon="-75.074677">
        <ele>1805.4233</ele>
        <time>2021-11-14T12:43:49Z</time>
      </trkpt>
      <trkpt lat="4.656954" lon="-75.074738">
        <ele>1806.5078</ele>
        <time>2021-11-14T12:43:50Z</time>
      </trkpt>
      <trkpt lat="4.656837" lon="-75.074776">
        <ele>1806.3066</ele>
        <time>2021-11-14T12:43:51Z</time>
      </trkpt>
      <trkpt lat="4.656837" lon="-75.074776">
        <ele>1806.8223</ele>
        <time>2021-11-14T12:43:52Z</time>
      </trkpt>
      <trkpt lat="4.656698" lon="-75.074806">
        <ele>1807.6614</ele>
        <time>2021-11-14T12:43:53Z</time>
      </trkpt>
      <trkpt lat="4.65656" lon="-75.074837">
        <ele>1808.9612</ele>
        <time>2021-11-14T12:43:54Z</time>
      </trkpt>
      <trkpt lat="4.656421" lon="-75.074844">
        <ele>1810.1963</ele>
        <time>2021-11-14T12:43:55Z</time>
      </trkpt>
      <trkpt lat="4.656319" lon="-75.074867">
        <ele>1811.1411</ele>
        <time>2021-11-14T12:43:56Z</time>
      </trkpt>
      <trkpt lat="4.656229" lon="-75.074898">
        <ele>1811.9355</ele>
        <time>2021-11-14T12:43:57Z</time>
      </trkpt>
      <trkpt lat="4.656104" lon="-75.074944">
        <ele>1812.6194</ele>
        <time>2021-11-14T12:43:58Z</time>
      </trkpt>
      <trkpt lat="4.65603" lon="-75.074974">
        <ele>1812.9873</ele>
        <time>2021-11-14T12:43:59Z</time>
      </trkpt>
      <trkpt lat="4.655967" lon="-75.07502">
        <ele>1812.9065</ele>
        <time>2021-11-14T12:44:00Z</time>
      </trkpt>
      <trkpt lat="4.655898" lon="-75.075073">
        <ele>1812.3516</ele>
        <time>2021-11-14T12:44:01Z</time>
      </trkpt>
      <trkpt lat="4.655836" lon="-75.075134">
        <ele>1811.7778</ele>
        <time>2021-11-14T12:44:02Z</time>
      </trkpt>
      <trkpt lat="4.655754" lon="-75.075241">
        <ele>1811.1787</ele>
        <time>2021-11-14T12:44:03Z</time>
      </trkpt>
      <trkpt lat="4.655682" lon="-75.075356">
        <ele>1809.9224</ele>
        <time>2021-11-14T12:44:04Z</time>
      </trkpt>
      <trkpt lat="4.655604" lon="-75.075485">
        <ele>1809.3682</ele>
        <time>2021-11-14T12:44:05Z</time>
      </trkpt>
      <trkpt lat="4.655532" lon="-75.075562">
        <ele>1808.3423</ele>
        <time>2021-11-14T12:44:06Z</time>
      </trkpt>
      <trkpt lat="4.655409" lon="-75.075684">
        <ele>1807.2119</ele>
        <time>2021-11-14T12:44:07Z</time>
      </trkpt>
      <trkpt lat="4.655274" lon="-75.07579">
        <ele>1805.9517</ele>
        <time>2021-11-14T12:44:08Z</time>
      </trkpt>
      <trkpt lat="4.655114" lon="-75.075897">
        <ele>1805.3589</ele>
        <time>2021-11-14T12:44:09Z</time>
      </trkpt>
      <trkpt lat="4.654944" lon="-75.075974">
        <ele>1804.5308</ele>
        <time>2021-11-14T12:44:10Z</time>
      </trkpt>
      <trkpt lat="4.654828" lon="-75.076012">
        <ele>1803.8462</ele>
        <time>2021-11-14T12:44:11Z</time>
      </trkpt>
      <trkpt lat="4.654718" lon="-75.076027">
        <ele>1803.3076</ele>
        <time>2021-11-14T12:44:12Z</time>
      </trkpt>
      <trkpt lat="4.654608" lon="-75.076012">
        <ele>1802.7747</ele>
        <time>2021-11-14T12:44:13Z</time>
      </trkpt>
      <trkpt lat="4.654511" lon="-75.075989">
        <ele>1802.6792</ele>
        <time>2021-11-14T12:44:14Z</time>
      </trkpt>
      <trkpt lat="4.654422" lon="-75.075958">
        <ele>1802.5933</ele>
        <time>2021-11-14T12:44:15Z</time>
      </trkpt>
      <trkpt lat="4.654254" lon="-75.075912">
        <ele>1802.9321</ele>
        <time>2021-11-14T12:44:16Z</time>
      </trkpt>
      <trkpt lat="4.65411" lon="-75.075905">
        <ele>1802.5605</ele>
        <time>2021-11-14T12:44:17Z</time>
      </trkpt>
      <trkpt lat="4.65411" lon="-75.075905">
        <ele>1802.8765</ele>
        <time>2021-11-14T12:44:18Z</time>
      </trkpt>
      <trkpt lat="4.654049" lon="-75.075912">
        <ele>1802.554</ele>
        <time>2021-11-14T12:44:19Z</time>
      </trkpt>
      <trkpt lat="4.653952" lon="-75.075943">
        <ele>1803.6558</ele>
        <time>2021-11-14T12:44:20Z</time>
      </trkpt>
      <trkpt lat="4.653849" lon="-75.075996">
        <ele>1804.0005</ele>
        <time>2021-11-14T12:44:21Z</time>
      </trkpt>
      <trkpt lat="4.653759" lon="-75.076057">
        <ele>1804.8533</ele>
        <time>2021-11-14T12:44:22Z</time>
      </trkpt>
      <trkpt lat="4.65368" lon="-75.076141">
        <ele>1805.8931</ele>
        <time>2021-11-14T12:44:23Z</time>
      </trkpt>
      <trkpt lat="4.653611" lon="-75.076271">
        <ele>1806.6238</ele>
        <time>2021-11-14T12:44:24Z</time>
      </trkpt>
      <trkpt lat="4.653558" lon="-75.076439">
        <ele>1807.627</ele>
        <time>2021-11-14T12:44:25Z</time>
      </trkpt>
      <trkpt lat="4.653502" lon="-75.076599">
        <ele>1808.5742</ele>
        <time>2021-11-14T12:44:26Z</time>
      </trkpt>
      <trkpt lat="4.653433" lon="-75.076721">
        <ele>1809.3892</ele>
        <time>2021-11-14T12:44:27Z</time>
      </trkpt>
      <trkpt lat="4.653349" lon="-75.076828">
        <ele>1809.9463</ele>
        <time>2021-11-14T12:44:28Z</time>
      </trkpt>
      <trkpt lat="4.653249" lon="-75.076927">
        <ele>1809.8865</ele>
        <time>2021-11-14T12:44:29Z</time>
      </trkpt>
      <trkpt lat="4.653146" lon="-75.076988">
        <ele>1810.7397</ele>
        <time>2021-11-14T12:44:30Z</time>
      </trkpt>
      <trkpt lat="4.653071" lon="-75.077003">
        <ele>1812.0071</ele>
        <time>2021-11-14T12:44:31Z</time>
      </trkpt>
      <trkpt lat="4.652977" lon="-75.076996">
        <ele>1814.1145</ele>
        <time>2021-11-14T12:44:32Z</time>
      </trkpt>
      <trkpt lat="4.652879" lon="-75.076988">
        <ele>1815.4346</ele>
        <time>2021-11-14T12:44:33Z</time>
      </trkpt>
      <trkpt lat="4.652773" lon="-75.076981">
        <ele>1816.9026</ele>
        <time>2021-11-14T12:44:34Z</time>
      </trkpt>
      <trkpt lat="4.652558" lon="-75.076965">
        <ele>1818.5806</ele>
        <time>2021-11-14T12:44:35Z</time>
      </trkpt>
      <trkpt lat="4.652439" lon="-75.076958">
        <ele>1819.446</ele>
        <time>2021-11-14T12:44:36Z</time>
      </trkpt>
      <trkpt lat="4.652356" lon="-75.076958">
        <ele>1819.8384</ele>
        <time>2021-11-14T12:44:37Z</time>
      </trkpt>
      <trkpt lat="4.652197" lon="-75.076981">
        <ele>1821.7407</ele>
        <time>2021-11-14T12:44:38Z</time>
      </trkpt>
      <trkpt lat="4.652005" lon="-75.077034">
        <ele>1822.9385</ele>
        <time>2021-11-14T12:44:39Z</time>
      </trkpt>
      <trkpt lat="4.651847" lon="-75.077087">
        <ele>1825.0242</ele>
        <time>2021-11-14T12:44:40Z</time>
      </trkpt>
      <trkpt lat="4.651749" lon="-75.077126">
        <ele>1826.3496</ele>
        <time>2021-11-14T12:44:41Z</time>
      </trkpt>
      <trkpt lat="4.651649" lon="-75.077179">
        <ele>1827.7942</ele>
        <time>2021-11-14T12:44:42Z</time>
      </trkpt>
      <trkpt lat="4.651545" lon="-75.077248">
        <ele>1828.7876</ele>
        <time>2021-11-14T12:44:43Z</time>
      </trkpt>
      <trkpt lat="4.651493" lon="-75.077339">
        <ele>1830.7705</ele>
        <time>2021-11-14T12:44:44Z</time>
      </trkpt>
      <trkpt lat="4.651502" lon="-75.077438">
        <ele>1831.4043</ele>
        <time>2021-11-14T12:44:45Z</time>
      </trkpt>
      <trkpt lat="4.651526" lon="-75.077614">
        <ele>1831.9141</ele>
        <time>2021-11-14T12:44:47Z</time>
      </trkpt>
      <trkpt lat="4.651526" lon="-75.077614">
        <ele>1832.6387</ele>
        <time>2021-11-14T12:44:48Z</time>
      </trkpt>
      <trkpt lat="4.651516" lon="-75.077675">
        <ele>1832.8279</ele>
        <time>2021-11-14T12:44:49Z</time>
      </trkpt>
      <trkpt lat="4.651504" lon="-75.077721">
        <ele>1833.0015</ele>
        <time>2021-11-14T12:44:50Z</time>
      </trkpt>
      <trkpt lat="4.651475" lon="-75.077782">
        <ele>1833.9312</ele>
        <time>2021-11-14T12:44:51Z</time>
      </trkpt>
      <trkpt lat="4.651423" lon="-75.07782">
        <ele>1834.2544</ele>
        <time>2021-11-14T12:44:52Z</time>
      </trkpt>
      <trkpt lat="4.651325" lon="-75.077843">
        <ele>1835.2852</ele>
        <time>2021-11-14T12:44:53Z</time>
      </trkpt>
      <trkpt lat="4.651231" lon="-75.077858">
        <ele>1835.8992</ele>
        <time>2021-11-14T12:44:54Z</time>
      </trkpt>
      <trkpt lat="4.651154" lon="-75.077858">
        <ele>1836.3652</ele>
        <time>2021-11-14T12:44:55Z</time>
      </trkpt>
      <trkpt lat="4.651095" lon="-75.077866">
        <ele>1837.2417</ele>
        <time>2021-11-14T12:44:56Z</time>
      </trkpt>
      <trkpt lat="4.651035" lon="-75.077866">
        <ele>1837.6494</ele>
        <time>2021-11-14T12:44:57Z</time>
      </trkpt>
      <trkpt lat="4.650968" lon="-75.077866">
        <ele>1837.5347</ele>
        <time>2021-11-14T12:44:58Z</time>
      </trkpt>
      <trkpt lat="4.650894" lon="-75.077858">
        <ele>1838.5371</ele>
        <time>2021-11-14T12:44:59Z</time>
      </trkpt>
      <trkpt lat="4.650807" lon="-75.07785">
        <ele>1839.4878</ele>
        <time>2021-11-14T12:45:00Z</time>
      </trkpt>
      <trkpt lat="4.650679" lon="-75.077782">
        <ele>1840.2212</ele>
        <time>2021-11-14T12:45:01Z</time>
      </trkpt>
      <trkpt lat="4.650606" lon="-75.077698">
        <ele>1841.5371</ele>
        <time>2021-11-14T12:45:02Z</time>
      </trkpt>
      <trkpt lat="4.650595" lon="-75.077675">
        <ele>1841.9468</ele>
        <time>2021-11-14T12:45:03Z</time>
      </trkpt>
      <trkpt lat="4.650568" lon="-75.077637">
        <ele>1842.1287</ele>
        <time>2021-11-14T12:45:04Z</time>
      </trkpt>
      <trkpt lat="4.650522" lon="-75.077545">
        <ele>1842.7947</ele>
        <time>2021-11-14T12:45:05Z</time>
      </trkpt>
      <trkpt lat="4.650492" lon="-75.077477">
        <ele>1843.0017</ele>
        <time>2021-11-14T12:45:06Z</time>
      </trkpt>
      <trkpt lat="4.650452" lon="-75.077377">
        <ele>1844.3037</ele>
        <time>2021-11-14T12:45:07Z</time>
      </trkpt>
      <trkpt lat="4.650388" lon="-75.077217">
        <ele>1844.6418</ele>
        <time>2021-11-14T12:45:08Z</time>
      </trkpt>
      <trkpt lat="4.650328" lon="-75.077087">
        <ele>1845.5884</ele>
        <time>2021-11-14T12:45:09Z</time>
      </trkpt>
      <trkpt lat="4.650279" lon="-75.076996">
        <ele>1846.5483</ele>
        <time>2021-11-14T12:45:10Z</time>
      </trkpt>
      <trkpt lat="4.650217" lon="-75.076927">
        <ele>1846.8569</ele>
        <time>2021-11-14T12:45:11Z</time>
      </trkpt>
      <trkpt lat="4.650217" lon="-75.076927">
        <ele>1847.4307</ele>
        <time>2021-11-14T12:45:12Z</time>
      </trkpt>
      <trkpt lat="4.65009" lon="-75.076843">
        <ele>1847.8135</ele>
        <time>2021-11-14T12:45:13Z</time>
      </trkpt>
      <trkpt lat="4.649998" lon="-75.07682">
        <ele>1848.7222</ele>
        <time>2021-11-14T12:45:14Z</time>
      </trkpt>
      <trkpt lat="4.649941" lon="-75.076813">
        <ele>1849.4553</ele>
        <time>2021-11-14T12:45:15Z</time>
      </trkpt>
      <trkpt lat="4.649858" lon="-75.07682">
        <ele>1850.2898</ele>
        <time>2021-11-14T12:45:16Z</time>
      </trkpt>
      <trkpt lat="4.649738" lon="-75.076881">
        <ele>1851.1235</ele>
        <time>2021-11-14T12:45:17Z</time>
      </trkpt>
      <trkpt lat="4.649627" lon="-75.076965">
        <ele>1852.5532</ele>
        <time>2021-11-14T12:45:18Z</time>
      </trkpt>
      <trkpt lat="4.64952" lon="-75.077065">
        <ele>1853.6812</ele>
        <time>2021-11-14T12:45:19Z</time>
      </trkpt>
      <trkpt lat="4.649424" lon="-75.077171">
        <ele>1854.6082</ele>
        <time>2021-11-14T12:45:20Z</time>
      </trkpt>
      <trkpt lat="4.649362" lon="-75.077232">
        <ele>1855.6318</ele>
        <time>2021-11-14T12:45:21Z</time>
      </trkpt>
      <trkpt lat="4.649308" lon="-75.077293">
        <ele>1855.6265</ele>
        <time>2021-11-14T12:45:22Z</time>
      </trkpt>
      <trkpt lat="4.649271" lon="-75.077408">
        <ele>1856.1902</ele>
        <time>2021-11-14T12:45:23Z</time>
      </trkpt>
      <trkpt lat="4.649263" lon="-75.077507">
        <ele>1857.022</ele>
        <time>2021-11-14T12:45:24Z</time>
      </trkpt>
      <trkpt lat="4.64928" lon="-75.077644">
        <ele>1857.6079</ele>
        <time>2021-11-14T12:45:25Z</time>
      </trkpt>
      <trkpt lat="4.649296" lon="-75.077797">
        <ele>1858.3245</ele>
        <time>2021-11-14T12:45:26Z</time>
      </trkpt>
      <trkpt lat="4.64928" lon="-75.077957">
        <ele>1858.8037</ele>
        <time>2021-11-14T12:45:27Z</time>
      </trkpt>
      <trkpt lat="4.649234" lon="-75.078041">
        <ele>1859.4341</ele>
        <time>2021-11-14T12:45:28Z</time>
      </trkpt>
      <trkpt lat="4.64919" lon="-75.07811">
        <ele>1859.6692</ele>
        <time>2021-11-14T12:45:29Z</time>
      </trkpt>
      <trkpt lat="4.649113" lon="-75.078201">
        <ele>1859.2759</ele>
        <time>2021-11-14T12:45:30Z</time>
      </trkpt>
      <trkpt lat="4.649057" lon="-75.078247">
        <ele>1860.7412</ele>
        <time>2021-11-14T12:45:31Z</time>
      </trkpt>
      <trkpt lat="4.648977" lon="-75.078308">
        <ele>1862.9028</ele>
        <time>2021-11-14T12:45:32Z</time>
      </trkpt>
      <trkpt lat="4.648877" lon="-75.078362">
        <ele>1863.2314</ele>
        <time>2021-11-14T12:45:33Z</time>
      </trkpt>
      <trkpt lat="4.648682" lon="-75.078369">
        <ele>1864.2134</ele>
        <time>2021-11-14T12:45:34Z</time>
      </trkpt>
      <trkpt lat="4.648502" lon="-75.078377">
        <ele>1865.7241</ele>
        <time>2021-11-14T12:45:35Z</time>
      </trkpt>
      <trkpt lat="4.648412" lon="-75.078423">
        <ele>1866.697</ele>
        <time>2021-11-14T12:45:36Z</time>
      </trkpt>
      <trkpt lat="4.648333" lon="-75.078491">
        <ele>1867.8352</ele>
        <time>2021-11-14T12:45:37Z</time>
      </trkpt>
      <trkpt lat="4.648301" lon="-75.078529">
        <ele>1868.2285</ele>
        <time>2021-11-14T12:45:38Z</time>
      </trkpt>
      <trkpt lat="4.64828" lon="-75.078552">
        <ele>1868.3462</ele>
        <time>2021-11-14T12:45:39Z</time>
      </trkpt>
      <trkpt lat="4.648277" lon="-75.078552">
        <ele>1868.4219</ele>
        <time>2021-11-14T12:45:40Z</time>
      </trkpt>
      <trkpt lat="4.648255" lon="-75.078583">
        <ele>1868.6362</ele>
        <time>2021-11-14T12:45:41Z</time>
      </trkpt>
      <trkpt lat="4.648207" lon="-75.078636">
        <ele>1869.063</ele>
        <time>2021-11-14T12:45:42Z</time>
      </trkpt>
      <trkpt lat="4.648163" lon="-75.07869">
        <ele>1868.7029</ele>
        <time>2021-11-14T12:45:43Z</time>
      </trkpt>
      <trkpt lat="4.648163" lon="-75.07869">
        <ele>1868.9434</ele>
        <time>2021-11-14T12:45:44Z</time>
      </trkpt>
      <trkpt lat="4.648125" lon="-75.078751">
        <ele>1869.4331</ele>
        <time>2021-11-14T12:45:45Z</time>
      </trkpt>
      <trkpt lat="4.648092" lon="-75.078789">
        <ele>1870.575</ele>
        <time>2021-11-14T12:45:46Z</time>
      </trkpt>
      <trkpt lat="4.648047" lon="-75.078857">
        <ele>1871.7559</ele>
        <time>2021-11-14T12:45:47Z</time>
      </trkpt>
      <trkpt lat="4.648003" lon="-75.078918">
        <ele>1872.2693</ele>
        <time>2021-11-14T12:45:48Z</time>
      </trkpt>
      <trkpt lat="4.647976" lon="-75.078957">
        <ele>1873.2041</ele>
        <time>2021-11-14T12:45:49Z</time>
      </trkpt>
      <trkpt lat="4.647934" lon="-75.07901">
        <ele>1873.8328</ele>
        <time>2021-11-14T12:45:50Z</time>
      </trkpt>
      <trkpt lat="4.647865" lon="-75.079109">
        <ele>1875.1782</ele>
        <time>2021-11-14T12:45:51Z</time>
      </trkpt>
      <trkpt lat="4.647804" lon="-75.079193">
        <ele>1875.8757</ele>
        <time>2021-11-14T12:45:52Z</time>
      </trkpt>
      <trkpt lat="4.647762" lon="-75.079254">
        <ele>1876.4253</ele>
        <time>2021-11-14T12:45:53Z</time>
      </trkpt>
      <trkpt lat="4.647716" lon="-75.079315">
        <ele>1877.3115</ele>
        <time>2021-11-14T12:45:54Z</time>
      </trkpt>
      <trkpt lat="4.647614" lon="-75.079414">
        <ele>1878.3782</ele>
        <time>2021-11-14T12:45:55Z</time>
      </trkpt>
      <trkpt lat="4.647526" lon="-75.079498">
        <ele>1878.8965</ele>
        <time>2021-11-14T12:45:56Z</time>
      </trkpt>
      <trkpt lat="4.647446" lon="-75.079575">
        <ele>1879.5942</ele>
        <time>2021-11-14T12:45:57Z</time>
      </trkpt>
      <trkpt lat="4.647402" lon="-75.079628">
        <ele>1880.2495</ele>
        <time>2021-11-14T12:45:58Z</time>
      </trkpt>
      <trkpt lat="4.647374" lon="-75.079697">
        <ele>1880.9211</ele>
        <time>2021-11-14T12:45:59Z</time>
      </trkpt>
      <trkpt lat="4.647437" lon="-75.079811">
        <ele>1881.9238</ele>
        <time>2021-11-14T12:46:00Z</time>
      </trkpt>
      <trkpt lat="4.647505" lon="-75.07988">
        <ele>1882.2593</ele>
        <time>2021-11-14T12:46:01Z</time>
      </trkpt>
      <trkpt lat="4.647557" lon="-75.079933">
        <ele>1883.435</ele>
        <time>2021-11-14T12:46:03Z</time>
      </trkpt>
      <trkpt lat="4.647608" lon="-75.079987">
        <ele>1883.6904</ele>
        <time>2021-11-14T12:46:04Z</time>
      </trkpt>
      <trkpt lat="4.6477" lon="-75.08007">
        <ele>1884.4253</ele>
        <time>2021-11-14T12:46:05Z</time>
      </trkpt>
      <trkpt lat="4.647793" lon="-75.080154">
        <ele>1885.7905</ele>
        <time>2021-11-14T12:46:06Z</time>
      </trkpt>
      <trkpt lat="4.647895" lon="-75.080215">
        <ele>1887.1545</ele>
        <time>2021-11-14T12:46:07Z</time>
      </trkpt>
      <trkpt lat="4.64794" lon="-75.080231">
        <ele>1887.6958</ele>
        <time>2021-11-14T12:46:08Z</time>
      </trkpt>
      <trkpt lat="4.647975" lon="-75.080299">
        <ele>1887.6284</ele>
        <time>2021-11-14T12:46:09Z</time>
      </trkpt>
      <trkpt lat="4.647933" lon="-75.080444">
        <ele>1887.0847</ele>
        <time>2021-11-14T12:46:10Z</time>
      </trkpt>
      <trkpt lat="4.64787" lon="-75.080582">
        <ele>1887.8379</ele>
        <time>2021-11-14T12:46:11Z</time>
      </trkpt>
      <trkpt lat="4.647817" lon="-75.080673">
        <ele>1889.3945</ele>
        <time>2021-11-14T12:46:12Z</time>
      </trkpt>
      <trkpt lat="4.647736" lon="-75.080795">
        <ele>1892.3438</ele>
        <time>2021-11-14T12:46:13Z</time>
      </trkpt>
      <trkpt lat="4.647669" lon="-75.080864">
        <ele>1893.8655</ele>
        <time>2021-11-14T12:46:14Z</time>
      </trkpt>
      <trkpt lat="4.647568" lon="-75.08094">
        <ele>1895.2627</ele>
        <time>2021-11-14T12:46:15Z</time>
      </trkpt>
      <trkpt lat="4.647448" lon="-75.081024">
        <ele>1895.6406</ele>
        <time>2021-11-14T12:46:16Z</time>
      </trkpt>
      <trkpt lat="4.647358" lon="-75.081146">
        <ele>1896.6831</ele>
        <time>2021-11-14T12:46:17Z</time>
      </trkpt>
      <trkpt lat="4.647338" lon="-75.081207">
        <ele>1897.8896</ele>
        <time>2021-11-14T12:46:18Z</time>
      </trkpt>
      <trkpt lat="4.647318" lon="-75.081352">
        <ele>1898.8359</ele>
        <time>2021-11-14T12:46:19Z</time>
      </trkpt>
      <trkpt lat="4.6473" lon="-75.08152">
        <ele>1899.9849</ele>
        <time>2021-11-14T12:46:20Z</time>
      </trkpt>
      <trkpt lat="4.647246" lon="-75.081718">
        <ele>1899.9214</ele>
        <time>2021-11-14T12:46:21Z</time>
      </trkpt>
      <trkpt lat="4.647194" lon="-75.081886">
        <ele>1900.6548</ele>
        <time>2021-11-14T12:46:22Z</time>
      </trkpt>
      <trkpt lat="4.647147" lon="-75.082024">
        <ele>1902.8191</ele>
        <time>2021-11-14T12:46:23Z</time>
      </trkpt>
      <trkpt lat="4.647074" lon="-75.082176">
        <ele>1903.6108</ele>
        <time>2021-11-14T12:46:24Z</time>
      </trkpt>
      <trkpt lat="4.647013" lon="-75.08226">
        <ele>1904.6963</ele>
        <time>2021-11-14T12:46:25Z</time>
      </trkpt>
      <trkpt lat="4.646898" lon="-75.082352">
        <ele>1904.7256</ele>
        <time>2021-11-14T12:46:26Z</time>
      </trkpt>
      <trkpt lat="4.646797" lon="-75.082382">
        <ele>1905.8135</ele>
        <time>2021-11-14T12:46:27Z</time>
      </trkpt>
      <trkpt lat="4.646732" lon="-75.08239">
        <ele>1905.7456</ele>
        <time>2021-11-14T12:46:28Z</time>
      </trkpt>
      <trkpt lat="4.646586" lon="-75.082405">
        <ele>1907.2703</ele>
        <time>2021-11-14T12:46:29Z</time>
      </trkpt>
      <trkpt lat="4.646427" lon="-75.08242">
        <ele>1908.0872</ele>
        <time>2021-11-14T12:46:30Z</time>
      </trkpt>
      <trkpt lat="4.646255" lon="-75.08242">
        <ele>1910.291</ele>
        <time>2021-11-14T12:46:31Z</time>
      </trkpt>
      <trkpt lat="4.64609" lon="-75.08242">
        <ele>1909.5371</ele>
        <time>2021-11-14T12:46:32Z</time>
      </trkpt>
      <trkpt lat="4.645915" lon="-75.082413">
        <ele>1910.5835</ele>
        <time>2021-11-14T12:46:33Z</time>
      </trkpt>
      <trkpt lat="4.64567" lon="-75.08242">
        <ele>1910.5703</ele>
        <time>2021-11-14T12:46:34Z</time>
      </trkpt>
      <trkpt lat="4.645556" lon="-75.082436">
        <ele>1910.9985</ele>
        <time>2021-11-14T12:46:35Z</time>
      </trkpt>
      <trkpt lat="4.645398" lon="-75.082497">
        <ele>1911.5566</ele>
        <time>2021-11-14T12:46:36Z</time>
      </trkpt>
      <trkpt lat="4.645194" lon="-75.082596">
        <ele>1912.2881</ele>
        <time>2021-11-14T12:46:37Z</time>
      </trkpt>
      <trkpt lat="4.644985" lon="-75.08268">
        <ele>1912.6577</ele>
        <time>2021-11-14T12:46:38Z</time>
      </trkpt>
      <trkpt lat="4.644817" lon="-75.082733">
        <ele>1912.6641</ele>
        <time>2021-11-14T12:46:39Z</time>
      </trkpt>
      <trkpt lat="4.644652" lon="-75.082771">
        <ele>1913.002</ele>
        <time>2021-11-14T12:46:40Z</time>
      </trkpt>
      <trkpt lat="4.644517" lon="-75.082779">
        <ele>1912.9717</ele>
        <time>2021-11-14T12:46:41Z</time>
      </trkpt>
      <trkpt lat="4.644517" lon="-75.082779">
        <ele>1913.3594</ele>
        <time>2021-11-14T12:46:42Z</time>
      </trkpt>
      <trkpt lat="4.64441" lon="-75.082794">
        <ele>1913.2031</ele>
        <time>2021-11-14T12:46:43Z</time>
      </trkpt>
      <trkpt lat="4.644289" lon="-75.082802">
        <ele>1913.8286</ele>
        <time>2021-11-14T12:46:44Z</time>
      </trkpt>
      <trkpt lat="4.64414" lon="-75.082825">
        <ele>1914.0986</ele>
        <time>2021-11-14T12:46:45Z</time>
      </trkpt>
      <trkpt lat="4.643969" lon="-75.08287">
        <ele>1914.6597</ele>
        <time>2021-11-14T12:46:46Z</time>
      </trkpt>
      <trkpt lat="4.6438" lon="-75.082947">
        <ele>1914.4268</ele>
        <time>2021-11-14T12:46:47Z</time>
      </trkpt>
      <trkpt lat="4.643634" lon="-75.083023">
        <ele>1914.0281</ele>
        <time>2021-11-14T12:46:48Z</time>
      </trkpt>
      <trkpt lat="4.643468" lon="-75.083092">
        <ele>1914.3999</ele>
        <time>2021-11-14T12:46:49Z</time>
      </trkpt>
      <trkpt lat="4.643349" lon="-75.083138">
        <ele>1914.6008</ele>
        <time>2021-11-14T12:46:50Z</time>
      </trkpt>
      <trkpt lat="4.643213" lon="-75.083122">
        <ele>1914.1741</ele>
        <time>2021-11-14T12:46:51Z</time>
      </trkpt>
      <trkpt lat="4.643158" lon="-75.083076">
        <ele>1914.7739</ele>
        <time>2021-11-14T12:46:52Z</time>
      </trkpt>
      <trkpt lat="4.643131" lon="-75.083046">
        <ele>1914.4004</ele>
        <time>2021-11-14T12:46:53Z</time>
      </trkpt>
      <trkpt lat="4.643114" lon="-75.083023">
        <ele>1914.9302</ele>
        <time>2021-11-14T12:46:54Z</time>
      </trkpt>
      <trkpt lat="4.643062" lon="-75.082916">
        <ele>1914.1411</ele>
        <time>2021-11-14T12:46:55Z</time>
      </trkpt>
      <trkpt lat="4.643059" lon="-75.082863">
        <ele>1914.6213</ele>
        <time>2021-11-14T12:46:56Z</time>
      </trkpt>
      <trkpt lat="4.64308" lon="-75.082733">
        <ele>1914.9165</ele>
        <time>2021-11-14T12:46:57Z</time>
      </trkpt>
      <trkpt lat="4.64307" lon="-75.082619">
        <ele>1915.3867</ele>
        <time>2021-11-14T12:46:58Z</time>
      </trkpt>
      <trkpt lat="4.643058" lon="-75.082535">
        <ele>1915.834</ele>
        <time>2021-11-14T12:46:59Z</time>
      </trkpt>
      <trkpt lat="4.643042" lon="-75.082466">
        <ele>1916.3394</ele>
        <time>2021-11-14T12:47:00Z</time>
      </trkpt>
      <trkpt lat="4.643005" lon="-75.082405">
        <ele>1916.5828</ele>
        <time>2021-11-14T12:47:01Z</time>
      </trkpt>
      <trkpt lat="4.642903" lon="-75.082336">
        <ele>1917.6196</ele>
        <time>2021-11-14T12:47:02Z</time>
      </trkpt>
      <trkpt lat="4.64275" lon="-75.082314">
        <ele>1919.0715</ele>
        <time>2021-11-14T12:47:04Z</time>
      </trkpt>
      <trkpt lat="4.642607" lon="-75.082329">
        <ele>1919.9858</ele>
        <time>2021-11-14T12:47:05Z</time>
      </trkpt>
      <trkpt lat="4.642476" lon="-75.082359">
        <ele>1920.3291</ele>
        <time>2021-11-14T12:47:06Z</time>
      </trkpt>
      <trkpt lat="4.642394" lon="-75.08242">
        <ele>1921.0464</ele>
        <time>2021-11-14T12:47:07Z</time>
      </trkpt>
      <trkpt lat="4.642329" lon="-75.082535">
        <ele>1921.4478</ele>
        <time>2021-11-14T12:47:08Z</time>
      </trkpt>
      <trkpt lat="4.642292" lon="-75.082649">
        <ele>1921.2266</ele>
        <time>2021-11-14T12:47:09Z</time>
      </trkpt>
      <trkpt lat="4.642256" lon="-75.082779">
        <ele>1921.6079</ele>
        <time>2021-11-14T12:47:10Z</time>
      </trkpt>
      <trkpt lat="4.642247" lon="-75.082832">
        <ele>1922.292</ele>
        <time>2021-11-14T12:47:11Z</time>
      </trkpt>
      <trkpt lat="4.642233" lon="-75.082939">
        <ele>1921.9673</ele>
        <time>2021-11-14T12:47:12Z</time>
      </trkpt>
      <trkpt lat="4.64221" lon="-75.083099">
        <ele>1922.2739</ele>
        <time>2021-11-14T12:47:13Z</time>
      </trkpt>
      <trkpt lat="4.642181" lon="-75.083214">
        <ele>1923.2959</ele>
        <time>2021-11-14T12:47:14Z</time>
      </trkpt>
      <trkpt lat="4.64212" lon="-75.083313">
        <ele>1924.3203</ele>
        <time>2021-11-14T12:47:15Z</time>
      </trkpt>
      <trkpt lat="4.642043" lon="-75.083389">
        <ele>1924.3062</ele>
        <time>2021-11-14T12:47:16Z</time>
      </trkpt>
      <trkpt lat="4.641846" lon="-75.083466">
        <ele>1924.3477</ele>
        <time>2021-11-14T12:47:17Z</time>
      </trkpt>
      <trkpt lat="4.64171" lon="-75.083488">
        <ele>1924.2285</ele>
        <time>2021-11-14T12:47:18Z</time>
      </trkpt>
      <trkpt lat="4.641576" lon="-75.083504">
        <ele>1925.3584</ele>
        <time>2021-11-14T12:47:19Z</time>
      </trkpt>
      <trkpt lat="4.641576" lon="-75.083504">
        <ele>1926.5562</ele>
        <time>2021-11-14T12:47:20Z</time>
      </trkpt>
      <trkpt lat="4.641402" lon="-75.083519">
        <ele>1927.7356</ele>
        <time>2021-11-14T12:47:21Z</time>
      </trkpt>
      <trkpt lat="4.641279" lon="-75.083527">
        <ele>1928.6279</ele>
        <time>2021-11-14T12:47:22Z</time>
      </trkpt>
      <trkpt lat="4.641179" lon="-75.083542">
        <ele>1928.9785</ele>
        <time>2021-11-14T12:47:23Z</time>
      </trkpt>
      <trkpt lat="4.641082" lon="-75.083549">
        <ele>1929.1235</ele>
        <time>2021-11-14T12:47:24Z</time>
      </trkpt>
      <trkpt lat="4.640977" lon="-75.08358">
        <ele>1929.6367</ele>
        <time>2021-11-14T12:47:25Z</time>
      </trkpt>
      <trkpt lat="4.64089" lon="-75.083672">
        <ele>1929.9502</ele>
        <time>2021-11-14T12:47:26Z</time>
      </trkpt>
      <trkpt lat="4.64082" lon="-75.083832">
        <ele>1930.1484</ele>
        <time>2021-11-14T12:47:27Z</time>
      </trkpt>
      <trkpt lat="4.640812" lon="-75.083992">
        <ele>1930.4712</ele>
        <time>2021-11-14T12:47:28Z</time>
      </trkpt>
      <trkpt lat="4.640851" lon="-75.084099">
        <ele>1931.3328</ele>
        <time>2021-11-14T12:47:29Z</time>
      </trkpt>
      <trkpt lat="4.640915" lon="-75.084244">
        <ele>1931.0095</ele>
        <time>2021-11-14T12:47:30Z</time>
      </trkpt>
      <trkpt lat="4.640938" lon="-75.084435">
        <ele>1931.002</ele>
        <time>2021-11-14T12:47:31Z</time>
      </trkpt>
      <trkpt lat="4.640934" lon="-75.084564">
        <ele>1930.9331</ele>
        <time>2021-11-14T12:47:32Z</time>
      </trkpt>
      <trkpt lat="4.640929" lon="-75.084717">
        <ele>1931.9614</ele>
        <time>2021-11-14T12:47:33Z</time>
      </trkpt>
      <trkpt lat="4.640934" lon="-75.084816">
        <ele>1931.3276</ele>
        <time>2021-11-14T12:47:34Z</time>
      </trkpt>
      <trkpt lat="4.64094" lon="-75.08493">
        <ele>1931.5596</ele>
        <time>2021-11-14T12:47:35Z</time>
      </trkpt>
      <trkpt lat="4.640961" lon="-75.085075">
        <ele>1932.1753</ele>
        <time>2021-11-14T12:47:36Z</time>
      </trkpt>
      <trkpt lat="4.641017" lon="-75.085205">
        <ele>1932.7188</ele>
        <time>2021-11-14T12:47:37Z</time>
      </trkpt>
      <trkpt lat="4.641084" lon="-75.085335">
        <ele>1933.1335</ele>
        <time>2021-11-14T12:47:38Z</time>
      </trkpt>
      <trkpt lat="4.641118" lon="-75.085449">
        <ele>1933.7812</ele>
        <time>2021-11-14T12:47:39Z</time>
      </trkpt>
      <trkpt lat="4.641121" lon="-75.085556">
        <ele>1933.852</ele>
        <time>2021-11-14T12:47:40Z</time>
      </trkpt>
      <trkpt lat="4.641074" lon="-75.085678">
        <ele>1935.0647</ele>
        <time>2021-11-14T12:47:41Z</time>
      </trkpt>
      <trkpt lat="4.640999" lon="-75.085754">
        <ele>1935.6636</ele>
        <time>2021-11-14T12:47:42Z</time>
      </trkpt>
      <trkpt lat="4.6409" lon="-75.085823">
        <ele>1936.6753</ele>
        <time>2021-11-14T12:47:43Z</time>
      </trkpt>
      <trkpt lat="4.640778" lon="-75.085899">
        <ele>1936.7529</ele>
        <time>2021-11-14T12:47:44Z</time>
      </trkpt>
      <trkpt lat="4.640629" lon="-75.085976">
        <ele>1938.2021</ele>
        <time>2021-11-14T12:47:45Z</time>
      </trkpt>
      <trkpt lat="4.640492" lon="-75.086044">
        <ele>1939.4214</ele>
        <time>2021-11-14T12:47:46Z</time>
      </trkpt>
      <trkpt lat="4.640347" lon="-75.086113">
        <ele>1940.2703</ele>
        <time>2021-11-14T12:47:47Z</time>
      </trkpt>
      <trkpt lat="4.640209" lon="-75.086182">
        <ele>1939.5005</ele>
        <time>2021-11-14T12:47:48Z</time>
      </trkpt>
      <trkpt lat="4.640115" lon="-75.086227">
        <ele>1940.4985</ele>
        <time>2021-11-14T12:47:49Z</time>
      </trkpt>
      <trkpt lat="4.640115" lon="-75.086227">
        <ele>1941.1279</ele>
        <time>2021-11-14T12:47:50Z</time>
      </trkpt>
      <trkpt lat="4.639982" lon="-75.086296">
        <ele>1941.499</ele>
        <time>2021-11-14T12:47:51Z</time>
      </trkpt>
      <trkpt lat="4.639837" lon="-75.086388">
        <ele>1942.3418</ele>
        <time>2021-11-14T12:47:52Z</time>
      </trkpt>
      <trkpt lat="4.639731" lon="-75.086472">
        <ele>1943.4888</ele>
        <time>2021-11-14T12:47:53Z</time>
      </trkpt>
      <trkpt lat="4.639631" lon="-75.086578">
        <ele>1944.4495</ele>
        <time>2021-11-14T12:47:54Z</time>
      </trkpt>
      <trkpt lat="4.639543" lon="-75.086685">
        <ele>1946.0396</ele>
        <time>2021-11-14T12:47:55Z</time>
      </trkpt>
      <trkpt lat="4.639471" lon="-75.086777">
        <ele>1947.249</ele>
        <time>2021-11-14T12:47:56Z</time>
      </trkpt>
      <trkpt lat="4.639407" lon="-75.086853">
        <ele>1948.1221</ele>
        <time>2021-11-14T12:47:57Z</time>
      </trkpt>
      <trkpt lat="4.639336" lon="-75.086945">
        <ele>1948.7231</ele>
        <time>2021-11-14T12:47:58Z</time>
      </trkpt>
      <trkpt lat="4.639252" lon="-75.087051">
        <ele>1949.25</ele>
        <time>2021-11-14T12:47:59Z</time>
      </trkpt>
      <trkpt lat="4.639202" lon="-75.087105">
        <ele>1950.2114</ele>
        <time>2021-11-14T12:48:00Z</time>
      </trkpt>
      <trkpt lat="4.639116" lon="-75.087196">
        <ele>1950.6152</ele>
        <time>2021-11-14T12:48:01Z</time>
      </trkpt>
      <trkpt lat="4.639036" lon="-75.087257">
        <ele>1951.7283</ele>
        <time>2021-11-14T12:48:02Z</time>
      </trkpt>
      <trkpt lat="4.638986" lon="-75.087296">
        <ele>1952.5476</ele>
        <time>2021-11-14T12:48:03Z</time>
      </trkpt>
      <trkpt lat="4.638946" lon="-75.087311">
        <ele>1952.8472</ele>
        <time>2021-11-14T12:48:04Z</time>
      </trkpt>
      <trkpt lat="4.63885" lon="-75.087364">
        <ele>1953.4321</ele>
        <time>2021-11-14T12:48:05Z</time>
      </trkpt>
      <trkpt lat="4.638834" lon="-75.087372">
        <ele>1953.2129</ele>
        <time>2021-11-14T12:48:06Z</time>
      </trkpt>
      <trkpt lat="4.638737" lon="-75.087425">
        <ele>1953.5029</ele>
        <time>2021-11-14T12:48:07Z</time>
      </trkpt>
      <trkpt lat="4.638644" lon="-75.087479">
        <ele>1953.6846</ele>
        <time>2021-11-14T12:48:08Z</time>
      </trkpt>
      <trkpt lat="4.638535" lon="-75.08754">
        <ele>1953.5757</ele>
        <time>2021-11-14T12:48:09Z</time>
      </trkpt>
      <trkpt lat="4.638425" lon="-75.087608">
        <ele>1953.4238</ele>
        <time>2021-11-14T12:48:10Z</time>
      </trkpt>
      <trkpt lat="4.63834" lon="-75.087662">
        <ele>1954.0549</ele>
        <time>2021-11-14T12:48:11Z</time>
      </trkpt>
      <trkpt lat="4.638268" lon="-75.087708">
        <ele>1953.6667</ele>
        <time>2021-11-14T12:48:12Z</time>
      </trkpt>
      <trkpt lat="4.638205" lon="-75.087769">
        <ele>1953.8452</ele>
        <time>2021-11-14T12:48:13Z</time>
      </trkpt>
      <trkpt lat="4.63813" lon="-75.08786">
        <ele>1953.9089</ele>
        <time>2021-11-14T12:48:14Z</time>
      </trkpt>
      <trkpt lat="4.638084" lon="-75.087936">
        <ele>1954.0298</ele>
        <time>2021-11-14T12:48:15Z</time>
      </trkpt>
      <trkpt lat="4.638052" lon="-75.088005">
        <ele>1953.7329</ele>
        <time>2021-11-14T12:48:16Z</time>
      </trkpt>
      <trkpt lat="4.638014" lon="-75.088081">
        <ele>1953.6748</ele>
        <time>2021-11-14T12:48:17Z</time>
      </trkpt>
      <trkpt lat="4.637973" lon="-75.088173">
        <ele>1953.709</ele>
        <time>2021-11-14T12:48:19Z</time>
      </trkpt>
      <trkpt lat="4.637935" lon="-75.088226">
        <ele>1953.7439</ele>
        <time>2021-11-14T12:48:20Z</time>
      </trkpt>
      <trkpt lat="4.637885" lon="-75.088295">
        <ele>1953.5625</ele>
        <time>2021-11-14T12:48:21Z</time>
      </trkpt>
      <trkpt lat="4.637851" lon="-75.088341">
        <ele>1953.3882</ele>
        <time>2021-11-14T12:48:22Z</time>
      </trkpt>
      <trkpt lat="4.637825" lon="-75.088379">
        <ele>1953.6125</ele>
        <time>2021-11-14T12:48:23Z</time>
      </trkpt>
      <trkpt lat="4.637804" lon="-75.088409">
        <ele>1953.4478</ele>
        <time>2021-11-14T12:48:24Z</time>
      </trkpt>
      <trkpt lat="4.637804" lon="-75.088409">
        <ele>1953.5083</ele>
        <time>2021-11-14T12:48:25Z</time>
      </trkpt>
      <trkpt lat="4.637786" lon="-75.088432">
        <ele>1953.3921</ele>
        <time>2021-11-14T12:48:26Z</time>
      </trkpt>
      <trkpt lat="4.637769" lon="-75.088455">
        <ele>1953.1548</ele>
        <time>2021-11-14T12:48:27Z</time>
      </trkpt>
      <trkpt lat="4.637753" lon="-75.088478">
        <ele>1953.2512</ele>
        <time>2021-11-14T12:48:28Z</time>
      </trkpt>
      <trkpt lat="4.637749" lon="-75.088486">
        <ele>1953.2063</ele>
        <time>2021-11-14T12:48:29Z</time>
      </trkpt>
      <trkpt lat="4.637749" lon="-75.088486">
        <ele>1953.1543</ele>
        <time>2021-11-14T12:48:30Z</time>
      </trkpt>
      <trkpt lat="4.637749" lon="-75.088486">
        <ele>1953.0684</ele>
        <time>2021-11-14T12:48:31Z</time>
      </trkpt>
      <trkpt lat="4.637749" lon="-75.088486">
        <ele>1953.0283</ele>
        <time>2021-11-14T12:48:32Z</time>
      </trkpt>
      <trkpt lat="4.637749" lon="-75.088486">
        <ele>1953.1982</ele>
        <time>2021-11-14T12:48:33Z</time>
      </trkpt>
      <trkpt lat="4.637749" lon="-75.088486">
        <ele>1953.1572</ele>
        <time>2021-11-14T12:48:34Z</time>
      </trkpt>
      <trkpt lat="4.637749" lon="-75.088486">
        <ele>1953.1533</ele>
        <time>2021-11-14T12:48:35Z</time>
      </trkpt>
      <trkpt lat="4.637749" lon="-75.088486">
        <ele>1953.229</ele>
        <time>2021-11-14T12:48:36Z</time>
      </trkpt>
      <trkpt lat="4.637749" lon="-75.088486">
        <ele>1953.5232</ele>
        <time>2021-11-14T12:48:37Z</time>
      </trkpt>
      <trkpt lat="4.637749" lon="-75.088486">
        <ele>1953.7075</ele>
        <time>2021-11-14T12:48:38Z</time>
      </trkpt>
      <trkpt lat="4.637749" lon="-75.088486">
        <ele>1953.7039</ele>
        <time>2021-11-14T12:48:39Z</time>
      </trkpt>
      <trkpt lat="4.637749" lon="-75.088486">
        <ele>1953.7288</ele>
        <time>2021-11-14T12:48:40Z</time>
      </trkpt>
      <trkpt lat="4.637749" lon="-75.088486">
        <ele>1953.5144</ele>
        <time>2021-11-14T12:48:41Z</time>
      </trkpt>
      <trkpt lat="4.637737" lon="-75.088501">
        <ele>1953.52</ele>
        <time>2021-11-14T12:48:42Z</time>
      </trkpt>
      <trkpt lat="4.637675" lon="-75.0886">
        <ele>1953.0974</ele>
        <time>2021-11-14T12:48:43Z</time>
      </trkpt>
      <trkpt lat="4.637642" lon="-75.088669">
        <ele>1953.6255</ele>
        <time>2021-11-14T12:48:44Z</time>
      </trkpt>
      <trkpt lat="4.637621" lon="-75.088737">
        <ele>1953.6868</ele>
        <time>2021-11-14T12:48:45Z</time>
      </trkpt>
      <trkpt lat="4.637604" lon="-75.088791">
        <ele>1953.6956</ele>
        <time>2021-11-14T12:48:46Z</time>
      </trkpt>
      <trkpt lat="4.637583" lon="-75.088867">
        <ele>1953.4824</ele>
        <time>2021-11-14T12:48:47Z</time>
      </trkpt>
      <trkpt lat="4.637567" lon="-75.088936">
        <ele>1954.352</ele>
        <time>2021-11-14T12:48:48Z</time>
      </trkpt>
      <trkpt lat="4.637551" lon="-75.089043">
        <ele>1955.3774</ele>
        <time>2021-11-14T12:48:49Z</time>
      </trkpt>
      <trkpt lat="4.63754" lon="-75.089104">
        <ele>1957.9502</ele>
        <time>2021-11-14T12:48:50Z</time>
      </trkpt>
      <trkpt lat="4.637529" lon="-75.089172">
        <ele>1958.27</ele>
        <time>2021-11-14T12:48:51Z</time>
      </trkpt>
      <trkpt lat="4.637518" lon="-75.089241">
        <ele>1958.27</ele>
        <time>2021-11-14T12:48:52Z</time>
      </trkpt>
      <trkpt lat="4.637518" lon="-75.089241">
        <ele>1958.7312</ele>
        <time>2021-11-14T12:48:53Z</time>
      </trkpt>
      <trkpt lat="4.637513" lon="-75.089272">
        <ele>1958.5171</ele>
        <time>2021-11-14T12:48:54Z</time>
      </trkpt>
      <trkpt lat="4.637511" lon="-75.089287">
        <ele>1959.8491</ele>
        <time>2021-11-14T12:48:55Z</time>
      </trkpt>
      <trkpt lat="4.637499" lon="-75.089355">
        <ele>1959.8491</ele>
        <time>2021-11-14T12:48:56Z</time>
      </trkpt>
      <trkpt lat="4.637478" lon="-75.089462">
        <ele>1962.1348</ele>
        <time>2021-11-14T12:48:57Z</time>
      </trkpt>
      <trkpt lat="4.637462" lon="-75.089523">
        <ele>1962.1348</ele>
        <time>2021-11-14T12:48:58Z</time>
      </trkpt>
      <trkpt lat="4.637448" lon="-75.089577">
        <ele>1962.3325</ele>
        <time>2021-11-14T12:48:59Z</time>
      </trkpt>
      <trkpt lat="4.637442" lon="-75.089592">
        <ele>1961.8711</ele>
        <time>2021-11-14T12:49:00Z</time>
      </trkpt>
      <trkpt lat="4.637429" lon="-75.089645">
        <ele>1962.5103</ele>
        <time>2021-11-14T12:49:01Z</time>
      </trkpt>
      <trkpt lat="4.637404" lon="-75.089737">
        <ele>1964.0137</ele>
        <time>2021-11-14T12:49:02Z</time>
      </trkpt>
      <trkpt lat="4.637367" lon="-75.089851">
        <ele>1964.3291</ele>
        <time>2021-11-14T12:49:03Z</time>
      </trkpt>
      <trkpt lat="4.637345" lon="-75.089905">
        <ele>1964.5808</ele>
        <time>2021-11-14T12:49:04Z</time>
      </trkpt>
      <trkpt lat="4.637334" lon="-75.089935">
        <ele>1965.2256</ele>
        <time>2021-11-14T12:49:05Z</time>
      </trkpt>
      <trkpt lat="4.637326" lon="-75.089958">
        <ele>1965.2029</ele>
        <time>2021-11-14T12:49:06Z</time>
      </trkpt>
      <trkpt lat="4.637311" lon="-75.089996">
        <ele>1965.8508</ele>
        <time>2021-11-14T12:49:07Z</time>
      </trkpt>
      <trkpt lat="4.637273" lon="-75.090073">
        <ele>1965.4937</ele>
        <time>2021-11-14T12:49:08Z</time>
      </trkpt>
      <trkpt lat="4.637216" lon="-75.090172">
        <ele>1966.7898</ele>
        <time>2021-11-14T12:49:09Z</time>
      </trkpt>
      <trkpt lat="4.637146" lon="-75.090279">
        <ele>1966.862</ele>
        <time>2021-11-14T12:49:10Z</time>
      </trkpt>
      <trkpt lat="4.637046" lon="-75.090401">
        <ele>1967.4712</ele>
        <time>2021-11-14T12:49:11Z</time>
      </trkpt>
      <trkpt lat="4.637001" lon="-75.090454">
        <ele>1967.8472</ele>
        <time>2021-11-14T12:49:12Z</time>
      </trkpt>
      <trkpt lat="4.636977" lon="-75.090485">
        <ele>1968.9214</ele>
        <time>2021-11-14T12:49:13Z</time>
      </trkpt>
      <trkpt lat="4.636941" lon="-75.09053">
        <ele>1969.1311</ele>
        <time>2021-11-14T12:49:14Z</time>
      </trkpt>
      <trkpt lat="4.636941" lon="-75.09053">
        <ele>1969.7417</ele>
        <time>2021-11-14T12:49:15Z</time>
      </trkpt>
      <trkpt lat="4.636926" lon="-75.090553">
        <ele>1970.1553</ele>
        <time>2021-11-14T12:49:16Z</time>
      </trkpt>
      <trkpt lat="4.636866" lon="-75.090683">
        <ele>1970.9614</ele>
        <time>2021-11-14T12:49:17Z</time>
      </trkpt>
      <trkpt lat="4.636834" lon="-75.09079">
        <ele>1971.0615</ele>
        <time>2021-11-14T12:49:18Z</time>
      </trkpt>
      <trkpt lat="4.6368" lon="-75.090897">
        <ele>1971.648</ele>
        <time>2021-11-14T12:49:19Z</time>
      </trkpt>
      <trkpt lat="4.636768" lon="-75.090996">
        <ele>1972.6177</ele>
        <time>2021-11-14T12:49:20Z</time>
      </trkpt>
      <trkpt lat="4.636732" lon="-75.091118">
        <ele>1972.6387</ele>
        <time>2021-11-14T12:49:21Z</time>
      </trkpt>
      <trkpt lat="4.636691" lon="-75.091248">
        <ele>1973.6636</ele>
        <time>2021-11-14T12:49:22Z</time>
      </trkpt>
      <trkpt lat="4.63665" lon="-75.091385">
        <ele>1974.1619</ele>
        <time>2021-11-14T12:49:23Z</time>
      </trkpt>
      <trkpt lat="4.636591" lon="-75.091499">
        <ele>1975.835</ele>
        <time>2021-11-14T12:49:24Z</time>
      </trkpt>
      <trkpt lat="4.636537" lon="-75.091583">
        <ele>1977.002</ele>
        <time>2021-11-14T12:49:25Z</time>
      </trkpt>
      <trkpt lat="4.636474" lon="-75.09169">
        <ele>1978.1853</ele>
        <time>2021-11-14T12:49:27Z</time>
      </trkpt>
      <trkpt lat="4.636417" lon="-75.091782">
        <ele>1977.9045</ele>
        <time>2021-11-14T12:49:28Z</time>
      </trkpt>
      <trkpt lat="4.636417" lon="-75.091782">
        <ele>1979.1372</ele>
        <time>2021-11-14T12:49:29Z</time>
      </trkpt>
      <trkpt lat="4.636371" lon="-75.091858">
        <ele>1979.897</ele>
        <time>2021-11-14T12:49:30Z</time>
      </trkpt>
      <trkpt lat="4.636327" lon="-75.091927">
        <ele>1980.1504</ele>
        <time>2021-11-14T12:49:31Z</time>
      </trkpt>
      <trkpt lat="4.636242" lon="-75.092018">
        <ele>1981.2144</ele>
        <time>2021-11-14T12:49:32Z</time>
      </trkpt>
      <trkpt lat="4.636142" lon="-75.09211">
        <ele>1982.2603</ele>
        <time>2021-11-14T12:49:33Z</time>
      </trkpt>
      <trkpt lat="4.63605" lon="-75.092201">
        <ele>1983.5273</ele>
        <time>2021-11-14T12:49:34Z</time>
      </trkpt>
      <trkpt lat="4.635959" lon="-75.092285">
        <ele>1984.4492</ele>
        <time>2021-11-14T12:49:35Z</time>
      </trkpt>
      <trkpt lat="4.635858" lon="-75.092339">
        <ele>1985.7603</ele>
        <time>2021-11-14T12:49:36Z</time>
      </trkpt>
      <trkpt lat="4.635677" lon="-75.092422">
        <ele>1986.7227</ele>
        <time>2021-11-14T12:49:37Z</time>
      </trkpt>
      <trkpt lat="4.635518" lon="-75.092461">
        <ele>1986.1455</ele>
        <time>2021-11-14T12:49:38Z</time>
      </trkpt>
      <trkpt lat="4.635389" lon="-75.092499">
        <ele>1987.2568</ele>
        <time>2021-11-14T12:49:39Z</time>
      </trkpt>
      <trkpt lat="4.635262" lon="-75.092529">
        <ele>1988.1985</ele>
        <time>2021-11-14T12:49:40Z</time>
      </trkpt>
      <trkpt lat="4.635121" lon="-75.092567">
        <ele>1989.5645</ele>
        <time>2021-11-14T12:49:41Z</time>
      </trkpt>
      <trkpt lat="4.635023" lon="-75.092575">
        <ele>1990.648</ele>
        <time>2021-11-14T12:49:42Z</time>
      </trkpt>
      <trkpt lat="4.634892" lon="-75.09259">
        <ele>1991.418</ele>
        <time>2021-11-14T12:49:43Z</time>
      </trkpt>
      <trkpt lat="4.634746" lon="-75.092613">
        <ele>1992.1792</ele>
        <time>2021-11-14T12:49:44Z</time>
      </trkpt>
      <trkpt lat="4.634613" lon="-75.092628">
        <ele>1992.7837</ele>
        <time>2021-11-14T12:49:45Z</time>
      </trkpt>
      <trkpt lat="4.634535" lon="-75.092628">
        <ele>1993.3296</ele>
        <time>2021-11-14T12:49:46Z</time>
      </trkpt>
      <trkpt lat="4.634395" lon="-75.092445">
        <ele>1993.6313</ele>
        <time>2021-11-14T12:49:47Z</time>
      </trkpt>
      <trkpt lat="4.634312" lon="-75.092499">
        <ele>1994.6626</ele>
        <time>2021-11-14T12:49:48Z</time>
      </trkpt>
      <trkpt lat="4.63424" lon="-75.092545">
        <ele>1996.1953</ele>
        <time>2021-11-14T12:49:49Z</time>
      </trkpt>
      <trkpt lat="4.634169" lon="-75.09259">
        <ele>1995.4629</ele>
        <time>2021-11-14T12:49:50Z</time>
      </trkpt>
      <trkpt lat="4.6341" lon="-75.092628">
        <ele>1995.1238</ele>
        <time>2021-11-14T12:49:51Z</time>
      </trkpt>
      <trkpt lat="4.633995" lon="-75.092682">
        <ele>1996.8999</ele>
        <time>2021-11-14T12:49:52Z</time>
      </trkpt>
      <trkpt lat="4.633923" lon="-75.09272">
        <ele>1997.1562</ele>
        <time>2021-11-14T12:49:53Z</time>
      </trkpt>
      <trkpt lat="4.633923" lon="-75.09272">
        <ele>1997.79</ele>
        <time>2021-11-14T12:49:54Z</time>
      </trkpt>
      <trkpt lat="4.633893" lon="-75.092735">
        <ele>1998.23</ele>
        <time>2021-11-14T12:49:55Z</time>
      </trkpt>
      <trkpt lat="4.633857" lon="-75.092758">
        <ele>1998.3247</ele>
        <time>2021-11-14T12:49:56Z</time>
      </trkpt>
      <trkpt lat="4.633766" lon="-75.092804">
        <ele>1997.9136</ele>
        <time>2021-11-14T12:49:57Z</time>
      </trkpt>
      <trkpt lat="4.633698" lon="-75.092842">
        <ele>1998.9316</ele>
        <time>2021-11-14T12:49:58Z</time>
      </trkpt>
      <trkpt lat="4.633615" lon="-75.092903">
        <ele>1998.7974</ele>
        <time>2021-11-14T12:49:59Z</time>
      </trkpt>
      <trkpt lat="4.633535" lon="-75.092964">
        <ele>1999.0088</ele>
        <time>2021-11-14T12:50:00Z</time>
      </trkpt>
      <trkpt lat="4.633477" lon="-75.093002">
        <ele>1999.457</ele>
        <time>2021-11-14T12:50:01Z</time>
      </trkpt>
      <trkpt lat="4.6334" lon="-75.093063">
        <ele>2000.8711</ele>
        <time>2021-11-14T12:50:02Z</time>
      </trkpt>
      <trkpt lat="4.63333" lon="-75.093117">
        <ele>2000.9841</ele>
        <time>2021-11-14T12:50:03Z</time>
      </trkpt>
      <trkpt lat="4.633267" lon="-75.093163">
        <ele>2001.6162</ele>
        <time>2021-11-14T12:50:04Z</time>
      </trkpt>
      <trkpt lat="4.633217" lon="-75.093208">
        <ele>2001.8008</ele>
        <time>2021-11-14T12:50:05Z</time>
      </trkpt>
      <trkpt lat="4.633195" lon="-75.093224">
        <ele>2001.8594</ele>
        <time>2021-11-14T12:50:06Z</time>
      </trkpt>
      <trkpt lat="4.633144" lon="-75.093269">
        <ele>2002.5474</ele>
        <time>2021-11-14T12:50:07Z</time>
      </trkpt>
      <trkpt lat="4.633061" lon="-75.093346">
        <ele>2004.012</ele>
        <time>2021-11-14T12:50:08Z</time>
      </trkpt>
      <trkpt lat="4.633005" lon="-75.093391">
        <ele>2004.769</ele>
        <time>2021-11-14T12:50:09Z</time>
      </trkpt>
      <trkpt lat="4.632968" lon="-75.093422">
        <ele>2004.8618</ele>
        <time>2021-11-14T12:50:10Z</time>
      </trkpt>
      <trkpt lat="4.63293" lon="-75.09346">
        <ele>2005.8811</ele>
        <time>2021-11-14T12:50:11Z</time>
      </trkpt>
      <trkpt lat="4.632873" lon="-75.093506">
        <ele>2006.3579</ele>
        <time>2021-11-14T12:50:12Z</time>
      </trkpt>
      <trkpt lat="4.632836" lon="-75.093536">
        <ele>2006.6133</ele>
        <time>2021-11-14T12:50:13Z</time>
      </trkpt>
      <trkpt lat="4.632827" lon="-75.093552">
        <ele>2006.3955</ele>
        <time>2021-11-14T12:50:14Z</time>
      </trkpt>
      <trkpt lat="4.632811" lon="-75.093559">
        <ele>2006.6631</ele>
        <time>2021-11-14T12:50:15Z</time>
      </trkpt>
      <trkpt lat="4.63281" lon="-75.093559">
        <ele>2006.4341</ele>
        <time>2021-11-14T12:50:16Z</time>
      </trkpt>
      <trkpt lat="4.632799" lon="-75.093575">
        <ele>2006.2429</ele>
        <time>2021-11-14T12:50:17Z</time>
      </trkpt>
      <trkpt lat="4.632782" lon="-75.09359">
        <ele>2006.1147</ele>
        <time>2021-11-14T12:50:18Z</time>
      </trkpt>
      <trkpt lat="4.632763" lon="-75.093605">
        <ele>2006.0388</ele>
        <time>2021-11-14T12:50:19Z</time>
      </trkpt>
      <trkpt lat="4.632763" lon="-75.093605">
        <ele>2006.0598</ele>
        <time>2021-11-14T12:50:21Z</time>
      </trkpt>
      <trkpt lat="4.632757" lon="-75.093605">
        <ele>2006.7095</ele>
        <time>2021-11-14T12:50:22Z</time>
      </trkpt>
      <trkpt lat="4.63272" lon="-75.093636">
        <ele>2006.2651</ele>
        <time>2021-11-14T12:50:23Z</time>
      </trkpt>
      <trkpt lat="4.632644" lon="-75.093697">
        <ele>2006.0156</ele>
        <time>2021-11-14T12:50:24Z</time>
      </trkpt>
      <trkpt lat="4.632625" lon="-75.093712">
        <ele>2006.54</ele>
        <time>2021-11-14T12:50:25Z</time>
      </trkpt>
      <trkpt lat="4.632608" lon="-75.093727">
        <ele>2006.3328</ele>
        <time>2021-11-14T12:50:26Z</time>
      </trkpt>
      <trkpt lat="4.63254" lon="-75.093781">
        <ele>2005.7544</ele>
        <time>2021-11-14T12:50:27Z</time>
      </trkpt>
      <trkpt lat="4.632458" lon="-75.093842">
        <ele>2005.1741</ele>
        <time>2021-11-14T12:50:28Z</time>
      </trkpt>
      <trkpt lat="4.63244" lon="-75.093857">
        <ele>2004.833</ele>
        <time>2021-11-14T12:50:29Z</time>
      </trkpt>
      <trkpt lat="4.632422" lon="-75.093872">
        <ele>2004.3135</ele>
        <time>2021-11-14T12:50:30Z</time>
      </trkpt>
      <trkpt lat="4.632396" lon="-75.093895">
        <ele>2004.2778</ele>
        <time>2021-11-14T12:50:31Z</time>
      </trkpt>
      <trkpt lat="4.632396" lon="-75.093895">
        <ele>2005.1211</ele>
        <time>2021-11-14T12:50:32Z</time>
      </trkpt>
      <trkpt lat="4.63237" lon="-75.09391">
        <ele>2004.0928</ele>
        <time>2021-11-14T12:50:33Z</time>
      </trkpt>
      <trkpt lat="4.632327" lon="-75.093948">
        <ele>2004.4126</ele>
        <time>2021-11-14T12:50:34Z</time>
      </trkpt>
      <trkpt lat="4.632315" lon="-75.093956">
        <ele>2004.667</ele>
        <time>2021-11-14T12:50:35Z</time>
      </trkpt>
      <trkpt lat="4.632214" lon="-75.093948">
        <ele>2005.6917</ele>
        <time>2021-11-14T12:50:36Z</time>
      </trkpt>
      <trkpt lat="4.632153" lon="-75.09388">
        <ele>2005.8472</ele>
        <time>2021-11-14T12:50:37Z</time>
      </trkpt>
      <trkpt lat="4.632149" lon="-75.09388">
        <ele>2007.3179</ele>
        <time>2021-11-14T12:50:38Z</time>
      </trkpt>
      <trkpt lat="4.632149" lon="-75.09388">
        <ele>2007.1396</ele>
        <time>2021-11-14T12:50:39Z</time>
      </trkpt>
      <trkpt lat="4.632143" lon="-75.093872">
        <ele>2006.6418</ele>
        <time>2021-11-14T12:50:40Z</time>
      </trkpt>
      <trkpt lat="4.632129" lon="-75.093857">
        <ele>2005.4814</ele>
        <time>2021-11-14T12:50:41Z</time>
      </trkpt>
      <trkpt lat="4.632106" lon="-75.093834">
        <ele>2005.7563</ele>
        <time>2021-11-14T12:50:42Z</time>
      </trkpt>
      <trkpt lat="4.632051" lon="-75.093872">
        <ele>2005.2959</ele>
        <time>2021-11-14T12:50:43Z</time>
      </trkpt>
      <trkpt lat="4.632031" lon="-75.093895">
        <ele>2004.419</ele>
        <time>2021-11-14T12:50:44Z</time>
      </trkpt>
      <trkpt lat="4.631993" lon="-75.093925">
        <ele>2003.4307</ele>
        <time>2021-11-14T12:50:45Z</time>
      </trkpt>
      <trkpt lat="4.631956" lon="-75.093948">
        <ele>2003.5076</ele>
        <time>2021-11-14T12:50:46Z</time>
      </trkpt>
      <trkpt lat="4.631889" lon="-75.094009">
        <ele>2003.5889</ele>
        <time>2021-11-14T12:50:47Z</time>
      </trkpt>
      <trkpt lat="4.631845" lon="-75.09404">
        <ele>2002.9072</ele>
        <time>2021-11-14T12:50:48Z</time>
      </trkpt>
      <trkpt lat="4.631778" lon="-75.094093">
        <ele>2002.4558</ele>
        <time>2021-11-14T12:50:49Z</time>
      </trkpt>
      <trkpt lat="4.631736" lon="-75.094131">
        <ele>2002.8364</ele>
        <time>2021-11-14T12:50:50Z</time>
      </trkpt>
      <trkpt lat="4.631707" lon="-75.094154">
        <ele>2003.0251</ele>
        <time>2021-11-14T12:50:51Z</time>
      </trkpt>
      <trkpt lat="4.631674" lon="-75.094177">
        <ele>2002.5073</ele>
        <time>2021-11-14T12:50:52Z</time>
      </trkpt>
      <trkpt lat="4.631605" lon="-75.094238">
        <ele>2002.1035</ele>
        <time>2021-11-14T12:50:53Z</time>
      </trkpt>
      <trkpt lat="4.631565" lon="-75.094276">
        <ele>2002.2393</ele>
        <time>2021-11-14T12:50:54Z</time>
      </trkpt>
      <trkpt lat="4.631528" lon="-75.094315">
        <ele>2001.8379</ele>
        <time>2021-11-14T12:50:55Z</time>
      </trkpt>
      <trkpt lat="4.631486" lon="-75.094353">
        <ele>2001.3579</ele>
        <time>2021-11-14T12:50:56Z</time>
      </trkpt>
      <trkpt lat="4.631453" lon="-75.094376">
        <ele>2001.042</ele>
        <time>2021-11-14T12:50:57Z</time>
      </trkpt>
      <trkpt lat="4.631394" lon="-75.094437">
        <ele>2001.1089</ele>
        <time>2021-11-14T12:50:58Z</time>
      </trkpt>
      <trkpt lat="4.631362" lon="-75.09446">
        <ele>2000.2739</ele>
        <time>2021-11-14T12:50:59Z</time>
      </trkpt>
      <trkpt lat="4.63134" lon="-75.094482">
        <ele>2000.0745</ele>
        <time>2021-11-14T12:51:00Z</time>
      </trkpt>
      <trkpt lat="4.631296" lon="-75.094521">
        <ele>2000.3379</ele>
        <time>2021-11-14T12:51:01Z</time>
      </trkpt>
      <trkpt lat="4.631278" lon="-75.094543">
        <ele>1999.9648</ele>
        <time>2021-11-14T12:51:02Z</time>
      </trkpt>
      <trkpt lat="4.631257" lon="-75.094559">
        <ele>1999.2021</ele>
        <time>2021-11-14T12:51:03Z</time>
      </trkpt>
      <trkpt lat="4.631244" lon="-75.094574">
        <ele>1999.8765</ele>
        <time>2021-11-14T12:51:04Z</time>
      </trkpt>
      <trkpt lat="4.631228" lon="-75.094582">
        <ele>1999.6919</ele>
        <time>2021-11-14T12:51:05Z</time>
      </trkpt>
      <trkpt lat="4.631228" lon="-75.094582">
        <ele>1999.9165</ele>
        <time>2021-11-14T12:51:06Z</time>
      </trkpt>
      <trkpt lat="4.63121" lon="-75.094604">
        <ele>1999.6328</ele>
        <time>2021-11-14T12:51:07Z</time>
      </trkpt>
      <trkpt lat="4.631208" lon="-75.094604">
        <ele>1999.2227</ele>
        <time>2021-11-14T12:51:08Z</time>
      </trkpt>
      <trkpt lat="4.631182" lon="-75.094627">
        <ele>2000.4541</ele>
        <time>2021-11-14T12:51:09Z</time>
      </trkpt>
      <trkpt lat="4.631175" lon="-75.094635">
        <ele>2000.2368</ele>
        <time>2021-11-14T12:51:10Z</time>
      </trkpt>
      <trkpt lat="4.631175" lon="-75.094635">
        <ele>1999.6357</ele>
        <time>2021-11-14T12:51:11Z</time>
      </trkpt>
      <trkpt lat="4.631175" lon="-75.094635">
        <ele>1999.366</ele>
        <time>2021-11-14T12:51:12Z</time>
      </trkpt>
      <trkpt lat="4.631175" lon="-75.094635">
        <ele>1999.0767</ele>
        <time>2021-11-14T12:51:13Z</time>
      </trkpt>
      <trkpt lat="4.631175" lon="-75.094635">
        <ele>1998.9854</ele>
        <time>2021-11-14T12:51:14Z</time>
      </trkpt>
      <trkpt lat="4.631175" lon="-75.094635">
        <ele>1998.6216</ele>
        <time>2021-11-14T12:51:15Z</time>
      </trkpt>
      <trkpt lat="4.631175" lon="-75.094635">
        <ele>1999.4033</ele>
        <time>2021-11-14T12:51:16Z</time>
      </trkpt>
      <trkpt lat="4.631172" lon="-75.094635">
        <ele>1998.0752</ele>
        <time>2021-11-14T12:51:17Z</time>
      </trkpt>
      <trkpt lat="4.631207" lon="-75.094688">
        <ele>1998.252</ele>
        <time>2021-11-14T12:51:18Z</time>
      </trkpt>
      <trkpt lat="4.631234" lon="-75.094727">
        <ele>1998.0996</ele>
        <time>2021-11-14T12:51:19Z</time>
      </trkpt>
      <trkpt lat="4.631279" lon="-75.094788">
        <ele>1998.5884</ele>
        <time>2021-11-14T12:51:20Z</time>
      </trkpt>
      <trkpt lat="4.631281" lon="-75.094788">
        <ele>1999.2236</ele>
        <time>2021-11-14T12:51:21Z</time>
      </trkpt>
      <trkpt lat="4.631282" lon="-75.094788">
        <ele>1999.5918</ele>
        <time>2021-11-14T12:51:22Z</time>
      </trkpt>
      <trkpt lat="4.631294" lon="-75.09481">
        <ele>2000.1069</ele>
        <time>2021-11-14T12:51:23Z</time>
      </trkpt>
      <trkpt lat="4.631288" lon="-75.094818">
        <ele>2000.1362</ele>
        <time>2021-11-14T12:51:24Z</time>
      </trkpt>
      <trkpt lat="4.6313" lon="-75.094818">
        <ele>1999.7837</ele>
        <time>2021-11-14T12:51:25Z</time>
      </trkpt>
      <trkpt lat="4.631302" lon="-75.094818">
        <ele>1999.7217</ele>
        <time>2021-11-14T12:51:27Z</time>
      </trkpt>
      <trkpt lat="4.631302" lon="-75.094818">
        <ele>1999.8406</ele>
        <time>2021-11-14T12:51:28Z</time>
      </trkpt>
      <trkpt lat="4.631302" lon="-75.094818">
        <ele>2000.0879</ele>
        <time>2021-11-14T12:51:29Z</time>
      </trkpt>
      <trkpt lat="4.631302" lon="-75.094818">
        <ele>2000.1274</ele>
        <time>2021-11-14T12:51:30Z</time>
      </trkpt>
      <trkpt lat="4.631302" lon="-75.094818">
        <ele>2000.1006</ele>
        <time>2021-11-14T12:51:31Z</time>
      </trkpt>
      <trkpt lat="4.631302" lon="-75.094818">
        <ele>1999.9131</ele>
        <time>2021-11-14T12:51:32Z</time>
      </trkpt>
      <trkpt lat="4.631302" lon="-75.094818">
        <ele>2000.146</ele>
        <time>2021-11-14T12:51:33Z</time>
      </trkpt>
      <trkpt lat="4.631302" lon="-75.094818">
        <ele>2000.6665</ele>
        <time>2021-11-14T12:51:34Z</time>
      </trkpt>
      <trkpt lat="4.631242" lon="-75.094849">
        <ele>2000.6787</ele>
        <time>2021-11-14T12:51:35Z</time>
      </trkpt>
      <trkpt lat="4.631215" lon="-75.094872">
        <ele>2000.971</ele>
        <time>2021-11-14T12:51:36Z</time>
      </trkpt>
      <trkpt lat="4.631183" lon="-75.094894">
        <ele>2000.325</ele>
        <time>2021-11-14T12:51:37Z</time>
      </trkpt>
      <trkpt lat="4.631143" lon="-75.094925">
        <ele>2000.9897</ele>
        <time>2021-11-14T12:51:38Z</time>
      </trkpt>
      <trkpt lat="4.63108" lon="-75.094971">
        <ele>2000.5835</ele>
        <time>2021-11-14T12:51:39Z</time>
      </trkpt>
      <trkpt lat="4.63108" lon="-75.094971">
        <ele>1999.613</ele>
        <time>2021-11-14T12:51:40Z</time>
      </trkpt>
      <trkpt lat="4.631053" lon="-75.094994">
        <ele>1999.0964</ele>
        <time>2021-11-14T12:51:41Z</time>
      </trkpt>
      <trkpt lat="4.631051" lon="-75.094994">
        <ele>1998.4526</ele>
        <time>2021-11-14T12:51:42Z</time>
      </trkpt>
      <trkpt lat="4.63105" lon="-75.094994">
        <ele>1997.8154</ele>
        <time>2021-11-14T12:51:43Z</time>
      </trkpt>
      <trkpt lat="4.631036" lon="-75.095001">
        <ele>1998.2974</ele>
        <time>2021-11-14T12:51:44Z</time>
      </trkpt>
      <trkpt lat="4.631017" lon="-75.095016">
        <ele>1997.7075</ele>
        <time>2021-11-14T12:51:45Z</time>
      </trkpt>
      <trkpt lat="4.631016" lon="-75.095016">
        <ele>1997.5996</ele>
        <time>2021-11-14T12:51:46Z</time>
      </trkpt>
      <trkpt lat="4.631016" lon="-75.095016">
        <ele>1996.4412</ele>
        <time>2021-11-14T12:51:47Z</time>
      </trkpt>
      <trkpt lat="4.631016" lon="-75.095016">
        <ele>1996.7251</ele>
        <time>2021-11-14T12:51:48Z</time>
      </trkpt>
      <trkpt lat="4.631016" lon="-75.095016">
        <ele>1996.9043</ele>
        <time>2021-11-14T12:51:49Z</time>
      </trkpt>
      <trkpt lat="4.631016" lon="-75.095016">
        <ele>1997.1426</ele>
        <time>2021-11-14T12:51:50Z</time>
      </trkpt>
      <trkpt lat="4.631016" lon="-75.095016">
        <ele>1997.0159</ele>
        <time>2021-11-14T12:51:51Z</time>
      </trkpt>
      <trkpt lat="4.631016" lon="-75.095016">
        <ele>1997.2585</ele>
        <time>2021-11-14T12:51:52Z</time>
      </trkpt>
      <trkpt lat="4.631016" lon="-75.095016">
        <ele>1997.3896</ele>
        <time>2021-11-14T12:51:53Z</time>
      </trkpt>
      <trkpt lat="4.631016" lon="-75.095016">
        <ele>1997.4534</ele>
        <time>2021-11-14T12:51:54Z</time>
      </trkpt>
      <trkpt lat="4.631016" lon="-75.095016">
        <ele>1997.519</ele>
        <time>2021-11-14T12:51:55Z</time>
      </trkpt>
      <trkpt lat="4.631016" lon="-75.095016">
        <ele>1997.6829</ele>
        <time>2021-11-14T12:51:56Z</time>
      </trkpt>
      <trkpt lat="4.630947" lon="-75.095078">
        <ele>1995.6768</ele>
        <time>2021-11-14T13:23:14Z</time>
      </trkpt>
      <trkpt lat="4.630926" lon="-75.095093">
        <ele>1995.491</ele>
        <time>2021-11-14T13:23:15Z</time>
      </trkpt>
      <trkpt lat="4.630885" lon="-75.095123">
        <ele>1994.9312</ele>
        <time>2021-11-14T13:23:16Z</time>
      </trkpt>
      <trkpt lat="4.630861" lon="-75.095146">
        <ele>1994.1001</ele>
        <time>2021-11-14T13:23:17Z</time>
      </trkpt>
      <trkpt lat="4.630818" lon="-75.095184">
        <ele>1993.3843</ele>
        <time>2021-11-14T13:23:18Z</time>
      </trkpt>
      <trkpt lat="4.630754" lon="-75.095238">
        <ele>1993.791</ele>
        <time>2021-11-14T13:23:19Z</time>
      </trkpt>
      <trkpt lat="4.630656" lon="-75.095322">
        <ele>1992.2886</ele>
        <time>2021-11-14T13:23:21Z</time>
      </trkpt>
      <trkpt lat="4.630601" lon="-75.095367">
        <ele>1992.519</ele>
        <time>2021-11-14T13:23:22Z</time>
      </trkpt>
      <trkpt lat="4.630595" lon="-75.095367">
        <ele>1991.9968</ele>
        <time>2021-11-14T13:23:23Z</time>
      </trkpt>
      <trkpt lat="4.630575" lon="-75.095383">
        <ele>1991.4146</ele>
        <time>2021-11-14T13:23:24Z</time>
      </trkpt>
      <trkpt lat="4.630559" lon="-75.095398">
        <ele>1992.4807</ele>
        <time>2021-11-14T13:23:25Z</time>
      </trkpt>
      <trkpt lat="4.630552" lon="-75.095406">
        <ele>1993.9292</ele>
        <time>2021-11-14T13:23:26Z</time>
      </trkpt>
      <trkpt lat="4.630512" lon="-75.095436">
        <ele>1995.25</ele>
        <time>2021-11-14T13:23:27Z</time>
      </trkpt>
      <trkpt lat="4.6305" lon="-75.095444">
        <ele>1995.7517</ele>
        <time>2021-11-14T13:23:28Z</time>
      </trkpt>
      <trkpt lat="4.630498" lon="-75.095451">
        <ele>1996.02</ele>
        <time>2021-11-14T13:23:29Z</time>
      </trkpt>
      <trkpt lat="4.630455" lon="-75.095482">
        <ele>1996.1025</ele>
        <time>2021-11-14T13:23:30Z</time>
      </trkpt>
      <trkpt lat="4.6304" lon="-75.095528">
        <ele>1995.5776</ele>
        <time>2021-11-14T13:23:31Z</time>
      </trkpt>
      <trkpt lat="4.630316" lon="-75.095589">
        <ele>1995.0303</ele>
        <time>2021-11-14T13:23:32Z</time>
      </trkpt>
      <trkpt lat="4.630234" lon="-75.09565">
        <ele>1994.8027</ele>
        <time>2021-11-14T13:23:33Z</time>
      </trkpt>
      <trkpt lat="4.630174" lon="-75.095695">
        <ele>1995.1157</ele>
        <time>2021-11-14T13:23:35Z</time>
      </trkpt>
      <trkpt lat="4.630132" lon="-75.095726">
        <ele>1996.2429</ele>
        <time>2021-11-14T13:23:36Z</time>
      </trkpt>
      <trkpt lat="4.630072" lon="-75.095772">
        <ele>1995.1284</ele>
        <time>2021-11-14T13:23:37Z</time>
      </trkpt>
      <trkpt lat="4.630036" lon="-75.095795">
        <ele>1994.3315</ele>
        <time>2021-11-14T13:23:38Z</time>
      </trkpt>
      <trkpt lat="4.630001" lon="-75.095825">
        <ele>1993.6792</ele>
        <time>2021-11-14T13:23:39Z</time>
      </trkpt>
      <trkpt lat="4.629991" lon="-75.095833">
        <ele>1992.9077</ele>
        <time>2021-11-14T13:23:40Z</time>
      </trkpt>
      <trkpt lat="4.629949" lon="-75.095863">
        <ele>1992.1511</ele>
        <time>2021-11-14T13:23:41Z</time>
      </trkpt>
      <trkpt lat="4.629938" lon="-75.095871">
        <ele>1993.8887</ele>
        <time>2021-11-14T13:23:42Z</time>
      </trkpt>
      <trkpt lat="4.629938" lon="-75.095871">
        <ele>1994.3335</ele>
        <time>2021-11-14T13:23:43Z</time>
      </trkpt>
      <trkpt lat="4.629898" lon="-75.095818">
        <ele>1994.0356</ele>
        <time>2021-11-14T13:23:44Z</time>
      </trkpt>
      <trkpt lat="4.629878" lon="-75.095787">
        <ele>1994.8525</ele>
        <time>2021-11-14T13:23:45Z</time>
      </trkpt>
      <trkpt lat="4.629857" lon="-75.095757">
        <ele>1995.429</ele>
        <time>2021-11-14T13:23:47Z</time>
      </trkpt>
      <trkpt lat="4.629857" lon="-75.095757">
        <ele>1995.6885</ele>
        <time>2021-11-14T13:23:48Z</time>
      </trkpt>
      <trkpt lat="4.629857" lon="-75.095757">
        <ele>1996.169</ele>
        <time>2021-11-14T13:23:49Z</time>
      </trkpt>
      <trkpt lat="4.629854" lon="-75.095757">
        <ele>1996.5869</ele>
        <time>2021-11-14T13:23:50Z</time>
      </trkpt>
      <trkpt lat="4.629835" lon="-75.095726">
        <ele>1996.5898</ele>
        <time>2021-11-14T13:23:51Z</time>
      </trkpt>
      <trkpt lat="4.629829" lon="-75.095718">
        <ele>1996.2378</ele>
        <time>2021-11-14T13:23:52Z</time>
      </trkpt>
      <trkpt lat="4.629814" lon="-75.095695">
        <ele>1995.3369</ele>
        <time>2021-11-14T13:23:53Z</time>
      </trkpt>
      <trkpt lat="4.629801" lon="-75.095673">
        <ele>1995.2725</ele>
        <time>2021-11-14T13:23:54Z</time>
      </trkpt>
      <trkpt lat="4.629775" lon="-75.095711">
        <ele>1994.6091</ele>
        <time>2021-11-14T13:23:56Z</time>
      </trkpt>
      <trkpt lat="4.629739" lon="-75.095726">
        <ele>1992.9341</ele>
        <time>2021-11-14T13:23:57Z</time>
      </trkpt>
      <trkpt lat="4.629629" lon="-75.095779">
        <ele>1992.4905</ele>
        <time>2021-11-14T13:23:58Z</time>
      </trkpt>
      <trkpt lat="4.629462" lon="-75.095863">
        <ele>1992.5994</ele>
        <time>2021-11-14T13:23:59Z</time>
      </trkpt>
      <trkpt lat="4.629435" lon="-75.095879">
        <ele>1991.8608</ele>
        <time>2021-11-14T13:24:00Z</time>
      </trkpt>
      <trkpt lat="4.629354" lon="-75.095924">
        <ele>1991.4905</ele>
        <time>2021-11-14T13:24:01Z</time>
      </trkpt>
      <trkpt lat="4.629304" lon="-75.095947">
        <ele>1991.2405</ele>
        <time>2021-11-14T13:24:02Z</time>
      </trkpt>
      <trkpt lat="4.629296" lon="-75.095947">
        <ele>1989.9897</ele>
        <time>2021-11-14T13:24:04Z</time>
      </trkpt>
      <trkpt lat="4.62927" lon="-75.095963">
        <ele>1990.3123</ele>
        <time>2021-11-14T13:24:05Z</time>
      </trkpt>
      <trkpt lat="4.6292" lon="-75.095993">
        <ele>1990.3481</ele>
        <time>2021-11-14T13:24:06Z</time>
      </trkpt>
      <trkpt lat="4.629103" lon="-75.096031">
        <ele>1990.5806</ele>
        <time>2021-11-14T13:24:07Z</time>
      </trkpt>
      <trkpt lat="4.629005" lon="-75.096069">
        <ele>1990.9214</ele>
        <time>2021-11-14T13:24:08Z</time>
      </trkpt>
      <trkpt lat="4.628929" lon="-75.096092">
        <ele>1990.3315</ele>
        <time>2021-11-14T13:24:09Z</time>
      </trkpt>
      <trkpt lat="4.628848" lon="-75.09613">
        <ele>1990.0496</ele>
        <time>2021-11-14T13:24:10Z</time>
      </trkpt>
      <trkpt lat="4.628785" lon="-75.096153">
        <ele>1990.019</ele>
        <time>2021-11-14T13:24:11Z</time>
      </trkpt>
      <trkpt lat="4.628735" lon="-75.096169">
        <ele>1990.0791</ele>
        <time>2021-11-14T13:24:13Z</time>
      </trkpt>
      <trkpt lat="4.628718" lon="-75.096176">
        <ele>1990.0488</ele>
        <time>2021-11-14T13:24:14Z</time>
      </trkpt>
      <trkpt lat="4.628658" lon="-75.096199">
        <ele>1990.7715</ele>
        <time>2021-11-14T13:24:15Z</time>
      </trkpt>
      <trkpt lat="4.628556" lon="-75.096252">
        <ele>1990.9067</ele>
        <time>2021-11-14T13:24:16Z</time>
      </trkpt>
      <trkpt lat="4.628524" lon="-75.096268">
        <ele>1991.1973</ele>
        <time>2021-11-14T13:24:17Z</time>
      </trkpt>
      <trkpt lat="4.628459" lon="-75.096306">
        <ele>1991.5632</ele>
        <time>2021-11-14T13:24:18Z</time>
      </trkpt>
      <trkpt lat="4.628396" lon="-75.096344">
        <ele>1991.6807</ele>
        <time>2021-11-14T13:24:19Z</time>
      </trkpt>
      <trkpt lat="4.628324" lon="-75.096382">
        <ele>1992.5918</ele>
        <time>2021-11-14T13:24:20Z</time>
      </trkpt>
      <trkpt lat="4.628207" lon="-75.096443">
        <ele>1992.332</ele>
        <time>2021-11-14T13:24:21Z</time>
      </trkpt>
      <trkpt lat="4.628042" lon="-75.096535">
        <ele>1993.2275</ele>
        <time>2021-11-14T13:24:23Z</time>
      </trkpt>
      <trkpt lat="4.627981" lon="-75.096573">
        <ele>1993.6733</ele>
        <time>2021-11-14T13:24:24Z</time>
      </trkpt>
      <trkpt lat="4.627959" lon="-75.096588">
        <ele>1994.2764</ele>
        <time>2021-11-14T13:24:25Z</time>
      </trkpt>
      <trkpt lat="4.627916" lon="-75.096611">
        <ele>1994.7126</ele>
        <time>2021-11-14T13:24:26Z</time>
      </trkpt>
      <trkpt lat="4.627916" lon="-75.096611">
        <ele>1995.8499</ele>
        <time>2021-11-14T13:24:27Z</time>
      </trkpt>
      <trkpt lat="4.627863" lon="-75.096642">
        <ele>1996.1934</ele>
        <time>2021-11-14T13:24:28Z</time>
      </trkpt>
      <trkpt lat="4.627799" lon="-75.096703">
        <ele>1997.1309</ele>
        <time>2021-11-14T13:24:30Z</time>
      </trkpt>
      <trkpt lat="4.627741" lon="-75.096771">
        <ele>1996.3994</ele>
        <time>2021-11-14T13:24:31Z</time>
      </trkpt>
      <trkpt lat="4.627656" lon="-75.096863">
        <ele>1996.1123</ele>
        <time>2021-11-14T13:24:32Z</time>
      </trkpt>
      <trkpt lat="4.627623" lon="-75.096901">
        <ele>1996.3286</ele>
        <time>2021-11-14T13:24:33Z</time>
      </trkpt>
      <trkpt lat="4.627555" lon="-75.09697">
        <ele>1995.9282</ele>
        <time>2021-11-14T13:24:34Z</time>
      </trkpt>
      <trkpt lat="4.627499" lon="-75.097031">
        <ele>1995.9839</ele>
        <time>2021-11-14T13:24:35Z</time>
      </trkpt>
      <trkpt lat="4.627463" lon="-75.097069">
        <ele>1995.9365</ele>
        <time>2021-11-14T13:24:36Z</time>
      </trkpt>
      <trkpt lat="4.627425" lon="-75.097115">
        <ele>1994.8169</ele>
        <time>2021-11-14T13:24:37Z</time>
      </trkpt>
      <trkpt lat="4.627406" lon="-75.09713">
        <ele>1994.7544</ele>
        <time>2021-11-14T13:24:38Z</time>
      </trkpt>
      <trkpt lat="4.627372" lon="-75.097168">
        <ele>1994.3657</ele>
        <time>2021-11-14T13:24:39Z</time>
      </trkpt>
      <trkpt lat="4.627322" lon="-75.097221">
        <ele>1993.4648</ele>
        <time>2021-11-14T13:24:40Z</time>
      </trkpt>
      <trkpt lat="4.627273" lon="-75.097275">
        <ele>1992.8936</ele>
        <time>2021-11-14T13:24:41Z</time>
      </trkpt>
      <trkpt lat="4.627215" lon="-75.097343">
        <ele>1991.6079</ele>
        <time>2021-11-14T13:24:42Z</time>
      </trkpt>
      <trkpt lat="4.627115" lon="-75.09745">
        <ele>1990.9224</ele>
        <time>2021-11-14T13:24:44Z</time>
      </trkpt>
      <trkpt lat="4.627099" lon="-75.097466">
        <ele>1991.4062</ele>
        <time>2021-11-14T13:24:45Z</time>
      </trkpt>
      <trkpt lat="4.627099" lon="-75.097466">
        <ele>1991.2964</ele>
        <time>2021-11-14T13:24:46Z</time>
      </trkpt>
      <trkpt lat="4.627072" lon="-75.097496">
        <ele>1989.3916</ele>
        <time>2021-11-14T13:24:47Z</time>
      </trkpt>
      <trkpt lat="4.627012" lon="-75.09758">
        <ele>1989.5681</ele>
        <time>2021-11-14T13:24:48Z</time>
      </trkpt>
      <trkpt lat="4.626967" lon="-75.097656">
        <ele>1989.3093</ele>
        <time>2021-11-14T13:24:49Z</time>
      </trkpt>
      <trkpt lat="4.626842" lon="-75.097862">
        <ele>1989.7935</ele>
        <time>2021-11-14T13:24:52Z</time>
      </trkpt>
      <trkpt lat="4.626826" lon="-75.097893">
        <ele>1988.1201</ele>
        <time>2021-11-14T13:24:53Z</time>
      </trkpt>
      <trkpt lat="4.626773" lon="-75.097977">
        <ele>1988.6284</ele>
        <time>2021-11-14T13:24:54Z</time>
      </trkpt>
      <trkpt lat="4.626766" lon="-75.097992">
        <ele>1988.8213</ele>
        <time>2021-11-14T13:24:55Z</time>
      </trkpt>
      <trkpt lat="4.626765" lon="-75.097992">
        <ele>1988.7715</ele>
        <time>2021-11-14T13:24:56Z</time>
      </trkpt>
      <trkpt lat="4.626745" lon="-75.098022">
        <ele>1988.6309</ele>
        <time>2021-11-14T13:24:57Z</time>
      </trkpt>
      <trkpt lat="4.626729" lon="-75.098053">
        <ele>1988.2356</ele>
        <time>2021-11-14T13:24:58Z</time>
      </trkpt>
      <trkpt lat="4.62663" lon="-75.098221">
        <ele>1987.7732</ele>
        <time>2021-11-14T13:24:59Z</time>
      </trkpt>
      <trkpt lat="4.626576" lon="-75.098297">
        <ele>1985.6941</ele>
        <time>2021-11-14T13:25:01Z</time>
      </trkpt>
      <trkpt lat="4.626545" lon="-75.098335">
        <ele>1985.206</ele>
        <time>2021-11-14T13:25:02Z</time>
      </trkpt>
      <trkpt lat="4.626545" lon="-75.098335">
        <ele>1985.315</ele>
        <time>2021-11-14T13:25:03Z</time>
      </trkpt>
      <trkpt lat="4.626507" lon="-75.098373">
        <ele>1984.8511</ele>
        <time>2021-11-14T13:25:04Z</time>
      </trkpt>
      <trkpt lat="4.626441" lon="-75.09845">
        <ele>1984.356</ele>
        <time>2021-11-14T13:25:05Z</time>
      </trkpt>
      <trkpt lat="4.626415" lon="-75.09848">
        <ele>1983.4587</ele>
        <time>2021-11-14T13:25:06Z</time>
      </trkpt>
      <trkpt lat="4.626384" lon="-75.098518">
        <ele>1982.5679</ele>
        <time>2021-11-14T13:25:07Z</time>
      </trkpt>
      <trkpt lat="4.62634" lon="-75.098572">
        <ele>1981.1575</ele>
        <time>2021-11-14T13:25:08Z</time>
      </trkpt>
      <trkpt lat="4.626297" lon="-75.098618">
        <ele>1979.7417</ele>
        <time>2021-11-14T13:25:09Z</time>
      </trkpt>
      <trkpt lat="4.626252" lon="-75.098671">
        <ele>1979.5356</ele>
        <time>2021-11-14T13:25:10Z</time>
      </trkpt>
      <trkpt lat="4.626202" lon="-75.098732">
        <ele>1979.231</ele>
        <time>2021-11-14T13:25:11Z</time>
      </trkpt>
      <trkpt lat="4.626161" lon="-75.098778">
        <ele>1977.5701</ele>
        <time>2021-11-14T13:25:12Z</time>
      </trkpt>
      <trkpt lat="4.626113" lon="-75.098831">
        <ele>1977.0022</ele>
        <time>2021-11-14T13:25:13Z</time>
      </trkpt>
      <trkpt lat="4.626099" lon="-75.098846">
        <ele>1975.2051</ele>
        <time>2021-11-14T13:25:14Z</time>
      </trkpt>
      <trkpt lat="4.626029" lon="-75.09893">
        <ele>1973.4854</ele>
        <time>2021-11-14T13:25:15Z</time>
      </trkpt>
      <trkpt lat="4.625878" lon="-75.099106">
        <ele>1971.1594</ele>
        <time>2021-11-14T13:25:16Z</time>
      </trkpt>
      <trkpt lat="4.625848" lon="-75.099136">
        <ele>1969.3105</ele>
        <time>2021-11-14T13:25:17Z</time>
      </trkpt>
      <trkpt lat="4.625831" lon="-75.099159">
        <ele>1967.9778</ele>
        <time>2021-11-14T13:25:18Z</time>
      </trkpt>
      <trkpt lat="4.625801" lon="-75.09919">
        <ele>1967.7505</ele>
        <time>2021-11-14T13:25:20Z</time>
      </trkpt>
      <trkpt lat="4.625745" lon="-75.099243">
        <ele>1965.3225</ele>
        <time>2021-11-14T13:25:21Z</time>
      </trkpt>
      <trkpt lat="4.625674" lon="-75.099312">
        <ele>1963.9573</ele>
        <time>2021-11-14T13:25:22Z</time>
      </trkpt>
      <trkpt lat="4.625619" lon="-75.099342">
        <ele>1964.0757</ele>
        <time>2021-11-14T13:25:23Z</time>
      </trkpt>
      <trkpt lat="4.625559" lon="-75.09938">
        <ele>1962.3711</ele>
        <time>2021-11-14T13:25:24Z</time>
      </trkpt>
      <trkpt lat="4.625484" lon="-75.099426">
        <ele>1956.605</ele>
        <time>2021-11-14T13:25:25Z</time>
      </trkpt>
      <trkpt lat="4.625439" lon="-75.099449">
        <ele>1956.0361</ele>
        <time>2021-11-14T13:25:26Z</time>
      </trkpt>
      <trkpt lat="4.625412" lon="-75.099464">
        <ele>1954.9814</ele>
        <time>2021-11-14T13:25:28Z</time>
      </trkpt>
      <trkpt lat="4.625372" lon="-75.099487">
        <ele>1953.1465</ele>
        <time>2021-11-14T13:25:29Z</time>
      </trkpt>
      <trkpt lat="4.625312" lon="-75.099525">
        <ele>1952.3193</ele>
        <time>2021-11-14T13:25:30Z</time>
      </trkpt>
      <trkpt lat="4.625285" lon="-75.099541">
        <ele>1951.4624</ele>
        <time>2021-11-14T13:25:31Z</time>
      </trkpt>
      <trkpt lat="4.625241" lon="-75.099571">
        <ele>1950.8364</ele>
        <time>2021-11-14T13:25:32Z</time>
      </trkpt>
      <trkpt lat="4.625206" lon="-75.099586">
        <ele>1950.3704</ele>
        <time>2021-11-14T13:25:33Z</time>
      </trkpt>
      <trkpt lat="4.625202" lon="-75.099594">
        <ele>1949.6436</ele>
        <time>2021-11-14T13:25:34Z</time>
      </trkpt>
      <trkpt lat="4.625202" lon="-75.099594">
        <ele>1949.5928</ele>
        <time>2021-11-14T13:25:35Z</time>
      </trkpt>
      <trkpt lat="4.625195" lon="-75.099594">
        <ele>1949.2192</ele>
        <time>2021-11-14T13:25:36Z</time>
      </trkpt>
      <trkpt lat="4.625194" lon="-75.099594">
        <ele>1948.9832</ele>
        <time>2021-11-14T13:25:37Z</time>
      </trkpt>
      <trkpt lat="4.625194" lon="-75.099594">
        <ele>1948.5742</ele>
        <time>2021-11-14T13:25:38Z</time>
      </trkpt>
      <trkpt lat="4.625194" lon="-75.099594">
        <ele>1948.3105</ele>
        <time>2021-11-14T13:25:39Z</time>
      </trkpt>
      <trkpt lat="4.625186" lon="-75.099602">
        <ele>1947.9268</ele>
        <time>2021-11-14T13:25:40Z</time>
      </trkpt>
      <trkpt lat="4.625042" lon="-75.099709">
        <ele>1946.0808</ele>
        <time>2021-11-14T13:25:41Z</time>
      </trkpt>
      <trkpt lat="4.624967" lon="-75.099785">
        <ele>1945.2834</ele>
        <time>2021-11-14T13:25:42Z</time>
      </trkpt>
      <trkpt lat="4.624866" lon="-75.099892">
        <ele>1945.8801</ele>
        <time>2021-11-14T13:25:43Z</time>
      </trkpt>
      <trkpt lat="4.624792" lon="-75.099968">
        <ele>1945.9758</ele>
        <time>2021-11-14T13:25:45Z</time>
      </trkpt>
      <trkpt lat="4.624732" lon="-75.100029">
        <ele>1945.7544</ele>
        <time>2021-11-14T13:25:46Z</time>
      </trkpt>
      <trkpt lat="4.62467" lon="-75.10009">
        <ele>1946.2424</ele>
        <time>2021-11-14T13:25:47Z</time>
      </trkpt>
      <trkpt lat="4.624624" lon="-75.100136">
        <ele>1946.7964</ele>
        <time>2021-11-14T13:25:48Z</time>
      </trkpt>
      <trkpt lat="4.624473" lon="-75.100296">
        <ele>1947.2778</ele>
        <time>2021-11-14T13:25:49Z</time>
      </trkpt>
      <trkpt lat="4.624419" lon="-75.100349">
        <ele>1948.0754</ele>
        <time>2021-11-14T13:25:50Z</time>
      </trkpt>
      <trkpt lat="4.624417" lon="-75.100349">
        <ele>1948.6482</ele>
        <time>2021-11-14T13:25:51Z</time>
      </trkpt>
      <trkpt lat="4.624417" lon="-75.100349">
        <ele>1948.5764</ele>
        <time>2021-11-14T13:25:53Z</time>
      </trkpt>
      <trkpt lat="4.624417" lon="-75.100349">
        <ele>1948.6052</ele>
        <time>2021-11-14T13:25:54Z</time>
      </trkpt>
      <trkpt lat="4.624417" lon="-75.100349">
        <ele>1948.7668</ele>
        <time>2021-11-14T13:25:55Z</time>
      </trkpt>
      <trkpt lat="4.624417" lon="-75.100349">
        <ele>1948.7012</ele>
        <time>2021-11-14T13:25:56Z</time>
      </trkpt>
      <trkpt lat="4.624417" lon="-75.100349">
        <ele>1948.27</ele>
        <time>2021-11-14T13:25:57Z</time>
      </trkpt>
      <trkpt lat="4.624417" lon="-75.100349">
        <ele>1948.1626</ele>
        <time>2021-11-14T13:25:58Z</time>
      </trkpt>
      <trkpt lat="4.624417" lon="-75.100349">
        <ele>1947.9238</ele>
        <time>2021-11-14T13:25:59Z</time>
      </trkpt>
      <trkpt lat="4.624417" lon="-75.100349">
        <ele>1947.8267</ele>
        <time>2021-11-14T13:26:00Z</time>
      </trkpt>
      <trkpt lat="4.624417" lon="-75.100349">
        <ele>1947.7793</ele>
        <time>2021-11-14T13:26:01Z</time>
      </trkpt>
      <trkpt lat="4.624417" lon="-75.100349">
        <ele>1947.5801</ele>
        <time>2021-11-14T13:26:03Z</time>
      </trkpt>
      <trkpt lat="4.624411" lon="-75.100357">
        <ele>1947.842</ele>
        <time>2021-11-14T13:26:04Z</time>
      </trkpt>
      <trkpt lat="4.624383" lon="-75.100388">
        <ele>1947.8445</ele>
        <time>2021-11-14T13:26:05Z</time>
      </trkpt>
      <trkpt lat="4.624383" lon="-75.100388">
        <ele>1947.6904</ele>
        <time>2021-11-14T13:26:06Z</time>
      </trkpt>
      <trkpt lat="4.624383" lon="-75.100388">
        <ele>1947.4883</ele>
        <time>2021-11-14T13:26:07Z</time>
      </trkpt>
      <trkpt lat="4.624383" lon="-75.100388">
        <ele>1947.8882</ele>
        <time>2021-11-14T13:26:08Z</time>
      </trkpt>
      <trkpt lat="4.624383" lon="-75.100388">
        <ele>1947.668</ele>
        <time>2021-11-14T13:26:09Z</time>
      </trkpt>
      <trkpt lat="4.624383" lon="-75.100388">
        <ele>1947.5137</ele>
        <time>2021-11-14T13:26:10Z</time>
      </trkpt>
      <trkpt lat="4.624383" lon="-75.100388">
        <ele>1947.5332</ele>
        <time>2021-11-14T13:26:11Z</time>
      </trkpt>
      <trkpt lat="4.624383" lon="-75.100388">
        <ele>1947.2534</ele>
        <time>2021-11-14T13:26:12Z</time>
      </trkpt>
      <trkpt lat="4.624383" lon="-75.100388">
        <ele>1947.5107</ele>
        <time>2021-11-14T13:26:13Z</time>
      </trkpt>
      <trkpt lat="4.624383" lon="-75.100388">
        <ele>1947.573</ele>
        <time>2021-11-14T13:26:14Z</time>
      </trkpt>
      <trkpt lat="4.624383" lon="-75.100388">
        <ele>1947.8247</ele>
        <time>2021-11-14T13:26:15Z</time>
      </trkpt>
      <trkpt lat="4.624383" lon="-75.100388">
        <ele>1947.6699</ele>
        <time>2021-11-14T13:26:17Z</time>
      </trkpt>
      <trkpt lat="4.624383" lon="-75.100388">
        <ele>1947.6841</ele>
        <time>2021-11-14T13:26:18Z</time>
      </trkpt>
      <trkpt lat="4.624383" lon="-75.100388">
        <ele>1947.6797</ele>
        <time>2021-11-14T13:26:19Z</time>
      </trkpt>
      <trkpt lat="4.624383" lon="-75.100388">
        <ele>1947.6304</ele>
        <time>2021-11-14T13:26:20Z</time>
      </trkpt>
      <trkpt lat="4.624383" lon="-75.100388">
        <ele>1947.5105</ele>
        <time>2021-11-14T13:26:21Z</time>
      </trkpt>
      <trkpt lat="4.624383" lon="-75.100388">
        <ele>1947.7974</ele>
        <time>2021-11-14T13:26:22Z</time>
      </trkpt>
      <trkpt lat="4.624383" lon="-75.100388">
        <ele>1947.9736</ele>
        <time>2021-11-14T13:26:23Z</time>
      </trkpt>
      <trkpt lat="4.624339" lon="-75.100426">
        <ele>1949.1086</ele>
        <time>2021-11-14T13:26:25Z</time>
      </trkpt>
      <trkpt lat="4.62426" lon="-75.100471">
        <ele>1949.7354</ele>
        <time>2021-11-14T13:26:26Z</time>
      </trkpt>
      <trkpt lat="4.624192" lon="-75.100517">
        <ele>1950.5586</ele>
        <time>2021-11-14T13:26:27Z</time>
      </trkpt>
      <trkpt lat="4.624126" lon="-75.100555">
        <ele>1951.5757</ele>
        <time>2021-11-14T13:26:28Z</time>
      </trkpt>
      <trkpt lat="4.624056" lon="-75.100594">
        <ele>1951.9167</ele>
        <time>2021-11-14T13:26:29Z</time>
      </trkpt>
      <trkpt lat="4.62399" lon="-75.100639">
        <ele>1953.417</ele>
        <time>2021-11-14T13:26:30Z</time>
      </trkpt>
      <trkpt lat="4.623837" lon="-75.100769">
        <ele>1955.9009</ele>
        <time>2021-11-14T13:26:32Z</time>
      </trkpt>
      <trkpt lat="4.623795" lon="-75.100807">
        <ele>1956.6572</ele>
        <time>2021-11-14T13:26:33Z</time>
      </trkpt>
      <trkpt lat="4.623753" lon="-75.100845">
        <ele>1957.5166</ele>
        <time>2021-11-14T13:26:34Z</time>
      </trkpt>
      <trkpt lat="4.623687" lon="-75.100899">
        <ele>1957.856</ele>
        <time>2021-11-14T13:26:35Z</time>
      </trkpt>
      <trkpt lat="4.623605" lon="-75.10096">
        <ele>1958.7004</ele>
        <time>2021-11-14T13:26:36Z</time>
      </trkpt>
      <trkpt lat="4.623547" lon="-75.100967">
        <ele>1959.1924</ele>
        <time>2021-11-14T13:26:37Z</time>
      </trkpt>
      <trkpt lat="4.623519" lon="-75.100975">
        <ele>1959.4712</ele>
        <time>2021-11-14T13:26:38Z</time>
      </trkpt>
      <trkpt lat="4.623493" lon="-75.100983">
        <ele>1959.5923</ele>
        <time>2021-11-14T13:26:39Z</time>
      </trkpt>
      <trkpt lat="4.623486" lon="-75.100983">
        <ele>1960.0054</ele>
        <time>2021-11-14T13:26:40Z</time>
      </trkpt>
      <trkpt lat="4.623472" lon="-75.10099">
        <ele>1959.9385</ele>
        <time>2021-11-14T13:26:42Z</time>
      </trkpt>
      <trkpt lat="4.62347" lon="-75.10099">
        <ele>1959.897</ele>
        <time>2021-11-14T13:26:43Z</time>
      </trkpt>
      <trkpt lat="4.62347" lon="-75.10099">
        <ele>1959.9043</ele>
        <time>2021-11-14T13:26:44Z</time>
      </trkpt>
      <trkpt lat="4.623462" lon="-75.10099">
        <ele>1960.5767</ele>
        <time>2021-11-14T13:26:45Z</time>
      </trkpt>
      <trkpt lat="4.623375" lon="-75.100937">
        <ele>1961.1609</ele>
        <time>2021-11-14T13:26:46Z</time>
      </trkpt>
      <trkpt lat="4.623364" lon="-75.100929">
        <ele>1961.373</ele>
        <time>2021-11-14T13:26:47Z</time>
      </trkpt>
      <trkpt lat="4.623364" lon="-75.100929">
        <ele>1961.7314</ele>
        <time>2021-11-14T13:26:48Z</time>
      </trkpt>
      <trkpt lat="4.623358" lon="-75.100922">
        <ele>1962.437</ele>
        <time>2021-11-14T13:26:49Z</time>
      </trkpt>
      <trkpt lat="4.62324" lon="-75.100838">
        <ele>1962.7554</ele>
        <time>2021-11-14T13:26:50Z</time>
      </trkpt>
      <trkpt lat="4.623097" lon="-75.101158">
        <ele>1962.7192</ele>
        <time>2021-11-14T13:26:51Z</time>
      </trkpt>
      <trkpt lat="4.623049" lon="-75.101204">
        <ele>1962.6572</ele>
        <time>2021-11-14T13:26:52Z</time>
      </trkpt>
      <trkpt lat="4.623022" lon="-75.10128">
        <ele>1962.9231</ele>
        <time>2021-11-14T13:26:53Z</time>
      </trkpt>
      <trkpt lat="4.622981" lon="-75.101326">
        <ele>1964.7065</ele>
        <time>2021-11-14T13:26:54Z</time>
      </trkpt>
      <trkpt lat="4.622985" lon="-75.101425">
        <ele>1965.0942</ele>
        <time>2021-11-14T13:26:55Z</time>
      </trkpt>
      <trkpt lat="4.623006" lon="-75.101562">
        <ele>1966.9619</ele>
        <time>2021-11-14T13:26:56Z</time>
      </trkpt>
      <trkpt lat="4.622999" lon="-75.101654">
        <ele>1967.207</ele>
        <time>2021-11-14T13:26:57Z</time>
      </trkpt>
      <trkpt lat="4.622992" lon="-75.101738">
        <ele>1967.706</ele>
        <time>2021-11-14T13:26:58Z</time>
      </trkpt>
      <trkpt lat="4.622966" lon="-75.101837">
        <ele>1968.3257</ele>
        <time>2021-11-14T13:26:59Z</time>
      </trkpt>
      <trkpt lat="4.622937" lon="-75.101913">
        <ele>1971.3779</ele>
        <time>2021-11-14T13:27:01Z</time>
      </trkpt>
      <trkpt lat="4.622906" lon="-75.102036">
        <ele>1972.5232</ele>
        <time>2021-11-14T13:27:02Z</time>
      </trkpt>
      <trkpt lat="4.622907" lon="-75.102112">
        <ele>1972.7617</ele>
        <time>2021-11-14T13:27:03Z</time>
      </trkpt>
      <trkpt lat="4.622898" lon="-75.102165">
        <ele>1973.9424</ele>
        <time>2021-11-14T13:27:04Z</time>
      </trkpt>
      <trkpt lat="4.622891" lon="-75.102211">
        <ele>1975.23</ele>
        <time>2021-11-14T13:27:05Z</time>
      </trkpt>
      <trkpt lat="4.622877" lon="-75.10231">
        <ele>1975.7783</ele>
        <time>2021-11-14T13:27:06Z</time>
      </trkpt>
      <trkpt lat="4.622858" lon="-75.102394">
        <ele>1977.096</ele>
        <time>2021-11-14T13:27:07Z</time>
      </trkpt>
      <trkpt lat="4.622845" lon="-75.10247">
        <ele>1977.8135</ele>
        <time>2021-11-14T13:27:08Z</time>
      </trkpt>
      <trkpt lat="4.622837" lon="-75.102577">
        <ele>1978.9685</ele>
        <time>2021-11-14T13:27:09Z</time>
      </trkpt>
      <trkpt lat="4.622826" lon="-75.102676">
        <ele>1980.0435</ele>
        <time>2021-11-14T13:27:10Z</time>
      </trkpt>
      <trkpt lat="4.622817" lon="-75.102753">
        <ele>1979.8481</ele>
        <time>2021-11-14T13:27:11Z</time>
      </trkpt>
      <trkpt lat="4.622817" lon="-75.102837">
        <ele>1980.492</ele>
        <time>2021-11-14T13:27:12Z</time>
      </trkpt>
      <trkpt lat="4.622823" lon="-75.102936">
        <ele>1980.7793</ele>
        <time>2021-11-14T13:27:13Z</time>
      </trkpt>
      <trkpt lat="4.622815" lon="-75.10302">
        <ele>1982.9829</ele>
        <time>2021-11-14T13:27:14Z</time>
      </trkpt>
      <trkpt lat="4.622863" lon="-75.10318">
        <ele>1984.4648</ele>
        <time>2021-11-14T13:27:16Z</time>
      </trkpt>
      <trkpt lat="4.622837" lon="-75.103264">
        <ele>1985.5891</ele>
        <time>2021-11-14T13:27:17Z</time>
      </trkpt>
      <trkpt lat="4.622834" lon="-75.10334">
        <ele>1986.3584</ele>
        <time>2021-11-14T13:27:18Z</time>
      </trkpt>
      <trkpt lat="4.62285" lon="-75.103386">
        <ele>1986.4048</ele>
        <time>2021-11-14T13:27:19Z</time>
      </trkpt>
      <trkpt lat="4.622887" lon="-75.103409">
        <ele>1984.5383</ele>
        <time>2021-11-14T13:27:20Z</time>
      </trkpt>
      <trkpt lat="4.622961" lon="-75.103439">
        <ele>1984.9934</ele>
        <time>2021-11-14T13:27:21Z</time>
      </trkpt>
      <trkpt lat="4.623018" lon="-75.103447">
        <ele>1986.0049</ele>
        <time>2021-11-14T13:27:22Z</time>
      </trkpt>
      <trkpt lat="4.623107" lon="-75.103477">
        <ele>1985.9692</ele>
        <time>2021-11-14T13:27:23Z</time>
      </trkpt>
      <trkpt lat="4.623153" lon="-75.103531">
        <ele>1986.5347</ele>
        <time>2021-11-14T13:27:24Z</time>
      </trkpt>
      <trkpt lat="4.623177" lon="-75.1036">
        <ele>1986.519</ele>
        <time>2021-11-14T13:27:25Z</time>
      </trkpt>
      <trkpt lat="4.623242" lon="-75.103691">
        <ele>1987.4551</ele>
        <time>2021-11-14T13:27:26Z</time>
      </trkpt>
      <trkpt lat="4.62326" lon="-75.103783">
        <ele>1988.7085</ele>
        <time>2021-11-14T13:27:27Z</time>
      </trkpt>
      <trkpt lat="4.623303" lon="-75.103859">
        <ele>1989.21</ele>
        <time>2021-11-14T13:27:28Z</time>
      </trkpt>
      <trkpt lat="4.623312" lon="-75.103905">
        <ele>1989.4878</ele>
        <time>2021-11-14T13:27:29Z</time>
      </trkpt>
      <trkpt lat="4.623339" lon="-75.103973">
        <ele>1991.1072</ele>
        <time>2021-11-14T13:27:30Z</time>
      </trkpt>
      <trkpt lat="4.623318" lon="-75.104073">
        <ele>1992.4968</ele>
        <time>2021-11-14T13:27:31Z</time>
      </trkpt>
      <trkpt lat="4.623353" lon="-75.104179">
        <ele>1993.3105</ele>
        <time>2021-11-14T13:27:32Z</time>
      </trkpt>
      <trkpt lat="4.623393" lon="-75.104233">
        <ele>1994.2449</ele>
        <time>2021-11-14T13:27:33Z</time>
      </trkpt>
      <trkpt lat="4.623436" lon="-75.104279">
        <ele>1994.4778</ele>
        <time>2021-11-14T13:27:34Z</time>
      </trkpt>
      <trkpt lat="4.623453" lon="-75.104324">
        <ele>1994.9321</ele>
        <time>2021-11-14T13:27:35Z</time>
      </trkpt>
      <trkpt lat="4.623568" lon="-75.104477">
        <ele>1996.1997</ele>
        <time>2021-11-14T13:27:37Z</time>
      </trkpt>
      <trkpt lat="4.623597" lon="-75.104507">
        <ele>1996.4331</ele>
        <time>2021-11-14T13:27:38Z</time>
      </trkpt>
      <trkpt lat="4.623668" lon="-75.104584">
        <ele>1998.1709</ele>
        <time>2021-11-14T13:27:39Z</time>
      </trkpt>
      <trkpt lat="4.623692" lon="-75.104645">
        <ele>1998.7437</ele>
        <time>2021-11-14T13:27:40Z</time>
      </trkpt>
      <trkpt lat="4.623712" lon="-75.104713">
        <ele>1999.4531</ele>
        <time>2021-11-14T13:27:41Z</time>
      </trkpt>
      <trkpt lat="4.623701" lon="-75.104782">
        <ele>2000.8862</ele>
        <time>2021-11-14T13:27:42Z</time>
      </trkpt>
      <trkpt lat="4.623703" lon="-75.104858">
        <ele>2001.3862</ele>
        <time>2021-11-14T13:27:43Z</time>
      </trkpt>
      <trkpt lat="4.623707" lon="-75.104912">
        <ele>2002.2778</ele>
        <time>2021-11-14T13:27:44Z</time>
      </trkpt>
      <trkpt lat="4.623724" lon="-75.10498">
        <ele>2002.3726</ele>
        <time>2021-11-14T13:27:45Z</time>
      </trkpt>
      <trkpt lat="4.623743" lon="-75.105064">
        <ele>2003.2222</ele>
        <time>2021-11-14T13:27:46Z</time>
      </trkpt>
      <trkpt lat="4.623758" lon="-75.105255">
        <ele>2005.6396</ele>
        <time>2021-11-14T13:27:48Z</time>
      </trkpt>
      <trkpt lat="4.623779" lon="-75.105339">
        <ele>2005.5547</ele>
        <time>2021-11-14T13:27:49Z</time>
      </trkpt>
      <trkpt lat="4.623772" lon="-75.105377">
        <ele>2006.1128</ele>
        <time>2021-11-14T13:27:50Z</time>
      </trkpt>
      <trkpt lat="4.623756" lon="-75.105423">
        <ele>2006.7905</ele>
        <time>2021-11-14T13:27:51Z</time>
      </trkpt>
      <trkpt lat="4.623729" lon="-75.105507">
        <ele>2007.3806</ele>
        <time>2021-11-14T13:27:52Z</time>
      </trkpt>
      <trkpt lat="4.62367" lon="-75.105591">
        <ele>2008.9727</ele>
        <time>2021-11-14T13:27:53Z</time>
      </trkpt>
      <trkpt lat="4.623617" lon="-75.105644">
        <ele>2009.7583</ele>
        <time>2021-11-14T13:27:54Z</time>
      </trkpt>
      <trkpt lat="4.623617" lon="-75.105644">
        <ele>2010.3877</ele>
        <time>2021-11-14T13:27:55Z</time>
      </trkpt>
      <trkpt lat="4.623553" lon="-75.105705">
        <ele>2011.5249</ele>
        <time>2021-11-14T13:27:56Z</time>
      </trkpt>
      <trkpt lat="4.623465" lon="-75.105797">
        <ele>2012.2332</ele>
        <time>2021-11-14T13:27:57Z</time>
      </trkpt>
      <trkpt lat="4.623358" lon="-75.105904">
        <ele>2014.708</ele>
        <time>2021-11-14T13:27:59Z</time>
      </trkpt>
      <trkpt lat="4.623307" lon="-75.105957">
        <ele>2016.0342</ele>
        <time>2021-11-14T13:28:00Z</time>
      </trkpt>
      <trkpt lat="4.623238" lon="-75.106033">
        <ele>2017.3506</ele>
        <time>2021-11-14T13:28:01Z</time>
      </trkpt>
      <trkpt lat="4.623156" lon="-75.106102">
        <ele>2019.8469</ele>
        <time>2021-11-14T13:28:02Z</time>
      </trkpt>
      <trkpt lat="4.623085" lon="-75.10614">
        <ele>2021.2717</ele>
        <time>2021-11-14T13:28:03Z</time>
      </trkpt>
      <trkpt lat="4.623038" lon="-75.106209">
        <ele>2022.3726</ele>
        <time>2021-11-14T13:28:04Z</time>
      </trkpt>
      <trkpt lat="4.623008" lon="-75.106285">
        <ele>2023.7068</ele>
        <time>2021-11-14T13:28:05Z</time>
      </trkpt>
      <trkpt lat="4.622955" lon="-75.106339">
        <ele>2024.4153</ele>
        <time>2021-11-14T13:28:06Z</time>
      </trkpt>
      <trkpt lat="4.622883" lon="-75.1064">
        <ele>2025.9941</ele>
        <time>2021-11-14T13:28:07Z</time>
      </trkpt>
      <trkpt lat="4.622823" lon="-75.10643">
        <ele>2026.1782</ele>
        <time>2021-11-14T13:28:08Z</time>
      </trkpt>
      <trkpt lat="4.622757" lon="-75.106438">
        <ele>2027.0645</ele>
        <time>2021-11-14T13:28:09Z</time>
      </trkpt>
      <trkpt lat="4.622648" lon="-75.106476">
        <ele>2028.1104</ele>
        <time>2021-11-14T13:28:10Z</time>
      </trkpt>
      <trkpt lat="4.622578" lon="-75.106537">
        <ele>2029.2134</ele>
        <time>2021-11-14T13:28:11Z</time>
      </trkpt>
      <trkpt lat="4.622554" lon="-75.106613">
        <ele>2030.4253</ele>
        <time>2021-11-14T13:28:12Z</time>
      </trkpt>
      <trkpt lat="4.622537" lon="-75.106682">
        <ele>2031.5791</ele>
        <time>2021-11-14T13:28:13Z</time>
      </trkpt>
      <trkpt lat="4.622528" lon="-75.106766">
        <ele>2032.3083</ele>
        <time>2021-11-14T13:28:14Z</time>
      </trkpt>
      <trkpt lat="4.622514" lon="-75.106812">
        <ele>2032.7842</ele>
        <time>2021-11-14T13:28:15Z</time>
      </trkpt>
      <trkpt lat="4.622493" lon="-75.10688">
        <ele>2032.8823</ele>
        <time>2021-11-14T13:28:16Z</time>
      </trkpt>
      <trkpt lat="4.622455" lon="-75.106926">
        <ele>2033.4111</ele>
        <time>2021-11-14T13:28:18Z</time>
      </trkpt>
      <trkpt lat="4.622416" lon="-75.106987">
        <ele>2033.5667</ele>
        <time>2021-11-14T13:28:19Z</time>
      </trkpt>
      <trkpt lat="4.622391" lon="-75.107025">
        <ele>2033.8647</ele>
        <time>2021-11-14T13:28:20Z</time>
      </trkpt>
      <trkpt lat="4.622373" lon="-75.107048">
        <ele>2034.2031</ele>
        <time>2021-11-14T13:28:21Z</time>
      </trkpt>
      <trkpt lat="4.622336" lon="-75.107109">
        <ele>2034.4727</ele>
        <time>2021-11-14T13:28:22Z</time>
      </trkpt>
      <trkpt lat="4.622297" lon="-75.107155">
        <ele>2035.04</ele>
        <time>2021-11-14T13:28:23Z</time>
      </trkpt>
      <trkpt lat="4.622259" lon="-75.107185">
        <ele>2035.2759</ele>
        <time>2021-11-14T13:28:24Z</time>
      </trkpt>
      <trkpt lat="4.622201" lon="-75.107231">
        <ele>2035.72</ele>
        <time>2021-11-14T13:28:25Z</time>
      </trkpt>
      <trkpt lat="4.622174" lon="-75.107224">
        <ele>2036.0215</ele>
        <time>2021-11-14T13:28:26Z</time>
      </trkpt>
      <trkpt lat="4.622116" lon="-75.107254">
        <ele>2036.6104</ele>
        <time>2021-11-14T13:28:28Z</time>
      </trkpt>
      <trkpt lat="4.622046" lon="-75.107277">
        <ele>2037.106</ele>
        <time>2021-11-14T13:28:29Z</time>
      </trkpt>
      <trkpt lat="4.62201" lon="-75.1073">
        <ele>2037.6929</ele>
        <time>2021-11-14T13:28:30Z</time>
      </trkpt>
      <trkpt lat="4.621938" lon="-75.107323">
        <ele>2038.29</ele>
        <time>2021-11-14T13:28:31Z</time>
      </trkpt>
      <trkpt lat="4.621884" lon="-75.107368">
        <ele>2038.7805</ele>
        <time>2021-11-14T13:28:32Z</time>
      </trkpt>
      <trkpt lat="4.621827" lon="-75.107422">
        <ele>2039.0107</ele>
        <time>2021-11-14T13:28:33Z</time>
      </trkpt>
      <trkpt lat="4.621797" lon="-75.107483">
        <ele>2039.8369</ele>
        <time>2021-11-14T13:28:34Z</time>
      </trkpt>
      <trkpt lat="4.621764" lon="-75.10759">
        <ele>2041.0566</ele>
        <time>2021-11-14T13:28:35Z</time>
      </trkpt>
      <trkpt lat="4.621729" lon="-75.107658">
        <ele>2041.6416</ele>
        <time>2021-11-14T13:28:36Z</time>
      </trkpt>
      <trkpt lat="4.621679" lon="-75.107811">
        <ele>2041.9641</ele>
        <time>2021-11-14T13:28:37Z</time>
      </trkpt>
      <trkpt lat="4.621655" lon="-75.107948">
        <ele>2042.0898</ele>
        <time>2021-11-14T13:28:38Z</time>
      </trkpt>
      <trkpt lat="4.621633" lon="-75.10807">
        <ele>2041.8735</ele>
        <time>2021-11-14T13:28:39Z</time>
      </trkpt>
      <trkpt lat="4.621594" lon="-75.108124">
        <ele>2043.406</ele>
        <time>2021-11-14T13:28:40Z</time>
      </trkpt>
      <trkpt lat="4.621539" lon="-75.108177">
        <ele>2044.1411</ele>
        <time>2021-11-14T13:28:41Z</time>
      </trkpt>
      <trkpt lat="4.621469" lon="-75.108269">
        <ele>2045.9956</ele>
        <time>2021-11-14T13:28:42Z</time>
      </trkpt>
      <trkpt lat="4.621381" lon="-75.10836">
        <ele>2048.166</ele>
        <time>2021-11-14T13:28:44Z</time>
      </trkpt>
      <trkpt lat="4.621357" lon="-75.108398">
        <ele>2050.108</ele>
        <time>2021-11-14T13:28:45Z</time>
      </trkpt>
      <trkpt lat="4.621266" lon="-75.108475">
        <ele>2050.594</ele>
        <time>2021-11-14T13:28:46Z</time>
      </trkpt>
      <trkpt lat="4.621266" lon="-75.108475">
        <ele>2051.741</ele>
        <time>2021-11-14T13:28:47Z</time>
      </trkpt>
      <trkpt lat="4.621154" lon="-75.108589">
        <ele>2053.6895</ele>
        <time>2021-11-14T13:28:49Z</time>
      </trkpt>
      <trkpt lat="4.621081" lon="-75.108665">
        <ele>2055.2856</ele>
        <time>2021-11-14T13:28:50Z</time>
      </trkpt>
      <trkpt lat="4.621022" lon="-75.108749">
        <ele>2056.6174</ele>
        <time>2021-11-14T13:28:51Z</time>
      </trkpt>
      <trkpt lat="4.62098" lon="-75.108841">
        <ele>2057.8933</ele>
        <time>2021-11-14T13:28:52Z</time>
      </trkpt>
      <trkpt lat="4.620952" lon="-75.108879">
        <ele>2058.599</ele>
        <time>2021-11-14T13:28:53Z</time>
      </trkpt>
      <trkpt lat="4.620921" lon="-75.108963">
        <ele>2060.4563</ele>
        <time>2021-11-14T13:28:54Z</time>
      </trkpt>
      <trkpt lat="4.62086" lon="-75.109055">
        <ele>2061.4001</ele>
        <time>2021-11-14T13:28:55Z</time>
      </trkpt>
      <trkpt lat="4.620772" lon="-75.109215">
        <ele>2062.3853</ele>
        <time>2021-11-14T13:28:56Z</time>
      </trkpt>
      <trkpt lat="4.620761" lon="-75.109306">
        <ele>2063.2654</ele>
        <time>2021-11-14T13:28:57Z</time>
      </trkpt>
      <trkpt lat="4.620776" lon="-75.109398">
        <ele>2064.5237</ele>
        <time>2021-11-14T13:28:58Z</time>
      </trkpt>
      <trkpt lat="4.620801" lon="-75.109444">
        <ele>2065.2915</ele>
        <time>2021-11-14T13:28:59Z</time>
      </trkpt>
      <trkpt lat="4.620835" lon="-75.109444">
        <ele>2065.64</ele>
        <time>2021-11-14T13:29:00Z</time>
      </trkpt>
      <trkpt lat="4.620898" lon="-75.109459">
        <ele>2065.9536</ele>
        <time>2021-11-14T13:29:01Z</time>
      </trkpt>
      <trkpt lat="4.620947" lon="-75.109489">
        <ele>2065.434</ele>
        <time>2021-11-14T13:29:02Z</time>
      </trkpt>
      <trkpt lat="4.620986" lon="-75.109428">
        <ele>2064.9304</ele>
        <time>2021-11-14T13:29:03Z</time>
      </trkpt>
      <trkpt lat="4.621043" lon="-75.109367">
        <ele>2065.673</ele>
        <time>2021-11-14T13:29:04Z</time>
      </trkpt>
      <trkpt lat="4.621098" lon="-75.109283">
        <ele>2067.038</ele>
        <time>2021-11-14T13:29:05Z</time>
      </trkpt>
      <trkpt lat="4.621154" lon="-75.109222">
        <ele>2068.433</ele>
        <time>2021-11-14T13:29:06Z</time>
      </trkpt>
      <trkpt lat="4.6212" lon="-75.109184">
        <ele>2069.486</ele>
        <time>2021-11-14T13:29:07Z</time>
      </trkpt>
      <trkpt lat="4.621245" lon="-75.109123">
        <ele>2068.8374</ele>
        <time>2021-11-14T13:29:08Z</time>
      </trkpt>
      <trkpt lat="4.621308" lon="-75.109039">
        <ele>2069.5852</ele>
        <time>2021-11-14T13:29:09Z</time>
      </trkpt>
      <trkpt lat="4.621377" lon="-75.108963">
        <ele>2070.1284</ele>
        <time>2021-11-14T13:29:10Z</time>
      </trkpt>
      <trkpt lat="4.621462" lon="-75.108902">
        <ele>2070.5444</ele>
        <time>2021-11-14T13:29:11Z</time>
      </trkpt>
      <trkpt lat="4.621597" lon="-75.108864">
        <ele>2071.0713</ele>
        <time>2021-11-14T13:29:13Z</time>
      </trkpt>
      <trkpt lat="4.621747" lon="-75.108932">
        <ele>2071.8706</ele>
        <time>2021-11-14T13:29:14Z</time>
      </trkpt>
      <trkpt lat="4.621845" lon="-75.108902">
        <ele>2071.7385</ele>
        <time>2021-11-14T13:29:15Z</time>
      </trkpt>
      <trkpt lat="4.62195" lon="-75.108917">
        <ele>2073.7373</ele>
        <time>2021-11-14T13:29:16Z</time>
      </trkpt>
      <trkpt lat="4.622063" lon="-75.108902">
        <ele>2073.1528</ele>
        <time>2021-11-14T13:29:17Z</time>
      </trkpt>
      <trkpt lat="4.622171" lon="-75.108887">
        <ele>2074.218</ele>
        <time>2021-11-14T13:29:18Z</time>
      </trkpt>
      <trkpt lat="4.622247" lon="-75.108856">
        <ele>2075.722</ele>
        <time>2021-11-14T13:29:19Z</time>
      </trkpt>
      <trkpt lat="4.622243" lon="-75.108849">
        <ele>2075.6035</ele>
        <time>2021-11-14T13:29:20Z</time>
      </trkpt>
      <trkpt lat="4.622301" lon="-75.108856">
        <ele>2077.8394</ele>
        <time>2021-11-14T13:29:21Z</time>
      </trkpt>
      <trkpt lat="4.622358" lon="-75.108879">
        <ele>2078.617</ele>
        <time>2021-11-14T13:29:22Z</time>
      </trkpt>
      <trkpt lat="4.622363" lon="-75.108902">
        <ele>2080.603</ele>
        <time>2021-11-14T13:29:23Z</time>
      </trkpt>
      <trkpt lat="4.62236" lon="-75.108971">
        <ele>2082.1184</ele>
        <time>2021-11-14T13:29:24Z</time>
      </trkpt>
      <trkpt lat="4.622286" lon="-75.109055">
        <ele>2083.4458</ele>
        <time>2021-11-14T13:29:25Z</time>
      </trkpt>
      <trkpt lat="4.622243" lon="-75.109047">
        <ele>2085.5347</ele>
        <time>2021-11-14T13:29:26Z</time>
      </trkpt>
      <trkpt lat="4.622204" lon="-75.109024">
        <ele>2086.2988</ele>
        <time>2021-11-14T13:29:27Z</time>
      </trkpt>
      <trkpt lat="4.622106" lon="-75.109016">
        <ele>2087.2778</ele>
        <time>2021-11-14T13:29:28Z</time>
      </trkpt>
      <trkpt lat="4.622044" lon="-75.109016">
        <ele>2087.8882</ele>
        <time>2021-11-14T13:29:29Z</time>
      </trkpt>
      <trkpt lat="4.621942" lon="-75.1091">
        <ele>2089.166</ele>
        <time>2021-11-14T13:29:31Z</time>
      </trkpt>
      <trkpt lat="4.621831" lon="-75.109161">
        <ele>2089.7466</ele>
        <time>2021-11-14T13:29:32Z</time>
      </trkpt>
      <trkpt lat="4.621831" lon="-75.109161">
        <ele>2091.4114</ele>
        <time>2021-11-14T13:29:33Z</time>
      </trkpt>
      <trkpt lat="4.621756" lon="-75.109215">
        <ele>2092.3804</ele>
        <time>2021-11-14T13:29:34Z</time>
      </trkpt>
      <trkpt lat="4.621722" lon="-75.109261">
        <ele>2093.5276</ele>
        <time>2021-11-14T13:29:35Z</time>
      </trkpt>
      <trkpt lat="4.621691" lon="-75.109352">
        <ele>2094.3774</ele>
        <time>2021-11-14T13:29:36Z</time>
      </trkpt>
      <trkpt lat="4.621636" lon="-75.109474">
        <ele>2095.1433</ele>
        <time>2021-11-14T13:29:37Z</time>
      </trkpt>
      <trkpt lat="4.621582" lon="-75.109589">
        <ele>2096.546</ele>
        <time>2021-11-14T13:29:38Z</time>
      </trkpt>
      <trkpt lat="4.621541" lon="-75.109688">
        <ele>2097.4448</ele>
        <time>2021-11-14T13:29:39Z</time>
      </trkpt>
      <trkpt lat="4.621497" lon="-75.109749">
        <ele>2098.0767</ele>
        <time>2021-11-14T13:29:40Z</time>
      </trkpt>
      <trkpt lat="4.621452" lon="-75.109802">
        <ele>2099.4788</ele>
        <time>2021-11-14T13:29:41Z</time>
      </trkpt>
      <trkpt lat="4.621418" lon="-75.10984">
        <ele>2100.273</ele>
        <time>2021-11-14T13:29:42Z</time>
      </trkpt>
      <trkpt lat="4.62138" lon="-75.109879">
        <ele>2100.86</ele>
        <time>2021-11-14T13:29:43Z</time>
      </trkpt>
      <trkpt lat="4.621327" lon="-75.109978">
        <ele>2102.024</ele>
        <time>2021-11-14T13:29:44Z</time>
      </trkpt>
      <trkpt lat="4.621232" lon="-75.110107">
        <ele>2102.8599</ele>
        <time>2021-11-14T13:29:45Z</time>
      </trkpt>
      <trkpt lat="4.621121" lon="-75.110229">
        <ele>2104.6868</ele>
        <time>2021-11-14T13:29:47Z</time>
      </trkpt>
      <trkpt lat="4.62108" lon="-75.110298">
        <ele>2105.4158</ele>
        <time>2021-11-14T13:29:48Z</time>
      </trkpt>
      <trkpt lat="4.621073" lon="-75.110359">
        <ele>2106.003</ele>
        <time>2021-11-14T13:29:49Z</time>
      </trkpt>
      <trkpt lat="4.621082" lon="-75.110443">
        <ele>2107.3435</ele>
        <time>2021-11-14T13:29:50Z</time>
      </trkpt>
      <trkpt lat="4.621106" lon="-75.110535">
        <ele>2107.8245</ele>
        <time>2021-11-14T13:29:51Z</time>
      </trkpt>
      <trkpt lat="4.621142" lon="-75.110611">
        <ele>2108.698</ele>
        <time>2021-11-14T13:29:52Z</time>
      </trkpt>
      <trkpt lat="4.621159" lon="-75.110733">
        <ele>2108.632</ele>
        <time>2021-11-14T13:29:53Z</time>
      </trkpt>
      <trkpt lat="4.621149" lon="-75.110825">
        <ele>2109.173</ele>
        <time>2021-11-14T13:29:54Z</time>
      </trkpt>
      <trkpt lat="4.621117" lon="-75.11087">
        <ele>2110.0618</ele>
        <time>2021-11-14T13:29:55Z</time>
      </trkpt>
      <trkpt lat="4.621114" lon="-75.110962">
        <ele>2110.8828</ele>
        <time>2021-11-14T13:29:56Z</time>
      </trkpt>
      <trkpt lat="4.621136" lon="-75.111084">
        <ele>2112.2432</ele>
        <time>2021-11-14T13:29:57Z</time>
      </trkpt>
      <trkpt lat="4.62117" lon="-75.111168">
        <ele>2113.1782</ele>
        <time>2021-11-14T13:29:58Z</time>
      </trkpt>
      <trkpt lat="4.621221" lon="-75.111275">
        <ele>2114.3323</ele>
        <time>2021-11-14T13:29:59Z</time>
      </trkpt>
      <trkpt lat="4.621234" lon="-75.111336">
        <ele>2115.31</ele>
        <time>2021-11-14T13:30:00Z</time>
      </trkpt>
      <trkpt lat="4.621255" lon="-75.111397">
        <ele>2116.2485</ele>
        <time>2021-11-14T13:30:01Z</time>
      </trkpt>
      <trkpt lat="4.621251" lon="-75.11145">
        <ele>2116.0627</ele>
        <time>2021-11-14T13:30:02Z</time>
      </trkpt>
      <trkpt lat="4.621235" lon="-75.111526">
        <ele>2116.9421</ele>
        <time>2021-11-14T13:30:03Z</time>
      </trkpt>
      <trkpt lat="4.621174" lon="-75.111626">
        <ele>2118.4282</ele>
        <time>2021-11-14T13:30:04Z</time>
      </trkpt>
      <trkpt lat="4.621119" lon="-75.111717">
        <ele>2120.0427</ele>
        <time>2021-11-14T13:30:05Z</time>
      </trkpt>
      <trkpt lat="4.621073" lon="-75.111824">
        <ele>2121.6008</ele>
        <time>2021-11-14T13:30:06Z</time>
      </trkpt>
      <trkpt lat="4.621045" lon="-75.111908">
        <ele>2123.4058</ele>
        <time>2021-11-14T13:30:07Z</time>
      </trkpt>
      <trkpt lat="4.621016" lon="-75.111969">
        <ele>2124.5286</ele>
        <time>2021-11-14T13:30:08Z</time>
      </trkpt>
      <trkpt lat="4.621013" lon="-75.112061">
        <ele>2125.9177</ele>
        <time>2021-11-14T13:30:09Z</time>
      </trkpt>
      <trkpt lat="4.621027" lon="-75.112129">
        <ele>2127.4548</ele>
        <time>2021-11-14T13:30:10Z</time>
      </trkpt>
      <trkpt lat="4.621049" lon="-75.112244">
        <ele>2130.1711</ele>
        <time>2021-11-14T13:30:11Z</time>
      </trkpt>
      <trkpt lat="4.621064" lon="-75.112335">
        <ele>2131.693</ele>
        <time>2021-11-14T13:30:12Z</time>
      </trkpt>
      <trkpt lat="4.621076" lon="-75.112419">
        <ele>2133.2883</ele>
        <time>2021-11-14T13:30:13Z</time>
      </trkpt>
      <trkpt lat="4.621087" lon="-75.112511">
        <ele>2134.0269</ele>
        <time>2021-11-14T13:30:14Z</time>
      </trkpt>
      <trkpt lat="4.621089" lon="-75.11261">
        <ele>2134.969</ele>
        <time>2021-11-14T13:30:15Z</time>
      </trkpt>
      <trkpt lat="4.621079" lon="-75.112679">
        <ele>2135.3577</ele>
        <time>2021-11-14T13:30:16Z</time>
      </trkpt>
      <trkpt lat="4.621089" lon="-75.112785">
        <ele>2136.1726</ele>
        <time>2021-11-14T13:30:18Z</time>
      </trkpt>
      <trkpt lat="4.621128" lon="-75.112946">
        <ele>2137.8777</ele>
        <time>2021-11-14T13:30:19Z</time>
      </trkpt>
      <trkpt lat="4.621144" lon="-75.112984">
        <ele>2138.3577</ele>
        <time>2021-11-14T13:30:20Z</time>
      </trkpt>
      <trkpt lat="4.621129" lon="-75.113007">
        <ele>2139.5332</ele>
        <time>2021-11-14T13:30:21Z</time>
      </trkpt>
      <trkpt lat="4.621095" lon="-75.113045">
        <ele>2139.1333</ele>
        <time>2021-11-14T13:30:22Z</time>
      </trkpt>
      <trkpt lat="4.621046" lon="-75.113113">
        <ele>2139.5964</ele>
        <time>2021-11-14T13:30:23Z</time>
      </trkpt>
      <trkpt lat="4.620997" lon="-75.113144">
        <ele>2140.0334</ele>
        <time>2021-11-14T13:30:24Z</time>
      </trkpt>
      <trkpt lat="4.620948" lon="-75.113152">
        <ele>2139.4658</ele>
        <time>2021-11-14T13:30:25Z</time>
      </trkpt>
      <trkpt lat="4.620948" lon="-75.113152">
        <ele>2141.2341</ele>
        <time>2021-11-14T13:30:26Z</time>
      </trkpt>
      <trkpt lat="4.620859" lon="-75.113083">
        <ele>2141.1414</ele>
        <time>2021-11-14T13:30:27Z</time>
      </trkpt>
      <trkpt lat="4.620758" lon="-75.113029">
        <ele>2141.9543</ele>
        <time>2021-11-14T13:30:28Z</time>
      </trkpt>
      <trkpt lat="4.620699" lon="-75.112976">
        <ele>2142.5515</ele>
        <time>2021-11-14T13:30:29Z</time>
      </trkpt>
      <trkpt lat="4.620656" lon="-75.112915">
        <ele>2142.618</ele>
        <time>2021-11-14T13:30:30Z</time>
      </trkpt>
      <trkpt lat="4.620604" lon="-75.112839">
        <ele>2142.9746</ele>
        <time>2021-11-14T13:30:31Z</time>
      </trkpt>
      <trkpt lat="4.62053" lon="-75.11277">
        <ele>2144.2114</ele>
        <time>2021-11-14T13:30:33Z</time>
      </trkpt>
      <trkpt lat="4.620387" lon="-75.112602">
        <ele>2146.6108</ele>
        <time>2021-11-14T13:30:34Z</time>
      </trkpt>
      <trkpt lat="4.620367" lon="-75.112549">
        <ele>2146.8433</ele>
        <time>2021-11-14T13:30:35Z</time>
      </trkpt>
      <trkpt lat="4.620329" lon="-75.112473">
        <ele>2146.7886</ele>
        <time>2021-11-14T13:30:36Z</time>
      </trkpt>
      <trkpt lat="4.620308" lon="-75.112396">
        <ele>2147.3438</ele>
        <time>2021-11-14T13:30:37Z</time>
      </trkpt>
      <trkpt lat="4.620247" lon="-75.112335">
        <ele>2147.5635</ele>
        <time>2021-11-14T13:30:38Z</time>
      </trkpt>
      <trkpt lat="4.620205" lon="-75.112282">
        <ele>2147.9458</ele>
        <time>2021-11-14T13:30:39Z</time>
      </trkpt>
      <trkpt lat="4.620101" lon="-75.112259">
        <ele>2148.6125</ele>
        <time>2021-11-14T13:30:40Z</time>
      </trkpt>
      <trkpt lat="4.620107" lon="-75.112228">
        <ele>2150.5774</ele>
        <time>2021-11-14T13:30:41Z</time>
      </trkpt>
      <trkpt lat="4.620074" lon="-75.112129">
        <ele>2150.7646</ele>
        <time>2021-11-14T13:30:42Z</time>
      </trkpt>
      <trkpt lat="4.620026" lon="-75.112099">
        <ele>2150.624</ele>
        <time>2021-11-14T13:30:43Z</time>
      </trkpt>
      <trkpt lat="4.619987" lon="-75.112">
        <ele>2150.6477</ele>
        <time>2021-11-14T13:30:44Z</time>
      </trkpt>
      <trkpt lat="4.619939" lon="-75.111961">
        <ele>2150.5283</ele>
        <time>2021-11-14T13:30:45Z</time>
      </trkpt>
      <trkpt lat="4.619823" lon="-75.111916">
        <ele>2151.4187</ele>
        <time>2021-11-14T13:30:46Z</time>
      </trkpt>
      <trkpt lat="4.619752" lon="-75.1119">
        <ele>2150.9802</ele>
        <time>2021-11-14T13:30:47Z</time>
      </trkpt>
      <trkpt lat="4.619656" lon="-75.111877">
        <ele>2151.7305</ele>
        <time>2021-11-14T13:30:49Z</time>
      </trkpt>
      <trkpt lat="4.619538" lon="-75.111847">
        <ele>2152.4893</ele>
        <time>2021-11-14T13:30:50Z</time>
      </trkpt>
      <trkpt lat="4.61945" lon="-75.111809">
        <ele>2153.609</ele>
        <time>2021-11-14T13:30:51Z</time>
      </trkpt>
      <trkpt lat="4.619337" lon="-75.111771">
        <ele>2155.1682</ele>
        <time>2021-11-14T13:30:52Z</time>
      </trkpt>
      <trkpt lat="4.619203" lon="-75.11171">
        <ele>2156.665</ele>
        <time>2021-11-14T13:30:53Z</time>
      </trkpt>
      <trkpt lat="4.619115" lon="-75.111671">
        <ele>2156.7424</ele>
        <time>2021-11-14T13:30:54Z</time>
      </trkpt>
      <trkpt lat="4.619039" lon="-75.111641">
        <ele>2157.3975</ele>
        <time>2021-11-14T13:30:55Z</time>
      </trkpt>
      <trkpt lat="4.618947" lon="-75.111565">
        <ele>2157.788</ele>
        <time>2021-11-14T13:30:56Z</time>
      </trkpt>
      <trkpt lat="4.618856" lon="-75.111481">
        <ele>2158.7327</ele>
        <time>2021-11-14T13:30:57Z</time>
      </trkpt>
      <trkpt lat="4.61878" lon="-75.111427">
        <ele>2158.8242</ele>
        <time>2021-11-14T13:30:58Z</time>
      </trkpt>
      <trkpt lat="4.61878" lon="-75.111427">
        <ele>2159.653</ele>
        <time>2021-11-14T13:30:59Z</time>
      </trkpt>
      <trkpt lat="4.61875" lon="-75.111382">
        <ele>2161.2817</ele>
        <time>2021-11-14T13:31:00Z</time>
      </trkpt>
      <trkpt lat="4.618728" lon="-75.111382">
        <ele>2162.0007</ele>
        <time>2021-11-14T13:31:01Z</time>
      </trkpt>
      <trkpt lat="4.618633" lon="-75.111366">
        <ele>2163.263</ele>
        <time>2021-11-14T13:31:02Z</time>
      </trkpt>
      <trkpt lat="4.618564" lon="-75.111366">
        <ele>2164.3152</ele>
        <time>2021-11-14T13:31:03Z</time>
      </trkpt>
      <trkpt lat="4.618471" lon="-75.111366">
        <ele>2165.9675</ele>
        <time>2021-11-14T13:31:04Z</time>
      </trkpt>
      <trkpt lat="4.618375" lon="-75.111366">
        <ele>2167.4856</ele>
        <time>2021-11-14T13:31:05Z</time>
      </trkpt>
      <trkpt lat="4.618326" lon="-75.111366">
        <ele>2167.4856</ele>
        <time>2021-11-14T13:31:07Z</time>
      </trkpt>
      <trkpt lat="4.618259" lon="-75.111389">
        <ele>2168.5215</ele>
        <time>2021-11-14T13:31:08Z</time>
      </trkpt>
      <trkpt lat="4.618197" lon="-75.11145">
        <ele>2170.6023</ele>
        <time>2021-11-14T13:31:09Z</time>
      </trkpt>
      <trkpt lat="4.618151" lon="-75.111504">
        <ele>2171.736</ele>
        <time>2021-11-14T13:31:10Z</time>
      </trkpt>
      <trkpt lat="4.618085" lon="-75.111572">
        <ele>2172.1409</ele>
        <time>2021-11-14T13:31:11Z</time>
      </trkpt>
      <trkpt lat="4.618028" lon="-75.111671">
        <ele>2172.6199</ele>
        <time>2021-11-14T13:31:12Z</time>
      </trkpt>
      <trkpt lat="4.617971" lon="-75.111771">
        <ele>2173.9866</ele>
        <time>2021-11-14T13:31:13Z</time>
      </trkpt>
      <trkpt lat="4.617955" lon="-75.111809">
        <ele>2173.5125</ele>
        <time>2021-11-14T13:31:14Z</time>
      </trkpt>
      <trkpt lat="4.61791" lon="-75.1119">
        <ele>2175.455</ele>
        <time>2021-11-14T13:31:15Z</time>
      </trkpt>
      <trkpt lat="4.617869" lon="-75.111992">
        <ele>2175.6406</ele>
        <time>2021-11-14T13:31:16Z</time>
      </trkpt>
      <trkpt lat="4.61783" lon="-75.112076">
        <ele>2176.3032</ele>
        <time>2021-11-14T13:31:17Z</time>
      </trkpt>
      <trkpt lat="4.617833" lon="-75.112106">
        <ele>2177.461</ele>
        <time>2021-11-14T13:31:18Z</time>
      </trkpt>
      <trkpt lat="4.61779" lon="-75.112183">
        <ele>2176.5322</ele>
        <time>2021-11-14T13:31:19Z</time>
      </trkpt>
      <trkpt lat="4.61782" lon="-75.112167">
        <ele>2176.9934</ele>
        <time>2021-11-14T13:31:20Z</time>
      </trkpt>
      <trkpt lat="4.61777" lon="-75.112305">
        <ele>2177.76</ele>
        <time>2021-11-14T13:31:21Z</time>
      </trkpt>
      <trkpt lat="4.617751" lon="-75.11232">
        <ele>2176.425</ele>
        <time>2021-11-14T13:31:22Z</time>
      </trkpt>
      <trkpt lat="4.617711" lon="-75.112312">
        <ele>2176.6929</ele>
        <time>2021-11-14T13:31:23Z</time>
      </trkpt>
      <trkpt lat="4.6177" lon="-75.11235">
        <ele>2176.2686</ele>
        <time>2021-11-14T13:31:24Z</time>
      </trkpt>
      <trkpt lat="4.617646" lon="-75.112389">
        <ele>2176.8708</ele>
        <time>2021-11-14T13:31:25Z</time>
      </trkpt>
      <trkpt lat="4.617612" lon="-75.112427">
        <ele>2176.7468</ele>
        <time>2021-11-14T13:31:26Z</time>
      </trkpt>
      <trkpt lat="4.617571" lon="-75.112579">
        <ele>2177.1128</ele>
        <time>2021-11-14T13:31:27Z</time>
      </trkpt>
      <trkpt lat="4.617617" lon="-75.112648">
        <ele>2177.682</ele>
        <time>2021-11-14T13:31:28Z</time>
      </trkpt>
      <trkpt lat="4.617659" lon="-75.112717">
        <ele>2178.3804</ele>
        <time>2021-11-14T13:31:29Z</time>
      </trkpt>
      <trkpt lat="4.617659" lon="-75.112778">
        <ele>2178.832</ele>
        <time>2021-11-14T13:31:30Z</time>
      </trkpt>
      <trkpt lat="4.617646" lon="-75.112823">
        <ele>2177.848</ele>
        <time>2021-11-14T13:31:31Z</time>
      </trkpt>
      <trkpt lat="4.61764" lon="-75.112854">
        <ele>2177.848</ele>
        <time>2021-11-14T13:31:32Z</time>
      </trkpt>
      <trkpt lat="4.6176" lon="-75.112885">
        <ele>2177.5156</ele>
        <time>2021-11-14T13:31:33Z</time>
      </trkpt>
      <trkpt lat="4.617511" lon="-75.112961">
        <ele>2179.2876</ele>
        <time>2021-11-14T13:31:34Z</time>
      </trkpt>
      <trkpt lat="4.617433" lon="-75.113037">
        <ele>2180.3433</ele>
        <time>2021-11-14T13:31:35Z</time>
      </trkpt>
      <trkpt lat="4.617377" lon="-75.113129">
        <ele>2180.7935</ele>
        <time>2021-11-14T13:31:36Z</time>
      </trkpt>
      <trkpt lat="4.617346" lon="-75.113205">
        <ele>2180.7935</ele>
        <time>2021-11-14T13:31:37Z</time>
      </trkpt>
      <trkpt lat="4.617327" lon="-75.113274">
        <ele>2182.1</ele>
        <time>2021-11-14T13:31:38Z</time>
      </trkpt>
      <trkpt lat="4.617294" lon="-75.113373">
        <ele>2182.8582</ele>
        <time>2021-11-14T13:31:39Z</time>
      </trkpt>
      <trkpt lat="4.61726" lon="-75.113487">
        <ele>2183.7373</ele>
        <time>2021-11-14T13:31:40Z</time>
      </trkpt>
      <trkpt lat="4.617231" lon="-75.113556">
        <ele>2184.921</ele>
        <time>2021-11-14T13:31:41Z</time>
      </trkpt>
      <trkpt lat="4.617198" lon="-75.113579">
        <ele>2184.9753</ele>
        <time>2021-11-14T13:31:42Z</time>
      </trkpt>
      <trkpt lat="4.617162" lon="-75.113594">
        <ele>2186.545</ele>
        <time>2021-11-14T13:31:43Z</time>
      </trkpt>
      <trkpt lat="4.617162" lon="-75.113594">
        <ele>2187.2134</ele>
        <time>2021-11-14T13:31:44Z</time>
      </trkpt>
      <trkpt lat="4.617066" lon="-75.113586">
        <ele>2188.3948</ele>
        <time>2021-11-14T13:31:45Z</time>
      </trkpt>
      <trkpt lat="4.616978" lon="-75.113594">
        <ele>2188.7402</ele>
        <time>2021-11-14T13:31:46Z</time>
      </trkpt>
      <trkpt lat="4.616939" lon="-75.113602">
        <ele>2189.257</ele>
        <time>2021-11-14T13:31:47Z</time>
      </trkpt>
      <trkpt lat="4.61689" lon="-75.11364">
        <ele>2189.588</ele>
        <time>2021-11-14T13:31:48Z</time>
      </trkpt>
      <trkpt lat="4.616818" lon="-75.11367">
        <ele>2190.4788</ele>
        <time>2021-11-14T13:31:49Z</time>
      </trkpt>
      <trkpt lat="4.616762" lon="-75.113731">
        <ele>2191.5996</ele>
        <time>2021-11-14T13:31:50Z</time>
      </trkpt>
      <trkpt lat="4.616704" lon="-75.113792">
        <ele>2193.2412</ele>
        <time>2021-11-14T13:31:51Z</time>
      </trkpt>
      <trkpt lat="4.616633" lon="-75.113838">
        <ele>2194.0989</ele>
        <time>2021-11-14T13:31:52Z</time>
      </trkpt>
      <trkpt lat="4.616587" lon="-75.113838">
        <ele>2195.8237</ele>
        <time>2021-11-14T13:31:53Z</time>
      </trkpt>
      <trkpt lat="4.616484" lon="-75.113876">
        <ele>2196.3506</ele>
        <time>2021-11-14T13:31:54Z</time>
      </trkpt>
      <trkpt lat="4.616437" lon="-75.113907">
        <ele>2197.132</ele>
        <time>2021-11-14T13:31:55Z</time>
      </trkpt>
      <trkpt lat="4.616381" lon="-75.113983">
        <ele>2198.1555</ele>
        <time>2021-11-14T13:31:56Z</time>
      </trkpt>
      <trkpt lat="4.616295" lon="-75.114044">
        <ele>2198.764</ele>
        <time>2021-11-14T13:31:57Z</time>
      </trkpt>
      <trkpt lat="4.61625" lon="-75.114067">
        <ele>2200.4324</ele>
        <time>2021-11-14T13:31:58Z</time>
      </trkpt>
      <trkpt lat="4.6162" lon="-75.114067">
        <ele>2199.799</ele>
        <time>2021-11-14T13:31:59Z</time>
      </trkpt>
      <trkpt lat="4.616079" lon="-75.11412">
        <ele>2201.9617</ele>
        <time>2021-11-14T13:32:00Z</time>
      </trkpt>
      <trkpt lat="4.616012" lon="-75.114174">
        <ele>2202.56</ele>
        <time>2021-11-14T13:32:01Z</time>
      </trkpt>
      <trkpt lat="4.61595" lon="-75.11422">
        <ele>2203.816</ele>
        <time>2021-11-14T13:32:02Z</time>
      </trkpt>
      <trkpt lat="4.615922" lon="-75.114304">
        <ele>2205.0442</ele>
        <time>2021-11-14T13:32:03Z</time>
      </trkpt>
      <trkpt lat="4.615908" lon="-75.114403">
        <ele>2206.483</ele>
        <time>2021-11-14T13:32:04Z</time>
      </trkpt>
      <trkpt lat="4.615843" lon="-75.11451">
        <ele>2206.8623</ele>
        <time>2021-11-14T13:32:05Z</time>
      </trkpt>
      <trkpt lat="4.615814" lon="-75.114578">
        <ele>2208.2776</ele>
        <time>2021-11-14T13:32:07Z</time>
      </trkpt>
      <trkpt lat="4.615781" lon="-75.114647">
        <ele>2208.3772</ele>
        <time>2021-11-14T13:32:08Z</time>
      </trkpt>
      <trkpt lat="4.615738" lon="-75.114685">
        <ele>2209.0522</ele>
        <time>2021-11-14T13:32:09Z</time>
      </trkpt>
      <trkpt lat="4.615636" lon="-75.114807">
        <ele>2209.3254</ele>
        <time>2021-11-14T13:32:10Z</time>
      </trkpt>
      <trkpt lat="4.615588" lon="-75.11483">
        <ele>2210.6633</ele>
        <time>2021-11-14T13:32:11Z</time>
      </trkpt>
      <trkpt lat="4.615458" lon="-75.114914">
        <ele>2211.1282</ele>
        <time>2021-11-14T13:32:12Z</time>
      </trkpt>
      <trkpt lat="4.615274" lon="-75.115013">
        <ele>2212.5215</ele>
        <time>2021-11-14T13:32:13Z</time>
      </trkpt>
      <trkpt lat="4.615215" lon="-75.115082">
        <ele>2214.319</ele>
        <time>2021-11-14T13:32:14Z</time>
      </trkpt>
      <trkpt lat="4.615253" lon="-75.115082">
        <ele>2215.4858</ele>
        <time>2021-11-14T13:32:15Z</time>
      </trkpt>
      <trkpt lat="4.615176" lon="-75.115189">
        <ele>2216.021</ele>
        <time>2021-11-14T13:32:16Z</time>
      </trkpt>
      <trkpt lat="4.615137" lon="-75.115265">
        <ele>2216.7695</ele>
        <time>2021-11-14T13:32:17Z</time>
      </trkpt>
      <trkpt lat="4.615125" lon="-75.11528">
        <ele>2216.9324</ele>
        <time>2021-11-14T13:32:18Z</time>
      </trkpt>
      <trkpt lat="4.61512" lon="-75.115273">
        <ele>2218.238</ele>
        <time>2021-11-14T13:32:19Z</time>
      </trkpt>
      <trkpt lat="4.615066" lon="-75.115295">
        <ele>2219.4197</ele>
        <time>2021-11-14T13:32:20Z</time>
      </trkpt>
      <trkpt lat="4.614949" lon="-75.115311">
        <ele>2219.8335</ele>
        <time>2021-11-14T13:32:21Z</time>
      </trkpt>
      <trkpt lat="4.614862" lon="-75.115295">
        <ele>2220.5874</ele>
        <time>2021-11-14T13:32:22Z</time>
      </trkpt>
      <trkpt lat="4.614784" lon="-75.11528">
        <ele>2221.1235</ele>
        <time>2021-11-14T13:32:23Z</time>
      </trkpt>
      <trkpt lat="4.614699" lon="-75.115295">
        <ele>2222.4202</ele>
        <time>2021-11-14T13:32:24Z</time>
      </trkpt>
      <trkpt lat="4.614642" lon="-75.115334">
        <ele>2223.213</ele>
        <time>2021-11-14T13:32:25Z</time>
      </trkpt>
      <trkpt lat="4.614588" lon="-75.115364">
        <ele>2223.8433</ele>
        <time>2021-11-14T13:32:26Z</time>
      </trkpt>
      <trkpt lat="4.614505" lon="-75.115402">
        <ele>2224.9548</ele>
        <time>2021-11-14T13:32:27Z</time>
      </trkpt>
      <trkpt lat="4.614395" lon="-75.11544">
        <ele>2225.517</ele>
        <time>2021-11-14T13:32:28Z</time>
      </trkpt>
      <trkpt lat="4.614303" lon="-75.115471">
        <ele>2226.402</ele>
        <time>2021-11-14T13:32:29Z</time>
      </trkpt>
      <trkpt lat="4.614255" lon="-75.115494">
        <ele>2227.3213</ele>
        <time>2021-11-14T13:32:30Z</time>
      </trkpt>
      <trkpt lat="4.61418" lon="-75.115532">
        <ele>2229.1316</ele>
        <time>2021-11-14T13:32:31Z</time>
      </trkpt>
      <trkpt lat="4.614122" lon="-75.115639">
        <ele>2228.9524</ele>
        <time>2021-11-14T13:32:32Z</time>
      </trkpt>
      <trkpt lat="4.614105" lon="-75.115715">
        <ele>2229.5984</ele>
        <time>2021-11-14T13:32:33Z</time>
      </trkpt>
      <trkpt lat="4.614195" lon="-75.115829">
        <ele>2230.546</ele>
        <time>2021-11-14T13:32:34Z</time>
      </trkpt>
      <trkpt lat="4.614254" lon="-75.115898">
        <ele>2231.5374</ele>
        <time>2021-11-14T13:32:35Z</time>
      </trkpt>
      <trkpt lat="4.614254" lon="-75.115898">
        <ele>2233.1116</ele>
        <time>2021-11-14T13:32:36Z</time>
      </trkpt>
      <trkpt lat="4.614324" lon="-75.115967">
        <ele>2233.922</ele>
        <time>2021-11-14T13:32:37Z</time>
      </trkpt>
      <trkpt lat="4.614381" lon="-75.116035">
        <ele>2234.8616</ele>
        <time>2021-11-14T13:32:38Z</time>
      </trkpt>
      <trkpt lat="4.614555" lon="-75.116234">
        <ele>2235.6973</ele>
        <time>2021-11-14T13:32:40Z</time>
      </trkpt>
      <trkpt lat="4.614603" lon="-75.11628">
        <ele>2236.819</ele>
        <time>2021-11-14T13:32:41Z</time>
      </trkpt>
      <trkpt lat="4.614651" lon="-75.116325">
        <ele>2237.4229</ele>
        <time>2021-11-14T13:32:42Z</time>
      </trkpt>
      <trkpt lat="4.614725" lon="-75.116333">
        <ele>2238.7896</ele>
        <time>2021-11-14T13:32:43Z</time>
      </trkpt>
      <trkpt lat="4.614869" lon="-75.116356">
        <ele>2240.5637</ele>
        <time>2021-11-14T13:32:44Z</time>
      </trkpt>
      <trkpt lat="4.614953" lon="-75.116371">
        <ele>2241.1572</ele>
        <time>2021-11-14T13:32:45Z</time>
      </trkpt>
      <trkpt lat="4.614941" lon="-75.116409">
        <ele>2243.814</ele>
        <time>2021-11-14T13:32:46Z</time>
      </trkpt>
      <trkpt lat="4.615026" lon="-75.11647">
        <ele>2243.6125</ele>
        <time>2021-11-14T13:32:47Z</time>
      </trkpt>
      <trkpt lat="4.615092" lon="-75.116661">
        <ele>2244.4045</ele>
        <time>2021-11-14T13:32:48Z</time>
      </trkpt>
      <trkpt lat="4.615079" lon="-75.116653">
        <ele>2244.568</ele>
        <time>2021-11-14T13:32:49Z</time>
      </trkpt>
      <trkpt lat="4.615151" lon="-75.116806">
        <ele>2245.7727</ele>
        <time>2021-11-14T13:32:50Z</time>
      </trkpt>
      <trkpt lat="4.61516" lon="-75.11692">
        <ele>2245.316</ele>
        <time>2021-11-14T13:32:52Z</time>
      </trkpt>
      <trkpt lat="4.615196" lon="-75.117012">
        <ele>2246.237</ele>
        <time>2021-11-14T13:32:53Z</time>
      </trkpt>
      <trkpt lat="4.615196" lon="-75.117065">
        <ele>2246.176</ele>
        <time>2021-11-14T13:32:54Z</time>
      </trkpt>
      <trkpt lat="4.615252" lon="-75.117142">
        <ele>2247.3477</ele>
        <time>2021-11-14T13:32:55Z</time>
      </trkpt>
      <trkpt lat="4.615281" lon="-75.117188">
        <ele>2247.286</ele>
        <time>2021-11-14T13:32:56Z</time>
      </trkpt>
      <trkpt lat="4.615285" lon="-75.117249">
        <ele>2247.6375</ele>
        <time>2021-11-14T13:32:57Z</time>
      </trkpt>
      <trkpt lat="4.615283" lon="-75.117294">
        <ele>2247.4045</ele>
        <time>2021-11-14T13:32:58Z</time>
      </trkpt>
      <trkpt lat="4.615288" lon="-75.117401">
        <ele>2246.8767</ele>
        <time>2021-11-14T13:32:59Z</time>
      </trkpt>
      <trkpt lat="4.615274" lon="-75.117508">
        <ele>2247.8767</ele>
        <time>2021-11-14T13:33:00Z</time>
      </trkpt>
      <trkpt lat="4.615259" lon="-75.117516">
        <ele>2248.144</ele>
        <time>2021-11-14T13:33:01Z</time>
      </trkpt>
      <trkpt lat="4.615265" lon="-75.117538">
        <ele>2246.5308</ele>
        <time>2021-11-14T13:33:02Z</time>
      </trkpt>
      <trkpt lat="4.615288" lon="-75.117561">
        <ele>2246.572</ele>
        <time>2021-11-14T13:33:03Z</time>
      </trkpt>
      <trkpt lat="4.615312" lon="-75.117661">
        <ele>2246.5146</ele>
        <time>2021-11-14T13:33:04Z</time>
      </trkpt>
      <trkpt lat="4.615273" lon="-75.117691">
        <ele>2246.7173</ele>
        <time>2021-11-14T13:33:05Z</time>
      </trkpt>
      <trkpt lat="4.615208" lon="-75.117722">
        <ele>2247.791</ele>
        <time>2021-11-14T13:33:06Z</time>
      </trkpt>
      <trkpt lat="4.615177" lon="-75.117722">
        <ele>2247.9744</ele>
        <time>2021-11-14T13:33:07Z</time>
      </trkpt>
      <trkpt lat="4.615135" lon="-75.117706">
        <ele>2248.7605</ele>
        <time>2021-11-14T13:33:08Z</time>
      </trkpt>
      <trkpt lat="4.61505" lon="-75.117691">
        <ele>2248.1013</ele>
        <time>2021-11-14T13:33:09Z</time>
      </trkpt>
      <trkpt lat="4.614935" lon="-75.117653">
        <ele>2248.154</ele>
        <time>2021-11-14T13:33:10Z</time>
      </trkpt>
      <trkpt lat="4.614904" lon="-75.117622">
        <ele>2249.8794</ele>
        <time>2021-11-14T13:33:11Z</time>
      </trkpt>
      <trkpt lat="4.614786" lon="-75.117584">
        <ele>2249.7412</ele>
        <time>2021-11-14T13:33:12Z</time>
      </trkpt>
      <trkpt lat="4.614728" lon="-75.117577">
        <ele>2250.7683</ele>
        <time>2021-11-14T13:33:13Z</time>
      </trkpt>
      <trkpt lat="4.614647" lon="-75.117531">
        <ele>2251.6377</ele>
        <time>2021-11-14T13:33:14Z</time>
      </trkpt>
      <trkpt lat="4.614576" lon="-75.117485">
        <ele>2252.4307</ele>
        <time>2021-11-14T13:33:15Z</time>
      </trkpt>
      <trkpt lat="4.614534" lon="-75.117447">
        <ele>2253.7463</ele>
        <time>2021-11-14T13:33:16Z</time>
      </trkpt>
      <trkpt lat="4.614454" lon="-75.117393">
        <ele>2255.1775</ele>
        <time>2021-11-14T13:33:17Z</time>
      </trkpt>
      <trkpt lat="4.614391" lon="-75.117378">
        <ele>2254.7913</ele>
        <time>2021-11-14T13:33:18Z</time>
      </trkpt>
      <trkpt lat="4.614334" lon="-75.117401">
        <ele>2255.838</ele>
        <time>2021-11-14T13:33:19Z</time>
      </trkpt>
      <trkpt lat="4.61426" lon="-75.117447">
        <ele>2256.116</ele>
        <time>2021-11-14T13:33:20Z</time>
      </trkpt>
      <trkpt lat="4.614217" lon="-75.117493">
        <ele>2255.711</ele>
        <time>2021-11-14T13:33:21Z</time>
      </trkpt>
      <trkpt lat="4.614191" lon="-75.117569">
        <ele>2256.48</ele>
        <time>2021-11-14T13:33:22Z</time>
      </trkpt>
      <trkpt lat="4.614158" lon="-75.117668">
        <ele>2255.765</ele>
        <time>2021-11-14T13:33:23Z</time>
      </trkpt>
      <trkpt lat="4.614152" lon="-75.117783">
        <ele>2255.8677</ele>
        <time>2021-11-14T13:33:24Z</time>
      </trkpt>
      <trkpt lat="4.614141" lon="-75.117889">
        <ele>2255.0422</ele>
        <time>2021-11-14T13:33:25Z</time>
      </trkpt>
      <trkpt lat="4.614141" lon="-75.117889">
        <ele>2254.6782</ele>
        <time>2021-11-14T13:33:26Z</time>
      </trkpt>
      <trkpt lat="4.614126" lon="-75.117981">
        <ele>2254.5544</ele>
        <time>2021-11-14T13:33:27Z</time>
      </trkpt>
      <trkpt lat="4.614116" lon="-75.118027">
        <ele>2254.448</ele>
        <time>2021-11-14T13:33:28Z</time>
      </trkpt>
      <trkpt lat="4.614107" lon="-75.11808">
        <ele>2254.8376</ele>
        <time>2021-11-14T13:33:29Z</time>
      </trkpt>
      <trkpt lat="4.614099" lon="-75.118164">
        <ele>2253.9685</ele>
        <time>2021-11-14T13:33:30Z</time>
      </trkpt>
      <trkpt lat="4.614101" lon="-75.118279">
        <ele>2253.836</ele>
        <time>2021-11-14T13:33:31Z</time>
      </trkpt>
      <trkpt lat="4.614087" lon="-75.118256">
        <ele>2254.0747</ele>
        <time>2021-11-14T13:33:32Z</time>
      </trkpt>
      <trkpt lat="4.614083" lon="-75.118301">
        <ele>2254.8474</ele>
        <time>2021-11-14T13:33:33Z</time>
      </trkpt>
      <trkpt lat="4.614053" lon="-75.11837">
        <ele>2254.6016</ele>
        <time>2021-11-14T13:33:34Z</time>
      </trkpt>
      <trkpt lat="4.61404" lon="-75.118378">
        <ele>2254.9597</ele>
        <time>2021-11-14T13:33:35Z</time>
      </trkpt>
      <trkpt lat="4.614039" lon="-75.118431">
        <ele>2255.1682</ele>
        <time>2021-11-14T13:33:36Z</time>
      </trkpt>
      <trkpt lat="4.614014" lon="-75.118477">
        <ele>2254.9414</ele>
        <time>2021-11-14T13:33:37Z</time>
      </trkpt>
      <trkpt lat="4.61402" lon="-75.118492">
        <ele>2255.087</ele>
        <time>2021-11-14T13:33:38Z</time>
      </trkpt>
      <trkpt lat="4.613995" lon="-75.118561">
        <ele>2254.7158</ele>
        <time>2021-11-14T13:33:39Z</time>
      </trkpt>
      <trkpt lat="4.613981" lon="-75.118599">
        <ele>2255.354</ele>
        <time>2021-11-14T13:33:40Z</time>
      </trkpt>
      <trkpt lat="4.613978" lon="-75.118591">
        <ele>2254.9587</ele>
        <time>2021-11-14T13:33:41Z</time>
      </trkpt>
      <trkpt lat="4.613966" lon="-75.118622">
        <ele>2255.315</ele>
        <time>2021-11-14T13:33:42Z</time>
      </trkpt>
      <trkpt lat="4.613958" lon="-75.118706">
        <ele>2255.409</ele>
        <time>2021-11-14T13:33:43Z</time>
      </trkpt>
      <trkpt lat="4.61393" lon="-75.118752">
        <ele>2255.5886</ele>
        <time>2021-11-14T13:33:44Z</time>
      </trkpt>
      <trkpt lat="4.613924" lon="-75.118797">
        <ele>2255.4062</ele>
        <time>2021-11-14T13:33:45Z</time>
      </trkpt>
      <trkpt lat="4.613913" lon="-75.118805">
        <ele>2255.5671</ele>
        <time>2021-11-14T13:33:46Z</time>
      </trkpt>
      <trkpt lat="4.613896" lon="-75.118835">
        <ele>2255.9795</ele>
        <time>2021-11-14T13:33:47Z</time>
      </trkpt>
      <trkpt lat="4.613895" lon="-75.118919">
        <ele>2256.552</ele>
        <time>2021-11-14T13:33:48Z</time>
      </trkpt>
      <trkpt lat="4.613869" lon="-75.118988">
        <ele>2256.9258</ele>
        <time>2021-11-14T13:33:49Z</time>
      </trkpt>
      <trkpt lat="4.613856" lon="-75.118988">
        <ele>2256.8728</ele>
        <time>2021-11-14T13:33:51Z</time>
      </trkpt>
      <trkpt lat="4.613842" lon="-75.119026">
        <ele>2256.9314</ele>
        <time>2021-11-14T13:33:52Z</time>
      </trkpt>
      <trkpt lat="4.613831" lon="-75.119072">
        <ele>2256.871</ele>
        <time>2021-11-14T13:33:53Z</time>
      </trkpt>
      <trkpt lat="4.613827" lon="-75.119102">
        <ele>2256.7341</ele>
        <time>2021-11-14T13:33:54Z</time>
      </trkpt>
      <trkpt lat="4.613814" lon="-75.119202">
        <ele>2258.2742</ele>
        <time>2021-11-14T13:33:55Z</time>
      </trkpt>
      <trkpt lat="4.613806" lon="-75.119225">
        <ele>2258.0742</ele>
        <time>2021-11-14T13:33:56Z</time>
      </trkpt>
      <trkpt lat="4.613792" lon="-75.119278">
        <ele>2258.6072</ele>
        <time>2021-11-14T13:33:57Z</time>
      </trkpt>
      <trkpt lat="4.613814" lon="-75.119354">
        <ele>2258.8074</ele>
        <time>2021-11-14T13:33:58Z</time>
      </trkpt>
      <trkpt lat="4.613827" lon="-75.119354">
        <ele>2258.5493</ele>
        <time>2021-11-14T13:33:59Z</time>
      </trkpt>
      <trkpt lat="4.613824" lon="-75.119354">
        <ele>2257.548</ele>
        <time>2021-11-14T13:34:00Z</time>
      </trkpt>
      <trkpt lat="4.613829" lon="-75.119354">
        <ele>2257.574</ele>
        <time>2021-11-14T13:34:01Z</time>
      </trkpt>
      <trkpt lat="4.613833" lon="-75.119362">
        <ele>2257.588</ele>
        <time>2021-11-14T13:34:02Z</time>
      </trkpt>
      <trkpt lat="4.613834" lon="-75.119362">
        <ele>2257.8938</ele>
        <time>2021-11-14T13:34:03Z</time>
      </trkpt>
      <trkpt lat="4.613835" lon="-75.119362">
        <ele>2258.073</ele>
        <time>2021-11-14T13:34:04Z</time>
      </trkpt>
      <trkpt lat="4.613835" lon="-75.119362">
        <ele>2257.9338</ele>
        <time>2021-11-14T13:34:06Z</time>
      </trkpt>
      <trkpt lat="4.613836" lon="-75.119362">
        <ele>2258.8076</ele>
        <time>2021-11-14T13:34:07Z</time>
      </trkpt>
      <trkpt lat="4.613857" lon="-75.119423">
        <ele>2259.434</ele>
        <time>2021-11-14T13:34:08Z</time>
      </trkpt>
      <trkpt lat="4.613882" lon="-75.119492">
        <ele>2258.684</ele>
        <time>2021-11-14T13:34:09Z</time>
      </trkpt>
      <trkpt lat="4.613882" lon="-75.119492">
        <ele>2259.1494</ele>
        <time>2021-11-14T13:34:10Z</time>
      </trkpt>
      <trkpt lat="4.613936" lon="-75.119537">
        <ele>2259.493</ele>
        <time>2021-11-14T13:34:11Z</time>
      </trkpt>
      <trkpt lat="4.613957" lon="-75.11956">
        <ele>2260.163</ele>
        <time>2021-11-14T13:34:12Z</time>
      </trkpt>
      <trkpt lat="4.613978" lon="-75.119583">
        <ele>2260.7378</ele>
        <time>2021-11-14T13:34:13Z</time>
      </trkpt>
      <trkpt lat="4.614009" lon="-75.119621">
        <ele>2261.2136</ele>
        <time>2021-11-14T13:34:14Z</time>
      </trkpt>
      <trkpt lat="4.614051" lon="-75.119667">
        <ele>2261.6943</ele>
        <time>2021-11-14T13:34:15Z</time>
      </trkpt>
      <trkpt lat="4.614069" lon="-75.119705">
        <ele>2262.299</ele>
        <time>2021-11-14T13:34:16Z</time>
      </trkpt>
      <trkpt lat="4.614128" lon="-75.119759">
        <ele>2261.6921</ele>
        <time>2021-11-14T13:34:17Z</time>
      </trkpt>
      <trkpt lat="4.614225" lon="-75.119827">
        <ele>2261.0164</ele>
        <time>2021-11-14T13:34:18Z</time>
      </trkpt>
      <trkpt lat="4.614224" lon="-75.119827">
        <ele>2259.6094</ele>
        <time>2021-11-14T13:34:19Z</time>
      </trkpt>
      <trkpt lat="4.614285" lon="-75.119888">
        <ele>2259.9075</ele>
        <time>2021-11-14T13:34:21Z</time>
      </trkpt>
      <trkpt lat="4.614434" lon="-75.12001">
        <ele>2259.4849</ele>
        <time>2021-11-14T13:34:22Z</time>
      </trkpt>
      <trkpt lat="4.614484" lon="-75.120049">
        <ele>2259.1487</ele>
        <time>2021-11-14T13:34:23Z</time>
      </trkpt>
      <trkpt lat="4.614523" lon="-75.120079">
        <ele>2258.0542</ele>
        <time>2021-11-14T13:34:24Z</time>
      </trkpt>
      <trkpt lat="4.614574" lon="-75.12011">
        <ele>2258.147</ele>
        <time>2021-11-14T13:34:25Z</time>
      </trkpt>
      <trkpt lat="4.614635" lon="-75.120155">
        <ele>2258.487</ele>
        <time>2021-11-14T13:34:26Z</time>
      </trkpt>
      <trkpt lat="4.614663" lon="-75.120186">
        <ele>2258.9138</ele>
        <time>2021-11-14T13:34:28Z</time>
      </trkpt>
      <trkpt lat="4.614628" lon="-75.120178">
        <ele>2258.7822</ele>
        <time>2021-11-14T13:34:29Z</time>
      </trkpt>
      <trkpt lat="4.614637" lon="-75.120216">
        <ele>2260.2</ele>
        <time>2021-11-14T13:34:30Z</time>
      </trkpt>
      <trkpt lat="4.614669" lon="-75.120308">
        <ele>2260.0415</ele>
        <time>2021-11-14T13:34:31Z</time>
      </trkpt>
      <trkpt lat="4.614682" lon="-75.120399">
        <ele>2260.5842</ele>
        <time>2021-11-14T13:34:32Z</time>
      </trkpt>
      <trkpt lat="4.614672" lon="-75.120369">
        <ele>2259.9526</ele>
        <time>2021-11-14T13:34:33Z</time>
      </trkpt>
      <trkpt lat="4.61468" lon="-75.120438">
        <ele>2260.8967</ele>
        <time>2021-11-14T13:34:34Z</time>
      </trkpt>
      <trkpt lat="4.614666" lon="-75.120499">
        <ele>2262.6216</ele>
        <time>2021-11-14T13:34:35Z</time>
      </trkpt>
      <trkpt lat="4.614661" lon="-75.120506">
        <ele>2262.5437</ele>
        <time>2021-11-14T13:34:36Z</time>
      </trkpt>
      <trkpt lat="4.614634" lon="-75.120522">
        <ele>2262.9595</ele>
        <time>2021-11-14T13:34:37Z</time>
      </trkpt>
      <trkpt lat="4.614597" lon="-75.120575">
        <ele>2262.4612</ele>
        <time>2021-11-14T13:34:38Z</time>
      </trkpt>
      <trkpt lat="4.614589" lon="-75.120575">
        <ele>2262.6248</ele>
        <time>2021-11-14T13:34:39Z</time>
      </trkpt>
      <trkpt lat="4.614591" lon="-75.12056">
        <ele>2262.6174</ele>
        <time>2021-11-14T13:34:40Z</time>
      </trkpt>
      <trkpt lat="4.614572" lon="-75.120575">
        <ele>2262.458</ele>
        <time>2021-11-14T13:34:41Z</time>
      </trkpt>
      <trkpt lat="4.614559" lon="-75.12059">
        <ele>2262.426</ele>
        <time>2021-11-14T13:34:42Z</time>
      </trkpt>
      <trkpt lat="4.614544" lon="-75.120605">
        <ele>2260.768</ele>
        <time>2021-11-14T13:34:43Z</time>
      </trkpt>
      <trkpt lat="4.614517" lon="-75.120636">
        <ele>2258.025</ele>
        <time>2021-11-14T13:34:44Z</time>
      </trkpt>
      <trkpt lat="4.61449" lon="-75.120659">
        <ele>2257.6943</ele>
        <time>2021-11-14T13:34:45Z</time>
      </trkpt>
      <trkpt lat="4.614474" lon="-75.120667">
        <ele>2257.1958</ele>
        <time>2021-11-14T13:34:46Z</time>
      </trkpt>
      <trkpt lat="4.614441" lon="-75.120682">
        <ele>2255.56</ele>
        <time>2021-11-14T13:34:47Z</time>
      </trkpt>
      <trkpt lat="4.614312" lon="-75.120743">
        <ele>2256.3083</ele>
        <time>2021-11-14T13:34:48Z</time>
      </trkpt>
      <trkpt lat="4.614191" lon="-75.120773">
        <ele>2256.5366</ele>
        <time>2021-11-14T13:34:49Z</time>
      </trkpt>
      <trkpt lat="4.614171" lon="-75.120766">
        <ele>2255.956</ele>
        <time>2021-11-14T13:34:50Z</time>
      </trkpt>
      <trkpt lat="4.614167" lon="-75.120773">
        <ele>2254.843</ele>
        <time>2021-11-14T13:34:51Z</time>
      </trkpt>
      <trkpt lat="4.614143" lon="-75.120827">
        <ele>2255.3396</ele>
        <time>2021-11-14T13:34:52Z</time>
      </trkpt>
      <trkpt lat="4.614144" lon="-75.120842">
        <ele>2253.6665</ele>
        <time>2021-11-14T13:34:53Z</time>
      </trkpt>
      <trkpt lat="4.614144" lon="-75.120842">
        <ele>2251.831</ele>
        <time>2021-11-14T13:34:54Z</time>
      </trkpt>
      <trkpt lat="4.614142" lon="-75.120872">
        <ele>2249.9434</ele>
        <time>2021-11-14T13:34:55Z</time>
      </trkpt>
      <trkpt lat="4.614114" lon="-75.12088">
        <ele>2247.4795</ele>
        <time>2021-11-14T13:34:57Z</time>
      </trkpt>
      <trkpt lat="4.614114" lon="-75.120918">
        <ele>2247.9226</ele>
        <time>2021-11-14T13:34:58Z</time>
      </trkpt>
      <trkpt lat="4.614119" lon="-75.120918">
        <ele>2246.7456</ele>
        <time>2021-11-14T13:34:59Z</time>
      </trkpt>
      <trkpt lat="4.614107" lon="-75.120941">
        <ele>2246.8315</ele>
        <time>2021-11-14T13:35:00Z</time>
      </trkpt>
      <trkpt lat="4.614083" lon="-75.12104">
        <ele>2246.098</ele>
        <time>2021-11-14T13:35:01Z</time>
      </trkpt>
      <trkpt lat="4.614058" lon="-75.121124">
        <ele>2246.542</ele>
        <time>2021-11-14T13:35:02Z</time>
      </trkpt>
      <trkpt lat="4.61407" lon="-75.121155">
        <ele>2248.4656</ele>
        <time>2021-11-14T13:35:03Z</time>
      </trkpt>
      <trkpt lat="4.614077" lon="-75.121239">
        <ele>2249.2751</ele>
        <time>2021-11-14T13:35:04Z</time>
      </trkpt>
      <trkpt lat="4.614042" lon="-75.121307">
        <ele>2248.062</ele>
        <time>2021-11-14T13:35:05Z</time>
      </trkpt>
      <trkpt lat="4.614068" lon="-75.121483">
        <ele>2245.6514</ele>
        <time>2021-11-14T13:35:06Z</time>
      </trkpt>
      <trkpt lat="4.614081" lon="-75.121529">
        <ele>2245.8113</ele>
        <time>2021-11-14T13:35:08Z</time>
      </trkpt>
      <trkpt lat="4.614102" lon="-75.12159">
        <ele>2245.759</ele>
        <time>2021-11-14T13:35:09Z</time>
      </trkpt>
      <trkpt lat="4.614088" lon="-75.121651">
        <ele>2245.1921</ele>
        <time>2021-11-14T13:35:10Z</time>
      </trkpt>
      <trkpt lat="4.614103" lon="-75.121681">
        <ele>2245.2986</ele>
        <time>2021-11-14T13:35:11Z</time>
      </trkpt>
      <trkpt lat="4.61413" lon="-75.121735">
        <ele>2245.4338</ele>
        <time>2021-11-14T13:35:12Z</time>
      </trkpt>
      <trkpt lat="4.614139" lon="-75.121765">
        <ele>2245.0679</ele>
        <time>2021-11-14T13:35:13Z</time>
      </trkpt>
      <trkpt lat="4.614145" lon="-75.121803">
        <ele>2245.0662</ele>
        <time>2021-11-14T13:35:14Z</time>
      </trkpt>
      <trkpt lat="4.614152" lon="-75.121841">
        <ele>2244.3733</ele>
        <time>2021-11-14T13:35:15Z</time>
      </trkpt>
      <trkpt lat="4.614148" lon="-75.121857">
        <ele>2244.3481</ele>
        <time>2021-11-14T13:35:16Z</time>
      </trkpt>
      <trkpt lat="4.614136" lon="-75.121895">
        <ele>2244.5762</ele>
        <time>2021-11-14T13:35:17Z</time>
      </trkpt>
      <trkpt lat="4.614122" lon="-75.121964">
        <ele>2244.5957</ele>
        <time>2021-11-14T13:35:18Z</time>
      </trkpt>
      <trkpt lat="4.614099" lon="-75.121986">
        <ele>2244.5706</ele>
        <time>2021-11-14T13:35:19Z</time>
      </trkpt>
      <trkpt lat="4.614076" lon="-75.122032">
        <ele>2244.2368</ele>
        <time>2021-11-14T13:35:20Z</time>
      </trkpt>
      <trkpt lat="4.614075" lon="-75.122063">
        <ele>2243.853</ele>
        <time>2021-11-14T13:35:21Z</time>
      </trkpt>
      <trkpt lat="4.614069" lon="-75.122116">
        <ele>2244.546</ele>
        <time>2021-11-14T13:35:22Z</time>
      </trkpt>
      <trkpt lat="4.614063" lon="-75.122177">
        <ele>2244.6458</ele>
        <time>2021-11-14T13:35:23Z</time>
      </trkpt>
      <trkpt lat="4.614061" lon="-75.122238">
        <ele>2244.3694</ele>
        <time>2021-11-14T13:35:24Z</time>
      </trkpt>
      <trkpt lat="4.614064" lon="-75.122284">
        <ele>2243.0737</ele>
        <time>2021-11-14T13:35:25Z</time>
      </trkpt>
      <trkpt lat="4.61408" lon="-75.122345">
        <ele>2243.3687</ele>
        <time>2021-11-14T13:35:26Z</time>
      </trkpt>
      <trkpt lat="4.614089" lon="-75.122421">
        <ele>2243.296</ele>
        <time>2021-11-14T13:35:27Z</time>
      </trkpt>
      <trkpt lat="4.61409" lon="-75.122452">
        <ele>2243.6887</ele>
        <time>2021-11-14T13:35:28Z</time>
      </trkpt>
      <trkpt lat="4.614094" lon="-75.122467">
        <ele>2243.981</ele>
        <time>2021-11-14T13:35:29Z</time>
      </trkpt>
      <trkpt lat="4.614103" lon="-75.12252">
        <ele>2244.3967</ele>
        <time>2021-11-14T13:35:30Z</time>
      </trkpt>
      <trkpt lat="4.614115" lon="-75.122536">
        <ele>2243.597</ele>
        <time>2021-11-14T13:35:31Z</time>
      </trkpt>
      <trkpt lat="4.614123" lon="-75.122543">
        <ele>2243.8843</ele>
        <time>2021-11-14T13:35:32Z</time>
      </trkpt>
      <trkpt lat="4.614124" lon="-75.122543">
        <ele>2244.0642</ele>
        <time>2021-11-14T13:35:33Z</time>
      </trkpt>
      <trkpt lat="4.614121" lon="-75.122543">
        <ele>2243.9717</ele>
        <time>2021-11-14T13:35:34Z</time>
      </trkpt>
      <trkpt lat="4.614121" lon="-75.122543">
        <ele>2244.4678</ele>
        <time>2021-11-14T13:35:36Z</time>
      </trkpt>
      <trkpt lat="4.614122" lon="-75.122543">
        <ele>2244.8875</ele>
        <time>2021-11-14T13:35:37Z</time>
      </trkpt>
      <trkpt lat="4.614119" lon="-75.122543">
        <ele>2244.732</ele>
        <time>2021-11-14T13:35:38Z</time>
      </trkpt>
      <trkpt lat="4.614123" lon="-75.122551">
        <ele>2244.518</ele>
        <time>2021-11-14T13:35:39Z</time>
      </trkpt>
      <trkpt lat="4.614122" lon="-75.122551">
        <ele>2244.6677</ele>
        <time>2021-11-14T13:35:40Z</time>
      </trkpt>
      <trkpt lat="4.614122" lon="-75.122551">
        <ele>2244.8704</ele>
        <time>2021-11-14T13:35:41Z</time>
      </trkpt>
      <trkpt lat="4.614122" lon="-75.122551">
        <ele>2244.5671</ele>
        <time>2021-11-14T13:35:42Z</time>
      </trkpt>
      <trkpt lat="4.614124" lon="-75.122551">
        <ele>2244.623</ele>
        <time>2021-11-14T13:35:43Z</time>
      </trkpt>
      <trkpt lat="4.614123" lon="-75.122551">
        <ele>2244.7534</ele>
        <time>2021-11-14T13:35:44Z</time>
      </trkpt>
      <trkpt lat="4.614122" lon="-75.122551">
        <ele>2244.741</ele>
        <time>2021-11-14T13:35:45Z</time>
      </trkpt>
      <trkpt lat="4.614122" lon="-75.122551">
        <ele>2244.7305</ele>
        <time>2021-11-14T13:35:46Z</time>
      </trkpt>
      <trkpt lat="4.614122" lon="-75.122551">
        <ele>2244.7266</ele>
        <time>2021-11-14T13:35:47Z</time>
      </trkpt>
      <trkpt lat="4.614122" lon="-75.122551">
        <ele>2244.722</ele>
        <time>2021-11-14T13:35:49Z</time>
      </trkpt>
      <trkpt lat="4.614122" lon="-75.122551">
        <ele>2244.7236</ele>
        <time>2021-11-14T13:35:50Z</time>
      </trkpt>
      <trkpt lat="4.614122" lon="-75.122551">
        <ele>2244.7263</ele>
        <time>2021-11-14T13:35:51Z</time>
      </trkpt>
      <trkpt lat="4.614122" lon="-75.122551">
        <ele>2244.7234</ele>
        <time>2021-11-14T13:35:52Z</time>
      </trkpt>
      <trkpt lat="4.614122" lon="-75.122551">
        <ele>2244.7249</ele>
        <time>2021-11-14T13:35:53Z</time>
      </trkpt>
      <trkpt lat="4.614122" lon="-75.122551">
        <ele>2244.7297</ele>
        <time>2021-11-14T13:35:54Z</time>
      </trkpt>
      <trkpt lat="4.614122" lon="-75.122551">
        <ele>2244.6208</ele>
        <time>2021-11-14T13:35:55Z</time>
      </trkpt>
      <trkpt lat="4.614136" lon="-75.122566">
        <ele>2244.817</ele>
        <time>2021-11-14T13:35:56Z</time>
      </trkpt>
      <trkpt lat="4.614229" lon="-75.122665">
        <ele>2244.6833</ele>
        <time>2021-11-14T13:35:57Z</time>
      </trkpt>
      <trkpt lat="4.614279" lon="-75.122704">
        <ele>2244.6592</ele>
        <time>2021-11-14T13:35:58Z</time>
      </trkpt>
      <trkpt lat="4.614301" lon="-75.122719">
        <ele>2244.946</ele>
        <time>2021-11-14T13:35:59Z</time>
      </trkpt>
      <trkpt lat="4.614304" lon="-75.122711">
        <ele>2244.7886</ele>
        <time>2021-11-14T13:36:00Z</time>
      </trkpt>
      <trkpt lat="4.614328" lon="-75.122726">
        <ele>2244.798</ele>
        <time>2021-11-14T13:36:01Z</time>
      </trkpt>
      <trkpt lat="4.614359" lon="-75.122749">
        <ele>2244.9187</ele>
        <time>2021-11-14T13:36:02Z</time>
      </trkpt>
      <trkpt lat="4.614373" lon="-75.122765">
        <ele>2244.5684</ele>
        <time>2021-11-14T13:36:04Z</time>
      </trkpt>
      <trkpt lat="4.614389" lon="-75.12278">
        <ele>2244.549</ele>
        <time>2021-11-14T13:36:05Z</time>
      </trkpt>
      <trkpt lat="4.614425" lon="-75.122803">
        <ele>2244.4485</ele>
        <time>2021-11-14T13:36:06Z</time>
      </trkpt>
      <trkpt lat="4.614452" lon="-75.122833">
        <ele>2244.5806</ele>
        <time>2021-11-14T13:36:07Z</time>
      </trkpt>
      <trkpt lat="4.614461" lon="-75.122833">
        <ele>2244.813</ele>
        <time>2021-11-14T13:36:08Z</time>
      </trkpt>
      <trkpt lat="4.614474" lon="-75.122849">
        <ele>2245.3684</ele>
        <time>2021-11-14T13:36:09Z</time>
      </trkpt>
      <trkpt lat="4.614493" lon="-75.122856">
        <ele>2244.8738</ele>
        <time>2021-11-14T13:36:10Z</time>
      </trkpt>
      <trkpt lat="4.614542" lon="-75.122887">
        <ele>2244.5703</ele>
        <time>2021-11-14T13:36:11Z</time>
      </trkpt>
      <trkpt lat="4.614606" lon="-75.122902">
        <ele>2244.3186</ele>
        <time>2021-11-14T13:36:12Z</time>
      </trkpt>
      <trkpt lat="4.614632" lon="-75.122925">
        <ele>2244.4885</ele>
        <time>2021-11-14T13:36:13Z</time>
      </trkpt>
      <trkpt lat="4.614674" lon="-75.122955">
        <ele>2245.544</ele>
        <time>2021-11-14T13:36:14Z</time>
      </trkpt>
      <trkpt lat="4.614687" lon="-75.122963">
        <ele>2245.1746</ele>
        <time>2021-11-14T13:36:15Z</time>
      </trkpt>
      <trkpt lat="4.61473" lon="-75.122993">
        <ele>2244.703</ele>
        <time>2021-11-14T13:36:16Z</time>
      </trkpt>
      <trkpt lat="4.614758" lon="-75.123016">
        <ele>2244.0864</ele>
        <time>2021-11-14T13:36:18Z</time>
      </trkpt>
      <trkpt lat="4.61481" lon="-75.123055">
        <ele>2245.0894</ele>
        <time>2021-11-14T13:36:19Z</time>
      </trkpt>
      <trkpt lat="4.614823" lon="-75.12307">
        <ele>2245.01</ele>
        <time>2021-11-14T13:36:20Z</time>
      </trkpt>
      <trkpt lat="4.614839" lon="-75.123085">
        <ele>2244.409</ele>
        <time>2021-11-14T13:36:21Z</time>
      </trkpt>
      <trkpt lat="4.614856" lon="-75.1231">
        <ele>2244.0396</ele>
        <time>2021-11-14T13:36:22Z</time>
      </trkpt>
      <trkpt lat="4.614886" lon="-75.123116">
        <ele>2244.8608</ele>
        <time>2021-11-14T13:36:23Z</time>
      </trkpt>
      <trkpt lat="4.614917" lon="-75.123138">
        <ele>2244.0422</ele>
        <time>2021-11-14T13:36:25Z</time>
      </trkpt>
      <trkpt lat="4.61493" lon="-75.123146">
        <ele>2244.151</ele>
        <time>2021-11-14T13:36:26Z</time>
      </trkpt>
      <trkpt lat="4.614969" lon="-75.123184">
        <ele>2243.7805</ele>
        <time>2021-11-14T13:36:27Z</time>
      </trkpt>
      <trkpt lat="4.61498" lon="-75.123192">
        <ele>2243.6013</ele>
        <time>2021-11-14T13:36:28Z</time>
      </trkpt>
      <trkpt lat="4.615013" lon="-75.123215">
        <ele>2245.0774</ele>
        <time>2021-11-14T13:36:29Z</time>
      </trkpt>
      <trkpt lat="4.615055" lon="-75.123238">
        <ele>2244.1162</ele>
        <time>2021-11-14T13:36:30Z</time>
      </trkpt>
      <trkpt lat="4.615072" lon="-75.123245">
        <ele>2243.972</ele>
        <time>2021-11-14T13:36:31Z</time>
      </trkpt>
      <trkpt lat="4.615178" lon="-75.123314">
        <ele>2244.5894</ele>
        <time>2021-11-14T13:36:32Z</time>
      </trkpt>
      <trkpt lat="4.615221" lon="-75.123337">
        <ele>2245.0374</ele>
        <time>2021-11-14T13:36:33Z</time>
      </trkpt>
      <trkpt lat="4.615221" lon="-75.123337">
        <ele>2244.6472</ele>
        <time>2021-11-14T13:36:34Z</time>
      </trkpt>
      <trkpt lat="4.615221" lon="-75.123344">
        <ele>2244.9</ele>
        <time>2021-11-14T13:36:35Z</time>
      </trkpt>
      <trkpt lat="4.615259" lon="-75.12336">
        <ele>2245.7021</ele>
        <time>2021-11-14T13:36:36Z</time>
      </trkpt>
      <trkpt lat="4.615296" lon="-75.123367">
        <ele>2246.7407</ele>
        <time>2021-11-14T13:36:37Z</time>
      </trkpt>
      <trkpt lat="4.615274" lon="-75.123367">
        <ele>2246.775</ele>
        <time>2021-11-14T13:36:38Z</time>
      </trkpt>
      <trkpt lat="4.615317" lon="-75.123398">
        <ele>2247.4502</ele>
        <time>2021-11-14T13:36:39Z</time>
      </trkpt>
      <trkpt lat="4.615371" lon="-75.123451">
        <ele>2247.763</ele>
        <time>2021-11-14T13:36:40Z</time>
      </trkpt>
      <trkpt lat="4.615342" lon="-75.123436">
        <ele>2247.5754</ele>
        <time>2021-11-14T13:36:41Z</time>
      </trkpt>
      <trkpt lat="4.615349" lon="-75.123444">
        <ele>2247.4624</ele>
        <time>2021-11-14T13:36:42Z</time>
      </trkpt>
      <trkpt lat="4.615376" lon="-75.123466">
        <ele>2249.228</ele>
        <time>2021-11-14T13:36:44Z</time>
      </trkpt>
      <trkpt lat="4.615392" lon="-75.123489">
        <ele>2249.5603</ele>
        <time>2021-11-14T13:36:45Z</time>
      </trkpt>
      <trkpt lat="4.615378" lon="-75.123505">
        <ele>2251.1516</ele>
        <time>2021-11-14T13:36:46Z</time>
      </trkpt>
      <trkpt lat="4.615376" lon="-75.123528">
        <ele>2252.783</ele>
        <time>2021-11-14T13:36:47Z</time>
      </trkpt>
      <trkpt lat="4.615376" lon="-75.123543">
        <ele>2253.0728</ele>
        <time>2021-11-14T13:36:48Z</time>
      </trkpt>
      <trkpt lat="4.615373" lon="-75.123558">
        <ele>2254.1206</ele>
        <time>2021-11-14T13:36:49Z</time>
      </trkpt>
      <trkpt lat="4.615361" lon="-75.123566">
        <ele>2254.8118</ele>
        <time>2021-11-14T13:36:50Z</time>
      </trkpt>
      <trkpt lat="4.615355" lon="-75.123573">
        <ele>2254.8545</ele>
        <time>2021-11-14T13:36:51Z</time>
      </trkpt>
      <trkpt lat="4.615344" lon="-75.123573">
        <ele>2255.3574</ele>
        <time>2021-11-14T13:36:52Z</time>
      </trkpt>
      <trkpt lat="4.61534" lon="-75.123573">
        <ele>2254.6174</ele>
        <time>2021-11-14T13:36:53Z</time>
      </trkpt>
      <trkpt lat="4.615339" lon="-75.123581">
        <ele>2254.7068</ele>
        <time>2021-11-14T13:36:54Z</time>
      </trkpt>
      <trkpt lat="4.615336" lon="-75.123589">
        <ele>2253.6772</ele>
        <time>2021-11-14T13:36:55Z</time>
      </trkpt>
      <trkpt lat="4.615334" lon="-75.123596">
        <ele>2253.731</ele>
        <time>2021-11-14T13:36:56Z</time>
      </trkpt>
      <trkpt lat="4.615333" lon="-75.123596">
        <ele>2254.2793</ele>
        <time>2021-11-14T13:36:57Z</time>
      </trkpt>
      <trkpt lat="4.61533" lon="-75.123596">
        <ele>2255.5303</ele>
        <time>2021-11-14T13:36:58Z</time>
      </trkpt>
      <trkpt lat="4.615269" lon="-75.123634">
        <ele>2253.5352</ele>
        <time>2021-11-14T13:36:59Z</time>
      </trkpt>
      <trkpt lat="4.615235" lon="-75.123665">
        <ele>2253.2332</ele>
        <time>2021-11-14T13:37:00Z</time>
      </trkpt>
      <trkpt lat="4.615274" lon="-75.123634">
        <ele>2253.0461</ele>
        <time>2021-11-14T13:37:01Z</time>
      </trkpt>
      <trkpt lat="4.615223" lon="-75.123657">
        <ele>2252.4062</ele>
        <time>2021-11-14T13:37:02Z</time>
      </trkpt>
      <trkpt lat="4.615205" lon="-75.123657">
        <ele>2251.1726</ele>
        <time>2021-11-14T13:37:03Z</time>
      </trkpt>
      <trkpt lat="4.615197" lon="-75.123672">
        <ele>2248.776</ele>
        <time>2021-11-14T13:37:04Z</time>
      </trkpt>
      <trkpt lat="4.615194" lon="-75.123688">
        <ele>2248.5088</ele>
        <time>2021-11-14T13:37:05Z</time>
      </trkpt>
      <trkpt lat="4.615158" lon="-75.123672">
        <ele>2248.4226</ele>
        <time>2021-11-14T13:37:06Z</time>
      </trkpt>
      <trkpt lat="4.615117" lon="-75.123672">
        <ele>2247.9373</ele>
        <time>2021-11-14T13:37:07Z</time>
      </trkpt>
      <trkpt lat="4.615104" lon="-75.12368">
        <ele>2247.5498</ele>
        <time>2021-11-14T13:37:08Z</time>
      </trkpt>
      <trkpt lat="4.615086" lon="-75.123695">
        <ele>2247.6423</ele>
        <time>2021-11-14T13:37:09Z</time>
      </trkpt>
      <trkpt lat="4.615039" lon="-75.123695">
        <ele>2247.8293</ele>
        <time>2021-11-14T13:37:10Z</time>
      </trkpt>
      <trkpt lat="4.615027" lon="-75.123695">
        <ele>2246.9512</ele>
        <time>2021-11-14T13:37:11Z</time>
      </trkpt>
      <trkpt lat="4.615017" lon="-75.123695">
        <ele>2245.8623</ele>
        <time>2021-11-14T13:37:12Z</time>
      </trkpt>
      <trkpt lat="4.614982" lon="-75.123695">
        <ele>2245.48</ele>
        <time>2021-11-14T13:37:13Z</time>
      </trkpt>
      <trkpt lat="4.614921" lon="-75.123711">
        <ele>2245.1287</ele>
        <time>2021-11-14T13:37:14Z</time>
      </trkpt>
      <trkpt lat="4.614888" lon="-75.123711">
        <ele>2245.7512</ele>
        <time>2021-11-14T13:37:15Z</time>
      </trkpt>
      <trkpt lat="4.614886" lon="-75.123711">
        <ele>2244.9956</ele>
        <time>2021-11-14T13:37:16Z</time>
      </trkpt>
      <trkpt lat="4.614837" lon="-75.123711">
        <ele>2244.3464</ele>
        <time>2021-11-14T13:37:17Z</time>
      </trkpt>
      <trkpt lat="4.614837" lon="-75.123711">
        <ele>2244.7566</ele>
        <time>2021-11-14T13:37:18Z</time>
      </trkpt>
      <trkpt lat="4.614829" lon="-75.123703">
        <ele>2245.406</ele>
        <time>2021-11-14T13:37:19Z</time>
      </trkpt>
      <trkpt lat="4.614766" lon="-75.123695">
        <ele>2245.1536</ele>
        <time>2021-11-14T13:37:21Z</time>
      </trkpt>
      <trkpt lat="4.614755" lon="-75.123695">
        <ele>2245.9214</ele>
        <time>2021-11-14T13:37:22Z</time>
      </trkpt>
      <trkpt lat="4.614654" lon="-75.123688">
        <ele>2246.5413</ele>
        <time>2021-11-14T13:37:23Z</time>
      </trkpt>
      <trkpt lat="4.614671" lon="-75.12368">
        <ele>2246.0237</ele>
        <time>2021-11-14T13:37:24Z</time>
      </trkpt>
      <trkpt lat="4.614627" lon="-75.123672">
        <ele>2245.9714</ele>
        <time>2021-11-14T13:37:25Z</time>
      </trkpt>
      <trkpt lat="4.614568" lon="-75.123657">
        <ele>2245.7878</ele>
        <time>2021-11-14T13:37:26Z</time>
      </trkpt>
      <trkpt lat="4.614562" lon="-75.12365">
        <ele>2245.4255</ele>
        <time>2021-11-14T13:37:27Z</time>
      </trkpt>
      <trkpt lat="4.614559" lon="-75.123642">
        <ele>2245.2883</ele>
        <time>2021-11-14T13:37:28Z</time>
      </trkpt>
      <trkpt lat="4.614491" lon="-75.123619">
        <ele>2245.6829</ele>
        <time>2021-11-14T13:37:30Z</time>
      </trkpt>
      <trkpt lat="4.614456" lon="-75.123611">
        <ele>2245.5847</ele>
        <time>2021-11-14T13:37:31Z</time>
      </trkpt>
      <trkpt lat="4.614402" lon="-75.123604">
        <ele>2245.6052</ele>
        <time>2021-11-14T13:37:32Z</time>
      </trkpt>
      <trkpt lat="4.614398" lon="-75.123604">
        <ele>2245.2598</ele>
        <time>2021-11-14T13:37:33Z</time>
      </trkpt>
      <trkpt lat="4.614346" lon="-75.123596">
        <ele>2245.1626</ele>
        <time>2021-11-14T13:37:34Z</time>
      </trkpt>
      <trkpt lat="4.614293" lon="-75.123581">
        <ele>2245.1853</ele>
        <time>2021-11-14T13:37:35Z</time>
      </trkpt>
      <trkpt lat="4.614267" lon="-75.123581">
        <ele>2244.0671</ele>
        <time>2021-11-14T13:37:36Z</time>
      </trkpt>
      <trkpt lat="4.614171" lon="-75.123589">
        <ele>2244.0945</ele>
        <time>2021-11-14T13:37:38Z</time>
      </trkpt>
      <trkpt lat="4.614166" lon="-75.123589">
        <ele>2243.883</ele>
        <time>2021-11-14T13:37:39Z</time>
      </trkpt>
      <trkpt lat="4.614101" lon="-75.123604">
        <ele>2243.914</ele>
        <time>2021-11-14T13:37:40Z</time>
      </trkpt>
      <trkpt lat="4.61407" lon="-75.123611">
        <ele>2243.3757</ele>
        <time>2021-11-14T13:37:41Z</time>
      </trkpt>
      <trkpt lat="4.614048" lon="-75.123611">
        <ele>2243.49</ele>
        <time>2021-11-14T13:37:42Z</time>
      </trkpt>
      <trkpt lat="4.613992" lon="-75.123634">
        <ele>2243.4932</ele>
        <time>2021-11-14T13:37:43Z</time>
      </trkpt>
      <trkpt lat="4.613962" lon="-75.12365">
        <ele>2243.237</ele>
        <time>2021-11-14T13:37:44Z</time>
      </trkpt>
      <trkpt lat="4.613912" lon="-75.123672">
        <ele>2243.4019</ele>
        <time>2021-11-14T13:37:45Z</time>
      </trkpt>
      <trkpt lat="4.613866" lon="-75.123688">
        <ele>2243.23</ele>
        <time>2021-11-14T13:37:46Z</time>
      </trkpt>
      <trkpt lat="4.613828" lon="-75.123688">
        <ele>2242.917</ele>
        <time>2021-11-14T13:37:47Z</time>
      </trkpt>
      <trkpt lat="4.613819" lon="-75.123703">
        <ele>2241.5918</ele>
        <time>2021-11-14T13:37:48Z</time>
      </trkpt>
      <trkpt lat="4.613773" lon="-75.123718">
        <ele>2242.0735</ele>
        <time>2021-11-14T13:37:49Z</time>
      </trkpt>
      <trkpt lat="4.613716" lon="-75.123726">
        <ele>2242.483</ele>
        <time>2021-11-14T13:37:50Z</time>
      </trkpt>
      <trkpt lat="4.613695" lon="-75.123718">
        <ele>2242.3015</ele>
        <time>2021-11-14T13:37:51Z</time>
      </trkpt>
      <trkpt lat="4.613687" lon="-75.123718">
        <ele>2242.3167</ele>
        <time>2021-11-14T13:37:52Z</time>
      </trkpt>
      <trkpt lat="4.613633" lon="-75.123741">
        <ele>2242.6875</ele>
        <time>2021-11-14T13:37:53Z</time>
      </trkpt>
      <trkpt lat="4.613598" lon="-75.123779">
        <ele>2243.6775</ele>
        <time>2021-11-14T13:37:54Z</time>
      </trkpt>
      <trkpt lat="4.613527" lon="-75.123825">
        <ele>2243.698</ele>
        <time>2021-11-14T13:37:55Z</time>
      </trkpt>
      <trkpt lat="4.613486" lon="-75.123894">
        <ele>2243.0593</ele>
        <time>2021-11-14T13:37:56Z</time>
      </trkpt>
      <trkpt lat="4.61349" lon="-75.123962">
        <ele>2243.5002</ele>
        <time>2021-11-14T13:37:57Z</time>
      </trkpt>
      <trkpt lat="4.613483" lon="-75.124031">
        <ele>2244.0466</ele>
        <time>2021-11-14T13:37:58Z</time>
      </trkpt>
      <trkpt lat="4.613458" lon="-75.124084">
        <ele>2243.2678</ele>
        <time>2021-11-14T13:37:59Z</time>
      </trkpt>
      <trkpt lat="4.613461" lon="-75.124237">
        <ele>2244.575</ele>
        <time>2021-11-14T13:38:00Z</time>
      </trkpt>
      <trkpt lat="4.613444" lon="-75.124268">
        <ele>2244.7268</ele>
        <time>2021-11-14T13:38:01Z</time>
      </trkpt>
      <trkpt lat="4.61345" lon="-75.12439">
        <ele>2246.076</ele>
        <time>2021-11-14T13:38:03Z</time>
      </trkpt>
      <trkpt lat="4.61341" lon="-75.124611">
        <ele>2248.551</ele>
        <time>2021-11-14T13:38:05Z</time>
      </trkpt>
      <trkpt lat="4.613424" lon="-75.124695">
        <ele>2250.2224</ele>
        <time>2021-11-14T13:38:06Z</time>
      </trkpt>
      <trkpt lat="4.613435" lon="-75.124771">
        <ele>2252.5322</ele>
        <time>2021-11-14T13:38:07Z</time>
      </trkpt>
      <trkpt lat="4.613435" lon="-75.124771">
        <ele>2252.3901</ele>
        <time>2021-11-14T13:38:08Z</time>
      </trkpt>
      <trkpt lat="4.61341" lon="-75.12484">
        <ele>2253.2166</ele>
        <time>2021-11-14T13:38:09Z</time>
      </trkpt>
      <trkpt lat="4.613407" lon="-75.124893">
        <ele>2253.9192</ele>
        <time>2021-11-14T13:38:10Z</time>
      </trkpt>
      <trkpt lat="4.613416" lon="-75.125038">
        <ele>2254.2197</ele>
        <time>2021-11-14T13:38:12Z</time>
      </trkpt>
      <trkpt lat="4.613406" lon="-75.12513">
        <ele>2255.0417</ele>
        <time>2021-11-14T13:38:13Z</time>
      </trkpt>
      <trkpt lat="4.613384" lon="-75.12516">
        <ele>2256.0837</ele>
        <time>2021-11-14T13:38:14Z</time>
      </trkpt>
      <trkpt lat="4.613349" lon="-75.125183">
        <ele>2255.515</ele>
        <time>2021-11-14T13:38:15Z</time>
      </trkpt>
      <trkpt lat="4.613315" lon="-75.125214">
        <ele>2256.9038</ele>
        <time>2021-11-14T13:38:16Z</time>
      </trkpt>
      <trkpt lat="4.613285" lon="-75.125175">
        <ele>2257.098</ele>
        <time>2021-11-14T13:38:17Z</time>
      </trkpt>
      <trkpt lat="4.613258" lon="-75.125168">
        <ele>2257.085</ele>
        <time>2021-11-14T13:38:18Z</time>
      </trkpt>
      <trkpt lat="4.613227" lon="-75.125153">
        <ele>2257.008</ele>
        <time>2021-11-14T13:38:19Z</time>
      </trkpt>
      <trkpt lat="4.613214" lon="-75.125153">
        <ele>2257.4424</ele>
        <time>2021-11-14T13:38:20Z</time>
      </trkpt>
      <trkpt lat="4.613134" lon="-75.125092">
        <ele>2257.1885</ele>
        <time>2021-11-14T13:38:21Z</time>
      </trkpt>
      <trkpt lat="4.613155" lon="-75.125114">
        <ele>2255.837</ele>
        <time>2021-11-14T13:38:22Z</time>
      </trkpt>
      <trkpt lat="4.613126" lon="-75.125076">
        <ele>2255.5178</ele>
        <time>2021-11-14T13:38:23Z</time>
      </trkpt>
      <trkpt lat="4.613108" lon="-75.125015">
        <ele>2256.387</ele>
        <time>2021-11-14T13:38:24Z</time>
      </trkpt>
      <trkpt lat="4.61309" lon="-75.124969">
        <ele>2256.8848</ele>
        <time>2021-11-14T13:38:25Z</time>
      </trkpt>
      <trkpt lat="4.613061" lon="-75.124886">
        <ele>2257.0105</ele>
        <time>2021-11-14T13:38:26Z</time>
      </trkpt>
      <trkpt lat="4.612975" lon="-75.124802">
        <ele>2257.4363</ele>
        <time>2021-11-14T13:38:27Z</time>
      </trkpt>
      <trkpt lat="4.612921" lon="-75.124825">
        <ele>2257.3633</ele>
        <time>2021-11-14T13:38:28Z</time>
      </trkpt>
      <trkpt lat="4.612833" lon="-75.124809">
        <ele>2257.4155</ele>
        <time>2021-11-14T13:38:29Z</time>
      </trkpt>
      <trkpt lat="4.612758" lon="-75.124794">
        <ele>2257.63</ele>
        <time>2021-11-14T13:38:30Z</time>
      </trkpt>
      <trkpt lat="4.612682" lon="-75.124771">
        <ele>2257.778</ele>
        <time>2021-11-14T13:38:31Z</time>
      </trkpt>
      <trkpt lat="4.612617" lon="-75.124741">
        <ele>2257.7483</ele>
        <time>2021-11-14T13:38:32Z</time>
      </trkpt>
      <trkpt lat="4.612593" lon="-75.124733">
        <ele>2257.7778</ele>
        <time>2021-11-14T13:38:33Z</time>
      </trkpt>
      <trkpt lat="4.612565" lon="-75.124725">
        <ele>2257.488</ele>
        <time>2021-11-14T13:38:34Z</time>
      </trkpt>
      <trkpt lat="4.612517" lon="-75.124702">
        <ele>2258.211</ele>
        <time>2021-11-14T13:38:35Z</time>
      </trkpt>
      <trkpt lat="4.612472" lon="-75.124657">
        <ele>2257.7473</ele>
        <time>2021-11-14T13:38:36Z</time>
      </trkpt>
      <trkpt lat="4.612454" lon="-75.124641">
        <ele>2258.46</ele>
        <time>2021-11-14T13:38:37Z</time>
      </trkpt>
      <trkpt lat="4.61237" lon="-75.124527">
        <ele>2259.7854</ele>
        <time>2021-11-14T13:38:38Z</time>
      </trkpt>
      <trkpt lat="4.61234" lon="-75.124466">
        <ele>2260.686</ele>
        <time>2021-11-14T13:38:40Z</time>
      </trkpt>
      <trkpt lat="4.612326" lon="-75.124405">
        <ele>2261.1584</ele>
        <time>2021-11-14T13:38:41Z</time>
      </trkpt>
      <trkpt lat="4.612223" lon="-75.12429">
        <ele>2261.8137</ele>
        <time>2021-11-14T13:38:42Z</time>
      </trkpt>
      <trkpt lat="4.612238" lon="-75.124268">
        <ele>2262.738</ele>
        <time>2021-11-14T13:38:43Z</time>
      </trkpt>
      <trkpt lat="4.612225" lon="-75.124222">
        <ele>2262.975</ele>
        <time>2021-11-14T13:38:44Z</time>
      </trkpt>
      <trkpt lat="4.612179" lon="-75.124153">
        <ele>2263.5454</ele>
        <time>2021-11-14T13:38:45Z</time>
      </trkpt>
      <trkpt lat="4.612151" lon="-75.1241">
        <ele>2263.6865</ele>
        <time>2021-11-14T13:38:46Z</time>
      </trkpt>
      <trkpt lat="4.612108" lon="-75.124046">
        <ele>2264.2388</ele>
        <time>2021-11-14T13:38:47Z</time>
      </trkpt>
      <trkpt lat="4.612066" lon="-75.123993">
        <ele>2264.7908</ele>
        <time>2021-11-14T13:38:48Z</time>
      </trkpt>
      <trkpt lat="4.612012" lon="-75.12397">
        <ele>2264.8835</ele>
        <time>2021-11-14T13:38:49Z</time>
      </trkpt>
      <trkpt lat="4.611944" lon="-75.123978">
        <ele>2264.6433</ele>
        <time>2021-11-14T13:38:50Z</time>
      </trkpt>
      <trkpt lat="4.611944" lon="-75.123978">
        <ele>2264.3958</ele>
        <time>2021-11-14T13:38:51Z</time>
      </trkpt>
      <trkpt lat="4.61188" lon="-75.123993">
        <ele>2264.5374</ele>
        <time>2021-11-14T13:38:52Z</time>
      </trkpt>
      <trkpt lat="4.611818" lon="-75.124023">
        <ele>2265.0366</ele>
        <time>2021-11-14T13:38:53Z</time>
      </trkpt>
      <trkpt lat="4.611703" lon="-75.124046">
        <ele>2265.8242</ele>
        <time>2021-11-14T13:38:54Z</time>
      </trkpt>
      <trkpt lat="4.611624" lon="-75.124062">
        <ele>2265.8044</ele>
        <time>2021-11-14T13:38:55Z</time>
      </trkpt>
      <trkpt lat="4.611545" lon="-75.124107">
        <ele>2265.8237</ele>
        <time>2021-11-14T13:38:56Z</time>
      </trkpt>
      <trkpt lat="4.611436" lon="-75.124161">
        <ele>2265.5132</ele>
        <time>2021-11-14T13:38:57Z</time>
      </trkpt>
      <trkpt lat="4.611365" lon="-75.124207">
        <ele>2265.193</ele>
        <time>2021-11-14T13:38:58Z</time>
      </trkpt>
      <trkpt lat="4.611319" lon="-75.124245">
        <ele>2265.176</ele>
        <time>2021-11-14T13:38:59Z</time>
      </trkpt>
      <trkpt lat="4.611246" lon="-75.124313">
        <ele>2265.2983</ele>
        <time>2021-11-14T13:39:00Z</time>
      </trkpt>
      <trkpt lat="4.611195" lon="-75.124413">
        <ele>2265.8723</ele>
        <time>2021-11-14T13:39:01Z</time>
      </trkpt>
      <trkpt lat="4.61114" lon="-75.124535">
        <ele>2266.2168</ele>
        <time>2021-11-14T13:39:02Z</time>
      </trkpt>
      <trkpt lat="4.611067" lon="-75.124641">
        <ele>2266.9338</ele>
        <time>2021-11-14T13:39:03Z</time>
      </trkpt>
      <trkpt lat="4.611011" lon="-75.124695">
        <ele>2267.3223</ele>
        <time>2021-11-14T13:39:04Z</time>
      </trkpt>
      <trkpt lat="4.610964" lon="-75.124741">
        <ele>2267.4817</ele>
        <time>2021-11-14T13:39:05Z</time>
      </trkpt>
      <trkpt lat="4.610917" lon="-75.124817">
        <ele>2267.804</ele>
        <time>2021-11-14T13:39:06Z</time>
      </trkpt>
      <trkpt lat="4.610893" lon="-75.124908">
        <ele>2268.1108</ele>
        <time>2021-11-14T13:39:07Z</time>
      </trkpt>
      <trkpt lat="4.61088" lon="-75.124969">
        <ele>2268.9204</ele>
        <time>2021-11-14T13:39:08Z</time>
      </trkpt>
      <trkpt lat="4.61087" lon="-75.125046">
        <ele>2269.1143</ele>
        <time>2021-11-14T13:39:09Z</time>
      </trkpt>
      <trkpt lat="4.610857" lon="-75.125153">
        <ele>2270.2268</ele>
        <time>2021-11-14T13:39:10Z</time>
      </trkpt>
      <trkpt lat="4.610833" lon="-75.125252">
        <ele>2271.1843</ele>
        <time>2021-11-14T13:39:11Z</time>
      </trkpt>
      <trkpt lat="4.610807" lon="-75.125374">
        <ele>2272.0217</ele>
        <time>2021-11-14T13:39:12Z</time>
      </trkpt>
      <trkpt lat="4.610799" lon="-75.125458">
        <ele>2272.7803</ele>
        <time>2021-11-14T13:39:13Z</time>
      </trkpt>
      <trkpt lat="4.610757" lon="-75.125542">
        <ele>2274.1306</ele>
        <time>2021-11-14T13:39:14Z</time>
      </trkpt>
      <trkpt lat="4.610731" lon="-75.125603">
        <ele>2274.872</ele>
        <time>2021-11-14T13:39:15Z</time>
      </trkpt>
      <trkpt lat="4.610695" lon="-75.125671">
        <ele>2275.534</ele>
        <time>2021-11-14T13:39:16Z</time>
      </trkpt>
      <trkpt lat="4.610662" lon="-75.125717">
        <ele>2275.9941</ele>
        <time>2021-11-14T13:39:17Z</time>
      </trkpt>
      <trkpt lat="4.610659" lon="-75.125702">
        <ele>2275.45</ele>
        <time>2021-11-14T13:39:18Z</time>
      </trkpt>
      <trkpt lat="4.610651" lon="-75.125725">
        <ele>2276.3618</ele>
        <time>2021-11-14T13:39:20Z</time>
      </trkpt>
      <trkpt lat="4.610549" lon="-75.125793">
        <ele>2276.7612</ele>
        <time>2021-11-14T13:39:21Z</time>
      </trkpt>
      <trkpt lat="4.610512" lon="-75.125839">
        <ele>2276.966</ele>
        <time>2021-11-14T13:39:22Z</time>
      </trkpt>
      <trkpt lat="4.61048" lon="-75.12587">
        <ele>2277.6726</ele>
        <time>2021-11-14T13:39:23Z</time>
      </trkpt>
      <trkpt lat="4.610423" lon="-75.125923">
        <ele>2279.0457</ele>
        <time>2021-11-14T13:39:24Z</time>
      </trkpt>
      <trkpt lat="4.610368" lon="-75.125938">
        <ele>2280.0625</ele>
        <time>2021-11-14T13:39:25Z</time>
      </trkpt>
      <trkpt lat="4.610277" lon="-75.126015">
        <ele>2279.1824</ele>
        <time>2021-11-14T13:39:26Z</time>
      </trkpt>
      <trkpt lat="4.610239" lon="-75.126045">
        <ele>2280.5195</ele>
        <time>2021-11-14T13:39:27Z</time>
      </trkpt>
      <trkpt lat="4.610221" lon="-75.126091">
        <ele>2280.7986</ele>
        <time>2021-11-14T13:39:28Z</time>
      </trkpt>
      <trkpt lat="4.61021" lon="-75.12616">
        <ele>2280.9275</ele>
        <time>2021-11-14T13:39:29Z</time>
      </trkpt>
      <trkpt lat="4.610187" lon="-75.126236">
        <ele>2281.0903</ele>
        <time>2021-11-14T13:39:30Z</time>
      </trkpt>
      <trkpt lat="4.610191" lon="-75.12632">
        <ele>2283.1924</ele>
        <time>2021-11-14T13:39:31Z</time>
      </trkpt>
      <trkpt lat="4.610168" lon="-75.126373">
        <ele>2284.3538</ele>
        <time>2021-11-14T13:39:32Z</time>
      </trkpt>
      <trkpt lat="4.610123" lon="-75.126442">
        <ele>2284.3726</ele>
        <time>2021-11-14T13:39:33Z</time>
      </trkpt>
      <trkpt lat="4.610123" lon="-75.126442">
        <ele>2286.181</ele>
        <time>2021-11-14T13:39:34Z</time>
      </trkpt>
      <trkpt lat="4.610101" lon="-75.126488">
        <ele>2286.8987</ele>
        <time>2021-11-14T13:39:35Z</time>
      </trkpt>
      <trkpt lat="4.610072" lon="-75.126511">
        <ele>2286.7712</ele>
        <time>2021-11-14T13:39:36Z</time>
      </trkpt>
      <trkpt lat="4.610072" lon="-75.126472">
        <ele>2286.9253</ele>
        <time>2021-11-14T13:39:37Z</time>
      </trkpt>
      <trkpt lat="4.610027" lon="-75.126564">
        <ele>2287.672</ele>
        <time>2021-11-14T13:39:38Z</time>
      </trkpt>
      <trkpt lat="4.609961" lon="-75.126541">
        <ele>2286.6672</ele>
        <time>2021-11-14T13:39:39Z</time>
      </trkpt>
      <trkpt lat="4.609878" lon="-75.12648">
        <ele>2286.5422</ele>
        <time>2021-11-14T13:39:40Z</time>
      </trkpt>
      <trkpt lat="4.60983" lon="-75.12645">
        <ele>2287.0205</ele>
        <time>2021-11-14T13:39:41Z</time>
      </trkpt>
      <trkpt lat="4.60975" lon="-75.126396">
        <ele>2286.1477</ele>
        <time>2021-11-14T13:39:42Z</time>
      </trkpt>
      <trkpt lat="4.609725" lon="-75.126381">
        <ele>2286.2654</ele>
        <time>2021-11-14T13:39:44Z</time>
      </trkpt>
      <trkpt lat="4.609723" lon="-75.126404">
        <ele>2286.1313</ele>
        <time>2021-11-14T13:39:45Z</time>
      </trkpt>
      <trkpt lat="4.609669" lon="-75.126389">
        <ele>2286.06</ele>
        <time>2021-11-14T13:39:46Z</time>
      </trkpt>
      <trkpt lat="4.609628" lon="-75.126389">
        <ele>2286.2212</ele>
        <time>2021-11-14T13:39:47Z</time>
      </trkpt>
      <trkpt lat="4.609598" lon="-75.126396">
        <ele>2285.9707</ele>
        <time>2021-11-14T13:39:48Z</time>
      </trkpt>
      <trkpt lat="4.609565" lon="-75.126411">
        <ele>2285.9192</ele>
        <time>2021-11-14T13:39:49Z</time>
      </trkpt>
      <trkpt lat="4.60951" lon="-75.126434">
        <ele>2286.068</ele>
        <time>2021-11-14T13:39:50Z</time>
      </trkpt>
      <trkpt lat="4.609454" lon="-75.126472">
        <ele>2286.3896</ele>
        <time>2021-11-14T13:39:51Z</time>
      </trkpt>
      <trkpt lat="4.6094" lon="-75.126526">
        <ele>2286.63</ele>
        <time>2021-11-14T13:39:52Z</time>
      </trkpt>
      <trkpt lat="4.609368" lon="-75.126602">
        <ele>2287.9673</ele>
        <time>2021-11-14T13:39:53Z</time>
      </trkpt>
      <trkpt lat="4.609317" lon="-75.126686">
        <ele>2289.2192</ele>
        <time>2021-11-14T13:39:54Z</time>
      </trkpt>
      <trkpt lat="4.60929" lon="-75.126701">
        <ele>2289.8535</ele>
        <time>2021-11-14T13:39:55Z</time>
      </trkpt>
      <trkpt lat="4.609258" lon="-75.126694">
        <ele>2290.5767</ele>
        <time>2021-11-14T13:39:56Z</time>
      </trkpt>
      <trkpt lat="4.609183" lon="-75.126701">
        <ele>2291.3872</ele>
        <time>2021-11-14T13:39:57Z</time>
      </trkpt>
      <trkpt lat="4.609075" lon="-75.126694">
        <ele>2291.6272</ele>
        <time>2021-11-14T13:39:58Z</time>
      </trkpt>
      <trkpt lat="4.609008" lon="-75.126709">
        <ele>2292.0437</ele>
        <time>2021-11-14T13:39:59Z</time>
      </trkpt>
      <trkpt lat="4.608979" lon="-75.126724">
        <ele>2292.4841</ele>
        <time>2021-11-14T13:40:00Z</time>
      </trkpt>
      <trkpt lat="4.608916" lon="-75.126747">
        <ele>2293.3005</ele>
        <time>2021-11-14T13:40:01Z</time>
      </trkpt>
      <trkpt lat="4.608873" lon="-75.126785">
        <ele>2294.4587</ele>
        <time>2021-11-14T13:40:02Z</time>
      </trkpt>
      <trkpt lat="4.608839" lon="-75.126801">
        <ele>2294.6047</ele>
        <time>2021-11-14T13:40:03Z</time>
      </trkpt>
      <trkpt lat="4.60876" lon="-75.126816">
        <ele>2294.7217</ele>
        <time>2021-11-14T13:40:04Z</time>
      </trkpt>
      <trkpt lat="4.608721" lon="-75.126846">
        <ele>2294.8652</ele>
        <time>2021-11-14T13:40:05Z</time>
      </trkpt>
      <trkpt lat="4.60866" lon="-75.126877">
        <ele>2294.9504</ele>
        <time>2021-11-14T13:40:06Z</time>
      </trkpt>
      <trkpt lat="4.608571" lon="-75.126862">
        <ele>2295.6838</ele>
        <time>2021-11-14T13:40:07Z</time>
      </trkpt>
      <trkpt lat="4.608535" lon="-75.126808">
        <ele>2296.1064</ele>
        <time>2021-11-14T13:40:08Z</time>
      </trkpt>
      <trkpt lat="4.608455" lon="-75.126816">
        <ele>2296.0186</ele>
        <time>2021-11-14T13:40:09Z</time>
      </trkpt>
      <trkpt lat="4.608376" lon="-75.126793">
        <ele>2297.04</ele>
        <time>2021-11-14T13:40:10Z</time>
      </trkpt>
      <trkpt lat="4.608342" lon="-75.126762">
        <ele>2297.2905</ele>
        <time>2021-11-14T13:40:11Z</time>
      </trkpt>
      <trkpt lat="4.608275" lon="-75.12677">
        <ele>2296.8623</ele>
        <time>2021-11-14T13:40:12Z</time>
      </trkpt>
      <trkpt lat="4.608131" lon="-75.126801">
        <ele>2295.5994</ele>
        <time>2021-11-14T13:40:13Z</time>
      </trkpt>
      <trkpt lat="4.60811" lon="-75.126785">
        <ele>2295.318</ele>
        <time>2021-11-14T13:40:14Z</time>
      </trkpt>
      <trkpt lat="4.608026" lon="-75.126816">
        <ele>2295.8164</ele>
        <time>2021-11-14T13:40:15Z</time>
      </trkpt>
      <trkpt lat="4.608031" lon="-75.126785">
        <ele>2296.4739</ele>
        <time>2021-11-14T13:40:16Z</time>
      </trkpt>
      <trkpt lat="4.608022" lon="-75.126801">
        <ele>2296.3765</ele>
        <time>2021-11-14T13:40:17Z</time>
      </trkpt>
      <trkpt lat="4.607961" lon="-75.126816">
        <ele>2295.8848</ele>
        <time>2021-11-14T13:40:18Z</time>
      </trkpt>
      <trkpt lat="4.607914" lon="-75.126862">
        <ele>2294.936</ele>
        <time>2021-11-14T13:40:19Z</time>
      </trkpt>
      <trkpt lat="4.607815" lon="-75.126869">
        <ele>2294.792</ele>
        <time>2021-11-14T13:40:20Z</time>
      </trkpt>
      <trkpt lat="4.607704" lon="-75.126862">
        <ele>2295.0369</ele>
        <time>2021-11-14T13:40:21Z</time>
      </trkpt>
      <trkpt lat="4.607646" lon="-75.126892">
        <ele>2295.13</ele>
        <time>2021-11-14T13:40:22Z</time>
      </trkpt>
      <trkpt lat="4.607588" lon="-75.126907">
        <ele>2296.1455</ele>
        <time>2021-11-14T13:40:23Z</time>
      </trkpt>
      <trkpt lat="4.607588" lon="-75.126907">
        <ele>2296.326</ele>
        <time>2021-11-14T13:40:24Z</time>
      </trkpt>
      <trkpt lat="4.607526" lon="-75.126961">
        <ele>2297.5688</ele>
        <time>2021-11-14T13:40:25Z</time>
      </trkpt>
      <trkpt lat="4.607455" lon="-75.127029">
        <ele>2296.6135</ele>
        <time>2021-11-14T13:40:26Z</time>
      </trkpt>
      <trkpt lat="4.607425" lon="-75.127083">
        <ele>2297.006</ele>
        <time>2021-11-14T13:40:27Z</time>
      </trkpt>
      <trkpt lat="4.607375" lon="-75.127129">
        <ele>2297.4353</ele>
        <time>2021-11-14T13:40:28Z</time>
      </trkpt>
      <trkpt lat="4.607327" lon="-75.127167">
        <ele>2298.1392</ele>
        <time>2021-11-14T13:40:29Z</time>
      </trkpt>
      <trkpt lat="4.607179" lon="-75.127274">
        <ele>2298.8345</ele>
        <time>2021-11-14T13:40:31Z</time>
      </trkpt>
      <trkpt lat="4.607105" lon="-75.127281">
        <ele>2299.5825</ele>
        <time>2021-11-14T13:40:32Z</time>
      </trkpt>
      <trkpt lat="4.607011" lon="-75.127296">
        <ele>2300.6863</ele>
        <time>2021-11-14T13:40:33Z</time>
      </trkpt>
      <trkpt lat="4.606929" lon="-75.127342">
        <ele>2301.5132</ele>
        <time>2021-11-14T13:40:34Z</time>
      </trkpt>
      <trkpt lat="4.606882" lon="-75.127342">
        <ele>2302.0337</ele>
        <time>2021-11-14T13:40:35Z</time>
      </trkpt>
      <trkpt lat="4.606796" lon="-75.127342">
        <ele>2302.782</ele>
        <time>2021-11-14T13:40:36Z</time>
      </trkpt>
      <trkpt lat="4.606682" lon="-75.127365">
        <ele>2302.3528</ele>
        <time>2021-11-14T13:40:37Z</time>
      </trkpt>
      <trkpt lat="4.606592" lon="-75.12738">
        <ele>2301.3826</ele>
        <time>2021-11-14T13:40:38Z</time>
      </trkpt>
      <trkpt lat="4.606568" lon="-75.127411">
        <ele>2301.7495</ele>
        <time>2021-11-14T13:40:39Z</time>
      </trkpt>
      <trkpt lat="4.606518" lon="-75.127426">
        <ele>2301.534</ele>
        <time>2021-11-14T13:40:40Z</time>
      </trkpt>
      <trkpt lat="4.606411" lon="-75.127403">
        <ele>2301.4958</ele>
        <time>2021-11-14T13:40:41Z</time>
      </trkpt>
      <trkpt lat="4.606323" lon="-75.127388">
        <ele>2302.037</ele>
        <time>2021-11-14T13:40:42Z</time>
      </trkpt>
      <trkpt lat="4.606298" lon="-75.12738">
        <ele>2302.741</ele>
        <time>2021-11-14T13:40:43Z</time>
      </trkpt>
      <trkpt lat="4.606212" lon="-75.127373">
        <ele>2303.838</ele>
        <time>2021-11-14T13:40:44Z</time>
      </trkpt>
      <trkpt lat="4.606055" lon="-75.127373">
        <ele>2304.9026</ele>
        <time>2021-11-14T13:40:46Z</time>
      </trkpt>
      <trkpt lat="4.606023" lon="-75.127373">
        <ele>2304.957</ele>
        <time>2021-11-14T13:40:47Z</time>
      </trkpt>
      <trkpt lat="4.605963" lon="-75.127411">
        <ele>2305.9355</ele>
        <time>2021-11-14T13:40:48Z</time>
      </trkpt>
      <trkpt lat="4.605906" lon="-75.127464">
        <ele>2306.0183</ele>
        <time>2021-11-14T13:40:49Z</time>
      </trkpt>
      <trkpt lat="4.60581" lon="-75.127518">
        <ele>2307.3943</ele>
        <time>2021-11-14T13:40:50Z</time>
      </trkpt>
      <trkpt lat="4.605765" lon="-75.127563">
        <ele>2308.2463</ele>
        <time>2021-11-14T13:40:51Z</time>
      </trkpt>
      <trkpt lat="4.605778" lon="-75.127586">
        <ele>2308.291</ele>
        <time>2021-11-14T13:40:52Z</time>
      </trkpt>
      <trkpt lat="4.605783" lon="-75.127632">
        <ele>2309.1025</ele>
        <time>2021-11-14T13:40:53Z</time>
      </trkpt>
      <trkpt lat="4.605745" lon="-75.127724">
        <ele>2310.1746</ele>
        <time>2021-11-14T13:40:54Z</time>
      </trkpt>
      <trkpt lat="4.605686" lon="-75.127853">
        <ele>2310.6519</ele>
        <time>2021-11-14T13:40:55Z</time>
      </trkpt>
      <trkpt lat="4.605677" lon="-75.127945">
        <ele>2310.5881</ele>
        <time>2021-11-14T13:40:56Z</time>
      </trkpt>
      <trkpt lat="4.605691" lon="-75.12796">
        <ele>2310.9622</ele>
        <time>2021-11-14T13:40:57Z</time>
      </trkpt>
      <trkpt lat="4.605692" lon="-75.128128">
        <ele>2311.282</ele>
        <time>2021-11-14T13:40:58Z</time>
      </trkpt>
      <trkpt lat="4.605677" lon="-75.128258">
        <ele>2311.7302</ele>
        <time>2021-11-14T13:40:59Z</time>
      </trkpt>
      <trkpt lat="4.605644" lon="-75.128342">
        <ele>2312.3604</ele>
        <time>2021-11-14T13:41:00Z</time>
      </trkpt>
      <trkpt lat="4.605633" lon="-75.128372">
        <ele>2313.583</ele>
        <time>2021-11-14T13:41:01Z</time>
      </trkpt>
      <trkpt lat="4.605612" lon="-75.128479">
        <ele>2314.0947</ele>
        <time>2021-11-14T13:41:02Z</time>
      </trkpt>
      <trkpt lat="4.605584" lon="-75.128578">
        <ele>2314.0405</ele>
        <time>2021-11-14T13:41:03Z</time>
      </trkpt>
      <trkpt lat="4.605594" lon="-75.1287">
        <ele>2314.7568</ele>
        <time>2021-11-14T13:41:04Z</time>
      </trkpt>
      <trkpt lat="4.605547" lon="-75.128792">
        <ele>2315.5115</ele>
        <time>2021-11-14T13:41:05Z</time>
      </trkpt>
      <trkpt lat="4.605511" lon="-75.128914">
        <ele>2315.873</ele>
        <time>2021-11-14T13:41:06Z</time>
      </trkpt>
      <trkpt lat="4.605529" lon="-75.128937">
        <ele>2317.2896</ele>
        <time>2021-11-14T13:41:07Z</time>
      </trkpt>
      <trkpt lat="4.605537" lon="-75.128952">
        <ele>2317.883</ele>
        <time>2021-11-14T13:41:08Z</time>
      </trkpt>
      <trkpt lat="4.605554" lon="-75.129013">
        <ele>2317.9126</ele>
        <time>2021-11-14T13:41:09Z</time>
      </trkpt>
      <trkpt lat="4.605603" lon="-75.129105">
        <ele>2318.2883</ele>
        <time>2021-11-14T13:41:10Z</time>
      </trkpt>
      <trkpt lat="4.605603" lon="-75.129105">
        <ele>2317.6055</ele>
        <time>2021-11-14T13:41:11Z</time>
      </trkpt>
      <trkpt lat="4.605685" lon="-75.129166">
        <ele>2317.7158</ele>
        <time>2021-11-14T13:41:12Z</time>
      </trkpt>
      <trkpt lat="4.605783" lon="-75.129234">
        <ele>2317.148</ele>
        <time>2021-11-14T13:41:13Z</time>
      </trkpt>
      <trkpt lat="4.605942" lon="-75.129341">
        <ele>2313.5981</ele>
        <time>2021-11-14T13:41:15Z</time>
      </trkpt>
      <trkpt lat="4.605982" lon="-75.129387">
        <ele>2313.52</ele>
        <time>2021-11-14T13:41:16Z</time>
      </trkpt>
      <trkpt lat="4.606061" lon="-75.129456">
        <ele>2312.5867</ele>
        <time>2021-11-14T13:41:17Z</time>
      </trkpt>
      <trkpt lat="4.606165" lon="-75.129524">
        <ele>2311.3013</ele>
        <time>2021-11-14T13:41:18Z</time>
      </trkpt>
      <trkpt lat="4.606227" lon="-75.129562">
        <ele>2311.682</ele>
        <time>2021-11-14T13:41:19Z</time>
      </trkpt>
      <trkpt lat="4.606247" lon="-75.129593">
        <ele>2310.8489</ele>
        <time>2021-11-14T13:41:20Z</time>
      </trkpt>
      <trkpt lat="4.606378" lon="-75.129662">
        <ele>2309.8271</ele>
        <time>2021-11-14T13:41:22Z</time>
      </trkpt>
      <trkpt lat="4.606448" lon="-75.129707">
        <ele>2309.3467</ele>
        <time>2021-11-14T13:41:23Z</time>
      </trkpt>
      <trkpt lat="4.606487" lon="-75.12973">
        <ele>2307.9998</ele>
        <time>2021-11-14T13:41:24Z</time>
      </trkpt>
      <trkpt lat="4.60651" lon="-75.129723">
        <ele>2306.8496</ele>
        <time>2021-11-14T13:41:25Z</time>
      </trkpt>
      <trkpt lat="4.606541" lon="-75.129738">
        <ele>2306.3945</ele>
        <time>2021-11-14T13:41:26Z</time>
      </trkpt>
      <trkpt lat="4.60659" lon="-75.129761">
        <ele>2306.7734</ele>
        <time>2021-11-14T13:41:27Z</time>
      </trkpt>
      <trkpt lat="4.606634" lon="-75.129791">
        <ele>2306.4644</ele>
        <time>2021-11-14T13:41:28Z</time>
      </trkpt>
      <trkpt lat="4.606663" lon="-75.129807">
        <ele>2306.6243</ele>
        <time>2021-11-14T13:41:29Z</time>
      </trkpt>
      <trkpt lat="4.606697" lon="-75.12986">
        <ele>2305.9546</ele>
        <time>2021-11-14T13:41:30Z</time>
      </trkpt>
      <trkpt lat="4.60673" lon="-75.129929">
        <ele>2306.3606</ele>
        <time>2021-11-14T13:41:31Z</time>
      </trkpt>
      <trkpt lat="4.606777" lon="-75.13002">
        <ele>2305.688</ele>
        <time>2021-11-14T13:41:32Z</time>
      </trkpt>
      <trkpt lat="4.606834" lon="-75.130081">
        <ele>2304.9058</ele>
        <time>2021-11-14T13:41:33Z</time>
      </trkpt>
      <trkpt lat="4.606911" lon="-75.130127">
        <ele>2304.8286</ele>
        <time>2021-11-14T13:41:34Z</time>
      </trkpt>
      <trkpt lat="4.606913" lon="-75.130135">
        <ele>2304.0361</ele>
        <time>2021-11-14T13:41:35Z</time>
      </trkpt>
      <trkpt lat="4.606978" lon="-75.130173">
        <ele>2303.093</ele>
        <time>2021-11-14T13:41:36Z</time>
      </trkpt>
      <trkpt lat="4.607048" lon="-75.130226">
        <ele>2302.8196</ele>
        <time>2021-11-14T13:41:37Z</time>
      </trkpt>
      <trkpt lat="4.607021" lon="-75.130257">
        <ele>2302.971</ele>
        <time>2021-11-14T13:41:38Z</time>
      </trkpt>
      <trkpt lat="4.607022" lon="-75.130348">
        <ele>2302.6655</ele>
        <time>2021-11-14T13:41:39Z</time>
      </trkpt>
      <trkpt lat="4.606978" lon="-75.130432">
        <ele>2301.9646</ele>
        <time>2021-11-14T13:41:40Z</time>
      </trkpt>
      <trkpt lat="4.60693" lon="-75.130524">
        <ele>2303.659</ele>
        <time>2021-11-14T13:41:41Z</time>
      </trkpt>
      <trkpt lat="4.606836" lon="-75.130615">
        <ele>2303.5078</ele>
        <time>2021-11-14T13:41:42Z</time>
      </trkpt>
      <trkpt lat="4.606851" lon="-75.13063">
        <ele>2304.1829</ele>
        <time>2021-11-14T13:41:43Z</time>
      </trkpt>
      <trkpt lat="4.606839" lon="-75.130646">
        <ele>2303.406</ele>
        <time>2021-11-14T13:41:44Z</time>
      </trkpt>
      <trkpt lat="4.606868" lon="-75.130722">
        <ele>2302.9836</ele>
        <time>2021-11-14T13:41:45Z</time>
      </trkpt>
      <trkpt lat="4.606925" lon="-75.130814">
        <ele>2302.2715</ele>
        <time>2021-11-14T13:41:46Z</time>
      </trkpt>
      <trkpt lat="4.607011" lon="-75.130875">
        <ele>2302.701</ele>
        <time>2021-11-14T13:41:47Z</time>
      </trkpt>
      <trkpt lat="4.607044" lon="-75.130928">
        <ele>2302.353</ele>
        <time>2021-11-14T13:41:48Z</time>
      </trkpt>
      <trkpt lat="4.607128" lon="-75.131004">
        <ele>2303.187</ele>
        <time>2021-11-14T13:41:49Z</time>
      </trkpt>
      <trkpt lat="4.607196" lon="-75.13102">
        <ele>2303.1418</ele>
        <time>2021-11-14T13:41:50Z</time>
      </trkpt>
      <trkpt lat="4.607252" lon="-75.131027">
        <ele>2303.137</ele>
        <time>2021-11-14T13:41:51Z</time>
      </trkpt>
      <trkpt lat="4.607252" lon="-75.131027">
        <ele>2303.0308</ele>
        <time>2021-11-14T13:41:52Z</time>
      </trkpt>
      <trkpt lat="4.607333" lon="-75.131058">
        <ele>2304.2078</ele>
        <time>2021-11-14T13:41:53Z</time>
      </trkpt>
      <trkpt lat="4.60728" lon="-75.13105">
        <ele>2303.4905</ele>
        <time>2021-11-14T13:41:54Z</time>
      </trkpt>
      <trkpt lat="4.607302" lon="-75.13105">
        <ele>2303.466</ele>
        <time>2021-11-14T13:41:55Z</time>
      </trkpt>
      <trkpt lat="4.607326" lon="-75.131027">
        <ele>2303.712</ele>
        <time>2021-11-14T13:41:56Z</time>
      </trkpt>
      <trkpt lat="4.607395" lon="-75.131012">
        <ele>2305.3132</ele>
        <time>2021-11-14T13:41:57Z</time>
      </trkpt>
      <trkpt lat="4.60746" lon="-75.131065">
        <ele>2304.3306</ele>
        <time>2021-11-14T13:41:58Z</time>
      </trkpt>
      <trkpt lat="4.607496" lon="-75.131104">
        <ele>2304.8262</ele>
        <time>2021-11-14T13:41:59Z</time>
      </trkpt>
      <trkpt lat="4.607522" lon="-75.131119">
        <ele>2304.4055</ele>
        <time>2021-11-14T13:42:00Z</time>
      </trkpt>
      <trkpt lat="4.607528" lon="-75.131149">
        <ele>2304.9937</ele>
        <time>2021-11-14T13:42:01Z</time>
      </trkpt>
      <trkpt lat="4.607499" lon="-75.131134">
        <ele>2304.0159</ele>
        <time>2021-11-14T13:42:02Z</time>
      </trkpt>
      <trkpt lat="4.6075" lon="-75.131134">
        <ele>2303.055</ele>
        <time>2021-11-14T13:42:04Z</time>
      </trkpt>
      <trkpt lat="4.607502" lon="-75.131126">
        <ele>2302.22</ele>
        <time>2021-11-14T13:42:05Z</time>
      </trkpt>
      <trkpt lat="4.607504" lon="-75.131126">
        <ele>2302.3145</ele>
        <time>2021-11-14T13:42:06Z</time>
      </trkpt>
      <trkpt lat="4.607504" lon="-75.131134">
        <ele>2302.4805</ele>
        <time>2021-11-14T13:42:07Z</time>
      </trkpt>
      <trkpt lat="4.607563" lon="-75.131119">
        <ele>2302.0574</ele>
        <time>2021-11-14T13:42:08Z</time>
      </trkpt>
      <trkpt lat="4.607581" lon="-75.131119">
        <ele>2302.5974</ele>
        <time>2021-11-14T13:42:09Z</time>
      </trkpt>
      <trkpt lat="4.607562" lon="-75.131142">
        <ele>2303.0334</ele>
        <time>2021-11-14T13:42:10Z</time>
      </trkpt>
      <trkpt lat="4.607606" lon="-75.131187">
        <ele>2302.693</ele>
        <time>2021-11-14T13:42:11Z</time>
      </trkpt>
      <trkpt lat="4.607594" lon="-75.131134">
        <ele>2302.4348</ele>
        <time>2021-11-14T13:42:12Z</time>
      </trkpt>
      <trkpt lat="4.607596" lon="-75.13118">
        <ele>2303.1396</ele>
        <time>2021-11-14T13:42:13Z</time>
      </trkpt>
      <trkpt lat="4.607635" lon="-75.13121">
        <ele>2302.7368</ele>
        <time>2021-11-14T13:42:14Z</time>
      </trkpt>
      <trkpt lat="4.607631" lon="-75.131203">
        <ele>2302.715</ele>
        <time>2021-11-14T13:42:15Z</time>
      </trkpt>
      <trkpt lat="4.607639" lon="-75.13121">
        <ele>2302.518</ele>
        <time>2021-11-14T13:42:16Z</time>
      </trkpt>
      <trkpt lat="4.607653" lon="-75.131248">
        <ele>2303.0005</ele>
        <time>2021-11-14T13:42:17Z</time>
      </trkpt>
      <trkpt lat="4.607654" lon="-75.131264">
        <ele>2303.21</ele>
        <time>2021-11-14T13:42:18Z</time>
      </trkpt>
      <trkpt lat="4.607664" lon="-75.131302">
        <ele>2303.6956</ele>
        <time>2021-11-14T13:42:19Z</time>
      </trkpt>
      <trkpt lat="4.607667" lon="-75.131348">
        <ele>2304.3494</ele>
        <time>2021-11-14T13:42:20Z</time>
      </trkpt>
      <trkpt lat="4.607661" lon="-75.131348">
        <ele>2303.9421</ele>
        <time>2021-11-14T13:42:21Z</time>
      </trkpt>
      <trkpt lat="4.607652" lon="-75.131355">
        <ele>2306.5833</ele>
        <time>2021-11-14T13:42:22Z</time>
      </trkpt>
      <trkpt lat="4.607622" lon="-75.131409">
        <ele>2307.3623</ele>
        <time>2021-11-14T13:42:23Z</time>
      </trkpt>
      <trkpt lat="4.607571" lon="-75.131424">
        <ele>2307.7485</ele>
        <time>2021-11-14T13:42:24Z</time>
      </trkpt>
      <trkpt lat="4.607516" lon="-75.131439">
        <ele>2305.972</ele>
        <time>2021-11-14T13:42:26Z</time>
      </trkpt>
      <trkpt lat="4.607499" lon="-75.131432">
        <ele>2304.193</ele>
        <time>2021-11-14T13:42:27Z</time>
      </trkpt>
      <trkpt lat="4.607435" lon="-75.131424">
        <ele>2303.7278</ele>
        <time>2021-11-14T13:42:28Z</time>
      </trkpt>
      <trkpt lat="4.607351" lon="-75.131409">
        <ele>2302.9363</ele>
        <time>2021-11-14T13:42:29Z</time>
      </trkpt>
      <trkpt lat="4.607238" lon="-75.1315">
        <ele>2303.055</ele>
        <time>2021-11-14T13:42:31Z</time>
      </trkpt>
      <trkpt lat="4.607206" lon="-75.1315">
        <ele>2303.7913</ele>
        <time>2021-11-14T13:42:32Z</time>
      </trkpt>
      <trkpt lat="4.607206" lon="-75.1315">
        <ele>2303.9558</ele>
        <time>2021-11-14T13:42:33Z</time>
      </trkpt>
      <trkpt lat="4.607172" lon="-75.131538">
        <ele>2304.0698</ele>
        <time>2021-11-14T13:42:34Z</time>
      </trkpt>
      <trkpt lat="4.607109" lon="-75.131615">
        <ele>2304.0803</ele>
        <time>2021-11-14T13:42:35Z</time>
      </trkpt>
      <trkpt lat="4.60704" lon="-75.131683">
        <ele>2304.2744</ele>
        <time>2021-11-14T13:42:36Z</time>
      </trkpt>
      <trkpt lat="4.60702" lon="-75.131676">
        <ele>2303.813</ele>
        <time>2021-11-14T13:42:37Z</time>
      </trkpt>
      <trkpt lat="4.606985" lon="-75.131676">
        <ele>2304.6829</ele>
        <time>2021-11-14T13:42:38Z</time>
      </trkpt>
      <trkpt lat="4.606887" lon="-75.131668">
        <ele>2304.2795</ele>
        <time>2021-11-14T13:42:39Z</time>
      </trkpt>
      <trkpt lat="4.60672" lon="-75.131676">
        <ele>2304.5637</ele>
        <time>2021-11-14T13:42:40Z</time>
      </trkpt>
      <trkpt lat="4.60666" lon="-75.131699">
        <ele>2304.1763</ele>
        <time>2021-11-14T13:42:41Z</time>
      </trkpt>
      <trkpt lat="4.606606" lon="-75.131691">
        <ele>2303.7632</ele>
        <time>2021-11-14T13:42:42Z</time>
      </trkpt>
      <trkpt lat="4.606528" lon="-75.131683">
        <ele>2303.7778</ele>
        <time>2021-11-14T13:42:43Z</time>
      </trkpt>
      <trkpt lat="4.606444" lon="-75.131683">
        <ele>2303.7703</ele>
        <time>2021-11-14T13:42:44Z</time>
      </trkpt>
      <trkpt lat="4.606372" lon="-75.131668">
        <ele>2305.404</ele>
        <time>2021-11-14T13:42:45Z</time>
      </trkpt>
      <trkpt lat="4.606279" lon="-75.131645">
        <ele>2304.43</ele>
        <time>2021-11-14T13:42:46Z</time>
      </trkpt>
      <trkpt lat="4.606189" lon="-75.13163">
        <ele>2305.3782</ele>
        <time>2021-11-14T13:42:47Z</time>
      </trkpt>
      <trkpt lat="4.60612" lon="-75.131638">
        <ele>2305.6467</ele>
        <time>2021-11-14T13:42:48Z</time>
      </trkpt>
      <trkpt lat="4.606059" lon="-75.131645">
        <ele>2306.276</ele>
        <time>2021-11-14T13:42:49Z</time>
      </trkpt>
      <trkpt lat="4.605999" lon="-75.131676">
        <ele>2306.613</ele>
        <time>2021-11-14T13:42:50Z</time>
      </trkpt>
      <trkpt lat="4.605952" lon="-75.131737">
        <ele>2307.3352</ele>
        <time>2021-11-14T13:42:51Z</time>
      </trkpt>
      <trkpt lat="4.605923" lon="-75.131805">
        <ele>2306.72</ele>
        <time>2021-11-14T13:42:52Z</time>
      </trkpt>
      <trkpt lat="4.605908" lon="-75.131844">
        <ele>2307.2573</ele>
        <time>2021-11-14T13:42:53Z</time>
      </trkpt>
      <trkpt lat="4.605911" lon="-75.131866">
        <ele>2307.405</ele>
        <time>2021-11-14T13:42:54Z</time>
      </trkpt>
      <trkpt lat="4.605908" lon="-75.13192">
        <ele>2307.3901</ele>
        <time>2021-11-14T13:42:55Z</time>
      </trkpt>
      <trkpt lat="4.605909" lon="-75.131943">
        <ele>2307.1775</ele>
        <time>2021-11-14T13:42:56Z</time>
      </trkpt>
      <trkpt lat="4.605896" lon="-75.132011">
        <ele>2307.8809</ele>
        <time>2021-11-14T13:42:58Z</time>
      </trkpt>
      <trkpt lat="4.605877" lon="-75.132065">
        <ele>2308.1746</ele>
        <time>2021-11-14T13:42:59Z</time>
      </trkpt>
      <trkpt lat="4.605902" lon="-75.132126">
        <ele>2308.35</ele>
        <time>2021-11-14T13:43:00Z</time>
      </trkpt>
      <trkpt lat="4.605891" lon="-75.132187">
        <ele>2308.5864</ele>
        <time>2021-11-14T13:43:01Z</time>
      </trkpt>
      <trkpt lat="4.605922" lon="-75.132248">
        <ele>2310.0415</ele>
        <time>2021-11-14T13:43:02Z</time>
      </trkpt>
      <trkpt lat="4.605933" lon="-75.132339">
        <ele>2310.0425</ele>
        <time>2021-11-14T13:43:03Z</time>
      </trkpt>
      <trkpt lat="4.605921" lon="-75.132378">
        <ele>2310.3381</ele>
        <time>2021-11-14T13:43:04Z</time>
      </trkpt>
      <trkpt lat="4.605941" lon="-75.132439">
        <ele>2310.7314</ele>
        <time>2021-11-14T13:43:05Z</time>
      </trkpt>
      <trkpt lat="4.605937" lon="-75.132385">
        <ele>2310.0713</ele>
        <time>2021-11-14T13:43:06Z</time>
      </trkpt>
      <trkpt lat="4.60594" lon="-75.132385">
        <ele>2310.3713</ele>
        <time>2021-11-14T13:43:07Z</time>
      </trkpt>
      <trkpt lat="4.60593" lon="-75.132401">
        <ele>2310.4307</ele>
        <time>2021-11-14T13:43:08Z</time>
      </trkpt>
      <trkpt lat="4.605923" lon="-75.132401">
        <ele>2310.5664</ele>
        <time>2021-11-14T13:43:09Z</time>
      </trkpt>
      <trkpt lat="4.605924" lon="-75.132401">
        <ele>2309.885</ele>
        <time>2021-11-14T13:43:10Z</time>
      </trkpt>
      <trkpt lat="4.605915" lon="-75.132393">
        <ele>2309.7705</ele>
        <time>2021-11-14T13:43:11Z</time>
      </trkpt>
      <trkpt lat="4.605914" lon="-75.132393">
        <ele>2310.163</ele>
        <time>2021-11-14T13:43:12Z</time>
      </trkpt>
      <trkpt lat="4.605914" lon="-75.132393">
        <ele>2309.8682</ele>
        <time>2021-11-14T13:43:13Z</time>
      </trkpt>
      <trkpt lat="4.605913" lon="-75.132385">
        <ele>2309.9622</ele>
        <time>2021-11-14T13:43:14Z</time>
      </trkpt>
      <trkpt lat="4.605915" lon="-75.132385">
        <ele>2309.9346</ele>
        <time>2021-11-14T13:43:15Z</time>
      </trkpt>
      <trkpt lat="4.605916" lon="-75.132385">
        <ele>2309.9312</ele>
        <time>2021-11-14T13:43:16Z</time>
      </trkpt>
      <trkpt lat="4.605917" lon="-75.132378">
        <ele>2309.7446</ele>
        <time>2021-11-14T13:43:17Z</time>
      </trkpt>
      <trkpt lat="4.605919" lon="-75.13237">
        <ele>2309.928</ele>
        <time>2021-11-14T13:43:18Z</time>
      </trkpt>
      <trkpt lat="4.605919" lon="-75.13237">
        <ele>2309.5967</ele>
        <time>2021-11-14T13:43:19Z</time>
      </trkpt>
      <trkpt lat="4.605921" lon="-75.13237">
        <ele>2309.073</ele>
        <time>2021-11-14T13:43:20Z</time>
      </trkpt>
      <trkpt lat="4.605926" lon="-75.132378">
        <ele>2309.5686</ele>
        <time>2021-11-14T13:43:22Z</time>
      </trkpt>
      <trkpt lat="4.605926" lon="-75.132378">
        <ele>2310.1094</ele>
        <time>2021-11-14T13:43:23Z</time>
      </trkpt>
      <trkpt lat="4.605924" lon="-75.132378">
        <ele>2310.1538</ele>
        <time>2021-11-14T13:43:24Z</time>
      </trkpt>
      <trkpt lat="4.605919" lon="-75.132378">
        <ele>2311.235</ele>
        <time>2021-11-14T13:43:25Z</time>
      </trkpt>
      <trkpt lat="4.605917" lon="-75.132378">
        <ele>2311.6597</ele>
        <time>2021-11-14T13:43:26Z</time>
      </trkpt>
      <trkpt lat="4.605915" lon="-75.132378">
        <ele>2312.2595</ele>
        <time>2021-11-14T13:43:27Z</time>
      </trkpt>
      <trkpt lat="4.605912" lon="-75.132378">
        <ele>2312.582</ele>
        <time>2021-11-14T13:43:28Z</time>
      </trkpt>
      <trkpt lat="4.60591" lon="-75.132378">
        <ele>2312.634</ele>
        <time>2021-11-14T13:43:29Z</time>
      </trkpt>
      <trkpt lat="4.605908" lon="-75.132385">
        <ele>2312.9438</ele>
        <time>2021-11-14T13:43:30Z</time>
      </trkpt>
      <trkpt lat="4.605907" lon="-75.132385">
        <ele>2313.056</ele>
        <time>2021-11-14T13:43:31Z</time>
      </trkpt>
      <trkpt lat="4.605907" lon="-75.132385">
        <ele>2313.188</ele>
        <time>2021-11-14T13:43:32Z</time>
      </trkpt>
      <trkpt lat="4.605906" lon="-75.132385">
        <ele>2313.2417</ele>
        <time>2021-11-14T13:43:33Z</time>
      </trkpt>
      <trkpt lat="4.605906" lon="-75.132385">
        <ele>2313.2024</ele>
        <time>2021-11-14T13:43:35Z</time>
      </trkpt>
      <trkpt lat="4.605906" lon="-75.132385">
        <ele>2313.3018</ele>
        <time>2021-11-14T13:43:36Z</time>
      </trkpt>
      <trkpt lat="4.605905" lon="-75.132385">
        <ele>2313.308</ele>
        <time>2021-11-14T13:43:37Z</time>
      </trkpt>
      <trkpt lat="4.605905" lon="-75.132385">
        <ele>2313.338</ele>
        <time>2021-11-14T13:43:38Z</time>
      </trkpt>
      <trkpt lat="4.605905" lon="-75.132385">
        <ele>2313.3396</ele>
        <time>2021-11-14T13:43:39Z</time>
      </trkpt>
      <trkpt lat="4.605904" lon="-75.132385">
        <ele>2313.3455</ele>
        <time>2021-11-14T13:43:40Z</time>
      </trkpt>
      <trkpt lat="4.605904" lon="-75.132385">
        <ele>2313.375</ele>
        <time>2021-11-14T13:43:41Z</time>
      </trkpt>
      <trkpt lat="4.605904" lon="-75.132385">
        <ele>2313.3801</ele>
        <time>2021-11-14T13:43:42Z</time>
      </trkpt>
      <trkpt lat="4.605904" lon="-75.132385">
        <ele>2313.3926</ele>
        <time>2021-11-14T13:43:43Z</time>
      </trkpt>
      <trkpt lat="4.605904" lon="-75.132385">
        <ele>2313.3809</ele>
        <time>2021-11-14T13:43:44Z</time>
      </trkpt>
      <trkpt lat="4.605904" lon="-75.132385">
        <ele>2313.3767</ele>
        <time>2021-11-14T13:43:45Z</time>
      </trkpt>
      <trkpt lat="4.605904" lon="-75.132385">
        <ele>2313.3792</ele>
        <time>2021-11-14T13:43:46Z</time>
      </trkpt>
      <trkpt lat="4.605904" lon="-75.132385">
        <ele>2313.605</ele>
        <time>2021-11-14T13:43:47Z</time>
      </trkpt>
      <trkpt lat="4.605889" lon="-75.132446">
        <ele>2313.4692</ele>
        <time>2021-11-14T13:43:48Z</time>
      </trkpt>
      <trkpt lat="4.605893" lon="-75.132484">
        <ele>2312.968</ele>
        <time>2021-11-14T13:43:49Z</time>
      </trkpt>
      <trkpt lat="4.605899" lon="-75.13253">
        <ele>2312.9192</ele>
        <time>2021-11-14T13:43:50Z</time>
      </trkpt>
      <trkpt lat="4.605904" lon="-75.132515">
        <ele>2313.1846</ele>
        <time>2021-11-14T13:43:51Z</time>
      </trkpt>
      <trkpt lat="4.605912" lon="-75.132568">
        <ele>2312.962</ele>
        <time>2021-11-14T13:43:52Z</time>
      </trkpt>
      <trkpt lat="4.605917" lon="-75.132607">
        <ele>2313.664</ele>
        <time>2021-11-14T13:43:53Z</time>
      </trkpt>
      <trkpt lat="4.60592" lon="-75.132652">
        <ele>2312.5962</ele>
        <time>2021-11-14T13:43:55Z</time>
      </trkpt>
      <trkpt lat="4.605929" lon="-75.132698">
        <ele>2313.31</ele>
        <time>2021-11-14T13:43:56Z</time>
      </trkpt>
      <trkpt lat="4.605927" lon="-75.132721">
        <ele>2313.6523</ele>
        <time>2021-11-14T13:43:57Z</time>
      </trkpt>
      <trkpt lat="4.605925" lon="-75.132751">
        <ele>2313.3137</ele>
        <time>2021-11-14T13:43:58Z</time>
      </trkpt>
      <trkpt lat="4.605921" lon="-75.13279">
        <ele>2313.6743</ele>
        <time>2021-11-14T13:43:59Z</time>
      </trkpt>
      <trkpt lat="4.605921" lon="-75.132812">
        <ele>2313.7688</ele>
        <time>2021-11-14T13:44:00Z</time>
      </trkpt>
      <trkpt lat="4.605917" lon="-75.132858">
        <ele>2312.8406</ele>
        <time>2021-11-14T13:44:01Z</time>
      </trkpt>
      <trkpt lat="4.605912" lon="-75.132904">
        <ele>2313.4966</ele>
        <time>2021-11-14T13:44:02Z</time>
      </trkpt>
      <trkpt lat="4.605906" lon="-75.132973">
        <ele>2313.3057</ele>
        <time>2021-11-14T13:44:04Z</time>
      </trkpt>
      <trkpt lat="4.605899" lon="-75.133041">
        <ele>2314.0042</ele>
        <time>2021-11-14T13:44:05Z</time>
      </trkpt>
      <trkpt lat="4.605902" lon="-75.13311">
        <ele>2313.8408</ele>
        <time>2021-11-14T13:44:06Z</time>
      </trkpt>
      <trkpt lat="4.605917" lon="-75.133186">
        <ele>2314.1033</ele>
        <time>2021-11-14T13:44:07Z</time>
      </trkpt>
      <trkpt lat="4.605929" lon="-75.133232">
        <ele>2314.1187</ele>
        <time>2021-11-14T13:44:08Z</time>
      </trkpt>
      <trkpt lat="4.605935" lon="-75.133278">
        <ele>2313.7727</ele>
        <time>2021-11-14T13:44:09Z</time>
      </trkpt>
      <trkpt lat="4.605943" lon="-75.133339">
        <ele>2314.128</ele>
        <time>2021-11-14T13:44:10Z</time>
      </trkpt>
      <trkpt lat="4.605943" lon="-75.133339">
        <ele>2314.1326</ele>
        <time>2021-11-14T13:44:11Z</time>
      </trkpt>
      <trkpt lat="4.605959" lon="-75.13343">
        <ele>2313.894</ele>
        <time>2021-11-14T13:44:12Z</time>
      </trkpt>
      <trkpt lat="4.605967" lon="-75.133507">
        <ele>2313.059</ele>
        <time>2021-11-14T13:44:13Z</time>
      </trkpt>
      <trkpt lat="4.60597" lon="-75.133583">
        <ele>2312.606</ele>
        <time>2021-11-14T13:44:14Z</time>
      </trkpt>
      <trkpt lat="4.605976" lon="-75.133614">
        <ele>2312.637</ele>
        <time>2021-11-14T13:44:15Z</time>
      </trkpt>
      <trkpt lat="4.606003" lon="-75.133644">
        <ele>2312.0054</ele>
        <time>2021-11-14T13:44:16Z</time>
      </trkpt>
      <trkpt lat="4.606047" lon="-75.133675">
        <ele>2312.0327</ele>
        <time>2021-11-14T13:44:17Z</time>
      </trkpt>
      <trkpt lat="4.606096" lon="-75.133713">
        <ele>2311.3743</ele>
        <time>2021-11-14T13:44:18Z</time>
      </trkpt>
      <trkpt lat="4.606137" lon="-75.133751">
        <ele>2311.0583</ele>
        <time>2021-11-14T13:44:19Z</time>
      </trkpt>
      <trkpt lat="4.606167" lon="-75.133789">
        <ele>2310.5386</ele>
        <time>2021-11-14T13:44:20Z</time>
      </trkpt>
      <trkpt lat="4.606212" lon="-75.133842">
        <ele>2310.5957</ele>
        <time>2021-11-14T13:44:22Z</time>
      </trkpt>
      <trkpt lat="4.606312" lon="-75.133949">
        <ele>2310.5862</ele>
        <time>2021-11-14T13:44:23Z</time>
      </trkpt>
      <trkpt lat="4.60638" lon="-75.133995">
        <ele>2310.192</ele>
        <time>2021-11-14T13:44:24Z</time>
      </trkpt>
      <trkpt lat="4.60646" lon="-75.134071">
        <ele>2309.7407</ele>
        <time>2021-11-14T13:44:25Z</time>
      </trkpt>
      <trkpt lat="4.606495" lon="-75.134102">
        <ele>2309.6152</ele>
        <time>2021-11-14T13:44:26Z</time>
      </trkpt>
      <trkpt lat="4.606514" lon="-75.134163">
        <ele>2310.817</ele>
        <time>2021-11-14T13:44:27Z</time>
      </trkpt>
      <trkpt lat="4.606479" lon="-75.134216">
        <ele>2311.0156</ele>
        <time>2021-11-14T13:44:28Z</time>
      </trkpt>
      <trkpt lat="4.606464" lon="-75.134239">
        <ele>2311.7666</ele>
        <time>2021-11-14T13:44:29Z</time>
      </trkpt>
      <trkpt lat="4.606429" lon="-75.13427">
        <ele>2311.8547</ele>
        <time>2021-11-14T13:44:30Z</time>
      </trkpt>
      <trkpt lat="4.60641" lon="-75.134315">
        <ele>2311.5522</ele>
        <time>2021-11-14T13:44:31Z</time>
      </trkpt>
      <trkpt lat="4.60638" lon="-75.134399">
        <ele>2311.4773</ele>
        <time>2021-11-14T13:44:32Z</time>
      </trkpt>
      <trkpt lat="4.606389" lon="-75.134407">
        <ele>2310.4573</ele>
        <time>2021-11-14T13:44:33Z</time>
      </trkpt>
      <trkpt lat="4.606394" lon="-75.134399">
        <ele>2310.3223</ele>
        <time>2021-11-14T13:44:35Z</time>
      </trkpt>
      <trkpt lat="4.60637" lon="-75.134438">
        <ele>2310.5828</ele>
        <time>2021-11-14T13:44:36Z</time>
      </trkpt>
      <trkpt lat="4.606363" lon="-75.13446">
        <ele>2310.5818</ele>
        <time>2021-11-14T13:44:37Z</time>
      </trkpt>
      <trkpt lat="4.606362" lon="-75.134468">
        <ele>2310.4697</ele>
        <time>2021-11-14T13:44:38Z</time>
      </trkpt>
      <trkpt lat="4.606352" lon="-75.134514">
        <ele>2309.993</ele>
        <time>2021-11-14T13:44:39Z</time>
      </trkpt>
      <trkpt lat="4.606363" lon="-75.134521">
        <ele>2309.8215</ele>
        <time>2021-11-14T13:44:40Z</time>
      </trkpt>
      <trkpt lat="4.60636" lon="-75.134521">
        <ele>2309.7556</ele>
        <time>2021-11-14T13:44:41Z</time>
      </trkpt>
      <trkpt lat="4.606365" lon="-75.134537">
        <ele>2309.07</ele>
        <time>2021-11-14T13:44:42Z</time>
      </trkpt>
      <trkpt lat="4.606366" lon="-75.134537">
        <ele>2309.005</ele>
        <time>2021-11-14T13:44:43Z</time>
      </trkpt>
      <trkpt lat="4.606367" lon="-75.134537">
        <ele>2309.099</ele>
        <time>2021-11-14T13:44:44Z</time>
      </trkpt>
      <trkpt lat="4.606369" lon="-75.134537">
        <ele>2309.0706</ele>
        <time>2021-11-14T13:44:45Z</time>
      </trkpt>
      <trkpt lat="4.606371" lon="-75.134537">
        <ele>2308.9749</ele>
        <time>2021-11-14T13:44:46Z</time>
      </trkpt>
      <trkpt lat="4.606373" lon="-75.134537">
        <ele>2308.9438</ele>
        <time>2021-11-14T13:44:47Z</time>
      </trkpt>
      <trkpt lat="4.606375" lon="-75.134537">
        <ele>2308.99</ele>
        <time>2021-11-14T13:44:49Z</time>
      </trkpt>
      <trkpt lat="4.606375" lon="-75.134537">
        <ele>2309.1167</ele>
        <time>2021-11-14T13:44:50Z</time>
      </trkpt>
      <trkpt lat="4.606375" lon="-75.134537">
        <ele>2309.1187</ele>
        <time>2021-11-14T13:44:51Z</time>
      </trkpt>
      <trkpt lat="4.606375" lon="-75.134537">
        <ele>2309.1992</ele>
        <time>2021-11-14T13:44:52Z</time>
      </trkpt>
      <trkpt lat="4.606375" lon="-75.134544">
        <ele>2309.2686</ele>
        <time>2021-11-14T13:44:53Z</time>
      </trkpt>
      <trkpt lat="4.606375" lon="-75.134544">
        <ele>2309.3376</ele>
        <time>2021-11-14T13:44:54Z</time>
      </trkpt>
      <trkpt lat="4.606375" lon="-75.134544">
        <ele>2309.3342</ele>
        <time>2021-11-14T13:44:55Z</time>
      </trkpt>
      <trkpt lat="4.606375" lon="-75.134544">
        <ele>2309.3484</ele>
        <time>2021-11-14T13:44:56Z</time>
      </trkpt>
      <trkpt lat="4.606375" lon="-75.134544">
        <ele>2309.3494</ele>
        <time>2021-11-14T13:44:58Z</time>
      </trkpt>
      <trkpt lat="4.606375" lon="-75.134544">
        <ele>2309.3506</ele>
        <time>2021-11-14T13:44:59Z</time>
      </trkpt>
      <trkpt lat="4.606375" lon="-75.134544">
        <ele>2309.3557</ele>
        <time>2021-11-14T13:45:00Z</time>
      </trkpt>
      <trkpt lat="4.606375" lon="-75.134544">
        <ele>2309.3608</ele>
        <time>2021-11-14T13:45:01Z</time>
      </trkpt>
      <trkpt lat="4.606374" lon="-75.134544">
        <ele>2309.3655</ele>
        <time>2021-11-14T13:45:02Z</time>
      </trkpt>
      <trkpt lat="4.606379" lon="-75.134567">
        <ele>2308.875</ele>
        <time>2021-11-14T13:45:03Z</time>
      </trkpt>
      <trkpt lat="4.606404" lon="-75.134659">
        <ele>2308.2947</ele>
        <time>2021-11-14T13:45:04Z</time>
      </trkpt>
      <trkpt lat="4.606431" lon="-75.134689">
        <ele>2308.1472</ele>
        <time>2021-11-14T13:45:05Z</time>
      </trkpt>
      <trkpt lat="4.606431" lon="-75.134689">
        <ele>2307.8157</ele>
        <time>2021-11-14T13:45:06Z</time>
      </trkpt>
      <trkpt lat="4.606452" lon="-75.134689">
        <ele>2307.4585</ele>
        <time>2021-11-14T13:45:07Z</time>
      </trkpt>
      <trkpt lat="4.606465" lon="-75.134705">
        <ele>2307.6812</ele>
        <time>2021-11-14T13:45:08Z</time>
      </trkpt>
      <trkpt lat="4.606466" lon="-75.134712">
        <ele>2307.9595</ele>
        <time>2021-11-14T13:45:09Z</time>
      </trkpt>
      <trkpt lat="4.606454" lon="-75.134743">
        <ele>2307.849</ele>
        <time>2021-11-14T13:45:10Z</time>
      </trkpt>
      <trkpt lat="4.606448" lon="-75.134773">
        <ele>2307.618</ele>
        <time>2021-11-14T13:45:12Z</time>
      </trkpt>
      <trkpt lat="4.606448" lon="-75.134796">
        <ele>2307.4136</ele>
        <time>2021-11-14T13:45:13Z</time>
      </trkpt>
      <trkpt lat="4.60641" lon="-75.134819">
        <ele>2307.2725</ele>
        <time>2021-11-14T13:45:14Z</time>
      </trkpt>
      <trkpt lat="4.606346" lon="-75.13488">
        <ele>2308.8633</ele>
        <time>2021-11-14T13:45:15Z</time>
      </trkpt>
      <trkpt lat="4.606237" lon="-75.134865">
        <ele>2308.089</ele>
        <time>2021-11-14T13:45:16Z</time>
      </trkpt>
      <trkpt lat="4.606203" lon="-75.13485">
        <ele>2308.3708</ele>
        <time>2021-11-14T13:45:17Z</time>
      </trkpt>
      <trkpt lat="4.606158" lon="-75.134827">
        <ele>2308.4453</ele>
        <time>2021-11-14T13:45:18Z</time>
      </trkpt>
      <trkpt lat="4.606097" lon="-75.134804">
        <ele>2307.579</ele>
        <time>2021-11-14T13:45:19Z</time>
      </trkpt>
      <trkpt lat="4.606045" lon="-75.134796">
        <ele>2307.2627</ele>
        <time>2021-11-14T13:45:20Z</time>
      </trkpt>
      <trkpt lat="4.606008" lon="-75.134789">
        <ele>2307.2393</ele>
        <time>2021-11-14T13:45:21Z</time>
      </trkpt>
      <trkpt lat="4.605926" lon="-75.134804">
        <ele>2307.105</ele>
        <time>2021-11-14T13:45:22Z</time>
      </trkpt>
      <trkpt lat="4.605854" lon="-75.134872">
        <ele>2307.723</ele>
        <time>2021-11-14T13:45:23Z</time>
      </trkpt>
      <trkpt lat="4.605796" lon="-75.13488">
        <ele>2307.816</ele>
        <time>2021-11-14T13:45:24Z</time>
      </trkpt>
      <trkpt lat="4.605746" lon="-75.134903">
        <ele>2307.9114</ele>
        <time>2021-11-14T13:45:25Z</time>
      </trkpt>
      <trkpt lat="4.605719" lon="-75.134941">
        <ele>2307.5737</ele>
        <time>2021-11-14T13:45:26Z</time>
      </trkpt>
      <trkpt lat="4.605707" lon="-75.134979">
        <ele>2307.8372</ele>
        <time>2021-11-14T13:45:27Z</time>
      </trkpt>
      <trkpt lat="4.605704" lon="-75.135048">
        <ele>2308.345</ele>
        <time>2021-11-14T13:45:28Z</time>
      </trkpt>
      <trkpt lat="4.605686" lon="-75.135117">
        <ele>2308.516</ele>
        <time>2021-11-14T13:45:29Z</time>
      </trkpt>
      <trkpt lat="4.605686" lon="-75.135178">
        <ele>2308.6135</ele>
        <time>2021-11-14T13:45:30Z</time>
      </trkpt>
      <trkpt lat="4.605668" lon="-75.135216">
        <ele>2309.1086</ele>
        <time>2021-11-14T13:45:31Z</time>
      </trkpt>
      <trkpt lat="4.605648" lon="-75.135277">
        <ele>2309.9229</ele>
        <time>2021-11-14T13:45:32Z</time>
      </trkpt>
      <trkpt lat="4.605628" lon="-75.135323">
        <ele>2309.9614</ele>
        <time>2021-11-14T13:45:33Z</time>
      </trkpt>
      <trkpt lat="4.605608" lon="-75.135353">
        <ele>2310.3516</ele>
        <time>2021-11-14T13:45:34Z</time>
      </trkpt>
      <trkpt lat="4.605596" lon="-75.135353">
        <ele>2311.022</ele>
        <time>2021-11-14T13:45:35Z</time>
      </trkpt>
      <trkpt lat="4.605561" lon="-75.135384">
        <ele>2310.7263</ele>
        <time>2021-11-14T13:45:36Z</time>
      </trkpt>
      <trkpt lat="4.605515" lon="-75.135452">
        <ele>2311.2456</ele>
        <time>2021-11-14T13:45:37Z</time>
      </trkpt>
      <trkpt lat="4.605449" lon="-75.135513">
        <ele>2310.9583</ele>
        <time>2021-11-14T13:45:39Z</time>
      </trkpt>
      <trkpt lat="4.605398" lon="-75.135574">
        <ele>2311.3347</ele>
        <time>2021-11-14T13:45:40Z</time>
      </trkpt>
      <trkpt lat="4.605343" lon="-75.13562">
        <ele>2311.7568</ele>
        <time>2021-11-14T13:45:41Z</time>
      </trkpt>
      <trkpt lat="4.605276" lon="-75.135674">
        <ele>2312.0928</ele>
        <time>2021-11-14T13:45:42Z</time>
      </trkpt>
      <trkpt lat="4.60522" lon="-75.135704">
        <ele>2312.5762</ele>
        <time>2021-11-14T13:45:43Z</time>
      </trkpt>
      <trkpt lat="4.605126" lon="-75.135681">
        <ele>2312.452</ele>
        <time>2021-11-14T13:45:44Z</time>
      </trkpt>
      <trkpt lat="4.60508" lon="-75.135704">
        <ele>2312.187</ele>
        <time>2021-11-14T13:45:45Z</time>
      </trkpt>
      <trkpt lat="4.604987" lon="-75.13575">
        <ele>2312.436</ele>
        <time>2021-11-14T13:45:46Z</time>
      </trkpt>
      <trkpt lat="4.60492" lon="-75.13578">
        <ele>2313.1335</ele>
        <time>2021-11-14T13:45:48Z</time>
      </trkpt>
      <trkpt lat="4.604901" lon="-75.135811">
        <ele>2313.124</ele>
        <time>2021-11-14T13:45:49Z</time>
      </trkpt>
      <trkpt lat="4.604902" lon="-75.135857">
        <ele>2313.6682</ele>
        <time>2021-11-14T13:45:50Z</time>
      </trkpt>
      <trkpt lat="4.604892" lon="-75.135948">
        <ele>2314.4268</ele>
        <time>2021-11-14T13:45:51Z</time>
      </trkpt>
      <trkpt lat="4.604927" lon="-75.135994">
        <ele>2314.7048</ele>
        <time>2021-11-14T13:45:52Z</time>
      </trkpt>
      <trkpt lat="4.60495" lon="-75.136032">
        <ele>2315.14</ele>
        <time>2021-11-14T13:45:53Z</time>
      </trkpt>
      <trkpt lat="4.604975" lon="-75.136116">
        <ele>2315.0496</ele>
        <time>2021-11-14T13:45:54Z</time>
      </trkpt>
      <trkpt lat="4.604998" lon="-75.1362">
        <ele>2315.6377</ele>
        <time>2021-11-14T13:45:55Z</time>
      </trkpt>
      <trkpt lat="4.605011" lon="-75.136246">
        <ele>2316.2908</ele>
        <time>2021-11-14T13:45:56Z</time>
      </trkpt>
      <trkpt lat="4.605017" lon="-75.136284">
        <ele>2317.0664</ele>
        <time>2021-11-14T13:45:57Z</time>
      </trkpt>
      <trkpt lat="4.605024" lon="-75.136345">
        <ele>2316.6975</ele>
        <time>2021-11-14T13:45:58Z</time>
      </trkpt>
      <trkpt lat="4.604996" lon="-75.136414">
        <ele>2317.1064</ele>
        <time>2021-11-14T13:45:59Z</time>
      </trkpt>
      <trkpt lat="4.604937" lon="-75.136467">
        <ele>2316.9478</ele>
        <time>2021-11-14T13:46:00Z</time>
      </trkpt>
      <trkpt lat="4.604783" lon="-75.136559">
        <ele>2318.7756</ele>
        <time>2021-11-14T13:46:01Z</time>
      </trkpt>
      <trkpt lat="4.604725" lon="-75.136589">
        <ele>2318.4656</ele>
        <time>2021-11-14T13:46:02Z</time>
      </trkpt>
      <trkpt lat="4.604674" lon="-75.136581">
        <ele>2318.3262</ele>
        <time>2021-11-14T13:46:03Z</time>
      </trkpt>
      <trkpt lat="4.604597" lon="-75.136574">
        <ele>2318.0261</ele>
        <time>2021-11-14T13:46:04Z</time>
      </trkpt>
      <trkpt lat="4.604528" lon="-75.136581">
        <ele>2318.5112</ele>
        <time>2021-11-14T13:46:05Z</time>
      </trkpt>
      <trkpt lat="4.604468" lon="-75.136612">
        <ele>2318.8425</ele>
        <time>2021-11-14T13:46:06Z</time>
      </trkpt>
      <trkpt lat="4.604468" lon="-75.136612">
        <ele>2319.574</ele>
        <time>2021-11-14T13:46:07Z</time>
      </trkpt>
      <trkpt lat="4.604426" lon="-75.136658">
        <ele>2320.6504</ele>
        <time>2021-11-14T13:46:08Z</time>
      </trkpt>
      <trkpt lat="4.60442" lon="-75.136742">
        <ele>2321.1968</ele>
        <time>2021-11-14T13:46:09Z</time>
      </trkpt>
      <trkpt lat="4.604415" lon="-75.136826">
        <ele>2321.4238</ele>
        <time>2021-11-14T13:46:10Z</time>
      </trkpt>
      <trkpt lat="4.604409" lon="-75.136894">
        <ele>2321.73</ele>
        <time>2021-11-14T13:46:11Z</time>
      </trkpt>
      <trkpt lat="4.604406" lon="-75.136948">
        <ele>2321.8699</ele>
        <time>2021-11-14T13:46:12Z</time>
      </trkpt>
      <trkpt lat="4.604388" lon="-75.137016">
        <ele>2323.202</ele>
        <time>2021-11-14T13:46:13Z</time>
      </trkpt>
      <trkpt lat="4.604355" lon="-75.137093">
        <ele>2323.406</ele>
        <time>2021-11-14T13:46:14Z</time>
      </trkpt>
      <trkpt lat="4.604333" lon="-75.137177">
        <ele>2323.6028</ele>
        <time>2021-11-14T13:46:15Z</time>
      </trkpt>
      <trkpt lat="4.604302" lon="-75.137199">
        <ele>2324.4849</ele>
        <time>2021-11-14T13:46:16Z</time>
      </trkpt>
      <trkpt lat="4.604212" lon="-75.13723">
        <ele>2324.4849</ele>
        <time>2021-11-14T13:46:17Z</time>
      </trkpt>
      <trkpt lat="4.604147" lon="-75.13726">
        <ele>2325.5137</ele>
        <time>2021-11-14T13:46:18Z</time>
      </trkpt>
      <trkpt lat="4.604083" lon="-75.137306">
        <ele>2326.0532</ele>
        <time>2021-11-14T13:46:19Z</time>
      </trkpt>
      <trkpt lat="4.603995" lon="-75.137352">
        <ele>2327.0894</ele>
        <time>2021-11-14T13:46:20Z</time>
      </trkpt>
      <trkpt lat="4.603943" lon="-75.13739">
        <ele>2327.0894</ele>
        <time>2021-11-14T13:46:21Z</time>
      </trkpt>
      <trkpt lat="4.603887" lon="-75.137428">
        <ele>2327.4202</ele>
        <time>2021-11-14T13:46:22Z</time>
      </trkpt>
      <trkpt lat="4.603826" lon="-75.137459">
        <ele>2328.1255</ele>
        <time>2021-11-14T13:46:23Z</time>
      </trkpt>
      <trkpt lat="4.603768" lon="-75.137512">
        <ele>2329.164</ele>
        <time>2021-11-14T13:46:24Z</time>
      </trkpt>
      <trkpt lat="4.603697" lon="-75.137581">
        <ele>2330.422</ele>
        <time>2021-11-14T13:46:25Z</time>
      </trkpt>
      <trkpt lat="4.603623" lon="-75.13765">
        <ele>2330.422</ele>
        <time>2021-11-14T13:46:26Z</time>
      </trkpt>
      <trkpt lat="4.603577" lon="-75.137711">
        <ele>2331.9219</ele>
        <time>2021-11-14T13:46:27Z</time>
      </trkpt>
      <trkpt lat="4.603534" lon="-75.137741">
        <ele>2332.879</ele>
        <time>2021-11-14T13:46:28Z</time>
      </trkpt>
      <trkpt lat="4.603476" lon="-75.137764">
        <ele>2333.7378</ele>
        <time>2021-11-14T13:46:29Z</time>
      </trkpt>
      <trkpt lat="4.603413" lon="-75.137787">
        <ele>2333.7378</ele>
        <time>2021-11-14T13:46:30Z</time>
      </trkpt>
      <trkpt lat="4.603338" lon="-75.137817">
        <ele>2334.7458</ele>
        <time>2021-11-14T13:46:31Z</time>
      </trkpt>
      <trkpt lat="4.603262" lon="-75.137856">
        <ele>2334.9224</ele>
        <time>2021-11-14T13:46:32Z</time>
      </trkpt>
      <trkpt lat="4.603252" lon="-75.137894">
        <ele>2335.1863</ele>
        <time>2021-11-14T13:46:33Z</time>
      </trkpt>
      <trkpt lat="4.603249" lon="-75.137939">
        <ele>2335.899</ele>
        <time>2021-11-14T13:46:34Z</time>
      </trkpt>
      <trkpt lat="4.603261" lon="-75.137985">
        <ele>2336.0369</ele>
        <time>2021-11-14T13:46:35Z</time>
      </trkpt>
      <trkpt lat="4.603271" lon="-75.1381">
        <ele>2337.12</ele>
        <time>2021-11-14T13:46:36Z</time>
      </trkpt>
      <trkpt lat="4.603302" lon="-75.138176">
        <ele>2337.67</ele>
        <time>2021-11-14T13:46:37Z</time>
      </trkpt>
      <trkpt lat="4.603326" lon="-75.13826">
        <ele>2337.67</ele>
        <time>2021-11-14T13:46:38Z</time>
      </trkpt>
      <trkpt lat="4.603347" lon="-75.138351">
        <ele>2337.6323</ele>
        <time>2021-11-14T13:46:39Z</time>
      </trkpt>
      <trkpt lat="4.603359" lon="-75.138397">
        <ele>2337.7837</ele>
        <time>2021-11-14T13:46:40Z</time>
      </trkpt>
      <trkpt lat="4.603359" lon="-75.138458">
        <ele>2338.0166</ele>
        <time>2021-11-14T13:46:41Z</time>
      </trkpt>
      <trkpt lat="4.603353" lon="-75.138565">
        <ele>2338.3193</ele>
        <time>2021-11-14T13:46:42Z</time>
      </trkpt>
      <trkpt lat="4.603347" lon="-75.138641">
        <ele>2338.2249</ele>
        <time>2021-11-14T13:46:44Z</time>
      </trkpt>
      <trkpt lat="4.603341" lon="-75.13871">
        <ele>2338.6108</ele>
        <time>2021-11-14T13:46:45Z</time>
      </trkpt>
      <trkpt lat="4.603309" lon="-75.138771">
        <ele>2338.6108</ele>
        <time>2021-11-14T13:46:46Z</time>
      </trkpt>
      <trkpt lat="4.603249" lon="-75.138901">
        <ele>2339.0896</ele>
        <time>2021-11-14T13:46:47Z</time>
      </trkpt>
      <trkpt lat="4.603274" lon="-75.138931">
        <ele>2338.955</ele>
        <time>2021-11-14T13:46:48Z</time>
      </trkpt>
      <trkpt lat="4.603274" lon="-75.138931">
        <ele>2337.9</ele>
        <time>2021-11-14T13:46:49Z</time>
      </trkpt>
      <trkpt lat="4.603306" lon="-75.139015">
        <ele>2336.9321</ele>
        <time>2021-11-14T13:46:50Z</time>
      </trkpt>
      <trkpt lat="4.603321" lon="-75.139046">
        <ele>2336.7112</ele>
        <time>2021-11-14T13:46:51Z</time>
      </trkpt>
      <trkpt lat="4.603352" lon="-75.139107">
        <ele>2334.8066</ele>
        <time>2021-11-14T13:46:52Z</time>
      </trkpt>
      <trkpt lat="4.60339" lon="-75.139183">
        <ele>2334.342</ele>
        <time>2021-11-14T13:46:53Z</time>
      </trkpt>
      <trkpt lat="4.603427" lon="-75.139229">
        <ele>2334.342</ele>
        <time>2021-11-14T13:46:54Z</time>
      </trkpt>
      <trkpt lat="4.603467" lon="-75.139305">
        <ele>2333.3574</ele>
        <time>2021-11-14T13:46:55Z</time>
      </trkpt>
      <trkpt lat="4.603526" lon="-75.139374">
        <ele>2333.8164</ele>
        <time>2021-11-14T13:46:56Z</time>
      </trkpt>
      <trkpt lat="4.603551" lon="-75.139435">
        <ele>2333.9978</ele>
        <time>2021-11-14T13:46:57Z</time>
      </trkpt>
      <trkpt lat="4.603587" lon="-75.139503">
        <ele>2334.0942</ele>
        <time>2021-11-14T13:46:58Z</time>
      </trkpt>
      <trkpt lat="4.603619" lon="-75.139534">
        <ele>2334.4092</ele>
        <time>2021-11-14T13:46:59Z</time>
      </trkpt>
      <trkpt lat="4.603698" lon="-75.139549">
        <ele>2333.9893</ele>
        <time>2021-11-14T13:47:00Z</time>
      </trkpt>
      <trkpt lat="4.603782" lon="-75.139595">
        <ele>2332.5056</ele>
        <time>2021-11-14T13:47:01Z</time>
      </trkpt>
      <trkpt lat="4.603834" lon="-75.139618">
        <ele>2332.551</ele>
        <time>2021-11-14T13:47:02Z</time>
      </trkpt>
      <trkpt lat="4.603909" lon="-75.139648">
        <ele>2331.9382</ele>
        <time>2021-11-14T13:47:03Z</time>
      </trkpt>
      <trkpt lat="4.603975" lon="-75.139725">
        <ele>2331.6685</ele>
        <time>2021-11-14T13:47:05Z</time>
      </trkpt>
      <trkpt lat="4.603991" lon="-75.139778">
        <ele>2330.5867</ele>
        <time>2021-11-14T13:47:06Z</time>
      </trkpt>
      <trkpt lat="4.604048" lon="-75.139862">
        <ele>2330.503</ele>
        <time>2021-11-14T13:47:07Z</time>
      </trkpt>
      <trkpt lat="4.604074" lon="-75.139931">
        <ele>2330.8186</ele>
        <time>2021-11-14T13:47:08Z</time>
      </trkpt>
      <trkpt lat="4.6041" lon="-75.139938">
        <ele>2331.127</ele>
        <time>2021-11-14T13:47:09Z</time>
      </trkpt>
      <trkpt lat="4.604132" lon="-75.139946">
        <ele>2331.0356</ele>
        <time>2021-11-14T13:47:10Z</time>
      </trkpt>
      <trkpt lat="4.604189" lon="-75.139977">
        <ele>2331.6704</ele>
        <time>2021-11-14T13:47:11Z</time>
      </trkpt>
      <trkpt lat="4.604199" lon="-75.140007">
        <ele>2331.364</ele>
        <time>2021-11-14T13:47:12Z</time>
      </trkpt>
      <trkpt lat="4.604182" lon="-75.140053">
        <ele>2332.877</ele>
        <time>2021-11-14T13:47:13Z</time>
      </trkpt>
      <trkpt lat="4.604193" lon="-75.140175">
        <ele>2330.6416</ele>
        <time>2021-11-14T13:47:14Z</time>
      </trkpt>
      <trkpt lat="4.604157" lon="-75.140129">
        <ele>2331.4946</ele>
        <time>2021-11-14T13:47:15Z</time>
      </trkpt>
      <trkpt lat="4.604143" lon="-75.140175">
        <ele>2333.0525</ele>
        <time>2021-11-14T13:47:16Z</time>
      </trkpt>
      <trkpt lat="4.604176" lon="-75.140205">
        <ele>2332.517</ele>
        <time>2021-11-14T13:47:17Z</time>
      </trkpt>
      <trkpt lat="4.604222" lon="-75.140259">
        <ele>2331.6616</ele>
        <time>2021-11-14T13:47:18Z</time>
      </trkpt>
      <trkpt lat="4.604258" lon="-75.140312">
        <ele>2331.6616</ele>
        <time>2021-11-14T13:47:19Z</time>
      </trkpt>
      <trkpt lat="4.604228" lon="-75.140282">
        <ele>2331.6348</ele>
        <time>2021-11-14T13:47:20Z</time>
      </trkpt>
      <trkpt lat="4.604215" lon="-75.140312">
        <ele>2330.5503</ele>
        <time>2021-11-14T13:47:21Z</time>
      </trkpt>
      <trkpt lat="4.604189" lon="-75.140312">
        <ele>2330.5344</ele>
        <time>2021-11-14T13:47:22Z</time>
      </trkpt>
      <trkpt lat="4.604166" lon="-75.14032">
        <ele>2328.6558</ele>
        <time>2021-11-14T13:47:23Z</time>
      </trkpt>
      <trkpt lat="4.604155" lon="-75.14032">
        <ele>2328.6438</ele>
        <time>2021-11-14T13:47:24Z</time>
      </trkpt>
      <trkpt lat="4.604132" lon="-75.140282">
        <ele>2328.304</ele>
        <time>2021-11-14T13:47:25Z</time>
      </trkpt>
      <trkpt lat="4.604027" lon="-75.140182">
        <ele>2328.0396</ele>
        <time>2021-11-14T13:47:26Z</time>
      </trkpt>
      <trkpt lat="4.603964" lon="-75.14016">
        <ele>2330.2302</ele>
        <time>2021-11-14T13:47:27Z</time>
      </trkpt>
      <trkpt lat="4.603931" lon="-75.140152">
        <ele>2329.1404</ele>
        <time>2021-11-14T13:47:28Z</time>
      </trkpt>
      <trkpt lat="4.60391" lon="-75.140121">
        <ele>2329.6877</ele>
        <time>2021-11-14T13:47:29Z</time>
      </trkpt>
      <trkpt lat="4.603805" lon="-75.140076">
        <ele>2330.4124</ele>
        <time>2021-11-14T13:47:30Z</time>
      </trkpt>
      <trkpt lat="4.603727" lon="-75.140076">
        <ele>2330.752</ele>
        <time>2021-11-14T13:47:31Z</time>
      </trkpt>
      <trkpt lat="4.6037" lon="-75.140076">
        <ele>2331.0522</ele>
        <time>2021-11-14T13:47:32Z</time>
      </trkpt>
      <trkpt lat="4.603619" lon="-75.140038">
        <ele>2331.303</ele>
        <time>2021-11-14T13:47:33Z</time>
      </trkpt>
      <trkpt lat="4.603576" lon="-75.140007">
        <ele>2331.189</ele>
        <time>2021-11-14T13:47:34Z</time>
      </trkpt>
      <trkpt lat="4.603532" lon="-75.140038">
        <ele>2330.799</ele>
        <time>2021-11-14T13:47:35Z</time>
      </trkpt>
      <trkpt lat="4.603392" lon="-75.14003">
        <ele>2330.8223</ele>
        <time>2021-11-14T13:47:36Z</time>
      </trkpt>
      <trkpt lat="4.603304" lon="-75.139992">
        <ele>2331.887</ele>
        <time>2021-11-14T13:47:37Z</time>
      </trkpt>
      <trkpt lat="4.603257" lon="-75.139977">
        <ele>2332.3267</ele>
        <time>2021-11-14T13:47:38Z</time>
      </trkpt>
      <trkpt lat="4.603257" lon="-75.139977">
        <ele>2333.816</ele>
        <time>2021-11-14T13:47:39Z</time>
      </trkpt>
      <trkpt lat="4.603188" lon="-75.139908">
        <ele>2333.4878</ele>
        <time>2021-11-14T13:47:40Z</time>
      </trkpt>
      <trkpt lat="4.603132" lon="-75.139854">
        <ele>2334.5586</ele>
        <time>2021-11-14T13:47:41Z</time>
      </trkpt>
      <trkpt lat="4.603067" lon="-75.139786">
        <ele>2332.7253</ele>
        <time>2021-11-14T13:47:42Z</time>
      </trkpt>
      <trkpt lat="4.603014" lon="-75.139694">
        <ele>2332.9778</ele>
        <time>2021-11-14T13:47:43Z</time>
      </trkpt>
      <trkpt lat="4.602998" lon="-75.139656">
        <ele>2334.972</ele>
        <time>2021-11-14T13:47:44Z</time>
      </trkpt>
      <trkpt lat="4.602953" lon="-75.13961">
        <ele>2334.2185</ele>
        <time>2021-11-14T13:47:45Z</time>
      </trkpt>
      <trkpt lat="4.602876" lon="-75.139664">
        <ele>2333.7368</ele>
        <time>2021-11-14T13:47:46Z</time>
      </trkpt>
      <trkpt lat="4.602795" lon="-75.139702">
        <ele>2333.151</ele>
        <time>2021-11-14T13:47:47Z</time>
      </trkpt>
      <trkpt lat="4.60277" lon="-75.139709">
        <ele>2332.7935</ele>
        <time>2021-11-14T13:47:48Z</time>
      </trkpt>
      <trkpt lat="4.60269" lon="-75.139816">
        <ele>2336.2822</ele>
        <time>2021-11-14T13:47:49Z</time>
      </trkpt>
      <trkpt lat="4.602594" lon="-75.139908">
        <ele>2336.2822</ele>
        <time>2021-11-14T13:47:50Z</time>
      </trkpt>
      <trkpt lat="4.602544" lon="-75.139931">
        <ele>2334.105</ele>
        <time>2021-11-14T13:47:51Z</time>
      </trkpt>
      <trkpt lat="4.602494" lon="-75.139946">
        <ele>2334.9094</ele>
        <time>2021-11-14T13:47:52Z</time>
      </trkpt>
      <trkpt lat="4.6024" lon="-75.139969">
        <ele>2335.3726</ele>
        <time>2021-11-14T13:47:53Z</time>
      </trkpt>
      <trkpt lat="4.602291" lon="-75.139969">
        <ele>2336.0688</ele>
        <time>2021-11-14T13:47:54Z</time>
      </trkpt>
      <trkpt lat="4.602217" lon="-75.139992">
        <ele>2336.9768</ele>
        <time>2021-11-14T13:47:55Z</time>
      </trkpt>
      <trkpt lat="4.60215" lon="-75.139999">
        <ele>2337.0715</ele>
        <time>2021-11-14T13:47:56Z</time>
      </trkpt>
      <trkpt lat="4.602082" lon="-75.140022">
        <ele>2337.3408</ele>
        <time>2021-11-14T13:47:57Z</time>
      </trkpt>
      <trkpt lat="4.602051" lon="-75.139992">
        <ele>2340.2493</ele>
        <time>2021-11-14T13:47:58Z</time>
      </trkpt>
      <trkpt lat="4.601964" lon="-75.139954">
        <ele>2340.249</ele>
        <time>2021-11-14T13:47:59Z</time>
      </trkpt>
      <trkpt lat="4.601904" lon="-75.139954">
        <ele>2341.3323</ele>
        <time>2021-11-14T13:48:00Z</time>
      </trkpt>
      <trkpt lat="4.601846" lon="-75.140007">
        <ele>2342.0164</ele>
        <time>2021-11-14T13:48:01Z</time>
      </trkpt>
      <trkpt lat="4.601821" lon="-75.140083">
        <ele>2342.8313</ele>
        <time>2021-11-14T13:48:02Z</time>
      </trkpt>
      <trkpt lat="4.601872" lon="-75.140228">
        <ele>2342.6956</ele>
        <time>2021-11-14T13:48:03Z</time>
      </trkpt>
      <trkpt lat="4.601882" lon="-75.140282">
        <ele>2343.0781</ele>
        <time>2021-11-14T13:48:04Z</time>
      </trkpt>
      <trkpt lat="4.601896" lon="-75.140358">
        <ele>2344.8652</ele>
        <time>2021-11-14T13:48:05Z</time>
      </trkpt>
      <trkpt lat="4.601924" lon="-75.140503">
        <ele>2345.2102</ele>
        <time>2021-11-14T13:48:06Z</time>
      </trkpt>
      <trkpt lat="4.601949" lon="-75.140564">
        <ele>2346.9348</ele>
        <time>2021-11-14T13:48:07Z</time>
      </trkpt>
      <trkpt lat="4.601984" lon="-75.140602">
        <ele>2347.427</ele>
        <time>2021-11-14T13:48:08Z</time>
      </trkpt>
      <trkpt lat="4.602028" lon="-75.140656">
        <ele>2347.9941</ele>
        <time>2021-11-14T13:48:09Z</time>
      </trkpt>
      <trkpt lat="4.60208" lon="-75.140732">
        <ele>2349.3428</ele>
        <time>2021-11-14T13:48:10Z</time>
      </trkpt>
      <trkpt lat="4.602134" lon="-75.140823">
        <ele>2349.4788</ele>
        <time>2021-11-14T13:48:11Z</time>
      </trkpt>
      <trkpt lat="4.602159" lon="-75.1409">
        <ele>2350.6555</ele>
        <time>2021-11-14T13:48:13Z</time>
      </trkpt>
      <trkpt lat="4.602172" lon="-75.140961">
        <ele>2350.6904</ele>
        <time>2021-11-14T13:48:14Z</time>
      </trkpt>
      <trkpt lat="4.602192" lon="-75.141045">
        <ele>2351.2058</ele>
        <time>2021-11-14T13:48:15Z</time>
      </trkpt>
      <trkpt lat="4.602191" lon="-75.141136">
        <ele>2351.3774</ele>
        <time>2021-11-14T13:48:16Z</time>
      </trkpt>
      <trkpt lat="4.602186" lon="-75.141235">
        <ele>2351.3062</ele>
        <time>2021-11-14T13:48:17Z</time>
      </trkpt>
      <trkpt lat="4.602141" lon="-75.141396">
        <ele>2351.8896</ele>
        <time>2021-11-14T13:48:18Z</time>
      </trkpt>
      <trkpt lat="4.602094" lon="-75.141479">
        <ele>2352.0776</ele>
        <time>2021-11-14T13:48:19Z</time>
      </trkpt>
      <trkpt lat="4.602042" lon="-75.141586">
        <ele>2352.3203</ele>
        <time>2021-11-14T13:48:20Z</time>
      </trkpt>
      <trkpt lat="4.601997" lon="-75.141708">
        <ele>2352.5894</ele>
        <time>2021-11-14T13:48:21Z</time>
      </trkpt>
      <trkpt lat="4.601974" lon="-75.141777">
        <ele>2353.3047</ele>
        <time>2021-11-14T13:48:22Z</time>
      </trkpt>
      <trkpt lat="4.601942" lon="-75.141815">
        <ele>2352.7463</ele>
        <time>2021-11-14T13:48:23Z</time>
      </trkpt>
      <trkpt lat="4.60189" lon="-75.141922">
        <ele>2353.1458</ele>
        <time>2021-11-14T13:48:24Z</time>
      </trkpt>
      <trkpt lat="4.601856" lon="-75.141998">
        <ele>2353.3464</ele>
        <time>2021-11-14T13:48:25Z</time>
      </trkpt>
      <trkpt lat="4.601851" lon="-75.142029">
        <ele>2353.3909</ele>
        <time>2021-11-14T13:48:26Z</time>
      </trkpt>
      <trkpt lat="4.601867" lon="-75.14209">
        <ele>2352.6592</ele>
        <time>2021-11-14T13:48:27Z</time>
      </trkpt>
      <trkpt lat="4.601887" lon="-75.142151">
        <ele>2351.9358</ele>
        <time>2021-11-14T13:48:28Z</time>
      </trkpt>
      <trkpt lat="4.601899" lon="-75.142212">
        <ele>2351.6262</ele>
        <time>2021-11-14T13:48:29Z</time>
      </trkpt>
      <trkpt lat="4.601909" lon="-75.14225">
        <ele>2350.9648</ele>
        <time>2021-11-14T13:48:30Z</time>
      </trkpt>
      <trkpt lat="4.601922" lon="-75.142273">
        <ele>2351.055</ele>
        <time>2021-11-14T13:48:31Z</time>
      </trkpt>
      <trkpt lat="4.601933" lon="-75.142311">
        <ele>2351.4321</ele>
        <time>2021-11-14T13:48:32Z</time>
      </trkpt>
      <trkpt lat="4.601939" lon="-75.142349">
        <ele>2350.979</ele>
        <time>2021-11-14T13:48:33Z</time>
      </trkpt>
      <trkpt lat="4.601939" lon="-75.142349">
        <ele>2350.6921</ele>
        <time>2021-11-14T13:48:34Z</time>
      </trkpt>
      <trkpt lat="4.601943" lon="-75.14238">
        <ele>2350.6074</ele>
        <time>2021-11-14T13:48:35Z</time>
      </trkpt>
      <trkpt lat="4.601958" lon="-75.142433">
        <ele>2350.5942</ele>
        <time>2021-11-14T13:48:36Z</time>
      </trkpt>
      <trkpt lat="4.601959" lon="-75.142517">
        <ele>2351.2385</ele>
        <time>2021-11-14T13:48:38Z</time>
      </trkpt>
      <trkpt lat="4.601967" lon="-75.142563">
        <ele>2351.187</ele>
        <time>2021-11-14T13:48:39Z</time>
      </trkpt>
      <trkpt lat="4.601952" lon="-75.142616">
        <ele>2351.4324</ele>
        <time>2021-11-14T13:48:41Z</time>
      </trkpt>
      <trkpt lat="4.601935" lon="-75.142677">
        <ele>2351.9014</ele>
        <time>2021-11-14T13:48:42Z</time>
      </trkpt>
      <trkpt lat="4.601915" lon="-75.142754">
        <ele>2352.1345</ele>
        <time>2021-11-14T13:48:43Z</time>
      </trkpt>
      <trkpt lat="4.601902" lon="-75.142822">
        <ele>2352.7102</ele>
        <time>2021-11-14T13:48:44Z</time>
      </trkpt>
      <trkpt lat="4.601862" lon="-75.142975">
        <ele>2355.008</ele>
        <time>2021-11-14T13:48:45Z</time>
      </trkpt>
      <trkpt lat="4.601821" lon="-75.143036">
        <ele>2354.7212</ele>
        <time>2021-11-14T13:48:46Z</time>
      </trkpt>
      <trkpt lat="4.601741" lon="-75.143097">
        <ele>2355.673</ele>
        <time>2021-11-14T13:48:47Z</time>
      </trkpt>
      <trkpt lat="4.601682" lon="-75.143166">
        <ele>2355.9548</ele>
        <time>2021-11-14T13:48:48Z</time>
      </trkpt>
      <trkpt lat="4.601673" lon="-75.143196">
        <ele>2355.6707</ele>
        <time>2021-11-14T13:48:49Z</time>
      </trkpt>
      <trkpt lat="4.601697" lon="-75.14325">
        <ele>2355.4429</ele>
        <time>2021-11-14T13:48:50Z</time>
      </trkpt>
      <trkpt lat="4.601716" lon="-75.143387">
        <ele>2355.5981</ele>
        <time>2021-11-14T13:48:51Z</time>
      </trkpt>
      <trkpt lat="4.601706" lon="-75.143379">
        <ele>2355.0032</ele>
        <time>2021-11-14T13:48:52Z</time>
      </trkpt>
      <trkpt lat="4.60169" lon="-75.143425">
        <ele>2355.172</ele>
        <time>2021-11-14T13:48:53Z</time>
      </trkpt>
      <trkpt lat="4.601661" lon="-75.143478">
        <ele>2355.5225</ele>
        <time>2021-11-14T13:48:54Z</time>
      </trkpt>
      <trkpt lat="4.601642" lon="-75.143471">
        <ele>2356.012</ele>
        <time>2021-11-14T13:48:55Z</time>
      </trkpt>
      <trkpt lat="4.601598" lon="-75.143524">
        <ele>2356.1357</ele>
        <time>2021-11-14T13:48:56Z</time>
      </trkpt>
      <trkpt lat="4.601569" lon="-75.143555">
        <ele>2357.0</ele>
        <time>2021-11-14T13:48:57Z</time>
      </trkpt>
      <trkpt lat="4.601522" lon="-75.143578">
        <ele>2356.9495</ele>
        <time>2021-11-14T13:48:58Z</time>
      </trkpt>
      <trkpt lat="4.601478" lon="-75.143608">
        <ele>2356.936</ele>
        <time>2021-11-14T13:48:59Z</time>
      </trkpt>
      <trkpt lat="4.601431" lon="-75.143639">
        <ele>2357.1985</ele>
        <time>2021-11-14T13:49:00Z</time>
      </trkpt>
      <trkpt lat="4.601387" lon="-75.143669">
        <ele>2356.2854</ele>
        <time>2021-11-14T13:49:01Z</time>
      </trkpt>
      <trkpt lat="4.601323" lon="-75.1437">
        <ele>2355.978</ele>
        <time>2021-11-14T13:49:02Z</time>
      </trkpt>
      <trkpt lat="4.601256" lon="-75.143738">
        <ele>2355.6555</ele>
        <time>2021-11-14T13:49:04Z</time>
      </trkpt>
      <trkpt lat="4.601221" lon="-75.143791">
        <ele>2354.8594</ele>
        <time>2021-11-14T13:49:05Z</time>
      </trkpt>
      <trkpt lat="4.601212" lon="-75.14386">
        <ele>2354.632</ele>
        <time>2021-11-14T13:49:06Z</time>
      </trkpt>
      <trkpt lat="4.601178" lon="-75.143967">
        <ele>2354.4065</ele>
        <time>2021-11-14T13:49:07Z</time>
      </trkpt>
      <trkpt lat="4.601156" lon="-75.144035">
        <ele>2354.2495</ele>
        <time>2021-11-14T13:49:08Z</time>
      </trkpt>
      <trkpt lat="4.601116" lon="-75.144073">
        <ele>2354.4458</ele>
        <time>2021-11-14T13:49:09Z</time>
      </trkpt>
      <trkpt lat="4.601059" lon="-75.144112">
        <ele>2354.681</ele>
        <time>2021-11-14T13:49:10Z</time>
      </trkpt>
      <trkpt lat="4.60103" lon="-75.144127">
        <ele>2354.8286</ele>
        <time>2021-11-14T13:49:11Z</time>
      </trkpt>
      <trkpt lat="4.601051" lon="-75.144104">
        <ele>2355.0952</ele>
        <time>2021-11-14T13:49:12Z</time>
      </trkpt>
      <trkpt lat="4.601028" lon="-75.144119">
        <ele>2355.5742</ele>
        <time>2021-11-14T13:49:13Z</time>
      </trkpt>
      <trkpt lat="4.601014" lon="-75.144135">
        <ele>2355.7278</ele>
        <time>2021-11-14T13:49:14Z</time>
      </trkpt>
      <trkpt lat="4.601003" lon="-75.144142">
        <ele>2355.4783</ele>
        <time>2021-11-14T13:49:15Z</time>
      </trkpt>
      <trkpt lat="4.601007" lon="-75.144142">
        <ele>2355.4272</ele>
        <time>2021-11-14T13:49:16Z</time>
      </trkpt>
      <trkpt lat="4.601004" lon="-75.144142">
        <ele>2355.307</ele>
        <time>2021-11-14T13:49:17Z</time>
      </trkpt>
      <trkpt lat="4.600993" lon="-75.144135">
        <ele>2355.4265</ele>
        <time>2021-11-14T13:49:18Z</time>
      </trkpt>
      <trkpt lat="4.600936" lon="-75.144165">
        <ele>2355.7485</ele>
        <time>2021-11-14T13:49:19Z</time>
      </trkpt>
      <trkpt lat="4.600844" lon="-75.144211">
        <ele>2355.7053</ele>
        <time>2021-11-14T13:49:20Z</time>
      </trkpt>
      <trkpt lat="4.600834" lon="-75.144218">
        <ele>2355.5886</ele>
        <time>2021-11-14T13:49:21Z</time>
      </trkpt>
      <trkpt lat="4.600839" lon="-75.144203">
        <ele>2355.4788</ele>
        <time>2021-11-14T13:49:23Z</time>
      </trkpt>
      <trkpt lat="4.600806" lon="-75.144226">
        <ele>2356.1128</ele>
        <time>2021-11-14T13:49:24Z</time>
      </trkpt>
      <trkpt lat="4.600686" lon="-75.144295">
        <ele>2356.3208</ele>
        <time>2021-11-14T13:49:25Z</time>
      </trkpt>
      <trkpt lat="4.600613" lon="-75.144356">
        <ele>2356.1077</ele>
        <time>2021-11-14T13:49:26Z</time>
      </trkpt>
      <trkpt lat="4.600613" lon="-75.144356">
        <ele>2356.1228</ele>
        <time>2021-11-14T13:49:27Z</time>
      </trkpt>
      <trkpt lat="4.600573" lon="-75.144402">
        <ele>2356.2483</ele>
        <time>2021-11-14T13:49:28Z</time>
      </trkpt>
      <trkpt lat="4.600534" lon="-75.14444">
        <ele>2356.6519</ele>
        <time>2021-11-14T13:49:29Z</time>
      </trkpt>
      <trkpt lat="4.600493" lon="-75.144501">
        <ele>2357.9197</ele>
        <time>2021-11-14T13:49:30Z</time>
      </trkpt>
      <trkpt lat="4.600447" lon="-75.144554">
        <ele>2358.5667</ele>
        <time>2021-11-14T13:49:31Z</time>
      </trkpt>
      <trkpt lat="4.600423" lon="-75.144585">
        <ele>2359.375</ele>
        <time>2021-11-14T13:49:32Z</time>
      </trkpt>
      <trkpt lat="4.60041" lon="-75.144623">
        <ele>2359.7761</ele>
        <time>2021-11-14T13:49:33Z</time>
      </trkpt>
      <trkpt lat="4.600393" lon="-75.144669">
        <ele>2360.3281</ele>
        <time>2021-11-14T13:49:34Z</time>
      </trkpt>
      <trkpt lat="4.6004" lon="-75.14473">
        <ele>2361.366</ele>
        <time>2021-11-14T13:49:35Z</time>
      </trkpt>
      <trkpt lat="4.600427" lon="-75.144775">
        <ele>2361.34</ele>
        <time>2021-11-14T13:49:36Z</time>
      </trkpt>
      <trkpt lat="4.600451" lon="-75.144829">
        <ele>2362.215</ele>
        <time>2021-11-14T13:49:37Z</time>
      </trkpt>
      <trkpt lat="4.600502" lon="-75.144882">
        <ele>2362.5286</ele>
        <time>2021-11-14T13:49:39Z</time>
      </trkpt>
      <trkpt lat="4.600527" lon="-75.144928">
        <ele>2362.8633</ele>
        <time>2021-11-14T13:49:40Z</time>
      </trkpt>
      <trkpt lat="4.600541" lon="-75.144951">
        <ele>2362.7375</ele>
        <time>2021-11-14T13:49:41Z</time>
      </trkpt>
      <trkpt lat="4.600552" lon="-75.144951">
        <ele>2362.7007</ele>
        <time>2021-11-14T13:49:42Z</time>
      </trkpt>
      <trkpt lat="4.600558" lon="-75.144951">
        <ele>2363.0605</ele>
        <time>2021-11-14T13:49:43Z</time>
      </trkpt>
      <trkpt lat="4.60056" lon="-75.144951">
        <ele>2362.9539</ele>
        <time>2021-11-14T13:49:44Z</time>
      </trkpt>
      <trkpt lat="4.600562" lon="-75.144951">
        <ele>2362.7163</ele>
        <time>2021-11-14T13:49:45Z</time>
      </trkpt>
      <trkpt lat="4.60056" lon="-75.144951">
        <ele>2362.86</ele>
        <time>2021-11-14T13:49:46Z</time>
      </trkpt>
      <trkpt lat="4.600557" lon="-75.144958">
        <ele>2362.8652</ele>
        <time>2021-11-14T13:49:47Z</time>
      </trkpt>
      <trkpt lat="4.600567" lon="-75.144966">
        <ele>2363.5488</ele>
        <time>2021-11-14T13:49:48Z</time>
      </trkpt>
      <trkpt lat="4.600611" lon="-75.145035">
        <ele>2363.7837</ele>
        <time>2021-11-14T13:49:49Z</time>
      </trkpt>
      <trkpt lat="4.600652" lon="-75.145096">
        <ele>2364.2378</ele>
        <time>2021-11-14T13:49:50Z</time>
      </trkpt>
      <trkpt lat="4.600714" lon="-75.145126">
        <ele>2364.4026</ele>
        <time>2021-11-14T13:49:51Z</time>
      </trkpt>
      <trkpt lat="4.600773" lon="-75.14518">
        <ele>2364.568</ele>
        <time>2021-11-14T13:49:52Z</time>
      </trkpt>
      <trkpt lat="4.600828" lon="-75.145241">
        <ele>2365.2722</ele>
        <time>2021-11-14T13:49:53Z</time>
      </trkpt>
      <trkpt lat="4.600869" lon="-75.145287">
        <ele>2364.963</ele>
        <time>2021-11-14T13:49:54Z</time>
      </trkpt>
      <trkpt lat="4.60099" lon="-75.145378">
        <ele>2365.6345</ele>
        <time>2021-11-14T13:49:55Z</time>
      </trkpt>
      <trkpt lat="4.600991" lon="-75.145401">
        <ele>2364.8755</ele>
        <time>2021-11-14T13:49:56Z</time>
      </trkpt>
      <trkpt lat="4.601014" lon="-75.145462">
        <ele>2365.2896</ele>
        <time>2021-11-14T13:49:57Z</time>
      </trkpt>
      <trkpt lat="4.600987" lon="-75.145515">
        <ele>2365.4446</ele>
        <time>2021-11-14T13:49:58Z</time>
      </trkpt>
      <trkpt lat="4.600974" lon="-75.145538">
        <ele>2363.8198</ele>
        <time>2021-11-14T13:49:59Z</time>
      </trkpt>
      <trkpt lat="4.600988" lon="-75.145515">
        <ele>2363.3162</ele>
        <time>2021-11-14T13:50:00Z</time>
      </trkpt>
      <trkpt lat="4.600969" lon="-75.145546">
        <ele>2362.8276</ele>
        <time>2021-11-14T13:50:01Z</time>
      </trkpt>
      <trkpt lat="4.600932" lon="-75.145615">
        <ele>2362.6848</ele>
        <time>2021-11-14T13:50:02Z</time>
      </trkpt>
      <trkpt lat="4.600885" lon="-75.145653">
        <ele>2361.9717</ele>
        <time>2021-11-14T13:50:03Z</time>
      </trkpt>
      <trkpt lat="4.600853" lon="-75.14566">
        <ele>2361.0474</ele>
        <time>2021-11-14T13:50:04Z</time>
      </trkpt>
      <trkpt lat="4.60083" lon="-75.145638">
        <ele>2361.2</ele>
        <time>2021-11-14T13:50:05Z</time>
      </trkpt>
      <trkpt lat="4.600739" lon="-75.145599">
        <ele>2360.9094</ele>
        <time>2021-11-14T13:50:06Z</time>
      </trkpt>
      <trkpt lat="4.600668" lon="-75.145584">
        <ele>2361.733</ele>
        <time>2021-11-14T13:50:07Z</time>
      </trkpt>
      <trkpt lat="4.600634" lon="-75.145561">
        <ele>2363.3325</ele>
        <time>2021-11-14T13:50:08Z</time>
      </trkpt>
      <trkpt lat="4.600586" lon="-75.145561">
        <ele>2363.019</ele>
        <time>2021-11-14T13:50:09Z</time>
      </trkpt>
      <trkpt lat="4.600547" lon="-75.145561">
        <ele>2364.1172</ele>
        <time>2021-11-14T13:50:10Z</time>
      </trkpt>
      <trkpt lat="4.600506" lon="-75.145576">
        <ele>2365.0737</ele>
        <time>2021-11-14T13:50:11Z</time>
      </trkpt>
      <trkpt lat="4.600458" lon="-75.145638">
        <ele>2365.439</ele>
        <time>2021-11-14T13:50:12Z</time>
      </trkpt>
      <trkpt lat="4.6004" lon="-75.145676">
        <ele>2365.5112</ele>
        <time>2021-11-14T13:50:13Z</time>
      </trkpt>
      <trkpt lat="4.600329" lon="-75.145737">
        <ele>2366.67</ele>
        <time>2021-11-14T13:50:15Z</time>
      </trkpt>
      <trkpt lat="4.600251" lon="-75.145767">
        <ele>2367.2751</ele>
        <time>2021-11-14T13:50:16Z</time>
      </trkpt>
      <trkpt lat="4.600169" lon="-75.14579">
        <ele>2367.7012</ele>
        <time>2021-11-14T13:50:17Z</time>
      </trkpt>
      <trkpt lat="4.600168" lon="-75.145813">
        <ele>2368.0244</ele>
        <time>2021-11-14T13:50:18Z</time>
      </trkpt>
      <trkpt lat="4.600148" lon="-75.145859">
        <ele>2368.2678</ele>
        <time>2021-11-14T13:50:19Z</time>
      </trkpt>
      <trkpt lat="4.600148" lon="-75.145859">
        <ele>2367.236</ele>
        <time>2021-11-14T13:50:20Z</time>
      </trkpt>
      <trkpt lat="4.600088" lon="-75.145943">
        <ele>2366.827</ele>
        <time>2021-11-14T13:50:21Z</time>
      </trkpt>
      <trkpt lat="4.600101" lon="-75.146057">
        <ele>2367.3918</ele>
        <time>2021-11-14T13:50:22Z</time>
      </trkpt>
      <trkpt lat="4.600085" lon="-75.146072">
        <ele>2366.6282</ele>
        <time>2021-11-14T13:50:23Z</time>
      </trkpt>
      <trkpt lat="4.600096" lon="-75.146217">
        <ele>2367.0164</ele>
        <time>2021-11-14T13:50:24Z</time>
      </trkpt>
      <trkpt lat="4.600118" lon="-75.146217">
        <ele>2365.5576</ele>
        <time>2021-11-14T13:50:25Z</time>
      </trkpt>
      <trkpt lat="4.600146" lon="-75.146324">
        <ele>2365.311</ele>
        <time>2021-11-14T13:50:26Z</time>
      </trkpt>
      <trkpt lat="4.600211" lon="-75.1464">
        <ele>2365.0645</ele>
        <time>2021-11-14T13:50:27Z</time>
      </trkpt>
      <trkpt lat="4.60026" lon="-75.146431">
        <ele>2364.9927</ele>
        <time>2021-11-14T13:50:28Z</time>
      </trkpt>
      <trkpt lat="4.600296" lon="-75.146454">
        <ele>2364.594</ele>
        <time>2021-11-14T13:50:29Z</time>
      </trkpt>
      <trkpt lat="4.600298" lon="-75.146507">
        <ele>2363.9014</ele>
        <time>2021-11-14T13:50:30Z</time>
      </trkpt>
      <trkpt lat="4.60021" lon="-75.146599">
        <ele>2362.5222</ele>
        <time>2021-11-14T13:50:31Z</time>
      </trkpt>
      <trkpt lat="4.600154" lon="-75.146576">
        <ele>2362.1624</ele>
        <time>2021-11-14T13:50:32Z</time>
      </trkpt>
      <trkpt lat="4.600037" lon="-75.146568">
        <ele>2363.3643</ele>
        <time>2021-11-14T13:50:33Z</time>
      </trkpt>
      <trkpt lat="4.599934" lon="-75.146545">
        <ele>2364.5085</ele>
        <time>2021-11-14T13:50:34Z</time>
      </trkpt>
      <trkpt lat="4.599867" lon="-75.146553">
        <ele>2365.657</ele>
        <time>2021-11-14T13:50:35Z</time>
      </trkpt>
      <trkpt lat="4.599762" lon="-75.146523">
        <ele>2367.0618</ele>
        <time>2021-11-14T13:50:36Z</time>
      </trkpt>
      <trkpt lat="4.599701" lon="-75.146492">
        <ele>2368.6445</ele>
        <time>2021-11-14T13:50:37Z</time>
      </trkpt>
      <trkpt lat="4.599595" lon="-75.146469">
        <ele>2369.954</ele>
        <time>2021-11-14T13:50:38Z</time>
      </trkpt>
      <trkpt lat="4.599585" lon="-75.146492">
        <ele>2370.585</ele>
        <time>2021-11-14T13:50:39Z</time>
      </trkpt>
      <trkpt lat="4.599525" lon="-75.146515">
        <ele>2371.4026</ele>
        <time>2021-11-14T13:50:40Z</time>
      </trkpt>
      <trkpt lat="4.59943" lon="-75.146545">
        <ele>2372.079</ele>
        <time>2021-11-14T13:50:41Z</time>
      </trkpt>
      <trkpt lat="4.599368" lon="-75.146591">
        <ele>2372.7615</ele>
        <time>2021-11-14T13:50:42Z</time>
      </trkpt>
      <trkpt lat="4.59933" lon="-75.146614">
        <ele>2373.038</ele>
        <time>2021-11-14T13:50:43Z</time>
      </trkpt>
      <trkpt lat="4.599276" lon="-75.146637">
        <ele>2372.9463</ele>
        <time>2021-11-14T13:50:44Z</time>
      </trkpt>
      <trkpt lat="4.599259" lon="-75.14669">
        <ele>2373.3596</ele>
        <time>2021-11-14T13:50:46Z</time>
      </trkpt>
      <trkpt lat="4.599292" lon="-75.146721">
        <ele>2373.9165</ele>
        <time>2021-11-14T13:50:47Z</time>
      </trkpt>
      <trkpt lat="4.599288" lon="-75.146774">
        <ele>2374.365</ele>
        <time>2021-11-14T13:50:48Z</time>
      </trkpt>
      <trkpt lat="4.599273" lon="-75.146873">
        <ele>2374.0671</ele>
        <time>2021-11-14T13:50:49Z</time>
      </trkpt>
      <trkpt lat="4.599276" lon="-75.146973">
        <ele>2374.0413</ele>
        <time>2021-11-14T13:50:50Z</time>
      </trkpt>
      <trkpt lat="4.599255" lon="-75.147026">
        <ele>2375.065</ele>
        <time>2021-11-14T13:50:51Z</time>
      </trkpt>
      <trkpt lat="4.599212" lon="-75.147087">
        <ele>2374.8455</ele>
        <time>2021-11-14T13:50:52Z</time>
      </trkpt>
      <trkpt lat="4.599171" lon="-75.147118">
        <ele>2375.1213</ele>
        <time>2021-11-14T13:50:53Z</time>
      </trkpt>
      <trkpt lat="4.599116" lon="-75.147133">
        <ele>2375.4648</ele>
        <time>2021-11-14T13:50:54Z</time>
      </trkpt>
      <trkpt lat="4.599041" lon="-75.147179">
        <ele>2375.8328</ele>
        <time>2021-11-14T13:50:55Z</time>
      </trkpt>
      <trkpt lat="4.59897" lon="-75.147202">
        <ele>2375.8713</ele>
        <time>2021-11-14T13:50:56Z</time>
      </trkpt>
      <trkpt lat="4.598887" lon="-75.14724">
        <ele>2376.0579</ele>
        <time>2021-11-14T13:50:57Z</time>
      </trkpt>
      <trkpt lat="4.598816" lon="-75.147285">
        <ele>2375.966</ele>
        <time>2021-11-14T13:50:58Z</time>
      </trkpt>
      <trkpt lat="4.598792" lon="-75.147308">
        <ele>2376.3296</ele>
        <time>2021-11-14T13:50:59Z</time>
      </trkpt>
      <trkpt lat="4.59876" lon="-75.147339">
        <ele>2376.973</ele>
        <time>2021-11-14T13:51:00Z</time>
      </trkpt>
      <trkpt lat="4.59871" lon="-75.147377">
        <ele>2377.0454</ele>
        <time>2021-11-14T13:51:01Z</time>
      </trkpt>
      <trkpt lat="4.598675" lon="-75.147415">
        <ele>2377.1064</ele>
        <time>2021-11-14T13:51:02Z</time>
      </trkpt>
      <trkpt lat="4.598533" lon="-75.147491">
        <ele>2377.087</ele>
        <time>2021-11-14T13:51:03Z</time>
      </trkpt>
      <trkpt lat="4.59852" lon="-75.147537">
        <ele>2377.415</ele>
        <time>2021-11-14T13:51:05Z</time>
      </trkpt>
      <trkpt lat="4.598401" lon="-75.147621">
        <ele>2377.903</ele>
        <time>2021-11-14T13:51:06Z</time>
      </trkpt>
      <trkpt lat="4.598297" lon="-75.147644">
        <ele>2378.0217</ele>
        <time>2021-11-14T13:51:07Z</time>
      </trkpt>
      <trkpt lat="4.598246" lon="-75.147659">
        <ele>2379.6755</ele>
        <time>2021-11-14T13:51:08Z</time>
      </trkpt>
      <trkpt lat="4.5982" lon="-75.147667">
        <ele>2380.0583</ele>
        <time>2021-11-14T13:51:09Z</time>
      </trkpt>
      <trkpt lat="4.598198" lon="-75.147675">
        <ele>2380.8252</ele>
        <time>2021-11-14T13:51:10Z</time>
      </trkpt>
      <trkpt lat="4.598148" lon="-75.14769">
        <ele>2381.6013</ele>
        <time>2021-11-14T13:51:11Z</time>
      </trkpt>
      <trkpt lat="4.598142" lon="-75.147697">
        <ele>2381.815</ele>
        <time>2021-11-14T13:51:12Z</time>
      </trkpt>
      <trkpt lat="4.598148" lon="-75.14769">
        <ele>2382.0193</ele>
        <time>2021-11-14T13:51:13Z</time>
      </trkpt>
      <trkpt lat="4.598148" lon="-75.14769">
        <ele>2382.0908</ele>
        <time>2021-11-14T13:51:14Z</time>
      </trkpt>
      <trkpt lat="4.598149" lon="-75.147697">
        <ele>2382.0435</ele>
        <time>2021-11-14T13:51:15Z</time>
      </trkpt>
      <trkpt lat="4.598149" lon="-75.147697">
        <ele>2382.3284</ele>
        <time>2021-11-14T13:51:17Z</time>
      </trkpt>
      <trkpt lat="4.598145" lon="-75.147697">
        <ele>2382.982</ele>
        <time>2021-11-14T13:51:18Z</time>
      </trkpt>
      <trkpt lat="4.598079" lon="-75.147736">
        <ele>2383.92</ele>
        <time>2021-11-14T13:51:19Z</time>
      </trkpt>
      <trkpt lat="4.598026" lon="-75.147743">
        <ele>2383.695</ele>
        <time>2021-11-14T13:51:20Z</time>
      </trkpt>
      <trkpt lat="4.597948" lon="-75.147789">
        <ele>2384.0427</ele>
        <time>2021-11-14T13:51:21Z</time>
      </trkpt>
      <trkpt lat="4.597935" lon="-75.147797">
        <ele>2384.59</ele>
        <time>2021-11-14T13:51:22Z</time>
      </trkpt>
      <trkpt lat="4.597867" lon="-75.147797">
        <ele>2385.3875</ele>
        <time>2021-11-14T13:51:23Z</time>
      </trkpt>
      <trkpt lat="4.59783" lon="-75.14782">
        <ele>2386.1973</ele>
        <time>2021-11-14T13:51:24Z</time>
      </trkpt>
      <trkpt lat="4.597748" lon="-75.147858">
        <ele>2386.9668</ele>
        <time>2021-11-14T13:51:25Z</time>
      </trkpt>
      <trkpt lat="4.597698" lon="-75.147888">
        <ele>2387.6348</ele>
        <time>2021-11-14T13:51:26Z</time>
      </trkpt>
      <trkpt lat="4.597697" lon="-75.147911">
        <ele>2388.3643</ele>
        <time>2021-11-14T13:51:27Z</time>
      </trkpt>
      <trkpt lat="4.597657" lon="-75.147972">
        <ele>2388.5598</ele>
        <time>2021-11-14T13:51:28Z</time>
      </trkpt>
      <trkpt lat="4.597639" lon="-75.14801">
        <ele>2388.516</ele>
        <time>2021-11-14T13:51:29Z</time>
      </trkpt>
      <trkpt lat="4.597654" lon="-75.147995">
        <ele>2388.2188</ele>
        <time>2021-11-14T13:51:30Z</time>
      </trkpt>
      <trkpt lat="4.597644" lon="-75.148018">
        <ele>2388.8687</ele>
        <time>2021-11-14T13:51:31Z</time>
      </trkpt>
      <trkpt lat="4.59765" lon="-75.14801">
        <ele>2389.0522</ele>
        <time>2021-11-14T13:51:32Z</time>
      </trkpt>
      <trkpt lat="4.59765" lon="-75.14801">
        <ele>2389.33</ele>
        <time>2021-11-14T13:51:33Z</time>
      </trkpt>
      <trkpt lat="4.597651" lon="-75.14801">
        <ele>2389.3328</ele>
        <time>2021-11-14T13:51:35Z</time>
      </trkpt>
      <trkpt lat="4.59765" lon="-75.14801">
        <ele>2389.6323</ele>
        <time>2021-11-14T13:51:36Z</time>
      </trkpt>
      <trkpt lat="4.59765" lon="-75.14801">
        <ele>2389.2053</ele>
        <time>2021-11-14T13:51:37Z</time>
      </trkpt>
      <trkpt lat="4.597643" lon="-75.148026">
        <ele>2389.3381</ele>
        <time>2021-11-14T13:51:38Z</time>
      </trkpt>
      <trkpt lat="4.597629" lon="-75.148064">
        <ele>2389.3806</ele>
        <time>2021-11-14T13:51:39Z</time>
      </trkpt>
      <trkpt lat="4.597593" lon="-75.14817">
        <ele>2389.486</ele>
        <time>2021-11-14T13:51:40Z</time>
      </trkpt>
      <trkpt lat="4.597566" lon="-75.148216">
        <ele>2388.863</ele>
        <time>2021-11-14T13:51:41Z</time>
      </trkpt>
      <trkpt lat="4.597529" lon="-75.148247">
        <ele>2388.727</ele>
        <time>2021-11-14T13:51:42Z</time>
      </trkpt>
      <trkpt lat="4.597478" lon="-75.14827">
        <ele>2388.384</ele>
        <time>2021-11-14T13:51:43Z</time>
      </trkpt>
      <trkpt lat="4.597427" lon="-75.148308">
        <ele>2388.568</ele>
        <time>2021-11-14T13:51:44Z</time>
      </trkpt>
      <trkpt lat="4.597376" lon="-75.148438">
        <ele>2388.6626</ele>
        <time>2021-11-14T13:51:45Z</time>
      </trkpt>
      <trkpt lat="4.59737" lon="-75.148529">
        <ele>2388.7559</ele>
        <time>2021-11-14T13:51:46Z</time>
      </trkpt>
      <trkpt lat="4.597381" lon="-75.148621">
        <ele>2388.7874</ele>
        <time>2021-11-14T13:51:47Z</time>
      </trkpt>
      <trkpt lat="4.597398" lon="-75.148697">
        <ele>2388.4377</ele>
        <time>2021-11-14T13:51:48Z</time>
      </trkpt>
      <trkpt lat="4.597416" lon="-75.14875">
        <ele>2388.1252</ele>
        <time>2021-11-14T13:51:49Z</time>
      </trkpt>
      <trkpt lat="4.597442" lon="-75.148834">
        <ele>2387.9683</ele>
        <time>2021-11-14T13:51:50Z</time>
      </trkpt>
      <trkpt lat="4.597458" lon="-75.148949">
        <ele>2387.354</ele>
        <time>2021-11-14T13:51:52Z</time>
      </trkpt>
      <trkpt lat="4.597467" lon="-75.149055">
        <ele>2387.4526</ele>
        <time>2021-11-14T13:51:53Z</time>
      </trkpt>
      <trkpt lat="4.597477" lon="-75.149117">
        <ele>2386.6135</ele>
        <time>2021-11-14T13:51:54Z</time>
      </trkpt>
      <trkpt lat="4.597513" lon="-75.149208">
        <ele>2386.2522</ele>
        <time>2021-11-14T13:51:55Z</time>
      </trkpt>
      <trkpt lat="4.597544" lon="-75.149277">
        <ele>2385.7593</ele>
        <time>2021-11-14T13:51:56Z</time>
      </trkpt>
      <trkpt lat="4.597599" lon="-75.149345">
        <ele>2385.8066</ele>
        <time>2021-11-14T13:51:57Z</time>
      </trkpt>
      <trkpt lat="4.597669" lon="-75.149452">
        <ele>2386.229</ele>
        <time>2021-11-14T13:51:58Z</time>
      </trkpt>
      <trkpt lat="4.59771" lon="-75.149529">
        <ele>2385.6345</ele>
        <time>2021-11-14T13:51:59Z</time>
      </trkpt>
      <trkpt lat="4.597852" lon="-75.149673">
        <ele>2383.8335</ele>
        <time>2021-11-14T13:52:00Z</time>
      </trkpt>
      <trkpt lat="4.597884" lon="-75.149734">
        <ele>2383.7007</ele>
        <time>2021-11-14T13:52:02Z</time>
      </trkpt>
      <trkpt lat="4.597904" lon="-75.149841">
        <ele>2382.3394</ele>
        <time>2021-11-14T13:52:03Z</time>
      </trkpt>
      <trkpt lat="4.597942" lon="-75.149963">
        <ele>2382.3555</ele>
        <time>2021-11-14T13:52:04Z</time>
      </trkpt>
      <trkpt lat="4.597908" lon="-75.150024">
        <ele>2382.9504</ele>
        <time>2021-11-14T13:52:05Z</time>
      </trkpt>
      <trkpt lat="4.597911" lon="-75.150085">
        <ele>2382.999</ele>
        <time>2021-11-14T13:52:06Z</time>
      </trkpt>
      <trkpt lat="4.597984" lon="-75.150154">
        <ele>2382.79</ele>
        <time>2021-11-14T13:52:07Z</time>
      </trkpt>
      <trkpt lat="4.598003" lon="-75.150185">
        <ele>2383.1904</ele>
        <time>2021-11-14T13:52:08Z</time>
      </trkpt>
      <trkpt lat="4.598037" lon="-75.150238">
        <ele>2379.562</ele>
        <time>2021-11-14T13:52:09Z</time>
      </trkpt>
      <trkpt lat="4.598201" lon="-75.150192">
        <ele>2379.3716</ele>
        <time>2021-11-14T13:52:10Z</time>
      </trkpt>
      <trkpt lat="4.598272" lon="-75.150208">
        <ele>2379.322</ele>
        <time>2021-11-14T13:52:11Z</time>
      </trkpt>
      <trkpt lat="4.598272" lon="-75.150208">
        <ele>2379.219</ele>
        <time>2021-11-14T13:52:12Z</time>
      </trkpt>
      <trkpt lat="4.598341" lon="-75.1502">
        <ele>2379.2688</ele>
        <time>2021-11-14T13:52:13Z</time>
      </trkpt>
      <trkpt lat="4.598428" lon="-75.150208">
        <ele>2379.424</ele>
        <time>2021-11-14T13:52:14Z</time>
      </trkpt>
      <trkpt lat="4.598404" lon="-75.150208">
        <ele>2379.7007</ele>
        <time>2021-11-14T13:52:15Z</time>
      </trkpt>
      <trkpt lat="4.598494" lon="-75.150223">
        <ele>2379.6577</ele>
        <time>2021-11-14T13:52:16Z</time>
      </trkpt>
      <trkpt lat="4.59859" lon="-75.15023">
        <ele>2376.593</ele>
        <time>2021-11-14T13:52:17Z</time>
      </trkpt>
      <trkpt lat="4.598637" lon="-75.150223">
        <ele>2376.1716</ele>
        <time>2021-11-14T13:52:18Z</time>
      </trkpt>
      <trkpt lat="4.598643" lon="-75.1502">
        <ele>2376.772</ele>
        <time>2021-11-14T13:52:19Z</time>
      </trkpt>
      <trkpt lat="4.598764" lon="-75.150162">
        <ele>2376.835</ele>
        <time>2021-11-14T13:52:20Z</time>
      </trkpt>
      <trkpt lat="4.598818" lon="-75.150139">
        <ele>2375.0486</ele>
        <time>2021-11-14T13:52:22Z</time>
      </trkpt>
      <trkpt lat="4.598809" lon="-75.150139">
        <ele>2374.7734</ele>
        <time>2021-11-14T13:52:23Z</time>
      </trkpt>
      <trkpt lat="4.59881" lon="-75.150146">
        <ele>2376.2122</ele>
        <time>2021-11-14T13:52:24Z</time>
      </trkpt>
      <trkpt lat="4.59889" lon="-75.150108">
        <ele>2377.9348</ele>
        <time>2021-11-14T13:52:25Z</time>
      </trkpt>
      <trkpt lat="4.598882" lon="-75.150124">
        <ele>2378.2983</ele>
        <time>2021-11-14T13:52:26Z</time>
      </trkpt>
      <trkpt lat="4.598944" lon="-75.150108">
        <ele>2378.0593</ele>
        <time>2021-11-14T13:52:27Z</time>
      </trkpt>
      <trkpt lat="4.598988" lon="-75.150093">
        <ele>2378.0923</ele>
        <time>2021-11-14T13:52:28Z</time>
      </trkpt>
      <trkpt lat="4.599108" lon="-75.150032">
        <ele>2377.875</ele>
        <time>2021-11-14T13:52:29Z</time>
      </trkpt>
      <trkpt lat="4.599053" lon="-75.150055">
        <ele>2378.3508</ele>
        <time>2021-11-14T13:52:30Z</time>
      </trkpt>
      <trkpt lat="4.59915" lon="-75.150024">
        <ele>2378.4941</ele>
        <time>2021-11-14T13:52:31Z</time>
      </trkpt>
      <trkpt lat="4.599219" lon="-75.150009">
        <ele>2378.1748</ele>
        <time>2021-11-14T13:52:32Z</time>
      </trkpt>
      <trkpt lat="4.599256" lon="-75.150024">
        <ele>2377.9805</ele>
        <time>2021-11-14T13:52:33Z</time>
      </trkpt>
      <trkpt lat="4.599316" lon="-75.15004">
        <ele>2378.0942</ele>
        <time>2021-11-14T13:52:34Z</time>
      </trkpt>
      <trkpt lat="4.599416" lon="-75.150047">
        <ele>2379.5942</ele>
        <time>2021-11-14T13:52:35Z</time>
      </trkpt>
      <trkpt lat="4.599452" lon="-75.150055">
        <ele>2379.2288</ele>
        <time>2021-11-14T13:52:36Z</time>
      </trkpt>
      <trkpt lat="4.599429" lon="-75.150108">
        <ele>2378.7703</ele>
        <time>2021-11-14T13:52:38Z</time>
      </trkpt>
      <trkpt lat="4.59945" lon="-75.150116">
        <ele>2379.1091</ele>
        <time>2021-11-14T13:52:39Z</time>
      </trkpt>
      <trkpt lat="4.599486" lon="-75.150177">
        <ele>2380.2842</ele>
        <time>2021-11-14T13:52:40Z</time>
      </trkpt>
      <trkpt lat="4.599474" lon="-75.150253">
        <ele>2380.076</ele>
        <time>2021-11-14T13:52:41Z</time>
      </trkpt>
      <trkpt lat="4.599451" lon="-75.150269">
        <ele>2381.0652</ele>
        <time>2021-11-14T13:52:42Z</time>
      </trkpt>
      <trkpt lat="4.59941" lon="-75.150261">
        <ele>2379.4553</ele>
        <time>2021-11-14T13:52:43Z</time>
      </trkpt>
      <trkpt lat="4.59938" lon="-75.150276">
        <ele>2379.2844</ele>
        <time>2021-11-14T13:52:44Z</time>
      </trkpt>
      <trkpt lat="4.599346" lon="-75.150307">
        <ele>2379.0422</ele>
        <time>2021-11-14T13:52:45Z</time>
      </trkpt>
      <trkpt lat="4.599278" lon="-75.15033">
        <ele>2379.266</ele>
        <time>2021-11-14T13:52:46Z</time>
      </trkpt>
      <trkpt lat="4.599224" lon="-75.150337">
        <ele>2379.8296</ele>
        <time>2021-11-14T13:52:47Z</time>
      </trkpt>
      <trkpt lat="4.599173" lon="-75.150352">
        <ele>2380.4434</ele>
        <time>2021-11-14T13:52:48Z</time>
      </trkpt>
      <trkpt lat="4.599137" lon="-75.150375">
        <ele>2381.1672</ele>
        <time>2021-11-14T13:52:49Z</time>
      </trkpt>
      <trkpt lat="4.5991" lon="-75.150398">
        <ele>2381.2246</ele>
        <time>2021-11-14T13:52:50Z</time>
      </trkpt>
      <trkpt lat="4.599082" lon="-75.150421">
        <ele>2380.7332</ele>
        <time>2021-11-14T13:52:51Z</time>
      </trkpt>
      <trkpt lat="4.599021" lon="-75.150444">
        <ele>2380.6245</ele>
        <time>2021-11-14T13:52:52Z</time>
      </trkpt>
      <trkpt lat="4.598964" lon="-75.150459">
        <ele>2381.0771</ele>
        <time>2021-11-14T13:52:53Z</time>
      </trkpt>
      <trkpt lat="4.598901" lon="-75.150475">
        <ele>2379.9592</ele>
        <time>2021-11-14T13:52:54Z</time>
      </trkpt>
      <trkpt lat="4.598881" lon="-75.150497">
        <ele>2380.005</ele>
        <time>2021-11-14T13:52:55Z</time>
      </trkpt>
      <trkpt lat="4.598847" lon="-75.150528">
        <ele>2379.8538</ele>
        <time>2021-11-14T13:52:56Z</time>
      </trkpt>
      <trkpt lat="4.598797" lon="-75.150566">
        <ele>2379.805</ele>
        <time>2021-11-14T13:52:57Z</time>
      </trkpt>
      <trkpt lat="4.598748" lon="-75.150597">
        <ele>2380.657</ele>
        <time>2021-11-14T13:52:58Z</time>
      </trkpt>
      <trkpt lat="4.59869" lon="-75.15062">
        <ele>2380.6216</ele>
        <time>2021-11-14T13:52:59Z</time>
      </trkpt>
      <trkpt lat="4.598629" lon="-75.150696">
        <ele>2380.2048</ele>
        <time>2021-11-14T13:53:00Z</time>
      </trkpt>
      <trkpt lat="4.598562" lon="-75.150711">
        <ele>2379.7666</ele>
        <time>2021-11-14T13:53:01Z</time>
      </trkpt>
      <trkpt lat="4.598522" lon="-75.150726">
        <ele>2381.1738</ele>
        <time>2021-11-14T13:53:02Z</time>
      </trkpt>
      <trkpt lat="4.598455" lon="-75.150726">
        <ele>2381.1409</ele>
        <time>2021-11-14T13:53:03Z</time>
      </trkpt>
      <trkpt lat="4.598412" lon="-75.150742">
        <ele>2381.5781</ele>
        <time>2021-11-14T13:53:04Z</time>
      </trkpt>
      <trkpt lat="4.59836" lon="-75.150757">
        <ele>2382.0044</ele>
        <time>2021-11-14T13:53:05Z</time>
      </trkpt>
      <trkpt lat="4.598312" lon="-75.15078">
        <ele>2381.0684</ele>
        <time>2021-11-14T13:53:06Z</time>
      </trkpt>
      <trkpt lat="4.598299" lon="-75.15081">
        <ele>2381.7246</ele>
        <time>2021-11-14T13:53:08Z</time>
      </trkpt>
      <trkpt lat="4.597377" lon="-75.15081">
        <ele>2393.259</ele>
        <time>2021-11-14T13:53:23Z</time>
      </trkpt>
      <trkpt lat="4.597306" lon="-75.15081">
        <ele>2395.294</ele>
        <time>2021-11-14T13:53:24Z</time>
      </trkpt>
      <trkpt lat="4.597246" lon="-75.150826">
        <ele>2395.7532</ele>
        <time>2021-11-14T13:53:25Z</time>
      </trkpt>
      <trkpt lat="4.597205" lon="-75.150864">
        <ele>2395.472</ele>
        <time>2021-11-14T13:53:26Z</time>
      </trkpt>
      <trkpt lat="4.597146" lon="-75.150917">
        <ele>2396.6184</ele>
        <time>2021-11-14T13:53:27Z</time>
      </trkpt>
      <trkpt lat="4.597102" lon="-75.15097">
        <ele>2396.3242</ele>
        <time>2021-11-14T13:53:28Z</time>
      </trkpt>
      <trkpt lat="4.59705" lon="-75.151016">
        <ele>2397.3198</ele>
        <time>2021-11-14T13:53:29Z</time>
      </trkpt>
      <trkpt lat="4.597043" lon="-75.151039">
        <ele>2397.157</ele>
        <time>2021-11-14T13:53:30Z</time>
      </trkpt>
      <trkpt lat="4.597002" lon="-75.151077">
        <ele>2397.1892</ele>
        <time>2021-11-14T13:53:31Z</time>
      </trkpt>
      <trkpt lat="4.596947" lon="-75.151115">
        <ele>2398.8992</ele>
        <time>2021-11-14T13:53:32Z</time>
      </trkpt>
      <trkpt lat="4.596833" lon="-75.151161">
        <ele>2399.274</ele>
        <time>2021-11-14T13:53:33Z</time>
      </trkpt>
      <trkpt lat="4.596817" lon="-75.151176">
        <ele>2400.282</ele>
        <time>2021-11-14T13:53:34Z</time>
      </trkpt>
      <trkpt lat="4.596746" lon="-75.151184">
        <ele>2399.8757</ele>
        <time>2021-11-14T13:53:35Z</time>
      </trkpt>
      <trkpt lat="4.596682" lon="-75.151222">
        <ele>2400.4507</ele>
        <time>2021-11-14T13:53:36Z</time>
      </trkpt>
      <trkpt lat="4.596626" lon="-75.151222">
        <ele>2400.9495</ele>
        <time>2021-11-14T13:53:37Z</time>
      </trkpt>
      <trkpt lat="4.596626" lon="-75.151222">
        <ele>2401.2393</ele>
        <time>2021-11-14T13:53:38Z</time>
      </trkpt>
      <trkpt lat="4.596571" lon="-75.151237">
        <ele>2401.639</ele>
        <time>2021-11-14T13:53:39Z</time>
      </trkpt>
      <trkpt lat="4.596497" lon="-75.151276">
        <ele>2402.156</ele>
        <time>2021-11-14T13:53:40Z</time>
      </trkpt>
      <trkpt lat="4.596417" lon="-75.151329">
        <ele>2403.4329</ele>
        <time>2021-11-14T13:53:41Z</time>
      </trkpt>
      <trkpt lat="4.596373" lon="-75.151344">
        <ele>2400.5852</ele>
        <time>2021-11-14T13:53:42Z</time>
      </trkpt>
      <trkpt lat="4.596365" lon="-75.15139">
        <ele>2400.2056</ele>
        <time>2021-11-14T13:53:43Z</time>
      </trkpt>
      <trkpt lat="4.596343" lon="-75.151466">
        <ele>2399.2783</ele>
        <time>2021-11-14T13:53:44Z</time>
      </trkpt>
      <trkpt lat="4.596368" lon="-75.151535">
        <ele>2398.6396</ele>
        <time>2021-11-14T13:53:45Z</time>
      </trkpt>
      <trkpt lat="4.596331" lon="-75.151726">
        <ele>2397.7778</ele>
        <time>2021-11-14T13:53:46Z</time>
      </trkpt>
      <trkpt lat="4.596294" lon="-75.151741">
        <ele>2397.6768</ele>
        <time>2021-11-14T13:53:47Z</time>
      </trkpt>
      <trkpt lat="4.596206" lon="-75.151855">
        <ele>2398.0464</ele>
        <time>2021-11-14T13:53:49Z</time>
      </trkpt>
      <trkpt lat="4.596197" lon="-75.151871">
        <ele>2402.949</ele>
        <time>2021-11-14T13:53:50Z</time>
      </trkpt>
      <trkpt lat="4.59614" lon="-75.151955">
        <ele>2404.5867</ele>
        <time>2021-11-14T13:53:51Z</time>
      </trkpt>
      <trkpt lat="4.596102" lon="-75.152023">
        <ele>2406.8445</ele>
        <time>2021-11-14T13:53:52Z</time>
      </trkpt>
      <trkpt lat="4.596105" lon="-75.152145">
        <ele>2408.4194</ele>
        <time>2021-11-14T13:53:53Z</time>
      </trkpt>
      <trkpt lat="4.596097" lon="-75.152206">
        <ele>2408.7761</ele>
        <time>2021-11-14T13:53:54Z</time>
      </trkpt>
      <trkpt lat="4.596071" lon="-75.152199">
        <ele>2410.2314</ele>
        <time>2021-11-14T13:53:55Z</time>
      </trkpt>
      <trkpt lat="4.596004" lon="-75.152306">
        <ele>2410.3057</ele>
        <time>2021-11-14T13:53:56Z</time>
      </trkpt>
      <trkpt lat="4.595927" lon="-75.15239">
        <ele>2411.2964</ele>
        <time>2021-11-14T13:53:57Z</time>
      </trkpt>
      <trkpt lat="4.595862" lon="-75.15242">
        <ele>2411.9365</ele>
        <time>2021-11-14T13:53:58Z</time>
      </trkpt>
      <trkpt lat="4.595736" lon="-75.152489">
        <ele>2411.378</ele>
        <time>2021-11-14T13:53:59Z</time>
      </trkpt>
      <trkpt lat="4.595702" lon="-75.152512">
        <ele>2412.2063</ele>
        <time>2021-11-14T13:54:00Z</time>
      </trkpt>
      <trkpt lat="4.595583" lon="-75.152687">
        <ele>2414.2964</ele>
        <time>2021-11-14T13:54:01Z</time>
      </trkpt>
      <trkpt lat="4.595513" lon="-75.152779">
        <ele>2415.102</ele>
        <time>2021-11-14T13:54:02Z</time>
      </trkpt>
      <trkpt lat="4.595468" lon="-75.152817">
        <ele>2414.7773</ele>
        <time>2021-11-14T13:54:03Z</time>
      </trkpt>
      <trkpt lat="4.595442" lon="-75.15287">
        <ele>2414.681</ele>
        <time>2021-11-14T13:54:04Z</time>
      </trkpt>
      <trkpt lat="4.5954" lon="-75.152954">
        <ele>2415.2363</ele>
        <time>2021-11-14T13:54:05Z</time>
      </trkpt>
      <trkpt lat="4.595383" lon="-75.153038">
        <ele>2417.2266</ele>
        <time>2021-11-14T13:54:06Z</time>
      </trkpt>
      <trkpt lat="4.595304" lon="-75.153183">
        <ele>2419.0493</ele>
        <time>2021-11-14T13:54:07Z</time>
      </trkpt>
      <trkpt lat="4.595233" lon="-75.153275">
        <ele>2419.0664</ele>
        <time>2021-11-14T13:54:08Z</time>
      </trkpt>
      <trkpt lat="4.59519" lon="-75.153351">
        <ele>2420.078</ele>
        <time>2021-11-14T13:54:09Z</time>
      </trkpt>
      <trkpt lat="4.595158" lon="-75.153412">
        <ele>2420.412</ele>
        <time>2021-11-14T13:54:10Z</time>
      </trkpt>
      <trkpt lat="4.595144" lon="-75.153488">
        <ele>2421.505</ele>
        <time>2021-11-14T13:54:11Z</time>
      </trkpt>
      <trkpt lat="4.595122" lon="-75.153595">
        <ele>2421.3062</ele>
        <time>2021-11-14T13:54:12Z</time>
      </trkpt>
      <trkpt lat="4.595099" lon="-75.153633">
        <ele>2423.0042</ele>
        <time>2021-11-14T13:54:13Z</time>
      </trkpt>
      <trkpt lat="4.595055" lon="-75.153664">
        <ele>2423.1787</ele>
        <time>2021-11-14T13:54:14Z</time>
      </trkpt>
      <trkpt lat="4.59498" lon="-75.15374">
        <ele>2423.3376</ele>
        <time>2021-11-14T13:54:15Z</time>
      </trkpt>
      <trkpt lat="4.594891" lon="-75.153801">
        <ele>2423.3982</ele>
        <time>2021-11-14T13:54:16Z</time>
      </trkpt>
      <trkpt lat="4.594851" lon="-75.153847">
        <ele>2426.1853</ele>
        <time>2021-11-14T13:54:17Z</time>
      </trkpt>
      <trkpt lat="4.594814" lon="-75.1539">
        <ele>2426.7432</ele>
        <time>2021-11-14T13:54:18Z</time>
      </trkpt>
      <trkpt lat="4.594787" lon="-75.153954">
        <ele>2429.9155</ele>
        <time>2021-11-14T13:54:19Z</time>
      </trkpt>
      <trkpt lat="4.594752" lon="-75.154022">
        <ele>2431.6729</ele>
        <time>2021-11-14T13:54:20Z</time>
      </trkpt>
      <trkpt lat="4.594751" lon="-75.154121">
        <ele>2432.8384</ele>
        <time>2021-11-14T13:54:21Z</time>
      </trkpt>
      <trkpt lat="4.594755" lon="-75.154198">
        <ele>2434.8613</ele>
        <time>2021-11-14T13:54:22Z</time>
      </trkpt>
      <trkpt lat="4.594701" lon="-75.154228">
        <ele>2435.1667</ele>
        <time>2021-11-14T13:54:24Z</time>
      </trkpt>
      <trkpt lat="4.594707" lon="-75.154312">
        <ele>2435.7385</ele>
        <time>2021-11-14T13:54:25Z</time>
      </trkpt>
      <trkpt lat="4.594645" lon="-75.154373">
        <ele>2435.4182</ele>
        <time>2021-11-14T13:54:26Z</time>
      </trkpt>
      <trkpt lat="4.594623" lon="-75.154419">
        <ele>2435.817</ele>
        <time>2021-11-14T13:54:27Z</time>
      </trkpt>
      <trkpt lat="4.594539" lon="-75.154564">
        <ele>2435.444</ele>
        <time>2021-11-14T13:54:28Z</time>
      </trkpt>
      <trkpt lat="4.594527" lon="-75.154694">
        <ele>2438.509</ele>
        <time>2021-11-14T13:54:29Z</time>
      </trkpt>
      <trkpt lat="4.594451" lon="-75.154739">
        <ele>2438.7554</ele>
        <time>2021-11-14T13:54:30Z</time>
      </trkpt>
      <trkpt lat="4.594435" lon="-75.15477">
        <ele>2440.9475</ele>
        <time>2021-11-14T13:54:31Z</time>
      </trkpt>
      <trkpt lat="4.594435" lon="-75.15477">
        <ele>2440.967</ele>
        <time>2021-11-14T13:54:32Z</time>
      </trkpt>
      <trkpt lat="4.594389" lon="-75.154839">
        <ele>2441.7646</ele>
        <time>2021-11-14T13:54:33Z</time>
      </trkpt>
      <trkpt lat="4.594419" lon="-75.154892">
        <ele>2443.7522</ele>
        <time>2021-11-14T13:54:34Z</time>
      </trkpt>
      <trkpt lat="4.594437" lon="-75.154999">
        <ele>2445.065</ele>
        <time>2021-11-14T13:54:35Z</time>
      </trkpt>
      <trkpt lat="4.594453" lon="-75.15506">
        <ele>2446.6396</ele>
        <time>2021-11-14T13:54:36Z</time>
      </trkpt>
      <trkpt lat="4.594488" lon="-75.155144">
        <ele>2447.6267</ele>
        <time>2021-11-14T13:54:37Z</time>
      </trkpt>
      <trkpt lat="4.594505" lon="-75.15519">
        <ele>2448.3562</ele>
        <time>2021-11-14T13:54:38Z</time>
      </trkpt>
      <trkpt lat="4.594505" lon="-75.155251">
        <ele>2448.513</ele>
        <time>2021-11-14T13:54:39Z</time>
      </trkpt>
      <trkpt lat="4.594465" lon="-75.155327">
        <ele>2449.5232</ele>
        <time>2021-11-14T13:54:40Z</time>
      </trkpt>
      <trkpt lat="4.594465" lon="-75.155441">
        <ele>2449.9805</ele>
        <time>2021-11-14T13:54:41Z</time>
      </trkpt>
      <trkpt lat="4.594466" lon="-75.155502">
        <ele>2450.799</ele>
        <time>2021-11-14T13:54:42Z</time>
      </trkpt>
      <trkpt lat="4.594464" lon="-75.155647">
        <ele>2451.9</ele>
        <time>2021-11-14T13:54:43Z</time>
      </trkpt>
      <trkpt lat="4.594462" lon="-75.155731">
        <ele>2453.3933</ele>
        <time>2021-11-14T13:54:44Z</time>
      </trkpt>
      <trkpt lat="4.594464" lon="-75.1558">
        <ele>2453.8503</ele>
        <time>2021-11-14T13:54:45Z</time>
      </trkpt>
      <trkpt lat="4.594467" lon="-75.155907">
        <ele>2455.5298</ele>
        <time>2021-11-14T13:54:46Z</time>
      </trkpt>
      <trkpt lat="4.59448" lon="-75.156075">
        <ele>2456.6272</ele>
        <time>2021-11-14T13:54:48Z</time>
      </trkpt>
      <trkpt lat="4.594525" lon="-75.156158">
        <ele>2457.6143</ele>
        <time>2021-11-14T13:54:49Z</time>
      </trkpt>
      <trkpt lat="4.594577" lon="-75.156273">
        <ele>2458.6821</ele>
        <time>2021-11-14T13:54:50Z</time>
      </trkpt>
      <trkpt lat="4.594595" lon="-75.156319">
        <ele>2460.2722</ele>
        <time>2021-11-14T13:54:51Z</time>
      </trkpt>
      <trkpt lat="4.594616" lon="-75.15641">
        <ele>2461.5217</ele>
        <time>2021-11-14T13:54:52Z</time>
      </trkpt>
      <trkpt lat="4.594614" lon="-75.156509">
        <ele>2461.8455</ele>
        <time>2021-11-14T13:54:53Z</time>
      </trkpt>
      <trkpt lat="4.594631" lon="-75.156601">
        <ele>2461.9788</ele>
        <time>2021-11-14T13:54:54Z</time>
      </trkpt>
      <trkpt lat="4.594659" lon="-75.156693">
        <ele>2462.3975</ele>
        <time>2021-11-14T13:54:55Z</time>
      </trkpt>
      <trkpt lat="4.594678" lon="-75.156807">
        <ele>2464.246</ele>
        <time>2021-11-14T13:54:56Z</time>
      </trkpt>
      <trkpt lat="4.594682" lon="-75.156876">
        <ele>2465.3044</ele>
        <time>2021-11-14T13:54:57Z</time>
      </trkpt>
      <trkpt lat="4.594749" lon="-75.157104">
        <ele>2467.74</ele>
        <time>2021-11-14T13:54:58Z</time>
      </trkpt>
      <trkpt lat="4.594776" lon="-75.157196">
        <ele>2467.655</ele>
        <time>2021-11-14T13:55:00Z</time>
      </trkpt>
      <trkpt lat="4.594784" lon="-75.157257">
        <ele>2467.954</ele>
        <time>2021-11-14T13:55:01Z</time>
      </trkpt>
      <trkpt lat="4.594805" lon="-75.157326">
        <ele>2468.0566</ele>
        <time>2021-11-14T13:55:02Z</time>
      </trkpt>
      <trkpt lat="4.594838" lon="-75.157394">
        <ele>2469.0505</ele>
        <time>2021-11-14T13:55:03Z</time>
      </trkpt>
      <trkpt lat="4.594884" lon="-75.157463">
        <ele>2470.2537</ele>
        <time>2021-11-14T13:55:04Z</time>
      </trkpt>
      <trkpt lat="4.594908" lon="-75.157532">
        <ele>2470.8872</ele>
        <time>2021-11-14T13:55:05Z</time>
      </trkpt>
      <trkpt lat="4.594955" lon="-75.157578">
        <ele>2471.18</ele>
        <time>2021-11-14T13:55:06Z</time>
      </trkpt>
      <trkpt lat="4.594957" lon="-75.1576">
        <ele>2471.9023</ele>
        <time>2021-11-14T13:55:07Z</time>
      </trkpt>
      <trkpt lat="4.59493" lon="-75.157654">
        <ele>2472.537</ele>
        <time>2021-11-14T13:55:08Z</time>
      </trkpt>
      <trkpt lat="4.594934" lon="-75.157692">
        <ele>2473.7258</ele>
        <time>2021-11-14T13:55:09Z</time>
      </trkpt>
      <trkpt lat="4.594901" lon="-75.15773">
        <ele>2473.7244</ele>
        <time>2021-11-14T13:55:10Z</time>
      </trkpt>
      <trkpt lat="4.594915" lon="-75.1577">
        <ele>2475.753</ele>
        <time>2021-11-14T13:55:11Z</time>
      </trkpt>
      <trkpt lat="4.594832" lon="-75.157722">
        <ele>2474.7856</ele>
        <time>2021-11-14T13:55:12Z</time>
      </trkpt>
      <trkpt lat="4.594857" lon="-75.15773">
        <ele>2475.0466</ele>
        <time>2021-11-14T13:55:13Z</time>
      </trkpt>
      <trkpt lat="4.594826" lon="-75.157738">
        <ele>2474.4685</ele>
        <time>2021-11-14T13:55:14Z</time>
      </trkpt>
      <trkpt lat="4.594762" lon="-75.15773">
        <ele>2474.548</ele>
        <time>2021-11-14T13:55:15Z</time>
      </trkpt>
      <trkpt lat="4.59473" lon="-75.157745">
        <ele>2476.048</ele>
        <time>2021-11-14T13:55:16Z</time>
      </trkpt>
      <trkpt lat="4.59458" lon="-75.157791">
        <ele>2476.4807</ele>
        <time>2021-11-14T13:55:17Z</time>
      </trkpt>
      <trkpt lat="4.594585" lon="-75.157822">
        <ele>2476.8142</ele>
        <time>2021-11-14T13:55:18Z</time>
      </trkpt>
      <trkpt lat="4.594504" lon="-75.157898">
        <ele>2477.03</ele>
        <time>2021-11-14T13:55:19Z</time>
      </trkpt>
      <trkpt lat="4.594475" lon="-75.157944">
        <ele>2477.3953</ele>
        <time>2021-11-14T13:55:20Z</time>
      </trkpt>
      <trkpt lat="4.594475" lon="-75.157944">
        <ele>2479.8508</ele>
        <time>2021-11-14T13:55:21Z</time>
      </trkpt>
      <trkpt lat="4.594458" lon="-75.157936">
        <ele>2479.8972</ele>
        <time>2021-11-14T13:55:22Z</time>
      </trkpt>
      <trkpt lat="4.594395" lon="-75.157951">
        <ele>2480.1277</ele>
        <time>2021-11-14T13:55:23Z</time>
      </trkpt>
      <trkpt lat="4.594308" lon="-75.157936">
        <ele>2481.0073</ele>
        <time>2021-11-14T13:55:24Z</time>
      </trkpt>
      <trkpt lat="4.594216" lon="-75.157928">
        <ele>2484.2437</ele>
        <time>2021-11-14T13:55:25Z</time>
      </trkpt>
      <trkpt lat="4.594093" lon="-75.157913">
        <ele>2484.3406</ele>
        <time>2021-11-14T13:55:26Z</time>
      </trkpt>
      <trkpt lat="4.594069" lon="-75.157913">
        <ele>2485.264</ele>
        <time>2021-11-14T13:55:27Z</time>
      </trkpt>
      <trkpt lat="4.593987" lon="-75.157936">
        <ele>2486.335</ele>
        <time>2021-11-14T13:55:28Z</time>
      </trkpt>
      <trkpt lat="4.593889" lon="-75.158028">
        <ele>2487.2722</ele>
        <time>2021-11-14T13:55:29Z</time>
      </trkpt>
      <trkpt lat="4.593836" lon="-75.158066">
        <ele>2488.0918</ele>
        <time>2021-11-14T13:55:30Z</time>
      </trkpt>
      <trkpt lat="4.593766" lon="-75.158081">
        <ele>2488.3247</ele>
        <time>2021-11-14T13:55:31Z</time>
      </trkpt>
      <trkpt lat="4.593642" lon="-75.158096">
        <ele>2489.4495</ele>
        <time>2021-11-14T13:55:32Z</time>
      </trkpt>
      <trkpt lat="4.593553" lon="-75.158096">
        <ele>2491.6472</ele>
        <time>2021-11-14T13:55:33Z</time>
      </trkpt>
      <trkpt lat="4.593469" lon="-75.158066">
        <ele>2492.0986</ele>
        <time>2021-11-14T13:55:34Z</time>
      </trkpt>
      <trkpt lat="4.59349" lon="-75.158081">
        <ele>2492.5283</ele>
        <time>2021-11-14T13:55:35Z</time>
      </trkpt>
      <trkpt lat="4.593405" lon="-75.158127">
        <ele>2492.9238</ele>
        <time>2021-11-14T13:55:36Z</time>
      </trkpt>
      <trkpt lat="4.593254" lon="-75.158195">
        <ele>2494.1086</ele>
        <time>2021-11-14T13:55:37Z</time>
      </trkpt>
      <trkpt lat="4.593225" lon="-75.158195">
        <ele>2493.8865</ele>
        <time>2021-11-14T13:55:38Z</time>
      </trkpt>
      <trkpt lat="4.593141" lon="-75.158234">
        <ele>2495.8987</ele>
        <time>2021-11-14T13:55:39Z</time>
      </trkpt>
      <trkpt lat="4.593109" lon="-75.15818">
        <ele>2496.1829</ele>
        <time>2021-11-14T13:55:40Z</time>
      </trkpt>
      <trkpt lat="4.593075" lon="-75.158096">
        <ele>2496.4614</ele>
        <time>2021-11-14T13:55:41Z</time>
      </trkpt>
      <trkpt lat="4.593045" lon="-75.158051">
        <ele>2497.897</ele>
        <time>2021-11-14T13:55:42Z</time>
      </trkpt>
      <trkpt lat="4.59308" lon="-75.157951">
        <ele>2498.3684</ele>
        <time>2021-11-14T13:55:43Z</time>
      </trkpt>
      <trkpt lat="4.59316" lon="-75.157867">
        <ele>2498.5068</ele>
        <time>2021-11-14T13:55:44Z</time>
      </trkpt>
      <trkpt lat="4.593192" lon="-75.157806">
        <ele>2499.5342</ele>
        <time>2021-11-14T13:55:45Z</time>
      </trkpt>
      <trkpt lat="4.593172" lon="-75.157722">
        <ele>2499.74</ele>
        <time>2021-11-14T13:55:46Z</time>
      </trkpt>
      <trkpt lat="4.593119" lon="-75.157585">
        <ele>2500.7783</ele>
        <time>2021-11-14T13:55:47Z</time>
      </trkpt>
      <trkpt lat="4.593106" lon="-75.157494">
        <ele>2500.908</ele>
        <time>2021-11-14T13:55:48Z</time>
      </trkpt>
      <trkpt lat="4.593108" lon="-75.15744">
        <ele>2502.0142</ele>
        <time>2021-11-14T13:55:49Z</time>
      </trkpt>
      <trkpt lat="4.593119" lon="-75.157387">
        <ele>2503.2544</ele>
        <time>2021-11-14T13:55:50Z</time>
      </trkpt>
      <trkpt lat="4.593124" lon="-75.157295">
        <ele>2504.1228</ele>
        <time>2021-11-14T13:55:51Z</time>
      </trkpt>
      <trkpt lat="4.59314" lon="-75.157188">
        <ele>2504.416</ele>
        <time>2021-11-14T13:55:52Z</time>
      </trkpt>
      <trkpt lat="4.59316" lon="-75.157188">
        <ele>2505.5032</ele>
        <time>2021-11-14T13:55:54Z</time>
      </trkpt>
      <trkpt lat="4.593207" lon="-75.157127">
        <ele>2506.1892</ele>
        <time>2021-11-14T13:55:55Z</time>
      </trkpt>
      <trkpt lat="4.593241" lon="-75.157005">
        <ele>2507.4153</ele>
        <time>2021-11-14T13:55:56Z</time>
      </trkpt>
      <trkpt lat="4.593263" lon="-75.156914">
        <ele>2507.868</ele>
        <time>2021-11-14T13:55:57Z</time>
      </trkpt>
      <trkpt lat="4.593247" lon="-75.156837">
        <ele>2508.3396</ele>
        <time>2021-11-14T13:55:58Z</time>
      </trkpt>
      <trkpt lat="4.59321" lon="-75.156746">
        <ele>2509.5881</ele>
        <time>2021-11-14T13:55:59Z</time>
      </trkpt>
      <trkpt lat="4.593199" lon="-75.156685">
        <ele>2510.519</ele>
        <time>2021-11-14T13:56:00Z</time>
      </trkpt>
      <trkpt lat="4.593169" lon="-75.156593">
        <ele>2510.6016</ele>
        <time>2021-11-14T13:56:01Z</time>
      </trkpt>
      <trkpt lat="4.593133" lon="-75.156563">
        <ele>2511.611</ele>
        <time>2021-11-14T13:56:02Z</time>
      </trkpt>
      <trkpt lat="4.59305" lon="-75.156548">
        <ele>2512.825</ele>
        <time>2021-11-14T13:56:03Z</time>
      </trkpt>
      <trkpt lat="4.592984" lon="-75.15657">
        <ele>2512.5808</ele>
        <time>2021-11-14T13:56:04Z</time>
      </trkpt>
      <trkpt lat="4.592931" lon="-75.156624">
        <ele>2512.5505</ele>
        <time>2021-11-14T13:56:05Z</time>
      </trkpt>
      <trkpt lat="4.592882" lon="-75.156662">
        <ele>2511.8247</ele>
        <time>2021-11-14T13:56:06Z</time>
      </trkpt>
      <trkpt lat="4.592837" lon="-75.156693">
        <ele>2511.261</ele>
        <time>2021-11-14T13:56:07Z</time>
      </trkpt>
      <trkpt lat="4.592809" lon="-75.156715">
        <ele>2512.6733</ele>
        <time>2021-11-14T13:56:08Z</time>
      </trkpt>
      <trkpt lat="4.592596" lon="-75.156731">
        <ele>2515.3696</ele>
        <time>2021-11-14T13:56:09Z</time>
      </trkpt>
      <trkpt lat="4.592502" lon="-75.156738">
        <ele>2516.2092</ele>
        <time>2021-11-14T13:56:11Z</time>
      </trkpt>
      <trkpt lat="4.592404" lon="-75.156715">
        <ele>2517.5105</ele>
        <time>2021-11-14T13:56:12Z</time>
      </trkpt>
      <trkpt lat="4.592378" lon="-75.156693">
        <ele>2518.5361</ele>
        <time>2021-11-14T13:56:13Z</time>
      </trkpt>
      <trkpt lat="4.592378" lon="-75.156693">
        <ele>2519.3347</ele>
        <time>2021-11-14T13:56:14Z</time>
      </trkpt>
      <trkpt lat="4.592301" lon="-75.156715">
        <ele>2519.8132</ele>
        <time>2021-11-14T13:56:15Z</time>
      </trkpt>
      <trkpt lat="4.592266" lon="-75.156776">
        <ele>2520.5657</ele>
        <time>2021-11-14T13:56:16Z</time>
      </trkpt>
      <trkpt lat="4.592218" lon="-75.156853">
        <ele>2520.492</ele>
        <time>2021-11-14T13:56:17Z</time>
      </trkpt>
      <trkpt lat="4.592176" lon="-75.156914">
        <ele>2521.6003</ele>
        <time>2021-11-14T13:56:18Z</time>
      </trkpt>
      <trkpt lat="4.592119" lon="-75.156967">
        <ele>2522.5518</ele>
        <time>2021-11-14T13:56:19Z</time>
      </trkpt>
      <trkpt lat="4.592021" lon="-75.157082">
        <ele>2522.8726</ele>
        <time>2021-11-14T13:56:20Z</time>
      </trkpt>
      <trkpt lat="4.592005" lon="-75.157112">
        <ele>2524.111</ele>
        <time>2021-11-14T13:56:21Z</time>
      </trkpt>
      <trkpt lat="4.591955" lon="-75.157196">
        <ele>2524.322</ele>
        <time>2021-11-14T13:56:22Z</time>
      </trkpt>
      <trkpt lat="4.591862" lon="-75.157227">
        <ele>2525.0715</ele>
        <time>2021-11-14T13:56:23Z</time>
      </trkpt>
      <trkpt lat="4.591761" lon="-75.157242">
        <ele>2525.971</ele>
        <time>2021-11-14T13:56:24Z</time>
      </trkpt>
      <trkpt lat="4.591685" lon="-75.157219">
        <ele>2526.199</ele>
        <time>2021-11-14T13:56:25Z</time>
      </trkpt>
      <trkpt lat="4.591594" lon="-75.157227">
        <ele>2527.7622</ele>
        <time>2021-11-14T13:56:26Z</time>
      </trkpt>
      <trkpt lat="4.591538" lon="-75.157204">
        <ele>2527.7612</ele>
        <time>2021-11-14T13:56:27Z</time>
      </trkpt>
      <trkpt lat="4.591507" lon="-75.157127">
        <ele>2528.0005</ele>
        <time>2021-11-14T13:56:28Z</time>
      </trkpt>
      <trkpt lat="4.591428" lon="-75.157066">
        <ele>2527.788</ele>
        <time>2021-11-14T13:56:29Z</time>
      </trkpt>
      <trkpt lat="4.591363" lon="-75.157028">
        <ele>2528.7285</ele>
        <time>2021-11-14T13:56:30Z</time>
      </trkpt>
      <trkpt lat="4.591315" lon="-75.157043">
        <ele>2529.961</ele>
        <time>2021-11-14T13:56:31Z</time>
      </trkpt>
      <trkpt lat="4.591247" lon="-75.157043">
        <ele>2529.8157</ele>
        <time>2021-11-14T13:56:32Z</time>
      </trkpt>
      <trkpt lat="4.591199" lon="-75.157082">
        <ele>2530.0828</ele>
        <time>2021-11-14T13:56:33Z</time>
      </trkpt>
      <trkpt lat="4.591155" lon="-75.157127">
        <ele>2530.0288</ele>
        <time>2021-11-14T13:56:34Z</time>
      </trkpt>
      <trkpt lat="4.591126" lon="-75.157173">
        <ele>2530.441</ele>
        <time>2021-11-14T13:56:35Z</time>
      </trkpt>
      <trkpt lat="4.591098" lon="-75.157257">
        <ele>2531.1892</ele>
        <time>2021-11-14T13:56:37Z</time>
      </trkpt>
      <trkpt lat="4.591108" lon="-75.157272">
        <ele>2531.106</ele>
        <time>2021-11-14T13:56:38Z</time>
      </trkpt>
      <trkpt lat="4.591091" lon="-75.157249">
        <ele>2531.4592</ele>
        <time>2021-11-14T13:56:39Z</time>
      </trkpt>
      <trkpt lat="4.59105" lon="-75.157227">
        <ele>2533.1663</ele>
        <time>2021-11-14T13:56:40Z</time>
      </trkpt>
      <trkpt lat="4.591015" lon="-75.157181">
        <ele>2532.859</ele>
        <time>2021-11-14T13:56:41Z</time>
      </trkpt>
      <trkpt lat="4.590988" lon="-75.15712">
        <ele>2532.0974</ele>
        <time>2021-11-14T13:56:42Z</time>
      </trkpt>
      <trkpt lat="4.590954" lon="-75.157066">
        <ele>2531.5842</ele>
        <time>2021-11-14T13:56:43Z</time>
      </trkpt>
      <trkpt lat="4.590897" lon="-75.156982">
        <ele>2530.0176</ele>
        <time>2021-11-14T13:56:44Z</time>
      </trkpt>
      <trkpt lat="4.590876" lon="-75.156929">
        <ele>2529.7812</ele>
        <time>2021-11-14T13:56:45Z</time>
      </trkpt>
      <trkpt lat="4.590878" lon="-75.156876">
        <ele>2529.5894</ele>
        <time>2021-11-14T13:56:46Z</time>
      </trkpt>
      <trkpt lat="4.590852" lon="-75.156799">
        <ele>2530.133</ele>
        <time>2021-11-14T13:56:47Z</time>
      </trkpt>
      <trkpt lat="4.590844" lon="-75.156731">
        <ele>2531.8447</ele>
        <time>2021-11-14T13:56:48Z</time>
      </trkpt>
      <trkpt lat="4.590844" lon="-75.156715">
        <ele>2531.758</ele>
        <time>2021-11-14T13:56:49Z</time>
      </trkpt>
      <trkpt lat="4.590861" lon="-75.156685">
        <ele>2532.3264</ele>
        <time>2021-11-14T13:56:50Z</time>
      </trkpt>
      <trkpt lat="4.590876" lon="-75.156631">
        <ele>2532.9497</ele>
        <time>2021-11-14T13:56:51Z</time>
      </trkpt>
      <trkpt lat="4.590994" lon="-75.156593">
        <ele>2532.8906</ele>
        <time>2021-11-14T13:56:52Z</time>
      </trkpt>
      <trkpt lat="4.591092" lon="-75.15657">
        <ele>2533.119</ele>
        <time>2021-11-14T13:56:53Z</time>
      </trkpt>
      <trkpt lat="4.591126" lon="-75.15654">
        <ele>2533.641</ele>
        <time>2021-11-14T13:56:54Z</time>
      </trkpt>
      <trkpt lat="4.591137" lon="-75.156517">
        <ele>2533.6606</ele>
        <time>2021-11-14T13:56:55Z</time>
      </trkpt>
      <trkpt lat="4.591137" lon="-75.156502">
        <ele>2534.0066</ele>
        <time>2021-11-14T13:56:56Z</time>
      </trkpt>
      <trkpt lat="4.591127" lon="-75.156471">
        <ele>2534.4358</ele>
        <time>2021-11-14T13:56:57Z</time>
      </trkpt>
      <trkpt lat="4.591127" lon="-75.156425">
        <ele>2535.3955</ele>
        <time>2021-11-14T13:56:58Z</time>
      </trkpt>
      <trkpt lat="4.59113" lon="-75.156387">
        <ele>2536.0469</ele>
        <time>2021-11-14T13:56:59Z</time>
      </trkpt>
      <trkpt lat="4.591084" lon="-75.156326">
        <ele>2536.7712</ele>
        <time>2021-11-14T13:57:00Z</time>
      </trkpt>
      <trkpt lat="4.591049" lon="-75.156281">
        <ele>2538.391</ele>
        <time>2021-11-14T13:57:01Z</time>
      </trkpt>
      <trkpt lat="4.591036" lon="-75.156265">
        <ele>2538.4802</ele>
        <time>2021-11-14T13:57:03Z</time>
      </trkpt>
      <trkpt lat="4.591035" lon="-75.156273">
        <ele>2539.2993</ele>
        <time>2021-11-14T13:57:04Z</time>
      </trkpt>
      <trkpt lat="4.591005" lon="-75.156227">
        <ele>2539.7717</ele>
        <time>2021-11-14T13:57:05Z</time>
      </trkpt>
      <trkpt lat="4.590959" lon="-75.156174">
        <ele>2541.2698</ele>
        <time>2021-11-14T13:57:06Z</time>
      </trkpt>
      <trkpt lat="4.590919" lon="-75.156174">
        <ele>2541.1162</ele>
        <time>2021-11-14T13:57:07Z</time>
      </trkpt>
      <trkpt lat="4.590861" lon="-75.156181">
        <ele>2541.4778</ele>
        <time>2021-11-14T13:57:08Z</time>
      </trkpt>
      <trkpt lat="4.590863" lon="-75.156174">
        <ele>2541.9626</ele>
        <time>2021-11-14T13:57:09Z</time>
      </trkpt>
      <trkpt lat="4.590802" lon="-75.156136">
        <ele>2541.6853</ele>
        <time>2021-11-14T13:57:10Z</time>
      </trkpt>
      <trkpt lat="4.59082" lon="-75.156075">
        <ele>2541.405</ele>
        <time>2021-11-14T13:57:11Z</time>
      </trkpt>
      <trkpt lat="4.590828" lon="-75.156006">
        <ele>2542.544</ele>
        <time>2021-11-14T13:57:12Z</time>
      </trkpt>
      <trkpt lat="4.590858" lon="-75.15593">
        <ele>2542.718</ele>
        <time>2021-11-14T13:57:13Z</time>
      </trkpt>
      <trkpt lat="4.590844" lon="-75.155891">
        <ele>2543.23</ele>
        <time>2021-11-14T13:57:14Z</time>
      </trkpt>
      <trkpt lat="4.590825" lon="-75.155853">
        <ele>2543.7986</ele>
        <time>2021-11-14T13:57:15Z</time>
      </trkpt>
      <trkpt lat="4.590825" lon="-75.155853">
        <ele>2544.7627</ele>
        <time>2021-11-14T13:57:16Z</time>
      </trkpt>
      <trkpt lat="4.590808" lon="-75.155815">
        <ele>2545.1453</ele>
        <time>2021-11-14T13:57:17Z</time>
      </trkpt>
      <trkpt lat="4.590782" lon="-75.155746">
        <ele>2545.5837</ele>
        <time>2021-11-14T13:57:18Z</time>
      </trkpt>
      <trkpt lat="4.590749" lon="-75.15567">
        <ele>2546.1682</ele>
        <time>2021-11-14T13:57:19Z</time>
      </trkpt>
      <trkpt lat="4.59071" lon="-75.155609">
        <ele>2546.6902</ele>
        <time>2021-11-14T13:57:21Z</time>
      </trkpt>
      <trkpt lat="4.590714" lon="-75.155556">
        <ele>2547.0737</ele>
        <time>2021-11-14T13:57:22Z</time>
      </trkpt>
      <trkpt lat="4.590726" lon="-75.155472">
        <ele>2547.745</ele>
        <time>2021-11-14T13:57:23Z</time>
      </trkpt>
      <trkpt lat="4.590759" lon="-75.155411">
        <ele>2548.6548</ele>
        <time>2021-11-14T13:57:24Z</time>
      </trkpt>
      <trkpt lat="4.590801" lon="-75.155304">
        <ele>2548.7166</ele>
        <time>2021-11-14T13:57:25Z</time>
      </trkpt>
      <trkpt lat="4.590804" lon="-75.155258">
        <ele>2548.864</ele>
        <time>2021-11-14T13:57:26Z</time>
      </trkpt>
      <trkpt lat="4.590787" lon="-75.155251">
        <ele>2548.9246</ele>
        <time>2021-11-14T13:57:27Z</time>
      </trkpt>
      <trkpt lat="4.590775" lon="-75.155151">
        <ele>2548.957</ele>
        <time>2021-11-14T13:57:28Z</time>
      </trkpt>
      <trkpt lat="4.590745" lon="-75.155067">
        <ele>2549.6724</ele>
        <time>2021-11-14T13:57:29Z</time>
      </trkpt>
      <trkpt lat="4.590701" lon="-75.155037">
        <ele>2550.0757</ele>
        <time>2021-11-14T13:57:30Z</time>
      </trkpt>
      <trkpt lat="4.590677" lon="-75.155014">
        <ele>2550.2068</ele>
        <time>2021-11-14T13:57:31Z</time>
      </trkpt>
      <trkpt lat="4.590656" lon="-75.154953">
        <ele>2550.5825</ele>
        <time>2021-11-14T13:57:32Z</time>
      </trkpt>
      <trkpt lat="4.590656" lon="-75.154922">
        <ele>2550.4153</ele>
        <time>2021-11-14T13:57:33Z</time>
      </trkpt>
      <trkpt lat="4.590667" lon="-75.154907">
        <ele>2550.47</ele>
        <time>2021-11-14T13:57:34Z</time>
      </trkpt>
      <trkpt lat="4.590672" lon="-75.154884">
        <ele>2550.2717</ele>
        <time>2021-11-14T13:57:35Z</time>
      </trkpt>
      <trkpt lat="4.590676" lon="-75.154854">
        <ele>2550.4473</ele>
        <time>2021-11-14T13:57:36Z</time>
      </trkpt>
      <trkpt lat="4.590683" lon="-75.154839">
        <ele>2550.677</ele>
        <time>2021-11-14T13:57:37Z</time>
      </trkpt>
      <trkpt lat="4.590696" lon="-75.154808">
        <ele>2551.0242</ele>
        <time>2021-11-14T13:57:38Z</time>
      </trkpt>
      <trkpt lat="4.590711" lon="-75.154755">
        <ele>2550.5952</ele>
        <time>2021-11-14T13:57:39Z</time>
      </trkpt>
      <trkpt lat="4.59071" lon="-75.154755">
        <ele>2550.617</ele>
        <time>2021-11-14T13:57:40Z</time>
      </trkpt>
      <trkpt lat="4.590717" lon="-75.154747">
        <ele>2551.084</ele>
        <time>2021-11-14T13:57:41Z</time>
      </trkpt>
      <trkpt lat="4.590717" lon="-75.154747">
        <ele>2551.7292</ele>
        <time>2021-11-14T13:57:42Z</time>
      </trkpt>
      <trkpt lat="4.590744" lon="-75.154724">
        <ele>2551.6877</ele>
        <time>2021-11-14T13:57:43Z</time>
      </trkpt>
      <trkpt lat="4.590763" lon="-75.154701">
        <ele>2552.2148</ele>
        <time>2021-11-14T13:57:44Z</time>
      </trkpt>
      <trkpt lat="4.590802" lon="-75.154655">
        <ele>2553.059</ele>
        <time>2021-11-14T13:57:45Z</time>
      </trkpt>
      <trkpt lat="4.590828" lon="-75.154625">
        <ele>2553.2476</ele>
        <time>2021-11-14T13:57:47Z</time>
      </trkpt>
      <trkpt lat="4.590833" lon="-75.15461">
        <ele>2553.1301</ele>
        <time>2021-11-14T13:57:48Z</time>
      </trkpt>
      <trkpt lat="4.59085" lon="-75.154579">
        <ele>2554.31</ele>
        <time>2021-11-14T13:57:49Z</time>
      </trkpt>
      <trkpt lat="4.590835" lon="-75.154541">
        <ele>2554.2563</ele>
        <time>2021-11-14T13:57:50Z</time>
      </trkpt>
      <trkpt lat="4.590843" lon="-75.154503">
        <ele>2554.7058</ele>
        <time>2021-11-14T13:57:51Z</time>
      </trkpt>
      <trkpt lat="4.590838" lon="-75.154518">
        <ele>2554.6118</ele>
        <time>2021-11-14T13:57:52Z</time>
      </trkpt>
      <trkpt lat="4.59084" lon="-75.15451">
        <ele>2554.6252</ele>
        <time>2021-11-14T13:57:53Z</time>
      </trkpt>
      <trkpt lat="4.590842" lon="-75.154518">
        <ele>2554.5688</ele>
        <time>2021-11-14T13:57:54Z</time>
      </trkpt>
      <trkpt lat="4.590844" lon="-75.154518">
        <ele>2554.3862</ele>
        <time>2021-11-14T13:57:55Z</time>
      </trkpt>
      <trkpt lat="4.590837" lon="-75.154526">
        <ele>2554.1392</ele>
        <time>2021-11-14T13:57:57Z</time>
      </trkpt>
      <trkpt lat="4.590841" lon="-75.154526">
        <ele>2553.976</ele>
        <time>2021-11-14T13:57:58Z</time>
      </trkpt>
      <trkpt lat="4.590845" lon="-75.154526">
        <ele>2554.1372</ele>
        <time>2021-11-14T13:57:59Z</time>
      </trkpt>
      <trkpt lat="4.590844" lon="-75.154526">
        <ele>2554.1577</ele>
        <time>2021-11-14T13:58:00Z</time>
      </trkpt>
      <trkpt lat="4.590843" lon="-75.154526">
        <ele>2554.263</ele>
        <time>2021-11-14T13:58:01Z</time>
      </trkpt>
      <trkpt lat="4.590843" lon="-75.154526">
        <ele>2554.3108</ele>
        <time>2021-11-14T13:58:02Z</time>
      </trkpt>
      <trkpt lat="4.590841" lon="-75.154526">
        <ele>2554.2278</ele>
        <time>2021-11-14T13:58:03Z</time>
      </trkpt>
      <trkpt lat="4.59084" lon="-75.154526">
        <ele>2554.2346</ele>
        <time>2021-11-14T13:58:04Z</time>
      </trkpt>
      <trkpt lat="4.59084" lon="-75.154526">
        <ele>2554.309</ele>
        <time>2021-11-14T13:58:05Z</time>
      </trkpt>
      <trkpt lat="4.59084" lon="-75.154526">
        <ele>2554.307</ele>
        <time>2021-11-14T13:58:06Z</time>
      </trkpt>
      <trkpt lat="4.59084" lon="-75.154526">
        <ele>2554.302</ele>
        <time>2021-11-14T13:58:07Z</time>
      </trkpt>
      <trkpt lat="4.59084" lon="-75.154526">
        <ele>2554.303</ele>
        <time>2021-11-14T13:58:08Z</time>
      </trkpt>
      <trkpt lat="4.59084" lon="-75.154526">
        <ele>2554.3062</ele>
        <time>2021-11-14T13:58:09Z</time>
      </trkpt>
      <trkpt lat="4.59084" lon="-75.154526">
        <ele>2554.3083</ele>
        <time>2021-11-14T13:58:10Z</time>
      </trkpt>
      <trkpt lat="4.59084" lon="-75.154526">
        <ele>2554.3093</ele>
        <time>2021-11-14T13:58:12Z</time>
      </trkpt>
      <trkpt lat="4.59084" lon="-75.154526">
        <ele>2554.3103</ele>
        <time>2021-11-14T13:58:13Z</time>
      </trkpt>
      <trkpt lat="4.59084" lon="-75.154526">
        <ele>2554.3137</ele>
        <time>2021-11-14T13:58:14Z</time>
      </trkpt>
      <trkpt lat="4.59084" lon="-75.154526">
        <ele>2554.3171</ele>
        <time>2021-11-14T13:58:15Z</time>
      </trkpt>
      <trkpt lat="4.59084" lon="-75.154526">
        <ele>2554.3389</ele>
        <time>2021-11-14T13:58:16Z</time>
      </trkpt>
      <trkpt lat="4.59084" lon="-75.154526">
        <ele>2554.3423</ele>
        <time>2021-11-14T13:58:17Z</time>
      </trkpt>
      <trkpt lat="4.590837" lon="-75.154541">
        <ele>2554.498</ele>
        <time>2021-11-14T13:58:18Z</time>
      </trkpt>
      <trkpt lat="4.59083" lon="-75.154533">
        <ele>2554.4175</ele>
        <time>2021-11-14T13:58:19Z</time>
      </trkpt>
      <trkpt lat="4.590827" lon="-75.154533">
        <ele>2554.9211</ele>
        <time>2021-11-14T13:58:21Z</time>
      </trkpt>
      <trkpt lat="4.590825" lon="-75.154533">
        <ele>2554.779</ele>
        <time>2021-11-14T13:58:22Z</time>
      </trkpt>
      <trkpt lat="4.590825" lon="-75.154533">
        <ele>2554.626</ele>
        <time>2021-11-14T13:58:23Z</time>
      </trkpt>
      <trkpt lat="4.590823" lon="-75.154533">
        <ele>2555.1992</ele>
        <time>2021-11-14T13:58:24Z</time>
      </trkpt>
      <trkpt lat="4.590824" lon="-75.154533">
        <ele>2555.551</ele>
        <time>2021-11-14T13:58:25Z</time>
      </trkpt>
      <trkpt lat="4.590822" lon="-75.154533">
        <ele>2555.6997</ele>
        <time>2021-11-14T13:58:26Z</time>
      </trkpt>
      <trkpt lat="4.590822" lon="-75.154541">
        <ele>2554.875</ele>
        <time>2021-11-14T13:58:27Z</time>
      </trkpt>
      <trkpt lat="4.590822" lon="-75.154541">
        <ele>2554.6104</ele>
        <time>2021-11-14T13:58:28Z</time>
      </trkpt>
      <trkpt lat="4.590822" lon="-75.154541">
        <ele>2554.4375</ele>
        <time>2021-11-14T13:58:29Z</time>
      </trkpt>
      <trkpt lat="4.590822" lon="-75.154541">
        <ele>2554.636</ele>
        <time>2021-11-14T13:58:31Z</time>
      </trkpt>
      <trkpt lat="4.590823" lon="-75.154541">
        <ele>2554.1675</ele>
        <time>2021-11-14T13:58:32Z</time>
      </trkpt>
      <trkpt lat="4.59082" lon="-75.154533">
        <ele>2554.0674</ele>
        <time>2021-11-14T13:58:33Z</time>
      </trkpt>
      <trkpt lat="4.590822" lon="-75.154533">
        <ele>2553.7668</ele>
        <time>2021-11-14T13:58:34Z</time>
      </trkpt>
      <trkpt lat="4.590819" lon="-75.154533">
        <ele>2553.8198</ele>
        <time>2021-11-14T13:58:35Z</time>
      </trkpt>
      <trkpt lat="4.59082" lon="-75.154533">
        <ele>2554.421</ele>
        <time>2021-11-14T13:58:36Z</time>
      </trkpt>
      <trkpt lat="4.590821" lon="-75.154533">
        <ele>2553.9783</ele>
        <time>2021-11-14T13:58:37Z</time>
      </trkpt>
      <trkpt lat="4.590823" lon="-75.154533">
        <ele>2553.649</ele>
        <time>2021-11-14T13:58:38Z</time>
      </trkpt>
      <trkpt lat="4.590824" lon="-75.154533">
        <ele>2554.211</ele>
        <time>2021-11-14T13:58:39Z</time>
      </trkpt>
      <trkpt lat="4.590826" lon="-75.154533">
        <ele>2553.9844</ele>
        <time>2021-11-14T13:58:40Z</time>
      </trkpt>
      <trkpt lat="4.590824" lon="-75.154434">
        <ele>2554.6157</ele>
        <time>2021-11-14T13:58:41Z</time>
      </trkpt>
      <trkpt lat="4.590824" lon="-75.154358">
        <ele>2555.273</ele>
        <time>2021-11-14T13:58:42Z</time>
      </trkpt>
      <trkpt lat="4.590845" lon="-75.154305">
        <ele>2555.5923</ele>
        <time>2021-11-14T13:58:44Z</time>
      </trkpt>
      <trkpt lat="4.590894" lon="-75.154221">
        <ele>2556.5396</ele>
        <time>2021-11-14T13:58:45Z</time>
      </trkpt>
      <trkpt lat="4.590928" lon="-75.154175">
        <ele>2556.9736</ele>
        <time>2021-11-14T13:58:46Z</time>
      </trkpt>
      <trkpt lat="4.590967" lon="-75.154106">
        <ele>2558.1475</ele>
        <time>2021-11-14T13:58:47Z</time>
      </trkpt>
      <trkpt lat="4.591065" lon="-75.154022">
        <ele>2558.5413</ele>
        <time>2021-11-14T13:58:48Z</time>
      </trkpt>
      <trkpt lat="4.591042" lon="-75.154022">
        <ele>2559.0872</ele>
        <time>2021-11-14T13:58:49Z</time>
      </trkpt>
      <trkpt lat="4.591063" lon="-75.153961">
        <ele>2559.6492</ele>
        <time>2021-11-14T13:58:50Z</time>
      </trkpt>
      <trkpt lat="4.59104" lon="-75.153954">
        <ele>2560.3765</ele>
        <time>2021-11-14T13:58:51Z</time>
      </trkpt>
      <trkpt lat="4.590998" lon="-75.153923">
        <ele>2561.1235</ele>
        <time>2021-11-14T13:58:52Z</time>
      </trkpt>
      <trkpt lat="4.59097" lon="-75.153915">
        <ele>2560.89</ele>
        <time>2021-11-14T13:58:53Z</time>
      </trkpt>
      <trkpt lat="4.590958" lon="-75.153961">
        <ele>2560.9812</ele>
        <time>2021-11-14T13:58:54Z</time>
      </trkpt>
      <trkpt lat="4.590914" lon="-75.153992">
        <ele>2561.4097</ele>
        <time>2021-11-14T13:58:55Z</time>
      </trkpt>
      <trkpt lat="4.590922" lon="-75.154015">
        <ele>2562.1543</ele>
        <time>2021-11-14T13:58:56Z</time>
      </trkpt>
      <trkpt lat="4.590919" lon="-75.154106">
        <ele>2561.9163</ele>
        <time>2021-11-14T13:58:57Z</time>
      </trkpt>
      <trkpt lat="4.590893" lon="-75.154152">
        <ele>2563.698</ele>
        <time>2021-11-14T13:58:58Z</time>
      </trkpt>
      <trkpt lat="4.590827" lon="-75.154205">
        <ele>2564.5134</ele>
        <time>2021-11-14T13:58:59Z</time>
      </trkpt>
      <trkpt lat="4.590706" lon="-75.154335">
        <ele>2565.5117</ele>
        <time>2021-11-14T13:59:00Z</time>
      </trkpt>
      <trkpt lat="4.590676" lon="-75.154366">
        <ele>2564.7224</ele>
        <time>2021-11-14T13:59:01Z</time>
      </trkpt>
      <trkpt lat="4.590599" lon="-75.154442">
        <ele>2565.2903</ele>
        <time>2021-11-14T13:59:02Z</time>
      </trkpt>
      <trkpt lat="4.590542" lon="-75.15451">
        <ele>2566.0242</ele>
        <time>2021-11-14T13:59:03Z</time>
      </trkpt>
      <trkpt lat="4.590523" lon="-75.154572">
        <ele>2567.9424</ele>
        <time>2021-11-14T13:59:04Z</time>
      </trkpt>
      <trkpt lat="4.590471" lon="-75.154648">
        <ele>2568.021</ele>
        <time>2021-11-14T13:59:05Z</time>
      </trkpt>
      <trkpt lat="4.590437" lon="-75.154655">
        <ele>2568.225</ele>
        <time>2021-11-14T13:59:06Z</time>
      </trkpt>
      <trkpt lat="4.590385" lon="-75.154678">
        <ele>2569.4775</ele>
        <time>2021-11-14T13:59:07Z</time>
      </trkpt>
      <trkpt lat="4.590366" lon="-75.154732">
        <ele>2569.9016</ele>
        <time>2021-11-14T13:59:08Z</time>
      </trkpt>
      <trkpt lat="4.590263" lon="-75.154808">
        <ele>2571.219</ele>
        <time>2021-11-14T13:59:09Z</time>
      </trkpt>
      <trkpt lat="4.590292" lon="-75.154861">
        <ele>2572.4531</ele>
        <time>2021-11-14T13:59:10Z</time>
      </trkpt>
      <trkpt lat="4.590292" lon="-75.154861">
        <ele>2572.3606</ele>
        <time>2021-11-14T13:59:11Z</time>
      </trkpt>
      <trkpt lat="4.59032" lon="-75.154953">
        <ele>2572.7583</ele>
        <time>2021-11-14T13:59:12Z</time>
      </trkpt>
      <trkpt lat="4.590336" lon="-75.154984">
        <ele>2572.957</ele>
        <time>2021-11-14T13:59:14Z</time>
      </trkpt>
      <trkpt lat="4.590304" lon="-75.155014">
        <ele>2572.4927</ele>
        <time>2021-11-14T13:59:15Z</time>
      </trkpt>
      <trkpt lat="4.590248" lon="-75.15506">
        <ele>2574.1409</ele>
        <time>2021-11-14T13:59:16Z</time>
      </trkpt>
      <trkpt lat="4.59019" lon="-75.15519">
        <ele>2575.0667</ele>
        <time>2021-11-14T13:59:17Z</time>
      </trkpt>
      <trkpt lat="4.590161" lon="-75.155319">
        <ele>2574.072</ele>
        <time>2021-11-14T13:59:18Z</time>
      </trkpt>
      <trkpt lat="4.59015" lon="-75.15538">
        <ele>2575.0566</ele>
        <time>2021-11-14T13:59:19Z</time>
      </trkpt>
      <trkpt lat="4.590144" lon="-75.155441">
        <ele>2574.7505</ele>
        <time>2021-11-14T13:59:20Z</time>
      </trkpt>
      <trkpt lat="4.590132" lon="-75.15551">
        <ele>2576.4116</ele>
        <time>2021-11-14T13:59:21Z</time>
      </trkpt>
      <trkpt lat="4.590105" lon="-75.155594">
        <ele>2576.6018</ele>
        <time>2021-11-14T13:59:22Z</time>
      </trkpt>
      <trkpt lat="4.59007" lon="-75.155663">
        <ele>2576.7544</ele>
        <time>2021-11-14T13:59:23Z</time>
      </trkpt>
      <trkpt lat="4.590037" lon="-75.155777">
        <ele>2576.5464</ele>
        <time>2021-11-14T13:59:24Z</time>
      </trkpt>
      <trkpt lat="4.590018" lon="-75.155869">
        <ele>2577.181</ele>
        <time>2021-11-14T13:59:25Z</time>
      </trkpt>
      <trkpt lat="4.590009" lon="-75.155937">
        <ele>2577.2722</ele>
        <time>2021-11-14T13:59:26Z</time>
      </trkpt>
      <trkpt lat="4.589968" lon="-75.155968">
        <ele>2578.347</ele>
        <time>2021-11-14T13:59:27Z</time>
      </trkpt>
      <trkpt lat="4.589964" lon="-75.155975">
        <ele>2578.4573</ele>
        <time>2021-11-14T13:59:28Z</time>
      </trkpt>
      <trkpt lat="4.589936" lon="-75.156044">
        <ele>2579.1152</ele>
        <time>2021-11-14T13:59:29Z</time>
      </trkpt>
      <trkpt lat="4.589845" lon="-75.156044">
        <ele>2579.6025</ele>
        <time>2021-11-14T13:59:30Z</time>
      </trkpt>
      <trkpt lat="4.5898" lon="-75.156036">
        <ele>2579.4023</ele>
        <time>2021-11-14T13:59:31Z</time>
      </trkpt>
      <trkpt lat="4.589657" lon="-75.155975">
        <ele>2579.8564</ele>
        <time>2021-11-14T13:59:32Z</time>
      </trkpt>
      <trkpt lat="4.589662" lon="-75.155998">
        <ele>2581.9656</ele>
        <time>2021-11-14T13:59:33Z</time>
      </trkpt>
      <trkpt lat="4.589654" lon="-75.156128">
        <ele>2582.3867</ele>
        <time>2021-11-14T13:59:34Z</time>
      </trkpt>
      <trkpt lat="4.589616" lon="-75.156151">
        <ele>2583.2166</ele>
        <time>2021-11-14T13:59:35Z</time>
      </trkpt>
      <trkpt lat="4.589616" lon="-75.156303">
        <ele>2584.4858</ele>
        <time>2021-11-14T13:59:36Z</time>
      </trkpt>
      <trkpt lat="4.589717" lon="-75.156425">
        <ele>2587.259</ele>
        <time>2021-11-14T13:59:38Z</time>
      </trkpt>
      <trkpt lat="4.589738" lon="-75.156425">
        <ele>2588.7478</ele>
        <time>2021-11-14T13:59:39Z</time>
      </trkpt>
      <trkpt lat="4.589705" lon="-75.156441">
        <ele>2590.1506</ele>
        <time>2021-11-14T13:59:40Z</time>
      </trkpt>
      <trkpt lat="4.589701" lon="-75.156448">
        <ele>2589.473</ele>
        <time>2021-11-14T13:59:41Z</time>
      </trkpt>
      <trkpt lat="4.589568" lon="-75.15667">
        <ele>2590.2317</ele>
        <time>2021-11-14T13:59:42Z</time>
      </trkpt>
      <trkpt lat="4.589571" lon="-75.156677">
        <ele>2592.785</ele>
        <time>2021-11-14T13:59:43Z</time>
      </trkpt>
      <trkpt lat="4.589484" lon="-75.156837">
        <ele>2595.6367</ele>
        <time>2021-11-14T13:59:44Z</time>
      </trkpt>
      <trkpt lat="4.589491" lon="-75.156876">
        <ele>2597.5923</ele>
        <time>2021-11-14T13:59:45Z</time>
      </trkpt>
      <trkpt lat="4.589453" lon="-75.156967">
        <ele>2599.5232</ele>
        <time>2021-11-14T13:59:46Z</time>
      </trkpt>
      <trkpt lat="4.589442" lon="-75.157005">
        <ele>2600.72</ele>
        <time>2021-11-14T13:59:47Z</time>
      </trkpt>
      <trkpt lat="4.589457" lon="-75.157051">
        <ele>2600.1404</ele>
        <time>2021-11-14T13:59:48Z</time>
      </trkpt>
      <trkpt lat="4.589433" lon="-75.157143">
        <ele>2600.0615</ele>
        <time>2021-11-14T13:59:49Z</time>
      </trkpt>
      <trkpt lat="4.589343" lon="-75.157127">
        <ele>2600.0005</ele>
        <time>2021-11-14T13:59:50Z</time>
      </trkpt>
      <trkpt lat="4.58928" lon="-75.15715">
        <ele>2601.7317</ele>
        <time>2021-11-14T13:59:51Z</time>
      </trkpt>
      <trkpt lat="4.589235" lon="-75.157234">
        <ele>2601.3396</ele>
        <time>2021-11-14T13:59:52Z</time>
      </trkpt>
      <trkpt lat="4.589218" lon="-75.157272">
        <ele>2600.8792</ele>
        <time>2021-11-14T13:59:53Z</time>
      </trkpt>
      <trkpt lat="4.589212" lon="-75.157295">
        <ele>2601.4878</ele>
        <time>2021-11-14T13:59:54Z</time>
      </trkpt>
      <trkpt lat="4.589194" lon="-75.157318">
        <ele>2602.6343</ele>
        <time>2021-11-14T13:59:55Z</time>
      </trkpt>
      <trkpt lat="4.589207" lon="-75.157326">
        <ele>2603.0393</ele>
        <time>2021-11-14T13:59:56Z</time>
      </trkpt>
      <trkpt lat="4.589208" lon="-75.157425">
        <ele>2603.8884</ele>
        <time>2021-11-14T13:59:57Z</time>
      </trkpt>
      <trkpt lat="4.589199" lon="-75.157455">
        <ele>2604.279</ele>
        <time>2021-11-14T13:59:58Z</time>
      </trkpt>
      <trkpt lat="4.589176" lon="-75.15757">
        <ele>2605.803</ele>
        <time>2021-11-14T13:59:59Z</time>
      </trkpt>
      <trkpt lat="4.589144" lon="-75.157631">
        <ele>2606.074</ele>
        <time>2021-11-14T14:00:00Z</time>
      </trkpt>
      <trkpt lat="4.589118" lon="-75.157684">
        <ele>2605.1792</ele>
        <time>2021-11-14T14:00:01Z</time>
      </trkpt>
      <trkpt lat="4.589092" lon="-75.157722">
        <ele>2604.7056</ele>
        <time>2021-11-14T14:00:02Z</time>
      </trkpt>
      <trkpt lat="4.589027" lon="-75.157799">
        <ele>2604.5107</ele>
        <time>2021-11-14T14:00:03Z</time>
      </trkpt>
      <trkpt lat="4.588984" lon="-75.157867">
        <ele>2605.1265</ele>
        <time>2021-11-14T14:00:04Z</time>
      </trkpt>
      <trkpt lat="4.588984" lon="-75.157867">
        <ele>2605.8655</ele>
        <time>2021-11-14T14:00:05Z</time>
      </trkpt>
      <trkpt lat="4.588932" lon="-75.157944">
        <ele>2606.8237</ele>
        <time>2021-11-14T14:00:06Z</time>
      </trkpt>
      <trkpt lat="4.588893" lon="-75.157974">
        <ele>2607.174</ele>
        <time>2021-11-14T14:00:07Z</time>
      </trkpt>
      <trkpt lat="4.588898" lon="-75.157951">
        <ele>2606.2244</ele>
        <time>2021-11-14T14:00:08Z</time>
      </trkpt>
      <trkpt lat="4.588847" lon="-75.158005">
        <ele>2606.0098</ele>
        <time>2021-11-14T14:00:09Z</time>
      </trkpt>
      <trkpt lat="4.588779" lon="-75.158119">
        <ele>2606.1853</ele>
        <time>2021-11-14T14:00:10Z</time>
      </trkpt>
      <trkpt lat="4.58874" lon="-75.15818">
        <ele>2606.5159</ele>
        <time>2021-11-14T14:00:11Z</time>
      </trkpt>
      <trkpt lat="4.588689" lon="-75.158226">
        <ele>2606.7695</ele>
        <time>2021-11-14T14:00:12Z</time>
      </trkpt>
      <trkpt lat="4.5887" lon="-75.158272">
        <ele>2607.7744</ele>
        <time>2021-11-14T14:00:14Z</time>
      </trkpt>
      <trkpt lat="4.588671" lon="-75.15834">
        <ele>2608.8018</ele>
        <time>2021-11-14T14:00:15Z</time>
      </trkpt>
      <trkpt lat="4.588651" lon="-75.158379">
        <ele>2612.6982</ele>
        <time>2021-11-14T14:00:16Z</time>
      </trkpt>
      <trkpt lat="4.588655" lon="-75.158409">
        <ele>2613.3625</ele>
        <time>2021-11-14T14:00:17Z</time>
      </trkpt>
      <trkpt lat="4.588706" lon="-75.158432">
        <ele>2613.4753</ele>
        <time>2021-11-14T14:00:18Z</time>
      </trkpt>
      <trkpt lat="4.588748" lon="-75.15844">
        <ele>2612.1213</ele>
        <time>2021-11-14T14:00:19Z</time>
      </trkpt>
      <trkpt lat="4.58876" lon="-75.15844">
        <ele>2611.7285</ele>
        <time>2021-11-14T14:00:20Z</time>
      </trkpt>
      <trkpt lat="4.588802" lon="-75.158348">
        <ele>2610.8276</ele>
        <time>2021-11-14T14:00:21Z</time>
      </trkpt>
      <trkpt lat="4.588845" lon="-75.158279">
        <ele>2610.3318</ele>
        <time>2021-11-14T14:00:22Z</time>
      </trkpt>
      <trkpt lat="4.588874" lon="-75.158295">
        <ele>2610.985</ele>
        <time>2021-11-14T14:00:23Z</time>
      </trkpt>
      <trkpt lat="4.58893" lon="-75.158218">
        <ele>2611.6365</ele>
        <time>2021-11-14T14:00:24Z</time>
      </trkpt>
      <trkpt lat="4.588977" lon="-75.158234">
        <ele>2610.9294</ele>
        <time>2021-11-14T14:00:25Z</time>
      </trkpt>
      <trkpt lat="4.589028" lon="-75.158211">
        <ele>2613.174</ele>
        <time>2021-11-14T14:00:26Z</time>
      </trkpt>
      <trkpt lat="4.589081" lon="-75.158318">
        <ele>2614.8875</ele>
        <time>2021-11-14T14:00:27Z</time>
      </trkpt>
      <trkpt lat="4.589107" lon="-75.158333">
        <ele>2616.5974</ele>
        <time>2021-11-14T14:00:28Z</time>
      </trkpt>
      <trkpt lat="4.589164" lon="-75.158386">
        <ele>2617.3633</ele>
        <time>2021-11-14T14:00:29Z</time>
      </trkpt>
      <trkpt lat="4.589194" lon="-75.158386">
        <ele>2618.1848</ele>
        <time>2021-11-14T14:00:30Z</time>
      </trkpt>
      <trkpt lat="4.589305" lon="-75.158455">
        <ele>2619.294</ele>
        <time>2021-11-14T14:00:31Z</time>
      </trkpt>
      <trkpt lat="4.589357" lon="-75.158463">
        <ele>2622.2942</ele>
        <time>2021-11-14T14:00:32Z</time>
      </trkpt>
      <trkpt lat="4.589413" lon="-75.158485">
        <ele>2622.7334</ele>
        <time>2021-11-14T14:00:33Z</time>
      </trkpt>
      <trkpt lat="4.58948" lon="-75.158485">
        <ele>2624.0676</ele>
        <time>2021-11-14T14:00:34Z</time>
      </trkpt>
      <trkpt lat="4.589573" lon="-75.158508">
        <ele>2625.1748</ele>
        <time>2021-11-14T14:00:35Z</time>
      </trkpt>
      <trkpt lat="4.589595" lon="-75.158524">
        <ele>2625.9893</ele>
        <time>2021-11-14T14:00:36Z</time>
      </trkpt>
      <trkpt lat="4.58962" lon="-75.158562">
        <ele>2626.0105</ele>
        <time>2021-11-14T14:00:37Z</time>
      </trkpt>
      <trkpt lat="4.589689" lon="-75.158699">
        <ele>2626.9802</ele>
        <time>2021-11-14T14:00:38Z</time>
      </trkpt>
      <trkpt lat="4.589731" lon="-75.158737">
        <ele>2627.3916</ele>
        <time>2021-11-14T14:00:39Z</time>
      </trkpt>
      <trkpt lat="4.589807" lon="-75.15876">
        <ele>2627.7893</ele>
        <time>2021-11-14T14:00:40Z</time>
      </trkpt>
      <trkpt lat="4.589877" lon="-75.158791">
        <ele>2628.5864</ele>
        <time>2021-11-14T14:00:41Z</time>
      </trkpt>
      <trkpt lat="4.589963" lon="-75.158813">
        <ele>2629.7227</ele>
        <time>2021-11-14T14:00:42Z</time>
      </trkpt>
      <trkpt lat="4.589966" lon="-75.158844">
        <ele>2630.1162</ele>
        <time>2021-11-14T14:00:43Z</time>
      </trkpt>
      <trkpt lat="4.589986" lon="-75.158905">
        <ele>2631.3506</ele>
        <time>2021-11-14T14:00:44Z</time>
      </trkpt>
      <trkpt lat="4.590004" lon="-75.158974">
        <ele>2632.6929</ele>
        <time>2021-11-14T14:00:45Z</time>
      </trkpt>
      <trkpt lat="4.590013" lon="-75.159035">
        <ele>2634.1782</ele>
        <time>2021-11-14T14:00:46Z</time>
      </trkpt>
      <trkpt lat="4.590022" lon="-75.159042">
        <ele>2634.8171</ele>
        <time>2021-11-14T14:00:47Z</time>
      </trkpt>
      <trkpt lat="4.59001" lon="-75.159103">
        <ele>2635.4475</ele>
        <time>2021-11-14T14:00:49Z</time>
      </trkpt>
      <trkpt lat="4.589972" lon="-75.159111">
        <ele>2637.4348</ele>
        <time>2021-11-14T14:00:50Z</time>
      </trkpt>
      <trkpt lat="4.589963" lon="-75.159119">
        <ele>2639.1636</ele>
        <time>2021-11-14T14:00:51Z</time>
      </trkpt>
      <trkpt lat="4.589951" lon="-75.159157">
        <ele>2640.384</ele>
        <time>2021-11-14T14:00:52Z</time>
      </trkpt>
      <trkpt lat="4.58992" lon="-75.159248">
        <ele>2640.4756</ele>
        <time>2021-11-14T14:00:53Z</time>
      </trkpt>
      <trkpt lat="4.589913" lon="-75.159286">
        <ele>2640.1948</ele>
        <time>2021-11-14T14:00:54Z</time>
      </trkpt>
      <trkpt lat="4.589912" lon="-75.159317">
        <ele>2640.586</ele>
        <time>2021-11-14T14:00:55Z</time>
      </trkpt>
      <trkpt lat="4.589951" lon="-75.159401">
        <ele>2641.3018</ele>
        <time>2021-11-14T14:00:56Z</time>
      </trkpt>
      <trkpt lat="4.589991" lon="-75.159477">
        <ele>2642.281</ele>
        <time>2021-11-14T14:00:57Z</time>
      </trkpt>
      <trkpt lat="4.590004" lon="-75.159492">
        <ele>2642.6016</ele>
        <time>2021-11-14T14:00:58Z</time>
      </trkpt>
      <trkpt lat="4.590004" lon="-75.159492">
        <ele>2642.005</ele>
        <time>2021-11-14T14:00:59Z</time>
      </trkpt>
      <trkpt lat="4.59008" lon="-75.159523">
        <ele>2644.024</ele>
        <time>2021-11-14T14:01:00Z</time>
      </trkpt>
      <trkpt lat="4.590105" lon="-75.159523">
        <ele>2643.7292</ele>
        <time>2021-11-14T14:01:01Z</time>
      </trkpt>
      <trkpt lat="4.590178" lon="-75.159508">
        <ele>2646.2974</ele>
        <time>2021-11-14T14:01:02Z</time>
      </trkpt>
      <trkpt lat="4.590287" lon="-75.159454">
        <ele>2646.7322</ele>
        <time>2021-11-14T14:01:03Z</time>
      </trkpt>
      <trkpt lat="4.590317" lon="-75.159454">
        <ele>2646.9688</ele>
        <time>2021-11-14T14:01:04Z</time>
      </trkpt>
      <trkpt lat="4.590328" lon="-75.159477">
        <ele>2647.1245</ele>
        <time>2021-11-14T14:01:05Z</time>
      </trkpt>
      <trkpt lat="4.590368" lon="-75.159515">
        <ele>2650.004</ele>
        <time>2021-11-14T14:01:06Z</time>
      </trkpt>
      <trkpt lat="4.590413" lon="-75.159538">
        <ele>2648.8613</ele>
        <time>2021-11-14T14:01:07Z</time>
      </trkpt>
      <trkpt lat="4.590419" lon="-75.159569">
        <ele>2649.5662</ele>
        <time>2021-11-14T14:01:08Z</time>
      </trkpt>
      <trkpt lat="4.590437" lon="-75.159599">
        <ele>2648.9197</ele>
        <time>2021-11-14T14:01:09Z</time>
      </trkpt>
      <trkpt lat="4.590478" lon="-75.159653">
        <ele>2649.1292</ele>
        <time>2021-11-14T14:01:10Z</time>
      </trkpt>
      <trkpt lat="4.590523" lon="-75.159714">
        <ele>2649.4592</ele>
        <time>2021-11-14T14:01:11Z</time>
      </trkpt>
      <trkpt lat="4.590524" lon="-75.159782">
        <ele>2650.9922</ele>
        <time>2021-11-14T14:01:12Z</time>
      </trkpt>
      <trkpt lat="4.590568" lon="-75.15979">
        <ele>2650.4348</ele>
        <time>2021-11-14T14:01:13Z</time>
      </trkpt>
      <trkpt lat="4.590581" lon="-75.159843">
        <ele>2651.7275</ele>
        <time>2021-11-14T14:01:14Z</time>
      </trkpt>
      <trkpt lat="4.590587" lon="-75.159874">
        <ele>2651.443</ele>
        <time>2021-11-14T14:01:15Z</time>
      </trkpt>
      <trkpt lat="4.590577" lon="-75.15992">
        <ele>2651.9802</ele>
        <time>2021-11-14T14:01:16Z</time>
      </trkpt>
      <trkpt lat="4.590572" lon="-75.15995">
        <ele>2652.9458</ele>
        <time>2021-11-14T14:01:17Z</time>
      </trkpt>
      <trkpt lat="4.590521" lon="-75.159981">
        <ele>2652.401</ele>
        <time>2021-11-14T14:01:18Z</time>
      </trkpt>
      <trkpt lat="4.590533" lon="-75.159996">
        <ele>2652.4714</ele>
        <time>2021-11-14T14:01:19Z</time>
      </trkpt>
      <trkpt lat="4.590458" lon="-75.160072">
        <ele>2652.6836</ele>
        <time>2021-11-14T14:01:20Z</time>
      </trkpt>
      <trkpt lat="4.590451" lon="-75.160088">
        <ele>2653.7085</ele>
        <time>2021-11-14T14:01:21Z</time>
      </trkpt>
      <trkpt lat="4.590443" lon="-75.160164">
        <ele>2655.4778</ele>
        <time>2021-11-14T14:01:22Z</time>
      </trkpt>
      <trkpt lat="4.590461" lon="-75.16011">
        <ele>2655.6343</ele>
        <time>2021-11-14T14:01:23Z</time>
      </trkpt>
      <trkpt lat="4.590544" lon="-75.160217">
        <ele>2655.9902</ele>
        <time>2021-11-14T14:01:24Z</time>
      </trkpt>
      <trkpt lat="4.590509" lon="-75.16021">
        <ele>2656.21</ele>
        <time>2021-11-14T14:01:25Z</time>
      </trkpt>
      <trkpt lat="4.590548" lon="-75.16024">
        <ele>2656.1497</ele>
        <time>2021-11-14T14:01:26Z</time>
      </trkpt>
      <trkpt lat="4.590535" lon="-75.160294">
        <ele>2656.045</ele>
        <time>2021-11-14T14:01:27Z</time>
      </trkpt>
      <trkpt lat="4.590543" lon="-75.160362">
        <ele>2655.7783</ele>
        <time>2021-11-14T14:01:28Z</time>
      </trkpt>
      <trkpt lat="4.590549" lon="-75.160439">
        <ele>2655.3877</ele>
        <time>2021-11-14T14:01:29Z</time>
      </trkpt>
      <trkpt lat="4.590561" lon="-75.1605">
        <ele>2658.623</ele>
        <time>2021-11-14T14:01:30Z</time>
      </trkpt>
      <trkpt lat="4.590532" lon="-75.160454">
        <ele>2658.692</ele>
        <time>2021-11-14T14:01:31Z</time>
      </trkpt>
      <trkpt lat="4.590525" lon="-75.160568">
        <ele>2660.167</ele>
        <time>2021-11-14T14:01:33Z</time>
      </trkpt>
      <trkpt lat="4.590459" lon="-75.160637">
        <ele>2659.5515</ele>
        <time>2021-11-14T14:01:34Z</time>
      </trkpt>
      <trkpt lat="4.590378" lon="-75.160629">
        <ele>2658.2742</ele>
        <time>2021-11-14T14:01:35Z</time>
      </trkpt>
      <trkpt lat="4.590421" lon="-75.160622">
        <ele>2657.6416</ele>
        <time>2021-11-14T14:01:36Z</time>
      </trkpt>
      <trkpt lat="4.5904" lon="-75.160637">
        <ele>2657.7012</ele>
        <time>2021-11-14T14:01:37Z</time>
      </trkpt>
      <trkpt lat="4.590402" lon="-75.160675">
        <ele>2658.7798</ele>
        <time>2021-11-14T14:01:38Z</time>
      </trkpt>
      <trkpt lat="4.590438" lon="-75.160751">
        <ele>2658.9502</ele>
        <time>2021-11-14T14:01:39Z</time>
      </trkpt>
      <trkpt lat="4.5905" lon="-75.160751">
        <ele>2659.1719</ele>
        <time>2021-11-14T14:01:40Z</time>
      </trkpt>
      <trkpt lat="4.590542" lon="-75.160812">
        <ele>2658.8647</ele>
        <time>2021-11-14T14:01:41Z</time>
      </trkpt>
      <trkpt lat="4.590597" lon="-75.160904">
        <ele>2657.8867</ele>
        <time>2021-11-14T14:01:42Z</time>
      </trkpt>
      <trkpt lat="4.590618" lon="-75.16098">
        <ele>2658.1577</ele>
        <time>2021-11-14T14:01:43Z</time>
      </trkpt>
      <trkpt lat="4.590605" lon="-75.161041">
        <ele>2661.1687</ele>
        <time>2021-11-14T14:01:44Z</time>
      </trkpt>
      <trkpt lat="4.590595" lon="-75.161118">
        <ele>2661.2205</ele>
        <time>2021-11-14T14:01:45Z</time>
      </trkpt>
      <trkpt lat="4.590586" lon="-75.161171">
        <ele>2660.9395</ele>
        <time>2021-11-14T14:01:46Z</time>
      </trkpt>
      <trkpt lat="4.590543" lon="-75.16124">
        <ele>2661.75</ele>
        <time>2021-11-14T14:01:47Z</time>
      </trkpt>
      <trkpt lat="4.590514" lon="-75.161331">
        <ele>2662.8926</ele>
        <time>2021-11-14T14:01:48Z</time>
      </trkpt>
      <trkpt lat="4.590515" lon="-75.161369">
        <ele>2664.366</ele>
        <time>2021-11-14T14:01:49Z</time>
      </trkpt>
      <trkpt lat="4.590534" lon="-75.161423">
        <ele>2665.8704</ele>
        <time>2021-11-14T14:01:50Z</time>
      </trkpt>
      <trkpt lat="4.590585" lon="-75.161476">
        <ele>2669.2295</ele>
        <time>2021-11-14T14:01:51Z</time>
      </trkpt>
      <trkpt lat="4.59077" lon="-75.161324">
        <ele>2669.8865</ele>
        <time>2021-11-14T14:01:52Z</time>
      </trkpt>
      <trkpt lat="4.590845" lon="-75.161285">
        <ele>2669.4397</ele>
        <time>2021-11-14T14:01:53Z</time>
      </trkpt>
      <trkpt lat="4.590862" lon="-75.16127">
        <ele>2668.1113</ele>
        <time>2021-11-14T14:01:54Z</time>
      </trkpt>
      <trkpt lat="4.590966" lon="-75.161255">
        <ele>2668.967</ele>
        <time>2021-11-14T14:01:55Z</time>
      </trkpt>
      <trkpt lat="4.591009" lon="-75.161293">
        <ele>2669.6763</ele>
        <time>2021-11-14T14:01:56Z</time>
      </trkpt>
      <trkpt lat="4.591185" lon="-75.161301">
        <ele>2670.151</ele>
        <time>2021-11-14T14:01:57Z</time>
      </trkpt>
      <trkpt lat="4.591224" lon="-75.161293">
        <ele>2672.5652</ele>
        <time>2021-11-14T14:01:58Z</time>
      </trkpt>
      <trkpt lat="4.59128" lon="-75.16124">
        <ele>2672.6238</ele>
        <time>2021-11-14T14:01:59Z</time>
      </trkpt>
      <trkpt lat="4.591339" lon="-75.161186">
        <ele>2674.457</ele>
        <time>2021-11-14T14:02:00Z</time>
      </trkpt>
      <trkpt lat="4.591427" lon="-75.16111">
        <ele>2675.8223</ele>
        <time>2021-11-14T14:02:01Z</time>
      </trkpt>
      <trkpt lat="4.59143" lon="-75.161133">
        <ele>2676.884</ele>
        <time>2021-11-14T14:02:02Z</time>
      </trkpt>
      <trkpt lat="4.59147" lon="-75.161125">
        <ele>2676.113</ele>
        <time>2021-11-14T14:02:03Z</time>
      </trkpt>
      <trkpt lat="4.591487" lon="-75.161171">
        <ele>2677.6802</ele>
        <time>2021-11-14T14:02:04Z</time>
      </trkpt>
      <trkpt lat="4.591529" lon="-75.161209">
        <ele>2677.2078</ele>
        <time>2021-11-14T14:02:05Z</time>
      </trkpt>
      <trkpt lat="4.591538" lon="-75.161331">
        <ele>2678.4358</ele>
        <time>2021-11-14T14:02:06Z</time>
      </trkpt>
      <trkpt lat="4.591523" lon="-75.161339">
        <ele>2679.3755</ele>
        <time>2021-11-14T14:02:07Z</time>
      </trkpt>
      <trkpt lat="4.591524" lon="-75.161301">
        <ele>2679.7507</ele>
        <time>2021-11-14T14:02:08Z</time>
      </trkpt>
      <trkpt lat="4.591556" lon="-75.1614">
        <ele>2680.0188</ele>
        <time>2021-11-14T14:02:09Z</time>
      </trkpt>
      <trkpt lat="4.591511" lon="-75.161461">
        <ele>2679.8584</ele>
        <time>2021-11-14T14:02:10Z</time>
      </trkpt>
      <trkpt lat="4.591577" lon="-75.161491">
        <ele>2680.0803</ele>
        <time>2021-11-14T14:02:11Z</time>
      </trkpt>
      <trkpt lat="4.591702" lon="-75.161514">
        <ele>2680.5564</ele>
        <time>2021-11-14T14:02:12Z</time>
      </trkpt>
      <trkpt lat="4.591677" lon="-75.161613">
        <ele>2680.1646</ele>
        <time>2021-11-14T14:02:13Z</time>
      </trkpt>
      <trkpt lat="4.591769" lon="-75.161598">
        <ele>2682.351</ele>
        <time>2021-11-14T14:02:14Z</time>
      </trkpt>
      <trkpt lat="4.591907" lon="-75.161537">
        <ele>2682.3333</ele>
        <time>2021-11-14T14:02:15Z</time>
      </trkpt>
      <trkpt lat="4.591929" lon="-75.161446">
        <ele>2680.6843</ele>
        <time>2021-11-14T14:02:16Z</time>
      </trkpt>
      <trkpt lat="4.591956" lon="-75.161491">
        <ele>2681.971</ele>
        <time>2021-11-14T14:02:17Z</time>
      </trkpt>
      <trkpt lat="4.592038" lon="-75.16153">
        <ele>2683.7842</ele>
        <time>2021-11-14T14:02:18Z</time>
      </trkpt>
      <trkpt lat="4.592048" lon="-75.161499">
        <ele>2686.8328</ele>
        <time>2021-11-14T14:02:19Z</time>
      </trkpt>
      <trkpt lat="4.592079" lon="-75.161514">
        <ele>2688.4456</ele>
        <time>2021-11-14T14:02:20Z</time>
      </trkpt>
      <trkpt lat="4.592139" lon="-75.161613">
        <ele>2688.9333</ele>
        <time>2021-11-14T14:02:21Z</time>
      </trkpt>
      <trkpt lat="4.592141" lon="-75.161606">
        <ele>2689.1655</ele>
        <time>2021-11-14T14:02:22Z</time>
      </trkpt>
      <trkpt lat="4.59216" lon="-75.161644">
        <ele>2689.738</ele>
        <time>2021-11-14T14:02:23Z</time>
      </trkpt>
      <trkpt lat="4.592177" lon="-75.161659">
        <ele>2691.2166</ele>
        <time>2021-11-14T14:02:24Z</time>
      </trkpt>
      <trkpt lat="4.592195" lon="-75.16169">
        <ele>2691.6187</ele>
        <time>2021-11-14T14:02:25Z</time>
      </trkpt>
      <trkpt lat="4.592243" lon="-75.161774">
        <ele>2691.1482</ele>
        <time>2021-11-14T14:02:26Z</time>
      </trkpt>
      <trkpt lat="4.592256" lon="-75.161751">
        <ele>2693.0876</ele>
        <time>2021-11-14T14:02:27Z</time>
      </trkpt>
      <trkpt lat="4.592301" lon="-75.161804">
        <ele>2694.0203</ele>
        <time>2021-11-14T14:02:28Z</time>
      </trkpt>
      <trkpt lat="4.592318" lon="-75.161819">
        <ele>2693.3784</ele>
        <time>2021-11-14T14:02:29Z</time>
      </trkpt>
      <trkpt lat="4.59238" lon="-75.161903">
        <ele>2695.4663</ele>
        <time>2021-11-14T14:02:31Z</time>
      </trkpt>
      <trkpt lat="4.59242" lon="-75.161942">
        <ele>2695.904</ele>
        <time>2021-11-14T14:02:32Z</time>
      </trkpt>
      <trkpt lat="4.592477" lon="-75.161949">
        <ele>2695.3833</ele>
        <time>2021-11-14T14:02:33Z</time>
      </trkpt>
      <trkpt lat="4.592547" lon="-75.16198">
        <ele>2695.6794</ele>
        <time>2021-11-14T14:02:34Z</time>
      </trkpt>
      <trkpt lat="4.592595" lon="-75.16201">
        <ele>2696.0361</ele>
        <time>2021-11-14T14:02:35Z</time>
      </trkpt>
      <trkpt lat="4.592622" lon="-75.162025">
        <ele>2697.6953</ele>
        <time>2021-11-14T14:02:36Z</time>
      </trkpt>
      <trkpt lat="4.592594" lon="-75.162064">
        <ele>2697.567</ele>
        <time>2021-11-14T14:02:37Z</time>
      </trkpt>
      <trkpt lat="4.592536" lon="-75.162132">
        <ele>2698.0168</ele>
        <time>2021-11-14T14:02:38Z</time>
      </trkpt>
      <trkpt lat="4.592507" lon="-75.162163">
        <ele>2697.5098</ele>
        <time>2021-11-14T14:02:39Z</time>
      </trkpt>
      <trkpt lat="4.592457" lon="-75.162209">
        <ele>2697.5166</ele>
        <time>2021-11-14T14:02:40Z</time>
      </trkpt>
      <trkpt lat="4.592404" lon="-75.162285">
        <ele>2700.2002</ele>
        <time>2021-11-14T14:02:41Z</time>
      </trkpt>
      <trkpt lat="4.592403" lon="-75.162315">
        <ele>2700.1912</ele>
        <time>2021-11-14T14:02:42Z</time>
      </trkpt>
      <trkpt lat="4.592408" lon="-75.162323">
        <ele>2699.0498</ele>
        <time>2021-11-14T14:02:43Z</time>
      </trkpt>
      <trkpt lat="4.592382" lon="-75.162392">
        <ele>2699.7798</ele>
        <time>2021-11-14T14:02:44Z</time>
      </trkpt>
      <trkpt lat="4.592349" lon="-75.162437">
        <ele>2699.5017</ele>
        <time>2021-11-14T14:02:45Z</time>
      </trkpt>
      <trkpt lat="4.592349" lon="-75.162437">
        <ele>2698.1116</ele>
        <time>2021-11-14T14:02:46Z</time>
      </trkpt>
      <trkpt lat="4.592342" lon="-75.162422">
        <ele>2700.169</ele>
        <time>2021-11-14T14:02:47Z</time>
      </trkpt>
      <trkpt lat="4.59226" lon="-75.162445">
        <ele>2700.294</ele>
        <time>2021-11-14T14:02:48Z</time>
      </trkpt>
      <trkpt lat="4.592138" lon="-75.162445">
        <ele>2699.7156</ele>
        <time>2021-11-14T14:02:49Z</time>
      </trkpt>
      <trkpt lat="4.592134" lon="-75.162483">
        <ele>2698.7034</ele>
        <time>2021-11-14T14:02:50Z</time>
      </trkpt>
      <trkpt lat="4.592146" lon="-75.162476">
        <ele>2698.43</ele>
        <time>2021-11-14T14:02:51Z</time>
      </trkpt>
      <trkpt lat="4.592041" lon="-75.16246">
        <ele>2699.0154</ele>
        <time>2021-11-14T14:02:52Z</time>
      </trkpt>
      <trkpt lat="4.591973" lon="-75.162468">
        <ele>2698.3433</ele>
        <time>2021-11-14T14:02:53Z</time>
      </trkpt>
      <trkpt lat="4.591934" lon="-75.162506">
        <ele>2697.8547</ele>
        <time>2021-11-14T14:02:54Z</time>
      </trkpt>
      <trkpt lat="4.591887" lon="-75.162552">
        <ele>2698.0896</ele>
        <time>2021-11-14T14:02:55Z</time>
      </trkpt>
      <trkpt lat="4.591876" lon="-75.16259">
        <ele>2698.3992</ele>
        <time>2021-11-14T14:02:56Z</time>
      </trkpt>
      <trkpt lat="4.591851" lon="-75.162628">
        <ele>2698.7896</ele>
        <time>2021-11-14T14:02:57Z</time>
      </trkpt>
      <trkpt lat="4.591879" lon="-75.162674">
        <ele>2699.0303</ele>
        <time>2021-11-14T14:02:58Z</time>
      </trkpt>
      <trkpt lat="4.591885" lon="-75.16275">
        <ele>2697.6267</ele>
        <time>2021-11-14T14:02:59Z</time>
      </trkpt>
      <trkpt lat="4.591932" lon="-75.162827">
        <ele>2697.8647</ele>
        <time>2021-11-14T14:03:00Z</time>
      </trkpt>
      <trkpt lat="4.59193" lon="-75.162849">
        <ele>2696.5156</ele>
        <time>2021-11-14T14:03:02Z</time>
      </trkpt>
      <trkpt lat="4.591918" lon="-75.162926">
        <ele>2695.8516</ele>
        <time>2021-11-14T14:03:03Z</time>
      </trkpt>
      <trkpt lat="4.591899" lon="-75.162933">
        <ele>2695.9429</ele>
        <time>2021-11-14T14:03:04Z</time>
      </trkpt>
      <trkpt lat="4.591848" lon="-75.162994">
        <ele>2695.3071</ele>
        <time>2021-11-14T14:03:05Z</time>
      </trkpt>
      <trkpt lat="4.591786" lon="-75.163101">
        <ele>2696.0498</ele>
        <time>2021-11-14T14:03:06Z</time>
      </trkpt>
      <trkpt lat="4.591802" lon="-75.163109">
        <ele>2696.5725</ele>
        <time>2021-11-14T14:03:07Z</time>
      </trkpt>
      <trkpt lat="4.591748" lon="-75.163254">
        <ele>2696.4595</ele>
        <time>2021-11-14T14:03:08Z</time>
      </trkpt>
      <trkpt lat="4.591761" lon="-75.163185">
        <ele>2695.95</ele>
        <time>2021-11-14T14:03:09Z</time>
      </trkpt>
      <trkpt lat="4.591691" lon="-75.163338">
        <ele>2695.785</ele>
        <time>2021-11-14T14:03:10Z</time>
      </trkpt>
      <trkpt lat="4.591733" lon="-75.163231">
        <ele>2696.2644</ele>
        <time>2021-11-14T14:03:11Z</time>
      </trkpt>
      <trkpt lat="4.591635" lon="-75.16333">
        <ele>2696.3955</ele>
        <time>2021-11-14T14:03:12Z</time>
      </trkpt>
      <trkpt lat="4.591608" lon="-75.163353">
        <ele>2696.6199</ele>
        <time>2021-11-14T14:03:13Z</time>
      </trkpt>
      <trkpt lat="4.591583" lon="-75.163391">
        <ele>2695.7102</ele>
        <time>2021-11-14T14:03:14Z</time>
      </trkpt>
      <trkpt lat="4.591515" lon="-75.163445">
        <ele>2694.9236</ele>
        <time>2021-11-14T14:03:15Z</time>
      </trkpt>
      <trkpt lat="4.591473" lon="-75.16349">
        <ele>2696.1113</ele>
        <time>2021-11-14T14:03:16Z</time>
      </trkpt>
      <trkpt lat="4.591533" lon="-75.163528">
        <ele>2696.1113</ele>
        <time>2021-11-14T14:03:17Z</time>
      </trkpt>
      <trkpt lat="4.591674" lon="-75.163597">
        <ele>2697.4216</ele>
        <time>2021-11-14T14:03:18Z</time>
      </trkpt>
      <trkpt lat="4.591743" lon="-75.163597">
        <ele>2697.4216</ele>
        <time>2021-11-14T14:03:19Z</time>
      </trkpt>
      <trkpt lat="4.591788" lon="-75.163666">
        <ele>2697.436</ele>
        <time>2021-11-14T14:03:20Z</time>
      </trkpt>
      <trkpt lat="4.591817" lon="-75.163719">
        <ele>2697.436</ele>
        <time>2021-11-14T14:03:21Z</time>
      </trkpt>
      <trkpt lat="4.591868" lon="-75.163811">
        <ele>2700.0928</ele>
        <time>2021-11-14T14:03:22Z</time>
      </trkpt>
      <trkpt lat="4.59192" lon="-75.163795">
        <ele>2700.0928</ele>
        <time>2021-11-14T14:03:23Z</time>
      </trkpt>
      <trkpt lat="4.592012" lon="-75.163841">
        <ele>2697.8474</ele>
        <time>2021-11-14T14:03:24Z</time>
      </trkpt>
      <trkpt lat="4.592045" lon="-75.16391">
        <ele>2697.8474</ele>
        <time>2021-11-14T14:03:25Z</time>
      </trkpt>
      <trkpt lat="4.592092" lon="-75.163971">
        <ele>2698.922</ele>
        <time>2021-11-14T14:03:26Z</time>
      </trkpt>
      <trkpt lat="4.592143" lon="-75.163948">
        <ele>2698.922</ele>
        <time>2021-11-14T14:03:27Z</time>
      </trkpt>
      <trkpt lat="4.5922" lon="-75.16391">
        <ele>2701.4907</ele>
        <time>2021-11-14T14:03:28Z</time>
      </trkpt>
      <trkpt lat="4.592245" lon="-75.163887">
        <ele>2700.6123</ele>
        <time>2021-11-14T14:03:29Z</time>
      </trkpt>
      <trkpt lat="4.592286" lon="-75.163857">
        <ele>2700.6123</ele>
        <time>2021-11-14T14:03:30Z</time>
      </trkpt>
      <trkpt lat="4.592338" lon="-75.163818">
        <ele>2701.2947</ele>
        <time>2021-11-14T14:03:31Z</time>
      </trkpt>
      <trkpt lat="4.592391" lon="-75.163803">
        <ele>2699.8086</ele>
        <time>2021-11-14T14:03:32Z</time>
      </trkpt>
      <trkpt lat="4.592425" lon="-75.163826">
        <ele>2700.1309</ele>
        <time>2021-11-14T14:03:33Z</time>
      </trkpt>
      <trkpt lat="4.592468" lon="-75.163879">
        <ele>2700.5696</ele>
        <time>2021-11-14T14:03:34Z</time>
      </trkpt>
      <trkpt lat="4.592504" lon="-75.163925">
        <ele>2701.2954</ele>
        <time>2021-11-14T14:03:35Z</time>
      </trkpt>
      <trkpt lat="4.592549" lon="-75.164024">
        <ele>2702.1438</ele>
        <time>2021-11-14T14:03:36Z</time>
      </trkpt>
      <trkpt lat="4.592599" lon="-75.164055">
        <ele>2701.8787</ele>
        <time>2021-11-14T14:03:37Z</time>
      </trkpt>
      <trkpt lat="4.592646" lon="-75.164093">
        <ele>2701.594</ele>
        <time>2021-11-14T14:03:38Z</time>
      </trkpt>
      <trkpt lat="4.592728" lon="-75.164116">
        <ele>2702.3828</ele>
        <time>2021-11-14T14:03:39Z</time>
      </trkpt>
      <trkpt lat="4.592728" lon="-75.164116">
        <ele>2703.844</ele>
        <time>2021-11-14T14:03:40Z</time>
      </trkpt>
      <trkpt lat="4.592787" lon="-75.164108">
        <ele>2704.7148</ele>
        <time>2021-11-14T14:03:41Z</time>
      </trkpt>
      <trkpt lat="4.592798" lon="-75.164124">
        <ele>2705.927</ele>
        <time>2021-11-14T14:03:42Z</time>
      </trkpt>
      <trkpt lat="4.592823" lon="-75.164185">
        <ele>2705.7935</ele>
        <time>2021-11-14T14:03:43Z</time>
      </trkpt>
      <trkpt lat="4.59285" lon="-75.164207">
        <ele>2705.4326</ele>
        <time>2021-11-14T14:03:44Z</time>
      </trkpt>
      <trkpt lat="4.59282" lon="-75.16423">
        <ele>2704.7214</ele>
        <time>2021-11-14T14:03:45Z</time>
      </trkpt>
      <trkpt lat="4.592793" lon="-75.164268">
        <ele>2705.9248</ele>
        <time>2021-11-14T14:03:46Z</time>
      </trkpt>
      <trkpt lat="4.592636" lon="-75.164368">
        <ele>2706.1653</ele>
        <time>2021-11-14T14:03:47Z</time>
      </trkpt>
      <trkpt lat="4.592647" lon="-75.164391">
        <ele>2707.3674</ele>
        <time>2021-11-14T14:03:48Z</time>
      </trkpt>
      <trkpt lat="4.592614" lon="-75.164421">
        <ele>2706.449</ele>
        <time>2021-11-14T14:03:49Z</time>
      </trkpt>
      <trkpt lat="4.592545" lon="-75.164482">
        <ele>2706.7664</ele>
        <time>2021-11-14T14:03:50Z</time>
      </trkpt>
      <trkpt lat="4.592525" lon="-75.164505">
        <ele>2706.449</ele>
        <time>2021-11-14T14:03:51Z</time>
      </trkpt>
      <trkpt lat="4.592543" lon="-75.164536">
        <ele>2706.0203</ele>
        <time>2021-11-14T14:03:52Z</time>
      </trkpt>
      <trkpt lat="4.592473" lon="-75.164604">
        <ele>2706.7844</ele>
        <time>2021-11-14T14:03:53Z</time>
      </trkpt>
      <trkpt lat="4.592474" lon="-75.164635">
        <ele>2706.8286</ele>
        <time>2021-11-14T14:03:54Z</time>
      </trkpt>
      <trkpt lat="4.592483" lon="-75.164673">
        <ele>2707.2852</ele>
        <time>2021-11-14T14:03:55Z</time>
      </trkpt>
      <trkpt lat="4.592469" lon="-75.164734">
        <ele>2705.8015</ele>
        <time>2021-11-14T14:03:56Z</time>
      </trkpt>
      <trkpt lat="4.592473" lon="-75.164787">
        <ele>2705.763</ele>
        <time>2021-11-14T14:03:57Z</time>
      </trkpt>
      <trkpt lat="4.592494" lon="-75.164856">
        <ele>2705.7278</ele>
        <time>2021-11-14T14:03:58Z</time>
      </trkpt>
      <trkpt lat="4.592487" lon="-75.16494">
        <ele>2705.7144</ele>
        <time>2021-11-14T14:03:59Z</time>
      </trkpt>
      <trkpt lat="4.5925" lon="-75.164932">
        <ele>2706.1843</ele>
        <time>2021-11-14T14:04:00Z</time>
      </trkpt>
      <trkpt lat="4.592515" lon="-75.16494">
        <ele>2706.7786</ele>
        <time>2021-11-14T14:04:01Z</time>
      </trkpt>
      <trkpt lat="4.592508" lon="-75.164955">
        <ele>2706.6882</ele>
        <time>2021-11-14T14:04:02Z</time>
      </trkpt>
      <trkpt lat="4.592516" lon="-75.16497">
        <ele>2706.4282</ele>
        <time>2021-11-14T14:04:03Z</time>
      </trkpt>
      <trkpt lat="4.592514" lon="-75.16497">
        <ele>2706.974</ele>
        <time>2021-11-14T14:04:04Z</time>
      </trkpt>
      <trkpt lat="4.592511" lon="-75.164978">
        <ele>2707.3208</ele>
        <time>2021-11-14T14:04:06Z</time>
      </trkpt>
      <trkpt lat="4.592512" lon="-75.164978">
        <ele>2707.3672</ele>
        <time>2021-11-14T14:04:07Z</time>
      </trkpt>
      <trkpt lat="4.592517" lon="-75.16497">
        <ele>2707.5312</ele>
        <time>2021-11-14T14:04:08Z</time>
      </trkpt>
      <trkpt lat="4.592516" lon="-75.16497">
        <ele>2707.7517</ele>
        <time>2021-11-14T14:04:09Z</time>
      </trkpt>
      <trkpt lat="4.592516" lon="-75.164978">
        <ele>2707.1868</ele>
        <time>2021-11-14T14:04:10Z</time>
      </trkpt>
      <trkpt lat="4.592518" lon="-75.164993">
        <ele>2708.2668</ele>
        <time>2021-11-14T14:04:11Z</time>
      </trkpt>
      <trkpt lat="4.592541" lon="-75.165054">
        <ele>2708.9038</ele>
        <time>2021-11-14T14:04:12Z</time>
      </trkpt>
      <trkpt lat="4.592571" lon="-75.165077">
        <ele>2709.1558</ele>
        <time>2021-11-14T14:04:13Z</time>
      </trkpt>
      <trkpt lat="4.592596" lon="-75.165108">
        <ele>2709.363</ele>
        <time>2021-11-14T14:04:14Z</time>
      </trkpt>
      <trkpt lat="4.592611" lon="-75.165146">
        <ele>2709.4253</ele>
        <time>2021-11-14T14:04:15Z</time>
      </trkpt>
      <trkpt lat="4.592633" lon="-75.165192">
        <ele>2709.9417</ele>
        <time>2021-11-14T14:04:16Z</time>
      </trkpt>
      <trkpt lat="4.592678" lon="-75.165268">
        <ele>2709.4492</ele>
        <time>2021-11-14T14:04:17Z</time>
      </trkpt>
      <trkpt lat="4.592709" lon="-75.165344">
        <ele>2708.7046</ele>
        <time>2021-11-14T14:04:18Z</time>
      </trkpt>
      <trkpt lat="4.59268" lon="-75.165337">
        <ele>2708.2864</ele>
        <time>2021-11-14T14:04:19Z</time>
      </trkpt>
      <trkpt lat="4.592679" lon="-75.165398">
        <ele>2706.949</ele>
        <time>2021-11-14T14:04:20Z</time>
      </trkpt>
      <trkpt lat="4.592654" lon="-75.165504">
        <ele>2706.1687</ele>
        <time>2021-11-14T14:04:21Z</time>
      </trkpt>
      <trkpt lat="4.592628" lon="-75.165604">
        <ele>2705.473</ele>
        <time>2021-11-14T14:04:22Z</time>
      </trkpt>
      <trkpt lat="4.592628" lon="-75.165642">
        <ele>2705.2925</ele>
        <time>2021-11-14T14:04:24Z</time>
      </trkpt>
      <trkpt lat="4.592592" lon="-75.16568">
        <ele>2706.4746</ele>
        <time>2021-11-14T14:04:25Z</time>
      </trkpt>
      <trkpt lat="4.592565" lon="-75.16571">
        <ele>2706.656</ele>
        <time>2021-11-14T14:04:26Z</time>
      </trkpt>
      <trkpt lat="4.59254" lon="-75.165741">
        <ele>2706.0247</ele>
        <time>2021-11-14T14:04:27Z</time>
      </trkpt>
      <trkpt lat="4.592526" lon="-75.165741">
        <ele>2706.5964</ele>
        <time>2021-11-14T14:04:28Z</time>
      </trkpt>
      <trkpt lat="4.592528" lon="-75.165756">
        <ele>2707.1387</ele>
        <time>2021-11-14T14:04:29Z</time>
      </trkpt>
      <trkpt lat="4.592498" lon="-75.165787">
        <ele>2705.807</ele>
        <time>2021-11-14T14:04:30Z</time>
      </trkpt>
      <trkpt lat="4.592532" lon="-75.165833">
        <ele>2705.3533</ele>
        <time>2021-11-14T14:04:31Z</time>
      </trkpt>
      <trkpt lat="4.592548" lon="-75.16584">
        <ele>2704.9734</ele>
        <time>2021-11-14T14:04:32Z</time>
      </trkpt>
      <trkpt lat="4.592567" lon="-75.165886">
        <ele>2705.5063</ele>
        <time>2021-11-14T14:04:33Z</time>
      </trkpt>
      <trkpt lat="4.592598" lon="-75.165871">
        <ele>2705.118</ele>
        <time>2021-11-14T14:04:34Z</time>
      </trkpt>
      <trkpt lat="4.592598" lon="-75.165871">
        <ele>2705.473</ele>
        <time>2021-11-14T14:04:35Z</time>
      </trkpt>
      <trkpt lat="4.592616" lon="-75.165863">
        <ele>2705.5571</ele>
        <time>2021-11-14T14:04:36Z</time>
      </trkpt>
      <trkpt lat="4.592655" lon="-75.165848">
        <ele>2706.5354</ele>
        <time>2021-11-14T14:04:37Z</time>
      </trkpt>
      <trkpt lat="4.592667" lon="-75.165855">
        <ele>2707.338</ele>
        <time>2021-11-14T14:04:38Z</time>
      </trkpt>
      <trkpt lat="4.592752" lon="-75.165878">
        <ele>2707.4102</ele>
        <time>2021-11-14T14:04:39Z</time>
      </trkpt>
      <trkpt lat="4.592733" lon="-75.165886">
        <ele>2707.1772</ele>
        <time>2021-11-14T14:04:40Z</time>
      </trkpt>
      <trkpt lat="4.592746" lon="-75.165901">
        <ele>2708.1182</ele>
        <time>2021-11-14T14:04:41Z</time>
      </trkpt>
      <trkpt lat="4.592776" lon="-75.165916">
        <ele>2709.353</ele>
        <time>2021-11-14T14:04:42Z</time>
      </trkpt>
      <trkpt lat="4.592843" lon="-75.165916">
        <ele>2709.007</ele>
        <time>2021-11-14T14:04:43Z</time>
      </trkpt>
      <trkpt lat="4.592873" lon="-75.165916">
        <ele>2710.3948</ele>
        <time>2021-11-14T14:04:45Z</time>
      </trkpt>
      <trkpt lat="4.592899" lon="-75.165916">
        <ele>2710.6492</ele>
        <time>2021-11-14T14:04:46Z</time>
      </trkpt>
      <trkpt lat="4.592916" lon="-75.165909">
        <ele>2711.2942</ele>
        <time>2021-11-14T14:04:47Z</time>
      </trkpt>
      <trkpt lat="4.592935" lon="-75.165909">
        <ele>2711.56</ele>
        <time>2021-11-14T14:04:48Z</time>
      </trkpt>
      <trkpt lat="4.592996" lon="-75.165855">
        <ele>2713.2231</ele>
        <time>2021-11-14T14:04:49Z</time>
      </trkpt>
      <trkpt lat="4.593016" lon="-75.165825">
        <ele>2713.3223</ele>
        <time>2021-11-14T14:04:50Z</time>
      </trkpt>
      <trkpt lat="4.593044" lon="-75.165787">
        <ele>2712.977</ele>
        <time>2021-11-14T14:04:51Z</time>
      </trkpt>
      <trkpt lat="4.593067" lon="-75.165749">
        <ele>2712.55</ele>
        <time>2021-11-14T14:04:52Z</time>
      </trkpt>
      <trkpt lat="4.593124" lon="-75.165718">
        <ele>2712.2053</ele>
        <time>2021-11-14T14:04:53Z</time>
      </trkpt>
      <trkpt lat="4.593228" lon="-75.165695">
        <ele>2710.741</ele>
        <time>2021-11-14T14:04:54Z</time>
      </trkpt>
      <trkpt lat="4.593283" lon="-75.165642">
        <ele>2710.1853</ele>
        <time>2021-11-14T14:04:55Z</time>
      </trkpt>
      <trkpt lat="4.593315" lon="-75.165634">
        <ele>2710.0928</ele>
        <time>2021-11-14T14:04:56Z</time>
      </trkpt>
      <trkpt lat="4.593406" lon="-75.16555">
        <ele>2710.764</ele>
        <time>2021-11-14T14:04:57Z</time>
      </trkpt>
      <trkpt lat="4.593457" lon="-75.165527">
        <ele>2711.0251</ele>
        <time>2021-11-14T14:04:58Z</time>
      </trkpt>
      <trkpt lat="4.593506" lon="-75.165512">
        <ele>2712.036</ele>
        <time>2021-11-14T14:04:59Z</time>
      </trkpt>
      <trkpt lat="4.59356" lon="-75.16552">
        <ele>2713.1372</ele>
        <time>2021-11-14T14:05:00Z</time>
      </trkpt>
      <trkpt lat="4.593617" lon="-75.165474">
        <ele>2712.9983</ele>
        <time>2021-11-14T14:05:01Z</time>
      </trkpt>
      <trkpt lat="4.593657" lon="-75.165398">
        <ele>2711.8455</ele>
        <time>2021-11-14T14:05:02Z</time>
      </trkpt>
      <trkpt lat="4.593683" lon="-75.165375">
        <ele>2710.539</ele>
        <time>2021-11-14T14:05:03Z</time>
      </trkpt>
      <trkpt lat="4.593715" lon="-75.165344">
        <ele>2712.0164</ele>
        <time>2021-11-14T14:05:04Z</time>
      </trkpt>
      <trkpt lat="4.593776" lon="-75.165321">
        <ele>2712.8442</ele>
        <time>2021-11-14T14:05:05Z</time>
      </trkpt>
      <trkpt lat="4.59384" lon="-75.165329">
        <ele>2712.7124</ele>
        <time>2021-11-14T14:05:06Z</time>
      </trkpt>
      <trkpt lat="4.593931" lon="-75.165359">
        <ele>2714.6912</ele>
        <time>2021-11-14T14:05:07Z</time>
      </trkpt>
      <trkpt lat="4.593933" lon="-75.165459">
        <ele>2715.38</ele>
        <time>2021-11-14T14:05:08Z</time>
      </trkpt>
      <trkpt lat="4.593886" lon="-75.16555">
        <ele>2716.4585</ele>
        <time>2021-11-14T14:05:09Z</time>
      </trkpt>
      <trkpt lat="4.593878" lon="-75.165611">
        <ele>2717.47</ele>
        <time>2021-11-14T14:05:10Z</time>
      </trkpt>
      <trkpt lat="4.593864" lon="-75.165665">
        <ele>2717.1323</ele>
        <time>2021-11-14T14:05:11Z</time>
      </trkpt>
      <trkpt lat="4.593815" lon="-75.16571">
        <ele>2717.1638</ele>
        <time>2021-11-14T14:05:12Z</time>
      </trkpt>
      <trkpt lat="4.593744" lon="-75.165695">
        <ele>2718.027</ele>
        <time>2021-11-14T14:05:13Z</time>
      </trkpt>
      <trkpt lat="4.593678" lon="-75.165695">
        <ele>2719.0796</ele>
        <time>2021-11-14T14:05:14Z</time>
      </trkpt>
      <trkpt lat="4.593569" lon="-75.16571">
        <ele>2719.8645</ele>
        <time>2021-11-14T14:05:15Z</time>
      </trkpt>
      <trkpt lat="4.593499" lon="-75.165741">
        <ele>2720.3425</ele>
        <time>2021-11-14T14:05:16Z</time>
      </trkpt>
      <trkpt lat="4.593468" lon="-75.165771">
        <ele>2720.9119</ele>
        <time>2021-11-14T14:05:17Z</time>
      </trkpt>
      <trkpt lat="4.593419" lon="-75.16581">
        <ele>2721.826</ele>
        <time>2021-11-14T14:05:18Z</time>
      </trkpt>
      <trkpt lat="4.593366" lon="-75.165878">
        <ele>2722.739</ele>
        <time>2021-11-14T14:05:19Z</time>
      </trkpt>
      <trkpt lat="4.593332" lon="-75.165916">
        <ele>2723.4775</ele>
        <time>2021-11-14T14:05:20Z</time>
      </trkpt>
      <trkpt lat="4.593332" lon="-75.165916">
        <ele>2723.9497</ele>
        <time>2021-11-14T14:05:21Z</time>
      </trkpt>
      <trkpt lat="4.59331" lon="-75.165947">
        <ele>2724.745</ele>
        <time>2021-11-14T14:05:22Z</time>
      </trkpt>
      <trkpt lat="4.593278" lon="-75.166008">
        <ele>2725.0425</ele>
        <time>2021-11-14T14:05:24Z</time>
      </trkpt>
      <trkpt lat="4.593245" lon="-75.166061">
        <ele>2725.6619</ele>
        <time>2021-11-14T14:05:25Z</time>
      </trkpt>
      <trkpt lat="4.593224" lon="-75.166153">
        <ele>2725.7126</ele>
        <time>2021-11-14T14:05:26Z</time>
      </trkpt>
      <trkpt lat="4.593214" lon="-75.166199">
        <ele>2726.1135</ele>
        <time>2021-11-14T14:05:27Z</time>
      </trkpt>
      <trkpt lat="4.593198" lon="-75.166283">
        <ele>2726.8352</ele>
        <time>2021-11-14T14:05:28Z</time>
      </trkpt>
      <trkpt lat="4.593187" lon="-75.166359">
        <ele>2727.5554</ele>
        <time>2021-11-14T14:05:29Z</time>
      </trkpt>
      <trkpt lat="4.593199" lon="-75.166412">
        <ele>2727.5288</ele>
        <time>2021-11-14T14:05:30Z</time>
      </trkpt>
      <trkpt lat="4.593247" lon="-75.166565">
        <ele>2729.7034</ele>
        <time>2021-11-14T14:05:31Z</time>
      </trkpt>
      <trkpt lat="4.593321" lon="-75.166519">
        <ele>2730.017</ele>
        <time>2021-11-14T14:05:32Z</time>
      </trkpt>
      <trkpt lat="4.593373" lon="-75.166573">
        <ele>2730.1658</ele>
        <time>2021-11-14T14:05:33Z</time>
      </trkpt>
      <trkpt lat="4.593424" lon="-75.166634">
        <ele>2730.6067</ele>
        <time>2021-11-14T14:05:34Z</time>
      </trkpt>
      <trkpt lat="4.59345" lon="-75.166641">
        <ele>2731.0078</ele>
        <time>2021-11-14T14:05:35Z</time>
      </trkpt>
      <trkpt lat="4.593458" lon="-75.166748">
        <ele>2731.1848</ele>
        <time>2021-11-14T14:05:36Z</time>
      </trkpt>
      <trkpt lat="4.593417" lon="-75.166733">
        <ele>2730.3167</ele>
        <time>2021-11-14T14:05:37Z</time>
      </trkpt>
      <trkpt lat="4.5934" lon="-75.166779">
        <ele>2731.319</ele>
        <time>2021-11-14T14:05:38Z</time>
      </trkpt>
      <trkpt lat="4.593331" lon="-75.166893">
        <ele>2733.813</ele>
        <time>2021-11-14T14:05:39Z</time>
      </trkpt>
      <trkpt lat="4.593331" lon="-75.166885">
        <ele>2733.1743</ele>
        <time>2021-11-14T14:05:40Z</time>
      </trkpt>
      <trkpt lat="4.593286" lon="-75.166946">
        <ele>2733.3113</ele>
        <time>2021-11-14T14:05:41Z</time>
      </trkpt>
      <trkpt lat="4.593247" lon="-75.167007">
        <ele>2732.6636</ele>
        <time>2021-11-14T14:05:43Z</time>
      </trkpt>
      <trkpt lat="4.593252" lon="-75.167007">
        <ele>2732.4492</ele>
        <time>2021-11-14T14:05:44Z</time>
      </trkpt>
      <trkpt lat="4.593252" lon="-75.167023">
        <ele>2731.7383</ele>
        <time>2021-11-14T14:05:45Z</time>
      </trkpt>
      <trkpt lat="4.59324" lon="-75.167114">
        <ele>2731.7185</ele>
        <time>2021-11-14T14:05:46Z</time>
      </trkpt>
      <trkpt lat="4.593251" lon="-75.167145">
        <ele>2732.6394</ele>
        <time>2021-11-14T14:05:47Z</time>
      </trkpt>
      <trkpt lat="4.593262" lon="-75.167175">
        <ele>2733.3225</ele>
        <time>2021-11-14T14:05:48Z</time>
      </trkpt>
      <trkpt lat="4.593265" lon="-75.167198">
        <ele>2733.9602</ele>
        <time>2021-11-14T14:05:49Z</time>
      </trkpt>
      <trkpt lat="4.593272" lon="-75.167198">
        <ele>2734.0442</ele>
        <time>2021-11-14T14:05:50Z</time>
      </trkpt>
      <trkpt lat="4.593309" lon="-75.167259">
        <ele>2733.8992</ele>
        <time>2021-11-14T14:05:51Z</time>
      </trkpt>
      <trkpt lat="4.593366" lon="-75.167229">
        <ele>2733.545</ele>
        <time>2021-11-14T14:05:52Z</time>
      </trkpt>
      <trkpt lat="4.593499" lon="-75.16716">
        <ele>2733.323</ele>
        <time>2021-11-14T14:05:53Z</time>
      </trkpt>
      <trkpt lat="4.593518" lon="-75.167183">
        <ele>2734.767</ele>
        <time>2021-11-14T14:05:54Z</time>
      </trkpt>
      <trkpt lat="4.593572" lon="-75.167168">
        <ele>2734.8389</ele>
        <time>2021-11-14T14:05:55Z</time>
      </trkpt>
      <trkpt lat="4.593627" lon="-75.167175">
        <ele>2735.3867</ele>
        <time>2021-11-14T14:05:56Z</time>
      </trkpt>
      <trkpt lat="4.593681" lon="-75.167221">
        <ele>2736.6948</ele>
        <time>2021-11-14T14:05:57Z</time>
      </trkpt>
      <trkpt lat="4.59371" lon="-75.167259">
        <ele>2737.417</ele>
        <time>2021-11-14T14:05:58Z</time>
      </trkpt>
      <trkpt lat="4.593739" lon="-75.167297">
        <ele>2737.16</ele>
        <time>2021-11-14T14:05:59Z</time>
      </trkpt>
      <trkpt lat="4.593757" lon="-75.167336">
        <ele>2737.588</ele>
        <time>2021-11-14T14:06:00Z</time>
      </trkpt>
      <trkpt lat="4.593762" lon="-75.167389">
        <ele>2738.2634</ele>
        <time>2021-11-14T14:06:01Z</time>
      </trkpt>
      <trkpt lat="4.593764" lon="-75.167458">
        <ele>2739.1746</ele>
        <time>2021-11-14T14:06:02Z</time>
      </trkpt>
      <trkpt lat="4.593739" lon="-75.167519">
        <ele>2739.9167</ele>
        <time>2021-11-14T14:06:03Z</time>
      </trkpt>
      <trkpt lat="4.593718" lon="-75.16758">
        <ele>2739.6404</ele>
        <time>2021-11-14T14:06:04Z</time>
      </trkpt>
      <trkpt lat="4.593715" lon="-75.16761">
        <ele>2739.0117</ele>
        <time>2021-11-14T14:06:05Z</time>
      </trkpt>
      <trkpt lat="4.593698" lon="-75.167648">
        <ele>2739.3755</ele>
        <time>2021-11-14T14:06:06Z</time>
      </trkpt>
      <trkpt lat="4.593677" lon="-75.167694">
        <ele>2737.8347</ele>
        <time>2021-11-14T14:06:07Z</time>
      </trkpt>
      <trkpt lat="4.593693" lon="-75.167694">
        <ele>2737.5776</ele>
        <time>2021-11-14T14:06:08Z</time>
      </trkpt>
      <trkpt lat="4.593689" lon="-75.167694">
        <ele>2736.8777</ele>
        <time>2021-11-14T14:06:09Z</time>
      </trkpt>
      <trkpt lat="4.59369" lon="-75.167717">
        <ele>2736.0762</ele>
        <time>2021-11-14T14:06:10Z</time>
      </trkpt>
      <trkpt lat="4.593701" lon="-75.167763">
        <ele>2736.108</ele>
        <time>2021-11-14T14:06:11Z</time>
      </trkpt>
      <trkpt lat="4.593701" lon="-75.167763">
        <ele>2734.9182</ele>
        <time>2021-11-14T14:06:12Z</time>
      </trkpt>
      <trkpt lat="4.593687" lon="-75.167763">
        <ele>2734.6772</ele>
        <time>2021-11-14T14:06:13Z</time>
      </trkpt>
      <trkpt lat="4.593709" lon="-75.167778">
        <ele>2734.7563</ele>
        <time>2021-11-14T14:06:14Z</time>
      </trkpt>
      <trkpt lat="4.59371" lon="-75.167801">
        <ele>2735.359</ele>
        <time>2021-11-14T14:06:15Z</time>
      </trkpt>
      <trkpt lat="4.593705" lon="-75.167824">
        <ele>2735.3047</ele>
        <time>2021-11-14T14:06:16Z</time>
      </trkpt>
      <trkpt lat="4.59372" lon="-75.167877">
        <ele>2735.3857</ele>
        <time>2021-11-14T14:06:17Z</time>
      </trkpt>
      <trkpt lat="4.593728" lon="-75.167946">
        <ele>2736.2593</ele>
        <time>2021-11-14T14:06:18Z</time>
      </trkpt>
      <trkpt lat="4.593734" lon="-75.167961">
        <ele>2735.9668</ele>
        <time>2021-11-14T14:06:19Z</time>
      </trkpt>
      <trkpt lat="4.593736" lon="-75.168007">
        <ele>2735.6587</ele>
        <time>2021-11-14T14:06:20Z</time>
      </trkpt>
      <trkpt lat="4.593735" lon="-75.168022">
        <ele>2736.4126</ele>
        <time>2021-11-14T14:06:21Z</time>
      </trkpt>
      <trkpt lat="4.593736" lon="-75.168129">
        <ele>2736.4834</ele>
        <time>2021-11-14T14:06:22Z</time>
      </trkpt>
      <trkpt lat="4.593715" lon="-75.168137">
        <ele>2736.4775</ele>
        <time>2021-11-14T14:06:23Z</time>
      </trkpt>
      <trkpt lat="4.593695" lon="-75.168137">
        <ele>2736.2395</ele>
        <time>2021-11-14T14:06:24Z</time>
      </trkpt>
      <trkpt lat="4.593701" lon="-75.168175">
        <ele>2735.1392</ele>
        <time>2021-11-14T14:06:25Z</time>
      </trkpt>
      <trkpt lat="4.593693" lon="-75.168228">
        <ele>2735.6477</ele>
        <time>2021-11-14T14:06:26Z</time>
      </trkpt>
      <trkpt lat="4.593688" lon="-75.168251">
        <ele>2735.4062</ele>
        <time>2021-11-14T14:06:27Z</time>
      </trkpt>
      <trkpt lat="4.593696" lon="-75.168282">
        <ele>2736.425</ele>
        <time>2021-11-14T14:06:29Z</time>
      </trkpt>
      <trkpt lat="4.593691" lon="-75.16832">
        <ele>2737.1113</ele>
        <time>2021-11-14T14:06:30Z</time>
      </trkpt>
      <trkpt lat="4.593681" lon="-75.168381">
        <ele>2736.741</ele>
        <time>2021-11-14T14:06:31Z</time>
      </trkpt>
      <trkpt lat="4.593674" lon="-75.168404">
        <ele>2736.5728</ele>
        <time>2021-11-14T14:06:32Z</time>
      </trkpt>
      <trkpt lat="4.593663" lon="-75.168434">
        <ele>2737.6946</ele>
        <time>2021-11-14T14:06:33Z</time>
      </trkpt>
      <trkpt lat="4.593661" lon="-75.168465">
        <ele>2737.6428</ele>
        <time>2021-11-14T14:06:34Z</time>
      </trkpt>
      <trkpt lat="4.593664" lon="-75.168488">
        <ele>2739.2725</ele>
        <time>2021-11-14T14:06:35Z</time>
      </trkpt>
      <trkpt lat="4.593667" lon="-75.16848">
        <ele>2739.037</ele>
        <time>2021-11-14T14:06:36Z</time>
      </trkpt>
      <trkpt lat="4.593669" lon="-75.168488">
        <ele>2738.922</ele>
        <time>2021-11-14T14:06:37Z</time>
      </trkpt>
      <trkpt lat="4.593671" lon="-75.168488">
        <ele>2738.7688</ele>
        <time>2021-11-14T14:06:38Z</time>
      </trkpt>
      <trkpt lat="4.593672" lon="-75.168488">
        <ele>2739.0425</ele>
        <time>2021-11-14T14:06:39Z</time>
      </trkpt>
      <trkpt lat="4.593672" lon="-75.168488">
        <ele>2738.8896</ele>
        <time>2021-11-14T14:06:40Z</time>
      </trkpt>
      <trkpt lat="4.593674" lon="-75.168488">
        <ele>2738.4988</ele>
        <time>2021-11-14T14:06:41Z</time>
      </trkpt>
      <trkpt lat="4.593677" lon="-75.168495">
        <ele>2738.0176</ele>
        <time>2021-11-14T14:06:42Z</time>
      </trkpt>
      <trkpt lat="4.59368" lon="-75.168495">
        <ele>2737.7053</ele>
        <time>2021-11-14T14:06:43Z</time>
      </trkpt>
      <trkpt lat="4.593682" lon="-75.168495">
        <ele>2737.5806</ele>
        <time>2021-11-14T14:06:44Z</time>
      </trkpt>
      <trkpt lat="4.593683" lon="-75.168495">
        <ele>2737.483</ele>
        <time>2021-11-14T14:06:45Z</time>
      </trkpt>
      <trkpt lat="4.593685" lon="-75.168495">
        <ele>2737.2747</ele>
        <time>2021-11-14T14:06:46Z</time>
      </trkpt>
      <trkpt lat="4.593688" lon="-75.168488">
        <ele>2737.3792</ele>
        <time>2021-11-14T14:06:47Z</time>
      </trkpt>
      <trkpt lat="4.59369" lon="-75.168488">
        <ele>2737.0476</ele>
        <time>2021-11-14T14:06:48Z</time>
      </trkpt>
      <trkpt lat="4.593693" lon="-75.16848">
        <ele>2736.8223</ele>
        <time>2021-11-14T14:06:49Z</time>
      </trkpt>
      <trkpt lat="4.593697" lon="-75.168472">
        <ele>2736.9092</ele>
        <time>2021-11-14T14:06:50Z</time>
      </trkpt>
      <trkpt lat="4.5937" lon="-75.16848">
        <ele>2736.6355</ele>
        <time>2021-11-14T14:06:51Z</time>
      </trkpt>
      <trkpt lat="4.593702" lon="-75.16848">
        <ele>2736.69</ele>
        <time>2021-11-14T14:06:52Z</time>
      </trkpt>
      <trkpt lat="4.593704" lon="-75.16848">
        <ele>2736.9065</ele>
        <time>2021-11-14T14:06:54Z</time>
      </trkpt>
      <trkpt lat="4.593705" lon="-75.16848">
        <ele>2736.9329</ele>
        <time>2021-11-14T14:06:55Z</time>
      </trkpt>
      <trkpt lat="4.593706" lon="-75.16848">
        <ele>2737.096</ele>
        <time>2021-11-14T14:06:56Z</time>
      </trkpt>
      <trkpt lat="4.593707" lon="-75.16848">
        <ele>2737.795</ele>
        <time>2021-11-14T14:06:57Z</time>
      </trkpt>
      <trkpt lat="4.593706" lon="-75.16848">
        <ele>2737.4092</ele>
        <time>2021-11-14T14:06:58Z</time>
      </trkpt>
      <trkpt lat="4.593706" lon="-75.16848">
        <ele>2737.4875</ele>
        <time>2021-11-14T14:06:59Z</time>
      </trkpt>
      <trkpt lat="4.593705" lon="-75.16848">
        <ele>2737.083</ele>
        <time>2021-11-14T14:07:00Z</time>
      </trkpt>
      <trkpt lat="4.593705" lon="-75.168488">
        <ele>2736.5383</ele>
        <time>2021-11-14T14:07:01Z</time>
      </trkpt>
      <trkpt lat="4.593704" lon="-75.168488">
        <ele>2736.56</ele>
        <time>2021-11-14T14:07:02Z</time>
      </trkpt>
      <trkpt lat="4.593703" lon="-75.168488">
        <ele>2736.561</ele>
        <time>2021-11-14T14:07:03Z</time>
      </trkpt>
      <trkpt lat="4.593703" lon="-75.168488">
        <ele>2736.5674</ele>
        <time>2021-11-14T14:07:04Z</time>
      </trkpt>
      <trkpt lat="4.593702" lon="-75.168488">
        <ele>2737.04</ele>
        <time>2021-11-14T14:07:05Z</time>
      </trkpt>
      <trkpt lat="4.59371" lon="-75.168488">
        <ele>2736.5312</ele>
        <time>2021-11-14T14:07:06Z</time>
      </trkpt>
      <trkpt lat="4.593708" lon="-75.168488">
        <ele>2737.5078</ele>
        <time>2021-11-14T14:07:07Z</time>
      </trkpt>
      <trkpt lat="4.593705" lon="-75.168472">
        <ele>2738.961</ele>
        <time>2021-11-14T14:07:08Z</time>
      </trkpt>
      <trkpt lat="4.593702" lon="-75.168465">
        <ele>2738.6052</ele>
        <time>2021-11-14T14:07:09Z</time>
      </trkpt>
      <trkpt lat="4.593697" lon="-75.168465">
        <ele>2738.9062</ele>
        <time>2021-11-14T14:07:10Z</time>
      </trkpt>
      <trkpt lat="4.593694" lon="-75.168457">
        <ele>2739.8376</ele>
        <time>2021-11-14T14:07:11Z</time>
      </trkpt>
      <trkpt lat="4.593696" lon="-75.168457">
        <ele>2739.783</ele>
        <time>2021-11-14T14:07:12Z</time>
      </trkpt>
      <trkpt lat="4.593698" lon="-75.168457">
        <ele>2740.2083</ele>
        <time>2021-11-14T14:07:13Z</time>
      </trkpt>
      <trkpt lat="4.5937" lon="-75.168465">
        <ele>2740.8064</ele>
        <time>2021-11-14T14:07:14Z</time>
      </trkpt>
      <trkpt lat="4.593701" lon="-75.168465">
        <ele>2741.7524</ele>
        <time>2021-11-14T14:07:15Z</time>
      </trkpt>
      <trkpt lat="4.593702" lon="-75.168465">
        <ele>2742.5193</ele>
        <time>2021-11-14T14:07:16Z</time>
      </trkpt>
      <trkpt lat="4.593703" lon="-75.168465">
        <ele>2742.7993</ele>
        <time>2021-11-14T14:07:17Z</time>
      </trkpt>
      <trkpt lat="4.593703" lon="-75.168465">
        <ele>2742.7375</ele>
        <time>2021-11-14T14:07:18Z</time>
      </trkpt>
      <trkpt lat="4.593701" lon="-75.168472">
        <ele>2742.112</ele>
        <time>2021-11-14T14:07:20Z</time>
      </trkpt>
      <trkpt lat="4.5937" lon="-75.168472">
        <ele>2741.879</ele>
        <time>2021-11-14T14:07:21Z</time>
      </trkpt>
      <trkpt lat="4.5937" lon="-75.168472">
        <ele>2742.4207</ele>
        <time>2021-11-14T14:07:22Z</time>
      </trkpt>
      <trkpt lat="4.593701" lon="-75.168465">
        <ele>2742.0608</ele>
        <time>2021-11-14T14:07:23Z</time>
      </trkpt>
      <trkpt lat="4.593702" lon="-75.168472">
        <ele>2741.899</ele>
        <time>2021-11-14T14:07:24Z</time>
      </trkpt>
      <trkpt lat="4.593704" lon="-75.16848">
        <ele>2742.269</ele>
        <time>2021-11-14T14:07:25Z</time>
      </trkpt>
      <trkpt lat="4.593704" lon="-75.168488">
        <ele>2742.0212</ele>
        <time>2021-11-14T14:07:26Z</time>
      </trkpt>
      <trkpt lat="4.593705" lon="-75.168488">
        <ele>2742.1912</ele>
        <time>2021-11-14T14:07:27Z</time>
      </trkpt>
      <trkpt lat="4.593705" lon="-75.168495">
        <ele>2742.567</ele>
        <time>2021-11-14T14:07:28Z</time>
      </trkpt>
      <trkpt lat="4.593706" lon="-75.168503">
        <ele>2742.2698</ele>
        <time>2021-11-14T14:07:29Z</time>
      </trkpt>
      <trkpt lat="4.593703" lon="-75.168518">
        <ele>2742.9485</ele>
        <time>2021-11-14T14:07:30Z</time>
      </trkpt>
      <trkpt lat="4.593702" lon="-75.168526">
        <ele>2742.8328</ele>
        <time>2021-11-14T14:07:31Z</time>
      </trkpt>
      <trkpt lat="4.593701" lon="-75.168533">
        <ele>2741.5876</ele>
        <time>2021-11-14T14:07:32Z</time>
      </trkpt>
      <trkpt lat="4.5937" lon="-75.168533">
        <ele>2740.142</ele>
        <time>2021-11-14T14:07:33Z</time>
      </trkpt>
      <trkpt lat="4.593705" lon="-75.168533">
        <ele>2739.6226</ele>
        <time>2021-11-14T14:07:34Z</time>
      </trkpt>
      <trkpt lat="4.593713" lon="-75.168533">
        <ele>2740.035</ele>
        <time>2021-11-14T14:07:35Z</time>
      </trkpt>
      <trkpt lat="4.593749" lon="-75.168533">
        <ele>2740.0715</ele>
        <time>2021-11-14T14:07:36Z</time>
      </trkpt>
      <trkpt lat="4.593791" lon="-75.168518">
        <ele>2740.3628</ele>
        <time>2021-11-14T14:07:37Z</time>
      </trkpt>
      <trkpt lat="4.59377" lon="-75.168526">
        <ele>2739.9011</ele>
        <time>2021-11-14T14:07:38Z</time>
      </trkpt>
      <trkpt lat="4.593776" lon="-75.168472">
        <ele>2740.1423</ele>
        <time>2021-11-14T14:07:39Z</time>
      </trkpt>
      <trkpt lat="4.593767" lon="-75.168419">
        <ele>2740.3184</ele>
        <time>2021-11-14T14:07:40Z</time>
      </trkpt>
      <trkpt lat="4.593734" lon="-75.168427">
        <ele>2739.863</ele>
        <time>2021-11-14T14:07:41Z</time>
      </trkpt>
      <trkpt lat="4.593721" lon="-75.168396">
        <ele>2738.145</ele>
        <time>2021-11-14T14:07:42Z</time>
      </trkpt>
      <trkpt lat="4.593716" lon="-75.168411">
        <ele>2738.3481</ele>
        <time>2021-11-14T14:07:43Z</time>
      </trkpt>
      <trkpt lat="4.593711" lon="-75.168411">
        <ele>2738.5967</ele>
        <time>2021-11-14T14:07:44Z</time>
      </trkpt>
      <trkpt lat="4.593708" lon="-75.168419">
        <ele>2738.5913</ele>
        <time>2021-11-14T14:07:45Z</time>
      </trkpt>
      <trkpt lat="4.593702" lon="-75.168419">
        <ele>2738.7825</ele>
        <time>2021-11-14T14:07:46Z</time>
      </trkpt>
      <trkpt lat="4.593699" lon="-75.168427">
        <ele>2739.175</ele>
        <time>2021-11-14T14:07:47Z</time>
      </trkpt>
      <trkpt lat="4.593695" lon="-75.168427">
        <ele>2739.116</ele>
        <time>2021-11-14T14:07:48Z</time>
      </trkpt>
      <trkpt lat="4.593691" lon="-75.168419">
        <ele>2740.1707</ele>
        <time>2021-11-14T14:07:49Z</time>
      </trkpt>
      <trkpt lat="4.593687" lon="-75.168442">
        <ele>2740.43</ele>
        <time>2021-11-14T14:07:50Z</time>
      </trkpt>
      <trkpt lat="4.593683" lon="-75.168457">
        <ele>2740.7844</ele>
        <time>2021-11-14T14:07:51Z</time>
      </trkpt>
      <trkpt lat="4.593683" lon="-75.168472">
        <ele>2741.36</ele>
        <time>2021-11-14T14:07:53Z</time>
      </trkpt>
      <trkpt lat="4.593681" lon="-75.168488">
        <ele>2742.1914</ele>
        <time>2021-11-14T14:07:54Z</time>
      </trkpt>
      <trkpt lat="4.593682" lon="-75.168488">
        <ele>2741.6528</ele>
        <time>2021-11-14T14:07:55Z</time>
      </trkpt>
      <trkpt lat="4.593682" lon="-75.168495">
        <ele>2742.1035</ele>
        <time>2021-11-14T14:07:56Z</time>
      </trkpt>
      <trkpt lat="4.593683" lon="-75.168495">
        <ele>2742.296</ele>
        <time>2021-11-14T14:07:57Z</time>
      </trkpt>
      <trkpt lat="4.593684" lon="-75.168503">
        <ele>2742.0322</ele>
        <time>2021-11-14T14:07:58Z</time>
      </trkpt>
      <trkpt lat="4.593685" lon="-75.168503">
        <ele>2742.1755</ele>
        <time>2021-11-14T14:07:59Z</time>
      </trkpt>
      <trkpt lat="4.593686" lon="-75.168503">
        <ele>2742.3435</ele>
        <time>2021-11-14T14:08:01Z</time>
      </trkpt>
      <trkpt lat="4.593686" lon="-75.16851">
        <ele>2742.2373</ele>
        <time>2021-11-14T14:08:02Z</time>
      </trkpt>
      <trkpt lat="4.593686" lon="-75.16851">
        <ele>2742.3586</ele>
        <time>2021-11-14T14:08:03Z</time>
      </trkpt>
      <trkpt lat="4.593687" lon="-75.16851">
        <ele>2742.454</ele>
        <time>2021-11-14T14:08:04Z</time>
      </trkpt>
      <trkpt lat="4.593687" lon="-75.16851">
        <ele>2742.845</ele>
        <time>2021-11-14T14:08:05Z</time>
      </trkpt>
      <trkpt lat="4.593688" lon="-75.16851">
        <ele>2742.834</ele>
        <time>2021-11-14T14:08:06Z</time>
      </trkpt>
      <trkpt lat="4.593688" lon="-75.16851">
        <ele>2742.871</ele>
        <time>2021-11-14T14:08:08Z</time>
      </trkpt>
      <trkpt lat="4.593686" lon="-75.16851">
        <ele>2742.958</ele>
        <time>2021-11-14T14:08:09Z</time>
      </trkpt>
      <trkpt lat="4.593686" lon="-75.16851">
        <ele>2742.8801</ele>
        <time>2021-11-14T14:08:10Z</time>
      </trkpt>
      <trkpt lat="4.593685" lon="-75.16851">
        <ele>2742.9202</ele>
        <time>2021-11-14T14:08:11Z</time>
      </trkpt>
      <trkpt lat="4.593685" lon="-75.16851">
        <ele>2742.963</ele>
        <time>2021-11-14T14:08:12Z</time>
      </trkpt>
      <trkpt lat="4.593685" lon="-75.16851">
        <ele>2742.8855</ele>
        <time>2021-11-14T14:08:13Z</time>
      </trkpt>
      <trkpt lat="4.593685" lon="-75.16851">
        <ele>2740.5903</ele>
        <time>2021-11-14T14:08:14Z</time>
      </trkpt>
      <trkpt lat="4.593685" lon="-75.168556">
        <ele>2739.5803</ele>
        <time>2021-11-14T14:08:16Z</time>
      </trkpt>
      <trkpt lat="4.593678" lon="-75.168732">
        <ele>2740.2395</ele>
        <time>2021-11-14T14:08:17Z</time>
      </trkpt>
      <trkpt lat="4.593672" lon="-75.168686">
        <ele>2737.531</ele>
        <time>2021-11-14T14:08:18Z</time>
      </trkpt>
      <trkpt lat="4.593663" lon="-75.168777">
        <ele>2736.4697</ele>
        <time>2021-11-14T14:08:19Z</time>
      </trkpt>
      <trkpt lat="4.593682" lon="-75.168831">
        <ele>2736.3223</ele>
        <time>2021-11-14T14:08:20Z</time>
      </trkpt>
      <trkpt lat="4.593696" lon="-75.168839">
        <ele>2735.9675</ele>
        <time>2021-11-14T14:08:21Z</time>
      </trkpt>
      <trkpt lat="4.593738" lon="-75.168854">
        <ele>2736.1594</ele>
        <time>2021-11-14T14:08:22Z</time>
      </trkpt>
      <trkpt lat="4.593767" lon="-75.168861">
        <ele>2737.968</ele>
        <time>2021-11-14T14:08:23Z</time>
      </trkpt>
      <trkpt lat="4.593766" lon="-75.1688">
        <ele>2740.3752</ele>
        <time>2021-11-14T14:08:24Z</time>
      </trkpt>
      <trkpt lat="4.593767" lon="-75.168732">
        <ele>2742.5032</ele>
        <time>2021-11-14T14:08:25Z</time>
      </trkpt>
      <trkpt lat="4.593785" lon="-75.168678">
        <ele>2743.849</ele>
        <time>2021-11-14T14:08:26Z</time>
      </trkpt>
      <trkpt lat="4.593796" lon="-75.16864">
        <ele>2744.1865</ele>
        <time>2021-11-14T14:08:27Z</time>
      </trkpt>
      <trkpt lat="4.593825" lon="-75.168594">
        <ele>2743.533</ele>
        <time>2021-11-14T14:08:28Z</time>
      </trkpt>
      <trkpt lat="4.593871" lon="-75.168587">
        <ele>2742.919</ele>
        <time>2021-11-14T14:08:29Z</time>
      </trkpt>
      <trkpt lat="4.593929" lon="-75.168571">
        <ele>2741.9998</ele>
        <time>2021-11-14T14:08:30Z</time>
      </trkpt>
      <trkpt lat="4.593982" lon="-75.168564">
        <ele>2740.712</ele>
        <time>2021-11-14T14:08:31Z</time>
      </trkpt>
      <trkpt lat="4.594056" lon="-75.168564">
        <ele>2741.8176</ele>
        <time>2021-11-14T14:08:32Z</time>
      </trkpt>
      <trkpt lat="4.594123" lon="-75.168541">
        <ele>2742.2402</ele>
        <time>2021-11-14T14:08:33Z</time>
      </trkpt>
      <trkpt lat="4.594155" lon="-75.16851">
        <ele>2741.2932</ele>
        <time>2021-11-14T14:08:34Z</time>
      </trkpt>
      <trkpt lat="4.594189" lon="-75.168503">
        <ele>2743.1904</ele>
        <time>2021-11-14T14:08:35Z</time>
      </trkpt>
      <trkpt lat="4.594216" lon="-75.168465">
        <ele>2743.8682</ele>
        <time>2021-11-14T14:08:36Z</time>
      </trkpt>
      <trkpt lat="4.594229" lon="-75.168404">
        <ele>2744.6697</ele>
        <time>2021-11-14T14:08:37Z</time>
      </trkpt>
      <trkpt lat="4.594246" lon="-75.16832">
        <ele>2745.666</ele>
        <time>2021-11-14T14:08:38Z</time>
      </trkpt>
      <trkpt lat="4.594268" lon="-75.168251">
        <ele>2746.9749</ele>
        <time>2021-11-14T14:08:39Z</time>
      </trkpt>
      <trkpt lat="4.594269" lon="-75.168213">
        <ele>2746.9045</ele>
        <time>2021-11-14T14:08:40Z</time>
      </trkpt>
      <trkpt lat="4.59428" lon="-75.168175">
        <ele>2748.3577</ele>
        <time>2021-11-14T14:08:41Z</time>
      </trkpt>
      <trkpt lat="4.594362" lon="-75.168037">
        <ele>2749.4133</ele>
        <time>2021-11-14T14:08:42Z</time>
      </trkpt>
      <trkpt lat="4.594381" lon="-75.167992">
        <ele>2748.6216</ele>
        <time>2021-11-14T14:08:43Z</time>
      </trkpt>
      <trkpt lat="4.594398" lon="-75.167999">
        <ele>2748.0945</ele>
        <time>2021-11-14T14:08:45Z</time>
      </trkpt>
      <trkpt lat="4.594461" lon="-75.167953">
        <ele>2747.1123</ele>
        <time>2021-11-14T14:08:46Z</time>
      </trkpt>
      <trkpt lat="4.594512" lon="-75.167953">
        <ele>2748.3274</ele>
        <time>2021-11-14T14:08:47Z</time>
      </trkpt>
      <trkpt lat="4.594586" lon="-75.167969">
        <ele>2748.7324</ele>
        <time>2021-11-14T14:08:48Z</time>
      </trkpt>
      <trkpt lat="4.594649" lon="-75.167953">
        <ele>2749.3484</ele>
        <time>2021-11-14T14:08:49Z</time>
      </trkpt>
      <trkpt lat="4.594681" lon="-75.167938">
        <ele>2749.592</ele>
        <time>2021-11-14T14:08:50Z</time>
      </trkpt>
      <trkpt lat="4.594731" lon="-75.167923">
        <ele>2748.4033</ele>
        <time>2021-11-14T14:08:51Z</time>
      </trkpt>
      <trkpt lat="4.59488" lon="-75.167885">
        <ele>2750.5547</ele>
        <time>2021-11-14T14:08:52Z</time>
      </trkpt>
      <trkpt lat="4.59488" lon="-75.167885">
        <ele>2750.936</ele>
        <time>2021-11-14T14:08:54Z</time>
      </trkpt>
      <trkpt lat="4.594924" lon="-75.167877">
        <ele>2752.4297</ele>
        <time>2021-11-14T14:08:55Z</time>
      </trkpt>
      <trkpt lat="4.595" lon="-75.167862">
        <ele>2751.628</ele>
        <time>2021-11-14T14:08:56Z</time>
      </trkpt>
      <trkpt lat="4.595051" lon="-75.167816">
        <ele>2752.5862</ele>
        <time>2021-11-14T14:08:57Z</time>
      </trkpt>
      <trkpt lat="4.595062" lon="-75.167839">
        <ele>2752.904</ele>
        <time>2021-11-14T14:08:58Z</time>
      </trkpt>
      <trkpt lat="4.595123" lon="-75.167839">
        <ele>2754.1558</ele>
        <time>2021-11-14T14:08:59Z</time>
      </trkpt>
      <trkpt lat="4.595101" lon="-75.167931">
        <ele>2755.602</ele>
        <time>2021-11-14T14:09:00Z</time>
      </trkpt>
      <trkpt lat="4.595118" lon="-75.167961">
        <ele>2757.3567</ele>
        <time>2021-11-14T14:09:01Z</time>
      </trkpt>
      <trkpt lat="4.595104" lon="-75.168045">
        <ele>2758.337</ele>
        <time>2021-11-14T14:09:02Z</time>
      </trkpt>
      <trkpt lat="4.595116" lon="-75.168144">
        <ele>2758.1318</ele>
        <time>2021-11-14T14:09:03Z</time>
      </trkpt>
      <trkpt lat="4.595153" lon="-75.168167">
        <ele>2758.6523</ele>
        <time>2021-11-14T14:09:04Z</time>
      </trkpt>
      <trkpt lat="4.595178" lon="-75.168221">
        <ele>2759.456</ele>
        <time>2021-11-14T14:09:05Z</time>
      </trkpt>
      <trkpt lat="4.595238" lon="-75.168259">
        <ele>2759.7783</ele>
        <time>2021-11-14T14:09:06Z</time>
      </trkpt>
      <trkpt lat="4.595255" lon="-75.168289">
        <ele>2759.3984</ele>
        <time>2021-11-14T14:09:07Z</time>
      </trkpt>
      <trkpt lat="4.595236" lon="-75.168343">
        <ele>2759.3032</ele>
        <time>2021-11-14T14:09:08Z</time>
      </trkpt>
      <trkpt lat="4.595189" lon="-75.168381">
        <ele>2759.8406</ele>
        <time>2021-11-14T14:09:09Z</time>
      </trkpt>
      <trkpt lat="4.59514" lon="-75.168449">
        <ele>2760.1404</ele>
        <time>2021-11-14T14:09:10Z</time>
      </trkpt>
      <trkpt lat="4.595095" lon="-75.16851">
        <ele>2760.5989</ele>
        <time>2021-11-14T14:09:11Z</time>
      </trkpt>
      <trkpt lat="4.595042" lon="-75.168571">
        <ele>2760.4058</ele>
        <time>2021-11-14T14:09:12Z</time>
      </trkpt>
      <trkpt lat="4.595008" lon="-75.168625">
        <ele>2759.4033</ele>
        <time>2021-11-14T14:09:13Z</time>
      </trkpt>
      <trkpt lat="4.594927" lon="-75.168732">
        <ele>2760.0522</ele>
        <time>2021-11-14T14:09:14Z</time>
      </trkpt>
      <trkpt lat="4.59488" lon="-75.168793">
        <ele>2759.686</ele>
        <time>2021-11-14T14:09:15Z</time>
      </trkpt>
      <trkpt lat="4.594825" lon="-75.168877">
        <ele>2760.1633</ele>
        <time>2021-11-14T14:09:17Z</time>
      </trkpt>
      <trkpt lat="4.594789" lon="-75.168922">
        <ele>2761.1233</ele>
        <time>2021-11-14T14:09:18Z</time>
      </trkpt>
      <trkpt lat="4.59474" lon="-75.169006">
        <ele>2762.1453</ele>
        <time>2021-11-14T14:09:19Z</time>
      </trkpt>
      <trkpt lat="4.594716" lon="-75.169083">
        <ele>2762.382</ele>
        <time>2021-11-14T14:09:20Z</time>
      </trkpt>
      <trkpt lat="4.594698" lon="-75.169159">
        <ele>2762.9897</ele>
        <time>2021-11-14T14:09:21Z</time>
      </trkpt>
      <trkpt lat="4.594675" lon="-75.169228">
        <ele>2763.4917</ele>
        <time>2021-11-14T14:09:22Z</time>
      </trkpt>
      <trkpt lat="4.594646" lon="-75.169304">
        <ele>2763.6353</ele>
        <time>2021-11-14T14:09:23Z</time>
      </trkpt>
      <trkpt lat="4.594611" lon="-75.169395">
        <ele>2763.5376</ele>
        <time>2021-11-14T14:09:24Z</time>
      </trkpt>
      <trkpt lat="4.594613" lon="-75.169403">
        <ele>2763.9167</ele>
        <time>2021-11-14T14:09:25Z</time>
      </trkpt>
      <trkpt lat="4.594688" lon="-75.169411">
        <ele>2765.4128</ele>
        <time>2021-11-14T14:09:26Z</time>
      </trkpt>
      <trkpt lat="4.59472" lon="-75.169479">
        <ele>2767.3428</ele>
        <time>2021-11-14T14:09:27Z</time>
      </trkpt>
      <trkpt lat="4.59492" lon="-75.16938">
        <ele>2767.3147</ele>
        <time>2021-11-14T14:09:28Z</time>
      </trkpt>
      <trkpt lat="4.594919" lon="-75.169418">
        <ele>2766.7073</ele>
        <time>2021-11-14T14:09:29Z</time>
      </trkpt>
      <trkpt lat="4.595062" lon="-75.16938">
        <ele>2765.295</ele>
        <time>2021-11-14T14:09:30Z</time>
      </trkpt>
      <trkpt lat="4.595084" lon="-75.169373">
        <ele>2767.475</ele>
        <time>2021-11-14T14:09:31Z</time>
      </trkpt>
      <trkpt lat="4.595084" lon="-75.169373">
        <ele>2768.6753</ele>
        <time>2021-11-14T14:09:32Z</time>
      </trkpt>
      <trkpt lat="4.59519" lon="-75.169388">
        <ele>2769.6653</ele>
        <time>2021-11-14T14:09:33Z</time>
      </trkpt>
      <trkpt lat="4.595145" lon="-75.169479">
        <ele>2771.6846</ele>
        <time>2021-11-14T14:09:34Z</time>
      </trkpt>
      <trkpt lat="4.595063" lon="-75.169655">
        <ele>2772.6848</ele>
        <time>2021-11-14T14:09:35Z</time>
      </trkpt>
      <trkpt lat="4.595055" lon="-75.169731">
        <ele>2773.1335</ele>
        <time>2021-11-14T14:09:36Z</time>
      </trkpt>
      <trkpt lat="4.595058" lon="-75.169807">
        <ele>2773.812</ele>
        <time>2021-11-14T14:09:37Z</time>
      </trkpt>
      <trkpt lat="4.595076" lon="-75.169846">
        <ele>2774.059</ele>
        <time>2021-11-14T14:09:38Z</time>
      </trkpt>
      <trkpt lat="4.59514" lon="-75.169922">
        <ele>2774.31</ele>
        <time>2021-11-14T14:09:39Z</time>
      </trkpt>
      <trkpt lat="4.595207" lon="-75.169991">
        <ele>2776.0002</ele>
        <time>2021-11-14T14:09:40Z</time>
      </trkpt>
      <trkpt lat="4.595243" lon="-75.170044">
        <ele>2775.8674</ele>
        <time>2021-11-14T14:09:41Z</time>
      </trkpt>
      <trkpt lat="4.595255" lon="-75.170135">
        <ele>2776.959</ele>
        <time>2021-11-14T14:09:42Z</time>
      </trkpt>
      <trkpt lat="4.595261" lon="-75.170181">
        <ele>2777.7737</ele>
        <time>2021-11-14T14:09:43Z</time>
      </trkpt>
      <trkpt lat="4.595259" lon="-75.170227">
        <ele>2777.1875</ele>
        <time>2021-11-14T14:09:44Z</time>
      </trkpt>
      <trkpt lat="4.595238" lon="-75.170296">
        <ele>2777.8892</ele>
        <time>2021-11-14T14:09:45Z</time>
      </trkpt>
      <trkpt lat="4.595197" lon="-75.170326">
        <ele>2777.8633</ele>
        <time>2021-11-14T14:09:46Z</time>
      </trkpt>
      <trkpt lat="4.59513" lon="-75.170395">
        <ele>2778.3503</ele>
        <time>2021-11-14T14:09:47Z</time>
      </trkpt>
      <trkpt lat="4.595096" lon="-75.170448">
        <ele>2779.0913</ele>
        <time>2021-11-14T14:09:48Z</time>
      </trkpt>
      <trkpt lat="4.5951" lon="-75.170502">
        <ele>2780.1455</ele>
        <time>2021-11-14T14:09:49Z</time>
      </trkpt>
      <trkpt lat="4.595118" lon="-75.17057">
        <ele>2780.3972</ele>
        <time>2021-11-14T14:09:50Z</time>
      </trkpt>
      <trkpt lat="4.595134" lon="-75.170654">
        <ele>2780.839</ele>
        <time>2021-11-14T14:09:51Z</time>
      </trkpt>
      <trkpt lat="4.595145" lon="-75.170715">
        <ele>2781.584</ele>
        <time>2021-11-14T14:09:52Z</time>
      </trkpt>
      <trkpt lat="4.595129" lon="-75.170731">
        <ele>2781.145</ele>
        <time>2021-11-14T14:09:53Z</time>
      </trkpt>
      <trkpt lat="4.595106" lon="-75.170761">
        <ele>2781.9421</ele>
        <time>2021-11-14T14:09:54Z</time>
      </trkpt>
      <trkpt lat="4.595055" lon="-75.170769">
        <ele>2782.384</ele>
        <time>2021-11-14T14:09:55Z</time>
      </trkpt>
      <trkpt lat="4.595011" lon="-75.170769">
        <ele>2783.0505</ele>
        <time>2021-11-14T14:09:56Z</time>
      </trkpt>
      <trkpt lat="4.594961" lon="-75.170776">
        <ele>2784.4712</ele>
        <time>2021-11-14T14:09:57Z</time>
      </trkpt>
      <trkpt lat="4.594893" lon="-75.170761">
        <ele>2784.6602</ele>
        <time>2021-11-14T14:09:58Z</time>
      </trkpt>
      <trkpt lat="4.594825" lon="-75.170776">
        <ele>2785.023</ele>
        <time>2021-11-14T14:09:59Z</time>
      </trkpt>
      <trkpt lat="4.59476" lon="-75.170792">
        <ele>2785.843</ele>
        <time>2021-11-14T14:10:01Z</time>
      </trkpt>
      <trkpt lat="4.594692" lon="-75.170807">
        <ele>2785.7183</ele>
        <time>2021-11-14T14:10:02Z</time>
      </trkpt>
      <trkpt lat="4.594513" lon="-75.170853">
        <ele>2787.2688</ele>
        <time>2021-11-14T14:10:03Z</time>
      </trkpt>
      <trkpt lat="4.59446" lon="-75.17086">
        <ele>2787.9592</ele>
        <time>2021-11-14T14:10:04Z</time>
      </trkpt>
      <trkpt lat="4.594415" lon="-75.170898">
        <ele>2789.4197</ele>
        <time>2021-11-14T14:10:05Z</time>
      </trkpt>
      <trkpt lat="4.594382" lon="-75.170975">
        <ele>2790.141</ele>
        <time>2021-11-14T14:10:06Z</time>
      </trkpt>
      <trkpt lat="4.594379" lon="-75.171043">
        <ele>2790.8748</ele>
        <time>2021-11-14T14:10:07Z</time>
      </trkpt>
      <trkpt lat="4.594379" lon="-75.171127">
        <ele>2791.4536</ele>
        <time>2021-11-14T14:10:08Z</time>
      </trkpt>
      <trkpt lat="4.594408" lon="-75.171204">
        <ele>2792.0771</ele>
        <time>2021-11-14T14:10:09Z</time>
      </trkpt>
      <trkpt lat="4.594443" lon="-75.17128">
        <ele>2792.336</ele>
        <time>2021-11-14T14:10:10Z</time>
      </trkpt>
      <trkpt lat="4.594463" lon="-75.171349">
        <ele>2792.8547</ele>
        <time>2021-11-14T14:10:11Z</time>
      </trkpt>
      <trkpt lat="4.59447" lon="-75.171402">
        <ele>2793.029</ele>
        <time>2021-11-14T14:10:12Z</time>
      </trkpt>
      <trkpt lat="4.594485" lon="-75.171486">
        <ele>2793.2524</ele>
        <time>2021-11-14T14:10:13Z</time>
      </trkpt>
      <trkpt lat="4.594512" lon="-75.171562">
        <ele>2794.5854</ele>
        <time>2021-11-14T14:10:14Z</time>
      </trkpt>
      <trkpt lat="4.594548" lon="-75.171616">
        <ele>2794.9946</ele>
        <time>2021-11-14T14:10:16Z</time>
      </trkpt>
      <trkpt lat="4.594558" lon="-75.171684">
        <ele>2795.6328</ele>
        <time>2021-11-14T14:10:17Z</time>
      </trkpt>
      <trkpt lat="4.594583" lon="-75.171776">
        <ele>2795.8137</ele>
        <time>2021-11-14T14:10:18Z</time>
      </trkpt>
      <trkpt lat="4.594617" lon="-75.171852">
        <ele>2796.5698</ele>
        <time>2021-11-14T14:10:19Z</time>
      </trkpt>
      <trkpt lat="4.594637" lon="-75.171921">
        <ele>2797.2205</ele>
        <time>2021-11-14T14:10:20Z</time>
      </trkpt>
      <trkpt lat="4.594687" lon="-75.17202">
        <ele>2798.256</ele>
        <time>2021-11-14T14:10:21Z</time>
      </trkpt>
      <trkpt lat="4.594687" lon="-75.17202">
        <ele>2798.7979</ele>
        <time>2021-11-14T14:10:22Z</time>
      </trkpt>
      <trkpt lat="4.594725" lon="-75.172104">
        <ele>2799.4893</ele>
        <time>2021-11-14T14:10:23Z</time>
      </trkpt>
      <trkpt lat="4.594741" lon="-75.17215">
        <ele>2799.9163</ele>
        <time>2021-11-14T14:10:24Z</time>
      </trkpt>
      <trkpt lat="4.594769" lon="-75.172226">
        <ele>2800.0137</ele>
        <time>2021-11-14T14:10:25Z</time>
      </trkpt>
      <trkpt lat="4.59477" lon="-75.172234">
        <ele>2800.8801</ele>
        <time>2021-11-14T14:10:26Z</time>
      </trkpt>
      <trkpt lat="4.594774" lon="-75.172249">
        <ele>2800.852</ele>
        <time>2021-11-14T14:10:27Z</time>
      </trkpt>
      <trkpt lat="4.59479" lon="-75.172264">
        <ele>2801.6855</ele>
        <time>2021-11-14T14:10:28Z</time>
      </trkpt>
      <trkpt lat="4.594801" lon="-75.172287">
        <ele>2802.0076</ele>
        <time>2021-11-14T14:10:29Z</time>
      </trkpt>
      <trkpt lat="4.594815" lon="-75.172302">
        <ele>2801.6194</ele>
        <time>2021-11-14T14:10:30Z</time>
      </trkpt>
      <trkpt lat="4.594877" lon="-75.172379">
        <ele>2803.319</ele>
        <time>2021-11-14T14:10:31Z</time>
      </trkpt>
      <trkpt lat="4.594909" lon="-75.172432">
        <ele>2803.3867</ele>
        <time>2021-11-14T14:10:32Z</time>
      </trkpt>
      <trkpt lat="4.594958" lon="-75.172493">
        <ele>2804.5698</ele>
        <time>2021-11-14T14:10:33Z</time>
      </trkpt>
      <trkpt lat="4.594981" lon="-75.172539">
        <ele>2804.9307</ele>
        <time>2021-11-14T14:10:34Z</time>
      </trkpt>
      <trkpt lat="4.595006" lon="-75.172577">
        <ele>2805.1025</ele>
        <time>2021-11-14T14:10:35Z</time>
      </trkpt>
      <trkpt lat="4.595034" lon="-75.172638">
        <ele>2805.0527</ele>
        <time>2021-11-14T14:10:36Z</time>
      </trkpt>
      <trkpt lat="4.595092" lon="-75.172707">
        <ele>2805.6394</ele>
        <time>2021-11-14T14:10:37Z</time>
      </trkpt>
      <trkpt lat="4.595157" lon="-75.172768">
        <ele>2805.5205</ele>
        <time>2021-11-14T14:10:38Z</time>
      </trkpt>
      <trkpt lat="4.595173" lon="-75.172783">
        <ele>2806.3142</ele>
        <time>2021-11-14T14:10:39Z</time>
      </trkpt>
      <trkpt lat="4.595192" lon="-75.172829">
        <ele>2806.5928</ele>
        <time>2021-11-14T14:10:40Z</time>
      </trkpt>
      <trkpt lat="4.595185" lon="-75.172874">
        <ele>2806.4214</ele>
        <time>2021-11-14T14:10:41Z</time>
      </trkpt>
      <trkpt lat="4.595145" lon="-75.17292">
        <ele>2806.413</ele>
        <time>2021-11-14T14:10:42Z</time>
      </trkpt>
      <trkpt lat="4.595121" lon="-75.172935">
        <ele>2806.9275</ele>
        <time>2021-11-14T14:10:43Z</time>
      </trkpt>
      <trkpt lat="4.59505" lon="-75.172928">
        <ele>2806.6619</ele>
        <time>2021-11-14T14:10:44Z</time>
      </trkpt>
      <trkpt lat="4.594959" lon="-75.17292">
        <ele>2806.5312</ele>
        <time>2021-11-14T14:10:45Z</time>
      </trkpt>
      <trkpt lat="4.594882" lon="-75.172913">
        <ele>2807.2405</ele>
        <time>2021-11-14T14:10:46Z</time>
      </trkpt>
      <trkpt lat="4.594809" lon="-75.172913">
        <ele>2808.962</ele>
        <time>2021-11-14T14:10:47Z</time>
      </trkpt>
      <trkpt lat="4.59478" lon="-75.172913">
        <ele>2808.9836</ele>
        <time>2021-11-14T14:10:48Z</time>
      </trkpt>
      <trkpt lat="4.594749" lon="-75.172943">
        <ele>2809.4265</ele>
        <time>2021-11-14T14:10:49Z</time>
      </trkpt>
      <trkpt lat="4.594752" lon="-75.172989">
        <ele>2809.7712</ele>
        <time>2021-11-14T14:10:50Z</time>
      </trkpt>
      <trkpt lat="4.594762" lon="-75.173035">
        <ele>2810.8284</ele>
        <time>2021-11-14T14:10:51Z</time>
      </trkpt>
      <trkpt lat="4.594799" lon="-75.17308">
        <ele>2811.1362</ele>
        <time>2021-11-14T14:10:52Z</time>
      </trkpt>
      <trkpt lat="4.594833" lon="-75.173126">
        <ele>2812.0654</ele>
        <time>2021-11-14T14:10:53Z</time>
      </trkpt>
      <trkpt lat="4.594874" lon="-75.173134">
        <ele>2812.3674</ele>
        <time>2021-11-14T14:10:54Z</time>
      </trkpt>
      <trkpt lat="4.594918" lon="-75.173164">
        <ele>2811.776</ele>
        <time>2021-11-14T14:10:55Z</time>
      </trkpt>
      <trkpt lat="4.594933" lon="-75.173157">
        <ele>2812.48</ele>
        <time>2021-11-14T14:10:56Z</time>
      </trkpt>
      <trkpt lat="4.594996" lon="-75.173187">
        <ele>2812.7468</ele>
        <time>2021-11-14T14:10:57Z</time>
      </trkpt>
      <trkpt lat="4.595049" lon="-75.173248">
        <ele>2812.9407</ele>
        <time>2021-11-14T14:10:58Z</time>
      </trkpt>
      <trkpt lat="4.595078" lon="-75.173279">
        <ele>2813.8735</ele>
        <time>2021-11-14T14:10:59Z</time>
      </trkpt>
      <trkpt lat="4.595094" lon="-75.173317">
        <ele>2813.89</ele>
        <time>2021-11-14T14:11:00Z</time>
      </trkpt>
      <trkpt lat="4.59512" lon="-75.17337">
        <ele>2814.5352</ele>
        <time>2021-11-14T14:11:01Z</time>
      </trkpt>
      <trkpt lat="4.595131" lon="-75.173416">
        <ele>2815.1487</ele>
        <time>2021-11-14T14:11:02Z</time>
      </trkpt>
      <trkpt lat="4.595153" lon="-75.173508">
        <ele>2815.1301</ele>
        <time>2021-11-14T14:11:03Z</time>
      </trkpt>
      <trkpt lat="4.595202" lon="-75.173553">
        <ele>2815.1992</ele>
        <time>2021-11-14T14:11:04Z</time>
      </trkpt>
      <trkpt lat="4.595219" lon="-75.173584">
        <ele>2816.2712</ele>
        <time>2021-11-14T14:11:05Z</time>
      </trkpt>
      <trkpt lat="4.595272" lon="-75.173645">
        <ele>2814.9563</ele>
        <time>2021-11-14T14:11:06Z</time>
      </trkpt>
      <trkpt lat="4.595262" lon="-75.173622">
        <ele>2815.04</ele>
        <time>2021-11-14T14:11:07Z</time>
      </trkpt>
      <trkpt lat="4.595262" lon="-75.173622">
        <ele>2813.9922</ele>
        <time>2021-11-14T14:11:08Z</time>
      </trkpt>
      <trkpt lat="4.595334" lon="-75.173698">
        <ele>2816.929</ele>
        <time>2021-11-14T14:11:09Z</time>
      </trkpt>
      <trkpt lat="4.59538" lon="-75.173752">
        <ele>2817.6663</ele>
        <time>2021-11-14T14:11:10Z</time>
      </trkpt>
      <trkpt lat="4.595411" lon="-75.173813">
        <ele>2818.8562</ele>
        <time>2021-11-14T14:11:11Z</time>
      </trkpt>
      <trkpt lat="4.595428" lon="-75.173897">
        <ele>2819.9475</ele>
        <time>2021-11-14T14:11:12Z</time>
      </trkpt>
      <trkpt lat="4.59544" lon="-75.173973">
        <ele>2819.8337</ele>
        <time>2021-11-14T14:11:13Z</time>
      </trkpt>
      <trkpt lat="4.595459" lon="-75.174049">
        <ele>2819.752</ele>
        <time>2021-11-14T14:11:14Z</time>
      </trkpt>
      <trkpt lat="4.595494" lon="-75.174095">
        <ele>2820.3538</ele>
        <time>2021-11-14T14:11:15Z</time>
      </trkpt>
      <trkpt lat="4.595517" lon="-75.174141">
        <ele>2820.0566</ele>
        <time>2021-11-14T14:11:16Z</time>
      </trkpt>
      <trkpt lat="4.595546" lon="-75.174194">
        <ele>2819.5383</ele>
        <time>2021-11-14T14:11:17Z</time>
      </trkpt>
      <trkpt lat="4.595669" lon="-75.17421">
        <ele>2820.385</ele>
        <time>2021-11-14T14:11:18Z</time>
      </trkpt>
      <trkpt lat="4.595713" lon="-75.174187">
        <ele>2819.925</ele>
        <time>2021-11-14T14:11:19Z</time>
      </trkpt>
      <trkpt lat="4.595808" lon="-75.174126">
        <ele>2819.3044</ele>
        <time>2021-11-14T14:11:20Z</time>
      </trkpt>
      <trkpt lat="4.595868" lon="-75.174126">
        <ele>2820.5552</ele>
        <time>2021-11-14T14:11:21Z</time>
      </trkpt>
      <trkpt lat="4.595905" lon="-75.174118">
        <ele>2822.0916</ele>
        <time>2021-11-14T14:11:22Z</time>
      </trkpt>
      <trkpt lat="4.59593" lon="-75.174095">
        <ele>2825.2146</ele>
        <time>2021-11-14T14:11:23Z</time>
      </trkpt>
      <trkpt lat="4.596006" lon="-75.174011">
        <ele>2825.042</ele>
        <time>2021-11-14T14:11:24Z</time>
      </trkpt>
      <trkpt lat="4.596007" lon="-75.173973">
        <ele>2826.406</ele>
        <time>2021-11-14T14:11:25Z</time>
      </trkpt>
      <trkpt lat="4.596039" lon="-75.173882">
        <ele>2826.9917</ele>
        <time>2021-11-14T14:11:26Z</time>
      </trkpt>
      <trkpt lat="4.596052" lon="-75.173798">
        <ele>2827.891</ele>
        <time>2021-11-14T14:11:27Z</time>
      </trkpt>
      <trkpt lat="4.596081" lon="-75.173759">
        <ele>2829.353</ele>
        <time>2021-11-14T14:11:28Z</time>
      </trkpt>
      <trkpt lat="4.596147" lon="-75.173668">
        <ele>2830.1875</ele>
        <time>2021-11-14T14:11:29Z</time>
      </trkpt>
      <trkpt lat="4.596214" lon="-75.173615">
        <ele>2831.5557</ele>
        <time>2021-11-14T14:11:30Z</time>
      </trkpt>
      <trkpt lat="4.596233" lon="-75.173576">
        <ele>2831.0977</ele>
        <time>2021-11-14T14:11:31Z</time>
      </trkpt>
      <trkpt lat="4.596299" lon="-75.173531">
        <ele>2833.0168</ele>
        <time>2021-11-14T14:11:32Z</time>
      </trkpt>
      <trkpt lat="4.596386" lon="-75.173424">
        <ele>2832.8496</ele>
        <time>2021-11-14T14:11:33Z</time>
      </trkpt>
      <trkpt lat="4.596418" lon="-75.173386">
        <ele>2833.8884</ele>
        <time>2021-11-14T14:11:35Z</time>
      </trkpt>
      <trkpt lat="4.596477" lon="-75.173332">
        <ele>2834.217</ele>
        <time>2021-11-14T14:11:36Z</time>
      </trkpt>
      <trkpt lat="4.596477" lon="-75.173332">
        <ele>2834.9224</ele>
        <time>2021-11-14T14:11:37Z</time>
      </trkpt>
      <trkpt lat="4.596527" lon="-75.173309">
        <ele>2835.1362</ele>
        <time>2021-11-14T14:11:38Z</time>
      </trkpt>
      <trkpt lat="4.596613" lon="-75.173264">
        <ele>2834.6084</ele>
        <time>2021-11-14T14:11:39Z</time>
      </trkpt>
      <trkpt lat="4.596688" lon="-75.173256">
        <ele>2834.787</ele>
        <time>2021-11-14T14:11:40Z</time>
      </trkpt>
      <trkpt lat="4.596738" lon="-75.173279">
        <ele>2834.7085</ele>
        <time>2021-11-14T14:11:41Z</time>
      </trkpt>
      <trkpt lat="4.596811" lon="-75.173279">
        <ele>2835.9243</ele>
        <time>2021-11-14T14:11:42Z</time>
      </trkpt>
      <trkpt lat="4.5969" lon="-75.173309">
        <ele>2835.6453</ele>
        <time>2021-11-14T14:11:43Z</time>
      </trkpt>
      <trkpt lat="4.596956" lon="-75.173309">
        <ele>2836.2146</ele>
        <time>2021-11-14T14:11:44Z</time>
      </trkpt>
      <trkpt lat="4.597017" lon="-75.173248">
        <ele>2836.9524</ele>
        <time>2021-11-14T14:11:45Z</time>
      </trkpt>
      <trkpt lat="4.597063" lon="-75.173195">
        <ele>2836.805</ele>
        <time>2021-11-14T14:11:46Z</time>
      </trkpt>
      <trkpt lat="4.597111" lon="-75.17318">
        <ele>2837.375</ele>
        <time>2021-11-14T14:11:47Z</time>
      </trkpt>
      <trkpt lat="4.59716" lon="-75.173164">
        <ele>2837.9802</ele>
        <time>2021-11-14T14:11:48Z</time>
      </trkpt>
      <trkpt lat="4.597213" lon="-75.173187">
        <ele>2836.4978</ele>
        <time>2021-11-14T14:11:49Z</time>
      </trkpt>
      <trkpt lat="4.597228" lon="-75.173233">
        <ele>2838.2007</ele>
        <time>2021-11-14T14:11:50Z</time>
      </trkpt>
      <trkpt lat="4.597267" lon="-75.173279">
        <ele>2838.0854</ele>
        <time>2021-11-14T14:11:51Z</time>
      </trkpt>
      <trkpt lat="4.597319" lon="-75.17334">
        <ele>2839.2488</ele>
        <time>2021-11-14T14:11:52Z</time>
      </trkpt>
      <trkpt lat="4.597315" lon="-75.173393">
        <ele>2840.462</ele>
        <time>2021-11-14T14:11:53Z</time>
      </trkpt>
      <trkpt lat="4.59728" lon="-75.173439">
        <ele>2840.564</ele>
        <time>2021-11-14T14:11:54Z</time>
      </trkpt>
      <trkpt lat="4.597275" lon="-75.173508">
        <ele>2840.1392</ele>
        <time>2021-11-14T14:11:55Z</time>
      </trkpt>
      <trkpt lat="4.597262" lon="-75.173592">
        <ele>2840.5957</ele>
        <time>2021-11-14T14:11:56Z</time>
      </trkpt>
      <trkpt lat="4.597262" lon="-75.173668">
        <ele>2842.195</ele>
        <time>2021-11-14T14:11:57Z</time>
      </trkpt>
      <trkpt lat="4.597347" lon="-75.173721">
        <ele>2842.699</ele>
        <time>2021-11-14T14:11:58Z</time>
      </trkpt>
      <trkpt lat="4.597402" lon="-75.173737">
        <ele>2842.3965</ele>
        <time>2021-11-14T14:11:59Z</time>
      </trkpt>
      <trkpt lat="4.597481" lon="-75.173759">
        <ele>2842.3096</ele>
        <time>2021-11-14T14:12:00Z</time>
      </trkpt>
      <trkpt lat="4.597555" lon="-75.173759">
        <ele>2843.0955</ele>
        <time>2021-11-14T14:12:01Z</time>
      </trkpt>
      <trkpt lat="4.597645" lon="-75.173714">
        <ele>2844.324</ele>
        <time>2021-11-14T14:12:02Z</time>
      </trkpt>
      <trkpt lat="4.597707" lon="-75.173721">
        <ele>2845.1787</ele>
        <time>2021-11-14T14:12:03Z</time>
      </trkpt>
      <trkpt lat="4.597792" lon="-75.173721">
        <ele>2845.8845</ele>
        <time>2021-11-14T14:12:04Z</time>
      </trkpt>
      <trkpt lat="4.59789" lon="-75.173767">
        <ele>2846.4434</ele>
        <time>2021-11-14T14:12:05Z</time>
      </trkpt>
      <trkpt lat="4.59789" lon="-75.173767">
        <ele>2847.144</ele>
        <time>2021-11-14T14:12:06Z</time>
      </trkpt>
      <trkpt lat="4.597974" lon="-75.173775">
        <ele>2848.745</ele>
        <time>2021-11-14T14:12:07Z</time>
      </trkpt>
      <trkpt lat="4.598054" lon="-75.173782">
        <ele>2849.733</ele>
        <time>2021-11-14T14:12:08Z</time>
      </trkpt>
      <trkpt lat="4.598096" lon="-75.173744">
        <ele>2850.1736</ele>
        <time>2021-11-14T14:12:09Z</time>
      </trkpt>
      <trkpt lat="4.598161" lon="-75.173698">
        <ele>2851.7441</ele>
        <time>2021-11-14T14:12:10Z</time>
      </trkpt>
      <trkpt lat="4.598208" lon="-75.173645">
        <ele>2851.11</ele>
        <time>2021-11-14T14:12:11Z</time>
      </trkpt>
      <trkpt lat="4.59826" lon="-75.173599">
        <ele>2852.677</ele>
        <time>2021-11-14T14:12:12Z</time>
      </trkpt>
      <trkpt lat="4.598311" lon="-75.173607">
        <ele>2854.9226</ele>
        <time>2021-11-14T14:12:13Z</time>
      </trkpt>
      <trkpt lat="4.598368" lon="-75.173637">
        <ele>2854.3706</ele>
        <time>2021-11-14T14:12:14Z</time>
      </trkpt>
      <trkpt lat="4.59842" lon="-75.173683">
        <ele>2854.8142</ele>
        <time>2021-11-14T14:12:15Z</time>
      </trkpt>
      <trkpt lat="4.598462" lon="-75.173759">
        <ele>2857.1707</ele>
        <time>2021-11-14T14:12:16Z</time>
      </trkpt>
      <trkpt lat="4.598506" lon="-75.173866">
        <ele>2857.805</ele>
        <time>2021-11-14T14:12:17Z</time>
      </trkpt>
      <trkpt lat="4.598518" lon="-75.173897">
        <ele>2857.3784</ele>
        <time>2021-11-14T14:12:18Z</time>
      </trkpt>
      <trkpt lat="4.59855" lon="-75.17395">
        <ele>2857.4036</ele>
        <time>2021-11-14T14:12:19Z</time>
      </trkpt>
      <trkpt lat="4.598574" lon="-75.174011">
        <ele>2858.2888</ele>
        <time>2021-11-14T14:12:20Z</time>
      </trkpt>
      <trkpt lat="4.598521" lon="-75.174065">
        <ele>2858.6597</ele>
        <time>2021-11-14T14:12:21Z</time>
      </trkpt>
      <trkpt lat="4.598474" lon="-75.174103">
        <ele>2858.98</ele>
        <time>2021-11-14T14:12:22Z</time>
      </trkpt>
      <trkpt lat="4.59846" lon="-75.174187">
        <ele>2858.7114</ele>
        <time>2021-11-14T14:12:23Z</time>
      </trkpt>
      <trkpt lat="4.598463" lon="-75.174232">
        <ele>2858.6511</ele>
        <time>2021-11-14T14:12:24Z</time>
      </trkpt>
      <trkpt lat="4.598506" lon="-75.174294">
        <ele>2858.3237</ele>
        <time>2021-11-14T14:12:25Z</time>
      </trkpt>
      <trkpt lat="4.598571" lon="-75.174263">
        <ele>2858.7244</ele>
        <time>2021-11-14T14:12:26Z</time>
      </trkpt>
      <trkpt lat="4.598671" lon="-75.174278">
        <ele>2858.7563</ele>
        <time>2021-11-14T14:12:27Z</time>
      </trkpt>
      <trkpt lat="4.598707" lon="-75.174316">
        <ele>2858.2588</ele>
        <time>2021-11-14T14:12:28Z</time>
      </trkpt>
      <trkpt lat="4.598771" lon="-75.174316">
        <ele>2858.98</ele>
        <time>2021-11-14T14:12:29Z</time>
      </trkpt>
      <trkpt lat="4.598771" lon="-75.174316">
        <ele>2859.2988</ele>
        <time>2021-11-14T14:12:30Z</time>
      </trkpt>
      <trkpt lat="4.598832" lon="-75.174339">
        <ele>2859.6675</ele>
        <time>2021-11-14T14:12:31Z</time>
      </trkpt>
      <trkpt lat="4.598872" lon="-75.17437">
        <ele>2859.718</ele>
        <time>2021-11-14T14:12:32Z</time>
      </trkpt>
      <trkpt lat="4.598886" lon="-75.174408">
        <ele>2861.9915</ele>
        <time>2021-11-14T14:12:33Z</time>
      </trkpt>
      <trkpt lat="4.598898" lon="-75.174438">
        <ele>2862.8186</ele>
        <time>2021-11-14T14:12:34Z</time>
      </trkpt>
      <trkpt lat="4.598903" lon="-75.174461">
        <ele>2862.525</ele>
        <time>2021-11-14T14:12:35Z</time>
      </trkpt>
      <trkpt lat="4.598913" lon="-75.174477">
        <ele>2863.1497</ele>
        <time>2021-11-14T14:12:36Z</time>
      </trkpt>
      <trkpt lat="4.59891" lon="-75.174515">
        <ele>2863.443</ele>
        <time>2021-11-14T14:12:37Z</time>
      </trkpt>
      <trkpt lat="4.598889" lon="-75.174561">
        <ele>2863.8997</ele>
        <time>2021-11-14T14:12:38Z</time>
      </trkpt>
      <trkpt lat="4.598877" lon="-75.174576">
        <ele>2864.8335</ele>
        <time>2021-11-14T14:12:39Z</time>
      </trkpt>
      <trkpt lat="4.598848" lon="-75.174713">
        <ele>2865.6401</ele>
        <time>2021-11-14T14:12:40Z</time>
      </trkpt>
      <trkpt lat="4.598847" lon="-75.174759">
        <ele>2866.195</ele>
        <time>2021-11-14T14:12:41Z</time>
      </trkpt>
      <trkpt lat="4.598852" lon="-75.174805">
        <ele>2866.2002</ele>
        <time>2021-11-14T14:12:42Z</time>
      </trkpt>
      <trkpt lat="4.598867" lon="-75.174858">
        <ele>2866.2637</ele>
        <time>2021-11-14T14:12:43Z</time>
      </trkpt>
      <trkpt lat="4.598874" lon="-75.174904">
        <ele>2866.6626</ele>
        <time>2021-11-14T14:12:44Z</time>
      </trkpt>
      <trkpt lat="4.598876" lon="-75.17495">
        <ele>2865.9805</ele>
        <time>2021-11-14T14:12:45Z</time>
      </trkpt>
      <trkpt lat="4.598879" lon="-75.17498">
        <ele>2867.6028</ele>
        <time>2021-11-14T14:12:46Z</time>
      </trkpt>
      <trkpt lat="4.598885" lon="-75.174995">
        <ele>2868.0613</ele>
        <time>2021-11-14T14:12:47Z</time>
      </trkpt>
      <trkpt lat="4.598891" lon="-75.175011">
        <ele>2869.4656</ele>
        <time>2021-11-14T14:12:48Z</time>
      </trkpt>
      <trkpt lat="4.598907" lon="-75.175064">
        <ele>2869.567</ele>
        <time>2021-11-14T14:12:49Z</time>
      </trkpt>
      <trkpt lat="4.598916" lon="-75.175056">
        <ele>2870.7556</ele>
        <time>2021-11-14T14:12:50Z</time>
      </trkpt>
      <trkpt lat="4.598918" lon="-75.175064">
        <ele>2871.523</ele>
        <time>2021-11-14T14:12:51Z</time>
      </trkpt>
      <trkpt lat="4.598917" lon="-75.175072">
        <ele>2872.3782</ele>
        <time>2021-11-14T14:12:52Z</time>
      </trkpt>
      <trkpt lat="4.598919" lon="-75.175072">
        <ele>2873.067</ele>
        <time>2021-11-14T14:12:53Z</time>
      </trkpt>
      <trkpt lat="4.598919" lon="-75.175072">
        <ele>2872.9426</ele>
        <time>2021-11-14T14:12:54Z</time>
      </trkpt>
      <trkpt lat="4.598919" lon="-75.175072">
        <ele>2872.9731</ele>
        <time>2021-11-14T14:12:55Z</time>
      </trkpt>
      <trkpt lat="4.598918" lon="-75.175072">
        <ele>2872.9463</ele>
        <time>2021-11-14T14:12:56Z</time>
      </trkpt>
      <trkpt lat="4.598939" lon="-75.175095">
        <ele>2874.0151</ele>
        <time>2021-11-14T14:12:57Z</time>
      </trkpt>
      <trkpt lat="4.598991" lon="-75.17514">
        <ele>2873.7324</ele>
        <time>2021-11-14T14:12:58Z</time>
      </trkpt>
      <trkpt lat="4.599002" lon="-75.17511">
        <ele>2873.7659</ele>
        <time>2021-11-14T14:12:59Z</time>
      </trkpt>
      <trkpt lat="4.599099" lon="-75.175133">
        <ele>2874.006</ele>
        <time>2021-11-14T14:13:01Z</time>
      </trkpt>
      <trkpt lat="4.599139" lon="-75.175156">
        <ele>2874.2966</ele>
        <time>2021-11-14T14:13:02Z</time>
      </trkpt>
      <trkpt lat="4.599136" lon="-75.175148">
        <ele>2874.336</ele>
        <time>2021-11-14T14:13:03Z</time>
      </trkpt>
      <trkpt lat="4.599176" lon="-75.175163">
        <ele>2875.6716</ele>
        <time>2021-11-14T14:13:04Z</time>
      </trkpt>
      <trkpt lat="4.599201" lon="-75.175171">
        <ele>2875.749</ele>
        <time>2021-11-14T14:13:05Z</time>
      </trkpt>
      <trkpt lat="4.59926" lon="-75.175194">
        <ele>2875.7407</ele>
        <time>2021-11-14T14:13:06Z</time>
      </trkpt>
      <trkpt lat="4.599338" lon="-75.175232">
        <ele>2875.2598</ele>
        <time>2021-11-14T14:13:07Z</time>
      </trkpt>
      <trkpt lat="4.599388" lon="-75.175262">
        <ele>2875.7646</ele>
        <time>2021-11-14T14:13:08Z</time>
      </trkpt>
      <trkpt lat="4.599439" lon="-75.175285">
        <ele>2875.693</ele>
        <time>2021-11-14T14:13:09Z</time>
      </trkpt>
      <trkpt lat="4.599502" lon="-75.175308">
        <ele>2875.7522</ele>
        <time>2021-11-14T14:13:10Z</time>
      </trkpt>
      <trkpt lat="4.599592" lon="-75.175323">
        <ele>2876.2212</ele>
        <time>2021-11-14T14:13:11Z</time>
      </trkpt>
      <trkpt lat="4.599668" lon="-75.175339">
        <ele>2876.499</ele>
        <time>2021-11-14T14:13:12Z</time>
      </trkpt>
      <trkpt lat="4.599703" lon="-75.175354">
        <ele>2876.7795</ele>
        <time>2021-11-14T14:13:13Z</time>
      </trkpt>
      <trkpt lat="4.599809" lon="-75.175377">
        <ele>2876.983</ele>
        <time>2021-11-14T14:13:14Z</time>
      </trkpt>
      <trkpt lat="4.599905" lon="-75.175407">
        <ele>2879.6685</ele>
        <time>2021-11-14T14:13:15Z</time>
      </trkpt>
      <trkpt lat="4.599899" lon="-75.1754">
        <ele>2877.362</ele>
        <time>2021-11-14T14:13:16Z</time>
      </trkpt>
      <trkpt lat="4.599897" lon="-75.175407">
        <ele>2877.368</ele>
        <time>2021-11-14T14:13:17Z</time>
      </trkpt>
      <trkpt lat="4.599904" lon="-75.175468">
        <ele>2878.495</ele>
        <time>2021-11-14T14:13:18Z</time>
      </trkpt>
      <trkpt lat="4.599901" lon="-75.175575">
        <ele>2879.4175</ele>
        <time>2021-11-14T14:13:19Z</time>
      </trkpt>
      <trkpt lat="4.599919" lon="-75.175629">
        <ele>2880.3052</ele>
        <time>2021-11-14T14:13:20Z</time>
      </trkpt>
      <trkpt lat="4.599938" lon="-75.175735">
        <ele>2881.2524</ele>
        <time>2021-11-14T14:13:21Z</time>
      </trkpt>
      <trkpt lat="4.599959" lon="-75.175751">
        <ele>2880.8176</ele>
        <time>2021-11-14T14:13:22Z</time>
      </trkpt>
      <trkpt lat="4.59998" lon="-75.175819">
        <ele>2880.6458</ele>
        <time>2021-11-14T14:13:23Z</time>
      </trkpt>
      <trkpt lat="4.59998" lon="-75.175819">
        <ele>2879.396</ele>
        <time>2021-11-14T14:13:24Z</time>
      </trkpt>
      <trkpt lat="4.60001" lon="-75.175873">
        <ele>2880.0447</ele>
        <time>2021-11-14T14:13:25Z</time>
      </trkpt>
      <trkpt lat="4.600051" lon="-75.175934">
        <ele>2882.0496</ele>
        <time>2021-11-14T14:13:26Z</time>
      </trkpt>
      <trkpt lat="4.600103" lon="-75.176025">
        <ele>2883.336</ele>
        <time>2021-11-14T14:13:27Z</time>
      </trkpt>
      <trkpt lat="4.600132" lon="-75.176086">
        <ele>2884.4424</ele>
        <time>2021-11-14T14:13:28Z</time>
      </trkpt>
      <trkpt lat="4.60017" lon="-75.17617">
        <ele>2885.1873</ele>
        <time>2021-11-14T14:13:29Z</time>
      </trkpt>
      <trkpt lat="4.600215" lon="-75.176262">
        <ele>2885.8677</ele>
        <time>2021-11-14T14:13:30Z</time>
      </trkpt>
      <trkpt lat="4.600233" lon="-75.1763">
        <ele>2887.388</ele>
        <time>2021-11-14T14:13:31Z</time>
      </trkpt>
      <trkpt lat="4.600255" lon="-75.176361">
        <ele>2888.0034</ele>
        <time>2021-11-14T14:13:32Z</time>
      </trkpt>
      <trkpt lat="4.600264" lon="-75.176399">
        <ele>2888.7622</ele>
        <time>2021-11-14T14:13:33Z</time>
      </trkpt>
      <trkpt lat="4.600282" lon="-75.17643">
        <ele>2888.889</ele>
        <time>2021-11-14T14:13:34Z</time>
      </trkpt>
      <trkpt lat="4.600304" lon="-75.17646">
        <ele>2889.346</ele>
        <time>2021-11-14T14:13:35Z</time>
      </trkpt>
      <trkpt lat="4.600357" lon="-75.176498">
        <ele>2888.89</ele>
        <time>2021-11-14T14:13:36Z</time>
      </trkpt>
      <trkpt lat="4.600434" lon="-75.176552">
        <ele>2888.8066</ele>
        <time>2021-11-14T14:13:37Z</time>
      </trkpt>
      <trkpt lat="4.600411" lon="-75.176544">
        <ele>2888.5645</ele>
        <time>2021-11-14T14:13:38Z</time>
      </trkpt>
      <trkpt lat="4.600503" lon="-75.17659">
        <ele>2888.8435</ele>
        <time>2021-11-14T14:13:39Z</time>
      </trkpt>
      <trkpt lat="4.600568" lon="-75.176643">
        <ele>2889.8606</ele>
        <time>2021-11-14T14:13:40Z</time>
      </trkpt>
      <trkpt lat="4.600696" lon="-75.176796">
        <ele>2889.2925</ele>
        <time>2021-11-14T14:13:41Z</time>
      </trkpt>
      <trkpt lat="4.600705" lon="-75.176826">
        <ele>2890.6875</ele>
        <time>2021-11-14T14:13:42Z</time>
      </trkpt>
      <trkpt lat="4.600831" lon="-75.176926">
        <ele>2893.7344</ele>
        <time>2021-11-14T14:13:43Z</time>
      </trkpt>
      <trkpt lat="4.6009" lon="-75.176971">
        <ele>2894.38</ele>
        <time>2021-11-14T14:13:44Z</time>
      </trkpt>
      <trkpt lat="4.600955" lon="-75.17701">
        <ele>2895.4155</ele>
        <time>2021-11-14T14:13:45Z</time>
      </trkpt>
      <trkpt lat="4.600953" lon="-75.17701">
        <ele>2896.156</ele>
        <time>2021-11-14T14:13:46Z</time>
      </trkpt>
      <trkpt lat="4.600953" lon="-75.17701">
        <ele>2897.135</ele>
        <time>2021-11-14T14:13:47Z</time>
      </trkpt>
      <trkpt lat="4.600977" lon="-75.177032">
        <ele>2897.4421</ele>
        <time>2021-11-14T14:13:49Z</time>
      </trkpt>
      <trkpt lat="4.601008" lon="-75.177055">
        <ele>2897.848</ele>
        <time>2021-11-14T14:13:50Z</time>
      </trkpt>
      <trkpt lat="4.601054" lon="-75.177086">
        <ele>2898.2324</ele>
        <time>2021-11-14T14:13:51Z</time>
      </trkpt>
      <trkpt lat="4.601028" lon="-75.177086">
        <ele>2898.5706</ele>
        <time>2021-11-14T14:13:52Z</time>
      </trkpt>
      <trkpt lat="4.601037" lon="-75.177094">
        <ele>2898.9128</ele>
        <time>2021-11-14T14:13:53Z</time>
      </trkpt>
      <trkpt lat="4.601032" lon="-75.177086">
        <ele>2899.0833</ele>
        <time>2021-11-14T14:13:54Z</time>
      </trkpt>
      <trkpt lat="4.60103" lon="-75.177086">
        <ele>2899.3987</ele>
        <time>2021-11-14T14:13:55Z</time>
      </trkpt>
      <trkpt lat="4.601032" lon="-75.177086">
        <ele>2899.3596</ele>
        <time>2021-11-14T14:13:56Z</time>
      </trkpt>
      <trkpt lat="4.601032" lon="-75.177086">
        <ele>2899.4268</ele>
        <time>2021-11-14T14:13:57Z</time>
      </trkpt>
      <trkpt lat="4.601034" lon="-75.177086">
        <ele>2899.69</ele>
        <time>2021-11-14T14:13:58Z</time>
      </trkpt>
      <trkpt lat="4.601034" lon="-75.177086">
        <ele>2899.9114</ele>
        <time>2021-11-14T14:13:59Z</time>
      </trkpt>
      <trkpt lat="4.601035" lon="-75.177086">
        <ele>2899.4297</ele>
        <time>2021-11-14T14:14:00Z</time>
      </trkpt>
      <trkpt lat="4.601034" lon="-75.177094">
        <ele>2899.5896</ele>
        <time>2021-11-14T14:14:01Z</time>
      </trkpt>
      <trkpt lat="4.601034" lon="-75.177086">
        <ele>2899.656</ele>
        <time>2021-11-14T14:14:02Z</time>
      </trkpt>
      <trkpt lat="4.601034" lon="-75.177094">
        <ele>2899.7356</ele>
        <time>2021-11-14T14:14:03Z</time>
      </trkpt>
      <trkpt lat="4.601034" lon="-75.177094">
        <ele>2899.766</ele>
        <time>2021-11-14T14:14:04Z</time>
      </trkpt>
      <trkpt lat="4.601035" lon="-75.177094">
        <ele>2899.8594</ele>
        <time>2021-11-14T14:14:05Z</time>
      </trkpt>
      <trkpt lat="4.601035" lon="-75.177086">
        <ele>2900.0093</ele>
        <time>2021-11-14T14:14:06Z</time>
      </trkpt>
      <trkpt lat="4.601036" lon="-75.177086">
        <ele>2899.9438</ele>
        <time>2021-11-14T14:14:07Z</time>
      </trkpt>
      <trkpt lat="4.601036" lon="-75.177086">
        <ele>2900.0068</ele>
        <time>2021-11-14T14:14:08Z</time>
      </trkpt>
      <trkpt lat="4.601036" lon="-75.177086">
        <ele>2899.9333</ele>
        <time>2021-11-14T14:14:09Z</time>
      </trkpt>
      <trkpt lat="4.601036" lon="-75.177086">
        <ele>2899.9382</ele>
        <time>2021-11-14T14:14:10Z</time>
      </trkpt>
      <trkpt lat="4.601036" lon="-75.177086">
        <ele>2899.9482</ele>
        <time>2021-11-14T14:14:11Z</time>
      </trkpt>
      <trkpt lat="4.601037" lon="-75.177086">
        <ele>2899.9597</ele>
        <time>2021-11-14T14:14:12Z</time>
      </trkpt>
      <trkpt lat="4.601037" lon="-75.177086">
        <ele>2900.0469</ele>
        <time>2021-11-14T14:14:13Z</time>
      </trkpt>
      <trkpt lat="4.601037" lon="-75.177086">
        <ele>2899.9265</ele>
        <time>2021-11-14T14:14:14Z</time>
      </trkpt>
      <trkpt lat="4.601037" lon="-75.177086">
        <ele>2899.886</ele>
        <time>2021-11-14T14:14:15Z</time>
      </trkpt>
      <trkpt lat="4.601037" lon="-75.177086">
        <ele>2899.9268</ele>
        <time>2021-11-14T14:14:16Z</time>
      </trkpt>
      <trkpt lat="4.60044" lon="-75.176491">
        <ele>2894.4524</ele>
        <time>2021-11-14T14:31:10Z</time>
      </trkpt>
      <trkpt lat="4.600413" lon="-75.176514">
        <ele>2895.2356</ele>
        <time>2021-11-14T14:31:11Z</time>
      </trkpt>
      <trkpt lat="4.600407" lon="-75.176537">
        <ele>2897.6626</ele>
        <time>2021-11-14T14:31:13Z</time>
      </trkpt>
      <trkpt lat="4.600385" lon="-75.176537">
        <ele>2896.985</ele>
        <time>2021-11-14T14:31:14Z</time>
      </trkpt>
      <trkpt lat="4.600396" lon="-75.176544">
        <ele>2894.9573</ele>
        <time>2021-11-14T14:31:15Z</time>
      </trkpt>
      <trkpt lat="4.600396" lon="-75.176537">
        <ele>2893.266</ele>
        <time>2021-11-14T14:31:16Z</time>
      </trkpt>
      <trkpt lat="4.600399" lon="-75.176537">
        <ele>2893.1565</ele>
        <time>2021-11-14T14:31:17Z</time>
      </trkpt>
      <trkpt lat="4.600402" lon="-75.176529">
        <ele>2893.7783</ele>
        <time>2021-11-14T14:31:18Z</time>
      </trkpt>
      <trkpt lat="4.600399" lon="-75.176521">
        <ele>2895.1013</ele>
        <time>2021-11-14T14:31:21Z</time>
      </trkpt>
      <trkpt lat="4.600422" lon="-75.176468">
        <ele>2884.1367</ele>
        <time>2021-11-14T14:47:03Z</time>
      </trkpt>
      <trkpt lat="4.600412" lon="-75.176476">
        <ele>2885.876</ele>
        <time>2021-11-14T14:47:04Z</time>
      </trkpt>
      <trkpt lat="4.600408" lon="-75.176483">
        <ele>2885.5615</ele>
        <time>2021-11-14T14:47:05Z</time>
      </trkpt>
      <trkpt lat="4.600409" lon="-75.176476">
        <ele>2886.5476</ele>
        <time>2021-11-14T14:47:06Z</time>
      </trkpt>
      <trkpt lat="4.600409" lon="-75.176483">
        <ele>2886.0056</ele>
        <time>2021-11-14T14:47:07Z</time>
      </trkpt>
      <trkpt lat="4.600408" lon="-75.176483">
        <ele>2886.6301</ele>
        <time>2021-11-14T14:47:08Z</time>
      </trkpt>
      <trkpt lat="4.600408" lon="-75.176483">
        <ele>2886.3826</ele>
        <time>2021-11-14T14:47:09Z</time>
      </trkpt>
      <trkpt lat="4.600406" lon="-75.176483">
        <ele>2886.6392</ele>
        <time>2021-11-14T14:47:11Z</time>
      </trkpt>
      <trkpt lat="4.600406" lon="-75.176483">
        <ele>2886.722</ele>
        <time>2021-11-14T14:47:12Z</time>
      </trkpt>
      <trkpt lat="4.600406" lon="-75.176483">
        <ele>2886.7712</ele>
        <time>2021-11-14T14:47:13Z</time>
      </trkpt>
      <trkpt lat="4.600406" lon="-75.176483">
        <ele>2886.7654</ele>
        <time>2021-11-14T14:47:15Z</time>
      </trkpt>
      <trkpt lat="4.600406" lon="-75.176483">
        <ele>2886.7744</ele>
        <time>2021-11-14T14:47:16Z</time>
      </trkpt>
      <trkpt lat="4.600406" lon="-75.176483">
        <ele>2886.7827</ele>
        <time>2021-11-14T14:47:17Z</time>
      </trkpt>
      <trkpt lat="4.600406" lon="-75.176483">
        <ele>2886.7905</ele>
        <time>2021-11-14T14:47:18Z</time>
      </trkpt>
      <trkpt lat="4.600406" lon="-75.176483">
        <ele>2886.8162</ele>
        <time>2021-11-14T14:47:19Z</time>
      </trkpt>
      <trkpt lat="4.600406" lon="-75.176483">
        <ele>2886.8252</ele>
        <time>2021-11-14T14:47:20Z</time>
      </trkpt>
      <trkpt lat="4.600406" lon="-75.176483">
        <ele>2886.83</ele>
        <time>2021-11-14T14:47:21Z</time>
      </trkpt>
      <trkpt lat="4.600406" lon="-75.176483">
        <ele>2886.8293</ele>
        <time>2021-11-14T14:47:22Z</time>
      </trkpt>
      <trkpt lat="4.600406" lon="-75.176483">
        <ele>2886.8315</ele>
        <time>2021-11-14T14:47:23Z</time>
      </trkpt>
      <trkpt lat="4.600406" lon="-75.176483">
        <ele>2886.8313</ele>
        <time>2021-11-14T14:47:24Z</time>
      </trkpt>
      <trkpt lat="4.600406" lon="-75.176483">
        <ele>2886.7896</ele>
        <time>2021-11-14T14:47:26Z</time>
      </trkpt>
      <trkpt lat="4.600406" lon="-75.176483">
        <ele>2886.7942</ele>
        <time>2021-11-14T14:47:27Z</time>
      </trkpt>
      <trkpt lat="4.600406" lon="-75.176483">
        <ele>2886.7979</ele>
        <time>2021-11-14T14:47:29Z</time>
      </trkpt>
      <trkpt lat="4.600406" lon="-75.176483">
        <ele>2886.848</ele>
        <time>2021-11-14T14:47:30Z</time>
      </trkpt>
      <trkpt lat="4.600406" lon="-75.176483">
        <ele>2886.8555</ele>
        <time>2021-11-14T14:47:31Z</time>
      </trkpt>
      <trkpt lat="4.600406" lon="-75.176483">
        <ele>2886.7937</ele>
        <time>2021-11-14T14:47:32Z</time>
      </trkpt>
      <trkpt lat="4.600406" lon="-75.176483">
        <ele>2886.6797</ele>
        <time>2021-11-14T14:47:34Z</time>
      </trkpt>
      <trkpt lat="4.600406" lon="-75.176483">
        <ele>2886.664</ele>
        <time>2021-11-14T14:47:35Z</time>
      </trkpt>
      <trkpt lat="4.600406" lon="-75.176483">
        <ele>2886.5627</ele>
        <time>2021-11-14T14:47:36Z</time>
      </trkpt>
      <trkpt lat="4.600406" lon="-75.176483">
        <ele>2886.6062</ele>
        <time>2021-11-14T14:47:37Z</time>
      </trkpt>
      <trkpt lat="4.600406" lon="-75.176483">
        <ele>2886.4956</ele>
        <time>2021-11-14T14:47:38Z</time>
      </trkpt>
      <trkpt lat="4.600406" lon="-75.176483">
        <ele>2886.5042</ele>
        <time>2021-11-14T14:47:39Z</time>
      </trkpt>
      <trkpt lat="4.600406" lon="-75.176483">
        <ele>2886.5125</ele>
        <time>2021-11-14T14:47:40Z</time>
      </trkpt>
      <trkpt lat="4.600406" lon="-75.176483">
        <ele>2886.5276</ele>
        <time>2021-11-14T14:47:42Z</time>
      </trkpt>
      <trkpt lat="4.600406" lon="-75.176483">
        <ele>2886.5916</ele>
        <time>2021-11-14T14:47:43Z</time>
      </trkpt>
      <trkpt lat="4.600406" lon="-75.176483">
        <ele>2886.5952</ele>
        <time>2021-11-14T14:47:44Z</time>
      </trkpt>
      <trkpt lat="4.600406" lon="-75.176483">
        <ele>2886.6182</ele>
        <time>2021-11-14T14:47:45Z</time>
      </trkpt>
      <trkpt lat="4.600406" lon="-75.176483">
        <ele>2886.625</ele>
        <time>2021-11-14T14:47:46Z</time>
      </trkpt>
      <trkpt lat="4.600406" lon="-75.176483">
        <ele>2886.6272</ele>
        <time>2021-11-14T14:47:47Z</time>
      </trkpt>
      <trkpt lat="4.600406" lon="-75.176483">
        <ele>2886.6372</ele>
        <time>2021-11-14T14:47:48Z</time>
      </trkpt>
      <trkpt lat="4.600406" lon="-75.176483">
        <ele>2886.6199</ele>
        <time>2021-11-14T14:47:49Z</time>
      </trkpt>
      <trkpt lat="4.600406" lon="-75.176483">
        <ele>2886.6072</ele>
        <time>2021-11-14T14:47:50Z</time>
      </trkpt>
      <trkpt lat="4.600406" lon="-75.176483">
        <ele>2886.6392</ele>
        <time>2021-11-14T14:47:51Z</time>
      </trkpt>
      <trkpt lat="4.600406" lon="-75.176483">
        <ele>2886.6555</ele>
        <time>2021-11-14T14:47:52Z</time>
      </trkpt>
      <trkpt lat="4.600406" lon="-75.176483">
        <ele>2886.7168</ele>
        <time>2021-11-14T14:47:54Z</time>
      </trkpt>
      <trkpt lat="4.600406" lon="-75.176483">
        <ele>2886.7258</ele>
        <time>2021-11-14T14:47:55Z</time>
      </trkpt>
      <trkpt lat="4.600408" lon="-75.176483">
        <ele>2887.036</ele>
        <time>2021-11-14T14:47:56Z</time>
      </trkpt>
      <trkpt lat="4.60041" lon="-75.176491">
        <ele>2887.4114</ele>
        <time>2021-11-14T14:47:57Z</time>
      </trkpt>
      <trkpt lat="4.60041" lon="-75.176491">
        <ele>2887.3489</ele>
        <time>2021-11-14T14:47:58Z</time>
      </trkpt>
      <trkpt lat="4.600411" lon="-75.176491">
        <ele>2887.5154</ele>
        <time>2021-11-14T14:47:59Z</time>
      </trkpt>
      <trkpt lat="4.60041" lon="-75.176491">
        <ele>2887.775</ele>
        <time>2021-11-14T14:48:00Z</time>
      </trkpt>
      <trkpt lat="4.60041" lon="-75.176491">
        <ele>2887.596</ele>
        <time>2021-11-14T14:48:01Z</time>
      </trkpt>
      <trkpt lat="4.600409" lon="-75.176491">
        <ele>2887.7207</ele>
        <time>2021-11-14T14:48:02Z</time>
      </trkpt>
      <trkpt lat="4.600409" lon="-75.176491">
        <ele>2887.9124</ele>
        <time>2021-11-14T14:48:03Z</time>
      </trkpt>
      <trkpt lat="4.600409" lon="-75.176498">
        <ele>2888.0054</ele>
        <time>2021-11-14T14:48:04Z</time>
      </trkpt>
      <trkpt lat="4.600409" lon="-75.176498">
        <ele>2888.0544</ele>
        <time>2021-11-14T14:48:05Z</time>
      </trkpt>
      <trkpt lat="4.600408" lon="-75.176498">
        <ele>2888.041</ele>
        <time>2021-11-14T14:48:06Z</time>
      </trkpt>
      <trkpt lat="4.600408" lon="-75.176498">
        <ele>2888.0413</ele>
        <time>2021-11-14T14:48:08Z</time>
      </trkpt>
      <trkpt lat="4.600408" lon="-75.176498">
        <ele>2888.0603</ele>
        <time>2021-11-14T14:48:09Z</time>
      </trkpt>
      <trkpt lat="4.600408" lon="-75.176498">
        <ele>2888.0618</ele>
        <time>2021-11-14T14:48:10Z</time>
      </trkpt>
      <trkpt lat="4.600408" lon="-75.176498">
        <ele>2888.0627</ele>
        <time>2021-11-14T14:48:11Z</time>
      </trkpt>
      <trkpt lat="4.600408" lon="-75.176498">
        <ele>2888.063</ele>
        <time>2021-11-14T14:48:12Z</time>
      </trkpt>
      <trkpt lat="4.600408" lon="-75.176498">
        <ele>2888.0664</ele>
        <time>2021-11-14T14:48:13Z</time>
      </trkpt>
      <trkpt lat="4.600408" lon="-75.176498">
        <ele>2888.0674</ele>
        <time>2021-11-14T14:48:15Z</time>
      </trkpt>
      <trkpt lat="4.600408" lon="-75.176498">
        <ele>2888.0706</ele>
        <time>2021-11-14T14:48:16Z</time>
      </trkpt>
      <trkpt lat="4.600408" lon="-75.176498">
        <ele>2888.0706</ele>
        <time>2021-11-14T14:48:17Z</time>
      </trkpt>
      <trkpt lat="4.600408" lon="-75.176498">
        <ele>2888.0698</ele>
        <time>2021-11-14T14:48:18Z</time>
      </trkpt>
      <trkpt lat="4.600408" lon="-75.176498">
        <ele>2888.07</ele>
        <time>2021-11-14T14:48:19Z</time>
      </trkpt>
      <trkpt lat="4.600408" lon="-75.176498">
        <ele>2888.0732</ele>
        <time>2021-11-14T14:48:20Z</time>
      </trkpt>
      <trkpt lat="4.600408" lon="-75.176498">
        <ele>2888.095</ele>
        <time>2021-11-14T14:48:21Z</time>
      </trkpt>
      <trkpt lat="4.600408" lon="-75.176498">
        <ele>2888.095</ele>
        <time>2021-11-14T14:48:22Z</time>
      </trkpt>
      <trkpt lat="4.600408" lon="-75.176498">
        <ele>2888.1184</ele>
        <time>2021-11-14T14:48:24Z</time>
      </trkpt>
      <trkpt lat="4.600408" lon="-75.176498">
        <ele>2888.1196</ele>
        <time>2021-11-14T14:48:25Z</time>
      </trkpt>
      <trkpt lat="4.600408" lon="-75.176498">
        <ele>2888.1199</ele>
        <time>2021-11-14T14:48:26Z</time>
      </trkpt>
      <trkpt lat="4.600408" lon="-75.176498">
        <ele>2888.1218</ele>
        <time>2021-11-14T14:48:27Z</time>
      </trkpt>
      <trkpt lat="4.600408" lon="-75.176498">
        <ele>2888.1194</ele>
        <time>2021-11-14T14:48:28Z</time>
      </trkpt>
      <trkpt lat="4.600408" lon="-75.176498">
        <ele>2888.1216</ele>
        <time>2021-11-14T14:48:29Z</time>
      </trkpt>
      <trkpt lat="4.600408" lon="-75.176498">
        <ele>2888.1216</ele>
        <time>2021-11-14T14:48:30Z</time>
      </trkpt>
      <trkpt lat="4.600408" lon="-75.176498">
        <ele>2888.1226</ele>
        <time>2021-11-14T14:48:31Z</time>
      </trkpt>
      <trkpt lat="4.600408" lon="-75.176498">
        <ele>2888.125</ele>
        <time>2021-11-14T14:48:33Z</time>
      </trkpt>
      <trkpt lat="4.600408" lon="-75.176498">
        <ele>2888.1252</ele>
        <time>2021-11-14T14:48:34Z</time>
      </trkpt>
      <trkpt lat="4.600408" lon="-75.176498">
        <ele>2888.1272</ele>
        <time>2021-11-14T14:48:35Z</time>
      </trkpt>
      <trkpt lat="4.600408" lon="-75.176498">
        <ele>2888.1265</ele>
        <time>2021-11-14T14:48:36Z</time>
      </trkpt>
      <trkpt lat="4.600408" lon="-75.176498">
        <ele>2888.1277</ele>
        <time>2021-11-14T14:48:37Z</time>
      </trkpt>
      <trkpt lat="4.600408" lon="-75.176498">
        <ele>2888.1284</ele>
        <time>2021-11-14T14:48:38Z</time>
      </trkpt>
      <trkpt lat="4.600408" lon="-75.176498">
        <ele>2888.13</ele>
        <time>2021-11-14T14:48:39Z</time>
      </trkpt>
      <trkpt lat="4.600408" lon="-75.176498">
        <ele>2888.1304</ele>
        <time>2021-11-14T14:48:40Z</time>
      </trkpt>
      <trkpt lat="4.600408" lon="-75.176498">
        <ele>2888.131</ele>
        <time>2021-11-14T14:48:41Z</time>
      </trkpt>
      <trkpt lat="4.600408" lon="-75.176498">
        <ele>2888.1323</ele>
        <time>2021-11-14T14:48:42Z</time>
      </trkpt>
      <trkpt lat="4.600408" lon="-75.176498">
        <ele>2888.133</ele>
        <time>2021-11-14T14:48:43Z</time>
      </trkpt>
      <trkpt lat="4.600408" lon="-75.176498">
        <ele>2888.1343</ele>
        <time>2021-11-14T14:48:44Z</time>
      </trkpt>
      <trkpt lat="4.600408" lon="-75.176498">
        <ele>2888.1367</ele>
        <time>2021-11-14T14:48:46Z</time>
      </trkpt>
      <trkpt lat="4.600408" lon="-75.176498">
        <ele>2888.138</ele>
        <time>2021-11-14T14:48:47Z</time>
      </trkpt>
      <trkpt lat="4.600408" lon="-75.176498">
        <ele>2888.1384</ele>
        <time>2021-11-14T14:48:48Z</time>
      </trkpt>
      <trkpt lat="4.600408" lon="-75.176498">
        <ele>2888.1401</ele>
        <time>2021-11-14T14:48:49Z</time>
      </trkpt>
      <trkpt lat="4.600408" lon="-75.176498">
        <ele>2888.1409</ele>
        <time>2021-11-14T14:48:50Z</time>
      </trkpt>
      <trkpt lat="4.600408" lon="-75.176498">
        <ele>2888.1416</ele>
        <time>2021-11-14T14:48:51Z</time>
      </trkpt>
      <trkpt lat="4.600408" lon="-75.176498">
        <ele>2888.1428</ele>
        <time>2021-11-14T14:48:52Z</time>
      </trkpt>
      <trkpt lat="4.600408" lon="-75.176498">
        <ele>2888.1438</ele>
        <time>2021-11-14T14:48:53Z</time>
      </trkpt>
      <trkpt lat="4.600408" lon="-75.176498">
        <ele>2888.1465</ele>
        <time>2021-11-14T14:48:55Z</time>
      </trkpt>
      <trkpt lat="4.600408" lon="-75.176498">
        <ele>2888.1482</ele>
        <time>2021-11-14T14:48:56Z</time>
      </trkpt>
      <trkpt lat="4.600408" lon="-75.176498">
        <ele>2888.1492</ele>
        <time>2021-11-14T14:48:57Z</time>
      </trkpt>
      <trkpt lat="4.600408" lon="-75.176498">
        <ele>2888.1497</ele>
        <time>2021-11-14T14:48:58Z</time>
      </trkpt>
      <trkpt lat="4.600408" lon="-75.176498">
        <ele>2888.1504</ele>
        <time>2021-11-14T14:48:59Z</time>
      </trkpt>
      <trkpt lat="4.600408" lon="-75.176498">
        <ele>2888.1506</ele>
        <time>2021-11-14T14:49:00Z</time>
      </trkpt>
      <trkpt lat="4.600408" lon="-75.176498">
        <ele>2888.1511</ele>
        <time>2021-11-14T14:49:01Z</time>
      </trkpt>
      <trkpt lat="4.600407" lon="-75.176506">
        <ele>2888.0898</ele>
        <time>2021-11-14T14:49:02Z</time>
      </trkpt>
      <trkpt lat="4.600407" lon="-75.176506">
        <ele>2887.9004</ele>
        <time>2021-11-14T14:49:03Z</time>
      </trkpt>
      <trkpt lat="4.600404" lon="-75.176506">
        <ele>2887.9895</ele>
        <time>2021-11-14T14:49:04Z</time>
      </trkpt>
      <trkpt lat="4.600403" lon="-75.176506">
        <ele>2888.1147</ele>
        <time>2021-11-14T14:49:05Z</time>
      </trkpt>
      <trkpt lat="4.600401" lon="-75.176506">
        <ele>2888.2017</ele>
        <time>2021-11-14T14:49:06Z</time>
      </trkpt>
      <trkpt lat="4.600399" lon="-75.176506">
        <ele>2888.1243</ele>
        <time>2021-11-14T14:49:08Z</time>
      </trkpt>
      <trkpt lat="4.600399" lon="-75.176514">
        <ele>2888.2905</ele>
        <time>2021-11-14T14:49:09Z</time>
      </trkpt>
      <trkpt lat="4.600399" lon="-75.176514">
        <ele>2888.2317</ele>
        <time>2021-11-14T14:49:10Z</time>
      </trkpt>
      <trkpt lat="4.6004" lon="-75.176514">
        <ele>2888.5947</ele>
        <time>2021-11-14T14:49:11Z</time>
      </trkpt>
      <trkpt lat="4.600402" lon="-75.176514">
        <ele>2888.7122</ele>
        <time>2021-11-14T14:49:12Z</time>
      </trkpt>
      <trkpt lat="4.600399" lon="-75.176514">
        <ele>2888.652</ele>
        <time>2021-11-14T14:49:13Z</time>
      </trkpt>
      <trkpt lat="4.6004" lon="-75.176514">
        <ele>2888.7202</ele>
        <time>2021-11-14T14:49:14Z</time>
      </trkpt>
      <trkpt lat="4.600398" lon="-75.176521">
        <ele>2888.8438</ele>
        <time>2021-11-14T14:49:15Z</time>
      </trkpt>
      <trkpt lat="4.600398" lon="-75.176521">
        <ele>2888.913</ele>
        <time>2021-11-14T14:49:16Z</time>
      </trkpt>
      <trkpt lat="4.600396" lon="-75.176521">
        <ele>2888.8816</ele>
        <time>2021-11-14T14:49:18Z</time>
      </trkpt>
      <trkpt lat="4.600394" lon="-75.176521">
        <ele>2888.9836</ele>
        <time>2021-11-14T14:49:19Z</time>
      </trkpt>
      <trkpt lat="4.600393" lon="-75.176521">
        <ele>2888.931</ele>
        <time>2021-11-14T14:49:20Z</time>
      </trkpt>
      <trkpt lat="4.600395" lon="-75.176521">
        <ele>2888.9304</ele>
        <time>2021-11-14T14:49:21Z</time>
      </trkpt>
      <trkpt lat="4.600397" lon="-75.176521">
        <ele>2888.9836</ele>
        <time>2021-11-14T14:49:22Z</time>
      </trkpt>
      <trkpt lat="4.600396" lon="-75.176521">
        <ele>2888.9958</ele>
        <time>2021-11-14T14:49:23Z</time>
      </trkpt>
      <trkpt lat="4.600397" lon="-75.176521">
        <ele>2888.998</ele>
        <time>2021-11-14T14:49:24Z</time>
      </trkpt>
      <trkpt lat="4.600397" lon="-75.176521">
        <ele>2889.001</ele>
        <time>2021-11-14T14:49:26Z</time>
      </trkpt>
      <trkpt lat="4.600396" lon="-75.176521">
        <ele>2889.0037</ele>
        <time>2021-11-14T14:49:27Z</time>
      </trkpt>
      <trkpt lat="4.600396" lon="-75.176521">
        <ele>2888.9487</ele>
        <time>2021-11-14T14:49:28Z</time>
      </trkpt>
      <trkpt lat="4.600394" lon="-75.176521">
        <ele>2889.3975</ele>
        <time>2021-11-14T14:49:29Z</time>
      </trkpt>
      <trkpt lat="4.600369" lon="-75.176483">
        <ele>2889.3782</ele>
        <time>2021-11-14T14:49:30Z</time>
      </trkpt>
      <trkpt lat="4.600345" lon="-75.176445">
        <ele>2889.5447</ele>
        <time>2021-11-14T14:49:31Z</time>
      </trkpt>
      <trkpt lat="4.60035" lon="-75.176445">
        <ele>2889.3196</ele>
        <time>2021-11-14T14:49:32Z</time>
      </trkpt>
      <trkpt lat="4.600313" lon="-75.176407">
        <ele>2889.6062</ele>
        <time>2021-11-14T14:49:33Z</time>
      </trkpt>
      <trkpt lat="4.600283" lon="-75.176376">
        <ele>2889.9954</ele>
        <time>2021-11-14T14:49:34Z</time>
      </trkpt>
      <trkpt lat="4.60027" lon="-75.176353">
        <ele>2889.6514</ele>
        <time>2021-11-14T14:49:36Z</time>
      </trkpt>
      <trkpt lat="4.600252" lon="-75.176323">
        <ele>2890.2273</ele>
        <time>2021-11-14T14:49:37Z</time>
      </trkpt>
      <trkpt lat="4.600204" lon="-75.176216">
        <ele>2889.1248</ele>
        <time>2021-11-14T14:49:38Z</time>
      </trkpt>
      <trkpt lat="4.600179" lon="-75.17617">
        <ele>2888.6675</ele>
        <time>2021-11-14T14:49:39Z</time>
      </trkpt>
      <trkpt lat="4.600162" lon="-75.176132">
        <ele>2887.9133</ele>
        <time>2021-11-14T14:49:40Z</time>
      </trkpt>
      <trkpt lat="4.600121" lon="-75.176064">
        <ele>2887.3164</ele>
        <time>2021-11-14T14:49:41Z</time>
      </trkpt>
      <trkpt lat="4.600104" lon="-75.176048">
        <ele>2886.7188</ele>
        <time>2021-11-14T14:49:42Z</time>
      </trkpt>
      <trkpt lat="4.60008" lon="-75.176003">
        <ele>2885.3167</ele>
        <time>2021-11-14T14:49:44Z</time>
      </trkpt>
      <trkpt lat="4.60002" lon="-75.175865">
        <ele>2885.3809</ele>
        <time>2021-11-14T14:49:45Z</time>
      </trkpt>
      <trkpt lat="4.599986" lon="-75.175804">
        <ele>2885.2546</ele>
        <time>2021-11-14T14:49:46Z</time>
      </trkpt>
      <trkpt lat="4.599969" lon="-75.175758">
        <ele>2885.1956</ele>
        <time>2021-11-14T14:49:47Z</time>
      </trkpt>
      <trkpt lat="4.59995" lon="-75.175728">
        <ele>2884.5303</ele>
        <time>2021-11-14T14:49:48Z</time>
      </trkpt>
      <trkpt lat="4.59995" lon="-75.175728">
        <ele>2884.2595</ele>
        <time>2021-11-14T14:49:49Z</time>
      </trkpt>
      <trkpt lat="4.599915" lon="-75.175659">
        <ele>2883.7905</ele>
        <time>2021-11-14T14:49:50Z</time>
      </trkpt>
      <trkpt lat="4.599907" lon="-75.175583">
        <ele>2883.4766</ele>
        <time>2021-11-14T14:49:51Z</time>
      </trkpt>
      <trkpt lat="4.599905" lon="-75.175507">
        <ele>2883.1777</ele>
        <time>2021-11-14T14:49:52Z</time>
      </trkpt>
      <trkpt lat="4.5999" lon="-75.175423">
        <ele>2882.7363</ele>
        <time>2021-11-14T14:49:53Z</time>
      </trkpt>
      <trkpt lat="4.59988" lon="-75.175423">
        <ele>2882.8796</ele>
        <time>2021-11-14T14:49:54Z</time>
      </trkpt>
      <trkpt lat="4.599865" lon="-75.1754">
        <ele>2882.8804</ele>
        <time>2021-11-14T14:49:55Z</time>
      </trkpt>
      <trkpt lat="4.599851" lon="-75.175339">
        <ele>2882.3215</ele>
        <time>2021-11-14T14:49:56Z</time>
      </trkpt>
      <trkpt lat="4.599761" lon="-75.175362">
        <ele>2882.0483</ele>
        <time>2021-11-14T14:49:57Z</time>
      </trkpt>
      <trkpt lat="4.599717" lon="-75.175362">
        <ele>2880.6746</ele>
        <time>2021-11-14T14:49:58Z</time>
      </trkpt>
      <trkpt lat="4.599686" lon="-75.175354">
        <ele>2880.1724</ele>
        <time>2021-11-14T14:49:59Z</time>
      </trkpt>
      <trkpt lat="4.599633" lon="-75.175339">
        <ele>2879.5066</ele>
        <time>2021-11-14T14:50:00Z</time>
      </trkpt>
      <trkpt lat="4.599577" lon="-75.175316">
        <ele>2878.4673</ele>
        <time>2021-11-14T14:50:01Z</time>
      </trkpt>
      <trkpt lat="4.599513" lon="-75.175308">
        <ele>2877.7117</ele>
        <time>2021-11-14T14:50:02Z</time>
      </trkpt>
      <trkpt lat="4.599444" lon="-75.175293">
        <ele>2876.987</ele>
        <time>2021-11-14T14:50:03Z</time>
      </trkpt>
      <trkpt lat="4.599384" lon="-75.175278">
        <ele>2876.5806</ele>
        <time>2021-11-14T14:50:04Z</time>
      </trkpt>
      <trkpt lat="4.599324" lon="-75.175247">
        <ele>2876.2622</ele>
        <time>2021-11-14T14:50:05Z</time>
      </trkpt>
      <trkpt lat="4.599284" lon="-75.175224">
        <ele>2876.0469</ele>
        <time>2021-11-14T14:50:06Z</time>
      </trkpt>
      <trkpt lat="4.599256" lon="-75.175217">
        <ele>2875.6924</ele>
        <time>2021-11-14T14:50:07Z</time>
      </trkpt>
      <trkpt lat="4.599194" lon="-75.175194">
        <ele>2874.5115</ele>
        <time>2021-11-14T14:50:08Z</time>
      </trkpt>
      <trkpt lat="4.599137" lon="-75.175179">
        <ele>2874.5916</ele>
        <time>2021-11-14T14:50:09Z</time>
      </trkpt>
      <trkpt lat="4.599091" lon="-75.175156">
        <ele>2874.4094</ele>
        <time>2021-11-14T14:50:10Z</time>
      </trkpt>
      <trkpt lat="4.599039" lon="-75.175125">
        <ele>2874.402</ele>
        <time>2021-11-14T14:50:11Z</time>
      </trkpt>
      <trkpt lat="4.599004" lon="-75.175117">
        <ele>2874.3362</ele>
        <time>2021-11-14T14:50:12Z</time>
      </trkpt>
      <trkpt lat="4.598986" lon="-75.175117">
        <ele>2874.6743</ele>
        <time>2021-11-14T14:50:13Z</time>
      </trkpt>
      <trkpt lat="4.598953" lon="-75.17511">
        <ele>2874.2693</ele>
        <time>2021-11-14T14:50:14Z</time>
      </trkpt>
      <trkpt lat="4.598953" lon="-75.17511">
        <ele>2873.9216</ele>
        <time>2021-11-14T14:50:15Z</time>
      </trkpt>
      <trkpt lat="4.598923" lon="-75.175087">
        <ele>2873.6938</ele>
        <time>2021-11-14T14:50:16Z</time>
      </trkpt>
      <trkpt lat="4.598908" lon="-75.175041">
        <ele>2872.9397</ele>
        <time>2021-11-14T14:50:17Z</time>
      </trkpt>
      <trkpt lat="4.598899" lon="-75.174973">
        <ele>2872.6057</ele>
        <time>2021-11-14T14:50:18Z</time>
      </trkpt>
      <trkpt lat="4.598887" lon="-75.174889">
        <ele>2871.6965</ele>
        <time>2021-11-14T14:50:19Z</time>
      </trkpt>
      <trkpt lat="4.59888" lon="-75.17482">
        <ele>2871.0808</ele>
        <time>2021-11-14T14:50:20Z</time>
      </trkpt>
      <trkpt lat="4.59888" lon="-75.174744">
        <ele>2870.2473</ele>
        <time>2021-11-14T14:50:21Z</time>
      </trkpt>
      <trkpt lat="4.598888" lon="-75.174667">
        <ele>2870.2686</ele>
        <time>2021-11-14T14:50:22Z</time>
      </trkpt>
      <trkpt lat="4.598902" lon="-75.174606">
        <ele>2869.6504</ele>
        <time>2021-11-14T14:50:23Z</time>
      </trkpt>
      <trkpt lat="4.598918" lon="-75.174561">
        <ele>2869.8057</ele>
        <time>2021-11-14T14:50:24Z</time>
      </trkpt>
      <trkpt lat="4.59893" lon="-75.1745">
        <ele>2869.3042</ele>
        <time>2021-11-14T14:50:25Z</time>
      </trkpt>
      <trkpt lat="4.598934" lon="-75.174408">
        <ele>2869.2737</ele>
        <time>2021-11-14T14:50:26Z</time>
      </trkpt>
      <trkpt lat="4.598909" lon="-75.17437">
        <ele>2868.9524</ele>
        <time>2021-11-14T14:50:28Z</time>
      </trkpt>
      <trkpt lat="4.598851" lon="-75.174332">
        <ele>2869.2444</ele>
        <time>2021-11-14T14:50:29Z</time>
      </trkpt>
      <trkpt lat="4.5988" lon="-75.174286">
        <ele>2869.2947</ele>
        <time>2021-11-14T14:50:30Z</time>
      </trkpt>
      <trkpt lat="4.598775" lon="-75.174271">
        <ele>2869.139</ele>
        <time>2021-11-14T14:50:31Z</time>
      </trkpt>
      <trkpt lat="4.598663" lon="-75.174294">
        <ele>2869.1519</ele>
        <time>2021-11-14T14:50:32Z</time>
      </trkpt>
      <trkpt lat="4.598669" lon="-75.174286">
        <ele>2867.9766</ele>
        <time>2021-11-14T14:50:33Z</time>
      </trkpt>
      <trkpt lat="4.598584" lon="-75.174278">
        <ele>2867.7737</ele>
        <time>2021-11-14T14:50:34Z</time>
      </trkpt>
      <trkpt lat="4.598567" lon="-75.174271">
        <ele>2865.8452</ele>
        <time>2021-11-14T14:50:35Z</time>
      </trkpt>
      <trkpt lat="4.598541" lon="-75.174217">
        <ele>2866.6177</ele>
        <time>2021-11-14T14:50:36Z</time>
      </trkpt>
      <trkpt lat="4.598518" lon="-75.17411">
        <ele>2868.1455</ele>
        <time>2021-11-14T14:50:37Z</time>
      </trkpt>
      <trkpt lat="4.598545" lon="-75.174057">
        <ele>2868.052</ele>
        <time>2021-11-14T14:50:38Z</time>
      </trkpt>
      <trkpt lat="4.598536" lon="-75.173996">
        <ele>2869.0508</ele>
        <time>2021-11-14T14:50:39Z</time>
      </trkpt>
      <trkpt lat="4.598551" lon="-75.173973">
        <ele>2868.2427</ele>
        <time>2021-11-14T14:50:40Z</time>
      </trkpt>
      <trkpt lat="4.598571" lon="-75.173927">
        <ele>2868.2395</ele>
        <time>2021-11-14T14:50:41Z</time>
      </trkpt>
      <trkpt lat="4.598571" lon="-75.173927">
        <ele>2868.104</ele>
        <time>2021-11-14T14:50:42Z</time>
      </trkpt>
      <trkpt lat="4.598583" lon="-75.173851">
        <ele>2867.402</ele>
        <time>2021-11-14T14:50:43Z</time>
      </trkpt>
      <trkpt lat="4.598577" lon="-75.173798">
        <ele>2868.0906</ele>
        <time>2021-11-14T14:50:44Z</time>
      </trkpt>
      <trkpt lat="4.598503" lon="-75.173714">
        <ele>2866.076</ele>
        <time>2021-11-14T14:50:45Z</time>
      </trkpt>
      <trkpt lat="4.598399" lon="-75.173615">
        <ele>2864.8374</ele>
        <time>2021-11-14T14:50:46Z</time>
      </trkpt>
      <trkpt lat="4.598382" lon="-75.173637">
        <ele>2863.1323</ele>
        <time>2021-11-14T14:50:47Z</time>
      </trkpt>
      <trkpt lat="4.598305" lon="-75.173607">
        <ele>2861.974</ele>
        <time>2021-11-14T14:50:48Z</time>
      </trkpt>
      <trkpt lat="4.598235" lon="-75.173637">
        <ele>2861.148</ele>
        <time>2021-11-14T14:50:49Z</time>
      </trkpt>
      <trkpt lat="4.598155" lon="-75.173691">
        <ele>2860.33</ele>
        <time>2021-11-14T14:50:50Z</time>
      </trkpt>
      <trkpt lat="4.598138" lon="-75.173744">
        <ele>2859.9565</ele>
        <time>2021-11-14T14:50:51Z</time>
      </trkpt>
      <trkpt lat="4.598097" lon="-75.173775">
        <ele>2859.6997</ele>
        <time>2021-11-14T14:50:52Z</time>
      </trkpt>
      <trkpt lat="4.598013" lon="-75.173805">
        <ele>2859.3318</ele>
        <time>2021-11-14T14:50:53Z</time>
      </trkpt>
      <trkpt lat="4.597949" lon="-75.173813">
        <ele>2858.6091</ele>
        <time>2021-11-14T14:50:54Z</time>
      </trkpt>
      <trkpt lat="4.59787" lon="-75.173805">
        <ele>2858.3555</ele>
        <time>2021-11-14T14:50:55Z</time>
      </trkpt>
      <trkpt lat="4.597842" lon="-75.173782">
        <ele>2857.616</ele>
        <time>2021-11-14T14:50:56Z</time>
      </trkpt>
      <trkpt lat="4.597768" lon="-75.173767">
        <ele>2856.7627</ele>
        <time>2021-11-14T14:50:57Z</time>
      </trkpt>
      <trkpt lat="4.597689" lon="-75.173752">
        <ele>2856.356</ele>
        <time>2021-11-14T14:50:58Z</time>
      </trkpt>
      <trkpt lat="4.597642" lon="-75.173744">
        <ele>2855.9736</ele>
        <time>2021-11-14T14:50:59Z</time>
      </trkpt>
      <trkpt lat="4.597602" lon="-75.173744">
        <ele>2855.4968</ele>
        <time>2021-11-14T14:51:00Z</time>
      </trkpt>
      <trkpt lat="4.597498" lon="-75.173767">
        <ele>2855.206</ele>
        <time>2021-11-14T14:51:01Z</time>
      </trkpt>
      <trkpt lat="4.597434" lon="-75.17379">
        <ele>2854.6746</ele>
        <time>2021-11-14T14:51:02Z</time>
      </trkpt>
      <trkpt lat="4.597397" lon="-75.173767">
        <ele>2854.236</ele>
        <time>2021-11-14T14:51:03Z</time>
      </trkpt>
      <trkpt lat="4.597366" lon="-75.173737">
        <ele>2854.2256</ele>
        <time>2021-11-14T14:51:04Z</time>
      </trkpt>
      <trkpt lat="4.597322" lon="-75.173676">
        <ele>2853.626</ele>
        <time>2021-11-14T14:51:05Z</time>
      </trkpt>
      <trkpt lat="4.5973" lon="-75.173599">
        <ele>2853.2725</ele>
        <time>2021-11-14T14:51:06Z</time>
      </trkpt>
      <trkpt lat="4.597297" lon="-75.173538">
        <ele>2853.0798</ele>
        <time>2021-11-14T14:51:07Z</time>
      </trkpt>
      <trkpt lat="4.597297" lon="-75.173485">
        <ele>2853.0742</ele>
        <time>2021-11-14T14:51:08Z</time>
      </trkpt>
      <trkpt lat="4.597297" lon="-75.173485">
        <ele>2852.5564</ele>
        <time>2021-11-14T14:51:09Z</time>
      </trkpt>
      <trkpt lat="4.597308" lon="-75.173454">
        <ele>2852.1868</ele>
        <time>2021-11-14T14:51:10Z</time>
      </trkpt>
      <trkpt lat="4.597315" lon="-75.173416">
        <ele>2851.8809</ele>
        <time>2021-11-14T14:51:11Z</time>
      </trkpt>
      <trkpt lat="4.597332" lon="-75.173355">
        <ele>2851.1467</ele>
        <time>2021-11-14T14:51:12Z</time>
      </trkpt>
      <trkpt lat="4.597334" lon="-75.173286">
        <ele>2850.5725</ele>
        <time>2021-11-14T14:51:13Z</time>
      </trkpt>
      <trkpt lat="4.597315" lon="-75.173225">
        <ele>2849.7441</ele>
        <time>2021-11-14T14:51:14Z</time>
      </trkpt>
      <trkpt lat="4.597275" lon="-75.173187">
        <ele>2849.214</ele>
        <time>2021-11-14T14:51:15Z</time>
      </trkpt>
      <trkpt lat="4.59722" lon="-75.173134">
        <ele>2849.0269</ele>
        <time>2021-11-14T14:51:16Z</time>
      </trkpt>
      <trkpt lat="4.597215" lon="-75.173141">
        <ele>2849.0422</ele>
        <time>2021-11-14T14:51:17Z</time>
      </trkpt>
      <trkpt lat="4.597174" lon="-75.173126">
        <ele>2848.4053</ele>
        <time>2021-11-14T14:51:18Z</time>
      </trkpt>
      <trkpt lat="4.59711" lon="-75.173134">
        <ele>2848.0173</ele>
        <time>2021-11-14T14:51:19Z</time>
      </trkpt>
      <trkpt lat="4.597042" lon="-75.173172">
        <ele>2847.716</ele>
        <time>2021-11-14T14:51:20Z</time>
      </trkpt>
      <trkpt lat="4.596988" lon="-75.173203">
        <ele>2848.1497</ele>
        <time>2021-11-14T14:51:21Z</time>
      </trkpt>
      <trkpt lat="4.596988" lon="-75.173218">
        <ele>2847.524</ele>
        <time>2021-11-14T14:51:22Z</time>
      </trkpt>
      <trkpt lat="4.596854" lon="-75.173286">
        <ele>2847.2566</ele>
        <time>2021-11-14T14:51:23Z</time>
      </trkpt>
      <trkpt lat="4.596852" lon="-75.173256">
        <ele>2846.5747</ele>
        <time>2021-11-14T14:51:24Z</time>
      </trkpt>
      <trkpt lat="4.596715" lon="-75.173225">
        <ele>2845.4539</ele>
        <time>2021-11-14T14:51:25Z</time>
      </trkpt>
      <trkpt lat="4.596696" lon="-75.173225">
        <ele>2844.9321</ele>
        <time>2021-11-14T14:51:26Z</time>
      </trkpt>
      <trkpt lat="4.596612" lon="-75.173218">
        <ele>2844.351</ele>
        <time>2021-11-14T14:51:27Z</time>
      </trkpt>
      <trkpt lat="4.596535" lon="-75.173256">
        <ele>2843.8906</ele>
        <time>2021-11-14T14:51:28Z</time>
      </trkpt>
      <trkpt lat="4.596487" lon="-75.173302">
        <ele>2843.9526</ele>
        <time>2021-11-14T14:51:29Z</time>
      </trkpt>
      <trkpt lat="4.596454" lon="-75.173347">
        <ele>2843.6116</ele>
        <time>2021-11-14T14:51:30Z</time>
      </trkpt>
      <trkpt lat="4.596372" lon="-75.173424">
        <ele>2842.9126</ele>
        <time>2021-11-14T14:51:31Z</time>
      </trkpt>
      <trkpt lat="4.596318" lon="-75.173485">
        <ele>2841.6355</ele>
        <time>2021-11-14T14:51:32Z</time>
      </trkpt>
      <trkpt lat="4.596271" lon="-75.173546">
        <ele>2840.6992</ele>
        <time>2021-11-14T14:51:33Z</time>
      </trkpt>
      <trkpt lat="4.596224" lon="-75.173599">
        <ele>2840.125</ele>
        <time>2021-11-14T14:51:35Z</time>
      </trkpt>
      <trkpt lat="4.596176" lon="-75.17366">
        <ele>2839.3472</ele>
        <time>2021-11-14T14:51:36Z</time>
      </trkpt>
      <trkpt lat="4.596126" lon="-75.173721">
        <ele>2836.9473</ele>
        <time>2021-11-14T14:51:37Z</time>
      </trkpt>
      <trkpt lat="4.59608" lon="-75.17379">
        <ele>2836.9473</ele>
        <time>2021-11-14T14:51:38Z</time>
      </trkpt>
      <trkpt lat="4.59605" lon="-75.173851">
        <ele>2836.1</ele>
        <time>2021-11-14T14:51:39Z</time>
      </trkpt>
      <trkpt lat="4.596025" lon="-75.173935">
        <ele>2835.808</ele>
        <time>2021-11-14T14:51:40Z</time>
      </trkpt>
      <trkpt lat="4.596027" lon="-75.174011">
        <ele>2834.8503</ele>
        <time>2021-11-14T14:51:41Z</time>
      </trkpt>
      <trkpt lat="4.596027" lon="-75.174011">
        <ele>2834.556</ele>
        <time>2021-11-14T14:51:42Z</time>
      </trkpt>
      <trkpt lat="4.59602" lon="-75.174042">
        <ele>2834.556</ele>
        <time>2021-11-14T14:51:43Z</time>
      </trkpt>
      <trkpt lat="4.595985" lon="-75.174095">
        <ele>2833.4023</ele>
        <time>2021-11-14T14:51:44Z</time>
      </trkpt>
      <trkpt lat="4.595952" lon="-75.174103">
        <ele>2832.8994</ele>
        <time>2021-11-14T14:51:45Z</time>
      </trkpt>
      <trkpt lat="4.595899" lon="-75.174118">
        <ele>2832.2644</ele>
        <time>2021-11-14T14:51:46Z</time>
      </trkpt>
      <trkpt lat="4.595843" lon="-75.174141">
        <ele>2831.5857</ele>
        <time>2021-11-14T14:51:47Z</time>
      </trkpt>
      <trkpt lat="4.595703" lon="-75.174179">
        <ele>2830.1506</ele>
        <time>2021-11-14T14:51:48Z</time>
      </trkpt>
      <trkpt lat="4.595631" lon="-75.174171">
        <ele>2829.3987</ele>
        <time>2021-11-14T14:51:49Z</time>
      </trkpt>
      <trkpt lat="4.595617" lon="-75.174171">
        <ele>2829.854</ele>
        <time>2021-11-14T14:51:50Z</time>
      </trkpt>
      <trkpt lat="4.595569" lon="-75.174156">
        <ele>2830.0425</ele>
        <time>2021-11-14T14:51:51Z</time>
      </trkpt>
      <trkpt lat="4.595474" lon="-75.17408">
        <ele>2830.0425</ele>
        <time>2021-11-14T14:51:52Z</time>
      </trkpt>
      <trkpt lat="4.595475" lon="-75.174072">
        <ele>2830.0825</ele>
        <time>2021-11-14T14:51:53Z</time>
      </trkpt>
      <trkpt lat="4.595436" lon="-75.173965">
        <ele>2829.5322</ele>
        <time>2021-11-14T14:51:54Z</time>
      </trkpt>
      <trkpt lat="4.595443" lon="-75.173859">
        <ele>2828.4312</ele>
        <time>2021-11-14T14:51:55Z</time>
      </trkpt>
      <trkpt lat="4.595415" lon="-75.173843">
        <ele>2828.2441</ele>
        <time>2021-11-14T14:51:56Z</time>
      </trkpt>
      <trkpt lat="4.595387" lon="-75.173798">
        <ele>2827.712</ele>
        <time>2021-11-14T14:51:57Z</time>
      </trkpt>
      <trkpt lat="4.595378" lon="-75.173759">
        <ele>2826.731</ele>
        <time>2021-11-14T14:51:58Z</time>
      </trkpt>
      <trkpt lat="4.595345" lon="-75.173714">
        <ele>2825.8193</ele>
        <time>2021-11-14T14:51:59Z</time>
      </trkpt>
      <trkpt lat="4.595325" lon="-75.173714">
        <ele>2825.4624</ele>
        <time>2021-11-14T14:52:00Z</time>
      </trkpt>
      <trkpt lat="4.59532" lon="-75.173714">
        <ele>2824.8489</ele>
        <time>2021-11-14T14:52:01Z</time>
      </trkpt>
      <trkpt lat="4.595285" lon="-75.173676">
        <ele>2824.9226</ele>
        <time>2021-11-14T14:52:02Z</time>
      </trkpt>
      <trkpt lat="4.595265" lon="-75.17366">
        <ele>2824.9226</ele>
        <time>2021-11-14T14:52:03Z</time>
      </trkpt>
      <trkpt lat="4.595263" lon="-75.173653">
        <ele>2824.3826</ele>
        <time>2021-11-14T14:52:04Z</time>
      </trkpt>
      <trkpt lat="4.595238" lon="-75.17363">
        <ele>2824.6794</ele>
        <time>2021-11-14T14:52:05Z</time>
      </trkpt>
      <trkpt lat="4.595214" lon="-75.173599">
        <ele>2824.947</ele>
        <time>2021-11-14T14:52:06Z</time>
      </trkpt>
      <trkpt lat="4.595198" lon="-75.173561">
        <ele>2824.2937</ele>
        <time>2021-11-14T14:52:07Z</time>
      </trkpt>
      <trkpt lat="4.595184" lon="-75.173485">
        <ele>2823.399</ele>
        <time>2021-11-14T14:52:08Z</time>
      </trkpt>
      <trkpt lat="4.595168" lon="-75.173431">
        <ele>2823.2297</ele>
        <time>2021-11-14T14:52:09Z</time>
      </trkpt>
      <trkpt lat="4.595161" lon="-75.173401">
        <ele>2822.2065</ele>
        <time>2021-11-14T14:52:10Z</time>
      </trkpt>
      <trkpt lat="4.595136" lon="-75.17334">
        <ele>2821.1016</ele>
        <time>2021-11-14T14:52:11Z</time>
      </trkpt>
      <trkpt lat="4.595136" lon="-75.17334">
        <ele>2820.5747</ele>
        <time>2021-11-14T14:52:12Z</time>
      </trkpt>
      <trkpt lat="4.595096" lon="-75.173264">
        <ele>2819.8848</ele>
        <time>2021-11-14T14:52:13Z</time>
      </trkpt>
      <trkpt lat="4.595068" lon="-75.173218">
        <ele>2818.3987</ele>
        <time>2021-11-14T14:52:14Z</time>
      </trkpt>
      <trkpt lat="4.595044" lon="-75.173195">
        <ele>2816.7654</ele>
        <time>2021-11-14T14:52:15Z</time>
      </trkpt>
      <trkpt lat="4.594986" lon="-75.17318">
        <ele>2816.7783</ele>
        <time>2021-11-14T14:52:16Z</time>
      </trkpt>
      <trkpt lat="4.594915" lon="-75.173164">
        <ele>2816.1536</ele>
        <time>2021-11-14T14:52:17Z</time>
      </trkpt>
      <trkpt lat="4.594894" lon="-75.173149">
        <ele>2816.01</ele>
        <time>2021-11-14T14:52:18Z</time>
      </trkpt>
      <trkpt lat="4.594902" lon="-75.173149">
        <ele>2816.2559</ele>
        <time>2021-11-14T14:52:19Z</time>
      </trkpt>
      <trkpt lat="4.594849" lon="-75.173111">
        <ele>2815.5642</ele>
        <time>2021-11-14T14:52:20Z</time>
      </trkpt>
      <trkpt lat="4.594857" lon="-75.173088">
        <ele>2815.2463</ele>
        <time>2021-11-14T14:52:21Z</time>
      </trkpt>
      <trkpt lat="4.594807" lon="-75.17308">
        <ele>2814.2693</ele>
        <time>2021-11-14T14:52:22Z</time>
      </trkpt>
      <trkpt lat="4.594782" lon="-75.173035">
        <ele>2814.6294</ele>
        <time>2021-11-14T14:52:23Z</time>
      </trkpt>
      <trkpt lat="4.594764" lon="-75.172997">
        <ele>2813.9316</ele>
        <time>2021-11-14T14:52:24Z</time>
      </trkpt>
      <trkpt lat="4.594758" lon="-75.172951">
        <ele>2813.6956</ele>
        <time>2021-11-14T14:52:25Z</time>
      </trkpt>
      <trkpt lat="4.594776" lon="-75.172928">
        <ele>2813.5896</ele>
        <time>2021-11-14T14:52:26Z</time>
      </trkpt>
      <trkpt lat="4.594808" lon="-75.17292">
        <ele>2812.895</ele>
        <time>2021-11-14T14:52:27Z</time>
      </trkpt>
      <trkpt lat="4.594867" lon="-75.172897">
        <ele>2813.3716</ele>
        <time>2021-11-14T14:52:28Z</time>
      </trkpt>
      <trkpt lat="4.594922" lon="-75.17289">
        <ele>2812.3381</ele>
        <time>2021-11-14T14:52:29Z</time>
      </trkpt>
      <trkpt lat="4.595011" lon="-75.17292">
        <ele>2811.824</ele>
        <time>2021-11-14T14:52:30Z</time>
      </trkpt>
      <trkpt lat="4.595074" lon="-75.172943">
        <ele>2811.486</ele>
        <time>2021-11-14T14:52:31Z</time>
      </trkpt>
      <trkpt lat="4.595099" lon="-75.172951">
        <ele>2810.6904</ele>
        <time>2021-11-14T14:52:32Z</time>
      </trkpt>
      <trkpt lat="4.595127" lon="-75.172935">
        <ele>2810.2007</ele>
        <time>2021-11-14T14:52:33Z</time>
      </trkpt>
      <trkpt lat="4.595161" lon="-75.172935">
        <ele>2810.3237</ele>
        <time>2021-11-14T14:52:34Z</time>
      </trkpt>
      <trkpt lat="4.595191" lon="-75.172913">
        <ele>2808.8364</ele>
        <time>2021-11-14T14:52:35Z</time>
      </trkpt>
      <trkpt lat="4.595211" lon="-75.172874">
        <ele>2809.1162</ele>
        <time>2021-11-14T14:52:36Z</time>
      </trkpt>
      <trkpt lat="4.595207" lon="-75.172821">
        <ele>2808.6292</ele>
        <time>2021-11-14T14:52:37Z</time>
      </trkpt>
      <trkpt lat="4.595179" lon="-75.172768">
        <ele>2807.233</ele>
        <time>2021-11-14T14:52:39Z</time>
      </trkpt>
      <trkpt lat="4.595131" lon="-75.172714">
        <ele>2807.343</ele>
        <time>2021-11-14T14:52:40Z</time>
      </trkpt>
      <trkpt lat="4.595131" lon="-75.172714">
        <ele>2806.094</ele>
        <time>2021-11-14T14:52:41Z</time>
      </trkpt>
      <trkpt lat="4.595111" lon="-75.172661">
        <ele>2805.416</ele>
        <time>2021-11-14T14:52:42Z</time>
      </trkpt>
      <trkpt lat="4.595032" lon="-75.172623">
        <ele>2804.6113</ele>
        <time>2021-11-14T14:52:43Z</time>
      </trkpt>
      <trkpt lat="4.595023" lon="-75.172607">
        <ele>2803.696</ele>
        <time>2021-11-14T14:52:44Z</time>
      </trkpt>
      <trkpt lat="4.594992" lon="-75.172546">
        <ele>2802.987</ele>
        <time>2021-11-14T14:52:45Z</time>
      </trkpt>
      <trkpt lat="4.594935" lon="-75.172501">
        <ele>2803.2542</ele>
        <time>2021-11-14T14:52:46Z</time>
      </trkpt>
      <trkpt lat="4.59495" lon="-75.172478">
        <ele>2802.23</ele>
        <time>2021-11-14T14:52:47Z</time>
      </trkpt>
      <trkpt lat="4.59491" lon="-75.172417">
        <ele>2802.0862</ele>
        <time>2021-11-14T14:52:48Z</time>
      </trkpt>
      <trkpt lat="4.594873" lon="-75.172379">
        <ele>2801.6736</ele>
        <time>2021-11-14T14:52:49Z</time>
      </trkpt>
      <trkpt lat="4.594832" lon="-75.172318">
        <ele>2801.4624</ele>
        <time>2021-11-14T14:52:50Z</time>
      </trkpt>
      <trkpt lat="4.594797" lon="-75.172272">
        <ele>2800.7607</ele>
        <time>2021-11-14T14:52:51Z</time>
      </trkpt>
      <trkpt lat="4.594761" lon="-75.172211">
        <ele>2799.9224</ele>
        <time>2021-11-14T14:52:52Z</time>
      </trkpt>
      <trkpt lat="4.594732" lon="-75.17215">
        <ele>2799.6238</ele>
        <time>2021-11-14T14:52:53Z</time>
      </trkpt>
      <trkpt lat="4.594715" lon="-75.172089">
        <ele>2798.927</ele>
        <time>2021-11-14T14:52:54Z</time>
      </trkpt>
      <trkpt lat="4.5947" lon="-75.172043">
        <ele>2798.2744</ele>
        <time>2021-11-14T14:52:55Z</time>
      </trkpt>
      <trkpt lat="4.594642" lon="-75.171883">
        <ele>2797.39</ele>
        <time>2021-11-14T14:52:56Z</time>
      </trkpt>
      <trkpt lat="4.594619" lon="-75.171829">
        <ele>2797.2278</ele>
        <time>2021-11-14T14:52:57Z</time>
      </trkpt>
      <trkpt lat="4.594598" lon="-75.171776">
        <ele>2796.1104</ele>
        <time>2021-11-14T14:52:58Z</time>
      </trkpt>
      <trkpt lat="4.594567" lon="-75.171692">
        <ele>2795.4678</ele>
        <time>2021-11-14T14:52:59Z</time>
      </trkpt>
      <trkpt lat="4.594557" lon="-75.171646">
        <ele>2794.8154</ele>
        <time>2021-11-14T14:53:00Z</time>
      </trkpt>
      <trkpt lat="4.594544" lon="-75.171616">
        <ele>2793.9873</ele>
        <time>2021-11-14T14:53:01Z</time>
      </trkpt>
      <trkpt lat="4.594521" lon="-75.171539">
        <ele>2793.7217</ele>
        <time>2021-11-14T14:53:02Z</time>
      </trkpt>
      <trkpt lat="4.594492" lon="-75.171463">
        <ele>2792.4355</ele>
        <time>2021-11-14T14:53:03Z</time>
      </trkpt>
      <trkpt lat="4.594465" lon="-75.171402">
        <ele>2791.9363</ele>
        <time>2021-11-14T14:53:04Z</time>
      </trkpt>
      <trkpt lat="4.594465" lon="-75.171402">
        <ele>2791.4197</ele>
        <time>2021-11-14T14:53:05Z</time>
      </trkpt>
      <trkpt lat="4.594445" lon="-75.171349">
        <ele>2790.2874</ele>
        <time>2021-11-14T14:53:06Z</time>
      </trkpt>
      <trkpt lat="4.594417" lon="-75.171265">
        <ele>2790.3242</ele>
        <time>2021-11-14T14:53:07Z</time>
      </trkpt>
      <trkpt lat="4.594398" lon="-75.171204">
        <ele>2789.8909</ele>
        <time>2021-11-14T14:53:08Z</time>
      </trkpt>
      <trkpt lat="4.594392" lon="-75.171165">
        <ele>2789.2788</ele>
        <time>2021-11-14T14:53:09Z</time>
      </trkpt>
      <trkpt lat="4.594382" lon="-75.171127">
        <ele>2788.8528</ele>
        <time>2021-11-14T14:53:10Z</time>
      </trkpt>
      <trkpt lat="4.594384" lon="-75.171066">
        <ele>2788.3025</ele>
        <time>2021-11-14T14:53:11Z</time>
      </trkpt>
      <trkpt lat="4.594382" lon="-75.17099">
        <ele>2788.1946</ele>
        <time>2021-11-14T14:53:12Z</time>
      </trkpt>
      <trkpt lat="4.594388" lon="-75.170982">
        <ele>2787.8076</ele>
        <time>2021-11-14T14:53:13Z</time>
      </trkpt>
      <trkpt lat="4.594409" lon="-75.170937">
        <ele>2787.544</ele>
        <time>2021-11-14T14:53:14Z</time>
      </trkpt>
      <trkpt lat="4.594433" lon="-75.170883">
        <ele>2786.4312</ele>
        <time>2021-11-14T14:53:15Z</time>
      </trkpt>
      <trkpt lat="4.594483" lon="-75.17086">
        <ele>2785.618</ele>
        <time>2021-11-14T14:53:16Z</time>
      </trkpt>
      <trkpt lat="4.594524" lon="-75.170837">
        <ele>2784.9963</ele>
        <time>2021-11-14T14:53:17Z</time>
      </trkpt>
      <trkpt lat="4.594604" lon="-75.170822">
        <ele>2785.2039</ele>
        <time>2021-11-14T14:53:18Z</time>
      </trkpt>
      <trkpt lat="4.594643" lon="-75.170822">
        <ele>2783.9277</ele>
        <time>2021-11-14T14:53:19Z</time>
      </trkpt>
      <trkpt lat="4.594707" lon="-75.170815">
        <ele>2783.555</ele>
        <time>2021-11-14T14:53:20Z</time>
      </trkpt>
      <trkpt lat="4.594796" lon="-75.170792">
        <ele>2782.78</ele>
        <time>2021-11-14T14:53:21Z</time>
      </trkpt>
      <trkpt lat="4.594861" lon="-75.170784">
        <ele>2782.0474</ele>
        <time>2021-11-14T14:53:23Z</time>
      </trkpt>
      <trkpt lat="4.594936" lon="-75.170769">
        <ele>2781.5881</ele>
        <time>2021-11-14T14:53:24Z</time>
      </trkpt>
      <trkpt lat="4.594998" lon="-75.170769">
        <ele>2780.9827</ele>
        <time>2021-11-14T14:53:25Z</time>
      </trkpt>
      <trkpt lat="4.595035" lon="-75.170769">
        <ele>2780.5708</ele>
        <time>2021-11-14T14:53:26Z</time>
      </trkpt>
      <trkpt lat="4.595056" lon="-75.170761">
        <ele>2780.1287</ele>
        <time>2021-11-14T14:53:27Z</time>
      </trkpt>
      <trkpt lat="4.595062" lon="-75.170753">
        <ele>2779.6047</ele>
        <time>2021-11-14T14:53:28Z</time>
      </trkpt>
      <trkpt lat="4.595068" lon="-75.170753">
        <ele>2779.467</ele>
        <time>2021-11-14T14:53:29Z</time>
      </trkpt>
      <trkpt lat="4.595099" lon="-75.170746">
        <ele>2779.3027</ele>
        <time>2021-11-14T14:53:30Z</time>
      </trkpt>
      <trkpt lat="4.595117" lon="-75.170723">
        <ele>2778.7627</ele>
        <time>2021-11-14T14:53:31Z</time>
      </trkpt>
      <trkpt lat="4.595126" lon="-75.17067">
        <ele>2778.4531</ele>
        <time>2021-11-14T14:53:32Z</time>
      </trkpt>
      <trkpt lat="4.595115" lon="-75.170586">
        <ele>2778.2861</ele>
        <time>2021-11-14T14:53:33Z</time>
      </trkpt>
      <trkpt lat="4.59509" lon="-75.170509">
        <ele>2778.0793</ele>
        <time>2021-11-14T14:53:34Z</time>
      </trkpt>
      <trkpt lat="4.59509" lon="-75.170509">
        <ele>2777.2888</ele>
        <time>2021-11-14T14:53:35Z</time>
      </trkpt>
      <trkpt lat="4.595105" lon="-75.170395">
        <ele>2776.24</ele>
        <time>2021-11-14T14:53:36Z</time>
      </trkpt>
      <trkpt lat="4.595143" lon="-75.170364">
        <ele>2775.6985</ele>
        <time>2021-11-14T14:53:37Z</time>
      </trkpt>
      <trkpt lat="4.595214" lon="-75.170288">
        <ele>2775.2122</ele>
        <time>2021-11-14T14:53:38Z</time>
      </trkpt>
      <trkpt lat="4.595257" lon="-75.170242">
        <ele>2775.082</ele>
        <time>2021-11-14T14:53:39Z</time>
      </trkpt>
      <trkpt lat="4.595264" lon="-75.170204">
        <ele>2774.5095</ele>
        <time>2021-11-14T14:53:40Z</time>
      </trkpt>
      <trkpt lat="4.595266" lon="-75.170143">
        <ele>2773.7249</ele>
        <time>2021-11-14T14:53:41Z</time>
      </trkpt>
      <trkpt lat="4.595234" lon="-75.170082">
        <ele>2773.3738</ele>
        <time>2021-11-14T14:53:42Z</time>
      </trkpt>
      <trkpt lat="4.595192" lon="-75.170059">
        <ele>2772.667</ele>
        <time>2021-11-14T14:53:43Z</time>
      </trkpt>
      <trkpt lat="4.59519" lon="-75.170006">
        <ele>2772.5422</ele>
        <time>2021-11-14T14:53:44Z</time>
      </trkpt>
      <trkpt lat="4.595159" lon="-75.169945">
        <ele>2772.742</ele>
        <time>2021-11-14T14:53:45Z</time>
      </trkpt>
      <trkpt lat="4.595111" lon="-75.169884">
        <ele>2772.5422</ele>
        <time>2021-11-14T14:53:46Z</time>
      </trkpt>
      <trkpt lat="4.595077" lon="-75.16983">
        <ele>2771.8752</ele>
        <time>2021-11-14T14:53:47Z</time>
      </trkpt>
      <trkpt lat="4.595052" lon="-75.169777">
        <ele>2771.579</ele>
        <time>2021-11-14T14:53:48Z</time>
      </trkpt>
      <trkpt lat="4.595056" lon="-75.169746">
        <ele>2771.1765</ele>
        <time>2021-11-14T14:53:49Z</time>
      </trkpt>
      <trkpt lat="4.595059" lon="-75.169701">
        <ele>2770.4114</ele>
        <time>2021-11-14T14:53:50Z</time>
      </trkpt>
      <trkpt lat="4.595071" lon="-75.169655">
        <ele>2770.3066</ele>
        <time>2021-11-14T14:53:51Z</time>
      </trkpt>
      <trkpt lat="4.595085" lon="-75.169594">
        <ele>2769.9119</ele>
        <time>2021-11-14T14:53:52Z</time>
      </trkpt>
      <trkpt lat="4.595088" lon="-75.169525">
        <ele>2769.3503</ele>
        <time>2021-11-14T14:53:53Z</time>
      </trkpt>
      <trkpt lat="4.595081" lon="-75.169472">
        <ele>2769.1846</ele>
        <time>2021-11-14T14:53:54Z</time>
      </trkpt>
      <trkpt lat="4.595058" lon="-75.169426">
        <ele>2768.686</ele>
        <time>2021-11-14T14:53:55Z</time>
      </trkpt>
      <trkpt lat="4.595004" lon="-75.169403">
        <ele>2769.0784</ele>
        <time>2021-11-14T14:53:56Z</time>
      </trkpt>
      <trkpt lat="4.594929" lon="-75.16938">
        <ele>2769.01</ele>
        <time>2021-11-14T14:53:57Z</time>
      </trkpt>
      <trkpt lat="4.594862" lon="-75.169411">
        <ele>2768.7456</ele>
        <time>2021-11-14T14:53:58Z</time>
      </trkpt>
      <trkpt lat="4.594799" lon="-75.169418">
        <ele>2768.4253</ele>
        <time>2021-11-14T14:53:59Z</time>
      </trkpt>
      <trkpt lat="4.594765" lon="-75.169418">
        <ele>2768.5093</ele>
        <time>2021-11-14T14:54:00Z</time>
      </trkpt>
      <trkpt lat="4.594726" lon="-75.169411">
        <ele>2768.0264</ele>
        <time>2021-11-14T14:54:01Z</time>
      </trkpt>
      <trkpt lat="4.594661" lon="-75.16938">
        <ele>2767.575</ele>
        <time>2021-11-14T14:54:02Z</time>
      </trkpt>
      <trkpt lat="4.594655" lon="-75.169342">
        <ele>2767.2864</ele>
        <time>2021-11-14T14:54:03Z</time>
      </trkpt>
      <trkpt lat="4.594655" lon="-75.169342">
        <ele>2766.9663</ele>
        <time>2021-11-14T14:54:04Z</time>
      </trkpt>
      <trkpt lat="4.594678" lon="-75.169266">
        <ele>2766.5498</ele>
        <time>2021-11-14T14:54:05Z</time>
      </trkpt>
      <trkpt lat="4.594703" lon="-75.169189">
        <ele>2766.403</ele>
        <time>2021-11-14T14:54:06Z</time>
      </trkpt>
      <trkpt lat="4.594726" lon="-75.169128">
        <ele>2766.3992</ele>
        <time>2021-11-14T14:54:07Z</time>
      </trkpt>
      <trkpt lat="4.594762" lon="-75.16906">
        <ele>2766.1328</ele>
        <time>2021-11-14T14:54:08Z</time>
      </trkpt>
      <trkpt lat="4.594783" lon="-75.168983">
        <ele>2765.3047</ele>
        <time>2021-11-14T14:54:09Z</time>
      </trkpt>
      <trkpt lat="4.59483" lon="-75.168915">
        <ele>2764.9863</ele>
        <time>2021-11-14T14:54:10Z</time>
      </trkpt>
      <trkpt lat="4.594865" lon="-75.168854">
        <ele>2764.1655</ele>
        <time>2021-11-14T14:54:11Z</time>
      </trkpt>
      <trkpt lat="4.594897" lon="-75.168816">
        <ele>2763.7954</ele>
        <time>2021-11-14T14:54:12Z</time>
      </trkpt>
      <trkpt lat="4.594942" lon="-75.168739">
        <ele>2762.9822</ele>
        <time>2021-11-14T14:54:13Z</time>
      </trkpt>
      <trkpt lat="4.595004" lon="-75.168671">
        <ele>2762.202</ele>
        <time>2021-11-14T14:54:14Z</time>
      </trkpt>
      <trkpt lat="4.595033" lon="-75.168617">
        <ele>2761.395</ele>
        <time>2021-11-14T14:54:15Z</time>
      </trkpt>
      <trkpt lat="4.595069" lon="-75.168556">
        <ele>2761.0298</ele>
        <time>2021-11-14T14:54:16Z</time>
      </trkpt>
      <trkpt lat="4.595114" lon="-75.168488">
        <ele>2760.3093</ele>
        <time>2021-11-14T14:54:17Z</time>
      </trkpt>
      <trkpt lat="4.595165" lon="-75.168419">
        <ele>2759.903</ele>
        <time>2021-11-14T14:54:18Z</time>
      </trkpt>
      <trkpt lat="4.5952" lon="-75.168373">
        <ele>2759.701</ele>
        <time>2021-11-14T14:54:19Z</time>
      </trkpt>
      <trkpt lat="4.595217" lon="-75.168343">
        <ele>2759.1428</ele>
        <time>2021-11-14T14:54:20Z</time>
      </trkpt>
      <trkpt lat="4.595237" lon="-75.168289">
        <ele>2758.6177</ele>
        <time>2021-11-14T14:54:22Z</time>
      </trkpt>
      <trkpt lat="4.59523" lon="-75.168221">
        <ele>2757.8738</ele>
        <time>2021-11-14T14:54:23Z</time>
      </trkpt>
      <trkpt lat="4.595179" lon="-75.168175">
        <ele>2756.7417</ele>
        <time>2021-11-14T14:54:24Z</time>
      </trkpt>
      <trkpt lat="4.595119" lon="-75.168114">
        <ele>2756.3677</ele>
        <time>2021-11-14T14:54:25Z</time>
      </trkpt>
      <trkpt lat="4.59509" lon="-75.168037">
        <ele>2754.2517</ele>
        <time>2021-11-14T14:54:26Z</time>
      </trkpt>
      <trkpt lat="4.595089" lon="-75.167999">
        <ele>2754.2295</ele>
        <time>2021-11-14T14:54:27Z</time>
      </trkpt>
      <trkpt lat="4.595099" lon="-75.167984">
        <ele>2753.7166</ele>
        <time>2021-11-14T14:54:28Z</time>
      </trkpt>
      <trkpt lat="4.595099" lon="-75.167984">
        <ele>2752.6396</ele>
        <time>2021-11-14T14:54:29Z</time>
      </trkpt>
      <trkpt lat="4.595099" lon="-75.167923">
        <ele>2751.9316</ele>
        <time>2021-11-14T14:54:30Z</time>
      </trkpt>
      <trkpt lat="4.595095" lon="-75.167839">
        <ele>2751.3337</ele>
        <time>2021-11-14T14:54:31Z</time>
      </trkpt>
      <trkpt lat="4.595079" lon="-75.167839">
        <ele>2751.2227</ele>
        <time>2021-11-14T14:54:32Z</time>
      </trkpt>
      <trkpt lat="4.595033" lon="-75.167809">
        <ele>2751.1606</ele>
        <time>2021-11-14T14:54:33Z</time>
      </trkpt>
      <trkpt lat="4.594994" lon="-75.167816">
        <ele>2750.9802</ele>
        <time>2021-11-14T14:54:34Z</time>
      </trkpt>
      <trkpt lat="4.594933" lon="-75.167862">
        <ele>2750.7117</ele>
        <time>2021-11-14T14:54:35Z</time>
      </trkpt>
      <trkpt lat="4.59486" lon="-75.167892">
        <ele>2750.0725</ele>
        <time>2021-11-14T14:54:36Z</time>
      </trkpt>
      <trkpt lat="4.594786" lon="-75.167915">
        <ele>2749.423</ele>
        <time>2021-11-14T14:54:37Z</time>
      </trkpt>
      <trkpt lat="4.594712" lon="-75.167938">
        <ele>2749.1372</ele>
        <time>2021-11-14T14:54:38Z</time>
      </trkpt>
      <trkpt lat="4.59465" lon="-75.167953">
        <ele>2749.1367</ele>
        <time>2021-11-14T14:54:39Z</time>
      </trkpt>
      <trkpt lat="4.594594" lon="-75.167969">
        <ele>2748.295</ele>
        <time>2021-11-14T14:54:40Z</time>
      </trkpt>
      <trkpt lat="4.59455" lon="-75.167976">
        <ele>2747.5867</ele>
        <time>2021-11-14T14:54:41Z</time>
      </trkpt>
      <trkpt lat="4.594456" lon="-75.167984">
        <ele>2747.283</ele>
        <time>2021-11-14T14:54:42Z</time>
      </trkpt>
      <trkpt lat="4.594399" lon="-75.167992">
        <ele>2746.9976</ele>
        <time>2021-11-14T14:54:43Z</time>
      </trkpt>
      <trkpt lat="4.594374" lon="-75.168015">
        <ele>2747.2068</ele>
        <time>2021-11-14T14:54:44Z</time>
      </trkpt>
      <trkpt lat="4.594335" lon="-75.168068">
        <ele>2747.1406</ele>
        <time>2021-11-14T14:54:45Z</time>
      </trkpt>
      <trkpt lat="4.59427" lon="-75.168228">
        <ele>2746.6318</ele>
        <time>2021-11-14T14:54:46Z</time>
      </trkpt>
      <trkpt lat="4.594228" lon="-75.16832">
        <ele>2745.7075</ele>
        <time>2021-11-14T14:54:47Z</time>
      </trkpt>
      <trkpt lat="4.594223" lon="-75.168381">
        <ele>2746.4673</ele>
        <time>2021-11-14T14:54:48Z</time>
      </trkpt>
      <trkpt lat="4.594202" lon="-75.168442">
        <ele>2746.398</ele>
        <time>2021-11-14T14:54:49Z</time>
      </trkpt>
      <trkpt lat="4.594183" lon="-75.168472">
        <ele>2746.7515</ele>
        <time>2021-11-14T14:54:50Z</time>
      </trkpt>
      <trkpt lat="4.594137" lon="-75.168495">
        <ele>2746.8247</ele>
        <time>2021-11-14T14:54:51Z</time>
      </trkpt>
      <trkpt lat="4.594077" lon="-75.168556">
        <ele>2746.398</ele>
        <time>2021-11-14T14:54:52Z</time>
      </trkpt>
      <trkpt lat="4.594012" lon="-75.168579">
        <ele>2745.9275</ele>
        <time>2021-11-14T14:54:53Z</time>
      </trkpt>
      <trkpt lat="4.593959" lon="-75.168587">
        <ele>2745.9531</ele>
        <time>2021-11-14T14:54:54Z</time>
      </trkpt>
      <trkpt lat="4.593867" lon="-75.168602">
        <ele>2745.3179</ele>
        <time>2021-11-14T14:54:55Z</time>
      </trkpt>
      <trkpt lat="4.593804" lon="-75.168625">
        <ele>2744.9048</ele>
        <time>2021-11-14T14:54:56Z</time>
      </trkpt>
      <trkpt lat="4.593798" lon="-75.168655">
        <ele>2744.182</ele>
        <time>2021-11-14T14:54:57Z</time>
      </trkpt>
      <trkpt lat="4.593798" lon="-75.168655">
        <ele>2744.4749</ele>
        <time>2021-11-14T14:54:58Z</time>
      </trkpt>
      <trkpt lat="4.593785" lon="-75.168709">
        <ele>2742.8135</ele>
        <time>2021-11-14T14:54:59Z</time>
      </trkpt>
      <trkpt lat="4.593763" lon="-75.168747">
        <ele>2742.4507</ele>
        <time>2021-11-14T14:55:00Z</time>
      </trkpt>
      <trkpt lat="4.593779" lon="-75.168816">
        <ele>2742.7805</ele>
        <time>2021-11-14T14:55:01Z</time>
      </trkpt>
      <trkpt lat="4.59377" lon="-75.168816">
        <ele>2741.9749</ele>
        <time>2021-11-14T14:55:02Z</time>
      </trkpt>
      <trkpt lat="4.593744" lon="-75.168846">
        <ele>2742.0176</ele>
        <time>2021-11-14T14:55:03Z</time>
      </trkpt>
      <trkpt lat="4.593713" lon="-75.168892">
        <ele>2743.2341</ele>
        <time>2021-11-14T14:55:04Z</time>
      </trkpt>
      <trkpt lat="4.593716" lon="-75.168877">
        <ele>2743.0247</ele>
        <time>2021-11-14T14:55:05Z</time>
      </trkpt>
      <trkpt lat="4.593698" lon="-75.168869">
        <ele>2742.5112</ele>
        <time>2021-11-14T14:55:06Z</time>
      </trkpt>
      <trkpt lat="4.593695" lon="-75.168861">
        <ele>2742.4795</ele>
        <time>2021-11-14T14:55:07Z</time>
      </trkpt>
      <trkpt lat="4.593686" lon="-75.168861">
        <ele>2742.2922</ele>
        <time>2021-11-14T14:55:08Z</time>
      </trkpt>
      <trkpt lat="4.593681" lon="-75.168854">
        <ele>2741.4153</ele>
        <time>2021-11-14T14:55:09Z</time>
      </trkpt>
      <trkpt lat="4.593675" lon="-75.168846">
        <ele>2740.7078</ele>
        <time>2021-11-14T14:55:10Z</time>
      </trkpt>
      <trkpt lat="4.593667" lon="-75.168839">
        <ele>2741.4897</ele>
        <time>2021-11-14T14:55:11Z</time>
      </trkpt>
      <trkpt lat="4.593639" lon="-75.168785">
        <ele>2741.9343</ele>
        <time>2021-11-14T14:55:12Z</time>
      </trkpt>
      <trkpt lat="4.593643" lon="-75.168762">
        <ele>2741.2375</ele>
        <time>2021-11-14T14:55:13Z</time>
      </trkpt>
      <trkpt lat="4.593647" lon="-75.168724">
        <ele>2740.8784</ele>
        <time>2021-11-14T14:55:14Z</time>
      </trkpt>
      <trkpt lat="4.593677" lon="-75.168633">
        <ele>2740.511</ele>
        <time>2021-11-14T14:55:15Z</time>
      </trkpt>
      <trkpt lat="4.593709" lon="-75.168579">
        <ele>2740.4358</ele>
        <time>2021-11-14T14:55:16Z</time>
      </trkpt>
      <trkpt lat="4.59373" lon="-75.168556">
        <ele>2740.109</ele>
        <time>2021-11-14T14:55:17Z</time>
      </trkpt>
      <trkpt lat="4.593742" lon="-75.168518">
        <ele>2740.204</ele>
        <time>2021-11-14T14:55:18Z</time>
      </trkpt>
      <trkpt lat="4.593732" lon="-75.16851">
        <ele>2740.3508</ele>
        <time>2021-11-14T14:55:19Z</time>
      </trkpt>
      <trkpt lat="4.593738" lon="-75.16848">
        <ele>2740.3762</ele>
        <time>2021-11-14T14:55:20Z</time>
      </trkpt>
      <trkpt lat="4.593743" lon="-75.168449">
        <ele>2740.277</ele>
        <time>2021-11-14T14:55:21Z</time>
      </trkpt>
      <trkpt lat="4.593744" lon="-75.168442">
        <ele>2740.7744</ele>
        <time>2021-11-14T14:55:22Z</time>
      </trkpt>
      <trkpt lat="4.593744" lon="-75.168442">
        <ele>2740.5002</ele>
        <time>2021-11-14T14:55:23Z</time>
      </trkpt>
      <trkpt lat="4.593749" lon="-75.168427">
        <ele>2740.5144</ele>
        <time>2021-11-14T14:55:24Z</time>
      </trkpt>
      <trkpt lat="4.593752" lon="-75.168427">
        <ele>2740.2517</ele>
        <time>2021-11-14T14:55:25Z</time>
      </trkpt>
      <trkpt lat="4.59376" lon="-75.168419">
        <ele>2740.1714</ele>
        <time>2021-11-14T14:55:26Z</time>
      </trkpt>
      <trkpt lat="4.593764" lon="-75.168419">
        <ele>2739.8738</ele>
        <time>2021-11-14T14:55:28Z</time>
      </trkpt>
      <trkpt lat="4.593763" lon="-75.168411">
        <ele>2739.72</ele>
        <time>2021-11-14T14:55:29Z</time>
      </trkpt>
      <trkpt lat="4.593763" lon="-75.168411">
        <ele>2739.4998</ele>
        <time>2021-11-14T14:55:30Z</time>
      </trkpt>
      <trkpt lat="4.593762" lon="-75.168411">
        <ele>2739.3916</ele>
        <time>2021-11-14T14:55:31Z</time>
      </trkpt>
      <trkpt lat="4.593761" lon="-75.168411">
        <ele>2739.3013</ele>
        <time>2021-11-14T14:55:32Z</time>
      </trkpt>
      <trkpt lat="4.593761" lon="-75.168411">
        <ele>2739.4395</ele>
        <time>2021-11-14T14:55:33Z</time>
      </trkpt>
      <trkpt lat="4.593761" lon="-75.168411">
        <ele>2739.1343</ele>
        <time>2021-11-14T14:55:34Z</time>
      </trkpt>
      <trkpt lat="4.593761" lon="-75.168411">
        <ele>2738.9631</ele>
        <time>2021-11-14T14:55:35Z</time>
      </trkpt>
      <trkpt lat="4.593762" lon="-75.168411">
        <ele>2738.8496</ele>
        <time>2021-11-14T14:55:36Z</time>
      </trkpt>
      <trkpt lat="4.593763" lon="-75.168404">
        <ele>2738.6907</ele>
        <time>2021-11-14T14:55:37Z</time>
      </trkpt>
      <trkpt lat="4.593762" lon="-75.168396">
        <ele>2738.2156</ele>
        <time>2021-11-14T14:55:38Z</time>
      </trkpt>
      <trkpt lat="4.593759" lon="-75.168343">
        <ele>2738.3032</ele>
        <time>2021-11-14T14:55:39Z</time>
      </trkpt>
      <trkpt lat="4.593756" lon="-75.168312">
        <ele>2738.569</ele>
        <time>2021-11-14T14:55:40Z</time>
      </trkpt>
      <trkpt lat="4.593753" lon="-75.168236">
        <ele>2737.9097</ele>
        <time>2021-11-14T14:55:41Z</time>
      </trkpt>
      <trkpt lat="4.593758" lon="-75.168198">
        <ele>2738.1938</ele>
        <time>2021-11-14T14:55:42Z</time>
      </trkpt>
      <trkpt lat="4.59376" lon="-75.168182">
        <ele>2737.183</ele>
        <time>2021-11-14T14:55:43Z</time>
      </trkpt>
      <trkpt lat="4.593758" lon="-75.168175">
        <ele>2737.026</ele>
        <time>2021-11-14T14:55:44Z</time>
      </trkpt>
      <trkpt lat="4.593756" lon="-75.168144">
        <ele>2738.2676</ele>
        <time>2021-11-14T14:55:45Z</time>
      </trkpt>
      <trkpt lat="4.593763" lon="-75.168121">
        <ele>2739.69</ele>
        <time>2021-11-14T14:55:46Z</time>
      </trkpt>
      <trkpt lat="4.593784" lon="-75.168106">
        <ele>2741.0505</ele>
        <time>2021-11-14T14:55:47Z</time>
      </trkpt>
      <trkpt lat="4.593801" lon="-75.168068">
        <ele>2740.7002</ele>
        <time>2021-11-14T14:55:48Z</time>
      </trkpt>
      <trkpt lat="4.593805" lon="-75.168015">
        <ele>2740.6418</ele>
        <time>2021-11-14T14:55:49Z</time>
      </trkpt>
      <trkpt lat="4.593799" lon="-75.167969">
        <ele>2739.9739</ele>
        <time>2021-11-14T14:55:50Z</time>
      </trkpt>
      <trkpt lat="4.593796" lon="-75.167915">
        <ele>2740.638</ele>
        <time>2021-11-14T14:55:51Z</time>
      </trkpt>
      <trkpt lat="4.593788" lon="-75.167908">
        <ele>2739.7107</ele>
        <time>2021-11-14T14:55:52Z</time>
      </trkpt>
      <trkpt lat="4.593775" lon="-75.167877">
        <ele>2740.2688</ele>
        <time>2021-11-14T14:55:53Z</time>
      </trkpt>
      <trkpt lat="4.593778" lon="-75.167854">
        <ele>2740.6528</ele>
        <time>2021-11-14T14:55:54Z</time>
      </trkpt>
      <trkpt lat="4.593778" lon="-75.167854">
        <ele>2740.089</ele>
        <time>2021-11-14T14:55:55Z</time>
      </trkpt>
      <trkpt lat="4.593775" lon="-75.167824">
        <ele>2740.0847</ele>
        <time>2021-11-14T14:55:56Z</time>
      </trkpt>
      <trkpt lat="4.593754" lon="-75.167786">
        <ele>2740.4817</ele>
        <time>2021-11-14T14:55:57Z</time>
      </trkpt>
      <trkpt lat="4.593745" lon="-75.16777">
        <ele>2739.917</ele>
        <time>2021-11-14T14:55:58Z</time>
      </trkpt>
      <trkpt lat="4.593744" lon="-75.167732">
        <ele>2740.1245</ele>
        <time>2021-11-14T14:55:59Z</time>
      </trkpt>
      <trkpt lat="4.593746" lon="-75.167702">
        <ele>2739.6633</ele>
        <time>2021-11-14T14:56:00Z</time>
      </trkpt>
      <trkpt lat="4.593772" lon="-75.167664">
        <ele>2739.2402</ele>
        <time>2021-11-14T14:56:01Z</time>
      </trkpt>
      <trkpt lat="4.593805" lon="-75.167587">
        <ele>2737.8213</ele>
        <time>2021-11-14T14:56:02Z</time>
      </trkpt>
      <trkpt lat="4.593824" lon="-75.167511">
        <ele>2737.6243</ele>
        <time>2021-11-14T14:56:03Z</time>
      </trkpt>
      <trkpt lat="4.593816" lon="-75.167465">
        <ele>2736.985</ele>
        <time>2021-11-14T14:56:04Z</time>
      </trkpt>
      <trkpt lat="4.59382" lon="-75.167397">
        <ele>2736.4612</ele>
        <time>2021-11-14T14:56:05Z</time>
      </trkpt>
      <trkpt lat="4.593815" lon="-75.167328">
        <ele>2735.9824</ele>
        <time>2021-11-14T14:56:06Z</time>
      </trkpt>
      <trkpt lat="4.593796" lon="-75.16729">
        <ele>2735.872</ele>
        <time>2021-11-14T14:56:07Z</time>
      </trkpt>
      <trkpt lat="4.593761" lon="-75.167244">
        <ele>2735.2136</ele>
        <time>2021-11-14T14:56:08Z</time>
      </trkpt>
      <trkpt lat="4.593695" lon="-75.167183">
        <ele>2734.8975</ele>
        <time>2021-11-14T14:56:09Z</time>
      </trkpt>
      <trkpt lat="4.593617" lon="-75.167168">
        <ele>2733.899</ele>
        <time>2021-11-14T14:56:10Z</time>
      </trkpt>
      <trkpt lat="4.593549" lon="-75.167152">
        <ele>2732.7095</ele>
        <time>2021-11-14T14:56:11Z</time>
      </trkpt>
      <trkpt lat="4.593487" lon="-75.167175">
        <ele>2732.4407</ele>
        <time>2021-11-14T14:56:12Z</time>
      </trkpt>
      <trkpt lat="4.593442" lon="-75.167206">
        <ele>2732.1138</ele>
        <time>2021-11-14T14:56:14Z</time>
      </trkpt>
      <trkpt lat="4.593383" lon="-75.167229">
        <ele>2732.2188</ele>
        <time>2021-11-14T14:56:15Z</time>
      </trkpt>
      <trkpt lat="4.593337" lon="-75.167229">
        <ele>2732.0095</ele>
        <time>2021-11-14T14:56:16Z</time>
      </trkpt>
      <trkpt lat="4.593316" lon="-75.167213">
        <ele>2732.3086</ele>
        <time>2021-11-14T14:56:17Z</time>
      </trkpt>
      <trkpt lat="4.593271" lon="-75.167168">
        <ele>2731.5945</ele>
        <time>2021-11-14T14:56:18Z</time>
      </trkpt>
      <trkpt lat="4.593273" lon="-75.167168">
        <ele>2731.2993</ele>
        <time>2021-11-14T14:56:19Z</time>
      </trkpt>
      <trkpt lat="4.59327" lon="-75.167114">
        <ele>2730.5176</ele>
        <time>2021-11-14T14:56:20Z</time>
      </trkpt>
      <trkpt lat="4.59326" lon="-75.167114">
        <ele>2730.634</ele>
        <time>2021-11-14T14:56:21Z</time>
      </trkpt>
      <trkpt lat="4.593251" lon="-75.167076">
        <ele>2730.2563</ele>
        <time>2021-11-14T14:56:22Z</time>
      </trkpt>
      <trkpt lat="4.593251" lon="-75.167076">
        <ele>2729.9253</ele>
        <time>2021-11-14T14:56:23Z</time>
      </trkpt>
      <trkpt lat="4.593263" lon="-75.167068">
        <ele>2729.6584</ele>
        <time>2021-11-14T14:56:24Z</time>
      </trkpt>
      <trkpt lat="4.593288" lon="-75.167038">
        <ele>2729.8184</ele>
        <time>2021-11-14T14:56:25Z</time>
      </trkpt>
      <trkpt lat="4.5933" lon="-75.166992">
        <ele>2729.259</ele>
        <time>2021-11-14T14:56:26Z</time>
      </trkpt>
      <trkpt lat="4.593311" lon="-75.166992">
        <ele>2729.7046</ele>
        <time>2021-11-14T14:56:27Z</time>
      </trkpt>
      <trkpt lat="4.593325" lon="-75.166954">
        <ele>2730.0342</ele>
        <time>2021-11-14T14:56:28Z</time>
      </trkpt>
      <trkpt lat="4.59336" lon="-75.166901">
        <ele>2730.3352</ele>
        <time>2021-11-14T14:56:29Z</time>
      </trkpt>
      <trkpt lat="4.5934" lon="-75.166832">
        <ele>2730.084</ele>
        <time>2021-11-14T14:56:30Z</time>
      </trkpt>
      <trkpt lat="4.593426" lon="-75.166771">
        <ele>2729.8975</ele>
        <time>2021-11-14T14:56:31Z</time>
      </trkpt>
      <trkpt lat="4.59344" lon="-75.166733">
        <ele>2729.205</ele>
        <time>2021-11-14T14:56:32Z</time>
      </trkpt>
      <trkpt lat="4.593442" lon="-75.166695">
        <ele>2729.254</ele>
        <time>2021-11-14T14:56:33Z</time>
      </trkpt>
      <trkpt lat="4.593429" lon="-75.166641">
        <ele>2729.2434</ele>
        <time>2021-11-14T14:56:34Z</time>
      </trkpt>
      <trkpt lat="4.593414" lon="-75.16658">
        <ele>2730.2378</ele>
        <time>2021-11-14T14:56:35Z</time>
      </trkpt>
      <trkpt lat="4.593384" lon="-75.16655">
        <ele>2730.3384</ele>
        <time>2021-11-14T14:56:36Z</time>
      </trkpt>
      <trkpt lat="4.593317" lon="-75.166512">
        <ele>2729.916</ele>
        <time>2021-11-14T14:56:37Z</time>
      </trkpt>
      <trkpt lat="4.59325" lon="-75.166481">
        <ele>2730.1316</ele>
        <time>2021-11-14T14:56:38Z</time>
      </trkpt>
      <trkpt lat="4.593228" lon="-75.166458">
        <ele>2729.539</ele>
        <time>2021-11-14T14:56:39Z</time>
      </trkpt>
      <trkpt lat="4.593225" lon="-75.166443">
        <ele>2729.8533</ele>
        <time>2021-11-14T14:56:40Z</time>
      </trkpt>
      <trkpt lat="4.593212" lon="-75.166412">
        <ele>2729.515</ele>
        <time>2021-11-14T14:56:41Z</time>
      </trkpt>
      <trkpt lat="4.593211" lon="-75.166359">
        <ele>2728.2122</ele>
        <time>2021-11-14T14:56:42Z</time>
      </trkpt>
      <trkpt lat="4.593212" lon="-75.166283">
        <ele>2727.9465</ele>
        <time>2021-11-14T14:56:43Z</time>
      </trkpt>
      <trkpt lat="4.593216" lon="-75.166237">
        <ele>2727.1658</ele>
        <time>2021-11-14T14:56:44Z</time>
      </trkpt>
      <trkpt lat="4.593219" lon="-75.166237">
        <ele>2727.151</ele>
        <time>2021-11-14T14:56:45Z</time>
      </trkpt>
      <trkpt lat="4.593258" lon="-75.166122">
        <ele>2726.7322</ele>
        <time>2021-11-14T14:56:46Z</time>
      </trkpt>
      <trkpt lat="4.593273" lon="-75.166084">
        <ele>2727.11</ele>
        <time>2021-11-14T14:56:47Z</time>
      </trkpt>
      <trkpt lat="4.593267" lon="-75.166061">
        <ele>2726.4854</ele>
        <time>2021-11-14T14:56:48Z</time>
      </trkpt>
      <trkpt lat="4.593325" lon="-75.165977">
        <ele>2725.756</ele>
        <time>2021-11-14T14:56:49Z</time>
      </trkpt>
      <trkpt lat="4.59333" lon="-75.165955">
        <ele>2725.0474</ele>
        <time>2021-11-14T14:56:50Z</time>
      </trkpt>
      <trkpt lat="4.593343" lon="-75.165932">
        <ele>2721.6792</ele>
        <time>2021-11-14T14:56:51Z</time>
      </trkpt>
      <trkpt lat="4.593342" lon="-75.165932">
        <ele>2721.419</ele>
        <time>2021-11-14T14:56:52Z</time>
      </trkpt>
      <trkpt lat="4.593342" lon="-75.165932">
        <ele>2721.3406</ele>
        <time>2021-11-14T14:56:53Z</time>
      </trkpt>
      <trkpt lat="4.593436" lon="-75.16584">
        <ele>2720.618</ele>
        <time>2021-11-14T14:56:54Z</time>
      </trkpt>
      <trkpt lat="4.593454" lon="-75.165833">
        <ele>2720.114</ele>
        <time>2021-11-14T14:56:55Z</time>
      </trkpt>
      <trkpt lat="4.593469" lon="-75.16581">
        <ele>2720.3818</ele>
        <time>2021-11-14T14:56:56Z</time>
      </trkpt>
      <trkpt lat="4.593514" lon="-75.165787">
        <ele>2719.7302</ele>
        <time>2021-11-14T14:56:57Z</time>
      </trkpt>
      <trkpt lat="4.593597" lon="-75.165733">
        <ele>2720.3196</ele>
        <time>2021-11-14T14:56:58Z</time>
      </trkpt>
      <trkpt lat="4.593625" lon="-75.165695">
        <ele>2718.451</ele>
        <time>2021-11-14T14:56:59Z</time>
      </trkpt>
      <trkpt lat="4.593676" lon="-75.165703">
        <ele>2717.2236</ele>
        <time>2021-11-14T14:57:00Z</time>
      </trkpt>
      <trkpt lat="4.59366" lon="-75.165695">
        <ele>2717.4622</ele>
        <time>2021-11-14T14:57:01Z</time>
      </trkpt>
      <trkpt lat="4.593707" lon="-75.16568">
        <ele>2717.6821</ele>
        <time>2021-11-14T14:57:03Z</time>
      </trkpt>
      <trkpt lat="4.593749" lon="-75.165665">
        <ele>2717.0679</ele>
        <time>2021-11-14T14:57:04Z</time>
      </trkpt>
      <trkpt lat="4.593774" lon="-75.165657">
        <ele>2718.1821</ele>
        <time>2021-11-14T14:57:05Z</time>
      </trkpt>
      <trkpt lat="4.593833" lon="-75.165634">
        <ele>2718.5078</ele>
        <time>2021-11-14T14:57:06Z</time>
      </trkpt>
      <trkpt lat="4.593856" lon="-75.165627">
        <ele>2716.998</ele>
        <time>2021-11-14T14:57:07Z</time>
      </trkpt>
      <trkpt lat="4.593888" lon="-75.165588">
        <ele>2716.0818</ele>
        <time>2021-11-14T14:57:08Z</time>
      </trkpt>
      <trkpt lat="4.59391" lon="-75.165527">
        <ele>2715.3398</ele>
        <time>2021-11-14T14:57:09Z</time>
      </trkpt>
      <trkpt lat="4.593925" lon="-75.165466">
        <ele>2714.3123</ele>
        <time>2021-11-14T14:57:10Z</time>
      </trkpt>
      <trkpt lat="4.593901" lon="-75.165428">
        <ele>2714.7815</ele>
        <time>2021-11-14T14:57:11Z</time>
      </trkpt>
      <trkpt lat="4.593866" lon="-75.165398">
        <ele>2715.036</ele>
        <time>2021-11-14T14:57:12Z</time>
      </trkpt>
      <trkpt lat="4.593849" lon="-75.165344">
        <ele>2713.2354</ele>
        <time>2021-11-14T14:57:13Z</time>
      </trkpt>
      <trkpt lat="4.593782" lon="-75.165344">
        <ele>2712.0596</ele>
        <time>2021-11-14T14:57:14Z</time>
      </trkpt>
      <trkpt lat="4.593729" lon="-75.165359">
        <ele>2711.2605</ele>
        <time>2021-11-14T14:57:15Z</time>
      </trkpt>
      <trkpt lat="4.59368" lon="-75.165382">
        <ele>2710.7542</ele>
        <time>2021-11-14T14:57:16Z</time>
      </trkpt>
      <trkpt lat="4.593654" lon="-75.165398">
        <ele>2710.216</ele>
        <time>2021-11-14T14:57:17Z</time>
      </trkpt>
      <trkpt lat="4.593625" lon="-75.165421">
        <ele>2709.2986</ele>
        <time>2021-11-14T14:57:18Z</time>
      </trkpt>
      <trkpt lat="4.593562" lon="-75.165489">
        <ele>2708.9058</ele>
        <time>2021-11-14T14:57:19Z</time>
      </trkpt>
      <trkpt lat="4.593562" lon="-75.165489">
        <ele>2708.4436</ele>
        <time>2021-11-14T14:57:20Z</time>
      </trkpt>
      <trkpt lat="4.593498" lon="-75.165535">
        <ele>2707.258</ele>
        <time>2021-11-14T14:57:21Z</time>
      </trkpt>
      <trkpt lat="4.593444" lon="-75.165543">
        <ele>2706.3704</ele>
        <time>2021-11-14T14:57:22Z</time>
      </trkpt>
      <trkpt lat="4.593358" lon="-75.165565">
        <ele>2705.5916</ele>
        <time>2021-11-14T14:57:23Z</time>
      </trkpt>
      <trkpt lat="4.593332" lon="-75.165596">
        <ele>2705.7234</ele>
        <time>2021-11-14T14:57:24Z</time>
      </trkpt>
      <trkpt lat="4.593265" lon="-75.165642">
        <ele>2704.9534</ele>
        <time>2021-11-14T14:57:25Z</time>
      </trkpt>
      <trkpt lat="4.593232" lon="-75.165672">
        <ele>2704.4607</ele>
        <time>2021-11-14T14:57:26Z</time>
      </trkpt>
      <trkpt lat="4.593187" lon="-75.165703">
        <ele>2703.9575</ele>
        <time>2021-11-14T14:57:27Z</time>
      </trkpt>
      <trkpt lat="4.593145" lon="-75.165741">
        <ele>2703.6587</ele>
        <time>2021-11-14T14:57:28Z</time>
      </trkpt>
      <trkpt lat="4.593098" lon="-75.165771">
        <ele>2703.2498</ele>
        <time>2021-11-14T14:57:29Z</time>
      </trkpt>
      <trkpt lat="4.59305" lon="-75.16581">
        <ele>2702.607</ele>
        <time>2021-11-14T14:57:30Z</time>
      </trkpt>
      <trkpt lat="4.593027" lon="-75.16584">
        <ele>2702.4539</ele>
        <time>2021-11-14T14:57:31Z</time>
      </trkpt>
      <trkpt lat="4.59299" lon="-75.165886">
        <ele>2702.0427</ele>
        <time>2021-11-14T14:57:32Z</time>
      </trkpt>
      <trkpt lat="4.592975" lon="-75.165916">
        <ele>2701.5513</ele>
        <time>2021-11-14T14:57:33Z</time>
      </trkpt>
      <trkpt lat="4.592942" lon="-75.165955">
        <ele>2701.3413</ele>
        <time>2021-11-14T14:57:34Z</time>
      </trkpt>
      <trkpt lat="4.592908" lon="-75.165962">
        <ele>2701.2634</ele>
        <time>2021-11-14T14:57:35Z</time>
      </trkpt>
      <trkpt lat="4.592874" lon="-75.165955">
        <ele>2700.544</ele>
        <time>2021-11-14T14:57:36Z</time>
      </trkpt>
      <trkpt lat="4.592825" lon="-75.165955">
        <ele>2700.2695</ele>
        <time>2021-11-14T14:57:37Z</time>
      </trkpt>
      <trkpt lat="4.592761" lon="-75.165939">
        <ele>2699.8262</ele>
        <time>2021-11-14T14:57:39Z</time>
      </trkpt>
      <trkpt lat="4.592695" lon="-75.165924">
        <ele>2699.1287</ele>
        <time>2021-11-14T14:57:40Z</time>
      </trkpt>
      <trkpt lat="4.59267" lon="-75.165924">
        <ele>2699.3308</ele>
        <time>2021-11-14T14:57:41Z</time>
      </trkpt>
      <trkpt lat="4.592652" lon="-75.165916">
        <ele>2699.4866</ele>
        <time>2021-11-14T14:57:42Z</time>
      </trkpt>
      <trkpt lat="4.592628" lon="-75.165909">
        <ele>2699.5183</ele>
        <time>2021-11-14T14:57:43Z</time>
      </trkpt>
      <trkpt lat="4.59262" lon="-75.165909">
        <ele>2699.5542</ele>
        <time>2021-11-14T14:57:44Z</time>
      </trkpt>
      <trkpt lat="4.59258" lon="-75.165886">
        <ele>2699.2417</ele>
        <time>2021-11-14T14:57:45Z</time>
      </trkpt>
      <trkpt lat="4.592555" lon="-75.165878">
        <ele>2699.3372</ele>
        <time>2021-11-14T14:57:46Z</time>
      </trkpt>
      <trkpt lat="4.592555" lon="-75.165878">
        <ele>2699.1194</ele>
        <time>2021-11-14T14:57:47Z</time>
      </trkpt>
      <trkpt lat="4.592539" lon="-75.165863">
        <ele>2699.5945</ele>
        <time>2021-11-14T14:57:48Z</time>
      </trkpt>
      <trkpt lat="4.592523" lon="-75.165863">
        <ele>2699.4607</ele>
        <time>2021-11-14T14:57:49Z</time>
      </trkpt>
      <trkpt lat="4.592519" lon="-75.16584">
        <ele>2699.9028</ele>
        <time>2021-11-14T14:57:50Z</time>
      </trkpt>
      <trkpt lat="4.592519" lon="-75.165833">
        <ele>2699.7295</ele>
        <time>2021-11-14T14:57:51Z</time>
      </trkpt>
      <trkpt lat="4.59253" lon="-75.165779">
        <ele>2699.561</ele>
        <time>2021-11-14T14:57:52Z</time>
      </trkpt>
      <trkpt lat="4.592529" lon="-75.165794">
        <ele>2699.798</ele>
        <time>2021-11-14T14:57:53Z</time>
      </trkpt>
      <trkpt lat="4.592533" lon="-75.165779">
        <ele>2700.18</ele>
        <time>2021-11-14T14:57:54Z</time>
      </trkpt>
      <trkpt lat="4.592581" lon="-75.165726">
        <ele>2700.0715</ele>
        <time>2021-11-14T14:57:55Z</time>
      </trkpt>
      <trkpt lat="4.592596" lon="-75.165718">
        <ele>2699.6929</ele>
        <time>2021-11-14T14:57:56Z</time>
      </trkpt>
      <trkpt lat="4.5926" lon="-75.165718">
        <ele>2700.258</ele>
        <time>2021-11-14T14:57:57Z</time>
      </trkpt>
      <trkpt lat="4.592604" lon="-75.165718">
        <ele>2699.756</ele>
        <time>2021-11-14T14:57:58Z</time>
      </trkpt>
      <trkpt lat="4.592613" lon="-75.165703">
        <ele>2699.5566</ele>
        <time>2021-11-14T14:57:59Z</time>
      </trkpt>
      <trkpt lat="4.592633" lon="-75.165672">
        <ele>2699.7646</ele>
        <time>2021-11-14T14:58:00Z</time>
      </trkpt>
      <trkpt lat="4.592646" lon="-75.165642">
        <ele>2699.6096</ele>
        <time>2021-11-14T14:58:01Z</time>
      </trkpt>
      <trkpt lat="4.592667" lon="-75.165588">
        <ele>2700.0789</ele>
        <time>2021-11-14T14:58:02Z</time>
      </trkpt>
      <trkpt lat="4.592677" lon="-75.165527">
        <ele>2699.5393</ele>
        <time>2021-11-14T14:58:03Z</time>
      </trkpt>
      <trkpt lat="4.592671" lon="-75.165459">
        <ele>2699.6685</ele>
        <time>2021-11-14T14:58:04Z</time>
      </trkpt>
      <trkpt lat="4.592689" lon="-75.16539">
        <ele>2699.7659</ele>
        <time>2021-11-14T14:58:05Z</time>
      </trkpt>
      <trkpt lat="4.592707" lon="-75.165337">
        <ele>2700.241</ele>
        <time>2021-11-14T14:58:06Z</time>
      </trkpt>
      <trkpt lat="4.592692" lon="-75.165276">
        <ele>2700.3828</ele>
        <time>2021-11-14T14:58:07Z</time>
      </trkpt>
      <trkpt lat="4.592651" lon="-75.165222">
        <ele>2700.2737</ele>
        <time>2021-11-14T14:58:08Z</time>
      </trkpt>
      <trkpt lat="4.592611" lon="-75.165161">
        <ele>2700.803</ele>
        <time>2021-11-14T14:58:09Z</time>
      </trkpt>
      <trkpt lat="4.592571" lon="-75.165092">
        <ele>2701.0925</ele>
        <time>2021-11-14T14:58:10Z</time>
      </trkpt>
      <trkpt lat="4.592558" lon="-75.165054">
        <ele>2701.6604</ele>
        <time>2021-11-14T14:58:11Z</time>
      </trkpt>
      <trkpt lat="4.592558" lon="-75.165054">
        <ele>2702.0244</ele>
        <time>2021-11-14T14:58:12Z</time>
      </trkpt>
      <trkpt lat="4.59254" lon="-75.164986">
        <ele>2702.1125</ele>
        <time>2021-11-14T14:58:13Z</time>
      </trkpt>
      <trkpt lat="4.592505" lon="-75.164909">
        <ele>2702.3613</ele>
        <time>2021-11-14T14:58:14Z</time>
      </trkpt>
      <trkpt lat="4.592482" lon="-75.164833">
        <ele>2702.1848</ele>
        <time>2021-11-14T14:58:15Z</time>
      </trkpt>
      <trkpt lat="4.592482" lon="-75.16481">
        <ele>2702.51</ele>
        <time>2021-11-14T14:58:16Z</time>
      </trkpt>
      <trkpt lat="4.592483" lon="-75.164764">
        <ele>2702.8135</ele>
        <time>2021-11-14T14:58:17Z</time>
      </trkpt>
      <trkpt lat="4.592476" lon="-75.164726">
        <ele>2702.803</ele>
        <time>2021-11-14T14:58:18Z</time>
      </trkpt>
      <trkpt lat="4.592482" lon="-75.164757">
        <ele>2703.0496</ele>
        <time>2021-11-14T14:58:19Z</time>
      </trkpt>
      <trkpt lat="4.59248" lon="-75.164688">
        <ele>2703.383</ele>
        <time>2021-11-14T14:58:20Z</time>
      </trkpt>
      <trkpt lat="4.592486" lon="-75.16465">
        <ele>2703.7656</ele>
        <time>2021-11-14T14:58:21Z</time>
      </trkpt>
      <trkpt lat="4.592497" lon="-75.164627">
        <ele>2703.9846</ele>
        <time>2021-11-14T14:58:22Z</time>
      </trkpt>
      <trkpt lat="4.592514" lon="-75.164566">
        <ele>2704.274</ele>
        <time>2021-11-14T14:58:23Z</time>
      </trkpt>
      <trkpt lat="4.592543" lon="-75.164528">
        <ele>2704.2742</ele>
        <time>2021-11-14T14:58:24Z</time>
      </trkpt>
      <trkpt lat="4.592584" lon="-75.164474">
        <ele>2704.0</ele>
        <time>2021-11-14T14:58:25Z</time>
      </trkpt>
      <trkpt lat="4.592621" lon="-75.164429">
        <ele>2703.5098</ele>
        <time>2021-11-14T14:58:26Z</time>
      </trkpt>
      <trkpt lat="4.592649" lon="-75.164413">
        <ele>2703.41</ele>
        <time>2021-11-14T14:58:28Z</time>
      </trkpt>
      <trkpt lat="4.592688" lon="-75.164383">
        <ele>2703.2817</ele>
        <time>2021-11-14T14:58:29Z</time>
      </trkpt>
      <trkpt lat="4.59273" lon="-75.164337">
        <ele>2703.4316</ele>
        <time>2021-11-14T14:58:30Z</time>
      </trkpt>
      <trkpt lat="4.592775" lon="-75.164299">
        <ele>2703.5486</ele>
        <time>2021-11-14T14:58:31Z</time>
      </trkpt>
      <trkpt lat="4.592814" lon="-75.164261">
        <ele>2703.1514</ele>
        <time>2021-11-14T14:58:32Z</time>
      </trkpt>
      <trkpt lat="4.592841" lon="-75.16423">
        <ele>2703.251</ele>
        <time>2021-11-14T14:58:33Z</time>
      </trkpt>
      <trkpt lat="4.592844" lon="-75.164207">
        <ele>2702.9104</ele>
        <time>2021-11-14T14:58:34Z</time>
      </trkpt>
      <trkpt lat="4.592852" lon="-75.164177">
        <ele>2703.245</ele>
        <time>2021-11-14T14:58:35Z</time>
      </trkpt>
      <trkpt lat="4.592852" lon="-75.164177">
        <ele>2703.2053</ele>
        <time>2021-11-14T14:58:36Z</time>
      </trkpt>
      <trkpt lat="4.592846" lon="-75.164146">
        <ele>2703.1594</ele>
        <time>2021-11-14T14:58:37Z</time>
      </trkpt>
      <trkpt lat="4.592814" lon="-75.164093">
        <ele>2702.8733</ele>
        <time>2021-11-14T14:58:38Z</time>
      </trkpt>
      <trkpt lat="4.592788" lon="-75.16407">
        <ele>2702.514</ele>
        <time>2021-11-14T14:58:39Z</time>
      </trkpt>
      <trkpt lat="4.59272" lon="-75.16404">
        <ele>2701.7917</ele>
        <time>2021-11-14T14:58:40Z</time>
      </trkpt>
      <trkpt lat="4.592671" lon="-75.164047">
        <ele>2701.9353</ele>
        <time>2021-11-14T14:58:41Z</time>
      </trkpt>
      <trkpt lat="4.592593" lon="-75.164024">
        <ele>2701.271</ele>
        <time>2021-11-14T14:58:42Z</time>
      </trkpt>
      <trkpt lat="4.592537" lon="-75.163986">
        <ele>2700.5334</ele>
        <time>2021-11-14T14:58:43Z</time>
      </trkpt>
      <trkpt lat="4.592513" lon="-75.163948">
        <ele>2699.6465</ele>
        <time>2021-11-14T14:58:44Z</time>
      </trkpt>
      <trkpt lat="4.592487" lon="-75.16391">
        <ele>2699.0203</ele>
        <time>2021-11-14T14:58:45Z</time>
      </trkpt>
      <trkpt lat="4.592434" lon="-75.163849">
        <ele>2697.6687</ele>
        <time>2021-11-14T14:58:46Z</time>
      </trkpt>
      <trkpt lat="4.592409" lon="-75.163834">
        <ele>2697.318</ele>
        <time>2021-11-14T14:58:47Z</time>
      </trkpt>
      <trkpt lat="4.592356" lon="-75.163834">
        <ele>2697.5671</ele>
        <time>2021-11-14T14:58:48Z</time>
      </trkpt>
      <trkpt lat="4.59229" lon="-75.163841">
        <ele>2696.9192</ele>
        <time>2021-11-14T14:58:49Z</time>
      </trkpt>
      <trkpt lat="4.592243" lon="-75.163872">
        <ele>2696.4844</ele>
        <time>2021-11-14T14:58:50Z</time>
      </trkpt>
      <trkpt lat="4.592204" lon="-75.163925">
        <ele>2695.8635</ele>
        <time>2021-11-14T14:58:51Z</time>
      </trkpt>
      <trkpt lat="4.592149" lon="-75.163963">
        <ele>2695.0925</ele>
        <time>2021-11-14T14:58:52Z</time>
      </trkpt>
      <trkpt lat="4.592122" lon="-75.163956">
        <ele>2694.792</ele>
        <time>2021-11-14T14:58:53Z</time>
      </trkpt>
      <trkpt lat="4.59209" lon="-75.163925">
        <ele>2693.9968</ele>
        <time>2021-11-14T14:58:54Z</time>
      </trkpt>
      <trkpt lat="4.592019" lon="-75.163879">
        <ele>2694.2449</ele>
        <time>2021-11-14T14:58:55Z</time>
      </trkpt>
      <trkpt lat="4.591982" lon="-75.163795">
        <ele>2693.6038</ele>
        <time>2021-11-14T14:58:56Z</time>
      </trkpt>
      <trkpt lat="4.591935" lon="-75.163757">
        <ele>2692.916</ele>
        <time>2021-11-14T14:58:57Z</time>
      </trkpt>
      <trkpt lat="4.5919" lon="-75.163742">
        <ele>2693.0427</ele>
        <time>2021-11-14T14:58:58Z</time>
      </trkpt>
      <trkpt lat="4.591872" lon="-75.163719">
        <ele>2692.319</ele>
        <time>2021-11-14T14:58:59Z</time>
      </trkpt>
      <trkpt lat="4.591807" lon="-75.16362">
        <ele>2692.9055</ele>
        <time>2021-11-14T14:59:00Z</time>
      </trkpt>
      <trkpt lat="4.591803" lon="-75.163528">
        <ele>2693.1248</ele>
        <time>2021-11-14T14:59:01Z</time>
      </trkpt>
      <trkpt lat="4.591785" lon="-75.163544">
        <ele>2692.9446</ele>
        <time>2021-11-14T14:59:02Z</time>
      </trkpt>
      <trkpt lat="4.591785" lon="-75.163544">
        <ele>2693.112</ele>
        <time>2021-11-14T14:59:03Z</time>
      </trkpt>
      <trkpt lat="4.591729" lon="-75.163521">
        <ele>2693.337</ele>
        <time>2021-11-14T14:59:04Z</time>
      </trkpt>
      <trkpt lat="4.591681" lon="-75.163498">
        <ele>2694.0325</ele>
        <time>2021-11-14T14:59:05Z</time>
      </trkpt>
      <trkpt lat="4.591661" lon="-75.16349">
        <ele>2694.3132</ele>
        <time>2021-11-14T14:59:06Z</time>
      </trkpt>
      <trkpt lat="4.591681" lon="-75.163483">
        <ele>2693.8933</ele>
        <time>2021-11-14T14:59:07Z</time>
      </trkpt>
      <trkpt lat="4.59164" lon="-75.163452">
        <ele>2694.4167</ele>
        <time>2021-11-14T14:59:08Z</time>
      </trkpt>
      <trkpt lat="4.591629" lon="-75.163437">
        <ele>2693.8472</ele>
        <time>2021-11-14T14:59:09Z</time>
      </trkpt>
      <trkpt lat="4.591617" lon="-75.163406">
        <ele>2693.91</ele>
        <time>2021-11-14T14:59:10Z</time>
      </trkpt>
      <trkpt lat="4.591638" lon="-75.163368">
        <ele>2693.2075</ele>
        <time>2021-11-14T14:59:11Z</time>
      </trkpt>
      <trkpt lat="4.591637" lon="-75.16333">
        <ele>2692.9976</ele>
        <time>2021-11-14T14:59:12Z</time>
      </trkpt>
      <trkpt lat="4.591656" lon="-75.163315">
        <ele>2693.7795</ele>
        <time>2021-11-14T14:59:13Z</time>
      </trkpt>
      <trkpt lat="4.591703" lon="-75.163292">
        <ele>2692.5498</ele>
        <time>2021-11-14T14:59:14Z</time>
      </trkpt>
      <trkpt lat="4.591769" lon="-75.163277">
        <ele>2693.3057</ele>
        <time>2021-11-14T14:59:15Z</time>
      </trkpt>
      <trkpt lat="4.591798" lon="-75.163216">
        <ele>2694.3726</ele>
        <time>2021-11-14T14:59:16Z</time>
      </trkpt>
      <trkpt lat="4.591845" lon="-75.163162">
        <ele>2694.583</ele>
        <time>2021-11-14T14:59:17Z</time>
      </trkpt>
      <trkpt lat="4.591875" lon="-75.163094">
        <ele>2694.113</ele>
        <time>2021-11-14T14:59:18Z</time>
      </trkpt>
      <trkpt lat="4.591868" lon="-75.16301">
        <ele>2694.6812</ele>
        <time>2021-11-14T14:59:19Z</time>
      </trkpt>
      <trkpt lat="4.591904" lon="-75.162964">
        <ele>2695.0117</ele>
        <time>2021-11-14T14:59:20Z</time>
      </trkpt>
      <trkpt lat="4.59195" lon="-75.162926">
        <ele>2695.3457</ele>
        <time>2021-11-14T14:59:21Z</time>
      </trkpt>
      <trkpt lat="4.591937" lon="-75.162872">
        <ele>2695.84</ele>
        <time>2021-11-14T14:59:22Z</time>
      </trkpt>
      <trkpt lat="4.591919" lon="-75.162804">
        <ele>2696.222</ele>
        <time>2021-11-14T14:59:24Z</time>
      </trkpt>
      <trkpt lat="4.591904" lon="-75.162743">
        <ele>2696.3264</ele>
        <time>2021-11-14T14:59:25Z</time>
      </trkpt>
      <trkpt lat="4.591873" lon="-75.162674">
        <ele>2696.8247</ele>
        <time>2021-11-14T14:59:26Z</time>
      </trkpt>
      <trkpt lat="4.591853" lon="-75.162613">
        <ele>2697.0303</ele>
        <time>2021-11-14T14:59:27Z</time>
      </trkpt>
      <trkpt lat="4.591859" lon="-75.162605">
        <ele>2697.119</ele>
        <time>2021-11-14T14:59:28Z</time>
      </trkpt>
      <trkpt lat="4.591887" lon="-75.162552">
        <ele>2696.419</ele>
        <time>2021-11-14T14:59:29Z</time>
      </trkpt>
      <trkpt lat="4.591927" lon="-75.162514">
        <ele>2696.1025</ele>
        <time>2021-11-14T14:59:30Z</time>
      </trkpt>
      <trkpt lat="4.591975" lon="-75.162483">
        <ele>2696.9734</ele>
        <time>2021-11-14T14:59:31Z</time>
      </trkpt>
      <trkpt lat="4.592029" lon="-75.162468">
        <ele>2696.476</ele>
        <time>2021-11-14T14:59:32Z</time>
      </trkpt>
      <trkpt lat="4.592061" lon="-75.162483">
        <ele>2696.9973</ele>
        <time>2021-11-14T14:59:33Z</time>
      </trkpt>
      <trkpt lat="4.592134" lon="-75.162476">
        <ele>2697.5852</ele>
        <time>2021-11-14T14:59:34Z</time>
      </trkpt>
      <trkpt lat="4.592225" lon="-75.162506">
        <ele>2697.5356</ele>
        <time>2021-11-14T14:59:35Z</time>
      </trkpt>
      <trkpt lat="4.592257" lon="-75.162498">
        <ele>2697.3452</ele>
        <time>2021-11-14T14:59:36Z</time>
      </trkpt>
      <trkpt lat="4.592257" lon="-75.162498">
        <ele>2697.5642</ele>
        <time>2021-11-14T14:59:37Z</time>
      </trkpt>
      <trkpt lat="4.592306" lon="-75.162498">
        <ele>2697.6682</ele>
        <time>2021-11-14T14:59:38Z</time>
      </trkpt>
      <trkpt lat="4.592375" lon="-75.162491">
        <ele>2697.9866</ele>
        <time>2021-11-14T14:59:39Z</time>
      </trkpt>
      <trkpt lat="4.592398" lon="-75.162445">
        <ele>2698.1895</ele>
        <time>2021-11-14T14:59:40Z</time>
      </trkpt>
      <trkpt lat="4.592419" lon="-75.162392">
        <ele>2697.3323</ele>
        <time>2021-11-14T14:59:41Z</time>
      </trkpt>
      <trkpt lat="4.592432" lon="-75.162338">
        <ele>2697.321</ele>
        <time>2021-11-14T14:59:42Z</time>
      </trkpt>
      <trkpt lat="4.592452" lon="-75.162285">
        <ele>2697.061</ele>
        <time>2021-11-14T14:59:43Z</time>
      </trkpt>
      <trkpt lat="4.592496" lon="-75.162231">
        <ele>2696.6162</ele>
        <time>2021-11-14T14:59:44Z</time>
      </trkpt>
      <trkpt lat="4.592537" lon="-75.162163">
        <ele>2696.644</ele>
        <time>2021-11-14T14:59:45Z</time>
      </trkpt>
      <trkpt lat="4.592575" lon="-75.162109">
        <ele>2696.377</ele>
        <time>2021-11-14T14:59:46Z</time>
      </trkpt>
      <trkpt lat="4.592602" lon="-75.162071">
        <ele>2695.4624</ele>
        <time>2021-11-14T14:59:47Z</time>
      </trkpt>
      <trkpt lat="4.592615" lon="-75.162033">
        <ele>2694.6633</ele>
        <time>2021-11-14T14:59:48Z</time>
      </trkpt>
      <trkpt lat="4.59262" lon="-75.16198">
        <ele>2694.3428</ele>
        <time>2021-11-14T14:59:49Z</time>
      </trkpt>
      <trkpt lat="4.59259" lon="-75.161942">
        <ele>2694.6248</ele>
        <time>2021-11-14T14:59:50Z</time>
      </trkpt>
      <trkpt lat="4.592444" lon="-75.161858">
        <ele>2693.1072</ele>
        <time>2021-11-14T14:59:51Z</time>
      </trkpt>
      <trkpt lat="4.592366" lon="-75.161812">
        <ele>2692.2917</ele>
        <time>2021-11-14T14:59:52Z</time>
      </trkpt>
      <trkpt lat="4.592311" lon="-75.161758">
        <ele>2691.7876</ele>
        <time>2021-11-14T14:59:53Z</time>
      </trkpt>
      <trkpt lat="4.592254" lon="-75.16169">
        <ele>2691.4348</ele>
        <time>2021-11-14T14:59:54Z</time>
      </trkpt>
      <trkpt lat="4.592202" lon="-75.161613">
        <ele>2691.0618</ele>
        <time>2021-11-14T14:59:55Z</time>
      </trkpt>
      <trkpt lat="4.592154" lon="-75.161552">
        <ele>2689.2505</ele>
        <time>2021-11-14T14:59:56Z</time>
      </trkpt>
      <trkpt lat="4.592104" lon="-75.161484">
        <ele>2688.8694</ele>
        <time>2021-11-14T14:59:57Z</time>
      </trkpt>
      <trkpt lat="4.592064" lon="-75.161438">
        <ele>2687.9648</ele>
        <time>2021-11-14T14:59:58Z</time>
      </trkpt>
      <trkpt lat="4.592039" lon="-75.161423">
        <ele>2687.678</ele>
        <time>2021-11-14T14:59:59Z</time>
      </trkpt>
      <trkpt lat="4.591981" lon="-75.161369">
        <ele>2686.9597</ele>
        <time>2021-11-14T15:00:00Z</time>
      </trkpt>
      <trkpt lat="4.59193" lon="-75.161369">
        <ele>2686.8752</ele>
        <time>2021-11-14T15:00:01Z</time>
      </trkpt>
      <trkpt lat="4.59193" lon="-75.161369">
        <ele>2685.4072</ele>
        <time>2021-11-14T15:00:02Z</time>
      </trkpt>
      <trkpt lat="4.591861" lon="-75.161377">
        <ele>2684.496</ele>
        <time>2021-11-14T15:00:03Z</time>
      </trkpt>
      <trkpt lat="4.591777" lon="-75.161407">
        <ele>2684.5051</ele>
        <time>2021-11-14T15:00:04Z</time>
      </trkpt>
      <trkpt lat="4.591685" lon="-75.16143">
        <ele>2683.8516</ele>
        <time>2021-11-14T15:00:05Z</time>
      </trkpt>
      <trkpt lat="4.591636" lon="-75.161415">
        <ele>2683.8552</ele>
        <time>2021-11-14T15:00:07Z</time>
      </trkpt>
      <trkpt lat="4.591574" lon="-75.1614">
        <ele>2682.8518</ele>
        <time>2021-11-14T15:00:08Z</time>
      </trkpt>
      <trkpt lat="4.591557" lon="-75.161385">
        <ele>2681.6365</ele>
        <time>2021-11-14T15:00:09Z</time>
      </trkpt>
      <trkpt lat="4.591549" lon="-75.161362">
        <ele>2683.738</ele>
        <time>2021-11-14T15:00:10Z</time>
      </trkpt>
      <trkpt lat="4.591524" lon="-75.161293">
        <ele>2684.0796</ele>
        <time>2021-11-14T15:00:11Z</time>
      </trkpt>
      <trkpt lat="4.591529" lon="-75.161224">
        <ele>2684.024</ele>
        <time>2021-11-14T15:00:12Z</time>
      </trkpt>
      <trkpt lat="4.591532" lon="-75.161201">
        <ele>2683.382</ele>
        <time>2021-11-14T15:00:13Z</time>
      </trkpt>
      <trkpt lat="4.591534" lon="-75.161163">
        <ele>2683.6895</ele>
        <time>2021-11-14T15:00:14Z</time>
      </trkpt>
      <trkpt lat="4.591503" lon="-75.161125">
        <ele>2683.412</ele>
        <time>2021-11-14T15:00:15Z</time>
      </trkpt>
      <trkpt lat="4.591425" lon="-75.16111">
        <ele>2683.3774</ele>
        <time>2021-11-14T15:00:16Z</time>
      </trkpt>
      <trkpt lat="4.591368" lon="-75.16114">
        <ele>2683.0605</ele>
        <time>2021-11-14T15:00:17Z</time>
      </trkpt>
      <trkpt lat="4.591327" lon="-75.161171">
        <ele>2680.985</ele>
        <time>2021-11-14T15:00:18Z</time>
      </trkpt>
      <trkpt lat="4.591233" lon="-75.161247">
        <ele>2680.4446</ele>
        <time>2021-11-14T15:00:19Z</time>
      </trkpt>
      <trkpt lat="4.591173" lon="-75.161293">
        <ele>2679.5986</ele>
        <time>2021-11-14T15:00:20Z</time>
      </trkpt>
      <trkpt lat="4.591139" lon="-75.161293">
        <ele>2678.0696</ele>
        <time>2021-11-14T15:00:21Z</time>
      </trkpt>
      <trkpt lat="4.591072" lon="-75.161308">
        <ele>2677.0503</ele>
        <time>2021-11-14T15:00:22Z</time>
      </trkpt>
      <trkpt lat="4.590945" lon="-75.161293">
        <ele>2677.0708</ele>
        <time>2021-11-14T15:00:23Z</time>
      </trkpt>
      <trkpt lat="4.590882" lon="-75.161255">
        <ele>2676.4392</ele>
        <time>2021-11-14T15:00:24Z</time>
      </trkpt>
      <trkpt lat="4.590826" lon="-75.161278">
        <ele>2676.2058</ele>
        <time>2021-11-14T15:00:25Z</time>
      </trkpt>
      <trkpt lat="4.59074" lon="-75.161308">
        <ele>2676.2686</ele>
        <time>2021-11-14T15:00:26Z</time>
      </trkpt>
      <trkpt lat="4.590705" lon="-75.161324">
        <ele>2676.1797</ele>
        <time>2021-11-14T15:00:27Z</time>
      </trkpt>
      <trkpt lat="4.590686" lon="-75.161324">
        <ele>2675.8904</ele>
        <time>2021-11-14T15:00:28Z</time>
      </trkpt>
      <trkpt lat="4.590681" lon="-75.161331">
        <ele>2675.0608</ele>
        <time>2021-11-14T15:00:29Z</time>
      </trkpt>
      <trkpt lat="4.590661" lon="-75.161324">
        <ele>2674.725</ele>
        <time>2021-11-14T15:00:30Z</time>
      </trkpt>
      <trkpt lat="4.59066" lon="-75.161324">
        <ele>2674.661</ele>
        <time>2021-11-14T15:00:31Z</time>
      </trkpt>
      <trkpt lat="4.59066" lon="-75.161324">
        <ele>2674.146</ele>
        <time>2021-11-14T15:00:32Z</time>
      </trkpt>
      <trkpt lat="4.590589" lon="-75.161278">
        <ele>2673.4055</ele>
        <time>2021-11-14T15:00:33Z</time>
      </trkpt>
      <trkpt lat="4.590598" lon="-75.161263">
        <ele>2673.5679</ele>
        <time>2021-11-14T15:00:34Z</time>
      </trkpt>
      <trkpt lat="4.590612" lon="-75.16124">
        <ele>2674.0361</ele>
        <time>2021-11-14T15:00:35Z</time>
      </trkpt>
      <trkpt lat="4.590622" lon="-75.161179">
        <ele>2673.4893</ele>
        <time>2021-11-14T15:00:36Z</time>
      </trkpt>
      <trkpt lat="4.59066" lon="-75.161102">
        <ele>2672.687</ele>
        <time>2021-11-14T15:00:37Z</time>
      </trkpt>
      <trkpt lat="4.590693" lon="-75.161064">
        <ele>2672.225</ele>
        <time>2021-11-14T15:00:38Z</time>
      </trkpt>
      <trkpt lat="4.590703" lon="-75.161041">
        <ele>2671.468</ele>
        <time>2021-11-14T15:00:39Z</time>
      </trkpt>
      <trkpt lat="4.590695" lon="-75.16098">
        <ele>2671.2996</ele>
        <time>2021-11-14T15:00:40Z</time>
      </trkpt>
      <trkpt lat="4.590653" lon="-75.160881">
        <ele>2670.5723</ele>
        <time>2021-11-14T15:00:41Z</time>
      </trkpt>
      <trkpt lat="4.590606" lon="-75.160873">
        <ele>2669.3982</ele>
        <time>2021-11-14T15:00:42Z</time>
      </trkpt>
      <trkpt lat="4.590555" lon="-75.160851">
        <ele>2669.2917</ele>
        <time>2021-11-14T15:00:43Z</time>
      </trkpt>
      <trkpt lat="4.590504" lon="-75.16082">
        <ele>2669.0461</ele>
        <time>2021-11-14T15:00:44Z</time>
      </trkpt>
      <trkpt lat="4.590495" lon="-75.16082">
        <ele>2669.4927</ele>
        <time>2021-11-14T15:00:45Z</time>
      </trkpt>
      <trkpt lat="4.590495" lon="-75.160812">
        <ele>2669.5305</ele>
        <time>2021-11-14T15:00:46Z</time>
      </trkpt>
      <trkpt lat="4.59048" lon="-75.160782">
        <ele>2668.7986</ele>
        <time>2021-11-14T15:00:47Z</time>
      </trkpt>
      <trkpt lat="4.590476" lon="-75.160721">
        <ele>2667.8167</ele>
        <time>2021-11-14T15:00:48Z</time>
      </trkpt>
      <trkpt lat="4.590484" lon="-75.16069">
        <ele>2668.5474</ele>
        <time>2021-11-14T15:00:49Z</time>
      </trkpt>
      <trkpt lat="4.590564" lon="-75.16066">
        <ele>2667.9326</ele>
        <time>2021-11-14T15:00:50Z</time>
      </trkpt>
      <trkpt lat="4.590632" lon="-75.160614">
        <ele>2667.142</ele>
        <time>2021-11-14T15:00:51Z</time>
      </trkpt>
      <trkpt lat="4.590652" lon="-75.160553">
        <ele>2666.8289</ele>
        <time>2021-11-14T15:00:52Z</time>
      </trkpt>
      <trkpt lat="4.590646" lon="-75.160484">
        <ele>2666.9175</ele>
        <time>2021-11-14T15:00:53Z</time>
      </trkpt>
      <trkpt lat="4.590564" lon="-75.160316">
        <ele>2665.8975</ele>
        <time>2021-11-14T15:00:54Z</time>
      </trkpt>
      <trkpt lat="4.590586" lon="-75.160355">
        <ele>2665.131</ele>
        <time>2021-11-14T15:00:55Z</time>
      </trkpt>
      <trkpt lat="4.590578" lon="-75.160332">
        <ele>2664.6958</ele>
        <time>2021-11-14T15:00:56Z</time>
      </trkpt>
      <trkpt lat="4.590571" lon="-75.160255">
        <ele>2664.5005</ele>
        <time>2021-11-14T15:00:57Z</time>
      </trkpt>
      <trkpt lat="4.590572" lon="-75.160202">
        <ele>2664.3633</ele>
        <time>2021-11-14T15:00:58Z</time>
      </trkpt>
      <trkpt lat="4.590567" lon="-75.160179">
        <ele>2663.7905</ele>
        <time>2021-11-14T15:00:59Z</time>
      </trkpt>
      <trkpt lat="4.590567" lon="-75.160179">
        <ele>2663.7063</ele>
        <time>2021-11-14T15:01:00Z</time>
      </trkpt>
      <trkpt lat="4.59055" lon="-75.160095">
        <ele>2662.9421</ele>
        <time>2021-11-14T15:01:01Z</time>
      </trkpt>
      <trkpt lat="4.590579" lon="-75.16008">
        <ele>2662.7996</ele>
        <time>2021-11-14T15:01:02Z</time>
      </trkpt>
      <trkpt lat="4.590596" lon="-75.160027">
        <ele>2662.5396</ele>
        <time>2021-11-14T15:01:03Z</time>
      </trkpt>
      <trkpt lat="4.590619" lon="-75.15995">
        <ele>2661.064</ele>
        <time>2021-11-14T15:01:04Z</time>
      </trkpt>
      <trkpt lat="4.590656" lon="-75.159882">
        <ele>2659.747</ele>
        <time>2021-11-14T15:01:05Z</time>
      </trkpt>
      <trkpt lat="4.590656" lon="-75.159874">
        <ele>2662.6533</ele>
        <time>2021-11-14T15:01:06Z</time>
      </trkpt>
      <trkpt lat="4.590688" lon="-75.159821">
        <ele>2662.3152</ele>
        <time>2021-11-14T15:01:07Z</time>
      </trkpt>
      <trkpt lat="4.590699" lon="-75.159767">
        <ele>2661.5842</ele>
        <time>2021-11-14T15:01:08Z</time>
      </trkpt>
      <trkpt lat="4.590681" lon="-75.159729">
        <ele>2660.4504</ele>
        <time>2021-11-14T15:01:09Z</time>
      </trkpt>
      <trkpt lat="4.590628" lon="-75.159691">
        <ele>2659.4646</ele>
        <time>2021-11-14T15:01:10Z</time>
      </trkpt>
      <trkpt lat="4.59056" lon="-75.15963">
        <ele>2657.338</ele>
        <time>2021-11-14T15:01:11Z</time>
      </trkpt>
      <trkpt lat="4.590512" lon="-75.159599">
        <ele>2657.2886</ele>
        <time>2021-11-14T15:01:12Z</time>
      </trkpt>
      <trkpt lat="4.590456" lon="-75.159546">
        <ele>2655.9795</ele>
        <time>2021-11-14T15:01:14Z</time>
      </trkpt>
      <trkpt lat="4.590414" lon="-75.159492">
        <ele>2656.214</ele>
        <time>2021-11-14T15:01:15Z</time>
      </trkpt>
      <trkpt lat="4.590399" lon="-75.159462">
        <ele>2655.6025</ele>
        <time>2021-11-14T15:01:16Z</time>
      </trkpt>
      <trkpt lat="4.590361" lon="-75.159431">
        <ele>2653.7783</ele>
        <time>2021-11-14T15:01:17Z</time>
      </trkpt>
      <trkpt lat="4.590294" lon="-75.159424">
        <ele>2652.2578</ele>
        <time>2021-11-14T15:01:18Z</time>
      </trkpt>
      <trkpt lat="4.590238" lon="-75.159431">
        <ele>2650.5774</ele>
        <time>2021-11-14T15:01:19Z</time>
      </trkpt>
      <trkpt lat="4.590179" lon="-75.15947">
        <ele>2649.499</ele>
        <time>2021-11-14T15:01:20Z</time>
      </trkpt>
      <trkpt lat="4.59012" lon="-75.1595">
        <ele>2648.785</ele>
        <time>2021-11-14T15:01:21Z</time>
      </trkpt>
      <trkpt lat="4.590065" lon="-75.159515">
        <ele>2648.1606</ele>
        <time>2021-11-14T15:01:22Z</time>
      </trkpt>
      <trkpt lat="4.590029" lon="-75.159508">
        <ele>2648.6082</ele>
        <time>2021-11-14T15:01:23Z</time>
      </trkpt>
      <trkpt lat="4.590029" lon="-75.159508">
        <ele>2647.4683</ele>
        <time>2021-11-14T15:01:24Z</time>
      </trkpt>
      <trkpt lat="4.590002" lon="-75.159485">
        <ele>2646.7905</ele>
        <time>2021-11-14T15:01:25Z</time>
      </trkpt>
      <trkpt lat="4.589948" lon="-75.159431">
        <ele>2645.7673</ele>
        <time>2021-11-14T15:01:26Z</time>
      </trkpt>
      <trkpt lat="4.589953" lon="-75.159363">
        <ele>2644.8765</ele>
        <time>2021-11-14T15:01:27Z</time>
      </trkpt>
      <trkpt lat="4.589941" lon="-75.159286">
        <ele>2644.6624</ele>
        <time>2021-11-14T15:01:28Z</time>
      </trkpt>
      <trkpt lat="4.589956" lon="-75.159187">
        <ele>2643.7332</ele>
        <time>2021-11-14T15:01:29Z</time>
      </trkpt>
      <trkpt lat="4.589979" lon="-75.159157">
        <ele>2643.5825</ele>
        <time>2021-11-14T15:01:30Z</time>
      </trkpt>
      <trkpt lat="4.589999" lon="-75.159119">
        <ele>2642.2097</ele>
        <time>2021-11-14T15:01:31Z</time>
      </trkpt>
      <trkpt lat="4.590021" lon="-75.159042">
        <ele>2642.0378</ele>
        <time>2021-11-14T15:01:32Z</time>
      </trkpt>
      <trkpt lat="4.590025" lon="-75.158974">
        <ele>2640.9116</ele>
        <time>2021-11-14T15:01:33Z</time>
      </trkpt>
      <trkpt lat="4.59001" lon="-75.15889">
        <ele>2640.522</ele>
        <time>2021-11-14T15:01:34Z</time>
      </trkpt>
      <trkpt lat="4.590004" lon="-75.158821">
        <ele>2638.9966</ele>
        <time>2021-11-14T15:01:35Z</time>
      </trkpt>
      <trkpt lat="4.589984" lon="-75.158791">
        <ele>2638.298</ele>
        <time>2021-11-14T15:01:36Z</time>
      </trkpt>
      <trkpt lat="4.589959" lon="-75.15876">
        <ele>2637.5037</ele>
        <time>2021-11-14T15:01:37Z</time>
      </trkpt>
      <trkpt lat="4.589912" lon="-75.158714">
        <ele>2635.9966</ele>
        <time>2021-11-14T15:01:38Z</time>
      </trkpt>
      <trkpt lat="4.589816" lon="-75.158676">
        <ele>2635.1829</ele>
        <time>2021-11-14T15:01:39Z</time>
      </trkpt>
      <trkpt lat="4.589735" lon="-75.158661">
        <ele>2634.2478</ele>
        <time>2021-11-14T15:01:40Z</time>
      </trkpt>
      <trkpt lat="4.589681" lon="-75.15863">
        <ele>2633.6497</ele>
        <time>2021-11-14T15:01:41Z</time>
      </trkpt>
      <trkpt lat="4.589656" lon="-75.158585">
        <ele>2633.789</ele>
        <time>2021-11-14T15:01:42Z</time>
      </trkpt>
      <trkpt lat="4.589613" lon="-75.158524">
        <ele>2633.0198</ele>
        <time>2021-11-14T15:01:43Z</time>
      </trkpt>
      <trkpt lat="4.589557" lon="-75.158463">
        <ele>2631.9763</ele>
        <time>2021-11-14T15:01:44Z</time>
      </trkpt>
      <trkpt lat="4.58952" lon="-75.158455">
        <ele>2630.8254</ele>
        <time>2021-11-14T15:01:45Z</time>
      </trkpt>
      <trkpt lat="4.589451" lon="-75.158455">
        <ele>2630.2644</ele>
        <time>2021-11-14T15:01:46Z</time>
      </trkpt>
      <trkpt lat="4.589348" lon="-75.15844">
        <ele>2629.3872</ele>
        <time>2021-11-14T15:01:47Z</time>
      </trkpt>
      <trkpt lat="4.589329" lon="-75.158432">
        <ele>2628.5505</ele>
        <time>2021-11-14T15:01:48Z</time>
      </trkpt>
      <trkpt lat="4.58927" lon="-75.158409">
        <ele>2628.0342</ele>
        <time>2021-11-14T15:01:49Z</time>
      </trkpt>
      <trkpt lat="4.58927" lon="-75.158409">
        <ele>2627.912</ele>
        <time>2021-11-14T15:01:50Z</time>
      </trkpt>
      <trkpt lat="4.589238" lon="-75.158386">
        <ele>2627.3577</ele>
        <time>2021-11-14T15:01:51Z</time>
      </trkpt>
      <trkpt lat="4.589234" lon="-75.158386">
        <ele>2626.4297</ele>
        <time>2021-11-14T15:01:52Z</time>
      </trkpt>
      <trkpt lat="4.589194" lon="-75.158356">
        <ele>2626.7754</ele>
        <time>2021-11-14T15:01:53Z</time>
      </trkpt>
      <trkpt lat="4.589164" lon="-75.158333">
        <ele>2626.5515</ele>
        <time>2021-11-14T15:01:54Z</time>
      </trkpt>
      <trkpt lat="4.589133" lon="-75.15831">
        <ele>2626.4119</ele>
        <time>2021-11-14T15:01:55Z</time>
      </trkpt>
      <trkpt lat="4.589107" lon="-75.158287">
        <ele>2626.2078</ele>
        <time>2021-11-14T15:01:56Z</time>
      </trkpt>
      <trkpt lat="4.58909" lon="-75.158264">
        <ele>2626.3093</ele>
        <time>2021-11-14T15:01:57Z</time>
      </trkpt>
      <trkpt lat="4.589062" lon="-75.158234">
        <ele>2625.8677</ele>
        <time>2021-11-14T15:01:58Z</time>
      </trkpt>
      <trkpt lat="4.589032" lon="-75.158218">
        <ele>2625.7683</ele>
        <time>2021-11-14T15:01:59Z</time>
      </trkpt>
      <trkpt lat="4.589" lon="-75.158218">
        <ele>2625.415</ele>
        <time>2021-11-14T15:02:00Z</time>
      </trkpt>
      <trkpt lat="4.588962" lon="-75.158234">
        <ele>2625.5867</ele>
        <time>2021-11-14T15:02:01Z</time>
      </trkpt>
      <trkpt lat="4.588929" lon="-75.158264">
        <ele>2625.5315</ele>
        <time>2021-11-14T15:02:02Z</time>
      </trkpt>
      <trkpt lat="4.588907" lon="-75.158287">
        <ele>2625.4478</ele>
        <time>2021-11-14T15:02:03Z</time>
      </trkpt>
      <trkpt lat="4.588871" lon="-75.158333">
        <ele>2624.7043</ele>
        <time>2021-11-14T15:02:04Z</time>
      </trkpt>
      <trkpt lat="4.588852" lon="-75.158356">
        <ele>2624.7207</ele>
        <time>2021-11-14T15:02:05Z</time>
      </trkpt>
      <trkpt lat="4.58884" lon="-75.158371">
        <ele>2624.6223</ele>
        <time>2021-11-14T15:02:06Z</time>
      </trkpt>
      <trkpt lat="4.588786" lon="-75.158394">
        <ele>2624.6833</ele>
        <time>2021-11-14T15:02:07Z</time>
      </trkpt>
      <trkpt lat="4.588771" lon="-75.158432">
        <ele>2623.943</ele>
        <time>2021-11-14T15:02:08Z</time>
      </trkpt>
      <trkpt lat="4.58875" lon="-75.158417">
        <ele>2623.5896</ele>
        <time>2021-11-14T15:02:09Z</time>
      </trkpt>
      <trkpt lat="4.588735" lon="-75.158401">
        <ele>2622.7812</ele>
        <time>2021-11-14T15:02:10Z</time>
      </trkpt>
      <trkpt lat="4.588712" lon="-75.158356">
        <ele>2621.9023</ele>
        <time>2021-11-14T15:02:11Z</time>
      </trkpt>
      <trkpt lat="4.588729" lon="-75.158379">
        <ele>2622.177</ele>
        <time>2021-11-14T15:02:12Z</time>
      </trkpt>
      <trkpt lat="4.588692" lon="-75.158333">
        <ele>2621.8857</ele>
        <time>2021-11-14T15:02:14Z</time>
      </trkpt>
      <trkpt lat="4.588704" lon="-75.158325">
        <ele>2621.818</ele>
        <time>2021-11-14T15:02:15Z</time>
      </trkpt>
      <trkpt lat="4.58871" lon="-75.158318">
        <ele>2621.315</ele>
        <time>2021-11-14T15:02:16Z</time>
      </trkpt>
      <trkpt lat="4.58871" lon="-75.158318">
        <ele>2621.1714</ele>
        <time>2021-11-14T15:02:17Z</time>
      </trkpt>
      <trkpt lat="4.588718" lon="-75.158264">
        <ele>2620.358</ele>
        <time>2021-11-14T15:02:18Z</time>
      </trkpt>
      <trkpt lat="4.588716" lon="-75.158279">
        <ele>2620.2905</ele>
        <time>2021-11-14T15:02:19Z</time>
      </trkpt>
      <trkpt lat="4.588725" lon="-75.158241">
        <ele>2620.158</ele>
        <time>2021-11-14T15:02:20Z</time>
      </trkpt>
      <trkpt lat="4.588731" lon="-75.158226">
        <ele>2619.773</ele>
        <time>2021-11-14T15:02:21Z</time>
      </trkpt>
      <trkpt lat="4.588731" lon="-75.158226">
        <ele>2619.1072</ele>
        <time>2021-11-14T15:02:22Z</time>
      </trkpt>
      <trkpt lat="4.588742" lon="-75.158211">
        <ele>2619.901</ele>
        <time>2021-11-14T15:02:23Z</time>
      </trkpt>
      <trkpt lat="4.588749" lon="-75.158188">
        <ele>2619.9333</ele>
        <time>2021-11-14T15:02:24Z</time>
      </trkpt>
      <trkpt lat="4.588758" lon="-75.15818">
        <ele>2620.003</ele>
        <time>2021-11-14T15:02:25Z</time>
      </trkpt>
      <trkpt lat="4.58878" lon="-75.15815">
        <ele>2621.1272</ele>
        <time>2021-11-14T15:02:26Z</time>
      </trkpt>
      <trkpt lat="4.58881" lon="-75.158104">
        <ele>2622.4543</ele>
        <time>2021-11-14T15:02:27Z</time>
      </trkpt>
      <trkpt lat="4.588831" lon="-75.158096">
        <ele>2622.5105</ele>
        <time>2021-11-14T15:02:28Z</time>
      </trkpt>
      <trkpt lat="4.588869" lon="-75.158051">
        <ele>2623.6938</ele>
        <time>2021-11-14T15:02:29Z</time>
      </trkpt>
      <trkpt lat="4.588878" lon="-75.158051">
        <ele>2623.7983</ele>
        <time>2021-11-14T15:02:30Z</time>
      </trkpt>
      <trkpt lat="4.588916" lon="-75.158005">
        <ele>2623.9043</ele>
        <time>2021-11-14T15:02:31Z</time>
      </trkpt>
      <trkpt lat="4.588938" lon="-75.157997">
        <ele>2624.3218</ele>
        <time>2021-11-14T15:02:32Z</time>
      </trkpt>
      <trkpt lat="4.588961" lon="-75.157982">
        <ele>2624.5952</ele>
        <time>2021-11-14T15:02:33Z</time>
      </trkpt>
      <trkpt lat="4.589002" lon="-75.157944">
        <ele>2623.3513</ele>
        <time>2021-11-14T15:02:34Z</time>
      </trkpt>
      <trkpt lat="4.589033" lon="-75.157913">
        <ele>2621.744</ele>
        <time>2021-11-14T15:02:35Z</time>
      </trkpt>
      <trkpt lat="4.589068" lon="-75.157875">
        <ele>2621.4443</ele>
        <time>2021-11-14T15:02:36Z</time>
      </trkpt>
      <trkpt lat="4.589155" lon="-75.157745">
        <ele>2621.995</ele>
        <time>2021-11-14T15:02:37Z</time>
      </trkpt>
      <trkpt lat="4.589157" lon="-75.157761">
        <ele>2621.4177</ele>
        <time>2021-11-14T15:02:38Z</time>
      </trkpt>
      <trkpt lat="4.589209" lon="-75.157661">
        <ele>2620.3901</ele>
        <time>2021-11-14T15:02:39Z</time>
      </trkpt>
      <trkpt lat="4.589206" lon="-75.157661">
        <ele>2620.7717</ele>
        <time>2021-11-14T15:02:40Z</time>
      </trkpt>
      <trkpt lat="4.589244" lon="-75.157616">
        <ele>2619.533</ele>
        <time>2021-11-14T15:02:41Z</time>
      </trkpt>
      <trkpt lat="4.58924" lon="-75.157585">
        <ele>2618.2026</ele>
        <time>2021-11-14T15:02:42Z</time>
      </trkpt>
      <trkpt lat="4.589256" lon="-75.157562">
        <ele>2616.145</ele>
        <time>2021-11-14T15:02:43Z</time>
      </trkpt>
      <trkpt lat="4.589244" lon="-75.157486">
        <ele>2614.993</ele>
        <time>2021-11-14T15:02:44Z</time>
      </trkpt>
      <trkpt lat="4.589251" lon="-75.157448">
        <ele>2614.606</ele>
        <time>2021-11-14T15:02:45Z</time>
      </trkpt>
      <trkpt lat="4.589258" lon="-75.157425">
        <ele>2614.4016</ele>
        <time>2021-11-14T15:02:46Z</time>
      </trkpt>
      <trkpt lat="4.589269" lon="-75.157394">
        <ele>2614.4792</ele>
        <time>2021-11-14T15:02:47Z</time>
      </trkpt>
      <trkpt lat="4.589276" lon="-75.157349">
        <ele>2613.908</ele>
        <time>2021-11-14T15:02:48Z</time>
      </trkpt>
      <trkpt lat="4.589276" lon="-75.157349">
        <ele>2614.3176</ele>
        <time>2021-11-14T15:02:49Z</time>
      </trkpt>
      <trkpt lat="4.589265" lon="-75.157333">
        <ele>2613.498</ele>
        <time>2021-11-14T15:02:50Z</time>
      </trkpt>
      <trkpt lat="4.589279" lon="-75.157295">
        <ele>2612.4229</ele>
        <time>2021-11-14T15:02:51Z</time>
      </trkpt>
      <trkpt lat="4.589282" lon="-75.157272">
        <ele>2611.892</ele>
        <time>2021-11-14T15:02:52Z</time>
      </trkpt>
      <trkpt lat="4.589302" lon="-75.157227">
        <ele>2610.6833</ele>
        <time>2021-11-14T15:02:53Z</time>
      </trkpt>
      <trkpt lat="4.589318" lon="-75.157211">
        <ele>2610.267</ele>
        <time>2021-11-14T15:02:54Z</time>
      </trkpt>
      <trkpt lat="4.589351" lon="-75.157166">
        <ele>2609.485</ele>
        <time>2021-11-14T15:02:55Z</time>
      </trkpt>
      <trkpt lat="4.589429" lon="-75.157112">
        <ele>2609.2827</ele>
        <time>2021-11-14T15:02:56Z</time>
      </trkpt>
      <trkpt lat="4.589485" lon="-75.157082">
        <ele>2607.445</ele>
        <time>2021-11-14T15:02:57Z</time>
      </trkpt>
      <trkpt lat="4.589488" lon="-75.157059">
        <ele>2606.163</ele>
        <time>2021-11-14T15:02:58Z</time>
      </trkpt>
      <trkpt lat="4.589506" lon="-75.157021">
        <ele>2604.9841</ele>
        <time>2021-11-14T15:02:59Z</time>
      </trkpt>
      <trkpt lat="4.589526" lon="-75.156944">
        <ele>2604.9524</ele>
        <time>2021-11-14T15:03:00Z</time>
      </trkpt>
      <trkpt lat="4.589539" lon="-75.156868">
        <ele>2603.7483</ele>
        <time>2021-11-14T15:03:01Z</time>
      </trkpt>
      <trkpt lat="4.589565" lon="-75.156784">
        <ele>2602.6086</ele>
        <time>2021-11-14T15:03:02Z</time>
      </trkpt>
      <trkpt lat="4.589609" lon="-75.156708">
        <ele>2601.1565</ele>
        <time>2021-11-14T15:03:03Z</time>
      </trkpt>
      <trkpt lat="4.589648" lon="-75.156654">
        <ele>2599.4045</ele>
        <time>2021-11-14T15:03:04Z</time>
      </trkpt>
      <trkpt lat="4.589666" lon="-75.156624">
        <ele>2598.3286</ele>
        <time>2021-11-14T15:03:05Z</time>
      </trkpt>
      <trkpt lat="4.589694" lon="-75.156578">
        <ele>2596.7227</ele>
        <time>2021-11-14T15:03:06Z</time>
      </trkpt>
      <trkpt lat="4.589731" lon="-75.156502">
        <ele>2596.416</ele>
        <time>2021-11-14T15:03:07Z</time>
      </trkpt>
      <trkpt lat="4.58975" lon="-75.156433">
        <ele>2595.2725</ele>
        <time>2021-11-14T15:03:08Z</time>
      </trkpt>
      <trkpt lat="4.589739" lon="-75.156403">
        <ele>2595.3787</ele>
        <time>2021-11-14T15:03:09Z</time>
      </trkpt>
      <trkpt lat="4.589722" lon="-75.156342">
        <ele>2594.8857</ele>
        <time>2021-11-14T15:03:10Z</time>
      </trkpt>
      <trkpt lat="4.589691" lon="-75.156288">
        <ele>2594.2896</ele>
        <time>2021-11-14T15:03:11Z</time>
      </trkpt>
      <trkpt lat="4.589669" lon="-75.156212">
        <ele>2593.4229</ele>
        <time>2021-11-14T15:03:12Z</time>
      </trkpt>
      <trkpt lat="4.589657" lon="-75.156151">
        <ele>2593.0085</ele>
        <time>2021-11-14T15:03:13Z</time>
      </trkpt>
      <trkpt lat="4.589662" lon="-75.156113">
        <ele>2591.9417</ele>
        <time>2021-11-14T15:03:14Z</time>
      </trkpt>
      <trkpt lat="4.58967" lon="-75.156059">
        <ele>2591.7063</ele>
        <time>2021-11-14T15:03:15Z</time>
      </trkpt>
      <trkpt lat="4.589705" lon="-75.156036">
        <ele>2590.867</ele>
        <time>2021-11-14T15:03:16Z</time>
      </trkpt>
      <trkpt lat="4.589735" lon="-75.156021">
        <ele>2590.0083</ele>
        <time>2021-11-14T15:03:17Z</time>
      </trkpt>
      <trkpt lat="4.589762" lon="-75.155998">
        <ele>2589.688</ele>
        <time>2021-11-14T15:03:18Z</time>
      </trkpt>
      <trkpt lat="4.5898" lon="-75.155998">
        <ele>2589.2302</ele>
        <time>2021-11-14T15:03:19Z</time>
      </trkpt>
      <trkpt lat="4.589854" lon="-75.155998">
        <ele>2588.4795</ele>
        <time>2021-11-14T15:03:20Z</time>
      </trkpt>
      <trkpt lat="4.589895" lon="-75.156013">
        <ele>2588.0054</ele>
        <time>2021-11-14T15:03:21Z</time>
      </trkpt>
      <trkpt lat="4.589954" lon="-75.156036">
        <ele>2587.4597</ele>
        <time>2021-11-14T15:03:23Z</time>
      </trkpt>
      <trkpt lat="4.590011" lon="-75.156036">
        <ele>2586.6853</ele>
        <time>2021-11-14T15:03:24Z</time>
      </trkpt>
      <trkpt lat="4.590039" lon="-75.155998">
        <ele>2585.6025</ele>
        <time>2021-11-14T15:03:25Z</time>
      </trkpt>
      <trkpt lat="4.590057" lon="-75.155952">
        <ele>2584.689</ele>
        <time>2021-11-14T15:03:26Z</time>
      </trkpt>
      <trkpt lat="4.590072" lon="-75.155899">
        <ele>2583.9277</ele>
        <time>2021-11-14T15:03:27Z</time>
      </trkpt>
      <trkpt lat="4.59009" lon="-75.155823">
        <ele>2583.455</ele>
        <time>2021-11-14T15:03:28Z</time>
      </trkpt>
      <trkpt lat="4.590091" lon="-75.155754">
        <ele>2582.1472</ele>
        <time>2021-11-14T15:03:29Z</time>
      </trkpt>
      <trkpt lat="4.590111" lon="-75.155685">
        <ele>2581.8152</ele>
        <time>2021-11-14T15:03:30Z</time>
      </trkpt>
      <trkpt lat="4.590132" lon="-75.155617">
        <ele>2581.1516</ele>
        <time>2021-11-14T15:03:31Z</time>
      </trkpt>
      <trkpt lat="4.590158" lon="-75.155563">
        <ele>2580.4038</ele>
        <time>2021-11-14T15:03:32Z</time>
      </trkpt>
      <trkpt lat="4.590176" lon="-75.155533">
        <ele>2580.9407</ele>
        <time>2021-11-14T15:03:33Z</time>
      </trkpt>
      <trkpt lat="4.590204" lon="-75.155441">
        <ele>2580.2432</ele>
        <time>2021-11-14T15:03:34Z</time>
      </trkpt>
      <trkpt lat="4.590223" lon="-75.155357">
        <ele>2579.5762</ele>
        <time>2021-11-14T15:03:35Z</time>
      </trkpt>
      <trkpt lat="4.590222" lon="-75.155312">
        <ele>2578.9421</ele>
        <time>2021-11-14T15:03:36Z</time>
      </trkpt>
      <trkpt lat="4.590231" lon="-75.155251">
        <ele>2578.4556</ele>
        <time>2021-11-14T15:03:37Z</time>
      </trkpt>
      <trkpt lat="4.590252" lon="-75.155174">
        <ele>2578.564</ele>
        <time>2021-11-14T15:03:38Z</time>
      </trkpt>
      <trkpt lat="4.590272" lon="-75.155144">
        <ele>2577.36</ele>
        <time>2021-11-14T15:03:39Z</time>
      </trkpt>
      <trkpt lat="4.590311" lon="-75.155075">
        <ele>2577.0093</ele>
        <time>2021-11-14T15:03:40Z</time>
      </trkpt>
      <trkpt lat="4.590338" lon="-75.155014">
        <ele>2575.941</ele>
        <time>2021-11-14T15:03:41Z</time>
      </trkpt>
      <trkpt lat="4.59035" lon="-75.154976">
        <ele>2575.2642</ele>
        <time>2021-11-14T15:03:42Z</time>
      </trkpt>
      <trkpt lat="4.590344" lon="-75.154907">
        <ele>2574.7205</ele>
        <time>2021-11-14T15:03:43Z</time>
      </trkpt>
      <trkpt lat="4.590317" lon="-75.154846">
        <ele>2574.75</ele>
        <time>2021-11-14T15:03:44Z</time>
      </trkpt>
      <trkpt lat="4.590317" lon="-75.154846">
        <ele>2575.5908</ele>
        <time>2021-11-14T15:03:45Z</time>
      </trkpt>
      <trkpt lat="4.590305" lon="-75.154816">
        <ele>2575.5618</ele>
        <time>2021-11-14T15:03:46Z</time>
      </trkpt>
      <trkpt lat="4.590327" lon="-75.154747">
        <ele>2575.2437</ele>
        <time>2021-11-14T15:03:47Z</time>
      </trkpt>
      <trkpt lat="4.590351" lon="-75.154716">
        <ele>2574.267</ele>
        <time>2021-11-14T15:03:48Z</time>
      </trkpt>
      <trkpt lat="4.590388" lon="-75.154701">
        <ele>2574.075</ele>
        <time>2021-11-14T15:03:49Z</time>
      </trkpt>
      <trkpt lat="4.590473" lon="-75.154655">
        <ele>2573.499</ele>
        <time>2021-11-14T15:03:50Z</time>
      </trkpt>
      <trkpt lat="4.590554" lon="-75.154617">
        <ele>2572.3406</ele>
        <time>2021-11-14T15:03:51Z</time>
      </trkpt>
      <trkpt lat="4.590601" lon="-75.154572">
        <ele>2571.369</ele>
        <time>2021-11-14T15:03:52Z</time>
      </trkpt>
      <trkpt lat="4.590597" lon="-75.154526">
        <ele>2570.3652</ele>
        <time>2021-11-14T15:03:53Z</time>
      </trkpt>
      <trkpt lat="4.590625" lon="-75.154449">
        <ele>2569.5085</ele>
        <time>2021-11-14T15:03:54Z</time>
      </trkpt>
      <trkpt lat="4.590671" lon="-75.154373">
        <ele>2568.72</ele>
        <time>2021-11-14T15:03:55Z</time>
      </trkpt>
      <trkpt lat="4.590711" lon="-75.154327">
        <ele>2568.0935</ele>
        <time>2021-11-14T15:03:56Z</time>
      </trkpt>
      <trkpt lat="4.590753" lon="-75.154297">
        <ele>2567.5374</ele>
        <time>2021-11-14T15:03:57Z</time>
      </trkpt>
      <trkpt lat="4.590802" lon="-75.154243">
        <ele>2566.8943</ele>
        <time>2021-11-14T15:03:58Z</time>
      </trkpt>
      <trkpt lat="4.590829" lon="-75.154198">
        <ele>2566.7788</ele>
        <time>2021-11-14T15:03:59Z</time>
      </trkpt>
      <trkpt lat="4.590883" lon="-75.154129">
        <ele>2565.5427</ele>
        <time>2021-11-14T15:04:00Z</time>
      </trkpt>
      <trkpt lat="4.590912" lon="-75.154083">
        <ele>2565.488</ele>
        <time>2021-11-14T15:04:01Z</time>
      </trkpt>
      <trkpt lat="4.590915" lon="-75.154045">
        <ele>2564.8286</ele>
        <time>2021-11-14T15:04:02Z</time>
      </trkpt>
      <trkpt lat="4.590945" lon="-75.153976">
        <ele>2563.977</ele>
        <time>2021-11-14T15:04:03Z</time>
      </trkpt>
      <trkpt lat="4.590969" lon="-75.153938">
        <ele>2563.424</ele>
        <time>2021-11-14T15:04:04Z</time>
      </trkpt>
      <trkpt lat="4.591001" lon="-75.153938">
        <ele>2563.3147</ele>
        <time>2021-11-14T15:04:05Z</time>
      </trkpt>
      <trkpt lat="4.591023" lon="-75.153931">
        <ele>2562.2388</ele>
        <time>2021-11-14T15:04:06Z</time>
      </trkpt>
      <trkpt lat="4.591064" lon="-75.153969">
        <ele>2562.194</ele>
        <time>2021-11-14T15:04:07Z</time>
      </trkpt>
      <trkpt lat="4.591048" lon="-75.154007">
        <ele>2562.0718</ele>
        <time>2021-11-14T15:04:08Z</time>
      </trkpt>
      <trkpt lat="4.591057" lon="-75.154091">
        <ele>2561.7021</ele>
        <time>2021-11-14T15:04:09Z</time>
      </trkpt>
      <trkpt lat="4.59103" lon="-75.154099">
        <ele>2560.84</ele>
        <time>2021-11-14T15:04:10Z</time>
      </trkpt>
      <trkpt lat="4.590888" lon="-75.154243">
        <ele>2560.7334</ele>
        <time>2021-11-14T15:04:11Z</time>
      </trkpt>
      <trkpt lat="4.590888" lon="-75.154243">
        <ele>2559.5056</ele>
        <time>2021-11-14T15:04:12Z</time>
      </trkpt>
      <trkpt lat="4.59089" lon="-75.154297">
        <ele>2559.3125</ele>
        <time>2021-11-14T15:04:13Z</time>
      </trkpt>
      <trkpt lat="4.590843" lon="-75.154343">
        <ele>2558.4724</ele>
        <time>2021-11-14T15:04:14Z</time>
      </trkpt>
      <trkpt lat="4.590822" lon="-75.154381">
        <ele>2557.8542</ele>
        <time>2021-11-14T15:04:15Z</time>
      </trkpt>
      <trkpt lat="4.590813" lon="-75.154442">
        <ele>2558.1123</ele>
        <time>2021-11-14T15:04:16Z</time>
      </trkpt>
      <trkpt lat="4.59082" lon="-75.15451">
        <ele>2558.5356</ele>
        <time>2021-11-14T15:04:17Z</time>
      </trkpt>
      <trkpt lat="4.590824" lon="-75.154564">
        <ele>2556.9092</ele>
        <time>2021-11-14T15:04:18Z</time>
      </trkpt>
      <trkpt lat="4.590822" lon="-75.15461">
        <ele>2557.089</ele>
        <time>2021-11-14T15:04:19Z</time>
      </trkpt>
      <trkpt lat="4.590804" lon="-75.154655">
        <ele>2556.2021</ele>
        <time>2021-11-14T15:04:20Z</time>
      </trkpt>
      <trkpt lat="4.590763" lon="-75.154709">
        <ele>2556.5789</ele>
        <time>2021-11-14T15:04:21Z</time>
      </trkpt>
      <trkpt lat="4.590718" lon="-75.154739">
        <ele>2556.73</ele>
        <time>2021-11-14T15:04:23Z</time>
      </trkpt>
      <trkpt lat="4.590707" lon="-75.154778">
        <ele>2557.0078</ele>
        <time>2021-11-14T15:04:24Z</time>
      </trkpt>
      <trkpt lat="4.590705" lon="-75.154808">
        <ele>2557.0024</ele>
        <time>2021-11-14T15:04:25Z</time>
      </trkpt>
      <trkpt lat="4.590707" lon="-75.154831">
        <ele>2556.1272</ele>
        <time>2021-11-14T15:04:26Z</time>
      </trkpt>
      <trkpt lat="4.590659" lon="-75.154854">
        <ele>2555.4197</ele>
        <time>2021-11-14T15:04:27Z</time>
      </trkpt>
      <trkpt lat="4.590654" lon="-75.154892">
        <ele>2554.7175</ele>
        <time>2021-11-14T15:04:28Z</time>
      </trkpt>
      <trkpt lat="4.590652" lon="-75.1549">
        <ele>2554.8262</ele>
        <time>2021-11-14T15:04:29Z</time>
      </trkpt>
      <trkpt lat="4.590649" lon="-75.15493">
        <ele>2555.0652</ele>
        <time>2021-11-14T15:04:30Z</time>
      </trkpt>
      <trkpt lat="4.590645" lon="-75.154938">
        <ele>2553.3433</ele>
        <time>2021-11-14T15:04:31Z</time>
      </trkpt>
      <trkpt lat="4.590688" lon="-75.154999">
        <ele>2552.6272</ele>
        <time>2021-11-14T15:04:32Z</time>
      </trkpt>
      <trkpt lat="4.59064" lon="-75.155037">
        <ele>2553.6558</ele>
        <time>2021-11-14T15:04:33Z</time>
      </trkpt>
      <trkpt lat="4.590669" lon="-75.15506">
        <ele>2554.4072</ele>
        <time>2021-11-14T15:04:34Z</time>
      </trkpt>
      <trkpt lat="4.590676" lon="-75.155067">
        <ele>2553.6682</ele>
        <time>2021-11-14T15:04:35Z</time>
      </trkpt>
      <trkpt lat="4.590696" lon="-75.155106">
        <ele>2553.3542</ele>
        <time>2021-11-14T15:04:36Z</time>
      </trkpt>
      <trkpt lat="4.590715" lon="-75.155151">
        <ele>2553.9102</ele>
        <time>2021-11-14T15:04:37Z</time>
      </trkpt>
      <trkpt lat="4.590776" lon="-75.155251">
        <ele>2553.3613</ele>
        <time>2021-11-14T15:04:38Z</time>
      </trkpt>
      <trkpt lat="4.590788" lon="-75.155266">
        <ele>2552.4495</ele>
        <time>2021-11-14T15:04:39Z</time>
      </trkpt>
      <trkpt lat="4.590787" lon="-75.155289">
        <ele>2552.0996</ele>
        <time>2021-11-14T15:04:40Z</time>
      </trkpt>
      <trkpt lat="4.590787" lon="-75.155289">
        <ele>2551.912</ele>
        <time>2021-11-14T15:04:41Z</time>
      </trkpt>
      <trkpt lat="4.590783" lon="-75.155365">
        <ele>2553.0378</ele>
        <time>2021-11-14T15:04:42Z</time>
      </trkpt>
      <trkpt lat="4.590764" lon="-75.155441">
        <ele>2551.8374</ele>
        <time>2021-11-14T15:04:43Z</time>
      </trkpt>
      <trkpt lat="4.590743" lon="-75.155487">
        <ele>2551.763</ele>
        <time>2021-11-14T15:04:44Z</time>
      </trkpt>
      <trkpt lat="4.590713" lon="-75.155579">
        <ele>2552.0176</ele>
        <time>2021-11-14T15:04:45Z</time>
      </trkpt>
      <trkpt lat="4.590693" lon="-75.155655">
        <ele>2551.102</ele>
        <time>2021-11-14T15:04:46Z</time>
      </trkpt>
      <trkpt lat="4.590707" lon="-75.155678">
        <ele>2549.9531</ele>
        <time>2021-11-14T15:04:47Z</time>
      </trkpt>
      <trkpt lat="4.590734" lon="-75.155739">
        <ele>2549.5518</ele>
        <time>2021-11-14T15:04:48Z</time>
      </trkpt>
      <trkpt lat="4.590768" lon="-75.155815">
        <ele>2548.0652</ele>
        <time>2021-11-14T15:04:49Z</time>
      </trkpt>
      <trkpt lat="4.590784" lon="-75.155846">
        <ele>2548.4219</ele>
        <time>2021-11-14T15:04:50Z</time>
      </trkpt>
      <trkpt lat="4.59079" lon="-75.155891">
        <ele>2546.6553</ele>
        <time>2021-11-14T15:04:51Z</time>
      </trkpt>
      <trkpt lat="4.590795" lon="-75.155899">
        <ele>2546.4243</ele>
        <time>2021-11-14T15:04:52Z</time>
      </trkpt>
      <trkpt lat="4.590805" lon="-75.155945">
        <ele>2546.1328</ele>
        <time>2021-11-14T15:04:53Z</time>
      </trkpt>
      <trkpt lat="4.590815" lon="-75.155945">
        <ele>2545.9326</ele>
        <time>2021-11-14T15:04:54Z</time>
      </trkpt>
      <trkpt lat="4.590812" lon="-75.155945">
        <ele>2545.5522</ele>
        <time>2021-11-14T15:04:55Z</time>
      </trkpt>
      <trkpt lat="4.590821" lon="-75.156006">
        <ele>2544.727</ele>
        <time>2021-11-14T15:04:56Z</time>
      </trkpt>
      <trkpt lat="4.590817" lon="-75.156029">
        <ele>2544.2747</ele>
        <time>2021-11-14T15:04:57Z</time>
      </trkpt>
      <trkpt lat="4.590818" lon="-75.156029">
        <ele>2544.612</ele>
        <time>2021-11-14T15:04:58Z</time>
      </trkpt>
      <trkpt lat="4.590811" lon="-75.156059">
        <ele>2543.5535</ele>
        <time>2021-11-14T15:04:59Z</time>
      </trkpt>
      <trkpt lat="4.590806" lon="-75.156075">
        <ele>2542.95</ele>
        <time>2021-11-14T15:05:00Z</time>
      </trkpt>
      <trkpt lat="4.590802" lon="-75.15609">
        <ele>2544.1633</ele>
        <time>2021-11-14T15:05:01Z</time>
      </trkpt>
      <trkpt lat="4.59079" lon="-75.156128">
        <ele>2542.9397</ele>
        <time>2021-11-14T15:05:02Z</time>
      </trkpt>
      <trkpt lat="4.590789" lon="-75.156158">
        <ele>2542.9785</ele>
        <time>2021-11-14T15:05:03Z</time>
      </trkpt>
      <trkpt lat="4.590796" lon="-75.156128">
        <ele>2542.6191</ele>
        <time>2021-11-14T15:05:04Z</time>
      </trkpt>
      <trkpt lat="4.590796" lon="-75.156128">
        <ele>2542.331</ele>
        <time>2021-11-14T15:05:05Z</time>
      </trkpt>
      <trkpt lat="4.590797" lon="-75.156136">
        <ele>2541.9565</ele>
        <time>2021-11-14T15:05:06Z</time>
      </trkpt>
      <trkpt lat="4.590798" lon="-75.156151">
        <ele>2542.459</ele>
        <time>2021-11-14T15:05:07Z</time>
      </trkpt>
      <trkpt lat="4.590808" lon="-75.156181">
        <ele>2542.477</ele>
        <time>2021-11-14T15:05:08Z</time>
      </trkpt>
      <trkpt lat="4.59083" lon="-75.156204">
        <ele>2542.5652</ele>
        <time>2021-11-14T15:05:09Z</time>
      </trkpt>
      <trkpt lat="4.590851" lon="-75.156219">
        <ele>2542.3577</ele>
        <time>2021-11-14T15:05:10Z</time>
      </trkpt>
      <trkpt lat="4.590873" lon="-75.156227">
        <ele>2542.7559</ele>
        <time>2021-11-14T15:05:11Z</time>
      </trkpt>
      <trkpt lat="4.590897" lon="-75.156227">
        <ele>2542.3228</ele>
        <time>2021-11-14T15:05:12Z</time>
      </trkpt>
      <trkpt lat="4.590914" lon="-75.156227">
        <ele>2542.5461</ele>
        <time>2021-11-14T15:05:13Z</time>
      </trkpt>
      <trkpt lat="4.590919" lon="-75.156235">
        <ele>2542.1802</ele>
        <time>2021-11-14T15:05:14Z</time>
      </trkpt>
      <trkpt lat="4.590922" lon="-75.156235">
        <ele>2542.0024</ele>
        <time>2021-11-14T15:05:15Z</time>
      </trkpt>
      <trkpt lat="4.590927" lon="-75.156242">
        <ele>2541.7742</ele>
        <time>2021-11-14T15:05:16Z</time>
      </trkpt>
      <trkpt lat="4.590926" lon="-75.156242">
        <ele>2541.7673</ele>
        <time>2021-11-14T15:05:17Z</time>
      </trkpt>
      <trkpt lat="4.590926" lon="-75.15625">
        <ele>2542.2534</ele>
        <time>2021-11-14T15:05:18Z</time>
      </trkpt>
      <trkpt lat="4.590926" lon="-75.15625">
        <ele>2542.515</ele>
        <time>2021-11-14T15:05:19Z</time>
      </trkpt>
      <trkpt lat="4.590927" lon="-75.15625">
        <ele>2542.8096</ele>
        <time>2021-11-14T15:05:20Z</time>
      </trkpt>
      <trkpt lat="4.590928" lon="-75.156258">
        <ele>2543.114</ele>
        <time>2021-11-14T15:05:21Z</time>
      </trkpt>
      <trkpt lat="4.59093" lon="-75.156258">
        <ele>2543.3748</ele>
        <time>2021-11-14T15:05:22Z</time>
      </trkpt>
      <trkpt lat="4.590931" lon="-75.156258">
        <ele>2543.467</ele>
        <time>2021-11-14T15:05:24Z</time>
      </trkpt>
      <trkpt lat="4.590933" lon="-75.156258">
        <ele>2543.4497</ele>
        <time>2021-11-14T15:05:25Z</time>
      </trkpt>
      <trkpt lat="4.590933" lon="-75.156258">
        <ele>2543.5305</ele>
        <time>2021-11-14T15:05:26Z</time>
      </trkpt>
      <trkpt lat="4.590934" lon="-75.156258">
        <ele>2543.561</ele>
        <time>2021-11-14T15:05:27Z</time>
      </trkpt>
      <trkpt lat="4.590934" lon="-75.156258">
        <ele>2543.5217</ele>
        <time>2021-11-14T15:05:28Z</time>
      </trkpt>
      <trkpt lat="4.590934" lon="-75.156258">
        <ele>2543.4456</ele>
        <time>2021-11-14T15:05:29Z</time>
      </trkpt>
      <trkpt lat="4.590936" lon="-75.156258">
        <ele>2543.4417</ele>
        <time>2021-11-14T15:05:30Z</time>
      </trkpt>
      <trkpt lat="4.590938" lon="-75.156258">
        <ele>2543.0251</ele>
        <time>2021-11-14T15:05:31Z</time>
      </trkpt>
      <trkpt lat="4.590939" lon="-75.156258">
        <ele>2543.0044</ele>
        <time>2021-11-14T15:05:32Z</time>
      </trkpt>
      <trkpt lat="4.590941" lon="-75.156258">
        <ele>2542.84</ele>
        <time>2021-11-14T15:05:33Z</time>
      </trkpt>
      <trkpt lat="4.590942" lon="-75.156258">
        <ele>2543.2673</ele>
        <time>2021-11-14T15:05:34Z</time>
      </trkpt>
      <trkpt lat="4.590942" lon="-75.156258">
        <ele>2543.2634</ele>
        <time>2021-11-14T15:05:35Z</time>
      </trkpt>
      <trkpt lat="4.590942" lon="-75.156258">
        <ele>2543.3264</ele>
        <time>2021-11-14T15:05:36Z</time>
      </trkpt>
      <trkpt lat="4.590942" lon="-75.156258">
        <ele>2543.064</ele>
        <time>2021-11-14T15:05:37Z</time>
      </trkpt>
      <trkpt lat="4.591024" lon="-75.156593">
        <ele>2543.002</ele>
        <time>2021-11-14T15:08:03Z</time>
      </trkpt>
      <trkpt lat="4.59097" lon="-75.156639">
        <ele>2539.7793</ele>
        <time>2021-11-14T15:08:04Z</time>
      </trkpt>
      <trkpt lat="4.590967" lon="-75.156647">
        <ele>2539.113</ele>
        <time>2021-11-14T15:08:05Z</time>
      </trkpt>
      <trkpt lat="4.590942" lon="-75.15667">
        <ele>2539.863</ele>
        <time>2021-11-14T15:08:06Z</time>
      </trkpt>
      <trkpt lat="4.590905" lon="-75.15667">
        <ele>2539.546</ele>
        <time>2021-11-14T15:08:07Z</time>
      </trkpt>
      <trkpt lat="4.590929" lon="-75.156662">
        <ele>2538.593</ele>
        <time>2021-11-14T15:08:08Z</time>
      </trkpt>
      <trkpt lat="4.590918" lon="-75.156693">
        <ele>2538.7686</ele>
        <time>2021-11-14T15:08:09Z</time>
      </trkpt>
      <trkpt lat="4.590908" lon="-75.156693">
        <ele>2538.7927</ele>
        <time>2021-11-14T15:08:10Z</time>
      </trkpt>
      <trkpt lat="4.590905" lon="-75.156685">
        <ele>2539.4333</ele>
        <time>2021-11-14T15:08:11Z</time>
      </trkpt>
      <trkpt lat="4.590907" lon="-75.156685">
        <ele>2540.1355</ele>
        <time>2021-11-14T15:08:12Z</time>
      </trkpt>
      <trkpt lat="4.59091" lon="-75.156685">
        <ele>2538.9045</ele>
        <time>2021-11-14T15:08:13Z</time>
      </trkpt>
      <trkpt lat="4.590912" lon="-75.156685">
        <ele>2538.1497</ele>
        <time>2021-11-14T15:08:14Z</time>
      </trkpt>
      <trkpt lat="4.590913" lon="-75.156685">
        <ele>2538.5193</ele>
        <time>2021-11-14T15:08:15Z</time>
      </trkpt>
      <trkpt lat="4.590914" lon="-75.156677">
        <ele>2538.8918</ele>
        <time>2021-11-14T15:08:16Z</time>
      </trkpt>
      <trkpt lat="4.590913" lon="-75.156677">
        <ele>2538.8372</ele>
        <time>2021-11-14T15:08:17Z</time>
      </trkpt>
      <trkpt lat="4.590912" lon="-75.156677">
        <ele>2538.9038</ele>
        <time>2021-11-14T15:08:18Z</time>
      </trkpt>
      <trkpt lat="4.59091" lon="-75.156677">
        <ele>2538.932</ele>
        <time>2021-11-14T15:08:19Z</time>
      </trkpt>
      <trkpt lat="4.59091" lon="-75.156677">
        <ele>2539.0518</ele>
        <time>2021-11-14T15:08:20Z</time>
      </trkpt>
      <trkpt lat="4.590908" lon="-75.156677">
        <ele>2539.1025</ele>
        <time>2021-11-14T15:08:21Z</time>
      </trkpt>
      <trkpt lat="4.590908" lon="-75.156677">
        <ele>2539.3684</ele>
        <time>2021-11-14T15:08:22Z</time>
      </trkpt>
      <trkpt lat="4.590909" lon="-75.156677">
        <ele>2539.5288</ele>
        <time>2021-11-14T15:08:23Z</time>
      </trkpt>
      <trkpt lat="4.59091" lon="-75.15667">
        <ele>2539.637</ele>
        <time>2021-11-14T15:08:24Z</time>
      </trkpt>
      <trkpt lat="4.590911" lon="-75.15667">
        <ele>2539.514</ele>
        <time>2021-11-14T15:08:25Z</time>
      </trkpt>
      <trkpt lat="4.590911" lon="-75.15667">
        <ele>2539.5173</ele>
        <time>2021-11-14T15:08:26Z</time>
      </trkpt>
      <trkpt lat="4.590911" lon="-75.15667">
        <ele>2539.5159</ele>
        <time>2021-11-14T15:08:27Z</time>
      </trkpt>
      <trkpt lat="4.590911" lon="-75.15667">
        <ele>2539.564</ele>
        <time>2021-11-14T15:08:28Z</time>
      </trkpt>
      <trkpt lat="4.590912" lon="-75.15667">
        <ele>2539.639</ele>
        <time>2021-11-14T15:08:29Z</time>
      </trkpt>
      <trkpt lat="4.590912" lon="-75.15667">
        <ele>2539.731</ele>
        <time>2021-11-14T15:08:30Z</time>
      </trkpt>
      <trkpt lat="4.590912" lon="-75.15667">
        <ele>2539.9194</ele>
        <time>2021-11-14T15:08:31Z</time>
      </trkpt>
      <trkpt lat="4.590912" lon="-75.156677">
        <ele>2540.1553</ele>
        <time>2021-11-14T15:08:33Z</time>
      </trkpt>
      <trkpt lat="4.590914" lon="-75.156677">
        <ele>2540.645</ele>
        <time>2021-11-14T15:08:34Z</time>
      </trkpt>
      <trkpt lat="4.590914" lon="-75.156677">
        <ele>2540.9963</ele>
        <time>2021-11-14T15:08:35Z</time>
      </trkpt>
      <trkpt lat="4.590919" lon="-75.156677">
        <ele>2541.3108</ele>
        <time>2021-11-14T15:08:36Z</time>
      </trkpt>
      <trkpt lat="4.59092" lon="-75.156677">
        <ele>2541.3108</ele>
        <time>2021-11-14T15:08:37Z</time>
      </trkpt>
      <trkpt lat="4.590921" lon="-75.156677">
        <ele>2541.3247</ele>
        <time>2021-11-14T15:08:38Z</time>
      </trkpt>
      <trkpt lat="4.590922" lon="-75.156677">
        <ele>2541.3687</ele>
        <time>2021-11-14T15:08:40Z</time>
      </trkpt>
      <trkpt lat="4.590922" lon="-75.156677">
        <ele>2541.3901</ele>
        <time>2021-11-14T15:08:41Z</time>
      </trkpt>
      <trkpt lat="4.590922" lon="-75.156677">
        <ele>2541.38</ele>
        <time>2021-11-14T15:08:42Z</time>
      </trkpt>
      <trkpt lat="4.590922" lon="-75.156677">
        <ele>2541.38</ele>
        <time>2021-11-14T15:08:43Z</time>
      </trkpt>
      <trkpt lat="4.590921" lon="-75.156677">
        <ele>2542.5671</ele>
        <time>2021-11-14T15:08:44Z</time>
      </trkpt>
      <trkpt lat="4.590923" lon="-75.156693">
        <ele>2542.617</ele>
        <time>2021-11-14T15:08:45Z</time>
      </trkpt>
      <trkpt lat="4.590933" lon="-75.156738">
        <ele>2540.3218</ele>
        <time>2021-11-14T15:08:46Z</time>
      </trkpt>
      <trkpt lat="4.590932" lon="-75.156746">
        <ele>2540.8894</ele>
        <time>2021-11-14T15:08:47Z</time>
      </trkpt>
      <trkpt lat="4.590929" lon="-75.156807">
        <ele>2541.1755</ele>
        <time>2021-11-14T15:08:48Z</time>
      </trkpt>
      <trkpt lat="4.590922" lon="-75.156837">
        <ele>2542.4124</ele>
        <time>2021-11-14T15:08:49Z</time>
      </trkpt>
      <trkpt lat="4.590917" lon="-75.156898">
        <ele>2542.423</ele>
        <time>2021-11-14T15:08:50Z</time>
      </trkpt>
      <trkpt lat="4.590945" lon="-75.156944">
        <ele>2542.8972</ele>
        <time>2021-11-14T15:08:51Z</time>
      </trkpt>
      <trkpt lat="4.591002" lon="-75.157059">
        <ele>2543.19</ele>
        <time>2021-11-14T15:08:52Z</time>
      </trkpt>
      <trkpt lat="4.590997" lon="-75.157059">
        <ele>2542.4817</ele>
        <time>2021-11-14T15:08:53Z</time>
      </trkpt>
      <trkpt lat="4.590998" lon="-75.157089">
        <ele>2544.2893</ele>
        <time>2021-11-14T15:08:54Z</time>
      </trkpt>
      <trkpt lat="4.591036" lon="-75.157173">
        <ele>2545.2612</ele>
        <time>2021-11-14T15:08:55Z</time>
      </trkpt>
      <trkpt lat="4.5911" lon="-75.157181">
        <ele>2546.1057</ele>
        <time>2021-11-14T15:08:56Z</time>
      </trkpt>
      <trkpt lat="4.591134" lon="-75.157204">
        <ele>2546.0852</ele>
        <time>2021-11-14T15:08:57Z</time>
      </trkpt>
      <trkpt lat="4.591156" lon="-75.157257">
        <ele>2547.2578</ele>
        <time>2021-11-14T15:08:58Z</time>
      </trkpt>
      <trkpt lat="4.591161" lon="-75.157265">
        <ele>2546.0955</ele>
        <time>2021-11-14T15:08:59Z</time>
      </trkpt>
      <trkpt lat="4.591143" lon="-75.157234">
        <ele>2544.9392</ele>
        <time>2021-11-14T15:09:00Z</time>
      </trkpt>
      <trkpt lat="4.591176" lon="-75.157211">
        <ele>2543.812</ele>
        <time>2021-11-14T15:09:01Z</time>
      </trkpt>
      <trkpt lat="4.591236" lon="-75.157127">
        <ele>2540.3472</ele>
        <time>2021-11-14T15:09:02Z</time>
      </trkpt>
      <trkpt lat="4.591258" lon="-75.157066">
        <ele>2538.0051</ele>
        <time>2021-11-14T15:09:03Z</time>
      </trkpt>
      <trkpt lat="4.591282" lon="-75.157066">
        <ele>2538.9548</ele>
        <time>2021-11-14T15:09:04Z</time>
      </trkpt>
      <trkpt lat="4.591346" lon="-75.157043">
        <ele>2537.534</ele>
        <time>2021-11-14T15:09:05Z</time>
      </trkpt>
      <trkpt lat="4.591396" lon="-75.157059">
        <ele>2536.5425</ele>
        <time>2021-11-14T15:09:06Z</time>
      </trkpt>
      <trkpt lat="4.591465" lon="-75.157097">
        <ele>2536.5425</ele>
        <time>2021-11-14T15:09:07Z</time>
      </trkpt>
      <trkpt lat="4.591536" lon="-75.15715">
        <ele>2533.6418</ele>
        <time>2021-11-14T15:09:08Z</time>
      </trkpt>
      <trkpt lat="4.5916" lon="-75.157234">
        <ele>2533.074</ele>
        <time>2021-11-14T15:09:09Z</time>
      </trkpt>
      <trkpt lat="4.591643" lon="-75.157272">
        <ele>2532.8027</ele>
        <time>2021-11-14T15:09:10Z</time>
      </trkpt>
      <trkpt lat="4.591647" lon="-75.157249">
        <ele>2531.864</ele>
        <time>2021-11-14T15:09:11Z</time>
      </trkpt>
      <trkpt lat="4.591716" lon="-75.157272">
        <ele>2530.506</ele>
        <time>2021-11-14T15:09:12Z</time>
      </trkpt>
      <trkpt lat="4.591806" lon="-75.157272">
        <ele>2528.1143</ele>
        <time>2021-11-14T15:09:13Z</time>
      </trkpt>
      <trkpt lat="4.591806" lon="-75.157272">
        <ele>2528.838</ele>
        <time>2021-11-14T15:09:14Z</time>
      </trkpt>
      <trkpt lat="4.591841" lon="-75.157265">
        <ele>2528.4292</ele>
        <time>2021-11-14T15:09:15Z</time>
      </trkpt>
      <trkpt lat="4.591875" lon="-75.157265">
        <ele>2527.146</ele>
        <time>2021-11-14T15:09:16Z</time>
      </trkpt>
      <trkpt lat="4.591938" lon="-75.157234">
        <ele>2526.6824</ele>
        <time>2021-11-14T15:09:17Z</time>
      </trkpt>
      <trkpt lat="4.59195" lon="-75.157219">
        <ele>2526.3591</ele>
        <time>2021-11-14T15:09:18Z</time>
      </trkpt>
      <trkpt lat="4.591989" lon="-75.157188">
        <ele>2524.4749</ele>
        <time>2021-11-14T15:09:20Z</time>
      </trkpt>
      <trkpt lat="4.592093" lon="-75.15715">
        <ele>2523.762</ele>
        <time>2021-11-14T15:09:21Z</time>
      </trkpt>
      <trkpt lat="4.592077" lon="-75.15712">
        <ele>2522.0134</ele>
        <time>2021-11-14T15:09:22Z</time>
      </trkpt>
      <trkpt lat="4.592105" lon="-75.157043">
        <ele>2521.2808</ele>
        <time>2021-11-14T15:09:23Z</time>
      </trkpt>
      <trkpt lat="4.592172" lon="-75.157005">
        <ele>2520.2095</ele>
        <time>2021-11-14T15:09:24Z</time>
      </trkpt>
      <trkpt lat="4.592199" lon="-75.156937">
        <ele>2519.8914</ele>
        <time>2021-11-14T15:09:25Z</time>
      </trkpt>
      <trkpt lat="4.592262" lon="-75.156914">
        <ele>2518.8733</ele>
        <time>2021-11-14T15:09:26Z</time>
      </trkpt>
      <trkpt lat="4.592296" lon="-75.156845">
        <ele>2518.3643</ele>
        <time>2021-11-14T15:09:27Z</time>
      </trkpt>
      <trkpt lat="4.592315" lon="-75.156807">
        <ele>2518.141</ele>
        <time>2021-11-14T15:09:28Z</time>
      </trkpt>
      <trkpt lat="4.592325" lon="-75.156784">
        <ele>2518.693</ele>
        <time>2021-11-14T15:09:29Z</time>
      </trkpt>
      <trkpt lat="4.592354" lon="-75.156776">
        <ele>2517.4993</ele>
        <time>2021-11-14T15:09:30Z</time>
      </trkpt>
      <trkpt lat="4.592372" lon="-75.156769">
        <ele>2516.8123</ele>
        <time>2021-11-14T15:09:31Z</time>
      </trkpt>
      <trkpt lat="4.592432" lon="-75.156761">
        <ele>2515.8396</ele>
        <time>2021-11-14T15:09:32Z</time>
      </trkpt>
      <trkpt lat="4.592533" lon="-75.156837">
        <ele>2514.4</ele>
        <time>2021-11-14T15:09:33Z</time>
      </trkpt>
      <trkpt lat="4.592627" lon="-75.156837">
        <ele>2514.2117</ele>
        <time>2021-11-14T15:09:34Z</time>
      </trkpt>
      <trkpt lat="4.59261" lon="-75.156807">
        <ele>2514.505</ele>
        <time>2021-11-14T15:09:35Z</time>
      </trkpt>
      <trkpt lat="4.592728" lon="-75.156769">
        <ele>2513.371</ele>
        <time>2021-11-14T15:09:36Z</time>
      </trkpt>
      <trkpt lat="4.592787" lon="-75.156754">
        <ele>2512.287</ele>
        <time>2021-11-14T15:09:37Z</time>
      </trkpt>
      <trkpt lat="4.592886" lon="-75.156715">
        <ele>2512.4841</ele>
        <time>2021-11-14T15:09:38Z</time>
      </trkpt>
      <trkpt lat="4.592892" lon="-75.156708">
        <ele>2511.7512</ele>
        <time>2021-11-14T15:09:39Z</time>
      </trkpt>
      <trkpt lat="4.592956" lon="-75.15667">
        <ele>2509.472</ele>
        <time>2021-11-14T15:09:40Z</time>
      </trkpt>
      <trkpt lat="4.592987" lon="-75.156647">
        <ele>2508.719</ele>
        <time>2021-11-14T15:09:41Z</time>
      </trkpt>
      <trkpt lat="4.592972" lon="-75.156662">
        <ele>2508.5222</ele>
        <time>2021-11-14T15:09:42Z</time>
      </trkpt>
      <trkpt lat="4.593018" lon="-75.156654">
        <ele>2508.2505</ele>
        <time>2021-11-14T15:09:43Z</time>
      </trkpt>
      <trkpt lat="4.593087" lon="-75.156616">
        <ele>2508.7556</ele>
        <time>2021-11-14T15:09:44Z</time>
      </trkpt>
      <trkpt lat="4.593169" lon="-75.156631">
        <ele>2508.107</ele>
        <time>2021-11-14T15:09:45Z</time>
      </trkpt>
      <trkpt lat="4.593211" lon="-75.156723">
        <ele>2509.1565</ele>
        <time>2021-11-14T15:09:46Z</time>
      </trkpt>
      <trkpt lat="4.593231" lon="-75.156792">
        <ele>2508.5432</ele>
        <time>2021-11-14T15:09:47Z</time>
      </trkpt>
      <trkpt lat="4.59324" lon="-75.15683">
        <ele>2509.7144</ele>
        <time>2021-11-14T15:09:48Z</time>
      </trkpt>
      <trkpt lat="4.593231" lon="-75.15686">
        <ele>2508.9531</ele>
        <time>2021-11-14T15:09:49Z</time>
      </trkpt>
      <trkpt lat="4.593232" lon="-75.156921">
        <ele>2508.7556</ele>
        <time>2021-11-14T15:09:50Z</time>
      </trkpt>
      <trkpt lat="4.59323" lon="-75.15699">
        <ele>2508.0635</ele>
        <time>2021-11-14T15:09:51Z</time>
      </trkpt>
      <trkpt lat="4.593234" lon="-75.157059">
        <ele>2507.4712</ele>
        <time>2021-11-14T15:09:52Z</time>
      </trkpt>
      <trkpt lat="4.593226" lon="-75.15712">
        <ele>2507.3325</ele>
        <time>2021-11-14T15:09:53Z</time>
      </trkpt>
      <trkpt lat="4.593205" lon="-75.157173">
        <ele>2505.8943</ele>
        <time>2021-11-14T15:09:54Z</time>
      </trkpt>
      <trkpt lat="4.59318" lon="-75.157227">
        <ele>2505.6382</ele>
        <time>2021-11-14T15:09:55Z</time>
      </trkpt>
      <trkpt lat="4.593166" lon="-75.157265">
        <ele>2505.101</ele>
        <time>2021-11-14T15:09:56Z</time>
      </trkpt>
      <trkpt lat="4.593156" lon="-75.157288">
        <ele>2505.2</ele>
        <time>2021-11-14T15:09:57Z</time>
      </trkpt>
      <trkpt lat="4.593136" lon="-75.157333">
        <ele>2504.918</ele>
        <time>2021-11-14T15:09:58Z</time>
      </trkpt>
      <trkpt lat="4.59312" lon="-75.157394">
        <ele>2504.478</ele>
        <time>2021-11-14T15:09:59Z</time>
      </trkpt>
      <trkpt lat="4.593117" lon="-75.157478">
        <ele>2504.1172</ele>
        <time>2021-11-14T15:10:00Z</time>
      </trkpt>
      <trkpt lat="4.593124" lon="-75.157547">
        <ele>2505.172</ele>
        <time>2021-11-14T15:10:01Z</time>
      </trkpt>
      <trkpt lat="4.593131" lon="-75.157555">
        <ele>2505.4807</ele>
        <time>2021-11-14T15:10:02Z</time>
      </trkpt>
      <trkpt lat="4.593148" lon="-75.157616">
        <ele>2504.937</ele>
        <time>2021-11-14T15:10:03Z</time>
      </trkpt>
      <trkpt lat="4.59315" lon="-75.157768">
        <ele>2505.9292</ele>
        <time>2021-11-14T15:10:05Z</time>
      </trkpt>
      <trkpt lat="4.59315" lon="-75.157768">
        <ele>2505.3328</ele>
        <time>2021-11-14T15:10:06Z</time>
      </trkpt>
      <trkpt lat="4.593167" lon="-75.157837">
        <ele>2506.1536</ele>
        <time>2021-11-14T15:10:07Z</time>
      </trkpt>
      <trkpt lat="4.59317" lon="-75.157898">
        <ele>2506.704</ele>
        <time>2021-11-14T15:10:08Z</time>
      </trkpt>
      <trkpt lat="4.593165" lon="-75.157936">
        <ele>2506.1155</ele>
        <time>2021-11-14T15:10:09Z</time>
      </trkpt>
      <trkpt lat="4.593127" lon="-75.15799">
        <ele>2506.5654</ele>
        <time>2021-11-14T15:10:10Z</time>
      </trkpt>
      <trkpt lat="4.593122" lon="-75.158051">
        <ele>2507.0444</ele>
        <time>2021-11-14T15:10:11Z</time>
      </trkpt>
      <trkpt lat="4.593092" lon="-75.158073">
        <ele>2507.2803</ele>
        <time>2021-11-14T15:10:12Z</time>
      </trkpt>
      <trkpt lat="4.593106" lon="-75.158142">
        <ele>2507.798</ele>
        <time>2021-11-14T15:10:13Z</time>
      </trkpt>
      <trkpt lat="4.593086" lon="-75.158165">
        <ele>2507.5166</ele>
        <time>2021-11-14T15:10:14Z</time>
      </trkpt>
      <trkpt lat="4.593172" lon="-75.15815">
        <ele>2507.4202</ele>
        <time>2021-11-14T15:10:15Z</time>
      </trkpt>
      <trkpt lat="4.593211" lon="-75.158195">
        <ele>2507.469</ele>
        <time>2021-11-14T15:10:16Z</time>
      </trkpt>
      <trkpt lat="4.593193" lon="-75.158173">
        <ele>2507.151</ele>
        <time>2021-11-14T15:10:17Z</time>
      </trkpt>
      <trkpt lat="4.593353" lon="-75.158142">
        <ele>2506.6423</ele>
        <time>2021-11-14T15:10:18Z</time>
      </trkpt>
      <trkpt lat="4.593455" lon="-75.158096">
        <ele>2506.8127</ele>
        <time>2021-11-14T15:10:19Z</time>
      </trkpt>
      <trkpt lat="4.593466" lon="-75.158073">
        <ele>2506.1077</ele>
        <time>2021-11-14T15:10:20Z</time>
      </trkpt>
      <trkpt lat="4.593517" lon="-75.158051">
        <ele>2505.721</ele>
        <time>2021-11-14T15:10:21Z</time>
      </trkpt>
      <trkpt lat="4.593586" lon="-75.158043">
        <ele>2504.7717</ele>
        <time>2021-11-14T15:10:22Z</time>
      </trkpt>
      <trkpt lat="4.593596" lon="-75.158066">
        <ele>2505.2915</ele>
        <time>2021-11-14T15:10:23Z</time>
      </trkpt>
      <trkpt lat="4.593693" lon="-75.158058">
        <ele>2502.7134</ele>
        <time>2021-11-14T15:10:24Z</time>
      </trkpt>
      <trkpt lat="4.593813" lon="-75.158104">
        <ele>2502.7417</ele>
        <time>2021-11-14T15:10:25Z</time>
      </trkpt>
      <trkpt lat="4.593908" lon="-75.158089">
        <ele>2502.1975</ele>
        <time>2021-11-14T15:10:26Z</time>
      </trkpt>
      <trkpt lat="4.593959" lon="-75.158066">
        <ele>2501.5095</ele>
        <time>2021-11-14T15:10:27Z</time>
      </trkpt>
      <trkpt lat="4.593993" lon="-75.158051">
        <ele>2499.6755</ele>
        <time>2021-11-14T15:10:28Z</time>
      </trkpt>
      <trkpt lat="4.594047" lon="-75.157982">
        <ele>2497.1426</ele>
        <time>2021-11-14T15:10:29Z</time>
      </trkpt>
      <trkpt lat="4.594099" lon="-75.157944">
        <ele>2497.374</ele>
        <time>2021-11-14T15:10:30Z</time>
      </trkpt>
      <trkpt lat="4.59416" lon="-75.157921">
        <ele>2496.1426</ele>
        <time>2021-11-14T15:10:31Z</time>
      </trkpt>
      <trkpt lat="4.594231" lon="-75.157906">
        <ele>2495.655</ele>
        <time>2021-11-14T15:10:32Z</time>
      </trkpt>
      <trkpt lat="4.594261" lon="-75.157921">
        <ele>2495.5315</ele>
        <time>2021-11-14T15:10:33Z</time>
      </trkpt>
      <trkpt lat="4.59438" lon="-75.157928">
        <ele>2494.8909</ele>
        <time>2021-11-14T15:10:34Z</time>
      </trkpt>
      <trkpt lat="4.594404" lon="-75.157936">
        <ele>2494.8245</ele>
        <time>2021-11-14T15:10:35Z</time>
      </trkpt>
      <trkpt lat="4.59441" lon="-75.157944">
        <ele>2493.0547</ele>
        <time>2021-11-14T15:10:37Z</time>
      </trkpt>
      <trkpt lat="4.594488" lon="-75.157928">
        <ele>2493.6167</ele>
        <time>2021-11-14T15:10:38Z</time>
      </trkpt>
      <trkpt lat="4.59452" lon="-75.157906">
        <ele>2493.427</ele>
        <time>2021-11-14T15:10:39Z</time>
      </trkpt>
      <trkpt lat="4.594536" lon="-75.157898">
        <ele>2494.8552</ele>
        <time>2021-11-14T15:10:40Z</time>
      </trkpt>
      <trkpt lat="4.594603" lon="-75.157852">
        <ele>2494.8423</ele>
        <time>2021-11-14T15:10:41Z</time>
      </trkpt>
      <trkpt lat="4.594627" lon="-75.157837">
        <ele>2495.5227</ele>
        <time>2021-11-14T15:10:42Z</time>
      </trkpt>
      <trkpt lat="4.594606" lon="-75.157875">
        <ele>2495.999</ele>
        <time>2021-11-14T15:10:43Z</time>
      </trkpt>
      <trkpt lat="4.594672" lon="-75.157845">
        <ele>2496.1846</ele>
        <time>2021-11-14T15:10:44Z</time>
      </trkpt>
      <trkpt lat="4.594715" lon="-75.157822">
        <ele>2495.9702</ele>
        <time>2021-11-14T15:10:45Z</time>
      </trkpt>
      <trkpt lat="4.594711" lon="-75.157814">
        <ele>2496.3765</ele>
        <time>2021-11-14T15:10:46Z</time>
      </trkpt>
      <trkpt lat="4.594761" lon="-75.157806">
        <ele>2496.6228</ele>
        <time>2021-11-14T15:10:47Z</time>
      </trkpt>
      <trkpt lat="4.594808" lon="-75.157791">
        <ele>2496.7043</ele>
        <time>2021-11-14T15:10:48Z</time>
      </trkpt>
      <trkpt lat="4.594802" lon="-75.157776">
        <ele>2495.6995</ele>
        <time>2021-11-14T15:10:49Z</time>
      </trkpt>
      <trkpt lat="4.594808" lon="-75.157761">
        <ele>2495.6084</ele>
        <time>2021-11-14T15:10:50Z</time>
      </trkpt>
      <trkpt lat="4.594822" lon="-75.157745">
        <ele>2495.4727</ele>
        <time>2021-11-14T15:10:51Z</time>
      </trkpt>
      <trkpt lat="4.594821" lon="-75.15773">
        <ele>2495.0479</ele>
        <time>2021-11-14T15:10:52Z</time>
      </trkpt>
      <trkpt lat="4.594828" lon="-75.157715">
        <ele>2494.0972</ele>
        <time>2021-11-14T15:10:54Z</time>
      </trkpt>
      <trkpt lat="4.594828" lon="-75.157715">
        <ele>2492.947</ele>
        <time>2021-11-14T15:10:55Z</time>
      </trkpt>
      <trkpt lat="4.594833" lon="-75.157654">
        <ele>2491.9502</ele>
        <time>2021-11-14T15:10:56Z</time>
      </trkpt>
      <trkpt lat="4.594838" lon="-75.157639">
        <ele>2491.6091</ele>
        <time>2021-11-14T15:10:57Z</time>
      </trkpt>
      <trkpt lat="4.594833" lon="-75.157578">
        <ele>2489.9692</ele>
        <time>2021-11-14T15:10:58Z</time>
      </trkpt>
      <trkpt lat="4.594851" lon="-75.157478">
        <ele>2487.21</ele>
        <time>2021-11-14T15:10:59Z</time>
      </trkpt>
      <trkpt lat="4.594794" lon="-75.157372">
        <ele>2485.4543</ele>
        <time>2021-11-14T15:11:00Z</time>
      </trkpt>
      <trkpt lat="4.594787" lon="-75.157303">
        <ele>2485.5007</ele>
        <time>2021-11-14T15:11:01Z</time>
      </trkpt>
      <trkpt lat="4.594789" lon="-75.157265">
        <ele>2483.895</ele>
        <time>2021-11-14T15:11:02Z</time>
      </trkpt>
      <trkpt lat="4.594737" lon="-75.157166">
        <ele>2480.7317</ele>
        <time>2021-11-14T15:11:03Z</time>
      </trkpt>
      <trkpt lat="4.594735" lon="-75.157166">
        <ele>2478.8684</ele>
        <time>2021-11-14T15:11:04Z</time>
      </trkpt>
      <trkpt lat="4.594728" lon="-75.157043">
        <ele>2477.6458</ele>
        <time>2021-11-14T15:11:05Z</time>
      </trkpt>
      <trkpt lat="4.594699" lon="-75.156998">
        <ele>2477.0325</ele>
        <time>2021-11-14T15:11:06Z</time>
      </trkpt>
      <trkpt lat="4.594686" lon="-75.156929">
        <ele>2475.6233</ele>
        <time>2021-11-14T15:11:07Z</time>
      </trkpt>
      <trkpt lat="4.594651" lon="-75.15683">
        <ele>2474.2258</ele>
        <time>2021-11-14T15:11:08Z</time>
      </trkpt>
      <trkpt lat="4.594639" lon="-75.156784">
        <ele>2472.9368</ele>
        <time>2021-11-14T15:11:10Z</time>
      </trkpt>
      <trkpt lat="4.594601" lon="-75.156715">
        <ele>2472.1838</ele>
        <time>2021-11-14T15:11:11Z</time>
      </trkpt>
      <trkpt lat="4.594574" lon="-75.156662">
        <ele>2470.5212</ele>
        <time>2021-11-14T15:11:12Z</time>
      </trkpt>
      <trkpt lat="4.594573" lon="-75.156601">
        <ele>2469.1475</ele>
        <time>2021-11-14T15:11:13Z</time>
      </trkpt>
      <trkpt lat="4.594598" lon="-75.15654">
        <ele>2469.178</ele>
        <time>2021-11-14T15:11:14Z</time>
      </trkpt>
      <trkpt lat="4.594598" lon="-75.156448">
        <ele>2466.5283</ele>
        <time>2021-11-14T15:11:15Z</time>
      </trkpt>
      <trkpt lat="4.594588" lon="-75.156395">
        <ele>2465.6843</ele>
        <time>2021-11-14T15:11:16Z</time>
      </trkpt>
      <trkpt lat="4.594592" lon="-75.156357">
        <ele>2464.4082</ele>
        <time>2021-11-14T15:11:17Z</time>
      </trkpt>
      <trkpt lat="4.594556" lon="-75.156181">
        <ele>2463.841</ele>
        <time>2021-11-14T15:11:18Z</time>
      </trkpt>
      <trkpt lat="4.594547" lon="-75.156105">
        <ele>2463.7092</ele>
        <time>2021-11-14T15:11:19Z</time>
      </trkpt>
      <trkpt lat="4.594505" lon="-75.156059">
        <ele>2463.727</ele>
        <time>2021-11-14T15:11:20Z</time>
      </trkpt>
      <trkpt lat="4.594452" lon="-75.155975">
        <ele>2463.5833</ele>
        <time>2021-11-14T15:11:21Z</time>
      </trkpt>
      <trkpt lat="4.594434" lon="-75.15596">
        <ele>2463.06</ele>
        <time>2021-11-14T15:11:22Z</time>
      </trkpt>
      <trkpt lat="4.59443" lon="-75.155945">
        <ele>2463.1602</ele>
        <time>2021-11-14T15:11:23Z</time>
      </trkpt>
      <trkpt lat="4.594427" lon="-75.155869">
        <ele>2462.095</ele>
        <time>2021-11-14T15:11:24Z</time>
      </trkpt>
      <trkpt lat="4.59445" lon="-75.155785">
        <ele>2460.0337</ele>
        <time>2021-11-14T15:11:25Z</time>
      </trkpt>
      <trkpt lat="4.594424" lon="-75.155701">
        <ele>2458.7888</ele>
        <time>2021-11-14T15:11:26Z</time>
      </trkpt>
      <trkpt lat="4.594429" lon="-75.155602">
        <ele>2457.2876</ele>
        <time>2021-11-14T15:11:27Z</time>
      </trkpt>
      <trkpt lat="4.59443" lon="-75.155518">
        <ele>2457.0562</ele>
        <time>2021-11-14T15:11:28Z</time>
      </trkpt>
      <trkpt lat="4.59443" lon="-75.155464">
        <ele>2457.7173</ele>
        <time>2021-11-14T15:11:29Z</time>
      </trkpt>
      <trkpt lat="4.59444" lon="-75.155396">
        <ele>2456.3438</ele>
        <time>2021-11-14T15:11:30Z</time>
      </trkpt>
      <trkpt lat="4.594472" lon="-75.155334">
        <ele>2456.1733</ele>
        <time>2021-11-14T15:11:32Z</time>
      </trkpt>
      <trkpt lat="4.594483" lon="-75.155243">
        <ele>2456.2368</ele>
        <time>2021-11-14T15:11:33Z</time>
      </trkpt>
      <trkpt lat="4.594491" lon="-75.155212">
        <ele>2455.4724</ele>
        <time>2021-11-14T15:11:34Z</time>
      </trkpt>
      <trkpt lat="4.594514" lon="-75.15519">
        <ele>2454.9067</ele>
        <time>2021-11-14T15:11:35Z</time>
      </trkpt>
      <trkpt lat="4.594531" lon="-75.155144">
        <ele>2454.6558</ele>
        <time>2021-11-14T15:11:36Z</time>
      </trkpt>
      <trkpt lat="4.594541" lon="-75.155083">
        <ele>2453.0166</ele>
        <time>2021-11-14T15:11:37Z</time>
      </trkpt>
      <trkpt lat="4.594477" lon="-75.154991">
        <ele>2452.3538</ele>
        <time>2021-11-14T15:11:38Z</time>
      </trkpt>
      <trkpt lat="4.594447" lon="-75.154915">
        <ele>2451.657</ele>
        <time>2021-11-14T15:11:39Z</time>
      </trkpt>
      <trkpt lat="4.594453" lon="-75.154877">
        <ele>2451.0837</ele>
        <time>2021-11-14T15:11:40Z</time>
      </trkpt>
      <trkpt lat="4.594442" lon="-75.154823">
        <ele>2450.6436</ele>
        <time>2021-11-14T15:11:41Z</time>
      </trkpt>
      <trkpt lat="4.59445" lon="-75.154785">
        <ele>2450.217</ele>
        <time>2021-11-14T15:11:42Z</time>
      </trkpt>
      <trkpt lat="4.594463" lon="-75.154671">
        <ele>2447.8152</ele>
        <time>2021-11-14T15:11:43Z</time>
      </trkpt>
      <trkpt lat="4.594535" lon="-75.154625">
        <ele>2446.2622</ele>
        <time>2021-11-14T15:11:44Z</time>
      </trkpt>
      <trkpt lat="4.594606" lon="-75.154533">
        <ele>2446.4048</ele>
        <time>2021-11-14T15:11:45Z</time>
      </trkpt>
      <trkpt lat="4.594601" lon="-75.154526">
        <ele>2445.8438</ele>
        <time>2021-11-14T15:11:46Z</time>
      </trkpt>
      <trkpt lat="4.594597" lon="-75.154472">
        <ele>2446.622</ele>
        <time>2021-11-14T15:11:47Z</time>
      </trkpt>
      <trkpt lat="4.594597" lon="-75.154472">
        <ele>2446.9814</ele>
        <time>2021-11-14T15:11:48Z</time>
      </trkpt>
      <trkpt lat="4.594668" lon="-75.15435">
        <ele>2445.994</ele>
        <time>2021-11-14T15:11:49Z</time>
      </trkpt>
      <trkpt lat="4.594663" lon="-75.15435">
        <ele>2445.6692</ele>
        <time>2021-11-14T15:11:50Z</time>
      </trkpt>
      <trkpt lat="4.594694" lon="-75.15432">
        <ele>2445.714</ele>
        <time>2021-11-14T15:11:51Z</time>
      </trkpt>
      <trkpt lat="4.594717" lon="-75.154282">
        <ele>2446.1516</ele>
        <time>2021-11-14T15:11:52Z</time>
      </trkpt>
      <trkpt lat="4.594761" lon="-75.154266">
        <ele>2444.1665</ele>
        <time>2021-11-14T15:11:53Z</time>
      </trkpt>
      <trkpt lat="4.594798" lon="-75.154152">
        <ele>2443.693</ele>
        <time>2021-11-14T15:11:54Z</time>
      </trkpt>
      <trkpt lat="4.594805" lon="-75.154106">
        <ele>2440.6138</ele>
        <time>2021-11-14T15:11:55Z</time>
      </trkpt>
      <trkpt lat="4.594798" lon="-75.154022">
        <ele>2440.0923</ele>
        <time>2021-11-14T15:11:56Z</time>
      </trkpt>
      <trkpt lat="4.594794" lon="-75.153931">
        <ele>2439.433</ele>
        <time>2021-11-14T15:11:57Z</time>
      </trkpt>
      <trkpt lat="4.594805" lon="-75.153908">
        <ele>2440.1567</ele>
        <time>2021-11-14T15:11:58Z</time>
      </trkpt>
      <trkpt lat="4.594824" lon="-75.153839">
        <ele>2439.5173</ele>
        <time>2021-11-14T15:12:00Z</time>
      </trkpt>
      <trkpt lat="4.594893" lon="-75.153755">
        <ele>2437.0486</ele>
        <time>2021-11-14T15:12:01Z</time>
      </trkpt>
      <trkpt lat="4.594907" lon="-75.15374">
        <ele>2436.2126</ele>
        <time>2021-11-14T15:12:02Z</time>
      </trkpt>
      <trkpt lat="4.594918" lon="-75.15377">
        <ele>2435.5776</ele>
        <time>2021-11-14T15:12:03Z</time>
      </trkpt>
      <trkpt lat="4.594998" lon="-75.153702">
        <ele>2435.2231</ele>
        <time>2021-11-14T15:12:04Z</time>
      </trkpt>
      <trkpt lat="4.59501" lon="-75.153671">
        <ele>2434.306</ele>
        <time>2021-11-14T15:12:05Z</time>
      </trkpt>
      <trkpt lat="4.595077" lon="-75.153618">
        <ele>2434.7795</ele>
        <time>2021-11-14T15:12:06Z</time>
      </trkpt>
      <trkpt lat="4.595146" lon="-75.153603">
        <ele>2433.2598</ele>
        <time>2021-11-14T15:12:07Z</time>
      </trkpt>
      <trkpt lat="4.595101" lon="-75.153618">
        <ele>2432.9282</ele>
        <time>2021-11-14T15:12:08Z</time>
      </trkpt>
      <trkpt lat="4.595141" lon="-75.153442">
        <ele>2433.0212</ele>
        <time>2021-11-14T15:12:09Z</time>
      </trkpt>
      <trkpt lat="4.595162" lon="-75.153397">
        <ele>2432.8755</ele>
        <time>2021-11-14T15:12:10Z</time>
      </trkpt>
      <trkpt lat="4.59521" lon="-75.153343">
        <ele>2430.4126</ele>
        <time>2021-11-14T15:12:11Z</time>
      </trkpt>
      <trkpt lat="4.595279" lon="-75.153252">
        <ele>2429.3708</ele>
        <time>2021-11-14T15:12:12Z</time>
      </trkpt>
      <trkpt lat="4.59531" lon="-75.153168">
        <ele>2428.9385</ele>
        <time>2021-11-14T15:12:13Z</time>
      </trkpt>
      <trkpt lat="4.595322" lon="-75.153152">
        <ele>2427.7356</ele>
        <time>2021-11-14T15:12:14Z</time>
      </trkpt>
      <trkpt lat="4.595372" lon="-75.153107">
        <ele>2427.403</ele>
        <time>2021-11-14T15:12:15Z</time>
      </trkpt>
      <trkpt lat="4.595395" lon="-75.153023">
        <ele>2426.2205</ele>
        <time>2021-11-14T15:12:16Z</time>
      </trkpt>
      <trkpt lat="4.595418" lon="-75.152992">
        <ele>2423.5334</ele>
        <time>2021-11-14T15:12:17Z</time>
      </trkpt>
      <trkpt lat="4.595471" lon="-75.152916">
        <ele>2423.5977</ele>
        <time>2021-11-14T15:12:18Z</time>
      </trkpt>
      <trkpt lat="4.595509" lon="-75.152855">
        <ele>2425.4922</ele>
        <time>2021-11-14T15:12:19Z</time>
      </trkpt>
      <trkpt lat="4.595534" lon="-75.152779">
        <ele>2426.9175</ele>
        <time>2021-11-14T15:12:20Z</time>
      </trkpt>
      <trkpt lat="4.595553" lon="-75.152687">
        <ele>2425.7703</ele>
        <time>2021-11-14T15:12:21Z</time>
      </trkpt>
      <trkpt lat="4.595607" lon="-75.152634">
        <ele>2424.967</ele>
        <time>2021-11-14T15:12:22Z</time>
      </trkpt>
      <trkpt lat="4.59567" lon="-75.152565">
        <ele>2423.2341</ele>
        <time>2021-11-14T15:12:23Z</time>
      </trkpt>
      <trkpt lat="4.595717" lon="-75.152527">
        <ele>2423.2803</ele>
        <time>2021-11-14T15:12:24Z</time>
      </trkpt>
      <trkpt lat="4.595752" lon="-75.152489">
        <ele>2422.2031</ele>
        <time>2021-11-14T15:12:25Z</time>
      </trkpt>
      <trkpt lat="4.595839" lon="-75.152412">
        <ele>2420.4927</ele>
        <time>2021-11-14T15:12:26Z</time>
      </trkpt>
      <trkpt lat="4.595951" lon="-75.152344">
        <ele>2417.4827</ele>
        <time>2021-11-14T15:12:27Z</time>
      </trkpt>
      <trkpt lat="4.596012" lon="-75.15229">
        <ele>2418.3135</ele>
        <time>2021-11-14T15:12:29Z</time>
      </trkpt>
      <trkpt lat="4.596043" lon="-75.152275">
        <ele>2418.794</ele>
        <time>2021-11-14T15:12:30Z</time>
      </trkpt>
      <trkpt lat="4.596095" lon="-75.152229">
        <ele>2418.005</ele>
        <time>2021-11-14T15:12:31Z</time>
      </trkpt>
      <trkpt lat="4.596159" lon="-75.152168">
        <ele>2418.0183</ele>
        <time>2021-11-14T15:12:32Z</time>
      </trkpt>
      <trkpt lat="4.596201" lon="-75.152092">
        <ele>2417.668</ele>
        <time>2021-11-14T15:12:33Z</time>
      </trkpt>
      <trkpt lat="4.596219" lon="-75.152008">
        <ele>2417.761</ele>
        <time>2021-11-14T15:12:34Z</time>
      </trkpt>
      <trkpt lat="4.596219" lon="-75.151939">
        <ele>2417.3193</ele>
        <time>2021-11-14T15:12:35Z</time>
      </trkpt>
      <trkpt lat="4.596224" lon="-75.151855">
        <ele>2415.2424</ele>
        <time>2021-11-14T15:12:36Z</time>
      </trkpt>
      <trkpt lat="4.596201" lon="-75.151855">
        <ele>2414.6858</ele>
        <time>2021-11-14T15:12:37Z</time>
      </trkpt>
      <trkpt lat="4.59628" lon="-75.151688">
        <ele>2410.7756</ele>
        <time>2021-11-14T15:12:38Z</time>
      </trkpt>
      <trkpt lat="4.596302" lon="-75.151649">
        <ele>2408.376</ele>
        <time>2021-11-14T15:12:39Z</time>
      </trkpt>
      <trkpt lat="4.59634" lon="-75.151581">
        <ele>2407.4587</ele>
        <time>2021-11-14T15:12:41Z</time>
      </trkpt>
      <trkpt lat="4.596381" lon="-75.151497">
        <ele>2406.9075</ele>
        <time>2021-11-14T15:12:42Z</time>
      </trkpt>
      <trkpt lat="4.5964" lon="-75.151459">
        <ele>2408.8647</ele>
        <time>2021-11-14T15:12:43Z</time>
      </trkpt>
      <trkpt lat="4.596409" lon="-75.151413">
        <ele>2409.087</ele>
        <time>2021-11-14T15:12:44Z</time>
      </trkpt>
      <trkpt lat="4.596469" lon="-75.151329">
        <ele>2408.9402</ele>
        <time>2021-11-14T15:12:45Z</time>
      </trkpt>
      <trkpt lat="4.596496" lon="-75.151299">
        <ele>2407.904</ele>
        <time>2021-11-14T15:12:46Z</time>
      </trkpt>
      <trkpt lat="4.596554" lon="-75.15126">
        <ele>2405.674</ele>
        <time>2021-11-14T15:12:47Z</time>
      </trkpt>
      <trkpt lat="4.596554" lon="-75.15126">
        <ele>2405.9119</ele>
        <time>2021-11-14T15:12:48Z</time>
      </trkpt>
      <trkpt lat="4.596651" lon="-75.15123">
        <ele>2405.75</ele>
        <time>2021-11-14T15:12:49Z</time>
      </trkpt>
      <trkpt lat="4.596757" lon="-75.151199">
        <ele>2405.1865</ele>
        <time>2021-11-14T15:12:50Z</time>
      </trkpt>
      <trkpt lat="4.596818" lon="-75.151169">
        <ele>2405.0774</ele>
        <time>2021-11-14T15:12:51Z</time>
      </trkpt>
      <trkpt lat="4.596885" lon="-75.151161">
        <ele>2405.2048</ele>
        <time>2021-11-14T15:12:52Z</time>
      </trkpt>
      <trkpt lat="4.597009" lon="-75.151115">
        <ele>2405.6785</ele>
        <time>2021-11-14T15:12:53Z</time>
      </trkpt>
      <trkpt lat="4.597055" lon="-75.151093">
        <ele>2404.6667</ele>
        <time>2021-11-14T15:12:54Z</time>
      </trkpt>
      <trkpt lat="4.597112" lon="-75.151047">
        <ele>2404.5547</ele>
        <time>2021-11-14T15:12:55Z</time>
      </trkpt>
      <trkpt lat="4.597189" lon="-75.15097">
        <ele>2402.3516</ele>
        <time>2021-11-14T15:12:56Z</time>
      </trkpt>
      <trkpt lat="4.597226" lon="-75.150925">
        <ele>2401.9043</ele>
        <time>2021-11-14T15:12:57Z</time>
      </trkpt>
      <trkpt lat="4.597254" lon="-75.150902">
        <ele>2400.2517</ele>
        <time>2021-11-14T15:12:58Z</time>
      </trkpt>
      <trkpt lat="4.597279" lon="-75.150879">
        <ele>2399.6714</ele>
        <time>2021-11-14T15:12:59Z</time>
      </trkpt>
      <trkpt lat="4.597341" lon="-75.150871">
        <ele>2398.7014</ele>
        <time>2021-11-14T15:13:00Z</time>
      </trkpt>
      <trkpt lat="4.597384" lon="-75.150841">
        <ele>2397.5222</ele>
        <time>2021-11-14T15:13:01Z</time>
      </trkpt>
      <trkpt lat="4.597486" lon="-75.150894">
        <ele>2397.3833</ele>
        <time>2021-11-14T15:13:03Z</time>
      </trkpt>
      <trkpt lat="4.597496" lon="-75.150879">
        <ele>2395.4453</ele>
        <time>2021-11-14T15:13:04Z</time>
      </trkpt>
      <trkpt lat="4.59752" lon="-75.150864">
        <ele>2395.2585</ele>
        <time>2021-11-14T15:13:05Z</time>
      </trkpt>
      <trkpt lat="4.597538" lon="-75.150879">
        <ele>2394.304</ele>
        <time>2021-11-14T15:13:06Z</time>
      </trkpt>
      <trkpt lat="4.597632" lon="-75.150871">
        <ele>2394.7766</ele>
        <time>2021-11-14T15:13:07Z</time>
      </trkpt>
      <trkpt lat="4.59763" lon="-75.150864">
        <ele>2395.077</ele>
        <time>2021-11-14T15:13:08Z</time>
      </trkpt>
      <trkpt lat="4.597742" lon="-75.150841">
        <ele>2396.2598</ele>
        <time>2021-11-14T15:13:09Z</time>
      </trkpt>
      <trkpt lat="4.597788" lon="-75.150864">
        <ele>2395.6475</ele>
        <time>2021-11-14T15:13:10Z</time>
      </trkpt>
      <trkpt lat="4.597896" lon="-75.150871">
        <ele>2394.2908</ele>
        <time>2021-11-14T15:13:11Z</time>
      </trkpt>
      <trkpt lat="4.597943" lon="-75.150856">
        <ele>2394.49</ele>
        <time>2021-11-14T15:13:12Z</time>
      </trkpt>
      <trkpt lat="4.597995" lon="-75.150864">
        <ele>2393.8037</ele>
        <time>2021-11-14T15:13:14Z</time>
      </trkpt>
      <trkpt lat="4.598074" lon="-75.150871">
        <ele>2394.3315</ele>
        <time>2021-11-14T15:13:15Z</time>
      </trkpt>
      <trkpt lat="4.598129" lon="-75.150856">
        <ele>2390.9866</ele>
        <time>2021-11-14T15:13:16Z</time>
      </trkpt>
      <trkpt lat="4.598215" lon="-75.150818">
        <ele>2391.5215</ele>
        <time>2021-11-14T15:13:17Z</time>
      </trkpt>
      <trkpt lat="4.598311" lon="-75.150764">
        <ele>2391.4927</ele>
        <time>2021-11-14T15:13:18Z</time>
      </trkpt>
      <trkpt lat="4.598366" lon="-75.150734">
        <ele>2391.9912</ele>
        <time>2021-11-14T15:13:19Z</time>
      </trkpt>
      <trkpt lat="4.598376" lon="-75.150726">
        <ele>2393.125</ele>
        <time>2021-11-14T15:13:20Z</time>
      </trkpt>
      <trkpt lat="4.598412" lon="-75.150711">
        <ele>2392.247</ele>
        <time>2021-11-14T15:13:21Z</time>
      </trkpt>
      <trkpt lat="4.598535" lon="-75.150665">
        <ele>2391.9326</ele>
        <time>2021-11-14T15:13:22Z</time>
      </trkpt>
      <trkpt lat="4.598594" lon="-75.150658">
        <ele>2391.6277</ele>
        <time>2021-11-14T15:13:23Z</time>
      </trkpt>
      <trkpt lat="4.598647" lon="-75.150604">
        <ele>2392.3674</ele>
        <time>2021-11-14T15:13:24Z</time>
      </trkpt>
      <trkpt lat="4.598689" lon="-75.150566">
        <ele>2391.596</ele>
        <time>2021-11-14T15:13:25Z</time>
      </trkpt>
      <trkpt lat="4.598727" lon="-75.150536">
        <ele>2391.0034</ele>
        <time>2021-11-14T15:13:26Z</time>
      </trkpt>
      <trkpt lat="4.598775" lon="-75.150497">
        <ele>2390.8308</ele>
        <time>2021-11-14T15:13:27Z</time>
      </trkpt>
      <trkpt lat="4.598834" lon="-75.150452">
        <ele>2389.6606</ele>
        <time>2021-11-14T15:13:28Z</time>
      </trkpt>
      <trkpt lat="4.598856" lon="-75.150467">
        <ele>2390.2498</ele>
        <time>2021-11-14T15:13:29Z</time>
      </trkpt>
      <trkpt lat="4.598915" lon="-75.150436">
        <ele>2389.6091</ele>
        <time>2021-11-14T15:13:30Z</time>
      </trkpt>
      <trkpt lat="4.599004" lon="-75.150398">
        <ele>2389.0579</ele>
        <time>2021-11-14T15:13:31Z</time>
      </trkpt>
      <trkpt lat="4.599067" lon="-75.150398">
        <ele>2388.9531</ele>
        <time>2021-11-14T15:13:32Z</time>
      </trkpt>
      <trkpt lat="4.599165" lon="-75.150398">
        <ele>2388.6367</ele>
        <time>2021-11-14T15:13:33Z</time>
      </trkpt>
      <trkpt lat="4.599228" lon="-75.150375">
        <ele>2389.0854</ele>
        <time>2021-11-14T15:13:34Z</time>
      </trkpt>
      <trkpt lat="4.599295" lon="-75.150314">
        <ele>2389.2664</ele>
        <time>2021-11-14T15:13:35Z</time>
      </trkpt>
      <trkpt lat="4.599374" lon="-75.15033">
        <ele>2388.4583</ele>
        <time>2021-11-14T15:13:36Z</time>
      </trkpt>
      <trkpt lat="4.599396" lon="-75.150307">
        <ele>2387.231</ele>
        <time>2021-11-14T15:13:37Z</time>
      </trkpt>
      <trkpt lat="4.5994" lon="-75.150299">
        <ele>2384.284</ele>
        <time>2021-11-14T15:13:38Z</time>
      </trkpt>
      <trkpt lat="4.599448" lon="-75.150253">
        <ele>2384.161</ele>
        <time>2021-11-14T15:13:39Z</time>
      </trkpt>
      <trkpt lat="4.599435" lon="-75.150223">
        <ele>2380.7544</ele>
        <time>2021-11-14T15:13:40Z</time>
      </trkpt>
      <trkpt lat="4.599435" lon="-75.150223">
        <ele>2379.6816</ele>
        <time>2021-11-14T15:13:41Z</time>
      </trkpt>
      <trkpt lat="4.599443" lon="-75.150162">
        <ele>2377.3062</ele>
        <time>2021-11-14T15:13:42Z</time>
      </trkpt>
      <trkpt lat="4.599486" lon="-75.150116">
        <ele>2376.3418</ele>
        <time>2021-11-14T15:13:43Z</time>
      </trkpt>
      <trkpt lat="4.599458" lon="-75.150116">
        <ele>2375.457</ele>
        <time>2021-11-14T15:13:44Z</time>
      </trkpt>
      <trkpt lat="4.599461" lon="-75.150085">
        <ele>2374.888</ele>
        <time>2021-11-14T15:13:45Z</time>
      </trkpt>
      <trkpt lat="4.599474" lon="-75.150047">
        <ele>2374.641</ele>
        <time>2021-11-14T15:13:46Z</time>
      </trkpt>
      <trkpt lat="4.599375" lon="-75.149994">
        <ele>2373.7202</ele>
        <time>2021-11-14T15:13:47Z</time>
      </trkpt>
      <trkpt lat="4.59935" lon="-75.150024">
        <ele>2372.5469</ele>
        <time>2021-11-14T15:13:48Z</time>
      </trkpt>
      <trkpt lat="4.599341" lon="-75.150047">
        <ele>2371.9202</ele>
        <time>2021-11-14T15:13:49Z</time>
      </trkpt>
      <trkpt lat="4.599318" lon="-75.150047">
        <ele>2371.284</ele>
        <time>2021-11-14T15:13:50Z</time>
      </trkpt>
      <trkpt lat="4.59931" lon="-75.150047">
        <ele>2371.6855</ele>
        <time>2021-11-14T15:13:51Z</time>
      </trkpt>
      <trkpt lat="4.599303" lon="-75.150047">
        <ele>2371.8662</ele>
        <time>2021-11-14T15:13:52Z</time>
      </trkpt>
      <trkpt lat="4.599304" lon="-75.150047">
        <ele>2373.0667</ele>
        <time>2021-11-14T15:13:53Z</time>
      </trkpt>
      <trkpt lat="4.599296" lon="-75.150047">
        <ele>2372.859</ele>
        <time>2021-11-14T15:13:54Z</time>
      </trkpt>
      <trkpt lat="4.599292" lon="-75.150047">
        <ele>2375.941</ele>
        <time>2021-11-14T15:13:55Z</time>
      </trkpt>
      <trkpt lat="4.599287" lon="-75.150055">
        <ele>2376.4858</ele>
        <time>2021-11-14T15:13:56Z</time>
      </trkpt>
      <trkpt lat="4.599282" lon="-75.150055">
        <ele>2376.9197</ele>
        <time>2021-11-14T15:13:57Z</time>
      </trkpt>
      <trkpt lat="4.599279" lon="-75.150055">
        <ele>2377.2397</ele>
        <time>2021-11-14T15:13:59Z</time>
      </trkpt>
      <trkpt lat="4.599277" lon="-75.150055">
        <ele>2376.7776</ele>
        <time>2021-11-14T15:14:00Z</time>
      </trkpt>
      <trkpt lat="4.599274" lon="-75.150063">
        <ele>2376.6172</ele>
        <time>2021-11-14T15:14:01Z</time>
      </trkpt>
      <trkpt lat="4.599271" lon="-75.150063">
        <ele>2377.0034</ele>
        <time>2021-11-14T15:14:02Z</time>
      </trkpt>
      <trkpt lat="4.599268" lon="-75.15007">
        <ele>2377.3384</ele>
        <time>2021-11-14T15:14:03Z</time>
      </trkpt>
      <trkpt lat="4.599263" lon="-75.15007">
        <ele>2377.8894</ele>
        <time>2021-11-14T15:14:04Z</time>
      </trkpt>
      <trkpt lat="4.599259" lon="-75.15007">
        <ele>2377.939</ele>
        <time>2021-11-14T15:14:05Z</time>
      </trkpt>
      <trkpt lat="4.599205" lon="-75.150078">
        <ele>2378.4456</ele>
        <time>2021-11-14T15:14:06Z</time>
      </trkpt>
      <trkpt lat="4.599164" lon="-75.150085">
        <ele>2377.8596</ele>
        <time>2021-11-14T15:14:08Z</time>
      </trkpt>
      <trkpt lat="4.599169" lon="-75.150093">
        <ele>2378.2852</ele>
        <time>2021-11-14T15:14:09Z</time>
      </trkpt>
      <trkpt lat="4.599139" lon="-75.150108">
        <ele>2376.6028</ele>
        <time>2021-11-14T15:14:10Z</time>
      </trkpt>
      <trkpt lat="4.599115" lon="-75.150131">
        <ele>2375.1973</ele>
        <time>2021-11-14T15:14:11Z</time>
      </trkpt>
      <trkpt lat="4.599079" lon="-75.150146">
        <ele>2375.5107</ele>
        <time>2021-11-14T15:14:12Z</time>
      </trkpt>
      <trkpt lat="4.599061" lon="-75.150154">
        <ele>2372.5696</ele>
        <time>2021-11-14T15:14:13Z</time>
      </trkpt>
      <trkpt lat="4.599004" lon="-75.150162">
        <ele>2368.8672</ele>
        <time>2021-11-14T15:14:14Z</time>
      </trkpt>
      <trkpt lat="4.598927" lon="-75.150185">
        <ele>2366.8801</ele>
        <time>2021-11-14T15:14:15Z</time>
      </trkpt>
      <trkpt lat="4.598915" lon="-75.150177">
        <ele>2366.0269</ele>
        <time>2021-11-14T15:14:16Z</time>
      </trkpt>
      <trkpt lat="4.598868" lon="-75.150185">
        <ele>2363.6978</ele>
        <time>2021-11-14T15:14:17Z</time>
      </trkpt>
      <trkpt lat="4.598833" lon="-75.150192">
        <ele>2363.487</ele>
        <time>2021-11-14T15:14:18Z</time>
      </trkpt>
      <trkpt lat="4.598772" lon="-75.150208">
        <ele>2364.5142</ele>
        <time>2021-11-14T15:14:19Z</time>
      </trkpt>
      <trkpt lat="4.598709" lon="-75.150215">
        <ele>2365.8286</ele>
        <time>2021-11-14T15:14:20Z</time>
      </trkpt>
      <trkpt lat="4.59863" lon="-75.15023">
        <ele>2367.3008</ele>
        <time>2021-11-14T15:14:21Z</time>
      </trkpt>
      <trkpt lat="4.598593" lon="-75.150238">
        <ele>2368.9229</ele>
        <time>2021-11-14T15:14:22Z</time>
      </trkpt>
      <trkpt lat="4.598493" lon="-75.150246">
        <ele>2369.4075</ele>
        <time>2021-11-14T15:14:23Z</time>
      </trkpt>
      <trkpt lat="4.598462" lon="-75.150246">
        <ele>2369.0332</ele>
        <time>2021-11-14T15:14:25Z</time>
      </trkpt>
      <trkpt lat="4.598292" lon="-75.150215">
        <ele>2368.9272</ele>
        <time>2021-11-14T15:14:26Z</time>
      </trkpt>
      <trkpt lat="4.598292" lon="-75.150215">
        <ele>2369.5254</ele>
        <time>2021-11-14T15:14:27Z</time>
      </trkpt>
      <trkpt lat="4.598379" lon="-75.15023">
        <ele>2369.1409</ele>
        <time>2021-11-14T15:14:28Z</time>
      </trkpt>
      <trkpt lat="4.598313" lon="-75.150246">
        <ele>2368.2717</ele>
        <time>2021-11-14T15:14:29Z</time>
      </trkpt>
      <trkpt lat="4.598276" lon="-75.150223">
        <ele>2366.5767</ele>
        <time>2021-11-14T15:14:30Z</time>
      </trkpt>
      <trkpt lat="4.598273" lon="-75.150261">
        <ele>2365.3726</ele>
        <time>2021-11-14T15:14:31Z</time>
      </trkpt>
      <trkpt lat="4.598201" lon="-75.150269">
        <ele>2366.5923</ele>
        <time>2021-11-14T15:14:32Z</time>
      </trkpt>
      <trkpt lat="4.598142" lon="-75.15023">
        <ele>2365.8157</ele>
        <time>2021-11-14T15:14:33Z</time>
      </trkpt>
      <trkpt lat="4.598085" lon="-75.150215">
        <ele>2366.022</ele>
        <time>2021-11-14T15:14:34Z</time>
      </trkpt>
      <trkpt lat="4.598051" lon="-75.150192">
        <ele>2365.0774</ele>
        <time>2021-11-14T15:14:35Z</time>
      </trkpt>
      <trkpt lat="4.598067" lon="-75.150177">
        <ele>2365.8372</ele>
        <time>2021-11-14T15:14:36Z</time>
      </trkpt>
      <trkpt lat="4.598033" lon="-75.150131">
        <ele>2363.6316</ele>
        <time>2021-11-14T15:14:37Z</time>
      </trkpt>
      <trkpt lat="4.598011" lon="-75.150085">
        <ele>2365.08</ele>
        <time>2021-11-14T15:14:38Z</time>
      </trkpt>
      <trkpt lat="4.597981" lon="-75.150024">
        <ele>2366.0825</ele>
        <time>2021-11-14T15:14:39Z</time>
      </trkpt>
      <trkpt lat="4.597981" lon="-75.150032">
        <ele>2367.2324</ele>
        <time>2021-11-14T15:14:40Z</time>
      </trkpt>
      <trkpt lat="4.597973" lon="-75.149895">
        <ele>2368.5479</ele>
        <time>2021-11-14T15:14:41Z</time>
      </trkpt>
      <trkpt lat="4.59797" lon="-75.149864">
        <ele>2368.3765</ele>
        <time>2021-11-14T15:14:42Z</time>
      </trkpt>
      <trkpt lat="4.597972" lon="-75.149803">
        <ele>2369.1438</ele>
        <time>2021-11-14T15:14:43Z</time>
      </trkpt>
      <trkpt lat="4.597958" lon="-75.149712">
        <ele>2369.2222</ele>
        <time>2021-11-14T15:14:44Z</time>
      </trkpt>
      <trkpt lat="4.597974" lon="-75.149597">
        <ele>2369.9905</ele>
        <time>2021-11-14T15:14:45Z</time>
      </trkpt>
      <trkpt lat="4.597958" lon="-75.149567">
        <ele>2371.078</ele>
        <time>2021-11-14T15:14:46Z</time>
      </trkpt>
      <trkpt lat="4.59784" lon="-75.149452">
        <ele>2373.4377</ele>
        <time>2021-11-14T15:14:48Z</time>
      </trkpt>
      <trkpt lat="4.597697" lon="-75.149376">
        <ele>2373.999</ele>
        <time>2021-11-14T15:14:49Z</time>
      </trkpt>
      <trkpt lat="4.597642" lon="-75.149368">
        <ele>2375.1543</ele>
        <time>2021-11-14T15:14:50Z</time>
      </trkpt>
      <trkpt lat="4.597572" lon="-75.149269">
        <ele>2375.9966</ele>
        <time>2021-11-14T15:14:51Z</time>
      </trkpt>
      <trkpt lat="4.597546" lon="-75.149231">
        <ele>2376.885</ele>
        <time>2021-11-14T15:14:52Z</time>
      </trkpt>
      <trkpt lat="4.597523" lon="-75.149155">
        <ele>2376.5686</ele>
        <time>2021-11-14T15:14:53Z</time>
      </trkpt>
      <trkpt lat="4.597502" lon="-75.149048">
        <ele>2378.6858</ele>
        <time>2021-11-14T15:14:54Z</time>
      </trkpt>
      <trkpt lat="4.597476" lon="-75.148949">
        <ele>2378.3137</ele>
        <time>2021-11-14T15:14:55Z</time>
      </trkpt>
      <trkpt lat="4.597471" lon="-75.148895">
        <ele>2378.2297</ele>
        <time>2021-11-14T15:14:56Z</time>
      </trkpt>
      <trkpt lat="4.597466" lon="-75.148796">
        <ele>2378.2524</ele>
        <time>2021-11-14T15:14:57Z</time>
      </trkpt>
      <trkpt lat="4.597454" lon="-75.148705">
        <ele>2378.6162</ele>
        <time>2021-11-14T15:14:58Z</time>
      </trkpt>
      <trkpt lat="4.597427" lon="-75.148621">
        <ele>2379.7932</ele>
        <time>2021-11-14T15:14:59Z</time>
      </trkpt>
      <trkpt lat="4.597402" lon="-75.148544">
        <ele>2382.1096</ele>
        <time>2021-11-14T15:15:00Z</time>
      </trkpt>
      <trkpt lat="4.597412" lon="-75.148491">
        <ele>2382.8306</ele>
        <time>2021-11-14T15:15:01Z</time>
      </trkpt>
      <trkpt lat="4.597402" lon="-75.148422">
        <ele>2383.704</ele>
        <time>2021-11-14T15:15:02Z</time>
      </trkpt>
      <trkpt lat="4.597425" lon="-75.148361">
        <ele>2382.9602</ele>
        <time>2021-11-14T15:15:03Z</time>
      </trkpt>
      <trkpt lat="4.597407" lon="-75.148331">
        <ele>2382.4011</ele>
        <time>2021-11-14T15:15:04Z</time>
      </trkpt>
      <trkpt lat="4.597432" lon="-75.148308">
        <ele>2383.403</ele>
        <time>2021-11-14T15:15:06Z</time>
      </trkpt>
      <trkpt lat="4.597459" lon="-75.1483">
        <ele>2384.423</ele>
        <time>2021-11-14T15:15:07Z</time>
      </trkpt>
      <trkpt lat="4.597461" lon="-75.14827">
        <ele>2385.2456</ele>
        <time>2021-11-14T15:15:08Z</time>
      </trkpt>
      <trkpt lat="4.597505" lon="-75.148232">
        <ele>2384.9597</ele>
        <time>2021-11-14T15:15:09Z</time>
      </trkpt>
      <trkpt lat="4.59759" lon="-75.148193">
        <ele>2385.275</ele>
        <time>2021-11-14T15:15:10Z</time>
      </trkpt>
      <trkpt lat="4.59758" lon="-75.148216">
        <ele>2384.98</ele>
        <time>2021-11-14T15:15:11Z</time>
      </trkpt>
      <trkpt lat="4.597608" lon="-75.148178">
        <ele>2384.8608</ele>
        <time>2021-11-14T15:15:12Z</time>
      </trkpt>
      <trkpt lat="4.597626" lon="-75.148132">
        <ele>2385.6536</ele>
        <time>2021-11-14T15:15:13Z</time>
      </trkpt>
      <trkpt lat="4.597626" lon="-75.148132">
        <ele>2386.0203</ele>
        <time>2021-11-14T15:15:14Z</time>
      </trkpt>
      <trkpt lat="4.59765" lon="-75.148064">
        <ele>2386.124</ele>
        <time>2021-11-14T15:15:15Z</time>
      </trkpt>
      <trkpt lat="4.59767" lon="-75.147995">
        <ele>2385.9553</ele>
        <time>2021-11-14T15:15:16Z</time>
      </trkpt>
      <trkpt lat="4.597706" lon="-75.147949">
        <ele>2385.8794</ele>
        <time>2021-11-14T15:15:17Z</time>
      </trkpt>
      <trkpt lat="4.597718" lon="-75.147942">
        <ele>2385.1228</ele>
        <time>2021-11-14T15:15:18Z</time>
      </trkpt>
      <trkpt lat="4.59775" lon="-75.147903">
        <ele>2384.6084</ele>
        <time>2021-11-14T15:15:19Z</time>
      </trkpt>
      <trkpt lat="4.597742" lon="-75.147934">
        <ele>2383.2776</ele>
        <time>2021-11-14T15:15:20Z</time>
      </trkpt>
      <trkpt lat="4.597813" lon="-75.147873">
        <ele>2382.9038</ele>
        <time>2021-11-14T15:15:21Z</time>
      </trkpt>
      <trkpt lat="4.597919" lon="-75.147835">
        <ele>2382.7607</ele>
        <time>2021-11-14T15:15:22Z</time>
      </trkpt>
      <trkpt lat="4.597999" lon="-75.147827">
        <ele>2380.878</ele>
        <time>2021-11-14T15:15:23Z</time>
      </trkpt>
      <trkpt lat="4.597991" lon="-75.147842">
        <ele>2380.196</ele>
        <time>2021-11-14T15:15:24Z</time>
      </trkpt>
      <trkpt lat="4.598088" lon="-75.147781">
        <ele>2380.4924</ele>
        <time>2021-11-14T15:15:25Z</time>
      </trkpt>
      <trkpt lat="4.598208" lon="-75.147713">
        <ele>2380.2747</ele>
        <time>2021-11-14T15:15:26Z</time>
      </trkpt>
      <trkpt lat="4.598281" lon="-75.147675">
        <ele>2380.8582</ele>
        <time>2021-11-14T15:15:27Z</time>
      </trkpt>
      <trkpt lat="4.598331" lon="-75.147636">
        <ele>2380.0642</ele>
        <time>2021-11-14T15:15:28Z</time>
      </trkpt>
      <trkpt lat="4.59842" lon="-75.147591">
        <ele>2379.258</ele>
        <time>2021-11-14T15:15:29Z</time>
      </trkpt>
      <trkpt lat="4.59854" lon="-75.147537">
        <ele>2378.8984</ele>
        <time>2021-11-14T15:15:30Z</time>
      </trkpt>
      <trkpt lat="4.598597" lon="-75.147499">
        <ele>2378.356</ele>
        <time>2021-11-14T15:15:31Z</time>
      </trkpt>
      <trkpt lat="4.598646" lon="-75.147461">
        <ele>2378.244</ele>
        <time>2021-11-14T15:15:32Z</time>
      </trkpt>
      <trkpt lat="4.598781" lon="-75.147354">
        <ele>2376.0347</ele>
        <time>2021-11-14T15:15:33Z</time>
      </trkpt>
      <trkpt lat="4.598892" lon="-75.147263">
        <ele>2375.2659</ele>
        <time>2021-11-14T15:15:34Z</time>
      </trkpt>
      <trkpt lat="4.598897" lon="-75.147263">
        <ele>2374.9143</ele>
        <time>2021-11-14T15:15:35Z</time>
      </trkpt>
      <trkpt lat="4.59896" lon="-75.147232">
        <ele>2376.9653</ele>
        <time>2021-11-14T15:15:36Z</time>
      </trkpt>
      <trkpt lat="4.599059" lon="-75.147186">
        <ele>2376.181</ele>
        <time>2021-11-14T15:15:38Z</time>
      </trkpt>
      <trkpt lat="4.599133" lon="-75.147171">
        <ele>2375.909</ele>
        <time>2021-11-14T15:15:39Z</time>
      </trkpt>
      <trkpt lat="4.599178" lon="-75.147156">
        <ele>2375.459</ele>
        <time>2021-11-14T15:15:40Z</time>
      </trkpt>
      <trkpt lat="4.599235" lon="-75.147087">
        <ele>2374.8198</ele>
        <time>2021-11-14T15:15:41Z</time>
      </trkpt>
      <trkpt lat="4.599274" lon="-75.146996">
        <ele>2374.4514</ele>
        <time>2021-11-14T15:15:42Z</time>
      </trkpt>
      <trkpt lat="4.599293" lon="-75.146919">
        <ele>2374.3818</ele>
        <time>2021-11-14T15:15:43Z</time>
      </trkpt>
      <trkpt lat="4.599299" lon="-75.14682">
        <ele>2375.285</ele>
        <time>2021-11-14T15:15:44Z</time>
      </trkpt>
      <trkpt lat="4.599311" lon="-75.146736">
        <ele>2375.4937</ele>
        <time>2021-11-14T15:15:45Z</time>
      </trkpt>
      <trkpt lat="4.599332" lon="-75.146675">
        <ele>2374.961</ele>
        <time>2021-11-14T15:15:46Z</time>
      </trkpt>
      <trkpt lat="4.599331" lon="-75.146675">
        <ele>2374.813</ele>
        <time>2021-11-14T15:15:47Z</time>
      </trkpt>
      <trkpt lat="4.599329" lon="-75.146637">
        <ele>2374.269</ele>
        <time>2021-11-14T15:15:49Z</time>
      </trkpt>
      <trkpt lat="4.59937" lon="-75.146576">
        <ele>2373.5286</ele>
        <time>2021-11-14T15:15:50Z</time>
      </trkpt>
      <trkpt lat="4.599395" lon="-75.146568">
        <ele>2372.8064</ele>
        <time>2021-11-14T15:15:51Z</time>
      </trkpt>
      <trkpt lat="4.599384" lon="-75.146584">
        <ele>2371.5361</ele>
        <time>2021-11-14T15:15:52Z</time>
      </trkpt>
      <trkpt lat="4.599416" lon="-75.146591">
        <ele>2370.9585</ele>
        <time>2021-11-14T15:15:53Z</time>
      </trkpt>
      <trkpt lat="4.599471" lon="-75.146576">
        <ele>2370.3193</ele>
        <time>2021-11-14T15:15:54Z</time>
      </trkpt>
      <trkpt lat="4.599533" lon="-75.146568">
        <ele>2369.466</ele>
        <time>2021-11-14T15:15:55Z</time>
      </trkpt>
      <trkpt lat="4.599556" lon="-75.146545">
        <ele>2369.8005</ele>
        <time>2021-11-14T15:15:56Z</time>
      </trkpt>
      <trkpt lat="4.599587" lon="-75.146538">
        <ele>2369.1228</ele>
        <time>2021-11-14T15:15:57Z</time>
      </trkpt>
      <trkpt lat="4.599605" lon="-75.14653">
        <ele>2368.5771</ele>
        <time>2021-11-14T15:15:58Z</time>
      </trkpt>
      <trkpt lat="4.599641" lon="-75.14653">
        <ele>2369.1558</ele>
        <time>2021-11-14T15:15:59Z</time>
      </trkpt>
      <trkpt lat="4.59974" lon="-75.146523">
        <ele>2369.6528</ele>
        <time>2021-11-14T15:16:00Z</time>
      </trkpt>
      <trkpt lat="4.599807" lon="-75.14653">
        <ele>2368.9187</ele>
        <time>2021-11-14T15:16:01Z</time>
      </trkpt>
      <trkpt lat="4.599903" lon="-75.146561">
        <ele>2369.9275</ele>
        <time>2021-11-14T15:16:02Z</time>
      </trkpt>
      <trkpt lat="4.599976" lon="-75.146599">
        <ele>2367.9739</ele>
        <time>2021-11-14T15:16:03Z</time>
      </trkpt>
      <trkpt lat="4.600001" lon="-75.146599">
        <ele>2369.0784</ele>
        <time>2021-11-14T15:16:04Z</time>
      </trkpt>
      <trkpt lat="4.600071" lon="-75.146606">
        <ele>2368.7424</ele>
        <time>2021-11-14T15:16:05Z</time>
      </trkpt>
      <trkpt lat="4.600168" lon="-75.146606">
        <ele>2368.2397</ele>
        <time>2021-11-14T15:16:06Z</time>
      </trkpt>
      <trkpt lat="4.600168" lon="-75.146606">
        <ele>2367.2405</ele>
        <time>2021-11-14T15:16:07Z</time>
      </trkpt>
      <trkpt lat="4.600207" lon="-75.146614">
        <ele>2367.0134</ele>
        <time>2021-11-14T15:16:08Z</time>
      </trkpt>
      <trkpt lat="4.600263" lon="-75.146652">
        <ele>2367.773</ele>
        <time>2021-11-14T15:16:09Z</time>
      </trkpt>
      <trkpt lat="4.600267" lon="-75.146606">
        <ele>2367.7253</ele>
        <time>2021-11-14T15:16:10Z</time>
      </trkpt>
      <trkpt lat="4.600302" lon="-75.146584">
        <ele>2367.4617</ele>
        <time>2021-11-14T15:16:11Z</time>
      </trkpt>
      <trkpt lat="4.600277" lon="-75.146538">
        <ele>2368.058</ele>
        <time>2021-11-14T15:16:12Z</time>
      </trkpt>
      <trkpt lat="4.600257" lon="-75.146477">
        <ele>2367.387</ele>
        <time>2021-11-14T15:16:13Z</time>
      </trkpt>
      <trkpt lat="4.600195" lon="-75.146439">
        <ele>2366.583</ele>
        <time>2021-11-14T15:16:14Z</time>
      </trkpt>
      <trkpt lat="4.600169" lon="-75.146393">
        <ele>2365.8926</ele>
        <time>2021-11-14T15:16:15Z</time>
      </trkpt>
      <trkpt lat="4.600131" lon="-75.146324">
        <ele>2365.831</ele>
        <time>2021-11-14T15:16:16Z</time>
      </trkpt>
      <trkpt lat="4.600103" lon="-75.14624">
        <ele>2364.644</ele>
        <time>2021-11-14T15:16:17Z</time>
      </trkpt>
      <trkpt lat="4.600107" lon="-75.146164">
        <ele>2365.753</ele>
        <time>2021-11-14T15:16:18Z</time>
      </trkpt>
      <trkpt lat="4.600113" lon="-75.146072">
        <ele>2366.2305</ele>
        <time>2021-11-14T15:16:19Z</time>
      </trkpt>
      <trkpt lat="4.600129" lon="-75.146004">
        <ele>2365.684</ele>
        <time>2021-11-14T15:16:20Z</time>
      </trkpt>
      <trkpt lat="4.600102" lon="-75.145927">
        <ele>2365.7947</ele>
        <time>2021-11-14T15:16:21Z</time>
      </trkpt>
      <trkpt lat="4.600142" lon="-75.145905">
        <ele>2364.563</ele>
        <time>2021-11-14T15:16:22Z</time>
      </trkpt>
      <trkpt lat="4.600204" lon="-75.145874">
        <ele>2364.7896</ele>
        <time>2021-11-14T15:16:23Z</time>
      </trkpt>
      <trkpt lat="4.600244" lon="-75.145836">
        <ele>2365.1436</ele>
        <time>2021-11-14T15:16:24Z</time>
      </trkpt>
      <trkpt lat="4.600257" lon="-75.145821">
        <ele>2365.1934</ele>
        <time>2021-11-14T15:16:25Z</time>
      </trkpt>
      <trkpt lat="4.600319" lon="-75.145782">
        <ele>2365.7761</ele>
        <time>2021-11-14T15:16:26Z</time>
      </trkpt>
      <trkpt lat="4.600382" lon="-75.14576">
        <ele>2365.3464</ele>
        <time>2021-11-14T15:16:27Z</time>
      </trkpt>
      <trkpt lat="4.600477" lon="-75.145668">
        <ele>2365.6565</ele>
        <time>2021-11-14T15:16:28Z</time>
      </trkpt>
      <trkpt lat="4.600482" lon="-75.145645">
        <ele>2366.2773</ele>
        <time>2021-11-14T15:16:29Z</time>
      </trkpt>
      <trkpt lat="4.60052" lon="-75.14563">
        <ele>2366.0798</ele>
        <time>2021-11-14T15:16:30Z</time>
      </trkpt>
      <trkpt lat="4.600588" lon="-75.145584">
        <ele>2365.004</ele>
        <time>2021-11-14T15:16:31Z</time>
      </trkpt>
      <trkpt lat="4.600592" lon="-75.145615">
        <ele>2365.7637</ele>
        <time>2021-11-14T15:16:32Z</time>
      </trkpt>
      <trkpt lat="4.60067" lon="-75.14563">
        <ele>2364.6074</ele>
        <time>2021-11-14T15:16:33Z</time>
      </trkpt>
      <trkpt lat="4.600743" lon="-75.145638">
        <ele>2364.3154</ele>
        <time>2021-11-14T15:16:35Z</time>
      </trkpt>
      <trkpt lat="4.600768" lon="-75.145653">
        <ele>2363.7708</ele>
        <time>2021-11-14T15:16:36Z</time>
      </trkpt>
      <trkpt lat="4.600768" lon="-75.145653">
        <ele>2364.2695</ele>
        <time>2021-11-14T15:16:37Z</time>
      </trkpt>
      <trkpt lat="4.600837" lon="-75.145653">
        <ele>2364.6418</ele>
        <time>2021-11-14T15:16:38Z</time>
      </trkpt>
      <trkpt lat="4.600846" lon="-75.145676">
        <ele>2364.3962</ele>
        <time>2021-11-14T15:16:39Z</time>
      </trkpt>
      <trkpt lat="4.600872" lon="-75.145676">
        <ele>2365.8838</ele>
        <time>2021-11-14T15:16:40Z</time>
      </trkpt>
      <trkpt lat="4.600888" lon="-75.145676">
        <ele>2364.56</ele>
        <time>2021-11-14T15:16:41Z</time>
      </trkpt>
      <trkpt lat="4.600909" lon="-75.145653">
        <ele>2364.7246</ele>
        <time>2021-11-14T15:16:42Z</time>
      </trkpt>
      <trkpt lat="4.600941" lon="-75.145638">
        <ele>2364.4075</ele>
        <time>2021-11-14T15:16:43Z</time>
      </trkpt>
      <trkpt lat="4.600949" lon="-75.145638">
        <ele>2363.3826</ele>
        <time>2021-11-14T15:16:44Z</time>
      </trkpt>
      <trkpt lat="4.600982" lon="-75.145561">
        <ele>2361.9717</ele>
        <time>2021-11-14T15:16:45Z</time>
      </trkpt>
      <trkpt lat="4.600985" lon="-75.145531">
        <ele>2361.603</ele>
        <time>2021-11-14T15:16:46Z</time>
      </trkpt>
      <trkpt lat="4.600988" lon="-75.145485">
        <ele>2361.2908</ele>
        <time>2021-11-14T15:16:47Z</time>
      </trkpt>
      <trkpt lat="4.600965" lon="-75.145401">
        <ele>2361.9634</ele>
        <time>2021-11-14T15:16:48Z</time>
      </trkpt>
      <trkpt lat="4.600896" lon="-75.145332">
        <ele>2360.6055</ele>
        <time>2021-11-14T15:16:49Z</time>
      </trkpt>
      <trkpt lat="4.60085" lon="-75.145279">
        <ele>2360.235</ele>
        <time>2021-11-14T15:16:50Z</time>
      </trkpt>
      <trkpt lat="4.600793" lon="-75.145226">
        <ele>2360.5078</ele>
        <time>2021-11-14T15:16:51Z</time>
      </trkpt>
      <trkpt lat="4.600741" lon="-75.145187">
        <ele>2359.8958</ele>
        <time>2021-11-14T15:16:52Z</time>
      </trkpt>
      <trkpt lat="4.600702" lon="-75.145142">
        <ele>2360.4883</ele>
        <time>2021-11-14T15:16:53Z</time>
      </trkpt>
      <trkpt lat="4.60065" lon="-75.145096">
        <ele>2359.372</ele>
        <time>2021-11-14T15:16:54Z</time>
      </trkpt>
      <trkpt lat="4.60059" lon="-75.145027">
        <ele>2357.5562</ele>
        <time>2021-11-14T15:16:55Z</time>
      </trkpt>
      <trkpt lat="4.60055" lon="-75.144958">
        <ele>2357.9167</ele>
        <time>2021-11-14T15:16:56Z</time>
      </trkpt>
      <trkpt lat="4.600504" lon="-75.14492">
        <ele>2358.0732</ele>
        <time>2021-11-14T15:16:57Z</time>
      </trkpt>
      <trkpt lat="4.600476" lon="-75.144852">
        <ele>2356.857</ele>
        <time>2021-11-14T15:16:58Z</time>
      </trkpt>
      <trkpt lat="4.600448" lon="-75.144806">
        <ele>2356.5261</ele>
        <time>2021-11-14T15:16:59Z</time>
      </trkpt>
      <trkpt lat="4.600402" lon="-75.144753">
        <ele>2355.5173</ele>
        <time>2021-11-14T15:17:00Z</time>
      </trkpt>
      <trkpt lat="4.600404" lon="-75.144699">
        <ele>2354.8</ele>
        <time>2021-11-14T15:17:01Z</time>
      </trkpt>
      <trkpt lat="4.600403" lon="-75.144638">
        <ele>2354.9644</ele>
        <time>2021-11-14T15:17:02Z</time>
      </trkpt>
      <trkpt lat="4.600426" lon="-75.144615">
        <ele>2354.5217</ele>
        <time>2021-11-14T15:17:03Z</time>
      </trkpt>
      <trkpt lat="4.600448" lon="-75.144547">
        <ele>2354.263</ele>
        <time>2021-11-14T15:17:04Z</time>
      </trkpt>
      <trkpt lat="4.600448" lon="-75.144547">
        <ele>2353.541</ele>
        <time>2021-11-14T15:17:05Z</time>
      </trkpt>
      <trkpt lat="4.600525" lon="-75.14447">
        <ele>2353.2256</ele>
        <time>2021-11-14T15:17:06Z</time>
      </trkpt>
      <trkpt lat="4.600509" lon="-75.144485">
        <ele>2352.4092</ele>
        <time>2021-11-14T15:17:07Z</time>
      </trkpt>
      <trkpt lat="4.600524" lon="-75.144478">
        <ele>2352.7268</ele>
        <time>2021-11-14T15:17:08Z</time>
      </trkpt>
      <trkpt lat="4.600595" lon="-75.144409">
        <ele>2352.8896</ele>
        <time>2021-11-14T15:17:09Z</time>
      </trkpt>
      <trkpt lat="4.600634" lon="-75.144371">
        <ele>2352.9216</ele>
        <time>2021-11-14T15:17:10Z</time>
      </trkpt>
      <trkpt lat="4.600659" lon="-75.144371">
        <ele>2353.19</ele>
        <time>2021-11-14T15:17:11Z</time>
      </trkpt>
      <trkpt lat="4.60066" lon="-75.144379">
        <ele>2353.5005</ele>
        <time>2021-11-14T15:17:12Z</time>
      </trkpt>
      <trkpt lat="4.600695" lon="-75.144348">
        <ele>2353.4055</ele>
        <time>2021-11-14T15:17:13Z</time>
      </trkpt>
      <trkpt lat="4.600716" lon="-75.144325">
        <ele>2352.554</ele>
        <time>2021-11-14T15:17:14Z</time>
      </trkpt>
      <trkpt lat="4.600752" lon="-75.144295">
        <ele>2352.4968</ele>
        <time>2021-11-14T15:17:15Z</time>
      </trkpt>
      <trkpt lat="4.600777" lon="-75.144272">
        <ele>2352.7085</ele>
        <time>2021-11-14T15:17:16Z</time>
      </trkpt>
      <trkpt lat="4.6008" lon="-75.144257">
        <ele>2352.5889</ele>
        <time>2021-11-14T15:17:17Z</time>
      </trkpt>
      <trkpt lat="4.600831" lon="-75.144249">
        <ele>2352.6714</ele>
        <time>2021-11-14T15:17:18Z</time>
      </trkpt>
      <trkpt lat="4.600869" lon="-75.144226">
        <ele>2352.4026</ele>
        <time>2021-11-14T15:17:19Z</time>
      </trkpt>
      <trkpt lat="4.600925" lon="-75.144196">
        <ele>2351.7056</ele>
        <time>2021-11-14T15:17:20Z</time>
      </trkpt>
      <trkpt lat="4.600997" lon="-75.144157">
        <ele>2351.727</ele>
        <time>2021-11-14T15:17:21Z</time>
      </trkpt>
      <trkpt lat="4.601066" lon="-75.144112">
        <ele>2351.179</ele>
        <time>2021-11-14T15:17:22Z</time>
      </trkpt>
      <trkpt lat="4.601129" lon="-75.144073">
        <ele>2351.5168</ele>
        <time>2021-11-14T15:17:23Z</time>
      </trkpt>
      <trkpt lat="4.601228" lon="-75.143944">
        <ele>2350.2578</ele>
        <time>2021-11-14T15:17:24Z</time>
      </trkpt>
      <trkpt lat="4.601259" lon="-75.143837">
        <ele>2352.5813</ele>
        <time>2021-11-14T15:17:25Z</time>
      </trkpt>
      <trkpt lat="4.601248" lon="-75.143768">
        <ele>2353.3599</ele>
        <time>2021-11-14T15:17:26Z</time>
      </trkpt>
      <trkpt lat="4.601304" lon="-75.143715">
        <ele>2353.2837</ele>
        <time>2021-11-14T15:17:27Z</time>
      </trkpt>
      <trkpt lat="4.601315" lon="-75.143738">
        <ele>2354.1814</ele>
        <time>2021-11-14T15:17:28Z</time>
      </trkpt>
      <trkpt lat="4.601327" lon="-75.14373">
        <ele>2354.4863</ele>
        <time>2021-11-14T15:17:29Z</time>
      </trkpt>
      <trkpt lat="4.601341" lon="-75.143723">
        <ele>2353.6562</ele>
        <time>2021-11-14T15:17:30Z</time>
      </trkpt>
      <trkpt lat="4.601347" lon="-75.143715">
        <ele>2353.349</ele>
        <time>2021-11-14T15:17:31Z</time>
      </trkpt>
      <trkpt lat="4.601347" lon="-75.143715">
        <ele>2353.847</ele>
        <time>2021-11-14T15:17:32Z</time>
      </trkpt>
      <trkpt lat="4.601353" lon="-75.143715">
        <ele>2354.039</ele>
        <time>2021-11-14T15:17:33Z</time>
      </trkpt>
      <trkpt lat="4.601357" lon="-75.143715">
        <ele>2354.4</ele>
        <time>2021-11-14T15:17:34Z</time>
      </trkpt>
      <trkpt lat="4.601359" lon="-75.143715">
        <ele>2354.8083</ele>
        <time>2021-11-14T15:17:35Z</time>
      </trkpt>
      <trkpt lat="4.601363" lon="-75.143715">
        <ele>2354.7742</ele>
        <time>2021-11-14T15:17:36Z</time>
      </trkpt>
      <trkpt lat="4.601364" lon="-75.143715">
        <ele>2354.5906</ele>
        <time>2021-11-14T15:17:37Z</time>
      </trkpt>
      <trkpt lat="4.601367" lon="-75.143715">
        <ele>2354.3594</ele>
        <time>2021-11-14T15:17:38Z</time>
      </trkpt>
      <trkpt lat="4.601369" lon="-75.143723">
        <ele>2354.0361</ele>
        <time>2021-11-14T15:17:39Z</time>
      </trkpt>
      <trkpt lat="4.60137" lon="-75.143723">
        <ele>2354.244</ele>
        <time>2021-11-14T15:17:40Z</time>
      </trkpt>
      <trkpt lat="4.601372" lon="-75.143723">
        <ele>2354.1572</ele>
        <time>2021-11-14T15:17:41Z</time>
      </trkpt>
      <trkpt lat="4.601374" lon="-75.143723">
        <ele>2354.127</ele>
        <time>2021-11-14T15:17:42Z</time>
      </trkpt>
      <trkpt lat="4.601374" lon="-75.14373">
        <ele>2354.1401</ele>
        <time>2021-11-14T15:17:43Z</time>
      </trkpt>
      <trkpt lat="4.601375" lon="-75.14373">
        <ele>2354.1995</ele>
        <time>2021-11-14T15:17:44Z</time>
      </trkpt>
      <trkpt lat="4.601376" lon="-75.14373">
        <ele>2354.2668</ele>
        <time>2021-11-14T15:17:45Z</time>
      </trkpt>
      <trkpt lat="4.601376" lon="-75.14373">
        <ele>2354.304</ele>
        <time>2021-11-14T15:17:46Z</time>
      </trkpt>
      <trkpt lat="4.601377" lon="-75.14373">
        <ele>2354.3027</ele>
        <time>2021-11-14T15:17:47Z</time>
      </trkpt>
      <trkpt lat="4.601377" lon="-75.14373">
        <ele>2354.3347</ele>
        <time>2021-11-14T15:17:49Z</time>
      </trkpt>
      <trkpt lat="4.601377" lon="-75.14373">
        <ele>2354.2998</ele>
        <time>2021-11-14T15:17:50Z</time>
      </trkpt>
      <trkpt lat="4.601378" lon="-75.14373">
        <ele>2354.2961</ele>
        <time>2021-11-14T15:17:51Z</time>
      </trkpt>
      <trkpt lat="4.601378" lon="-75.14373">
        <ele>2354.2937</ele>
        <time>2021-11-14T15:17:52Z</time>
      </trkpt>
      <trkpt lat="4.601378" lon="-75.14373">
        <ele>2354.2944</ele>
        <time>2021-11-14T15:17:53Z</time>
      </trkpt>
      <trkpt lat="4.601378" lon="-75.14373">
        <ele>2354.2922</ele>
        <time>2021-11-14T15:17:54Z</time>
      </trkpt>
      <trkpt lat="4.601378" lon="-75.14373">
        <ele>2354.3245</ele>
        <time>2021-11-14T15:17:55Z</time>
      </trkpt>
      <trkpt lat="4.601378" lon="-75.14373">
        <ele>2354.3083</ele>
        <time>2021-11-14T15:17:56Z</time>
      </trkpt>
      <trkpt lat="4.601466" lon="-75.143661">
        <ele>2354.4895</ele>
        <time>2021-11-14T15:17:57Z</time>
      </trkpt>
      <trkpt lat="4.601456" lon="-75.143677">
        <ele>2354.1895</ele>
        <time>2021-11-14T15:17:58Z</time>
      </trkpt>
      <trkpt lat="4.601496" lon="-75.143654">
        <ele>2355.2063</ele>
        <time>2021-11-14T15:17:59Z</time>
      </trkpt>
      <trkpt lat="4.601529" lon="-75.143631">
        <ele>2355.9248</ele>
        <time>2021-11-14T15:18:00Z</time>
      </trkpt>
      <trkpt lat="4.60154" lon="-75.143608">
        <ele>2357.254</ele>
        <time>2021-11-14T15:18:01Z</time>
      </trkpt>
      <trkpt lat="4.601555" lon="-75.143578">
        <ele>2357.3828</ele>
        <time>2021-11-14T15:18:02Z</time>
      </trkpt>
      <trkpt lat="4.601555" lon="-75.143578">
        <ele>2357.2085</ele>
        <time>2021-11-14T15:18:03Z</time>
      </trkpt>
      <trkpt lat="4.601579" lon="-75.143562">
        <ele>2357.2014</ele>
        <time>2021-11-14T15:18:04Z</time>
      </trkpt>
      <trkpt lat="4.601668" lon="-75.143509">
        <ele>2357.831</ele>
        <time>2021-11-14T15:18:05Z</time>
      </trkpt>
      <trkpt lat="4.601658" lon="-75.143494">
        <ele>2358.1438</ele>
        <time>2021-11-14T15:18:06Z</time>
      </trkpt>
      <trkpt lat="4.601681" lon="-75.14344">
        <ele>2357.9348</ele>
        <time>2021-11-14T15:18:07Z</time>
      </trkpt>
      <trkpt lat="4.601678" lon="-75.143402">
        <ele>2357.553</ele>
        <time>2021-11-14T15:18:08Z</time>
      </trkpt>
      <trkpt lat="4.601692" lon="-75.143333">
        <ele>2357.7368</ele>
        <time>2021-11-14T15:18:09Z</time>
      </trkpt>
      <trkpt lat="4.601689" lon="-75.143295">
        <ele>2357.935</ele>
        <time>2021-11-14T15:18:10Z</time>
      </trkpt>
      <trkpt lat="4.601687" lon="-75.143242">
        <ele>2356.9644</ele>
        <time>2021-11-14T15:18:11Z</time>
      </trkpt>
      <trkpt lat="4.601691" lon="-75.143257">
        <ele>2356.917</ele>
        <time>2021-11-14T15:18:12Z</time>
      </trkpt>
      <trkpt lat="4.601694" lon="-75.143257">
        <ele>2356.6145</ele>
        <time>2021-11-14T15:18:13Z</time>
      </trkpt>
      <trkpt lat="4.601695" lon="-75.14325">
        <ele>2356.4712</ele>
        <time>2021-11-14T15:18:14Z</time>
      </trkpt>
      <trkpt lat="4.601694" lon="-75.14325">
        <ele>2356.4465</ele>
        <time>2021-11-14T15:18:15Z</time>
      </trkpt>
      <trkpt lat="4.601695" lon="-75.14325">
        <ele>2356.2534</ele>
        <time>2021-11-14T15:18:16Z</time>
      </trkpt>
      <trkpt lat="4.601696" lon="-75.143242">
        <ele>2356.3845</ele>
        <time>2021-11-14T15:18:17Z</time>
      </trkpt>
      <trkpt lat="4.601697" lon="-75.143242">
        <ele>2356.664</ele>
        <time>2021-11-14T15:18:18Z</time>
      </trkpt>
      <trkpt lat="4.601699" lon="-75.143242">
        <ele>2356.422</ele>
        <time>2021-11-14T15:18:19Z</time>
      </trkpt>
      <trkpt lat="4.601702" lon="-75.143242">
        <ele>2356.6128</ele>
        <time>2021-11-14T15:18:20Z</time>
      </trkpt>
      <trkpt lat="4.601703" lon="-75.143242">
        <ele>2356.3306</ele>
        <time>2021-11-14T15:18:21Z</time>
      </trkpt>
      <trkpt lat="4.601707" lon="-75.143242">
        <ele>2356.4124</ele>
        <time>2021-11-14T15:18:22Z</time>
      </trkpt>
      <trkpt lat="4.601707" lon="-75.143242">
        <ele>2356.1682</ele>
        <time>2021-11-14T15:18:23Z</time>
      </trkpt>
      <trkpt lat="4.601707" lon="-75.143242">
        <ele>2356.1895</ele>
        <time>2021-11-14T15:18:24Z</time>
      </trkpt>
      <trkpt lat="4.601707" lon="-75.143242">
        <ele>2356.2214</ele>
        <time>2021-11-14T15:18:25Z</time>
      </trkpt>
      <trkpt lat="4.601707" lon="-75.143242">
        <ele>2356.205</ele>
        <time>2021-11-14T15:18:26Z</time>
      </trkpt>
      <trkpt lat="4.601707" lon="-75.143242">
        <ele>2356.2332</ele>
        <time>2021-11-14T15:18:27Z</time>
      </trkpt>
      <trkpt lat="4.601707" lon="-75.143242">
        <ele>2356.2258</ele>
        <time>2021-11-14T15:18:28Z</time>
      </trkpt>
      <trkpt lat="4.601707" lon="-75.143242">
        <ele>2356.2197</ele>
        <time>2021-11-14T15:18:29Z</time>
      </trkpt>
      <trkpt lat="4.601707" lon="-75.143242">
        <ele>2356.2231</ele>
        <time>2021-11-14T15:18:30Z</time>
      </trkpt>
      <trkpt lat="4.601707" lon="-75.143242">
        <ele>2356.2207</ele>
        <time>2021-11-14T15:18:31Z</time>
      </trkpt>
      <trkpt lat="4.601707" lon="-75.143242">
        <ele>2356.2246</ele>
        <time>2021-11-14T15:18:32Z</time>
      </trkpt>
      <trkpt lat="4.601707" lon="-75.143242">
        <ele>2356.2278</ele>
        <time>2021-11-14T15:18:33Z</time>
      </trkpt>
      <trkpt lat="4.601707" lon="-75.143242">
        <ele>2356.2488</ele>
        <time>2021-11-14T15:18:34Z</time>
      </trkpt>
      <trkpt lat="4.601707" lon="-75.143242">
        <ele>2356.2974</ele>
        <time>2021-11-14T15:18:35Z</time>
      </trkpt>
      <trkpt lat="4.601707" lon="-75.143242">
        <ele>2356.3093</ele>
        <time>2021-11-14T15:18:36Z</time>
      </trkpt>
      <trkpt lat="4.601707" lon="-75.143242">
        <ele>2356.3315</ele>
        <time>2021-11-14T15:18:37Z</time>
      </trkpt>
      <trkpt lat="4.601707" lon="-75.143242">
        <ele>2356.3284</ele>
        <time>2021-11-14T15:18:38Z</time>
      </trkpt>
      <trkpt lat="4.601707" lon="-75.143242">
        <ele>2356.323</ele>
        <time>2021-11-14T15:18:39Z</time>
      </trkpt>
      <trkpt lat="4.601707" lon="-75.143242">
        <ele>2356.3184</ele>
        <time>2021-11-14T15:18:40Z</time>
      </trkpt>
      <trkpt lat="4.601707" lon="-75.143242">
        <ele>2356.3188</ele>
        <time>2021-11-14T15:18:41Z</time>
      </trkpt>
      <trkpt lat="4.601707" lon="-75.143242">
        <ele>2356.3228</ele>
        <time>2021-11-14T15:18:42Z</time>
      </trkpt>
      <trkpt lat="4.601707" lon="-75.143242">
        <ele>2356.0999</ele>
        <time>2021-11-14T15:18:43Z</time>
      </trkpt>
      <trkpt lat="4.601709" lon="-75.143219">
        <ele>2356.2947</ele>
        <time>2021-11-14T15:18:44Z</time>
      </trkpt>
      <trkpt lat="4.601712" lon="-75.14315">
        <ele>2356.307</ele>
        <time>2021-11-14T15:18:45Z</time>
      </trkpt>
      <trkpt lat="4.601723" lon="-75.14312">
        <ele>2356.9011</ele>
        <time>2021-11-14T15:18:46Z</time>
      </trkpt>
      <trkpt lat="4.601757" lon="-75.143089">
        <ele>2356.2866</ele>
        <time>2021-11-14T15:18:47Z</time>
      </trkpt>
      <trkpt lat="4.601784" lon="-75.143059">
        <ele>2355.9902</ele>
        <time>2021-11-14T15:18:48Z</time>
      </trkpt>
      <trkpt lat="4.601856" lon="-75.14299">
        <ele>2355.027</ele>
        <time>2021-11-14T15:18:49Z</time>
      </trkpt>
      <trkpt lat="4.6019" lon="-75.142914">
        <ele>2355.0068</ele>
        <time>2021-11-14T15:18:50Z</time>
      </trkpt>
      <trkpt lat="4.601918" lon="-75.142845">
        <ele>2354.859</ele>
        <time>2021-11-14T15:18:51Z</time>
      </trkpt>
      <trkpt lat="4.601944" lon="-75.142746">
        <ele>2354.419</ele>
        <time>2021-11-14T15:18:52Z</time>
      </trkpt>
      <trkpt lat="4.601938" lon="-75.142708">
        <ele>2354.6462</ele>
        <time>2021-11-14T15:18:53Z</time>
      </trkpt>
      <trkpt lat="4.601947" lon="-75.142723">
        <ele>2353.872</ele>
        <time>2021-11-14T15:18:54Z</time>
      </trkpt>
      <trkpt lat="4.601949" lon="-75.142723">
        <ele>2353.9883</ele>
        <time>2021-11-14T15:18:55Z</time>
      </trkpt>
      <trkpt lat="4.601954" lon="-75.142677">
        <ele>2353.6218</ele>
        <time>2021-11-14T15:18:56Z</time>
      </trkpt>
      <trkpt lat="4.601967" lon="-75.142632">
        <ele>2352.6013</ele>
        <time>2021-11-14T15:18:57Z</time>
      </trkpt>
      <trkpt lat="4.601985" lon="-75.142601">
        <ele>2352.199</ele>
        <time>2021-11-14T15:18:58Z</time>
      </trkpt>
      <trkpt lat="4.601981" lon="-75.142593">
        <ele>2353.6978</ele>
        <time>2021-11-14T15:18:59Z</time>
      </trkpt>
      <trkpt lat="4.601981" lon="-75.142593">
        <ele>2353.5396</ele>
        <time>2021-11-14T15:19:00Z</time>
      </trkpt>
      <trkpt lat="4.601984" lon="-75.14257">
        <ele>2354.2422</ele>
        <time>2021-11-14T15:19:02Z</time>
      </trkpt>
      <trkpt lat="4.601986" lon="-75.142555">
        <ele>2353.583</ele>
        <time>2021-11-14T15:19:03Z</time>
      </trkpt>
      <trkpt lat="4.601986" lon="-75.142509">
        <ele>2354.1987</ele>
        <time>2021-11-14T15:19:04Z</time>
      </trkpt>
      <trkpt lat="4.601991" lon="-75.142494">
        <ele>2354.6646</ele>
        <time>2021-11-14T15:19:05Z</time>
      </trkpt>
      <trkpt lat="4.601999" lon="-75.142441">
        <ele>2354.4558</ele>
        <time>2021-11-14T15:19:06Z</time>
      </trkpt>
      <trkpt lat="4.601997" lon="-75.142433">
        <ele>2353.7002</ele>
        <time>2021-11-14T15:19:07Z</time>
      </trkpt>
      <trkpt lat="4.601995" lon="-75.142433">
        <ele>2353.2297</ele>
        <time>2021-11-14T15:19:08Z</time>
      </trkpt>
      <trkpt lat="4.601988" lon="-75.14238">
        <ele>2353.9548</ele>
        <time>2021-11-14T15:19:09Z</time>
      </trkpt>
      <trkpt lat="4.601982" lon="-75.142334">
        <ele>2352.8362</ele>
        <time>2021-11-14T15:19:10Z</time>
      </trkpt>
      <trkpt lat="4.601976" lon="-75.142311">
        <ele>2353.2354</ele>
        <time>2021-11-14T15:19:11Z</time>
      </trkpt>
      <trkpt lat="4.601965" lon="-75.142281">
        <ele>2352.9763</ele>
        <time>2021-11-14T15:19:12Z</time>
      </trkpt>
      <trkpt lat="4.601953" lon="-75.14225">
        <ele>2352.803</ele>
        <time>2021-11-14T15:19:13Z</time>
      </trkpt>
      <trkpt lat="4.60194" lon="-75.142212">
        <ele>2352.611</ele>
        <time>2021-11-14T15:19:14Z</time>
      </trkpt>
      <trkpt lat="4.60192" lon="-75.142136">
        <ele>2352.9421</ele>
        <time>2021-11-14T15:19:15Z</time>
      </trkpt>
      <trkpt lat="4.6019" lon="-75.142052">
        <ele>2353.5906</ele>
        <time>2021-11-14T15:19:16Z</time>
      </trkpt>
      <trkpt lat="4.601896" lon="-75.142021">
        <ele>2354.5276</ele>
        <time>2021-11-14T15:19:17Z</time>
      </trkpt>
      <trkpt lat="4.601903" lon="-75.141945">
        <ele>2355.1995</ele>
        <time>2021-11-14T15:19:18Z</time>
      </trkpt>
      <trkpt lat="4.601952" lon="-75.141869">
        <ele>2354.8281</ele>
        <time>2021-11-14T15:19:19Z</time>
      </trkpt>
      <trkpt lat="4.601989" lon="-75.141785">
        <ele>2354.0403</ele>
        <time>2021-11-14T15:19:20Z</time>
      </trkpt>
      <trkpt lat="4.602041" lon="-75.141685">
        <ele>2354.4944</ele>
        <time>2021-11-14T15:19:21Z</time>
      </trkpt>
      <trkpt lat="4.602071" lon="-75.141602">
        <ele>2354.5908</ele>
        <time>2021-11-14T15:19:22Z</time>
      </trkpt>
      <trkpt lat="4.602103" lon="-75.141479">
        <ele>2353.973</ele>
        <time>2021-11-14T15:19:23Z</time>
      </trkpt>
      <trkpt lat="4.602142" lon="-75.141396">
        <ele>2351.3525</ele>
        <time>2021-11-14T15:19:24Z</time>
      </trkpt>
      <trkpt lat="4.602177" lon="-75.141342">
        <ele>2351.6108</ele>
        <time>2021-11-14T15:19:25Z</time>
      </trkpt>
      <trkpt lat="4.602204" lon="-75.141235">
        <ele>2351.8354</ele>
        <time>2021-11-14T15:19:26Z</time>
      </trkpt>
      <trkpt lat="4.602197" lon="-75.141159">
        <ele>2351.7222</ele>
        <time>2021-11-14T15:19:27Z</time>
      </trkpt>
      <trkpt lat="4.602177" lon="-75.141037">
        <ele>2350.988</ele>
        <time>2021-11-14T15:19:28Z</time>
      </trkpt>
      <trkpt lat="4.602158" lon="-75.140953">
        <ele>2349.8801</ele>
        <time>2021-11-14T15:19:29Z</time>
      </trkpt>
      <trkpt lat="4.602158" lon="-75.140953">
        <ele>2349.16</ele>
        <time>2021-11-14T15:19:30Z</time>
      </trkpt>
      <trkpt lat="4.602131" lon="-75.140854">
        <ele>2347.2761</ele>
        <time>2021-11-14T15:19:31Z</time>
      </trkpt>
      <trkpt lat="4.602103" lon="-75.140762">
        <ele>2346.994</ele>
        <time>2021-11-14T15:19:32Z</time>
      </trkpt>
      <trkpt lat="4.602076" lon="-75.140717">
        <ele>2345.093</ele>
        <time>2021-11-14T15:19:33Z</time>
      </trkpt>
      <trkpt lat="4.602027" lon="-75.140656">
        <ele>2345.5667</ele>
        <time>2021-11-14T15:19:34Z</time>
      </trkpt>
      <trkpt lat="4.601979" lon="-75.140594">
        <ele>2345.4692</ele>
        <time>2021-11-14T15:19:35Z</time>
      </trkpt>
      <trkpt lat="4.601931" lon="-75.140526">
        <ele>2343.8813</ele>
        <time>2021-11-14T15:19:36Z</time>
      </trkpt>
      <trkpt lat="4.601932" lon="-75.140488">
        <ele>2343.7712</ele>
        <time>2021-11-14T15:19:37Z</time>
      </trkpt>
      <trkpt lat="4.601905" lon="-75.140427">
        <ele>2342.7036</ele>
        <time>2021-11-14T15:19:38Z</time>
      </trkpt>
      <trkpt lat="4.601892" lon="-75.140327">
        <ele>2341.2368</ele>
        <time>2021-11-14T15:19:39Z</time>
      </trkpt>
      <trkpt lat="4.601894" lon="-75.140205">
        <ele>2341.4666</ele>
        <time>2021-11-14T15:19:40Z</time>
      </trkpt>
      <trkpt lat="4.601895" lon="-75.14016">
        <ele>2341.272</ele>
        <time>2021-11-14T15:19:41Z</time>
      </trkpt>
      <trkpt lat="4.601887" lon="-75.140106">
        <ele>2340.4536</ele>
        <time>2021-11-14T15:19:42Z</time>
      </trkpt>
      <trkpt lat="4.60189" lon="-75.140083">
        <ele>2340.5334</ele>
        <time>2021-11-14T15:19:43Z</time>
      </trkpt>
      <trkpt lat="4.601932" lon="-75.140045">
        <ele>2340.7327</ele>
        <time>2021-11-14T15:19:44Z</time>
      </trkpt>
      <trkpt lat="4.601979" lon="-75.140015">
        <ele>2340.8203</ele>
        <time>2021-11-14T15:19:45Z</time>
      </trkpt>
      <trkpt lat="4.601998" lon="-75.139984">
        <ele>2342.0103</ele>
        <time>2021-11-14T15:19:46Z</time>
      </trkpt>
      <trkpt lat="4.602074" lon="-75.140045">
        <ele>2341.2388</ele>
        <time>2021-11-14T15:19:47Z</time>
      </trkpt>
      <trkpt lat="4.602152" lon="-75.14003">
        <ele>2341.0469</ele>
        <time>2021-11-14T15:19:48Z</time>
      </trkpt>
      <trkpt lat="4.602257" lon="-75.140045">
        <ele>2341.7314</ele>
        <time>2021-11-14T15:19:49Z</time>
      </trkpt>
      <trkpt lat="4.602259" lon="-75.140045">
        <ele>2342.3625</ele>
        <time>2021-11-14T15:19:50Z</time>
      </trkpt>
      <trkpt lat="4.602269" lon="-75.14003">
        <ele>2342.273</ele>
        <time>2021-11-14T15:19:51Z</time>
      </trkpt>
      <trkpt lat="4.602349" lon="-75.139992">
        <ele>2342.1907</ele>
        <time>2021-11-14T15:19:52Z</time>
      </trkpt>
      <trkpt lat="4.602428" lon="-75.139984">
        <ele>2341.019</ele>
        <time>2021-11-14T15:19:53Z</time>
      </trkpt>
      <trkpt lat="4.602489" lon="-75.139969">
        <ele>2339.1113</ele>
        <time>2021-11-14T15:19:54Z</time>
      </trkpt>
      <trkpt lat="4.60257" lon="-75.139961">
        <ele>2337.9626</ele>
        <time>2021-11-14T15:19:55Z</time>
      </trkpt>
      <trkpt lat="4.6027" lon="-75.139854">
        <ele>2336.6401</ele>
        <time>2021-11-14T15:19:56Z</time>
      </trkpt>
      <trkpt lat="4.6027" lon="-75.139854">
        <ele>2336.7358</ele>
        <time>2021-11-14T15:19:57Z</time>
      </trkpt>
      <trkpt lat="4.602706" lon="-75.139832">
        <ele>2336.6584</ele>
        <time>2021-11-14T15:19:58Z</time>
      </trkpt>
      <trkpt lat="4.602737" lon="-75.139801">
        <ele>2335.8333</ele>
        <time>2021-11-14T15:19:59Z</time>
      </trkpt>
      <trkpt lat="4.602787" lon="-75.139778">
        <ele>2334.8682</ele>
        <time>2021-11-14T15:20:00Z</time>
      </trkpt>
      <trkpt lat="4.602866" lon="-75.139748">
        <ele>2332.7837</ele>
        <time>2021-11-14T15:20:01Z</time>
      </trkpt>
      <trkpt lat="4.602903" lon="-75.139748">
        <ele>2332.5015</ele>
        <time>2021-11-14T15:20:02Z</time>
      </trkpt>
      <trkpt lat="4.602942" lon="-75.139771">
        <ele>2331.8696</ele>
        <time>2021-11-14T15:20:03Z</time>
      </trkpt>
      <trkpt lat="4.603026" lon="-75.139778">
        <ele>2332.0208</ele>
        <time>2021-11-14T15:20:04Z</time>
      </trkpt>
      <trkpt lat="4.603041" lon="-75.139824">
        <ele>2329.9226</ele>
        <time>2021-11-14T15:20:05Z</time>
      </trkpt>
      <trkpt lat="4.603097" lon="-75.139885">
        <ele>2328.6714</ele>
        <time>2021-11-14T15:20:06Z</time>
      </trkpt>
      <trkpt lat="4.603161" lon="-75.139923">
        <ele>2330.0288</ele>
        <time>2021-11-14T15:20:07Z</time>
      </trkpt>
      <trkpt lat="4.60322" lon="-75.139977">
        <ele>2329.4497</ele>
        <time>2021-11-14T15:20:08Z</time>
      </trkpt>
      <trkpt lat="4.603238" lon="-75.140053">
        <ele>2328.6262</ele>
        <time>2021-11-14T15:20:10Z</time>
      </trkpt>
      <trkpt lat="4.60329" lon="-75.140053">
        <ele>2328.045</ele>
        <time>2021-11-14T15:20:11Z</time>
      </trkpt>
      <trkpt lat="4.603353" lon="-75.140076">
        <ele>2327.0273</ele>
        <time>2021-11-14T15:20:12Z</time>
      </trkpt>
      <trkpt lat="4.603402" lon="-75.140068">
        <ele>2327.5728</ele>
        <time>2021-11-14T15:20:13Z</time>
      </trkpt>
      <trkpt lat="4.603372" lon="-75.140076">
        <ele>2325.7368</ele>
        <time>2021-11-14T15:20:14Z</time>
      </trkpt>
      <trkpt lat="4.60342" lon="-75.140129">
        <ele>2325.8696</ele>
        <time>2021-11-14T15:20:15Z</time>
      </trkpt>
      <trkpt lat="4.603448" lon="-75.140114">
        <ele>2325.7473</ele>
        <time>2021-11-14T15:20:16Z</time>
      </trkpt>
      <trkpt lat="4.603436" lon="-75.140121">
        <ele>2325.2678</ele>
        <time>2021-11-14T15:20:17Z</time>
      </trkpt>
      <trkpt lat="4.603501" lon="-75.140137">
        <ele>2324.6965</ele>
        <time>2021-11-14T15:20:18Z</time>
      </trkpt>
      <trkpt lat="4.603514" lon="-75.140152">
        <ele>2324.866</ele>
        <time>2021-11-14T15:20:19Z</time>
      </trkpt>
      <trkpt lat="4.603538" lon="-75.14016">
        <ele>2325.6064</ele>
        <time>2021-11-14T15:20:20Z</time>
      </trkpt>
      <trkpt lat="4.603579" lon="-75.140175">
        <ele>2324.1755</ele>
        <time>2021-11-14T15:20:21Z</time>
      </trkpt>
      <trkpt lat="4.60369" lon="-75.14019">
        <ele>2323.1082</ele>
        <time>2021-11-14T15:20:22Z</time>
      </trkpt>
      <trkpt lat="4.603636" lon="-75.140182">
        <ele>2323.7056</ele>
        <time>2021-11-14T15:20:23Z</time>
      </trkpt>
      <trkpt lat="4.603802" lon="-75.140205">
        <ele>2324.1885</ele>
        <time>2021-11-14T15:20:24Z</time>
      </trkpt>
      <trkpt lat="4.603825" lon="-75.140221">
        <ele>2323.0674</ele>
        <time>2021-11-14T15:20:25Z</time>
      </trkpt>
      <trkpt lat="4.603873" lon="-75.140205">
        <ele>2322.2612</ele>
        <time>2021-11-14T15:20:26Z</time>
      </trkpt>
      <trkpt lat="4.603965" lon="-75.140244">
        <ele>2321.2659</ele>
        <time>2021-11-14T15:20:27Z</time>
      </trkpt>
      <trkpt lat="4.603965" lon="-75.140244">
        <ele>2320.7104</ele>
        <time>2021-11-14T15:20:28Z</time>
      </trkpt>
      <trkpt lat="4.604041" lon="-75.14032">
        <ele>2318.125</ele>
        <time>2021-11-14T15:20:29Z</time>
      </trkpt>
      <trkpt lat="4.604081" lon="-75.140343">
        <ele>2318.5037</ele>
        <time>2021-11-14T15:20:30Z</time>
      </trkpt>
      <trkpt lat="4.604134" lon="-75.140366">
        <ele>2317.1963</ele>
        <time>2021-11-14T15:20:31Z</time>
      </trkpt>
      <trkpt lat="4.604197" lon="-75.140366">
        <ele>2316.1113</ele>
        <time>2021-11-14T15:20:32Z</time>
      </trkpt>
      <trkpt lat="4.604234" lon="-75.140373">
        <ele>2315.6296</ele>
        <time>2021-11-14T15:20:33Z</time>
      </trkpt>
      <trkpt lat="4.604243" lon="-75.140404">
        <ele>2314.9092</ele>
        <time>2021-11-14T15:20:34Z</time>
      </trkpt>
      <trkpt lat="4.604266" lon="-75.140434">
        <ele>2315.2808</ele>
        <time>2021-11-14T15:20:35Z</time>
      </trkpt>
      <trkpt lat="4.604296" lon="-75.140404">
        <ele>2315.4165</ele>
        <time>2021-11-14T15:20:36Z</time>
      </trkpt>
      <trkpt lat="4.604303" lon="-75.140388">
        <ele>2315.2344</ele>
        <time>2021-11-14T15:20:37Z</time>
      </trkpt>
      <trkpt lat="4.604311" lon="-75.140396">
        <ele>2314.8784</ele>
        <time>2021-11-14T15:20:38Z</time>
      </trkpt>
      <trkpt lat="4.604332" lon="-75.140404">
        <ele>2315.3948</ele>
        <time>2021-11-14T15:20:39Z</time>
      </trkpt>
      <trkpt lat="4.604359" lon="-75.140396">
        <ele>2316.6443</ele>
        <time>2021-11-14T15:20:40Z</time>
      </trkpt>
      <trkpt lat="4.604365" lon="-75.140327">
        <ele>2317.5378</ele>
        <time>2021-11-14T15:20:41Z</time>
      </trkpt>
      <trkpt lat="4.604325" lon="-75.140312">
        <ele>2318.4663</ele>
        <time>2021-11-14T15:20:42Z</time>
      </trkpt>
      <trkpt lat="4.604323" lon="-75.140312">
        <ele>2318.0447</ele>
        <time>2021-11-14T15:20:43Z</time>
      </trkpt>
      <trkpt lat="4.604301" lon="-75.140259">
        <ele>2318.793</ele>
        <time>2021-11-14T15:20:44Z</time>
      </trkpt>
      <trkpt lat="4.604285" lon="-75.140221">
        <ele>2319.816</ele>
        <time>2021-11-14T15:20:45Z</time>
      </trkpt>
      <trkpt lat="4.60428" lon="-75.14019">
        <ele>2319.6885</ele>
        <time>2021-11-14T15:20:46Z</time>
      </trkpt>
      <trkpt lat="4.604275" lon="-75.14016">
        <ele>2319.4814</ele>
        <time>2021-11-14T15:20:47Z</time>
      </trkpt>
      <trkpt lat="4.604274" lon="-75.140152">
        <ele>2319.9866</ele>
        <time>2021-11-14T15:20:48Z</time>
      </trkpt>
      <trkpt lat="4.604274" lon="-75.140129">
        <ele>2319.3726</ele>
        <time>2021-11-14T15:20:49Z</time>
      </trkpt>
      <trkpt lat="4.604256" lon="-75.140076">
        <ele>2320.9927</ele>
        <time>2021-11-14T15:20:50Z</time>
      </trkpt>
      <trkpt lat="4.604207" lon="-75.14003">
        <ele>2321.5618</ele>
        <time>2021-11-14T15:20:52Z</time>
      </trkpt>
      <trkpt lat="4.604084" lon="-75.139938">
        <ele>2322.87</ele>
        <time>2021-11-14T15:20:53Z</time>
      </trkpt>
      <trkpt lat="4.604064" lon="-75.139854">
        <ele>2323.1035</ele>
        <time>2021-11-14T15:20:54Z</time>
      </trkpt>
      <trkpt lat="4.604037" lon="-75.139778">
        <ele>2323.0818</ele>
        <time>2021-11-14T15:20:55Z</time>
      </trkpt>
      <trkpt lat="4.604037" lon="-75.139778">
        <ele>2323.133</ele>
        <time>2021-11-14T15:20:56Z</time>
      </trkpt>
      <trkpt lat="4.604014" lon="-75.139694">
        <ele>2321.077</ele>
        <time>2021-11-14T15:20:57Z</time>
      </trkpt>
      <trkpt lat="4.603939" lon="-75.139656">
        <ele>2318.9722</ele>
        <time>2021-11-14T15:20:58Z</time>
      </trkpt>
      <trkpt lat="4.603891" lon="-75.139633">
        <ele>2321.9158</ele>
        <time>2021-11-14T15:20:59Z</time>
      </trkpt>
      <trkpt lat="4.603803" lon="-75.139587">
        <ele>2322.9607</ele>
        <time>2021-11-14T15:21:00Z</time>
      </trkpt>
      <trkpt lat="4.60376" lon="-75.139587">
        <ele>2324.2861</ele>
        <time>2021-11-14T15:21:01Z</time>
      </trkpt>
      <trkpt lat="4.603743" lon="-75.13958">
        <ele>2322.9304</ele>
        <time>2021-11-14T15:21:02Z</time>
      </trkpt>
      <trkpt lat="4.603682" lon="-75.139534">
        <ele>2324.061</ele>
        <time>2021-11-14T15:21:03Z</time>
      </trkpt>
      <trkpt lat="4.603648" lon="-75.139496">
        <ele>2324.3596</ele>
        <time>2021-11-14T15:21:04Z</time>
      </trkpt>
      <trkpt lat="4.603597" lon="-75.139435">
        <ele>2324.0356</ele>
        <time>2021-11-14T15:21:05Z</time>
      </trkpt>
      <trkpt lat="4.603568" lon="-75.139389">
        <ele>2325.3772</ele>
        <time>2021-11-14T15:21:06Z</time>
      </trkpt>
      <trkpt lat="4.603563" lon="-75.139366">
        <ele>2324.3325</ele>
        <time>2021-11-14T15:21:07Z</time>
      </trkpt>
      <trkpt lat="4.60347" lon="-75.139244">
        <ele>2323.7375</ele>
        <time>2021-11-14T15:21:08Z</time>
      </trkpt>
      <trkpt lat="4.603446" lon="-75.139206">
        <ele>2325.1392</ele>
        <time>2021-11-14T15:21:09Z</time>
      </trkpt>
      <trkpt lat="4.603399" lon="-75.139153">
        <ele>2325.8884</ele>
        <time>2021-11-14T15:21:10Z</time>
      </trkpt>
      <trkpt lat="4.603391" lon="-75.139091">
        <ele>2327.1865</ele>
        <time>2021-11-14T15:21:11Z</time>
      </trkpt>
      <trkpt lat="4.60335" lon="-75.139038">
        <ele>2327.416</ele>
        <time>2021-11-14T15:21:12Z</time>
      </trkpt>
      <trkpt lat="4.603323" lon="-75.138992">
        <ele>2328.323</ele>
        <time>2021-11-14T15:21:13Z</time>
      </trkpt>
      <trkpt lat="4.603296" lon="-75.138947">
        <ele>2329.3337</ele>
        <time>2021-11-14T15:21:14Z</time>
      </trkpt>
      <trkpt lat="4.603311" lon="-75.138908">
        <ele>2329.7764</ele>
        <time>2021-11-14T15:21:15Z</time>
      </trkpt>
      <trkpt lat="4.603312" lon="-75.13887">
        <ele>2330.4885</ele>
        <time>2021-11-14T15:21:16Z</time>
      </trkpt>
      <trkpt lat="4.603314" lon="-75.138756">
        <ele>2331.6921</ele>
        <time>2021-11-14T15:21:17Z</time>
      </trkpt>
      <trkpt lat="4.603318" lon="-75.138725">
        <ele>2332.3545</ele>
        <time>2021-11-14T15:21:18Z</time>
      </trkpt>
      <trkpt lat="4.603352" lon="-75.138702">
        <ele>2332.1953</ele>
        <time>2021-11-14T15:21:19Z</time>
      </trkpt>
      <trkpt lat="4.60338" lon="-75.138672">
        <ele>2333.0312</ele>
        <time>2021-11-14T15:21:20Z</time>
      </trkpt>
      <trkpt lat="4.603409" lon="-75.138618">
        <ele>2332.6274</ele>
        <time>2021-11-14T15:21:21Z</time>
      </trkpt>
      <trkpt lat="4.603421" lon="-75.138512">
        <ele>2332.1301</ele>
        <time>2021-11-14T15:21:22Z</time>
      </trkpt>
      <trkpt lat="4.603428" lon="-75.138504">
        <ele>2334.6714</ele>
        <time>2021-11-14T15:21:23Z</time>
      </trkpt>
      <trkpt lat="4.603401" lon="-75.13842">
        <ele>2335.261</ele>
        <time>2021-11-14T15:21:24Z</time>
      </trkpt>
      <trkpt lat="4.603401" lon="-75.13842">
        <ele>2334.7676</ele>
        <time>2021-11-14T15:21:25Z</time>
      </trkpt>
      <trkpt lat="4.603397" lon="-75.138359">
        <ele>2333.726</ele>
        <time>2021-11-14T15:21:26Z</time>
      </trkpt>
      <trkpt lat="4.603393" lon="-75.138298">
        <ele>2333.274</ele>
        <time>2021-11-14T15:21:27Z</time>
      </trkpt>
      <trkpt lat="4.603394" lon="-75.138283">
        <ele>2333.1665</ele>
        <time>2021-11-14T15:21:28Z</time>
      </trkpt>
      <trkpt lat="4.603386" lon="-75.138245">
        <ele>2332.5996</ele>
        <time>2021-11-14T15:21:29Z</time>
      </trkpt>
      <trkpt lat="4.603362" lon="-75.138168">
        <ele>2331.9475</ele>
        <time>2021-11-14T15:21:30Z</time>
      </trkpt>
      <trkpt lat="4.603317" lon="-75.138054">
        <ele>2331.5105</ele>
        <time>2021-11-14T15:21:31Z</time>
      </trkpt>
      <trkpt lat="4.603321" lon="-75.138046">
        <ele>2330.9348</ele>
        <time>2021-11-14T15:21:32Z</time>
      </trkpt>
      <trkpt lat="4.603314" lon="-75.138008">
        <ele>2329.97</ele>
        <time>2021-11-14T15:21:33Z</time>
      </trkpt>
      <trkpt lat="4.603323" lon="-75.138016">
        <ele>2331.0366</ele>
        <time>2021-11-14T15:21:34Z</time>
      </trkpt>
      <trkpt lat="4.603325" lon="-75.137978">
        <ele>2331.155</ele>
        <time>2021-11-14T15:21:35Z</time>
      </trkpt>
      <trkpt lat="4.603327" lon="-75.137909">
        <ele>2332.5469</ele>
        <time>2021-11-14T15:21:36Z</time>
      </trkpt>
      <trkpt lat="4.603342" lon="-75.137871">
        <ele>2332.7075</ele>
        <time>2021-11-14T15:21:37Z</time>
      </trkpt>
      <trkpt lat="4.60335" lon="-75.137878">
        <ele>2331.4558</ele>
        <time>2021-11-14T15:21:38Z</time>
      </trkpt>
      <trkpt lat="4.603358" lon="-75.137871">
        <ele>2330.4058</ele>
        <time>2021-11-14T15:21:39Z</time>
      </trkpt>
      <trkpt lat="4.603385" lon="-75.137848">
        <ele>2330.6987</ele>
        <time>2021-11-14T15:21:40Z</time>
      </trkpt>
      <trkpt lat="4.603403" lon="-75.137856">
        <ele>2328.9905</ele>
        <time>2021-11-14T15:21:41Z</time>
      </trkpt>
      <trkpt lat="4.603542" lon="-75.137817">
        <ele>2327.8079</ele>
        <time>2021-11-14T15:21:42Z</time>
      </trkpt>
      <trkpt lat="4.603555" lon="-75.137794">
        <ele>2327.186</ele>
        <time>2021-11-14T15:21:43Z</time>
      </trkpt>
      <trkpt lat="4.603636" lon="-75.137733">
        <ele>2326.1118</ele>
        <time>2021-11-14T15:21:44Z</time>
      </trkpt>
      <trkpt lat="4.603695" lon="-75.137665">
        <ele>2325.8245</ele>
        <time>2021-11-14T15:21:45Z</time>
      </trkpt>
      <trkpt lat="4.603733" lon="-75.137596">
        <ele>2325.243</ele>
        <time>2021-11-14T15:21:46Z</time>
      </trkpt>
      <trkpt lat="4.603807" lon="-75.137558">
        <ele>2324.9624</ele>
        <time>2021-11-14T15:21:47Z</time>
      </trkpt>
      <trkpt lat="4.603829" lon="-75.137527">
        <ele>2324.7397</ele>
        <time>2021-11-14T15:21:48Z</time>
      </trkpt>
      <trkpt lat="4.604031" lon="-75.137421">
        <ele>2322.6323</ele>
        <time>2021-11-14T15:21:49Z</time>
      </trkpt>
      <trkpt lat="4.604056" lon="-75.137398">
        <ele>2322.785</ele>
        <time>2021-11-14T15:21:50Z</time>
      </trkpt>
      <trkpt lat="4.604129" lon="-75.137337">
        <ele>2323.6575</ele>
        <time>2021-11-14T15:21:51Z</time>
      </trkpt>
      <trkpt lat="4.604193" lon="-75.137299">
        <ele>2323.752</ele>
        <time>2021-11-14T15:21:52Z</time>
      </trkpt>
      <trkpt lat="4.604246" lon="-75.137268">
        <ele>2323.0957</ele>
        <time>2021-11-14T15:21:54Z</time>
      </trkpt>
      <trkpt lat="4.604297" lon="-75.137238">
        <ele>2322.8796</ele>
        <time>2021-11-14T15:21:55Z</time>
      </trkpt>
      <trkpt lat="4.604352" lon="-75.137192">
        <ele>2322.1292</ele>
        <time>2021-11-14T15:21:56Z</time>
      </trkpt>
      <trkpt lat="4.604415" lon="-75.137093">
        <ele>2321.7551</ele>
        <time>2021-11-14T15:21:57Z</time>
      </trkpt>
      <trkpt lat="4.604422" lon="-75.136993">
        <ele>2321.4878</ele>
        <time>2021-11-14T15:21:58Z</time>
      </trkpt>
      <trkpt lat="4.604441" lon="-75.136917">
        <ele>2320.8464</ele>
        <time>2021-11-14T15:21:59Z</time>
      </trkpt>
      <trkpt lat="4.604446" lon="-75.136848">
        <ele>2318.7407</ele>
        <time>2021-11-14T15:22:00Z</time>
      </trkpt>
      <trkpt lat="4.604444" lon="-75.136749">
        <ele>2318.7583</ele>
        <time>2021-11-14T15:22:01Z</time>
      </trkpt>
      <trkpt lat="4.60446" lon="-75.136696">
        <ele>2319.0994</ele>
        <time>2021-11-14T15:22:02Z</time>
      </trkpt>
      <trkpt lat="4.604489" lon="-75.136635">
        <ele>2318.9897</ele>
        <time>2021-11-14T15:22:03Z</time>
      </trkpt>
      <trkpt lat="4.604489" lon="-75.136635">
        <ele>2320.1306</ele>
        <time>2021-11-14T15:22:04Z</time>
      </trkpt>
      <trkpt lat="4.604523" lon="-75.13662">
        <ele>2319.1167</ele>
        <time>2021-11-14T15:22:05Z</time>
      </trkpt>
      <trkpt lat="4.604571" lon="-75.136574">
        <ele>2318.7556</ele>
        <time>2021-11-14T15:22:06Z</time>
      </trkpt>
      <trkpt lat="4.604618" lon="-75.136559">
        <ele>2318.907</ele>
        <time>2021-11-14T15:22:07Z</time>
      </trkpt>
      <trkpt lat="4.60469" lon="-75.136513">
        <ele>2318.0374</ele>
        <time>2021-11-14T15:22:08Z</time>
      </trkpt>
      <trkpt lat="4.604818" lon="-75.136513">
        <ele>2317.0283</ele>
        <time>2021-11-14T15:22:09Z</time>
      </trkpt>
      <trkpt lat="4.604873" lon="-75.136505">
        <ele>2317.6877</ele>
        <time>2021-11-14T15:22:10Z</time>
      </trkpt>
      <trkpt lat="4.604928" lon="-75.136452">
        <ele>2315.9531</ele>
        <time>2021-11-14T15:22:11Z</time>
      </trkpt>
      <trkpt lat="4.604997" lon="-75.136391">
        <ele>2315.1184</ele>
        <time>2021-11-14T15:22:12Z</time>
      </trkpt>
      <trkpt lat="4.605019" lon="-75.136337">
        <ele>2314.5205</ele>
        <time>2021-11-14T15:22:13Z</time>
      </trkpt>
      <trkpt lat="4.605013" lon="-75.136276">
        <ele>2314.262</ele>
        <time>2021-11-14T15:22:14Z</time>
      </trkpt>
      <trkpt lat="4.60502" lon="-75.1362">
        <ele>2313.2976</ele>
        <time>2021-11-14T15:22:15Z</time>
      </trkpt>
      <trkpt lat="4.604992" lon="-75.136108">
        <ele>2312.9502</ele>
        <time>2021-11-14T15:22:16Z</time>
      </trkpt>
      <trkpt lat="4.604958" lon="-75.136047">
        <ele>2311.9949</ele>
        <time>2021-11-14T15:22:17Z</time>
      </trkpt>
      <trkpt lat="4.604922" lon="-75.135948">
        <ele>2310.3716</ele>
        <time>2021-11-14T15:22:18Z</time>
      </trkpt>
      <trkpt lat="4.604918" lon="-75.135941">
        <ele>2309.9316</ele>
        <time>2021-11-14T15:22:19Z</time>
      </trkpt>
      <trkpt lat="4.60493" lon="-75.135925">
        <ele>2310.0452</ele>
        <time>2021-11-14T15:22:20Z</time>
      </trkpt>
      <trkpt lat="4.604903" lon="-75.135849">
        <ele>2309.27</ele>
        <time>2021-11-14T15:22:21Z</time>
      </trkpt>
      <trkpt lat="4.604962" lon="-75.135811">
        <ele>2308.3435</ele>
        <time>2021-11-14T15:22:22Z</time>
      </trkpt>
      <trkpt lat="4.605011" lon="-75.13575">
        <ele>2308.1523</ele>
        <time>2021-11-14T15:22:23Z</time>
      </trkpt>
      <trkpt lat="4.605062" lon="-75.135735">
        <ele>2308.0237</ele>
        <time>2021-11-14T15:22:24Z</time>
      </trkpt>
      <trkpt lat="4.605225" lon="-75.135735">
        <ele>2308.6265</ele>
        <time>2021-11-14T15:22:25Z</time>
      </trkpt>
      <trkpt lat="4.605307" lon="-75.135681">
        <ele>2307.9102</ele>
        <time>2021-11-14T15:22:26Z</time>
      </trkpt>
      <trkpt lat="4.605342" lon="-75.135651">
        <ele>2307.5027</ele>
        <time>2021-11-14T15:22:27Z</time>
      </trkpt>
      <trkpt lat="4.605412" lon="-75.13562">
        <ele>2306.9004</ele>
        <time>2021-11-14T15:22:28Z</time>
      </trkpt>
      <trkpt lat="4.60548" lon="-75.135567">
        <ele>2309.0054</ele>
        <time>2021-11-14T15:22:29Z</time>
      </trkpt>
      <trkpt lat="4.60555" lon="-75.135483">
        <ele>2308.9883</ele>
        <time>2021-11-14T15:22:30Z</time>
      </trkpt>
      <trkpt lat="4.605589" lon="-75.13546">
        <ele>2310.0415</ele>
        <time>2021-11-14T15:22:31Z</time>
      </trkpt>
      <trkpt lat="4.605543" lon="-75.135475">
        <ele>2309.347</ele>
        <time>2021-11-14T15:22:32Z</time>
      </trkpt>
      <trkpt lat="4.605602" lon="-75.135422">
        <ele>2309.1787</ele>
        <time>2021-11-14T15:22:33Z</time>
      </trkpt>
      <trkpt lat="4.605609" lon="-75.135406">
        <ele>2308.9805</ele>
        <time>2021-11-14T15:22:34Z</time>
      </trkpt>
      <trkpt lat="4.605672" lon="-75.135292">
        <ele>2307.8555</ele>
        <time>2021-11-14T15:22:35Z</time>
      </trkpt>
      <trkpt lat="4.60569" lon="-75.135223">
        <ele>2308.3042</ele>
        <time>2021-11-14T15:22:36Z</time>
      </trkpt>
      <trkpt lat="4.60569" lon="-75.135223">
        <ele>2307.3606</ele>
        <time>2021-11-14T15:22:37Z</time>
      </trkpt>
      <trkpt lat="4.605706" lon="-75.135139">
        <ele>2305.9353</ele>
        <time>2021-11-14T15:22:38Z</time>
      </trkpt>
      <trkpt lat="4.60573" lon="-75.135071">
        <ele>2305.1934</ele>
        <time>2021-11-14T15:22:39Z</time>
      </trkpt>
      <trkpt lat="4.605744" lon="-75.13504">
        <ele>2304.458</ele>
        <time>2021-11-14T15:22:40Z</time>
      </trkpt>
      <trkpt lat="4.605741" lon="-75.13504">
        <ele>2304.0408</ele>
        <time>2021-11-14T15:22:41Z</time>
      </trkpt>
      <trkpt lat="4.605759" lon="-75.134956">
        <ele>2305.2505</ele>
        <time>2021-11-14T15:22:42Z</time>
      </trkpt>
      <trkpt lat="4.605779" lon="-75.134918">
        <ele>2305.105</ele>
        <time>2021-11-14T15:22:43Z</time>
      </trkpt>
      <trkpt lat="4.605804" lon="-75.134926">
        <ele>2305.19</ele>
        <time>2021-11-14T15:22:44Z</time>
      </trkpt>
      <trkpt lat="4.605893" lon="-75.134926">
        <ele>2303.8513</ele>
        <time>2021-11-14T15:22:45Z</time>
      </trkpt>
      <trkpt lat="4.605956" lon="-75.134903">
        <ele>2303.8274</ele>
        <time>2021-11-14T15:22:46Z</time>
      </trkpt>
      <trkpt lat="4.605977" lon="-75.134872">
        <ele>2303.4856</ele>
        <time>2021-11-14T15:22:47Z</time>
      </trkpt>
      <trkpt lat="4.606025" lon="-75.134857">
        <ele>2303.5269</ele>
        <time>2021-11-14T15:22:48Z</time>
      </trkpt>
      <trkpt lat="4.606082" lon="-75.134827">
        <ele>2304.014</ele>
        <time>2021-11-14T15:22:49Z</time>
      </trkpt>
      <trkpt lat="4.606125" lon="-75.134872">
        <ele>2304.495</ele>
        <time>2021-11-14T15:22:50Z</time>
      </trkpt>
      <trkpt lat="4.606233" lon="-75.134895">
        <ele>2302.9407</ele>
        <time>2021-11-14T15:22:51Z</time>
      </trkpt>
      <trkpt lat="4.606261" lon="-75.134895">
        <ele>2302.131</ele>
        <time>2021-11-14T15:22:52Z</time>
      </trkpt>
      <trkpt lat="4.606307" lon="-75.134903">
        <ele>2301.3318</ele>
        <time>2021-11-14T15:22:53Z</time>
      </trkpt>
      <trkpt lat="4.606368" lon="-75.134918">
        <ele>2301.6204</ele>
        <time>2021-11-14T15:22:54Z</time>
      </trkpt>
      <trkpt lat="4.606371" lon="-75.134903">
        <ele>2300.6262</ele>
        <time>2021-11-14T15:22:56Z</time>
      </trkpt>
      <trkpt lat="4.60638" lon="-75.134918">
        <ele>2301.2346</ele>
        <time>2021-11-14T15:22:57Z</time>
      </trkpt>
      <trkpt lat="4.60641" lon="-75.134911">
        <ele>2298.2664</ele>
        <time>2021-11-14T15:22:58Z</time>
      </trkpt>
      <trkpt lat="4.606417" lon="-75.134903">
        <ele>2297.9802</ele>
        <time>2021-11-14T15:22:59Z</time>
      </trkpt>
      <trkpt lat="4.606429" lon="-75.134895">
        <ele>2297.7664</ele>
        <time>2021-11-14T15:23:00Z</time>
      </trkpt>
      <trkpt lat="4.606445" lon="-75.134888">
        <ele>2296.6973</ele>
        <time>2021-11-14T15:23:01Z</time>
      </trkpt>
      <trkpt lat="4.606459" lon="-75.134888">
        <ele>2296.935</ele>
        <time>2021-11-14T15:23:02Z</time>
      </trkpt>
      <trkpt lat="4.606469" lon="-75.134872">
        <ele>2296.9714</ele>
        <time>2021-11-14T15:23:03Z</time>
      </trkpt>
      <trkpt lat="4.606477" lon="-75.134865">
        <ele>2296.5674</ele>
        <time>2021-11-14T15:23:04Z</time>
      </trkpt>
      <trkpt lat="4.606484" lon="-75.134857">
        <ele>2296.4287</ele>
        <time>2021-11-14T15:23:05Z</time>
      </trkpt>
      <trkpt lat="4.606488" lon="-75.134842">
        <ele>2296.5574</ele>
        <time>2021-11-14T15:23:06Z</time>
      </trkpt>
      <trkpt lat="4.606493" lon="-75.134827">
        <ele>2296.3572</ele>
        <time>2021-11-14T15:23:07Z</time>
      </trkpt>
      <trkpt lat="4.606491" lon="-75.134819">
        <ele>2296.8013</ele>
        <time>2021-11-14T15:23:08Z</time>
      </trkpt>
      <trkpt lat="4.606491" lon="-75.134819">
        <ele>2297.6436</ele>
        <time>2021-11-14T15:23:09Z</time>
      </trkpt>
      <trkpt lat="4.606478" lon="-75.134773">
        <ele>2297.6653</ele>
        <time>2021-11-14T15:23:10Z</time>
      </trkpt>
      <trkpt lat="4.606462" lon="-75.134735">
        <ele>2297.5464</ele>
        <time>2021-11-14T15:23:11Z</time>
      </trkpt>
      <trkpt lat="4.60646" lon="-75.13472">
        <ele>2297.319</ele>
        <time>2021-11-14T15:23:12Z</time>
      </trkpt>
      <trkpt lat="4.606448" lon="-75.134674">
        <ele>2296.6567</ele>
        <time>2021-11-14T15:23:13Z</time>
      </trkpt>
      <trkpt lat="4.606445" lon="-75.13459">
        <ele>2297.2908</ele>
        <time>2021-11-14T15:23:14Z</time>
      </trkpt>
      <trkpt lat="4.606446" lon="-75.134521">
        <ele>2297.78</ele>
        <time>2021-11-14T15:23:15Z</time>
      </trkpt>
      <trkpt lat="4.606468" lon="-75.134506">
        <ele>2298.5818</ele>
        <time>2021-11-14T15:23:16Z</time>
      </trkpt>
      <trkpt lat="4.606483" lon="-75.134453">
        <ele>2299.7292</ele>
        <time>2021-11-14T15:23:17Z</time>
      </trkpt>
      <trkpt lat="4.606495" lon="-75.134399">
        <ele>2300.0515</ele>
        <time>2021-11-14T15:23:18Z</time>
      </trkpt>
      <trkpt lat="4.606519" lon="-75.134331">
        <ele>2300.54</ele>
        <time>2021-11-14T15:23:19Z</time>
      </trkpt>
      <trkpt lat="4.606553" lon="-75.134262">
        <ele>2300.0938</ele>
        <time>2021-11-14T15:23:20Z</time>
      </trkpt>
      <trkpt lat="4.606561" lon="-75.134224">
        <ele>2299.307</ele>
        <time>2021-11-14T15:23:21Z</time>
      </trkpt>
      <trkpt lat="4.606564" lon="-75.134148">
        <ele>2299.1904</ele>
        <time>2021-11-14T15:23:22Z</time>
      </trkpt>
      <trkpt lat="4.606497" lon="-75.134071">
        <ele>2298.7156</ele>
        <time>2021-11-14T15:23:23Z</time>
      </trkpt>
      <trkpt lat="4.60642" lon="-75.134003">
        <ele>2298.7012</ele>
        <time>2021-11-14T15:23:24Z</time>
      </trkpt>
      <trkpt lat="4.60637" lon="-75.133926">
        <ele>2299.1575</ele>
        <time>2021-11-14T15:23:25Z</time>
      </trkpt>
      <trkpt lat="4.606321" lon="-75.133904">
        <ele>2299.214</ele>
        <time>2021-11-14T15:23:26Z</time>
      </trkpt>
      <trkpt lat="4.606304" lon="-75.133896">
        <ele>2299.0374</ele>
        <time>2021-11-14T15:23:27Z</time>
      </trkpt>
      <trkpt lat="4.606251" lon="-75.133842">
        <ele>2299.304</ele>
        <time>2021-11-14T15:23:28Z</time>
      </trkpt>
      <trkpt lat="4.606188" lon="-75.133797">
        <ele>2300.372</ele>
        <time>2021-11-14T15:23:29Z</time>
      </trkpt>
      <trkpt lat="4.606255" lon="-75.13385">
        <ele>2300.244</ele>
        <time>2021-11-14T15:23:30Z</time>
      </trkpt>
      <trkpt lat="4.606201" lon="-75.133781">
        <ele>2300.513</ele>
        <time>2021-11-14T15:23:31Z</time>
      </trkpt>
      <trkpt lat="4.606178" lon="-75.133751">
        <ele>2300.9521</ele>
        <time>2021-11-14T15:23:32Z</time>
      </trkpt>
      <trkpt lat="4.606154" lon="-75.133705">
        <ele>2300.9465</ele>
        <time>2021-11-14T15:23:33Z</time>
      </trkpt>
      <trkpt lat="4.606141" lon="-75.133698">
        <ele>2300.6912</ele>
        <time>2021-11-14T15:23:34Z</time>
      </trkpt>
      <trkpt lat="4.606094" lon="-75.133652">
        <ele>2300.9785</ele>
        <time>2021-11-14T15:23:35Z</time>
      </trkpt>
      <trkpt lat="4.606062" lon="-75.133621">
        <ele>2301.5693</ele>
        <time>2021-11-14T15:23:36Z</time>
      </trkpt>
      <trkpt lat="4.606018" lon="-75.133575">
        <ele>2302.5618</ele>
        <time>2021-11-14T15:23:37Z</time>
      </trkpt>
      <trkpt lat="4.606018" lon="-75.133575">
        <ele>2302.179</ele>
        <time>2021-11-14T15:23:39Z</time>
      </trkpt>
      <trkpt lat="4.605993" lon="-75.133514">
        <ele>2301.912</ele>
        <time>2021-11-14T15:23:40Z</time>
      </trkpt>
      <trkpt lat="4.605988" lon="-75.133446">
        <ele>2302.5364</ele>
        <time>2021-11-14T15:23:41Z</time>
      </trkpt>
      <trkpt lat="4.605999" lon="-75.133316">
        <ele>2301.652</ele>
        <time>2021-11-14T15:23:42Z</time>
      </trkpt>
      <trkpt lat="4.606001" lon="-75.133232">
        <ele>2302.0112</ele>
        <time>2021-11-14T15:23:43Z</time>
      </trkpt>
      <trkpt lat="4.605982" lon="-75.133133">
        <ele>2301.4067</ele>
        <time>2021-11-14T15:23:44Z</time>
      </trkpt>
      <trkpt lat="4.605961" lon="-75.133057">
        <ele>2300.0676</ele>
        <time>2021-11-14T15:23:45Z</time>
      </trkpt>
      <trkpt lat="4.605969" lon="-75.133049">
        <ele>2299.7847</ele>
        <time>2021-11-14T15:23:46Z</time>
      </trkpt>
      <trkpt lat="4.605977" lon="-75.133087">
        <ele>2299.8232</ele>
        <time>2021-11-14T15:23:47Z</time>
      </trkpt>
      <trkpt lat="4.605986" lon="-75.133026">
        <ele>2300.2878</ele>
        <time>2021-11-14T15:23:48Z</time>
      </trkpt>
      <trkpt lat="4.605975" lon="-75.133011">
        <ele>2301.7292</ele>
        <time>2021-11-14T15:23:49Z</time>
      </trkpt>
      <trkpt lat="4.605969" lon="-75.133011">
        <ele>2300.8926</ele>
        <time>2021-11-14T15:23:50Z</time>
      </trkpt>
      <trkpt lat="4.605969" lon="-75.133011">
        <ele>2300.7793</ele>
        <time>2021-11-14T15:23:51Z</time>
      </trkpt>
      <trkpt lat="4.605977" lon="-75.133003">
        <ele>2301.1365</ele>
        <time>2021-11-14T15:23:52Z</time>
      </trkpt>
      <trkpt lat="4.605978" lon="-75.132996">
        <ele>2301.5056</ele>
        <time>2021-11-14T15:23:53Z</time>
      </trkpt>
      <trkpt lat="4.605976" lon="-75.132996">
        <ele>2301.455</ele>
        <time>2021-11-14T15:23:54Z</time>
      </trkpt>
      <trkpt lat="4.605978" lon="-75.132996">
        <ele>2301.3682</ele>
        <time>2021-11-14T15:23:55Z</time>
      </trkpt>
      <trkpt lat="4.60598" lon="-75.132996">
        <ele>2301.5876</ele>
        <time>2021-11-14T15:23:56Z</time>
      </trkpt>
      <trkpt lat="4.605979" lon="-75.132996">
        <ele>2301.7153</ele>
        <time>2021-11-14T15:23:57Z</time>
      </trkpt>
      <trkpt lat="4.60598" lon="-75.132996">
        <ele>2302.0803</ele>
        <time>2021-11-14T15:23:58Z</time>
      </trkpt>
      <trkpt lat="4.605979" lon="-75.132996">
        <ele>2302.4065</ele>
        <time>2021-11-14T15:23:59Z</time>
      </trkpt>
      <trkpt lat="4.60598" lon="-75.132996">
        <ele>2302.4377</ele>
        <time>2021-11-14T15:24:00Z</time>
      </trkpt>
      <trkpt lat="4.605982" lon="-75.132996">
        <ele>2302.3303</ele>
        <time>2021-11-14T15:24:01Z</time>
      </trkpt>
      <trkpt lat="4.605982" lon="-75.132996">
        <ele>2302.277</ele>
        <time>2021-11-14T15:24:02Z</time>
      </trkpt>
      <trkpt lat="4.605983" lon="-75.132996">
        <ele>2302.4053</ele>
        <time>2021-11-14T15:24:03Z</time>
      </trkpt>
      <trkpt lat="4.605983" lon="-75.132996">
        <ele>2302.3762</ele>
        <time>2021-11-14T15:24:04Z</time>
      </trkpt>
      <trkpt lat="4.605983" lon="-75.132996">
        <ele>2302.4558</ele>
        <time>2021-11-14T15:24:05Z</time>
      </trkpt>
      <trkpt lat="4.605984" lon="-75.132996">
        <ele>2302.5632</ele>
        <time>2021-11-14T15:24:06Z</time>
      </trkpt>
      <trkpt lat="4.605984" lon="-75.132996">
        <ele>2302.5767</ele>
        <time>2021-11-14T15:24:07Z</time>
      </trkpt>
      <trkpt lat="4.605984" lon="-75.132996">
        <ele>2302.541</ele>
        <time>2021-11-14T15:24:08Z</time>
      </trkpt>
      <trkpt lat="4.605983" lon="-75.132996">
        <ele>2302.566</ele>
        <time>2021-11-14T15:24:09Z</time>
      </trkpt>
      <trkpt lat="4.605983" lon="-75.132996">
        <ele>2302.5176</ele>
        <time>2021-11-14T15:24:10Z</time>
      </trkpt>
      <trkpt lat="4.605983" lon="-75.132996">
        <ele>2302.5378</ele>
        <time>2021-11-14T15:24:11Z</time>
      </trkpt>
      <trkpt lat="4.605983" lon="-75.132996">
        <ele>2302.219</ele>
        <time>2021-11-14T15:24:12Z</time>
      </trkpt>
      <trkpt lat="4.605968" lon="-75.132973">
        <ele>2303.038</ele>
        <time>2021-11-14T15:24:13Z</time>
      </trkpt>
      <trkpt lat="4.605965" lon="-75.13295">
        <ele>2302.8694</ele>
        <time>2021-11-14T15:24:14Z</time>
      </trkpt>
      <trkpt lat="4.605974" lon="-75.132965">
        <ele>2302.5725</ele>
        <time>2021-11-14T15:24:15Z</time>
      </trkpt>
      <trkpt lat="4.605975" lon="-75.132965">
        <ele>2302.668</ele>
        <time>2021-11-14T15:24:16Z</time>
      </trkpt>
      <trkpt lat="4.605976" lon="-75.132965">
        <ele>2302.7468</ele>
        <time>2021-11-14T15:24:17Z</time>
      </trkpt>
      <trkpt lat="4.605976" lon="-75.132965">
        <ele>2303.1094</ele>
        <time>2021-11-14T15:24:18Z</time>
      </trkpt>
      <trkpt lat="4.605976" lon="-75.132965">
        <ele>2303.2178</ele>
        <time>2021-11-14T15:24:19Z</time>
      </trkpt>
      <trkpt lat="4.605976" lon="-75.132965">
        <ele>2303.125</ele>
        <time>2021-11-14T15:24:20Z</time>
      </trkpt>
      <trkpt lat="4.605977" lon="-75.132965">
        <ele>2302.9485</ele>
        <time>2021-11-14T15:24:21Z</time>
      </trkpt>
      <trkpt lat="4.605979" lon="-75.132965">
        <ele>2302.8433</ele>
        <time>2021-11-14T15:24:22Z</time>
      </trkpt>
      <trkpt lat="4.60598" lon="-75.132965">
        <ele>2302.729</ele>
        <time>2021-11-14T15:24:23Z</time>
      </trkpt>
      <trkpt lat="4.605981" lon="-75.132965">
        <ele>2302.6587</ele>
        <time>2021-11-14T15:24:24Z</time>
      </trkpt>
      <trkpt lat="4.605981" lon="-75.132965">
        <ele>2302.6025</ele>
        <time>2021-11-14T15:24:25Z</time>
      </trkpt>
      <trkpt lat="4.605981" lon="-75.132965">
        <ele>2302.589</ele>
        <time>2021-11-14T15:24:26Z</time>
      </trkpt>
      <trkpt lat="4.605981" lon="-75.132965">
        <ele>2302.5894</ele>
        <time>2021-11-14T15:24:27Z</time>
      </trkpt>
      <trkpt lat="4.605981" lon="-75.132965">
        <ele>2302.5889</ele>
        <time>2021-11-14T15:24:28Z</time>
      </trkpt>
      <trkpt lat="4.605982" lon="-75.132965">
        <ele>2302.587</ele>
        <time>2021-11-14T15:24:29Z</time>
      </trkpt>
      <trkpt lat="4.605982" lon="-75.132965">
        <ele>2302.5842</ele>
        <time>2021-11-14T15:24:30Z</time>
      </trkpt>
      <trkpt lat="4.605982" lon="-75.132965">
        <ele>2302.5823</ele>
        <time>2021-11-14T15:24:31Z</time>
      </trkpt>
      <trkpt lat="4.605982" lon="-75.132965">
        <ele>2302.589</ele>
        <time>2021-11-14T15:24:32Z</time>
      </trkpt>
      <trkpt lat="4.605982" lon="-75.132965">
        <ele>2302.5906</ele>
        <time>2021-11-14T15:24:33Z</time>
      </trkpt>
      <trkpt lat="4.605981" lon="-75.132965">
        <ele>2302.6099</ele>
        <time>2021-11-14T15:24:34Z</time>
      </trkpt>
      <trkpt lat="4.605981" lon="-75.132965">
        <ele>2302.6104</ele>
        <time>2021-11-14T15:24:35Z</time>
      </trkpt>
      <trkpt lat="4.605981" lon="-75.132965">
        <ele>2302.611</ele>
        <time>2021-11-14T15:24:36Z</time>
      </trkpt>
      <trkpt lat="4.605981" lon="-75.132965">
        <ele>2302.6145</ele>
        <time>2021-11-14T15:24:37Z</time>
      </trkpt>
      <trkpt lat="4.605981" lon="-75.132965">
        <ele>2302.6277</ele>
        <time>2021-11-14T15:24:39Z</time>
      </trkpt>
      <trkpt lat="4.605982" lon="-75.132965">
        <ele>2302.6123</ele>
        <time>2021-11-14T15:24:40Z</time>
      </trkpt>
      <trkpt lat="4.605982" lon="-75.132965">
        <ele>2302.6296</ele>
        <time>2021-11-14T15:24:41Z</time>
      </trkpt>
      <trkpt lat="4.605982" lon="-75.132965">
        <ele>2302.6519</ele>
        <time>2021-11-14T15:24:42Z</time>
      </trkpt>
      <trkpt lat="4.605982" lon="-75.132965">
        <ele>2302.6558</ele>
        <time>2021-11-14T15:24:43Z</time>
      </trkpt>
      <trkpt lat="4.605982" lon="-75.132965">
        <ele>2302.677</ele>
        <time>2021-11-14T15:24:44Z</time>
      </trkpt>
      <trkpt lat="4.605982" lon="-75.132965">
        <ele>2302.699</ele>
        <time>2021-11-14T15:24:45Z</time>
      </trkpt>
      <trkpt lat="4.605981" lon="-75.132965">
        <ele>2302.7007</ele>
        <time>2021-11-14T15:24:46Z</time>
      </trkpt>
      <trkpt lat="4.605981" lon="-75.132965">
        <ele>2302.6926</ele>
        <time>2021-11-14T15:24:47Z</time>
      </trkpt>
      <trkpt lat="4.605981" lon="-75.132965">
        <ele>2302.6921</ele>
        <time>2021-11-14T15:24:48Z</time>
      </trkpt>
      <trkpt lat="4.605981" lon="-75.132965">
        <ele>2302.693</ele>
        <time>2021-11-14T15:24:49Z</time>
      </trkpt>
      <trkpt lat="4.605981" lon="-75.132965">
        <ele>2302.6897</ele>
        <time>2021-11-14T15:24:50Z</time>
      </trkpt>
      <trkpt lat="4.605982" lon="-75.132965">
        <ele>2302.6904</ele>
        <time>2021-11-14T15:24:51Z</time>
      </trkpt>
      <trkpt lat="4.605982" lon="-75.132965">
        <ele>2302.6938</ele>
        <time>2021-11-14T15:24:52Z</time>
      </trkpt>
      <trkpt lat="4.605982" lon="-75.132965">
        <ele>2302.6973</ele>
        <time>2021-11-14T15:24:53Z</time>
      </trkpt>
      <trkpt lat="4.605982" lon="-75.132965">
        <ele>2302.6658</ele>
        <time>2021-11-14T15:24:54Z</time>
      </trkpt>
      <trkpt lat="4.605982" lon="-75.132965">
        <ele>2302.6697</ele>
        <time>2021-11-14T15:24:55Z</time>
      </trkpt>
      <trkpt lat="4.605982" lon="-75.132965">
        <ele>2302.6714</ele>
        <time>2021-11-14T15:24:56Z</time>
      </trkpt>
      <trkpt lat="4.605982" lon="-75.132965">
        <ele>2302.675</ele>
        <time>2021-11-14T15:24:57Z</time>
      </trkpt>
      <trkpt lat="4.605982" lon="-75.132965">
        <ele>2302.679</ele>
        <time>2021-11-14T15:24:58Z</time>
      </trkpt>
      <trkpt lat="4.605982" lon="-75.132965">
        <ele>2302.6838</ele>
        <time>2021-11-14T15:24:59Z</time>
      </trkpt>
      <trkpt lat="4.605982" lon="-75.132965">
        <ele>2302.6865</ele>
        <time>2021-11-14T15:25:00Z</time>
      </trkpt>
      <trkpt lat="4.605982" lon="-75.132965">
        <ele>2302.691</ele>
        <time>2021-11-14T15:25:01Z</time>
      </trkpt>
      <trkpt lat="4.605982" lon="-75.132965">
        <ele>2302.6948</ele>
        <time>2021-11-14T15:25:02Z</time>
      </trkpt>
      <trkpt lat="4.605982" lon="-75.132965">
        <ele>2302.6958</ele>
        <time>2021-11-14T15:25:03Z</time>
      </trkpt>
      <trkpt lat="4.605982" lon="-75.132965">
        <ele>2302.701</ele>
        <time>2021-11-14T15:25:04Z</time>
      </trkpt>
      <trkpt lat="4.605982" lon="-75.132965">
        <ele>2302.705</ele>
        <time>2021-11-14T15:25:05Z</time>
      </trkpt>
      <trkpt lat="4.605982" lon="-75.132965">
        <ele>2302.707</ele>
        <time>2021-11-14T15:25:06Z</time>
      </trkpt>
      <trkpt lat="4.605982" lon="-75.132965">
        <ele>2302.7124</ele>
        <time>2021-11-14T15:25:07Z</time>
      </trkpt>
      <trkpt lat="4.605982" lon="-75.132965">
        <ele>2302.715</ele>
        <time>2021-11-14T15:25:08Z</time>
      </trkpt>
      <trkpt lat="4.605982" lon="-75.132965">
        <ele>2302.7202</ele>
        <time>2021-11-14T15:25:09Z</time>
      </trkpt>
      <trkpt lat="4.605982" lon="-75.132965">
        <ele>2302.7214</ele>
        <time>2021-11-14T15:25:10Z</time>
      </trkpt>
      <trkpt lat="4.605982" lon="-75.132965">
        <ele>2302.7236</ele>
        <time>2021-11-14T15:25:11Z</time>
      </trkpt>
      <trkpt lat="4.605982" lon="-75.132965">
        <ele>2302.7256</ele>
        <time>2021-11-14T15:25:13Z</time>
      </trkpt>
      <trkpt lat="4.605982" lon="-75.132965">
        <ele>2302.7246</ele>
        <time>2021-11-14T15:25:14Z</time>
      </trkpt>
      <trkpt lat="4.605982" lon="-75.132965">
        <ele>2302.7231</ele>
        <time>2021-11-14T15:25:15Z</time>
      </trkpt>
      <trkpt lat="4.605982" lon="-75.132965">
        <ele>2302.7227</ele>
        <time>2021-11-14T15:25:16Z</time>
      </trkpt>
      <trkpt lat="4.605982" lon="-75.132965">
        <ele>2302.7231</ele>
        <time>2021-11-14T15:25:17Z</time>
      </trkpt>
      <trkpt lat="4.605982" lon="-75.132965">
        <ele>2302.7246</ele>
        <time>2021-11-14T15:25:18Z</time>
      </trkpt>
      <trkpt lat="4.605982" lon="-75.132965">
        <ele>2302.7234</ele>
        <time>2021-11-14T15:25:19Z</time>
      </trkpt>
      <trkpt lat="4.605982" lon="-75.132965">
        <ele>2302.725</ele>
        <time>2021-11-14T15:25:20Z</time>
      </trkpt>
      <trkpt lat="4.605982" lon="-75.132965">
        <ele>2302.726</ele>
        <time>2021-11-14T15:25:21Z</time>
      </trkpt>
      <trkpt lat="4.605982" lon="-75.132965">
        <ele>2302.7295</ele>
        <time>2021-11-14T15:25:22Z</time>
      </trkpt>
      <trkpt lat="4.605982" lon="-75.132965">
        <ele>2302.732</ele>
        <time>2021-11-14T15:25:23Z</time>
      </trkpt>
      <trkpt lat="4.605982" lon="-75.132965">
        <ele>2302.733</ele>
        <time>2021-11-14T15:25:24Z</time>
      </trkpt>
      <trkpt lat="4.605982" lon="-75.132965">
        <ele>2302.7334</ele>
        <time>2021-11-14T15:25:25Z</time>
      </trkpt>
      <trkpt lat="4.605982" lon="-75.132965">
        <ele>2302.7341</ele>
        <time>2021-11-14T15:25:26Z</time>
      </trkpt>
      <trkpt lat="4.605982" lon="-75.132965">
        <ele>2302.7334</ele>
        <time>2021-11-14T15:25:27Z</time>
      </trkpt>
      <trkpt lat="4.605982" lon="-75.132965">
        <ele>2302.7358</ele>
        <time>2021-11-14T15:25:28Z</time>
      </trkpt>
      <trkpt lat="4.605982" lon="-75.132965">
        <ele>2302.732</ele>
        <time>2021-11-14T15:25:29Z</time>
      </trkpt>
      <trkpt lat="4.605982" lon="-75.132965">
        <ele>2302.7546</ele>
        <time>2021-11-14T15:25:30Z</time>
      </trkpt>
      <trkpt lat="4.605985" lon="-75.132942">
        <ele>2302.5107</ele>
        <time>2021-11-14T15:25:31Z</time>
      </trkpt>
      <trkpt lat="4.606008" lon="-75.132805">
        <ele>2302.3535</ele>
        <time>2021-11-14T15:25:32Z</time>
      </trkpt>
      <trkpt lat="4.605992" lon="-75.132866">
        <ele>2302.1729</ele>
        <time>2021-11-14T15:25:33Z</time>
      </trkpt>
      <trkpt lat="4.606002" lon="-75.132805">
        <ele>2302.332</ele>
        <time>2021-11-14T15:25:34Z</time>
      </trkpt>
      <trkpt lat="4.605998" lon="-75.132736">
        <ele>2302.6387</ele>
        <time>2021-11-14T15:25:35Z</time>
      </trkpt>
      <trkpt lat="4.606005" lon="-75.132736">
        <ele>2302.6028</ele>
        <time>2021-11-14T15:25:36Z</time>
      </trkpt>
      <trkpt lat="4.606004" lon="-75.132675">
        <ele>2302.7837</ele>
        <time>2021-11-14T15:25:37Z</time>
      </trkpt>
      <trkpt lat="4.606" lon="-75.132637">
        <ele>2302.5198</ele>
        <time>2021-11-14T15:25:38Z</time>
      </trkpt>
      <trkpt lat="4.606003" lon="-75.132545">
        <ele>2302.8728</ele>
        <time>2021-11-14T15:25:39Z</time>
      </trkpt>
      <trkpt lat="4.606007" lon="-75.132484">
        <ele>2302.5918</ele>
        <time>2021-11-14T15:25:40Z</time>
      </trkpt>
      <trkpt lat="4.605992" lon="-75.1325">
        <ele>2303.709</ele>
        <time>2021-11-14T15:25:41Z</time>
      </trkpt>
      <trkpt lat="4.606001" lon="-75.132439">
        <ele>2302.4248</ele>
        <time>2021-11-14T15:25:42Z</time>
      </trkpt>
      <trkpt lat="4.606002" lon="-75.132362">
        <ele>2302.586</ele>
        <time>2021-11-14T15:25:43Z</time>
      </trkpt>
      <trkpt lat="4.606002" lon="-75.132362">
        <ele>2301.3389</ele>
        <time>2021-11-14T15:25:44Z</time>
      </trkpt>
      <trkpt lat="4.605977" lon="-75.132347">
        <ele>2299.3628</ele>
        <time>2021-11-14T15:25:45Z</time>
      </trkpt>
      <trkpt lat="4.605987" lon="-75.132355">
        <ele>2299.368</ele>
        <time>2021-11-14T15:25:46Z</time>
      </trkpt>
      <trkpt lat="4.605995" lon="-75.132317">
        <ele>2298.9</ele>
        <time>2021-11-14T15:25:47Z</time>
      </trkpt>
      <trkpt lat="4.605999" lon="-75.132271">
        <ele>2298.51</ele>
        <time>2021-11-14T15:25:48Z</time>
      </trkpt>
      <trkpt lat="4.60598" lon="-75.132217">
        <ele>2298.0103</ele>
        <time>2021-11-14T15:25:49Z</time>
      </trkpt>
      <trkpt lat="4.605963" lon="-75.132195">
        <ele>2297.9558</ele>
        <time>2021-11-14T15:25:50Z</time>
      </trkpt>
      <trkpt lat="4.605957" lon="-75.132172">
        <ele>2298.4482</ele>
        <time>2021-11-14T15:25:51Z</time>
      </trkpt>
      <trkpt lat="4.605949" lon="-75.132179">
        <ele>2298.346</ele>
        <time>2021-11-14T15:25:53Z</time>
      </trkpt>
      <trkpt lat="4.605945" lon="-75.132156">
        <ele>2298.6648</ele>
        <time>2021-11-14T15:25:54Z</time>
      </trkpt>
      <trkpt lat="4.605946" lon="-75.132149">
        <ele>2298.6729</ele>
        <time>2021-11-14T15:25:55Z</time>
      </trkpt>
      <trkpt lat="4.60595" lon="-75.132156">
        <ele>2298.041</ele>
        <time>2021-11-14T15:25:56Z</time>
      </trkpt>
      <trkpt lat="4.60595" lon="-75.132156">
        <ele>2298.0625</ele>
        <time>2021-11-14T15:25:57Z</time>
      </trkpt>
      <trkpt lat="4.60595" lon="-75.132156">
        <ele>2297.7898</ele>
        <time>2021-11-14T15:25:58Z</time>
      </trkpt>
      <trkpt lat="4.60595" lon="-75.132156">
        <ele>2297.8152</ele>
        <time>2021-11-14T15:25:59Z</time>
      </trkpt>
      <trkpt lat="4.605949" lon="-75.132156">
        <ele>2297.8582</ele>
        <time>2021-11-14T15:26:00Z</time>
      </trkpt>
      <trkpt lat="4.605949" lon="-75.132156">
        <ele>2297.8037</ele>
        <time>2021-11-14T15:26:01Z</time>
      </trkpt>
      <trkpt lat="4.605949" lon="-75.132156">
        <ele>2298.0693</ele>
        <time>2021-11-14T15:26:02Z</time>
      </trkpt>
      <trkpt lat="4.605949" lon="-75.132149">
        <ele>2298.2576</ele>
        <time>2021-11-14T15:26:03Z</time>
      </trkpt>
      <trkpt lat="4.605949" lon="-75.132149">
        <ele>2298.1948</ele>
        <time>2021-11-14T15:26:04Z</time>
      </trkpt>
      <trkpt lat="4.605949" lon="-75.132149">
        <ele>2298.0676</ele>
        <time>2021-11-14T15:26:05Z</time>
      </trkpt>
      <trkpt lat="4.605951" lon="-75.132133">
        <ele>2297.707</ele>
        <time>2021-11-14T15:26:06Z</time>
      </trkpt>
      <trkpt lat="4.605963" lon="-75.132057">
        <ele>2297.8655</ele>
        <time>2021-11-14T15:26:07Z</time>
      </trkpt>
      <trkpt lat="4.605952" lon="-75.131966">
        <ele>2299.1423</ele>
        <time>2021-11-14T15:26:08Z</time>
      </trkpt>
      <trkpt lat="4.60595" lon="-75.131943">
        <ele>2299.4194</ele>
        <time>2021-11-14T15:26:09Z</time>
      </trkpt>
      <trkpt lat="4.605953" lon="-75.13192">
        <ele>2299.1162</ele>
        <time>2021-11-14T15:26:10Z</time>
      </trkpt>
      <trkpt lat="4.605967" lon="-75.131851">
        <ele>2299.1497</ele>
        <time>2021-11-14T15:26:11Z</time>
      </trkpt>
      <trkpt lat="4.60598" lon="-75.13179">
        <ele>2300.6206</ele>
        <time>2021-11-14T15:26:12Z</time>
      </trkpt>
      <trkpt lat="4.605991" lon="-75.131767">
        <ele>2301.2798</ele>
        <time>2021-11-14T15:26:13Z</time>
      </trkpt>
      <trkpt lat="4.605991" lon="-75.131767">
        <ele>2301.447</ele>
        <time>2021-11-14T15:26:14Z</time>
      </trkpt>
      <trkpt lat="4.606014" lon="-75.131737">
        <ele>2301.8381</ele>
        <time>2021-11-14T15:26:15Z</time>
      </trkpt>
      <trkpt lat="4.606049" lon="-75.131737">
        <ele>2302.3237</ele>
        <time>2021-11-14T15:26:16Z</time>
      </trkpt>
      <trkpt lat="4.60604" lon="-75.131737">
        <ele>2303.2039</ele>
        <time>2021-11-14T15:26:17Z</time>
      </trkpt>
      <trkpt lat="4.606119" lon="-75.131668">
        <ele>2303.2039</ele>
        <time>2021-11-14T15:26:18Z</time>
      </trkpt>
      <trkpt lat="4.606124" lon="-75.131668">
        <ele>2303.0732</ele>
        <time>2021-11-14T15:26:19Z</time>
      </trkpt>
      <trkpt lat="4.606151" lon="-75.13166">
        <ele>2302.5718</ele>
        <time>2021-11-14T15:26:20Z</time>
      </trkpt>
      <trkpt lat="4.606166" lon="-75.131668">
        <ele>2303.292</ele>
        <time>2021-11-14T15:26:21Z</time>
      </trkpt>
      <trkpt lat="4.606202" lon="-75.131683">
        <ele>2304.057</ele>
        <time>2021-11-14T15:26:22Z</time>
      </trkpt>
      <trkpt lat="4.606203" lon="-75.131683">
        <ele>2304.057</ele>
        <time>2021-11-14T15:26:23Z</time>
      </trkpt>
      <trkpt lat="4.606203" lon="-75.131683">
        <ele>2304.8752</ele>
        <time>2021-11-14T15:26:24Z</time>
      </trkpt>
      <trkpt lat="4.606202" lon="-75.131683">
        <ele>2304.7517</ele>
        <time>2021-11-14T15:26:25Z</time>
      </trkpt>
      <trkpt lat="4.606202" lon="-75.131683">
        <ele>2304.8528</ele>
        <time>2021-11-14T15:26:26Z</time>
      </trkpt>
      <trkpt lat="4.606203" lon="-75.131683">
        <ele>2304.8098</ele>
        <time>2021-11-14T15:26:27Z</time>
      </trkpt>
      <trkpt lat="4.606204" lon="-75.131691">
        <ele>2304.5557</ele>
        <time>2021-11-14T15:26:28Z</time>
      </trkpt>
      <trkpt lat="4.606206" lon="-75.131691">
        <ele>2304.117</ele>
        <time>2021-11-14T15:26:29Z</time>
      </trkpt>
      <trkpt lat="4.606208" lon="-75.131691">
        <ele>2303.7463</ele>
        <time>2021-11-14T15:26:30Z</time>
      </trkpt>
      <trkpt lat="4.60621" lon="-75.131691">
        <ele>2303.633</ele>
        <time>2021-11-14T15:26:31Z</time>
      </trkpt>
      <trkpt lat="4.606212" lon="-75.131699">
        <ele>2303.697</ele>
        <time>2021-11-14T15:26:32Z</time>
      </trkpt>
      <trkpt lat="4.606213" lon="-75.131699">
        <ele>2303.5422</ele>
        <time>2021-11-14T15:26:33Z</time>
      </trkpt>
      <trkpt lat="4.606213" lon="-75.131699">
        <ele>2303.402</ele>
        <time>2021-11-14T15:26:34Z</time>
      </trkpt>
      <trkpt lat="4.606215" lon="-75.131699">
        <ele>2303.438</ele>
        <time>2021-11-14T15:26:35Z</time>
      </trkpt>
      <trkpt lat="4.606215" lon="-75.131699">
        <ele>2303.4707</ele>
        <time>2021-11-14T15:26:36Z</time>
      </trkpt>
      <trkpt lat="4.606216" lon="-75.131699">
        <ele>2303.4717</ele>
        <time>2021-11-14T15:26:38Z</time>
      </trkpt>
      <trkpt lat="4.606216" lon="-75.131699">
        <ele>2303.4717</ele>
        <time>2021-11-14T15:26:39Z</time>
      </trkpt>
      <trkpt lat="4.606216" lon="-75.131699">
        <ele>2303.4736</ele>
        <time>2021-11-14T15:26:40Z</time>
      </trkpt>
      <trkpt lat="4.606216" lon="-75.131699">
        <ele>2303.4446</ele>
        <time>2021-11-14T15:26:41Z</time>
      </trkpt>
      <trkpt lat="4.606216" lon="-75.131699">
        <ele>2303.4783</ele>
        <time>2021-11-14T15:26:42Z</time>
      </trkpt>
      <trkpt lat="4.606217" lon="-75.131699">
        <ele>2303.524</ele>
        <time>2021-11-14T15:26:43Z</time>
      </trkpt>
      <trkpt lat="4.606217" lon="-75.131699">
        <ele>2303.5762</ele>
        <time>2021-11-14T15:26:44Z</time>
      </trkpt>
      <trkpt lat="4.606218" lon="-75.131699">
        <ele>2303.6858</ele>
        <time>2021-11-14T15:26:45Z</time>
      </trkpt>
      <trkpt lat="4.606218" lon="-75.131699">
        <ele>2303.731</ele>
        <time>2021-11-14T15:26:46Z</time>
      </trkpt>
      <trkpt lat="4.606218" lon="-75.131699">
        <ele>2303.7646</ele>
        <time>2021-11-14T15:26:47Z</time>
      </trkpt>
      <trkpt lat="4.606218" lon="-75.131699">
        <ele>2303.8093</ele>
        <time>2021-11-14T15:26:48Z</time>
      </trkpt>
      <trkpt lat="4.606218" lon="-75.131699">
        <ele>2303.8093</ele>
        <time>2021-11-14T15:26:49Z</time>
      </trkpt>
      <trkpt lat="4.606218" lon="-75.131699">
        <ele>2303.7957</ele>
        <time>2021-11-14T15:26:50Z</time>
      </trkpt>
      <trkpt lat="4.606219" lon="-75.131699">
        <ele>2303.803</ele>
        <time>2021-11-14T15:26:51Z</time>
      </trkpt>
      <trkpt lat="4.606219" lon="-75.131699">
        <ele>2303.809</ele>
        <time>2021-11-14T15:26:52Z</time>
      </trkpt>
      <trkpt lat="4.606219" lon="-75.131699">
        <ele>2303.8137</ele>
        <time>2021-11-14T15:26:53Z</time>
      </trkpt>
      <trkpt lat="4.606219" lon="-75.131699">
        <ele>2303.8154</ele>
        <time>2021-11-14T15:26:54Z</time>
      </trkpt>
      <trkpt lat="4.606219" lon="-75.131699">
        <ele>2303.8164</ele>
        <time>2021-11-14T15:26:55Z</time>
      </trkpt>
      <trkpt lat="4.606219" lon="-75.131699">
        <ele>2303.8142</ele>
        <time>2021-11-14T15:26:56Z</time>
      </trkpt>
      <trkpt lat="4.606219" lon="-75.131699">
        <ele>2303.8186</ele>
        <time>2021-11-14T15:26:57Z</time>
      </trkpt>
      <trkpt lat="4.606219" lon="-75.131699">
        <ele>2303.8223</ele>
        <time>2021-11-14T15:26:58Z</time>
      </trkpt>
      <trkpt lat="4.606219" lon="-75.131699">
        <ele>2303.8206</ele>
        <time>2021-11-14T15:26:59Z</time>
      </trkpt>
      <trkpt lat="4.606219" lon="-75.131699">
        <ele>2303.8198</ele>
        <time>2021-11-14T15:27:00Z</time>
      </trkpt>
      <trkpt lat="4.606219" lon="-75.131699">
        <ele>2303.819</ele>
        <time>2021-11-14T15:27:01Z</time>
      </trkpt>
      <trkpt lat="4.606219" lon="-75.131699">
        <ele>2303.8027</ele>
        <time>2021-11-14T15:27:02Z</time>
      </trkpt>
      <trkpt lat="4.606219" lon="-75.131699">
        <ele>2303.8037</ele>
        <time>2021-11-14T15:27:03Z</time>
      </trkpt>
      <trkpt lat="4.606219" lon="-75.131699">
        <ele>2303.8027</ele>
        <time>2021-11-14T15:27:04Z</time>
      </trkpt>
      <trkpt lat="4.606219" lon="-75.131699">
        <ele>2303.8003</ele>
        <time>2021-11-14T15:27:05Z</time>
      </trkpt>
      <trkpt lat="4.606219" lon="-75.131699">
        <ele>2303.7952</ele>
        <time>2021-11-14T15:27:06Z</time>
      </trkpt>
      <trkpt lat="4.606219" lon="-75.131699">
        <ele>2303.797</ele>
        <time>2021-11-14T15:27:07Z</time>
      </trkpt>
      <trkpt lat="4.606219" lon="-75.131699">
        <ele>2303.7961</ele>
        <time>2021-11-14T15:27:08Z</time>
      </trkpt>
      <trkpt lat="4.606219" lon="-75.131699">
        <ele>2303.796</ele>
        <time>2021-11-14T15:27:09Z</time>
      </trkpt>
      <trkpt lat="4.606219" lon="-75.131699">
        <ele>2303.7964</ele>
        <time>2021-11-14T15:27:10Z</time>
      </trkpt>
      <trkpt lat="4.606219" lon="-75.131699">
        <ele>2303.7974</ele>
        <time>2021-11-14T15:27:11Z</time>
      </trkpt>
      <trkpt lat="4.606219" lon="-75.131699">
        <ele>2303.8005</ele>
        <time>2021-11-14T15:27:12Z</time>
      </trkpt>
      <trkpt lat="4.606219" lon="-75.131699">
        <ele>2303.8015</ele>
        <time>2021-11-14T15:27:13Z</time>
      </trkpt>
      <trkpt lat="4.60622" lon="-75.131699">
        <ele>2303.7966</ele>
        <time>2021-11-14T15:27:14Z</time>
      </trkpt>
      <trkpt lat="4.60622" lon="-75.131699">
        <ele>2303.7952</ele>
        <time>2021-11-14T15:27:15Z</time>
      </trkpt>
      <trkpt lat="4.60622" lon="-75.131699">
        <ele>2303.7915</ele>
        <time>2021-11-14T15:27:16Z</time>
      </trkpt>
      <trkpt lat="4.60622" lon="-75.131699">
        <ele>2303.7805</ele>
        <time>2021-11-14T15:27:17Z</time>
      </trkpt>
      <trkpt lat="4.60622" lon="-75.131699">
        <ele>2303.7808</ele>
        <time>2021-11-14T15:27:18Z</time>
      </trkpt>
      <trkpt lat="4.60622" lon="-75.131699">
        <ele>2303.7808</ele>
        <time>2021-11-14T15:27:19Z</time>
      </trkpt>
      <trkpt lat="4.60622" lon="-75.131699">
        <ele>2303.7805</ele>
        <time>2021-11-14T15:27:20Z</time>
      </trkpt>
      <trkpt lat="4.60622" lon="-75.131699">
        <ele>2303.778</ele>
        <time>2021-11-14T15:27:21Z</time>
      </trkpt>
      <trkpt lat="4.60622" lon="-75.131699">
        <ele>2303.7734</ele>
        <time>2021-11-14T15:27:22Z</time>
      </trkpt>
      <trkpt lat="4.60622" lon="-75.131699">
        <ele>2303.775</ele>
        <time>2021-11-14T15:27:23Z</time>
      </trkpt>
      <trkpt lat="4.60622" lon="-75.131699">
        <ele>2303.7737</ele>
        <time>2021-11-14T15:27:24Z</time>
      </trkpt>
      <trkpt lat="4.60622" lon="-75.131699">
        <ele>2303.7708</ele>
        <time>2021-11-14T15:27:25Z</time>
      </trkpt>
      <trkpt lat="4.60622" lon="-75.131699">
        <ele>2303.7695</ele>
        <time>2021-11-14T15:27:26Z</time>
      </trkpt>
      <trkpt lat="4.60622" lon="-75.131699">
        <ele>2303.772</ele>
        <time>2021-11-14T15:27:28Z</time>
      </trkpt>
      <trkpt lat="4.60622" lon="-75.131699">
        <ele>2303.7727</ele>
        <time>2021-11-14T15:27:29Z</time>
      </trkpt>
      <trkpt lat="4.60622" lon="-75.131699">
        <ele>2303.7712</ele>
        <time>2021-11-14T15:27:30Z</time>
      </trkpt>
      <trkpt lat="4.60622" lon="-75.131699">
        <ele>2303.7751</ele>
        <time>2021-11-14T15:27:31Z</time>
      </trkpt>
      <trkpt lat="4.60622" lon="-75.131699">
        <ele>2303.7751</ele>
        <time>2021-11-14T15:27:32Z</time>
      </trkpt>
      <trkpt lat="4.60622" lon="-75.131699">
        <ele>2303.7761</ele>
        <time>2021-11-14T15:27:33Z</time>
      </trkpt>
      <trkpt lat="4.60622" lon="-75.131699">
        <ele>2303.7761</ele>
        <time>2021-11-14T15:27:34Z</time>
      </trkpt>
      <trkpt lat="4.60622" lon="-75.131699">
        <ele>2303.7747</ele>
        <time>2021-11-14T15:27:35Z</time>
      </trkpt>
      <trkpt lat="4.60622" lon="-75.131699">
        <ele>2303.7705</ele>
        <time>2021-11-14T15:27:36Z</time>
      </trkpt>
      <trkpt lat="4.60622" lon="-75.131699">
        <ele>2303.771</ele>
        <time>2021-11-14T15:27:37Z</time>
      </trkpt>
      <trkpt lat="4.60622" lon="-75.131699">
        <ele>2303.7705</ele>
        <time>2021-11-14T15:27:38Z</time>
      </trkpt>
      <trkpt lat="4.60622" lon="-75.131699">
        <ele>2303.7725</ele>
        <time>2021-11-14T15:27:39Z</time>
      </trkpt>
      <trkpt lat="4.60622" lon="-75.131699">
        <ele>2303.774</ele>
        <time>2021-11-14T15:27:40Z</time>
      </trkpt>
      <trkpt lat="4.60622" lon="-75.131699">
        <ele>2303.7686</ele>
        <time>2021-11-14T15:27:41Z</time>
      </trkpt>
      <trkpt lat="4.60622" lon="-75.131699">
        <ele>2303.7651</ele>
        <time>2021-11-14T15:27:42Z</time>
      </trkpt>
      <trkpt lat="4.60622" lon="-75.131699">
        <ele>2303.7593</ele>
        <time>2021-11-14T15:27:43Z</time>
      </trkpt>
      <trkpt lat="4.60622" lon="-75.131699">
        <ele>2303.7598</ele>
        <time>2021-11-14T15:27:44Z</time>
      </trkpt>
      <trkpt lat="4.60622" lon="-75.131699">
        <ele>2303.7559</ele>
        <time>2021-11-14T15:27:45Z</time>
      </trkpt>
      <trkpt lat="4.60622" lon="-75.131699">
        <ele>2303.753</ele>
        <time>2021-11-14T15:27:46Z</time>
      </trkpt>
      <trkpt lat="4.60622" lon="-75.131699">
        <ele>2303.755</ele>
        <time>2021-11-14T15:27:47Z</time>
      </trkpt>
      <trkpt lat="4.60622" lon="-75.131699">
        <ele>2303.7441</ele>
        <time>2021-11-14T15:27:48Z</time>
      </trkpt>
      <trkpt lat="4.60622" lon="-75.131699">
        <ele>2303.74</ele>
        <time>2021-11-14T15:27:49Z</time>
      </trkpt>
      <trkpt lat="4.60622" lon="-75.131699">
        <ele>2303.7388</ele>
        <time>2021-11-14T15:27:50Z</time>
      </trkpt>
      <trkpt lat="4.60622" lon="-75.131699">
        <ele>2303.7444</ele>
        <time>2021-11-14T15:27:51Z</time>
      </trkpt>
      <trkpt lat="4.60622" lon="-75.131699">
        <ele>2303.7444</ele>
        <time>2021-11-14T15:27:52Z</time>
      </trkpt>
      <trkpt lat="4.60622" lon="-75.131699">
        <ele>2303.746</ele>
        <time>2021-11-14T15:27:53Z</time>
      </trkpt>
      <trkpt lat="4.60622" lon="-75.131699">
        <ele>2303.7444</ele>
        <time>2021-11-14T15:27:54Z</time>
      </trkpt>
      <trkpt lat="4.60622" lon="-75.131699">
        <ele>2303.7476</ele>
        <time>2021-11-14T15:27:55Z</time>
      </trkpt>
      <trkpt lat="4.60622" lon="-75.131699">
        <ele>2303.7458</ele>
        <time>2021-11-14T15:27:56Z</time>
      </trkpt>
      <trkpt lat="4.60622" lon="-75.131699">
        <ele>2303.7466</ele>
        <time>2021-11-14T15:27:57Z</time>
      </trkpt>
      <trkpt lat="4.60622" lon="-75.131699">
        <ele>2303.7476</ele>
        <time>2021-11-14T15:27:58Z</time>
      </trkpt>
      <trkpt lat="4.60622" lon="-75.131699">
        <ele>2303.7456</ele>
        <time>2021-11-14T15:27:59Z</time>
      </trkpt>
      <trkpt lat="4.60622" lon="-75.131699">
        <ele>2303.7444</ele>
        <time>2021-11-14T15:28:00Z</time>
      </trkpt>
      <trkpt lat="4.60622" lon="-75.131699">
        <ele>2303.744</ele>
        <time>2021-11-14T15:28:01Z</time>
      </trkpt>
      <trkpt lat="4.60622" lon="-75.131699">
        <ele>2303.7427</ele>
        <time>2021-11-14T15:28:02Z</time>
      </trkpt>
      <trkpt lat="4.60622" lon="-75.131699">
        <ele>2303.7427</ele>
        <time>2021-11-14T15:28:03Z</time>
      </trkpt>
      <trkpt lat="4.60622" lon="-75.131699">
        <ele>2303.7434</ele>
        <time>2021-11-14T15:28:04Z</time>
      </trkpt>
      <trkpt lat="4.60622" lon="-75.131699">
        <ele>2303.746</ele>
        <time>2021-11-14T15:28:05Z</time>
      </trkpt>
      <trkpt lat="4.60622" lon="-75.131699">
        <ele>2303.748</ele>
        <time>2021-11-14T15:28:06Z</time>
      </trkpt>
      <trkpt lat="4.60622" lon="-75.131699">
        <ele>2303.7495</ele>
        <time>2021-11-14T15:28:07Z</time>
      </trkpt>
      <trkpt lat="4.60622" lon="-75.131699">
        <ele>2303.7502</ele>
        <time>2021-11-14T15:28:08Z</time>
      </trkpt>
      <trkpt lat="4.60622" lon="-75.131699">
        <ele>2303.7532</ele>
        <time>2021-11-14T15:28:09Z</time>
      </trkpt>
      <trkpt lat="4.60622" lon="-75.131699">
        <ele>2303.7527</ele>
        <time>2021-11-14T15:28:10Z</time>
      </trkpt>
      <trkpt lat="4.60622" lon="-75.131699">
        <ele>2303.7515</ele>
        <time>2021-11-14T15:28:11Z</time>
      </trkpt>
      <trkpt lat="4.60622" lon="-75.131699">
        <ele>2303.7524</ele>
        <time>2021-11-14T15:28:12Z</time>
      </trkpt>
      <trkpt lat="4.60622" lon="-75.131699">
        <ele>2303.7568</ele>
        <time>2021-11-14T15:28:13Z</time>
      </trkpt>
      <trkpt lat="4.60622" lon="-75.131699">
        <ele>2303.7551</ele>
        <time>2021-11-14T15:28:14Z</time>
      </trkpt>
      <trkpt lat="4.60622" lon="-75.131699">
        <ele>2303.7559</ele>
        <time>2021-11-14T15:28:15Z</time>
      </trkpt>
      <trkpt lat="4.60622" lon="-75.131699">
        <ele>2303.759</ele>
        <time>2021-11-14T15:28:16Z</time>
      </trkpt>
      <trkpt lat="4.60622" lon="-75.131699">
        <ele>2303.7578</ele>
        <time>2021-11-14T15:28:17Z</time>
      </trkpt>
      <trkpt lat="4.60622" lon="-75.131699">
        <ele>2303.755</ele>
        <time>2021-11-14T15:28:18Z</time>
      </trkpt>
      <trkpt lat="4.60622" lon="-75.131699">
        <ele>2303.7527</ele>
        <time>2021-11-14T15:28:19Z</time>
      </trkpt>
      <trkpt lat="4.60622" lon="-75.131699">
        <ele>2303.7515</ele>
        <time>2021-11-14T15:28:20Z</time>
      </trkpt>
      <trkpt lat="4.60622" lon="-75.131699">
        <ele>2303.7502</ele>
        <time>2021-11-14T15:28:21Z</time>
      </trkpt>
      <trkpt lat="4.60622" lon="-75.131699">
        <ele>2303.7456</ele>
        <time>2021-11-14T15:28:22Z</time>
      </trkpt>
      <trkpt lat="4.60622" lon="-75.131699">
        <ele>2303.7427</ele>
        <time>2021-11-14T15:28:23Z</time>
      </trkpt>
      <trkpt lat="4.60622" lon="-75.131699">
        <ele>2303.7432</ele>
        <time>2021-11-14T15:28:24Z</time>
      </trkpt>
      <trkpt lat="4.60622" lon="-75.131699">
        <ele>2303.7388</ele>
        <time>2021-11-14T15:28:25Z</time>
      </trkpt>
      <trkpt lat="4.606221" lon="-75.131699">
        <ele>2303.7356</ele>
        <time>2021-11-14T15:28:26Z</time>
      </trkpt>
      <trkpt lat="4.606221" lon="-75.131699">
        <ele>2303.735</ele>
        <time>2021-11-14T15:28:27Z</time>
      </trkpt>
      <trkpt lat="4.606221" lon="-75.131699">
        <ele>2303.7288</ele>
        <time>2021-11-14T15:28:28Z</time>
      </trkpt>
      <trkpt lat="4.606221" lon="-75.131699">
        <ele>2303.7234</ele>
        <time>2021-11-14T15:28:29Z</time>
      </trkpt>
      <trkpt lat="4.606221" lon="-75.131699">
        <ele>2303.724</ele>
        <time>2021-11-14T15:28:30Z</time>
      </trkpt>
      <trkpt lat="4.606221" lon="-75.131699">
        <ele>2303.723</ele>
        <time>2021-11-14T15:28:31Z</time>
      </trkpt>
      <trkpt lat="4.606221" lon="-75.131699">
        <ele>2303.7236</ele>
        <time>2021-11-14T15:28:32Z</time>
      </trkpt>
      <trkpt lat="4.606221" lon="-75.131699">
        <ele>2303.7249</ele>
        <time>2021-11-14T15:28:33Z</time>
      </trkpt>
      <trkpt lat="4.606221" lon="-75.131699">
        <ele>2303.7236</ele>
        <time>2021-11-14T15:28:34Z</time>
      </trkpt>
      <trkpt lat="4.606221" lon="-75.131699">
        <ele>2303.798</ele>
        <time>2021-11-14T15:28:35Z</time>
      </trkpt>
      <trkpt lat="4.606221" lon="-75.131699">
        <ele>2303.1968</ele>
        <time>2021-11-14T15:28:36Z</time>
      </trkpt>
      <trkpt lat="4.606224" lon="-75.131699">
        <ele>2304.3145</ele>
        <time>2021-11-14T15:28:37Z</time>
      </trkpt>
      <trkpt lat="4.606228" lon="-75.131699">
        <ele>2303.4832</ele>
        <time>2021-11-14T15:28:38Z</time>
      </trkpt>
      <trkpt lat="4.606231" lon="-75.131699">
        <ele>2302.7407</ele>
        <time>2021-11-14T15:28:39Z</time>
      </trkpt>
      <trkpt lat="4.606235" lon="-75.131699">
        <ele>2302.8047</ele>
        <time>2021-11-14T15:28:40Z</time>
      </trkpt>
      <trkpt lat="4.60624" lon="-75.131699">
        <ele>2303.4255</ele>
        <time>2021-11-14T15:28:41Z</time>
      </trkpt>
      <trkpt lat="4.606243" lon="-75.131699">
        <ele>2304.0996</ele>
        <time>2021-11-14T15:28:42Z</time>
      </trkpt>
      <trkpt lat="4.606244" lon="-75.131691">
        <ele>2303.8955</ele>
        <time>2021-11-14T15:28:43Z</time>
      </trkpt>
      <trkpt lat="4.606244" lon="-75.131691">
        <ele>2304.2495</ele>
        <time>2021-11-14T15:28:44Z</time>
      </trkpt>
      <trkpt lat="4.606244" lon="-75.131691">
        <ele>2304.386</ele>
        <time>2021-11-14T15:28:45Z</time>
      </trkpt>
      <trkpt lat="4.606245" lon="-75.131691">
        <ele>2304.3013</ele>
        <time>2021-11-14T15:28:46Z</time>
      </trkpt>
      <trkpt lat="4.606245" lon="-75.131691">
        <ele>2304.2163</ele>
        <time>2021-11-14T15:28:47Z</time>
      </trkpt>
      <trkpt lat="4.606246" lon="-75.131691">
        <ele>2303.9456</ele>
        <time>2021-11-14T15:28:48Z</time>
      </trkpt>
      <trkpt lat="4.606246" lon="-75.131691">
        <ele>2304.2295</ele>
        <time>2021-11-14T15:28:49Z</time>
      </trkpt>
      <trkpt lat="4.606246" lon="-75.131691">
        <ele>2304.1123</ele>
        <time>2021-11-14T15:28:50Z</time>
      </trkpt>
      <trkpt lat="4.606246" lon="-75.131691">
        <ele>2304.1174</ele>
        <time>2021-11-14T15:28:51Z</time>
      </trkpt>
      <trkpt lat="4.606248" lon="-75.131699">
        <ele>2303.9087</ele>
        <time>2021-11-14T15:28:52Z</time>
      </trkpt>
      <trkpt lat="4.606249" lon="-75.131699">
        <ele>2303.646</ele>
        <time>2021-11-14T15:28:53Z</time>
      </trkpt>
      <trkpt lat="4.60625" lon="-75.131699">
        <ele>2303.5679</ele>
        <time>2021-11-14T15:28:55Z</time>
      </trkpt>
      <trkpt lat="4.60625" lon="-75.131699">
        <ele>2303.554</ele>
        <time>2021-11-14T15:28:56Z</time>
      </trkpt>
      <trkpt lat="4.606251" lon="-75.131699">
        <ele>2303.5447</ele>
        <time>2021-11-14T15:28:57Z</time>
      </trkpt>
      <trkpt lat="4.606251" lon="-75.131699">
        <ele>2303.5986</ele>
        <time>2021-11-14T15:28:58Z</time>
      </trkpt>
      <trkpt lat="4.607804" lon="-75.13121">
        <ele>2299.7966</ele>
        <time>2021-11-14T15:30:29Z</time>
      </trkpt>
      <trkpt lat="4.607683" lon="-75.131111">
        <ele>2297.007</ele>
        <time>2021-11-14T15:30:30Z</time>
      </trkpt>
      <trkpt lat="4.607653" lon="-75.131081">
        <ele>2293.5986</ele>
        <time>2021-11-14T15:30:31Z</time>
      </trkpt>
      <trkpt lat="4.607642" lon="-75.131073">
        <ele>2289.973</ele>
        <time>2021-11-14T15:30:32Z</time>
      </trkpt>
      <trkpt lat="4.607616" lon="-75.131012">
        <ele>2290.5168</ele>
        <time>2021-11-14T15:30:33Z</time>
      </trkpt>
      <trkpt lat="4.607559" lon="-75.130981">
        <ele>2290.411</ele>
        <time>2021-11-14T15:30:34Z</time>
      </trkpt>
      <trkpt lat="4.607494" lon="-75.130966">
        <ele>2290.111</ele>
        <time>2021-11-14T15:30:35Z</time>
      </trkpt>
      <trkpt lat="4.607449" lon="-75.130981">
        <ele>2290.152</ele>
        <time>2021-11-14T15:30:36Z</time>
      </trkpt>
      <trkpt lat="4.607417" lon="-75.131004">
        <ele>2290.0405</ele>
        <time>2021-11-14T15:30:37Z</time>
      </trkpt>
      <trkpt lat="4.607375" lon="-75.131012">
        <ele>2290.4521</ele>
        <time>2021-11-14T15:30:38Z</time>
      </trkpt>
      <trkpt lat="4.607319" lon="-75.130997">
        <ele>2290.286</ele>
        <time>2021-11-14T15:30:39Z</time>
      </trkpt>
      <trkpt lat="4.607266" lon="-75.130981">
        <ele>2290.7615</ele>
        <time>2021-11-14T15:30:40Z</time>
      </trkpt>
      <trkpt lat="4.607206" lon="-75.130981">
        <ele>2289.308</ele>
        <time>2021-11-14T15:30:41Z</time>
      </trkpt>
      <trkpt lat="4.607139" lon="-75.130951">
        <ele>2291.5361</ele>
        <time>2021-11-14T15:30:42Z</time>
      </trkpt>
      <trkpt lat="4.607139" lon="-75.130951">
        <ele>2293.0261</ele>
        <time>2021-11-14T15:30:43Z</time>
      </trkpt>
      <trkpt lat="4.607086" lon="-75.130875">
        <ele>2291.971</ele>
        <time>2021-11-14T15:30:44Z</time>
      </trkpt>
      <trkpt lat="4.607024" lon="-75.130836">
        <ele>2292.8948</ele>
        <time>2021-11-14T15:30:45Z</time>
      </trkpt>
      <trkpt lat="4.606987" lon="-75.130798">
        <ele>2293.1882</ele>
        <time>2021-11-14T15:30:46Z</time>
      </trkpt>
      <trkpt lat="4.606936" lon="-75.130753">
        <ele>2294.4373</ele>
        <time>2021-11-14T15:30:47Z</time>
      </trkpt>
      <trkpt lat="4.606913" lon="-75.130707">
        <ele>2294.5913</ele>
        <time>2021-11-14T15:30:48Z</time>
      </trkpt>
      <trkpt lat="4.606864" lon="-75.130653">
        <ele>2295.1746</ele>
        <time>2021-11-14T15:30:49Z</time>
      </trkpt>
      <trkpt lat="4.606902" lon="-75.130585">
        <ele>2295.8704</ele>
        <time>2021-11-14T15:30:50Z</time>
      </trkpt>
      <trkpt lat="4.60693" lon="-75.130554">
        <ele>2295.9883</ele>
        <time>2021-11-14T15:30:51Z</time>
      </trkpt>
      <trkpt lat="4.606919" lon="-75.130493">
        <ele>2297.8865</ele>
        <time>2021-11-14T15:30:52Z</time>
      </trkpt>
      <trkpt lat="4.60703" lon="-75.130409">
        <ele>2300.1582</ele>
        <time>2021-11-14T15:30:53Z</time>
      </trkpt>
      <trkpt lat="4.607062" lon="-75.130356">
        <ele>2299.3386</ele>
        <time>2021-11-14T15:30:54Z</time>
      </trkpt>
      <trkpt lat="4.607101" lon="-75.130287">
        <ele>2298.7876</ele>
        <time>2021-11-14T15:30:55Z</time>
      </trkpt>
      <trkpt lat="4.60709" lon="-75.130272">
        <ele>2297.5068</ele>
        <time>2021-11-14T15:30:56Z</time>
      </trkpt>
      <trkpt lat="4.607086" lon="-75.130219">
        <ele>2299.0032</ele>
        <time>2021-11-14T15:30:57Z</time>
      </trkpt>
      <trkpt lat="4.607016" lon="-75.130135">
        <ele>2300.921</ele>
        <time>2021-11-14T15:30:58Z</time>
      </trkpt>
      <trkpt lat="4.606943" lon="-75.130104">
        <ele>2301.0957</ele>
        <time>2021-11-14T15:30:59Z</time>
      </trkpt>
      <trkpt lat="4.606876" lon="-75.130074">
        <ele>2300.9473</ele>
        <time>2021-11-14T15:31:00Z</time>
      </trkpt>
      <trkpt lat="4.606822" lon="-75.130013">
        <ele>2302.4658</ele>
        <time>2021-11-14T15:31:01Z</time>
      </trkpt>
      <trkpt lat="4.606709" lon="-75.129883">
        <ele>2303.3796</ele>
        <time>2021-11-14T15:31:02Z</time>
      </trkpt>
      <trkpt lat="4.606694" lon="-75.129837">
        <ele>2303.7297</ele>
        <time>2021-11-14T15:31:03Z</time>
      </trkpt>
      <trkpt lat="4.606681" lon="-75.129799">
        <ele>2303.0217</ele>
        <time>2021-11-14T15:31:04Z</time>
      </trkpt>
      <trkpt lat="4.606663" lon="-75.129776">
        <ele>2302.387</ele>
        <time>2021-11-14T15:31:05Z</time>
      </trkpt>
      <trkpt lat="4.606649" lon="-75.129753">
        <ele>2302.2927</ele>
        <time>2021-11-14T15:31:06Z</time>
      </trkpt>
      <trkpt lat="4.6066" lon="-75.1297">
        <ele>2302.4255</ele>
        <time>2021-11-14T15:31:07Z</time>
      </trkpt>
      <trkpt lat="4.606619" lon="-75.129761">
        <ele>2302.342</ele>
        <time>2021-11-14T15:31:08Z</time>
      </trkpt>
      <trkpt lat="4.606555" lon="-75.129723">
        <ele>2302.148</ele>
        <time>2021-11-14T15:31:09Z</time>
      </trkpt>
      <trkpt lat="4.606473" lon="-75.129684">
        <ele>2303.2788</ele>
        <time>2021-11-14T15:31:10Z</time>
      </trkpt>
      <trkpt lat="4.606473" lon="-75.129684">
        <ele>2303.222</ele>
        <time>2021-11-14T15:31:11Z</time>
      </trkpt>
      <trkpt lat="4.606437" lon="-75.129677">
        <ele>2303.6365</ele>
        <time>2021-11-14T15:31:12Z</time>
      </trkpt>
      <trkpt lat="4.606395" lon="-75.129654">
        <ele>2305.0508</ele>
        <time>2021-11-14T15:31:13Z</time>
      </trkpt>
      <trkpt lat="4.606329" lon="-75.129601">
        <ele>2304.6724</ele>
        <time>2021-11-14T15:31:14Z</time>
      </trkpt>
      <trkpt lat="4.606261" lon="-75.129555">
        <ele>2304.965</ele>
        <time>2021-11-14T15:31:15Z</time>
      </trkpt>
      <trkpt lat="4.606188" lon="-75.129494">
        <ele>2305.3586</ele>
        <time>2021-11-14T15:31:16Z</time>
      </trkpt>
      <trkpt lat="4.606142" lon="-75.129471">
        <ele>2305.7705</ele>
        <time>2021-11-14T15:31:17Z</time>
      </trkpt>
      <trkpt lat="4.606127" lon="-75.129456">
        <ele>2305.7866</ele>
        <time>2021-11-14T15:31:18Z</time>
      </trkpt>
      <trkpt lat="4.606093" lon="-75.129433">
        <ele>2306.4072</ele>
        <time>2021-11-14T15:31:19Z</time>
      </trkpt>
      <trkpt lat="4.606029" lon="-75.129379">
        <ele>2306.0366</ele>
        <time>2021-11-14T15:31:20Z</time>
      </trkpt>
      <trkpt lat="4.605982" lon="-75.129356">
        <ele>2305.336</ele>
        <time>2021-11-14T15:31:21Z</time>
      </trkpt>
      <trkpt lat="4.605918" lon="-75.129295">
        <ele>2306.9846</ele>
        <time>2021-11-14T15:31:22Z</time>
      </trkpt>
      <trkpt lat="4.605803" lon="-75.129189">
        <ele>2308.2593</ele>
        <time>2021-11-14T15:31:23Z</time>
      </trkpt>
      <trkpt lat="4.605748" lon="-75.129166">
        <ele>2309.976</ele>
        <time>2021-11-14T15:31:24Z</time>
      </trkpt>
      <trkpt lat="4.605704" lon="-75.129128">
        <ele>2309.8835</ele>
        <time>2021-11-14T15:31:25Z</time>
      </trkpt>
      <trkpt lat="4.605642" lon="-75.129089">
        <ele>2310.1396</ele>
        <time>2021-11-14T15:31:26Z</time>
      </trkpt>
      <trkpt lat="4.605598" lon="-75.129036">
        <ele>2310.9983</ele>
        <time>2021-11-14T15:31:27Z</time>
      </trkpt>
      <trkpt lat="4.605509" lon="-75.128975">
        <ele>2311.7024</ele>
        <time>2021-11-14T15:31:28Z</time>
      </trkpt>
      <trkpt lat="4.605558" lon="-75.129005">
        <ele>2311.1953</ele>
        <time>2021-11-14T15:31:29Z</time>
      </trkpt>
      <trkpt lat="4.60558" lon="-75.128998">
        <ele>2311.584</ele>
        <time>2021-11-14T15:31:30Z</time>
      </trkpt>
      <trkpt lat="4.60558" lon="-75.128998">
        <ele>2312.2493</ele>
        <time>2021-11-14T15:31:31Z</time>
      </trkpt>
      <trkpt lat="4.605579" lon="-75.128998">
        <ele>2312.529</ele>
        <time>2021-11-14T15:31:32Z</time>
      </trkpt>
      <trkpt lat="4.60556" lon="-75.128944">
        <ele>2313.099</ele>
        <time>2021-11-14T15:31:33Z</time>
      </trkpt>
      <trkpt lat="4.605547" lon="-75.128883">
        <ele>2313.033</ele>
        <time>2021-11-14T15:31:34Z</time>
      </trkpt>
      <trkpt lat="4.605542" lon="-75.128822">
        <ele>2312.863</ele>
        <time>2021-11-14T15:31:35Z</time>
      </trkpt>
      <trkpt lat="4.605548" lon="-75.128799">
        <ele>2314.2246</ele>
        <time>2021-11-14T15:31:37Z</time>
      </trkpt>
      <trkpt lat="4.605579" lon="-75.128708">
        <ele>2312.4666</ele>
        <time>2021-11-14T15:31:38Z</time>
      </trkpt>
      <trkpt lat="4.605597" lon="-75.128639">
        <ele>2312.0913</ele>
        <time>2021-11-14T15:31:39Z</time>
      </trkpt>
      <trkpt lat="4.605616" lon="-75.128571">
        <ele>2313.0403</ele>
        <time>2021-11-14T15:31:40Z</time>
      </trkpt>
      <trkpt lat="4.605637" lon="-75.128494">
        <ele>2312.0095</ele>
        <time>2021-11-14T15:31:41Z</time>
      </trkpt>
      <trkpt lat="4.605653" lon="-75.128403">
        <ele>2311.5996</ele>
        <time>2021-11-14T15:31:42Z</time>
      </trkpt>
      <trkpt lat="4.605691" lon="-75.128326">
        <ele>2311.1235</ele>
        <time>2021-11-14T15:31:43Z</time>
      </trkpt>
      <trkpt lat="4.605693" lon="-75.128281">
        <ele>2311.1907</ele>
        <time>2021-11-14T15:31:44Z</time>
      </trkpt>
      <trkpt lat="4.605718" lon="-75.128159">
        <ele>2311.8694</ele>
        <time>2021-11-14T15:31:45Z</time>
      </trkpt>
      <trkpt lat="4.60573" lon="-75.128014">
        <ele>2310.8318</ele>
        <time>2021-11-14T15:31:46Z</time>
      </trkpt>
      <trkpt lat="4.60573" lon="-75.128014">
        <ele>2310.5671</ele>
        <time>2021-11-14T15:31:47Z</time>
      </trkpt>
      <trkpt lat="4.605726" lon="-75.127914">
        <ele>2310.3162</ele>
        <time>2021-11-14T15:31:48Z</time>
      </trkpt>
      <trkpt lat="4.605732" lon="-75.127823">
        <ele>2309.5999</ele>
        <time>2021-11-14T15:31:49Z</time>
      </trkpt>
      <trkpt lat="4.60574" lon="-75.127769">
        <ele>2308.2266</ele>
        <time>2021-11-14T15:31:50Z</time>
      </trkpt>
      <trkpt lat="4.60575" lon="-75.127693">
        <ele>2309.3735</ele>
        <time>2021-11-14T15:31:51Z</time>
      </trkpt>
      <trkpt lat="4.605798" lon="-75.127625">
        <ele>2309.561</ele>
        <time>2021-11-14T15:31:52Z</time>
      </trkpt>
      <trkpt lat="4.605819" lon="-75.127579">
        <ele>2309.1646</ele>
        <time>2021-11-14T15:31:53Z</time>
      </trkpt>
      <trkpt lat="4.605849" lon="-75.127518">
        <ele>2308.6494</ele>
        <time>2021-11-14T15:31:54Z</time>
      </trkpt>
      <trkpt lat="4.605893" lon="-75.127472">
        <ele>2307.9512</ele>
        <time>2021-11-14T15:31:55Z</time>
      </trkpt>
      <trkpt lat="4.605945" lon="-75.127441">
        <ele>2307.5588</ele>
        <time>2021-11-14T15:31:56Z</time>
      </trkpt>
      <trkpt lat="4.606013" lon="-75.127388">
        <ele>2306.9343</ele>
        <time>2021-11-14T15:31:57Z</time>
      </trkpt>
      <trkpt lat="4.606026" lon="-75.127403">
        <ele>2307.9248</ele>
        <time>2021-11-14T15:31:58Z</time>
      </trkpt>
      <trkpt lat="4.606062" lon="-75.12735">
        <ele>2307.6653</ele>
        <time>2021-11-14T15:31:59Z</time>
      </trkpt>
      <trkpt lat="4.606092" lon="-75.127365">
        <ele>2308.3381</ele>
        <time>2021-11-14T15:32:00Z</time>
      </trkpt>
      <trkpt lat="4.60617" lon="-75.127335">
        <ele>2308.6099</ele>
        <time>2021-11-14T15:32:01Z</time>
      </trkpt>
      <trkpt lat="4.606201" lon="-75.127335">
        <ele>2308.105</ele>
        <time>2021-11-14T15:32:02Z</time>
      </trkpt>
      <trkpt lat="4.606256" lon="-75.127312">
        <ele>2307.9937</ele>
        <time>2021-11-14T15:32:03Z</time>
      </trkpt>
      <trkpt lat="4.606338" lon="-75.127335">
        <ele>2307.745</ele>
        <time>2021-11-14T15:32:04Z</time>
      </trkpt>
      <trkpt lat="4.606352" lon="-75.127319">
        <ele>2305.874</ele>
        <time>2021-11-14T15:32:05Z</time>
      </trkpt>
      <trkpt lat="4.606419" lon="-75.12735">
        <ele>2306.189</ele>
        <time>2021-11-14T15:32:06Z</time>
      </trkpt>
      <trkpt lat="4.606486" lon="-75.127403">
        <ele>2305.8667</ele>
        <time>2021-11-14T15:32:07Z</time>
      </trkpt>
      <trkpt lat="4.606568" lon="-75.127434">
        <ele>2306.569</ele>
        <time>2021-11-14T15:32:08Z</time>
      </trkpt>
      <trkpt lat="4.606597" lon="-75.127441">
        <ele>2306.744</ele>
        <time>2021-11-14T15:32:09Z</time>
      </trkpt>
      <trkpt lat="4.606629" lon="-75.127441">
        <ele>2307.6409</ele>
        <time>2021-11-14T15:32:10Z</time>
      </trkpt>
      <trkpt lat="4.606668" lon="-75.127419">
        <ele>2307.2002</ele>
        <time>2021-11-14T15:32:11Z</time>
      </trkpt>
      <trkpt lat="4.60678" lon="-75.127388">
        <ele>2306.8574</ele>
        <time>2021-11-14T15:32:12Z</time>
      </trkpt>
      <trkpt lat="4.60678" lon="-75.127388">
        <ele>2308.1694</ele>
        <time>2021-11-14T15:32:13Z</time>
      </trkpt>
      <trkpt lat="4.606828" lon="-75.127357">
        <ele>2305.549</ele>
        <time>2021-11-14T15:32:14Z</time>
      </trkpt>
      <trkpt lat="4.606889" lon="-75.127388">
        <ele>2305.496</ele>
        <time>2021-11-14T15:32:15Z</time>
      </trkpt>
      <trkpt lat="4.607025" lon="-75.12738">
        <ele>2305.407</ele>
        <time>2021-11-14T15:32:16Z</time>
      </trkpt>
      <trkpt lat="4.607055" lon="-75.127365">
        <ele>2304.8254</ele>
        <time>2021-11-14T15:32:17Z</time>
      </trkpt>
      <trkpt lat="4.607117" lon="-75.127335">
        <ele>2305.211</ele>
        <time>2021-11-14T15:32:18Z</time>
      </trkpt>
      <trkpt lat="4.60719" lon="-75.127312">
        <ele>2301.5356</ele>
        <time>2021-11-14T15:32:20Z</time>
      </trkpt>
      <trkpt lat="4.607307" lon="-75.127274">
        <ele>2300.5408</ele>
        <time>2021-11-14T15:32:21Z</time>
      </trkpt>
      <trkpt lat="4.607332" lon="-75.12722">
        <ele>2300.7734</ele>
        <time>2021-11-14T15:32:22Z</time>
      </trkpt>
      <trkpt lat="4.607381" lon="-75.127174">
        <ele>2298.2346</ele>
        <time>2021-11-14T15:32:23Z</time>
      </trkpt>
      <trkpt lat="4.607443" lon="-75.127113">
        <ele>2299.6443</ele>
        <time>2021-11-14T15:32:24Z</time>
      </trkpt>
      <trkpt lat="4.607491" lon="-75.127075">
        <ele>2299.457</ele>
        <time>2021-11-14T15:32:25Z</time>
      </trkpt>
      <trkpt lat="4.607507" lon="-75.127014">
        <ele>2299.751</ele>
        <time>2021-11-14T15:32:26Z</time>
      </trkpt>
      <trkpt lat="4.607565" lon="-75.126945">
        <ele>2297.3767</ele>
        <time>2021-11-14T15:32:27Z</time>
      </trkpt>
      <trkpt lat="4.607613" lon="-75.126976">
        <ele>2294.9885</ele>
        <time>2021-11-14T15:32:28Z</time>
      </trkpt>
      <trkpt lat="4.607675" lon="-75.126915">
        <ele>2294.142</ele>
        <time>2021-11-14T15:32:29Z</time>
      </trkpt>
      <trkpt lat="4.607774" lon="-75.126892">
        <ele>2293.7437</ele>
        <time>2021-11-14T15:32:30Z</time>
      </trkpt>
      <trkpt lat="4.607862" lon="-75.126862">
        <ele>2293.7542</ele>
        <time>2021-11-14T15:32:31Z</time>
      </trkpt>
      <trkpt lat="4.607851" lon="-75.126877">
        <ele>2293.4568</ele>
        <time>2021-11-14T15:32:32Z</time>
      </trkpt>
      <trkpt lat="4.607947" lon="-75.126816">
        <ele>2291.8232</ele>
        <time>2021-11-14T15:32:33Z</time>
      </trkpt>
      <trkpt lat="4.607992" lon="-75.126823">
        <ele>2291.5774</ele>
        <time>2021-11-14T15:32:34Z</time>
      </trkpt>
      <trkpt lat="4.608035" lon="-75.126839">
        <ele>2292.2798</ele>
        <time>2021-11-14T15:32:35Z</time>
      </trkpt>
      <trkpt lat="4.608093" lon="-75.126862">
        <ele>2292.8682</ele>
        <time>2021-11-14T15:32:36Z</time>
      </trkpt>
      <trkpt lat="4.608128" lon="-75.126869">
        <ele>2293.43</ele>
        <time>2021-11-14T15:32:37Z</time>
      </trkpt>
      <trkpt lat="4.608174" lon="-75.126869">
        <ele>2293.1045</ele>
        <time>2021-11-14T15:32:38Z</time>
      </trkpt>
      <trkpt lat="4.608174" lon="-75.126869">
        <ele>2294.1448</ele>
        <time>2021-11-14T15:32:39Z</time>
      </trkpt>
      <trkpt lat="4.608314" lon="-75.126869">
        <ele>2293.9048</ele>
        <time>2021-11-14T15:32:40Z</time>
      </trkpt>
      <trkpt lat="4.608341" lon="-75.126862">
        <ele>2293.4639</ele>
        <time>2021-11-14T15:32:41Z</time>
      </trkpt>
      <trkpt lat="4.608362" lon="-75.126884">
        <ele>2293.5168</ele>
        <time>2021-11-14T15:32:42Z</time>
      </trkpt>
      <trkpt lat="4.608417" lon="-75.126892">
        <ele>2293.8528</ele>
        <time>2021-11-14T15:32:43Z</time>
      </trkpt>
      <trkpt lat="4.60843" lon="-75.126884">
        <ele>2294.3926</ele>
        <time>2021-11-14T15:32:44Z</time>
      </trkpt>
      <trkpt lat="4.608463" lon="-75.126892">
        <ele>2295.3416</ele>
        <time>2021-11-14T15:32:45Z</time>
      </trkpt>
      <trkpt lat="4.608494" lon="-75.126915">
        <ele>2295.6465</ele>
        <time>2021-11-14T15:32:46Z</time>
      </trkpt>
      <trkpt lat="4.608563" lon="-75.126915">
        <ele>2296.5261</ele>
        <time>2021-11-14T15:32:47Z</time>
      </trkpt>
      <trkpt lat="4.60859" lon="-75.126907">
        <ele>2295.2805</ele>
        <time>2021-11-14T15:32:48Z</time>
      </trkpt>
      <trkpt lat="4.608683" lon="-75.126938">
        <ele>2294.7961</ele>
        <time>2021-11-14T15:32:49Z</time>
      </trkpt>
      <trkpt lat="4.608714" lon="-75.126907">
        <ele>2294.4766</ele>
        <time>2021-11-14T15:32:50Z</time>
      </trkpt>
      <trkpt lat="4.608811" lon="-75.126915">
        <ele>2294.6267</ele>
        <time>2021-11-14T15:32:51Z</time>
      </trkpt>
      <trkpt lat="4.608853" lon="-75.126884">
        <ele>2293.9363</ele>
        <time>2021-11-14T15:32:52Z</time>
      </trkpt>
      <trkpt lat="4.60885" lon="-75.126862">
        <ele>2292.1912</ele>
        <time>2021-11-14T15:32:53Z</time>
      </trkpt>
      <trkpt lat="4.608939" lon="-75.126862">
        <ele>2291.5315</ele>
        <time>2021-11-14T15:32:54Z</time>
      </trkpt>
      <trkpt lat="4.609004" lon="-75.126823">
        <ele>2290.6606</ele>
        <time>2021-11-14T15:32:55Z</time>
      </trkpt>
      <trkpt lat="4.608998" lon="-75.126831">
        <ele>2289.8591</ele>
        <time>2021-11-14T15:32:56Z</time>
      </trkpt>
      <trkpt lat="4.609081" lon="-75.126785">
        <ele>2288.681</ele>
        <time>2021-11-14T15:32:57Z</time>
      </trkpt>
      <trkpt lat="4.609146" lon="-75.126755">
        <ele>2289.8003</ele>
        <time>2021-11-14T15:32:58Z</time>
      </trkpt>
      <trkpt lat="4.609154" lon="-75.126762">
        <ele>2289.1445</ele>
        <time>2021-11-14T15:32:59Z</time>
      </trkpt>
      <trkpt lat="4.609221" lon="-75.12674">
        <ele>2288.8374</ele>
        <time>2021-11-14T15:33:00Z</time>
      </trkpt>
      <trkpt lat="4.6093" lon="-75.12674">
        <ele>2289.4326</ele>
        <time>2021-11-14T15:33:01Z</time>
      </trkpt>
      <trkpt lat="4.609338" lon="-75.126709">
        <ele>2289.0356</ele>
        <time>2021-11-14T15:33:02Z</time>
      </trkpt>
      <trkpt lat="4.609375" lon="-75.126671">
        <ele>2288.1055</ele>
        <time>2021-11-14T15:33:03Z</time>
      </trkpt>
      <trkpt lat="4.609412" lon="-75.126602">
        <ele>2287.9348</ele>
        <time>2021-11-14T15:33:04Z</time>
      </trkpt>
      <trkpt lat="4.609428" lon="-75.126541">
        <ele>2287.0889</ele>
        <time>2021-11-14T15:33:05Z</time>
      </trkpt>
      <trkpt lat="4.609428" lon="-75.126541">
        <ele>2285.0837</ele>
        <time>2021-11-14T15:33:06Z</time>
      </trkpt>
      <trkpt lat="4.609463" lon="-75.126495">
        <ele>2282.7258</ele>
        <time>2021-11-14T15:33:07Z</time>
      </trkpt>
      <trkpt lat="4.609487" lon="-75.126488">
        <ele>2281.408</ele>
        <time>2021-11-14T15:33:09Z</time>
      </trkpt>
      <trkpt lat="4.609515" lon="-75.126472">
        <ele>2281.68</ele>
        <time>2021-11-14T15:33:10Z</time>
      </trkpt>
      <trkpt lat="4.609556" lon="-75.126465">
        <ele>2281.4343</ele>
        <time>2021-11-14T15:33:11Z</time>
      </trkpt>
      <trkpt lat="4.609568" lon="-75.126457">
        <ele>2281.239</ele>
        <time>2021-11-14T15:33:12Z</time>
      </trkpt>
      <trkpt lat="4.609583" lon="-75.126442">
        <ele>2281.0505</ele>
        <time>2021-11-14T15:33:13Z</time>
      </trkpt>
      <trkpt lat="4.609643" lon="-75.126427">
        <ele>2280.3462</ele>
        <time>2021-11-14T15:33:14Z</time>
      </trkpt>
      <trkpt lat="4.609631" lon="-75.126427">
        <ele>2280.2385</ele>
        <time>2021-11-14T15:33:15Z</time>
      </trkpt>
      <trkpt lat="4.609673" lon="-75.126427">
        <ele>2279.917</ele>
        <time>2021-11-14T15:33:16Z</time>
      </trkpt>
      <trkpt lat="4.609746" lon="-75.12645">
        <ele>2279.2979</ele>
        <time>2021-11-14T15:33:17Z</time>
      </trkpt>
      <trkpt lat="4.609742" lon="-75.126434">
        <ele>2279.151</ele>
        <time>2021-11-14T15:33:18Z</time>
      </trkpt>
      <trkpt lat="4.609779" lon="-75.126442">
        <ele>2278.363</ele>
        <time>2021-11-14T15:33:19Z</time>
      </trkpt>
      <trkpt lat="4.609794" lon="-75.12645">
        <ele>2278.4126</ele>
        <time>2021-11-14T15:33:20Z</time>
      </trkpt>
      <trkpt lat="4.609822" lon="-75.126465">
        <ele>2277.4233</ele>
        <time>2021-11-14T15:33:21Z</time>
      </trkpt>
      <trkpt lat="4.609881" lon="-75.126511">
        <ele>2277.1055</ele>
        <time>2021-11-14T15:33:22Z</time>
      </trkpt>
      <trkpt lat="4.609917" lon="-75.126549">
        <ele>2276.6265</ele>
        <time>2021-11-14T15:33:23Z</time>
      </trkpt>
      <trkpt lat="4.609946" lon="-75.126564">
        <ele>2276.327</ele>
        <time>2021-11-14T15:33:24Z</time>
      </trkpt>
      <trkpt lat="4.610009" lon="-75.126595">
        <ele>2276.085</ele>
        <time>2021-11-14T15:33:25Z</time>
      </trkpt>
      <trkpt lat="4.610045" lon="-75.12661">
        <ele>2275.033</ele>
        <time>2021-11-14T15:33:26Z</time>
      </trkpt>
      <trkpt lat="4.610031" lon="-75.126595">
        <ele>2273.4563</ele>
        <time>2021-11-14T15:33:27Z</time>
      </trkpt>
      <trkpt lat="4.610069" lon="-75.126602">
        <ele>2274.308</ele>
        <time>2021-11-14T15:33:28Z</time>
      </trkpt>
      <trkpt lat="4.610127" lon="-75.126595">
        <ele>2277.3027</ele>
        <time>2021-11-14T15:33:29Z</time>
      </trkpt>
      <trkpt lat="4.610145" lon="-75.126579">
        <ele>2277.6165</ele>
        <time>2021-11-14T15:33:30Z</time>
      </trkpt>
      <trkpt lat="4.61018" lon="-75.126549">
        <ele>2278.2212</ele>
        <time>2021-11-14T15:33:31Z</time>
      </trkpt>
      <trkpt lat="4.61018" lon="-75.126549">
        <ele>2276.2168</ele>
        <time>2021-11-14T15:33:32Z</time>
      </trkpt>
      <trkpt lat="4.610176" lon="-75.126488">
        <ele>2275.7515</ele>
        <time>2021-11-14T15:33:33Z</time>
      </trkpt>
      <trkpt lat="4.61018" lon="-75.12645">
        <ele>2276.4363</ele>
        <time>2021-11-14T15:33:34Z</time>
      </trkpt>
      <trkpt lat="4.610199" lon="-75.126427">
        <ele>2275.8</ele>
        <time>2021-11-14T15:33:35Z</time>
      </trkpt>
      <trkpt lat="4.61023" lon="-75.126366">
        <ele>2276.4119</ele>
        <time>2021-11-14T15:33:36Z</time>
      </trkpt>
      <trkpt lat="4.610246" lon="-75.126312">
        <ele>2275.416</ele>
        <time>2021-11-14T15:33:37Z</time>
      </trkpt>
      <trkpt lat="4.610257" lon="-75.126297">
        <ele>2277.7527</ele>
        <time>2021-11-14T15:33:38Z</time>
      </trkpt>
      <trkpt lat="4.610253" lon="-75.126137">
        <ele>2277.6082</ele>
        <time>2021-11-14T15:33:39Z</time>
      </trkpt>
      <trkpt lat="4.610256" lon="-75.126114">
        <ele>2277.6748</ele>
        <time>2021-11-14T15:33:40Z</time>
      </trkpt>
      <trkpt lat="4.610285" lon="-75.126099">
        <ele>2276.7344</ele>
        <time>2021-11-14T15:33:41Z</time>
      </trkpt>
      <trkpt lat="4.610361" lon="-75.12603">
        <ele>2276.8186</ele>
        <time>2021-11-14T15:33:42Z</time>
      </trkpt>
      <trkpt lat="4.61035" lon="-75.12603">
        <ele>2277.0815</ele>
        <time>2021-11-14T15:33:43Z</time>
      </trkpt>
      <trkpt lat="4.610399" lon="-75.126007">
        <ele>2276.9954</ele>
        <time>2021-11-14T15:33:44Z</time>
      </trkpt>
      <trkpt lat="4.61043" lon="-75.125954">
        <ele>2277.3147</ele>
        <time>2021-11-14T15:33:45Z</time>
      </trkpt>
      <trkpt lat="4.610512" lon="-75.125908">
        <ele>2278.1865</ele>
        <time>2021-11-14T15:33:46Z</time>
      </trkpt>
      <trkpt lat="4.610551" lon="-75.12587">
        <ele>2277.3862</ele>
        <time>2021-11-14T15:33:47Z</time>
      </trkpt>
      <trkpt lat="4.610556" lon="-75.125854">
        <ele>2277.0583</ele>
        <time>2021-11-14T15:33:48Z</time>
      </trkpt>
      <trkpt lat="4.610588" lon="-75.125809">
        <ele>2276.6526</ele>
        <time>2021-11-14T15:33:49Z</time>
      </trkpt>
      <trkpt lat="4.610606" lon="-75.125793">
        <ele>2276.352</ele>
        <time>2021-11-14T15:33:51Z</time>
      </trkpt>
      <trkpt lat="4.61065" lon="-75.125748">
        <ele>2277.1448</ele>
        <time>2021-11-14T15:33:52Z</time>
      </trkpt>
      <trkpt lat="4.610694" lon="-75.125717">
        <ele>2277.0664</ele>
        <time>2021-11-14T15:33:53Z</time>
      </trkpt>
      <trkpt lat="4.610699" lon="-75.125702">
        <ele>2276.3535</ele>
        <time>2021-11-14T15:33:54Z</time>
      </trkpt>
      <trkpt lat="4.610721" lon="-75.125671">
        <ele>2277.0315</ele>
        <time>2021-11-14T15:33:55Z</time>
      </trkpt>
      <trkpt lat="4.610747" lon="-75.12561">
        <ele>2276.1306</ele>
        <time>2021-11-14T15:33:56Z</time>
      </trkpt>
      <trkpt lat="4.610781" lon="-75.125534">
        <ele>2274.8618</ele>
        <time>2021-11-14T15:33:57Z</time>
      </trkpt>
      <trkpt lat="4.610781" lon="-75.125534">
        <ele>2274.851</ele>
        <time>2021-11-14T15:33:58Z</time>
      </trkpt>
      <trkpt lat="4.610793" lon="-75.125481">
        <ele>2272.6338</ele>
        <time>2021-11-14T15:33:59Z</time>
      </trkpt>
      <trkpt lat="4.610815" lon="-75.12542">
        <ele>2272.084</ele>
        <time>2021-11-14T15:34:00Z</time>
      </trkpt>
      <trkpt lat="4.610839" lon="-75.125374">
        <ele>2271.3203</ele>
        <time>2021-11-14T15:34:01Z</time>
      </trkpt>
      <trkpt lat="4.610836" lon="-75.125305">
        <ele>2271.2502</ele>
        <time>2021-11-14T15:34:02Z</time>
      </trkpt>
      <trkpt lat="4.610835" lon="-75.125221">
        <ele>2269.9614</ele>
        <time>2021-11-14T15:34:03Z</time>
      </trkpt>
      <trkpt lat="4.610871" lon="-75.125183">
        <ele>2269.3337</ele>
        <time>2021-11-14T15:34:04Z</time>
      </trkpt>
      <trkpt lat="4.610892" lon="-75.125084">
        <ele>2269.0725</ele>
        <time>2021-11-14T15:34:05Z</time>
      </trkpt>
      <trkpt lat="4.610904" lon="-75.125">
        <ele>2267.819</ele>
        <time>2021-11-14T15:34:06Z</time>
      </trkpt>
      <trkpt lat="4.610922" lon="-75.124947">
        <ele>2269.338</ele>
        <time>2021-11-14T15:34:07Z</time>
      </trkpt>
      <trkpt lat="4.61094" lon="-75.12484">
        <ele>2269.1345</ele>
        <time>2021-11-14T15:34:08Z</time>
      </trkpt>
      <trkpt lat="4.610951" lon="-75.124802">
        <ele>2269.0825</ele>
        <time>2021-11-14T15:34:09Z</time>
      </trkpt>
      <trkpt lat="4.610987" lon="-75.124733">
        <ele>2265.9714</ele>
        <time>2021-11-14T15:34:10Z</time>
      </trkpt>
      <trkpt lat="4.61105" lon="-75.124664">
        <ele>2266.9487</ele>
        <time>2021-11-14T15:34:11Z</time>
      </trkpt>
      <trkpt lat="4.611081" lon="-75.124611">
        <ele>2266.0654</ele>
        <time>2021-11-14T15:34:12Z</time>
      </trkpt>
      <trkpt lat="4.611122" lon="-75.124535">
        <ele>2265.1096</ele>
        <time>2021-11-14T15:34:13Z</time>
      </trkpt>
      <trkpt lat="4.611199" lon="-75.124435">
        <ele>2265.1956</ele>
        <time>2021-11-14T15:34:14Z</time>
      </trkpt>
      <trkpt lat="4.611224" lon="-75.124413">
        <ele>2264.4207</ele>
        <time>2021-11-14T15:34:15Z</time>
      </trkpt>
      <trkpt lat="4.611269" lon="-75.124336">
        <ele>2264.7476</ele>
        <time>2021-11-14T15:34:16Z</time>
      </trkpt>
      <trkpt lat="4.611313" lon="-75.124283">
        <ele>2265.027</ele>
        <time>2021-11-14T15:34:17Z</time>
      </trkpt>
      <trkpt lat="4.611374" lon="-75.124229">
        <ele>2265.2852</ele>
        <time>2021-11-14T15:34:18Z</time>
      </trkpt>
      <trkpt lat="4.611441" lon="-75.124176">
        <ele>2265.7957</ele>
        <time>2021-11-14T15:34:19Z</time>
      </trkpt>
      <trkpt lat="4.611492" lon="-75.124153">
        <ele>2264.4214</ele>
        <time>2021-11-14T15:34:20Z</time>
      </trkpt>
      <trkpt lat="4.611633" lon="-75.124092">
        <ele>2264.4812</ele>
        <time>2021-11-14T15:34:21Z</time>
      </trkpt>
      <trkpt lat="4.611714" lon="-75.124069">
        <ele>2264.3032</ele>
        <time>2021-11-14T15:34:22Z</time>
      </trkpt>
      <trkpt lat="4.611727" lon="-75.124077">
        <ele>2264.2744</ele>
        <time>2021-11-14T15:34:23Z</time>
      </trkpt>
      <trkpt lat="4.611793" lon="-75.124046">
        <ele>2264.3374</ele>
        <time>2021-11-14T15:34:24Z</time>
      </trkpt>
      <trkpt lat="4.611793" lon="-75.124046">
        <ele>2263.4355</ele>
        <time>2021-11-14T15:34:25Z</time>
      </trkpt>
      <trkpt lat="4.611842" lon="-75.124031">
        <ele>2263.4688</ele>
        <time>2021-11-14T15:34:26Z</time>
      </trkpt>
      <trkpt lat="4.611892" lon="-75.124039">
        <ele>2263.4937</ele>
        <time>2021-11-14T15:34:27Z</time>
      </trkpt>
      <trkpt lat="4.61191" lon="-75.124031">
        <ele>2262.535</ele>
        <time>2021-11-14T15:34:28Z</time>
      </trkpt>
      <trkpt lat="4.612031" lon="-75.124039">
        <ele>2262.617</ele>
        <time>2021-11-14T15:34:29Z</time>
      </trkpt>
      <trkpt lat="4.612027" lon="-75.124039">
        <ele>2263.692</ele>
        <time>2021-11-14T15:34:30Z</time>
      </trkpt>
      <trkpt lat="4.612084" lon="-75.124054">
        <ele>2261.401</ele>
        <time>2021-11-14T15:34:31Z</time>
      </trkpt>
      <trkpt lat="4.612128" lon="-75.12413">
        <ele>2261.3557</ele>
        <time>2021-11-14T15:34:32Z</time>
      </trkpt>
      <trkpt lat="4.612167" lon="-75.124184">
        <ele>2261.6482</ele>
        <time>2021-11-14T15:34:33Z</time>
      </trkpt>
      <trkpt lat="4.612192" lon="-75.124252">
        <ele>2260.9482</ele>
        <time>2021-11-14T15:34:34Z</time>
      </trkpt>
      <trkpt lat="4.612193" lon="-75.124275">
        <ele>2260.4688</ele>
        <time>2021-11-14T15:34:35Z</time>
      </trkpt>
      <trkpt lat="4.612249" lon="-75.12439">
        <ele>2260.263</ele>
        <time>2021-11-14T15:34:36Z</time>
      </trkpt>
      <trkpt lat="4.612262" lon="-75.124405">
        <ele>2259.926</ele>
        <time>2021-11-14T15:34:37Z</time>
      </trkpt>
      <trkpt lat="4.612283" lon="-75.124443">
        <ele>2258.7903</ele>
        <time>2021-11-14T15:34:38Z</time>
      </trkpt>
      <trkpt lat="4.612333" lon="-75.124535">
        <ele>2258.7227</ele>
        <time>2021-11-14T15:34:39Z</time>
      </trkpt>
      <trkpt lat="4.612397" lon="-75.124611">
        <ele>2258.3079</ele>
        <time>2021-11-14T15:34:40Z</time>
      </trkpt>
      <trkpt lat="4.612418" lon="-75.124641">
        <ele>2257.5798</ele>
        <time>2021-11-14T15:34:41Z</time>
      </trkpt>
      <trkpt lat="4.612412" lon="-75.124626">
        <ele>2257.2058</ele>
        <time>2021-11-14T15:34:42Z</time>
      </trkpt>
      <trkpt lat="4.612415" lon="-75.124634">
        <ele>2257.2402</ele>
        <time>2021-11-14T15:34:43Z</time>
      </trkpt>
      <trkpt lat="4.612415" lon="-75.124634">
        <ele>2257.1956</ele>
        <time>2021-11-14T15:34:44Z</time>
      </trkpt>
      <trkpt lat="4.612414" lon="-75.124641">
        <ele>2257.294</ele>
        <time>2021-11-14T15:34:45Z</time>
      </trkpt>
      <trkpt lat="4.612414" lon="-75.124634">
        <ele>2257.4456</ele>
        <time>2021-11-14T15:34:46Z</time>
      </trkpt>
      <trkpt lat="4.612415" lon="-75.124634">
        <ele>2257.4812</ele>
        <time>2021-11-14T15:34:47Z</time>
      </trkpt>
      <trkpt lat="4.612455" lon="-75.12468">
        <ele>2256.5164</ele>
        <time>2021-11-14T15:34:48Z</time>
      </trkpt>
      <trkpt lat="4.612477" lon="-75.12471">
        <ele>2256.5256</ele>
        <time>2021-11-14T15:34:49Z</time>
      </trkpt>
      <trkpt lat="4.612478" lon="-75.12471">
        <ele>2256.4028</ele>
        <time>2021-11-14T15:34:50Z</time>
      </trkpt>
      <trkpt lat="4.612478" lon="-75.12471">
        <ele>2256.1892</ele>
        <time>2021-11-14T15:34:51Z</time>
      </trkpt>
      <trkpt lat="4.612504" lon="-75.124748">
        <ele>2256.5613</ele>
        <time>2021-11-14T15:34:52Z</time>
      </trkpt>
      <trkpt lat="4.612542" lon="-75.124779">
        <ele>2254.7126</ele>
        <time>2021-11-14T15:34:53Z</time>
      </trkpt>
      <trkpt lat="4.612643" lon="-75.124809">
        <ele>2253.5393</ele>
        <time>2021-11-14T15:34:54Z</time>
      </trkpt>
      <trkpt lat="4.612698" lon="-75.12484">
        <ele>2253.741</ele>
        <time>2021-11-14T15:34:55Z</time>
      </trkpt>
      <trkpt lat="4.612812" lon="-75.12487">
        <ele>2252.7817</ele>
        <time>2021-11-14T15:34:56Z</time>
      </trkpt>
      <trkpt lat="4.612836" lon="-75.124878">
        <ele>2252.2935</ele>
        <time>2021-11-14T15:34:57Z</time>
      </trkpt>
      <trkpt lat="4.612883" lon="-75.124878">
        <ele>2252.0413</ele>
        <time>2021-11-14T15:34:58Z</time>
      </trkpt>
      <trkpt lat="4.612959" lon="-75.124908">
        <ele>2251.7742</ele>
        <time>2021-11-14T15:34:59Z</time>
      </trkpt>
      <trkpt lat="4.613018" lon="-75.124931">
        <ele>2251.7913</ele>
        <time>2021-11-14T15:35:00Z</time>
      </trkpt>
      <trkpt lat="4.613067" lon="-75.124977">
        <ele>2251.6958</ele>
        <time>2021-11-14T15:35:01Z</time>
      </trkpt>
      <trkpt lat="4.613063" lon="-75.124992">
        <ele>2251.6958</ele>
        <time>2021-11-14T15:35:03Z</time>
      </trkpt>
      <trkpt lat="4.613072" lon="-75.125008">
        <ele>2250.8677</ele>
        <time>2021-11-14T15:35:04Z</time>
      </trkpt>
      <trkpt lat="4.613091" lon="-75.125099">
        <ele>2251.1582</ele>
        <time>2021-11-14T15:35:05Z</time>
      </trkpt>
      <trkpt lat="4.613144" lon="-75.125153">
        <ele>2250.9006</ele>
        <time>2021-11-14T15:35:06Z</time>
      </trkpt>
      <trkpt lat="4.613126" lon="-75.125107">
        <ele>2250.5574</ele>
        <time>2021-11-14T15:35:07Z</time>
      </trkpt>
      <trkpt lat="4.613156" lon="-75.12516">
        <ele>2250.4622</ele>
        <time>2021-11-14T15:35:08Z</time>
      </trkpt>
      <trkpt lat="4.613162" lon="-75.125183">
        <ele>2251.2952</ele>
        <time>2021-11-14T15:35:09Z</time>
      </trkpt>
      <trkpt lat="4.613161" lon="-75.125191">
        <ele>2251.0522</ele>
        <time>2021-11-14T15:35:10Z</time>
      </trkpt>
      <trkpt lat="4.613211" lon="-75.125206">
        <ele>2250.5916</ele>
        <time>2021-11-14T15:35:11Z</time>
      </trkpt>
      <trkpt lat="4.613237" lon="-75.125237">
        <ele>2250.8406</ele>
        <time>2021-11-14T15:35:12Z</time>
      </trkpt>
      <trkpt lat="4.613253" lon="-75.125237">
        <ele>2249.9395</ele>
        <time>2021-11-14T15:35:13Z</time>
      </trkpt>
      <trkpt lat="4.613259" lon="-75.125237">
        <ele>2250.6555</ele>
        <time>2021-11-14T15:35:14Z</time>
      </trkpt>
      <trkpt lat="4.613289" lon="-75.125237">
        <ele>2250.2969</ele>
        <time>2021-11-14T15:35:15Z</time>
      </trkpt>
      <trkpt lat="4.61331" lon="-75.125229">
        <ele>2251.0364</ele>
        <time>2021-11-14T15:35:16Z</time>
      </trkpt>
      <trkpt lat="4.613383" lon="-75.125175">
        <ele>2252.3596</ele>
        <time>2021-11-14T15:35:17Z</time>
      </trkpt>
      <trkpt lat="4.613459" lon="-75.125122">
        <ele>2252.4177</ele>
        <time>2021-11-14T15:35:18Z</time>
      </trkpt>
      <trkpt lat="4.613457" lon="-75.125046">
        <ele>2251.8438</ele>
        <time>2021-11-14T15:35:19Z</time>
      </trkpt>
      <trkpt lat="4.613449" lon="-75.124992">
        <ele>2253.0156</ele>
        <time>2021-11-14T15:35:20Z</time>
      </trkpt>
      <trkpt lat="4.613449" lon="-75.124992">
        <ele>2252.4324</ele>
        <time>2021-11-14T15:35:21Z</time>
      </trkpt>
      <trkpt lat="4.613445" lon="-75.124886">
        <ele>2252.9</ele>
        <time>2021-11-14T15:35:22Z</time>
      </trkpt>
      <trkpt lat="4.61344" lon="-75.124802">
        <ele>2251.6758</ele>
        <time>2021-11-14T15:35:23Z</time>
      </trkpt>
      <trkpt lat="4.613428" lon="-75.124779">
        <ele>2251.6716</ele>
        <time>2021-11-14T15:35:24Z</time>
      </trkpt>
      <trkpt lat="4.613433" lon="-75.124725">
        <ele>2250.5747</ele>
        <time>2021-11-14T15:35:25Z</time>
      </trkpt>
      <trkpt lat="4.613452" lon="-75.124664">
        <ele>2250.4067</ele>
        <time>2021-11-14T15:35:26Z</time>
      </trkpt>
      <trkpt lat="4.613442" lon="-75.124565">
        <ele>2251.1768</ele>
        <time>2021-11-14T15:35:27Z</time>
      </trkpt>
      <trkpt lat="4.613431" lon="-75.124443">
        <ele>2250.0454</ele>
        <time>2021-11-14T15:35:28Z</time>
      </trkpt>
      <trkpt lat="4.613476" lon="-75.12426">
        <ele>2250.7947</ele>
        <time>2021-11-14T15:35:29Z</time>
      </trkpt>
      <trkpt lat="4.613463" lon="-75.124191">
        <ele>2250.0024</ele>
        <time>2021-11-14T15:35:30Z</time>
      </trkpt>
      <trkpt lat="4.613459" lon="-75.124107">
        <ele>2248.5771</ele>
        <time>2021-11-14T15:35:31Z</time>
      </trkpt>
      <trkpt lat="4.613481" lon="-75.124039">
        <ele>2248.4023</ele>
        <time>2021-11-14T15:35:32Z</time>
      </trkpt>
      <trkpt lat="4.613472" lon="-75.123955">
        <ele>2249.3208</ele>
        <time>2021-11-14T15:35:33Z</time>
      </trkpt>
      <trkpt lat="4.613513" lon="-75.123871">
        <ele>2249.0933</ele>
        <time>2021-11-14T15:35:34Z</time>
      </trkpt>
      <trkpt lat="4.61356" lon="-75.12381">
        <ele>2248.7434</ele>
        <time>2021-11-14T15:35:35Z</time>
      </trkpt>
      <trkpt lat="4.613612" lon="-75.123772">
        <ele>2248.2883</ele>
        <time>2021-11-14T15:35:36Z</time>
      </trkpt>
      <trkpt lat="4.613678" lon="-75.123703">
        <ele>2247.8276</ele>
        <time>2021-11-14T15:35:37Z</time>
      </trkpt>
      <trkpt lat="4.61371" lon="-75.123711">
        <ele>2247.0056</ele>
        <time>2021-11-14T15:35:38Z</time>
      </trkpt>
      <trkpt lat="4.613728" lon="-75.123726">
        <ele>2247.093</ele>
        <time>2021-11-14T15:35:39Z</time>
      </trkpt>
      <trkpt lat="4.61377" lon="-75.123711">
        <ele>2247.0674</ele>
        <time>2021-11-14T15:35:40Z</time>
      </trkpt>
      <trkpt lat="4.613789" lon="-75.123703">
        <ele>2247.4995</ele>
        <time>2021-11-14T15:35:41Z</time>
      </trkpt>
      <trkpt lat="4.613833" lon="-75.123703">
        <ele>2247.0894</ele>
        <time>2021-11-14T15:35:42Z</time>
      </trkpt>
      <trkpt lat="4.613881" lon="-75.123695">
        <ele>2246.7742</ele>
        <time>2021-11-14T15:35:43Z</time>
      </trkpt>
      <trkpt lat="4.613921" lon="-75.123688">
        <ele>2245.6997</ele>
        <time>2021-11-14T15:35:44Z</time>
      </trkpt>
      <trkpt lat="4.61395" lon="-75.12368">
        <ele>2245.9631</ele>
        <time>2021-11-14T15:35:45Z</time>
      </trkpt>
      <trkpt lat="4.613978" lon="-75.123665">
        <ele>2246.5098</ele>
        <time>2021-11-14T15:35:46Z</time>
      </trkpt>
      <trkpt lat="4.614003" lon="-75.123695">
        <ele>2246.1692</ele>
        <time>2021-11-14T15:35:47Z</time>
      </trkpt>
      <trkpt lat="4.614012" lon="-75.123665">
        <ele>2246.6047</ele>
        <time>2021-11-14T15:35:48Z</time>
      </trkpt>
      <trkpt lat="4.614012" lon="-75.123665">
        <ele>2246.5</ele>
        <time>2021-11-14T15:35:49Z</time>
      </trkpt>
      <trkpt lat="4.614083" lon="-75.12365">
        <ele>2246.2327</ele>
        <time>2021-11-14T15:35:50Z</time>
      </trkpt>
      <trkpt lat="4.614075" lon="-75.12365">
        <ele>2245.3337</ele>
        <time>2021-11-14T15:35:51Z</time>
      </trkpt>
      <trkpt lat="4.614116" lon="-75.123634">
        <ele>2243.6492</ele>
        <time>2021-11-14T15:35:52Z</time>
      </trkpt>
      <trkpt lat="4.614166" lon="-75.123627">
        <ele>2242.8289</ele>
        <time>2021-11-14T15:35:53Z</time>
      </trkpt>
      <trkpt lat="4.614169" lon="-75.123627">
        <ele>2242.148</ele>
        <time>2021-11-14T15:35:54Z</time>
      </trkpt>
      <trkpt lat="4.614243" lon="-75.123619">
        <ele>2242.0322</ele>
        <time>2021-11-14T15:35:55Z</time>
      </trkpt>
      <trkpt lat="4.614281" lon="-75.123619">
        <ele>2241.955</ele>
        <time>2021-11-14T15:35:56Z</time>
      </trkpt>
      <trkpt lat="4.614314" lon="-75.123619">
        <ele>2241.4858</ele>
        <time>2021-11-14T15:35:57Z</time>
      </trkpt>
      <trkpt lat="4.614295" lon="-75.123627">
        <ele>2241.027</ele>
        <time>2021-11-14T15:35:59Z</time>
      </trkpt>
      <trkpt lat="4.614337" lon="-75.123634">
        <ele>2240.4739</ele>
        <time>2021-11-14T15:36:00Z</time>
      </trkpt>
      <trkpt lat="4.614351" lon="-75.123642">
        <ele>2240.2595</ele>
        <time>2021-11-14T15:36:01Z</time>
      </trkpt>
      <trkpt lat="4.614367" lon="-75.12365">
        <ele>2239.982</ele>
        <time>2021-11-14T15:36:02Z</time>
      </trkpt>
      <trkpt lat="4.614394" lon="-75.123657">
        <ele>2239.9546</ele>
        <time>2021-11-14T15:36:03Z</time>
      </trkpt>
      <trkpt lat="4.614394" lon="-75.123665">
        <ele>2239.797</ele>
        <time>2021-11-14T15:36:04Z</time>
      </trkpt>
      <trkpt lat="4.614408" lon="-75.123665">
        <ele>2239.9707</ele>
        <time>2021-11-14T15:36:05Z</time>
      </trkpt>
      <trkpt lat="4.614471" lon="-75.12368">
        <ele>2239.0056</ele>
        <time>2021-11-14T15:36:06Z</time>
      </trkpt>
      <trkpt lat="4.614537" lon="-75.123703">
        <ele>2239.2622</ele>
        <time>2021-11-14T15:36:07Z</time>
      </trkpt>
      <trkpt lat="4.614561" lon="-75.123711">
        <ele>2238.2935</ele>
        <time>2021-11-14T15:36:08Z</time>
      </trkpt>
      <trkpt lat="4.61459" lon="-75.123726">
        <ele>2238.2627</ele>
        <time>2021-11-14T15:36:09Z</time>
      </trkpt>
      <trkpt lat="4.614637" lon="-75.123741">
        <ele>2238.511</ele>
        <time>2021-11-14T15:36:10Z</time>
      </trkpt>
      <trkpt lat="4.614665" lon="-75.123772">
        <ele>2239.7527</ele>
        <time>2021-11-14T15:36:11Z</time>
      </trkpt>
      <trkpt lat="4.614693" lon="-75.123787">
        <ele>2239.5527</ele>
        <time>2021-11-14T15:36:12Z</time>
      </trkpt>
      <trkpt lat="4.614724" lon="-75.123787">
        <ele>2239.8997</ele>
        <time>2021-11-14T15:36:13Z</time>
      </trkpt>
      <trkpt lat="4.614783" lon="-75.123787">
        <ele>2239.7273</ele>
        <time>2021-11-14T15:36:14Z</time>
      </trkpt>
      <trkpt lat="4.614831" lon="-75.123795">
        <ele>2240.2532</ele>
        <time>2021-11-14T15:36:15Z</time>
      </trkpt>
      <trkpt lat="4.614884" lon="-75.123772">
        <ele>2239.965</ele>
        <time>2021-11-14T15:36:16Z</time>
      </trkpt>
      <trkpt lat="4.614937" lon="-75.123772">
        <ele>2238.7043</ele>
        <time>2021-11-14T15:36:17Z</time>
      </trkpt>
      <trkpt lat="4.614982" lon="-75.123772">
        <ele>2239.3208</ele>
        <time>2021-11-14T15:36:18Z</time>
      </trkpt>
      <trkpt lat="4.615041" lon="-75.123749">
        <ele>2239.5066</ele>
        <time>2021-11-14T15:36:19Z</time>
      </trkpt>
      <trkpt lat="4.615041" lon="-75.123749">
        <ele>2239.7625</ele>
        <time>2021-11-14T15:36:20Z</time>
      </trkpt>
      <trkpt lat="4.61505" lon="-75.123756">
        <ele>2238.6235</ele>
        <time>2021-11-14T15:36:21Z</time>
      </trkpt>
      <trkpt lat="4.615107" lon="-75.123749">
        <ele>2239.2617</ele>
        <time>2021-11-14T15:36:22Z</time>
      </trkpt>
      <trkpt lat="4.615109" lon="-75.123756">
        <ele>2239.0303</ele>
        <time>2021-11-14T15:36:23Z</time>
      </trkpt>
      <trkpt lat="4.615211" lon="-75.123741">
        <ele>2238.4934</ele>
        <time>2021-11-14T15:36:24Z</time>
      </trkpt>
      <trkpt lat="4.615204" lon="-75.123718">
        <ele>2236.8472</ele>
        <time>2021-11-14T15:36:25Z</time>
      </trkpt>
      <trkpt lat="4.615242" lon="-75.123726">
        <ele>2237.2795</ele>
        <time>2021-11-14T15:36:26Z</time>
      </trkpt>
      <trkpt lat="4.615238" lon="-75.123726">
        <ele>2235.1638</ele>
        <time>2021-11-14T15:36:27Z</time>
      </trkpt>
      <trkpt lat="4.615267" lon="-75.123718">
        <ele>2233.451</ele>
        <time>2021-11-14T15:36:28Z</time>
      </trkpt>
      <trkpt lat="4.615332" lon="-75.123695">
        <ele>2233.9126</ele>
        <time>2021-11-14T15:36:29Z</time>
      </trkpt>
      <trkpt lat="4.615343" lon="-75.123695">
        <ele>2234.167</ele>
        <time>2021-11-14T15:36:30Z</time>
      </trkpt>
      <trkpt lat="4.615334" lon="-75.123688">
        <ele>2236.771</ele>
        <time>2021-11-14T15:36:31Z</time>
      </trkpt>
      <trkpt lat="4.615381" lon="-75.123657">
        <ele>2236.6372</ele>
        <time>2021-11-14T15:36:32Z</time>
      </trkpt>
      <trkpt lat="4.615366" lon="-75.123665">
        <ele>2236.6672</ele>
        <time>2021-11-14T15:36:33Z</time>
      </trkpt>
      <trkpt lat="4.615375" lon="-75.123665">
        <ele>2236.9795</ele>
        <time>2021-11-14T15:36:34Z</time>
      </trkpt>
      <trkpt lat="4.615382" lon="-75.123657">
        <ele>2237.117</ele>
        <time>2021-11-14T15:36:35Z</time>
      </trkpt>
      <trkpt lat="4.615387" lon="-75.123657">
        <ele>2237.1482</ele>
        <time>2021-11-14T15:36:36Z</time>
      </trkpt>
      <trkpt lat="4.61539" lon="-75.123657">
        <ele>2237.2039</ele>
        <time>2021-11-14T15:36:37Z</time>
      </trkpt>
      <trkpt lat="4.615392" lon="-75.12365">
        <ele>2237.1333</ele>
        <time>2021-11-14T15:36:38Z</time>
      </trkpt>
      <trkpt lat="4.615394" lon="-75.12365">
        <ele>2237.1907</ele>
        <time>2021-11-14T15:36:39Z</time>
      </trkpt>
      <trkpt lat="4.615401" lon="-75.123642">
        <ele>2237.99</ele>
        <time>2021-11-14T15:36:40Z</time>
      </trkpt>
      <trkpt lat="4.615416" lon="-75.123627">
        <ele>2237.6465</ele>
        <time>2021-11-14T15:36:41Z</time>
      </trkpt>
      <trkpt lat="4.615411" lon="-75.123627">
        <ele>2238.1565</ele>
        <time>2021-11-14T15:36:42Z</time>
      </trkpt>
      <trkpt lat="4.615413" lon="-75.123619">
        <ele>2238.1562</ele>
        <time>2021-11-14T15:36:43Z</time>
      </trkpt>
      <trkpt lat="4.615414" lon="-75.123627">
        <ele>2238.3264</ele>
        <time>2021-11-14T15:36:44Z</time>
      </trkpt>
      <trkpt lat="4.615415" lon="-75.123627">
        <ele>2238.3418</ele>
        <time>2021-11-14T15:36:45Z</time>
      </trkpt>
      <trkpt lat="4.615416" lon="-75.123627">
        <ele>2238.6658</ele>
        <time>2021-11-14T15:36:46Z</time>
      </trkpt>
      <trkpt lat="4.615416" lon="-75.123627">
        <ele>2239.1365</ele>
        <time>2021-11-14T15:36:47Z</time>
      </trkpt>
      <trkpt lat="4.615418" lon="-75.123627">
        <ele>2239.1558</ele>
        <time>2021-11-14T15:36:48Z</time>
      </trkpt>
      <trkpt lat="4.61542" lon="-75.123627">
        <ele>2239.7668</ele>
        <time>2021-11-14T15:36:49Z</time>
      </trkpt>
      <trkpt lat="4.615421" lon="-75.123627">
        <ele>2240.2056</ele>
        <time>2021-11-14T15:36:50Z</time>
      </trkpt>
      <trkpt lat="4.61539" lon="-75.123558">
        <ele>2240.6233</ele>
        <time>2021-11-14T15:36:51Z</time>
      </trkpt>
      <trkpt lat="4.615374" lon="-75.123558">
        <ele>2240.2615</ele>
        <time>2021-11-14T15:36:52Z</time>
      </trkpt>
      <trkpt lat="4.615349" lon="-75.123528">
        <ele>2240.3975</ele>
        <time>2021-11-14T15:36:53Z</time>
      </trkpt>
      <trkpt lat="4.615354" lon="-75.123528">
        <ele>2239.373</ele>
        <time>2021-11-14T15:36:54Z</time>
      </trkpt>
      <trkpt lat="4.615324" lon="-75.123497">
        <ele>2238.9497</ele>
        <time>2021-11-14T15:36:55Z</time>
      </trkpt>
      <trkpt lat="4.615331" lon="-75.123489">
        <ele>2239.357</ele>
        <time>2021-11-14T15:36:56Z</time>
      </trkpt>
      <trkpt lat="4.61533" lon="-75.123482">
        <ele>2239.3672</ele>
        <time>2021-11-14T15:36:58Z</time>
      </trkpt>
      <trkpt lat="4.615334" lon="-75.123482">
        <ele>2239.0657</ele>
        <time>2021-11-14T15:36:59Z</time>
      </trkpt>
      <trkpt lat="4.615336" lon="-75.123474">
        <ele>2239.3706</ele>
        <time>2021-11-14T15:37:00Z</time>
      </trkpt>
      <trkpt lat="4.615337" lon="-75.123474">
        <ele>2239.6138</ele>
        <time>2021-11-14T15:37:01Z</time>
      </trkpt>
      <trkpt lat="4.615338" lon="-75.123466">
        <ele>2239.7603</ele>
        <time>2021-11-14T15:37:02Z</time>
      </trkpt>
      <trkpt lat="4.615337" lon="-75.123466">
        <ele>2240.076</ele>
        <time>2021-11-14T15:37:03Z</time>
      </trkpt>
      <trkpt lat="4.615338" lon="-75.123459">
        <ele>2240.4473</ele>
        <time>2021-11-14T15:37:04Z</time>
      </trkpt>
      <trkpt lat="4.615338" lon="-75.123451">
        <ele>2240.5024</ele>
        <time>2021-11-14T15:37:05Z</time>
      </trkpt>
      <trkpt lat="4.615339" lon="-75.123451">
        <ele>2240.4268</ele>
        <time>2021-11-14T15:37:06Z</time>
      </trkpt>
      <trkpt lat="4.61534" lon="-75.123451">
        <ele>2240.5186</ele>
        <time>2021-11-14T15:37:07Z</time>
      </trkpt>
      <trkpt lat="4.61534" lon="-75.123444">
        <ele>2240.744</ele>
        <time>2021-11-14T15:37:08Z</time>
      </trkpt>
      <trkpt lat="4.615307" lon="-75.123436">
        <ele>2240.629</ele>
        <time>2021-11-14T15:37:09Z</time>
      </trkpt>
      <trkpt lat="4.615285" lon="-75.123428">
        <ele>2240.3936</ele>
        <time>2021-11-14T15:37:10Z</time>
      </trkpt>
      <trkpt lat="4.615256" lon="-75.123405">
        <ele>2240.0571</ele>
        <time>2021-11-14T15:37:11Z</time>
      </trkpt>
      <trkpt lat="4.615208" lon="-75.123367">
        <ele>2240.0117</ele>
        <time>2021-11-14T15:37:12Z</time>
      </trkpt>
      <trkpt lat="4.615191" lon="-75.123352">
        <ele>2240.3918</ele>
        <time>2021-11-14T15:37:13Z</time>
      </trkpt>
      <trkpt lat="4.615125" lon="-75.123299">
        <ele>2241.035</ele>
        <time>2021-11-14T15:37:14Z</time>
      </trkpt>
      <trkpt lat="4.615063" lon="-75.123276">
        <ele>2241.4438</ele>
        <time>2021-11-14T15:37:15Z</time>
      </trkpt>
      <trkpt lat="4.615025" lon="-75.123245">
        <ele>2240.6938</ele>
        <time>2021-11-14T15:37:16Z</time>
      </trkpt>
      <trkpt lat="4.614984" lon="-75.123222">
        <ele>2242.7234</ele>
        <time>2021-11-14T15:37:17Z</time>
      </trkpt>
      <trkpt lat="4.614965" lon="-75.123207">
        <ele>2242.4258</ele>
        <time>2021-11-14T15:37:18Z</time>
      </trkpt>
      <trkpt lat="4.614965" lon="-75.123207">
        <ele>2243.1987</ele>
        <time>2021-11-14T15:37:19Z</time>
      </trkpt>
      <trkpt lat="4.614911" lon="-75.123169">
        <ele>2243.1477</ele>
        <time>2021-11-14T15:37:20Z</time>
      </trkpt>
      <trkpt lat="4.614886" lon="-75.123116">
        <ele>2244.689</ele>
        <time>2021-11-14T15:37:21Z</time>
      </trkpt>
      <trkpt lat="4.614822" lon="-75.12307">
        <ele>2244.992</ele>
        <time>2021-11-14T15:37:22Z</time>
      </trkpt>
      <trkpt lat="4.614773" lon="-75.123024">
        <ele>2244.9355</ele>
        <time>2021-11-14T15:37:23Z</time>
      </trkpt>
      <trkpt lat="4.614742" lon="-75.123032">
        <ele>2244.8342</ele>
        <time>2021-11-14T15:37:24Z</time>
      </trkpt>
      <trkpt lat="4.614708" lon="-75.122986">
        <ele>2245.896</ele>
        <time>2021-11-14T15:37:25Z</time>
      </trkpt>
      <trkpt lat="4.614651" lon="-75.122932">
        <ele>2244.8984</ele>
        <time>2021-11-14T15:37:26Z</time>
      </trkpt>
      <trkpt lat="4.61463" lon="-75.12291">
        <ele>2243.121</ele>
        <time>2021-11-14T15:37:27Z</time>
      </trkpt>
      <trkpt lat="4.614531" lon="-75.122871">
        <ele>2243.5283</ele>
        <time>2021-11-14T15:37:28Z</time>
      </trkpt>
      <trkpt lat="4.614497" lon="-75.122833">
        <ele>2242.6067</ele>
        <time>2021-11-14T15:37:29Z</time>
      </trkpt>
      <trkpt lat="4.614453" lon="-75.12278">
        <ele>2242.0364</ele>
        <time>2021-11-14T15:37:30Z</time>
      </trkpt>
      <trkpt lat="4.614433" lon="-75.122757">
        <ele>2242.0396</ele>
        <time>2021-11-14T15:37:31Z</time>
      </trkpt>
      <trkpt lat="4.614372" lon="-75.122704">
        <ele>2242.7925</ele>
        <time>2021-11-14T15:37:32Z</time>
      </trkpt>
      <trkpt lat="4.61434" lon="-75.122681">
        <ele>2242.7454</ele>
        <time>2021-11-14T15:37:33Z</time>
      </trkpt>
      <trkpt lat="4.614289" lon="-75.122635">
        <ele>2242.8494</ele>
        <time>2021-11-14T15:37:34Z</time>
      </trkpt>
      <trkpt lat="4.614242" lon="-75.122604">
        <ele>2243.0166</ele>
        <time>2021-11-14T15:37:35Z</time>
      </trkpt>
      <trkpt lat="4.61417" lon="-75.122559">
        <ele>2243.9863</ele>
        <time>2021-11-14T15:37:36Z</time>
      </trkpt>
      <trkpt lat="4.614112" lon="-75.122498">
        <ele>2243.9783</ele>
        <time>2021-11-14T15:37:37Z</time>
      </trkpt>
      <trkpt lat="4.614098" lon="-75.122467">
        <ele>2245.4678</ele>
        <time>2021-11-14T15:37:38Z</time>
      </trkpt>
      <trkpt lat="4.614075" lon="-75.122421">
        <ele>2245.7856</ele>
        <time>2021-11-14T15:37:39Z</time>
      </trkpt>
      <trkpt lat="4.614082" lon="-75.122368">
        <ele>2246.5798</ele>
        <time>2021-11-14T15:37:40Z</time>
      </trkpt>
      <trkpt lat="4.614096" lon="-75.122345">
        <ele>2247.739</ele>
        <time>2021-11-14T15:37:41Z</time>
      </trkpt>
      <trkpt lat="4.614086" lon="-75.122299">
        <ele>2245.819</ele>
        <time>2021-11-14T15:37:42Z</time>
      </trkpt>
      <trkpt lat="4.614084" lon="-75.122261">
        <ele>2245.518</ele>
        <time>2021-11-14T15:37:43Z</time>
      </trkpt>
      <trkpt lat="4.614084" lon="-75.122261">
        <ele>2245.671</ele>
        <time>2021-11-14T15:37:44Z</time>
      </trkpt>
      <trkpt lat="4.614094" lon="-75.122192">
        <ele>2245.7825</ele>
        <time>2021-11-14T15:37:45Z</time>
      </trkpt>
      <trkpt lat="4.614098" lon="-75.122185">
        <ele>2245.6504</ele>
        <time>2021-11-14T15:37:46Z</time>
      </trkpt>
      <trkpt lat="4.614102" lon="-75.122169">
        <ele>2244.8022</ele>
        <time>2021-11-14T15:37:47Z</time>
      </trkpt>
      <trkpt lat="4.614097" lon="-75.122101">
        <ele>2246.1746</ele>
        <time>2021-11-14T15:37:48Z</time>
      </trkpt>
      <trkpt lat="4.614118" lon="-75.122063">
        <ele>2247.4248</ele>
        <time>2021-11-14T15:37:49Z</time>
      </trkpt>
      <trkpt lat="4.614117" lon="-75.122063">
        <ele>2247.6968</ele>
        <time>2021-11-14T15:37:50Z</time>
      </trkpt>
      <trkpt lat="4.614132" lon="-75.122025">
        <ele>2246.9932</ele>
        <time>2021-11-14T15:37:51Z</time>
      </trkpt>
      <trkpt lat="4.614156" lon="-75.121986">
        <ele>2247.4155</ele>
        <time>2021-11-14T15:37:52Z</time>
      </trkpt>
      <trkpt lat="4.614174" lon="-75.121956">
        <ele>2247.0444</ele>
        <time>2021-11-14T15:37:53Z</time>
      </trkpt>
      <trkpt lat="4.614175" lon="-75.121948">
        <ele>2247.6904</ele>
        <time>2021-11-14T15:37:54Z</time>
      </trkpt>
      <trkpt lat="4.614173" lon="-75.121918">
        <ele>2247.3801</ele>
        <time>2021-11-14T15:37:55Z</time>
      </trkpt>
      <trkpt lat="4.614185" lon="-75.121887">
        <ele>2247.0454</ele>
        <time>2021-11-14T15:37:56Z</time>
      </trkpt>
      <trkpt lat="4.614183" lon="-75.121872">
        <ele>2246.9707</ele>
        <time>2021-11-14T15:37:57Z</time>
      </trkpt>
      <trkpt lat="4.614187" lon="-75.121849">
        <ele>2247.0264</ele>
        <time>2021-11-14T15:37:58Z</time>
      </trkpt>
      <trkpt lat="4.614186" lon="-75.121803">
        <ele>2247.8396</ele>
        <time>2021-11-14T15:37:59Z</time>
      </trkpt>
      <trkpt lat="4.614184" lon="-75.121788">
        <ele>2247.6287</ele>
        <time>2021-11-14T15:38:00Z</time>
      </trkpt>
      <trkpt lat="4.61418" lon="-75.121765">
        <ele>2247.946</ele>
        <time>2021-11-14T15:38:01Z</time>
      </trkpt>
      <trkpt lat="4.614165" lon="-75.121719">
        <ele>2247.3508</ele>
        <time>2021-11-14T15:38:03Z</time>
      </trkpt>
      <trkpt lat="4.614143" lon="-75.121681">
        <ele>2247.9656</ele>
        <time>2021-11-14T15:38:04Z</time>
      </trkpt>
      <trkpt lat="4.614125" lon="-75.121658">
        <ele>2247.9055</ele>
        <time>2021-11-14T15:38:05Z</time>
      </trkpt>
      <trkpt lat="4.614114" lon="-75.121628">
        <ele>2248.237</ele>
        <time>2021-11-14T15:38:06Z</time>
      </trkpt>
      <trkpt lat="4.614102" lon="-75.121567">
        <ele>2248.748</ele>
        <time>2021-11-14T15:38:07Z</time>
      </trkpt>
      <trkpt lat="4.614098" lon="-75.121521">
        <ele>2248.2832</ele>
        <time>2021-11-14T15:38:08Z</time>
      </trkpt>
      <trkpt lat="4.614085" lon="-75.12146">
        <ele>2249.1235</ele>
        <time>2021-11-14T15:38:09Z</time>
      </trkpt>
      <trkpt lat="4.614053" lon="-75.121353">
        <ele>2248.5938</ele>
        <time>2021-11-14T15:38:10Z</time>
      </trkpt>
      <trkpt lat="4.614062" lon="-75.121292">
        <ele>2249.7393</ele>
        <time>2021-11-14T15:38:11Z</time>
      </trkpt>
      <trkpt lat="4.614045" lon="-75.121254">
        <ele>2249.4712</ele>
        <time>2021-11-14T15:38:12Z</time>
      </trkpt>
      <trkpt lat="4.614064" lon="-75.121162">
        <ele>2249.2107</ele>
        <time>2021-11-14T15:38:13Z</time>
      </trkpt>
      <trkpt lat="4.614085" lon="-75.121101">
        <ele>2249.6462</ele>
        <time>2021-11-14T15:38:14Z</time>
      </trkpt>
      <trkpt lat="4.614091" lon="-75.121101">
        <ele>2248.8162</ele>
        <time>2021-11-14T15:38:15Z</time>
      </trkpt>
      <trkpt lat="4.614091" lon="-75.121101">
        <ele>2248.234</ele>
        <time>2021-11-14T15:38:16Z</time>
      </trkpt>
      <trkpt lat="4.614094" lon="-75.121048">
        <ele>2249.2168</ele>
        <time>2021-11-14T15:38:17Z</time>
      </trkpt>
      <trkpt lat="4.614104" lon="-75.120987">
        <ele>2249.0532</ele>
        <time>2021-11-14T15:38:18Z</time>
      </trkpt>
      <trkpt lat="4.61411" lon="-75.12101">
        <ele>2249.9148</ele>
        <time>2021-11-14T15:38:19Z</time>
      </trkpt>
      <trkpt lat="4.614123" lon="-75.120979">
        <ele>2249.9292</ele>
        <time>2021-11-14T15:38:20Z</time>
      </trkpt>
      <trkpt lat="4.614146" lon="-75.120949">
        <ele>2248.7556</ele>
        <time>2021-11-14T15:38:21Z</time>
      </trkpt>
      <trkpt lat="4.614156" lon="-75.120926">
        <ele>2248.1838</ele>
        <time>2021-11-14T15:38:22Z</time>
      </trkpt>
      <trkpt lat="4.614195" lon="-75.120888">
        <ele>2249.1062</ele>
        <time>2021-11-14T15:38:23Z</time>
      </trkpt>
      <trkpt lat="4.61422" lon="-75.120872">
        <ele>2250.5103</ele>
        <time>2021-11-14T15:38:24Z</time>
      </trkpt>
      <trkpt lat="4.614231" lon="-75.120842">
        <ele>2250.8862</ele>
        <time>2021-11-14T15:38:25Z</time>
      </trkpt>
      <trkpt lat="4.614251" lon="-75.120827">
        <ele>2251.2065</ele>
        <time>2021-11-14T15:38:26Z</time>
      </trkpt>
      <trkpt lat="4.614401" lon="-75.120758">
        <ele>2252.1497</ele>
        <time>2021-11-14T15:38:27Z</time>
      </trkpt>
      <trkpt lat="4.61441" lon="-75.12075">
        <ele>2251.0425</ele>
        <time>2021-11-14T15:38:28Z</time>
      </trkpt>
      <trkpt lat="4.614389" lon="-75.120773">
        <ele>2250.675</ele>
        <time>2021-11-14T15:38:29Z</time>
      </trkpt>
      <trkpt lat="4.614416" lon="-75.120773">
        <ele>2250.1929</ele>
        <time>2021-11-14T15:38:30Z</time>
      </trkpt>
      <trkpt lat="4.61443" lon="-75.120766">
        <ele>2250.21</ele>
        <time>2021-11-14T15:38:31Z</time>
      </trkpt>
      <trkpt lat="4.61447" lon="-75.120743">
        <ele>2250.1367</ele>
        <time>2021-11-14T15:38:32Z</time>
      </trkpt>
      <trkpt lat="4.614485" lon="-75.120735">
        <ele>2251.0137</ele>
        <time>2021-11-14T15:38:33Z</time>
      </trkpt>
      <trkpt lat="4.614492" lon="-75.120735">
        <ele>2252.4353</ele>
        <time>2021-11-14T15:38:34Z</time>
      </trkpt>
      <trkpt lat="4.614515" lon="-75.120728">
        <ele>2253.34</ele>
        <time>2021-11-14T15:38:35Z</time>
      </trkpt>
      <trkpt lat="4.614541" lon="-75.120705">
        <ele>2254.2456</ele>
        <time>2021-11-14T15:38:36Z</time>
      </trkpt>
      <trkpt lat="4.614547" lon="-75.120697">
        <ele>2254.817</ele>
        <time>2021-11-14T15:38:37Z</time>
      </trkpt>
      <trkpt lat="4.61457" lon="-75.120689">
        <ele>2254.487</ele>
        <time>2021-11-14T15:38:38Z</time>
      </trkpt>
      <trkpt lat="4.614581" lon="-75.120682">
        <ele>2255.6768</ele>
        <time>2021-11-14T15:38:39Z</time>
      </trkpt>
      <trkpt lat="4.614628" lon="-75.120659">
        <ele>2256.7883</ele>
        <time>2021-11-14T15:38:40Z</time>
      </trkpt>
      <trkpt lat="4.614659" lon="-75.120659">
        <ele>2257.4749</ele>
        <time>2021-11-14T15:38:41Z</time>
      </trkpt>
      <trkpt lat="4.614659" lon="-75.120659">
        <ele>2257.141</ele>
        <time>2021-11-14T15:38:42Z</time>
      </trkpt>
      <trkpt lat="4.614731" lon="-75.120613">
        <ele>2258.2788</ele>
        <time>2021-11-14T15:38:43Z</time>
      </trkpt>
      <trkpt lat="4.614705" lon="-75.120621">
        <ele>2259.461</ele>
        <time>2021-11-14T15:38:44Z</time>
      </trkpt>
      <trkpt lat="4.614743" lon="-75.120567">
        <ele>2259.476</ele>
        <time>2021-11-14T15:38:45Z</time>
      </trkpt>
      <trkpt lat="4.614736" lon="-75.120552">
        <ele>2260.1887</ele>
        <time>2021-11-14T15:38:46Z</time>
      </trkpt>
      <trkpt lat="4.614739" lon="-75.120522">
        <ele>2259.8684</ele>
        <time>2021-11-14T15:38:47Z</time>
      </trkpt>
      <trkpt lat="4.614735" lon="-75.120468">
        <ele>2259.7034</ele>
        <time>2021-11-14T15:38:48Z</time>
      </trkpt>
      <trkpt lat="4.614714" lon="-75.120399">
        <ele>2259.8665</ele>
        <time>2021-11-14T15:38:49Z</time>
      </trkpt>
      <trkpt lat="4.6147" lon="-75.120392">
        <ele>2259.5396</ele>
        <time>2021-11-14T15:38:50Z</time>
      </trkpt>
      <trkpt lat="4.61468" lon="-75.120354">
        <ele>2259.8447</ele>
        <time>2021-11-14T15:38:51Z</time>
      </trkpt>
      <trkpt lat="4.614694" lon="-75.120361">
        <ele>2259.8792</ele>
        <time>2021-11-14T15:38:52Z</time>
      </trkpt>
      <trkpt lat="4.614679" lon="-75.120308">
        <ele>2258.8044</ele>
        <time>2021-11-14T15:38:53Z</time>
      </trkpt>
      <trkpt lat="4.614679" lon="-75.120285">
        <ele>2259.983</ele>
        <time>2021-11-14T15:38:54Z</time>
      </trkpt>
      <trkpt lat="4.614669" lon="-75.120247">
        <ele>2260.0662</ele>
        <time>2021-11-14T15:38:55Z</time>
      </trkpt>
      <trkpt lat="4.614661" lon="-75.120216">
        <ele>2260.7434</ele>
        <time>2021-11-14T15:38:56Z</time>
      </trkpt>
      <trkpt lat="4.614635" lon="-75.120171">
        <ele>2260.0276</ele>
        <time>2021-11-14T15:38:57Z</time>
      </trkpt>
      <trkpt lat="4.614586" lon="-75.120102">
        <ele>2260.588</ele>
        <time>2021-11-14T15:38:58Z</time>
      </trkpt>
      <trkpt lat="4.61455" lon="-75.120064">
        <ele>2260.7964</ele>
        <time>2021-11-14T15:38:59Z</time>
      </trkpt>
      <trkpt lat="4.614489" lon="-75.120018">
        <ele>2261.8843</ele>
        <time>2021-11-14T15:39:00Z</time>
      </trkpt>
      <trkpt lat="4.614438" lon="-75.11998">
        <ele>2261.8513</ele>
        <time>2021-11-14T15:39:01Z</time>
      </trkpt>
      <trkpt lat="4.614401" lon="-75.119949">
        <ele>2262.2458</ele>
        <time>2021-11-14T15:39:02Z</time>
      </trkpt>
      <trkpt lat="4.614349" lon="-75.119904">
        <ele>2261.9836</ele>
        <time>2021-11-14T15:39:03Z</time>
      </trkpt>
      <trkpt lat="4.614327" lon="-75.119888">
        <ele>2260.6528</ele>
        <time>2021-11-14T15:39:04Z</time>
      </trkpt>
      <trkpt lat="4.614253" lon="-75.11982">
        <ele>2260.522</ele>
        <time>2021-11-14T15:39:05Z</time>
      </trkpt>
      <trkpt lat="4.614223" lon="-75.119789">
        <ele>2259.7117</ele>
        <time>2021-11-14T15:39:06Z</time>
      </trkpt>
      <trkpt lat="4.614189" lon="-75.119766">
        <ele>2259.7017</ele>
        <time>2021-11-14T15:39:07Z</time>
      </trkpt>
      <trkpt lat="4.61414" lon="-75.119713">
        <ele>2260.5132</ele>
        <time>2021-11-14T15:39:08Z</time>
      </trkpt>
      <trkpt lat="4.614098" lon="-75.119667">
        <ele>2259.5881</ele>
        <time>2021-11-14T15:39:09Z</time>
      </trkpt>
      <trkpt lat="4.614064" lon="-75.119644">
        <ele>2259.8306</ele>
        <time>2021-11-14T15:39:10Z</time>
      </trkpt>
      <trkpt lat="4.614064" lon="-75.119644">
        <ele>2259.258</ele>
        <time>2021-11-14T15:39:11Z</time>
      </trkpt>
      <trkpt lat="4.614083" lon="-75.119652">
        <ele>2258.7969</ele>
        <time>2021-11-14T15:39:13Z</time>
      </trkpt>
      <trkpt lat="4.614037" lon="-75.119621">
        <ele>2258.2656</ele>
        <time>2021-11-14T15:39:14Z</time>
      </trkpt>
      <trkpt lat="4.614007" lon="-75.119583">
        <ele>2258.096</ele>
        <time>2021-11-14T15:39:15Z</time>
      </trkpt>
      <trkpt lat="4.613949" lon="-75.119537">
        <ele>2258.5767</ele>
        <time>2021-11-14T15:39:16Z</time>
      </trkpt>
      <trkpt lat="4.613956" lon="-75.119545">
        <ele>2258.6807</ele>
        <time>2021-11-14T15:39:17Z</time>
      </trkpt>
      <trkpt lat="4.613932" lon="-75.119507">
        <ele>2259.0146</ele>
        <time>2021-11-14T15:39:18Z</time>
      </trkpt>
      <trkpt lat="4.613875" lon="-75.119469">
        <ele>2259.377</ele>
        <time>2021-11-14T15:39:19Z</time>
      </trkpt>
      <trkpt lat="4.613866" lon="-75.119423">
        <ele>2259.2388</ele>
        <time>2021-11-14T15:39:20Z</time>
      </trkpt>
      <trkpt lat="4.613844" lon="-75.1194">
        <ele>2258.7192</ele>
        <time>2021-11-14T15:39:21Z</time>
      </trkpt>
      <trkpt lat="4.613814" lon="-75.119339">
        <ele>2258.5344</ele>
        <time>2021-11-14T15:39:22Z</time>
      </trkpt>
      <trkpt lat="4.613796" lon="-75.11927">
        <ele>2258.8213</ele>
        <time>2021-11-14T15:39:23Z</time>
      </trkpt>
      <trkpt lat="4.613802" lon="-75.119232">
        <ele>2258.2637</ele>
        <time>2021-11-14T15:39:24Z</time>
      </trkpt>
      <trkpt lat="4.613814" lon="-75.119209">
        <ele>2258.9497</ele>
        <time>2021-11-14T15:39:25Z</time>
      </trkpt>
      <trkpt lat="4.613831" lon="-75.119232">
        <ele>2258.267</ele>
        <time>2021-11-14T15:39:26Z</time>
      </trkpt>
      <trkpt lat="4.613833" lon="-75.119217">
        <ele>2258.4363</ele>
        <time>2021-11-14T15:39:27Z</time>
      </trkpt>
      <trkpt lat="4.613833" lon="-75.119217">
        <ele>2258.4685</ele>
        <time>2021-11-14T15:39:28Z</time>
      </trkpt>
      <trkpt lat="4.613833" lon="-75.119217">
        <ele>2258.8726</ele>
        <time>2021-11-14T15:39:29Z</time>
      </trkpt>
      <trkpt lat="4.613832" lon="-75.119217">
        <ele>2259.0613</ele>
        <time>2021-11-14T15:39:30Z</time>
      </trkpt>
      <trkpt lat="4.61383" lon="-75.119217">
        <ele>2258.676</ele>
        <time>2021-11-14T15:39:31Z</time>
      </trkpt>
      <trkpt lat="4.613832" lon="-75.119217">
        <ele>2258.3179</ele>
        <time>2021-11-14T15:39:32Z</time>
      </trkpt>
      <trkpt lat="4.613834" lon="-75.119217">
        <ele>2258.2842</ele>
        <time>2021-11-14T15:39:33Z</time>
      </trkpt>
      <trkpt lat="4.613834" lon="-75.119217">
        <ele>2258.323</ele>
        <time>2021-11-14T15:39:34Z</time>
      </trkpt>
      <trkpt lat="4.613835" lon="-75.119217">
        <ele>2258.5188</ele>
        <time>2021-11-14T15:39:35Z</time>
      </trkpt>
      <trkpt lat="4.613835" lon="-75.119217">
        <ele>2258.2905</ele>
        <time>2021-11-14T15:39:36Z</time>
      </trkpt>
      <trkpt lat="4.613837" lon="-75.119217">
        <ele>2258.266</ele>
        <time>2021-11-14T15:39:37Z</time>
      </trkpt>
      <trkpt lat="4.613837" lon="-75.119217">
        <ele>2258.2642</ele>
        <time>2021-11-14T15:39:38Z</time>
      </trkpt>
      <trkpt lat="4.613837" lon="-75.119217">
        <ele>2258.2683</ele>
        <time>2021-11-14T15:39:39Z</time>
      </trkpt>
      <trkpt lat="4.613837" lon="-75.119217">
        <ele>2258.3223</ele>
        <time>2021-11-14T15:39:40Z</time>
      </trkpt>
      <trkpt lat="4.613837" lon="-75.119217">
        <ele>2258.3213</ele>
        <time>2021-11-14T15:39:41Z</time>
      </trkpt>
      <trkpt lat="4.613837" lon="-75.119217">
        <ele>2258.3215</ele>
        <time>2021-11-14T15:39:42Z</time>
      </trkpt>
      <trkpt lat="4.613837" lon="-75.119217">
        <ele>2258.3423</ele>
        <time>2021-11-14T15:39:43Z</time>
      </trkpt>
      <trkpt lat="4.613837" lon="-75.119217">
        <ele>2258.3413</ele>
        <time>2021-11-14T15:39:44Z</time>
      </trkpt>
      <trkpt lat="4.613837" lon="-75.119217">
        <ele>2258.342</ele>
        <time>2021-11-14T15:39:45Z</time>
      </trkpt>
      <trkpt lat="4.613837" lon="-75.119217">
        <ele>2258.3425</ele>
        <time>2021-11-14T15:39:46Z</time>
      </trkpt>
      <trkpt lat="4.613837" lon="-75.119217">
        <ele>2258.345</ele>
        <time>2021-11-14T15:39:47Z</time>
      </trkpt>
      <trkpt lat="4.613837" lon="-75.119217">
        <ele>2258.3496</ele>
        <time>2021-11-14T15:39:48Z</time>
      </trkpt>
      <trkpt lat="4.613837" lon="-75.119217">
        <ele>2258.3516</ele>
        <time>2021-11-14T15:39:49Z</time>
      </trkpt>
      <trkpt lat="4.613838" lon="-75.119217">
        <ele>2258.3516</ele>
        <time>2021-11-14T15:39:50Z</time>
      </trkpt>
      <trkpt lat="4.613837" lon="-75.119217">
        <ele>2258.347</ele>
        <time>2021-11-14T15:39:51Z</time>
      </trkpt>
      <trkpt lat="4.613837" lon="-75.119217">
        <ele>2258.3428</ele>
        <time>2021-11-14T15:39:52Z</time>
      </trkpt>
      <trkpt lat="4.613837" lon="-75.119217">
        <ele>2258.3406</ele>
        <time>2021-11-14T15:39:53Z</time>
      </trkpt>
      <trkpt lat="4.613837" lon="-75.119217">
        <ele>2258.3403</ele>
        <time>2021-11-14T15:39:54Z</time>
      </trkpt>
      <trkpt lat="4.613837" lon="-75.119217">
        <ele>2258.3384</ele>
        <time>2021-11-14T15:39:55Z</time>
      </trkpt>
      <trkpt lat="4.613837" lon="-75.119217">
        <ele>2258.3386</ele>
        <time>2021-11-14T15:39:56Z</time>
      </trkpt>
      <trkpt lat="4.613837" lon="-75.119217">
        <ele>2258.337</ele>
        <time>2021-11-14T15:39:57Z</time>
      </trkpt>
      <trkpt lat="4.613837" lon="-75.119217">
        <ele>2258.3328</ele>
        <time>2021-11-14T15:39:58Z</time>
      </trkpt>
      <trkpt lat="4.613837" lon="-75.119217">
        <ele>2258.3308</ele>
        <time>2021-11-14T15:39:59Z</time>
      </trkpt>
      <trkpt lat="4.613837" lon="-75.119217">
        <ele>2258.3296</ele>
        <time>2021-11-14T15:40:00Z</time>
      </trkpt>
      <trkpt lat="4.613837" lon="-75.119217">
        <ele>2258.3254</ele>
        <time>2021-11-14T15:40:01Z</time>
      </trkpt>
      <trkpt lat="4.613837" lon="-75.119217">
        <ele>2258.323</ele>
        <time>2021-11-14T15:40:02Z</time>
      </trkpt>
      <trkpt lat="4.613837" lon="-75.119217">
        <ele>2258.3196</ele>
        <time>2021-11-14T15:40:03Z</time>
      </trkpt>
      <trkpt lat="4.613837" lon="-75.119217">
        <ele>2258.3196</ele>
        <time>2021-11-14T15:40:04Z</time>
      </trkpt>
      <trkpt lat="4.613837" lon="-75.119217">
        <ele>2258.3193</ele>
        <time>2021-11-14T15:40:05Z</time>
      </trkpt>
      <trkpt lat="4.613837" lon="-75.119217">
        <ele>2258.319</ele>
        <time>2021-11-14T15:40:06Z</time>
      </trkpt>
      <trkpt lat="4.613837" lon="-75.119217">
        <ele>2258.3198</ele>
        <time>2021-11-14T15:40:07Z</time>
      </trkpt>
      <trkpt lat="4.613837" lon="-75.119217">
        <ele>2258.318</ele>
        <time>2021-11-14T15:40:08Z</time>
      </trkpt>
      <trkpt lat="4.613837" lon="-75.119217">
        <ele>2258.3203</ele>
        <time>2021-11-14T15:40:09Z</time>
      </trkpt>
      <trkpt lat="4.613837" lon="-75.119217">
        <ele>2258.3267</ele>
        <time>2021-11-14T15:40:10Z</time>
      </trkpt>
      <trkpt lat="4.613837" lon="-75.119217">
        <ele>2258.3315</ele>
        <time>2021-11-14T15:40:11Z</time>
      </trkpt>
      <trkpt lat="4.613837" lon="-75.119217">
        <ele>2258.335</ele>
        <time>2021-11-14T15:40:13Z</time>
      </trkpt>
      <trkpt lat="4.613837" lon="-75.119217">
        <ele>2258.3367</ele>
        <time>2021-11-14T15:40:14Z</time>
      </trkpt>
      <trkpt lat="4.613837" lon="-75.119217">
        <ele>2258.3398</ele>
        <time>2021-11-14T15:40:15Z</time>
      </trkpt>
      <trkpt lat="4.613837" lon="-75.119217">
        <ele>2258.341</ele>
        <time>2021-11-14T15:40:16Z</time>
      </trkpt>
      <trkpt lat="4.613837" lon="-75.119217">
        <ele>2258.3406</ele>
        <time>2021-11-14T15:40:17Z</time>
      </trkpt>
      <trkpt lat="4.613837" lon="-75.119217">
        <ele>2258.367</ele>
        <time>2021-11-14T15:40:18Z</time>
      </trkpt>
      <trkpt lat="4.613837" lon="-75.119217">
        <ele>2258.3687</ele>
        <time>2021-11-14T15:40:19Z</time>
      </trkpt>
      <trkpt lat="4.613837" lon="-75.119217">
        <ele>2258.3718</ele>
        <time>2021-11-14T15:40:20Z</time>
      </trkpt>
      <trkpt lat="4.613837" lon="-75.119217">
        <ele>2258.3723</ele>
        <time>2021-11-14T15:40:21Z</time>
      </trkpt>
      <trkpt lat="4.613837" lon="-75.119217">
        <ele>2258.3726</ele>
        <time>2021-11-14T15:40:22Z</time>
      </trkpt>
      <trkpt lat="4.613837" lon="-75.119217">
        <ele>2258.3755</ele>
        <time>2021-11-14T15:40:23Z</time>
      </trkpt>
      <trkpt lat="4.613837" lon="-75.119217">
        <ele>2258.375</ele>
        <time>2021-11-14T15:40:24Z</time>
      </trkpt>
      <trkpt lat="4.613837" lon="-75.119217">
        <ele>2258.3772</ele>
        <time>2021-11-14T15:40:25Z</time>
      </trkpt>
      <trkpt lat="4.613837" lon="-75.119217">
        <ele>2258.3816</ele>
        <time>2021-11-14T15:40:26Z</time>
      </trkpt>
      <trkpt lat="4.613837" lon="-75.119217">
        <ele>2258.3801</ele>
        <time>2021-11-14T15:40:27Z</time>
      </trkpt>
      <trkpt lat="4.613837" lon="-75.119217">
        <ele>2258.3784</ele>
        <time>2021-11-14T15:40:29Z</time>
      </trkpt>
      <trkpt lat="4.613837" lon="-75.119217">
        <ele>2258.3743</ele>
        <time>2021-11-14T15:40:30Z</time>
      </trkpt>
      <trkpt lat="4.613837" lon="-75.119217">
        <ele>2258.3733</ele>
        <time>2021-11-14T15:40:31Z</time>
      </trkpt>
      <trkpt lat="4.613837" lon="-75.119217">
        <ele>2258.372</ele>
        <time>2021-11-14T15:40:32Z</time>
      </trkpt>
      <trkpt lat="4.613837" lon="-75.119217">
        <ele>2258.3748</ele>
        <time>2021-11-14T15:40:33Z</time>
      </trkpt>
      <trkpt lat="4.613837" lon="-75.119217">
        <ele>2258.3748</ele>
        <time>2021-11-14T15:40:34Z</time>
      </trkpt>
      <trkpt lat="4.613837" lon="-75.119217">
        <ele>2258.3745</ele>
        <time>2021-11-14T15:40:35Z</time>
      </trkpt>
      <trkpt lat="4.613837" lon="-75.119217">
        <ele>2258.3748</ele>
        <time>2021-11-14T15:40:36Z</time>
      </trkpt>
      <trkpt lat="4.613837" lon="-75.119217">
        <ele>2258.375</ele>
        <time>2021-11-14T15:40:37Z</time>
      </trkpt>
      <trkpt lat="4.613837" lon="-75.119217">
        <ele>2258.3777</ele>
        <time>2021-11-14T15:40:38Z</time>
      </trkpt>
      <trkpt lat="4.613837" lon="-75.119217">
        <ele>2258.3801</ele>
        <time>2021-11-14T15:40:39Z</time>
      </trkpt>
      <trkpt lat="4.613837" lon="-75.119217">
        <ele>2258.3784</ele>
        <time>2021-11-14T15:40:40Z</time>
      </trkpt>
      <trkpt lat="4.613837" lon="-75.119217">
        <ele>2258.3757</ele>
        <time>2021-11-14T15:40:41Z</time>
      </trkpt>
      <trkpt lat="4.613837" lon="-75.119217">
        <ele>2258.3767</ele>
        <time>2021-11-14T15:40:42Z</time>
      </trkpt>
      <trkpt lat="4.613837" lon="-75.119217">
        <ele>2258.3752</ele>
        <time>2021-11-14T15:40:43Z</time>
      </trkpt>
      <trkpt lat="4.613837" lon="-75.119217">
        <ele>2258.3757</ele>
        <time>2021-11-14T15:40:44Z</time>
      </trkpt>
      <trkpt lat="4.613837" lon="-75.119217">
        <ele>2258.3772</ele>
        <time>2021-11-14T15:40:45Z</time>
      </trkpt>
      <trkpt lat="4.613837" lon="-75.119217">
        <ele>2258.3782</ele>
        <time>2021-11-14T15:40:46Z</time>
      </trkpt>
      <trkpt lat="4.613837" lon="-75.119217">
        <ele>2258.3738</ele>
        <time>2021-11-14T15:40:47Z</time>
      </trkpt>
      <trkpt lat="4.613837" lon="-75.119217">
        <ele>2258.375</ele>
        <time>2021-11-14T15:40:48Z</time>
      </trkpt>
      <trkpt lat="4.613837" lon="-75.119217">
        <ele>2258.3777</ele>
        <time>2021-11-14T15:40:49Z</time>
      </trkpt>
      <trkpt lat="4.613837" lon="-75.119217">
        <ele>2258.3787</ele>
        <time>2021-11-14T15:40:50Z</time>
      </trkpt>
      <trkpt lat="4.613837" lon="-75.119217">
        <ele>2258.3801</ele>
        <time>2021-11-14T15:40:51Z</time>
      </trkpt>
      <trkpt lat="4.613837" lon="-75.119217">
        <ele>2258.3816</ele>
        <time>2021-11-14T15:40:52Z</time>
      </trkpt>
      <trkpt lat="4.613837" lon="-75.119217">
        <ele>2258.381</ele>
        <time>2021-11-14T15:40:53Z</time>
      </trkpt>
      <trkpt lat="4.613837" lon="-75.119217">
        <ele>2258.3828</ele>
        <time>2021-11-14T15:40:55Z</time>
      </trkpt>
      <trkpt lat="4.613837" lon="-75.119217">
        <ele>2258.3855</ele>
        <time>2021-11-14T15:40:56Z</time>
      </trkpt>
      <trkpt lat="4.613838" lon="-75.119217">
        <ele>2258.383</ele>
        <time>2021-11-14T15:40:57Z</time>
      </trkpt>
      <trkpt lat="4.613838" lon="-75.119217">
        <ele>2258.3853</ele>
        <time>2021-11-14T15:40:58Z</time>
      </trkpt>
      <trkpt lat="4.613838" lon="-75.119217">
        <ele>2258.3843</ele>
        <time>2021-11-14T15:40:59Z</time>
      </trkpt>
      <trkpt lat="4.613838" lon="-75.119217">
        <ele>2258.382</ele>
        <time>2021-11-14T15:41:00Z</time>
      </trkpt>
      <trkpt lat="4.613838" lon="-75.119217">
        <ele>2257.8354</ele>
        <time>2021-11-14T15:41:01Z</time>
      </trkpt>
      <trkpt lat="4.613859" lon="-75.119133">
        <ele>2257.9163</ele>
        <time>2021-11-14T15:41:02Z</time>
      </trkpt>
      <trkpt lat="4.613865" lon="-75.119102">
        <ele>2258.1455</ele>
        <time>2021-11-14T15:41:03Z</time>
      </trkpt>
      <trkpt lat="4.613885" lon="-75.119003">
        <ele>2256.4631</ele>
        <time>2021-11-14T15:41:04Z</time>
      </trkpt>
      <trkpt lat="4.613885" lon="-75.119003">
        <ele>2257.2214</ele>
        <time>2021-11-14T15:41:05Z</time>
      </trkpt>
      <trkpt lat="4.613895" lon="-75.119034">
        <ele>2256.533</ele>
        <time>2021-11-14T15:41:06Z</time>
      </trkpt>
      <trkpt lat="4.613888" lon="-75.118996">
        <ele>2256.342</ele>
        <time>2021-11-14T15:41:07Z</time>
      </trkpt>
      <trkpt lat="4.613906" lon="-75.118935">
        <ele>2256.1282</ele>
        <time>2021-11-14T15:41:08Z</time>
      </trkpt>
      <trkpt lat="4.613941" lon="-75.118851">
        <ele>2255.1443</ele>
        <time>2021-11-14T15:41:09Z</time>
      </trkpt>
      <trkpt lat="4.61395" lon="-75.118805">
        <ele>2254.8655</ele>
        <time>2021-11-14T15:41:10Z</time>
      </trkpt>
      <trkpt lat="4.613962" lon="-75.11879">
        <ele>2254.0317</ele>
        <time>2021-11-14T15:41:11Z</time>
      </trkpt>
      <trkpt lat="4.613981" lon="-75.118736">
        <ele>2255.11</ele>
        <time>2021-11-14T15:41:12Z</time>
      </trkpt>
      <trkpt lat="4.614016" lon="-75.118629">
        <ele>2254.9358</ele>
        <time>2021-11-14T15:41:13Z</time>
      </trkpt>
      <trkpt lat="4.614021" lon="-75.118561">
        <ele>2255.729</ele>
        <time>2021-11-14T15:41:14Z</time>
      </trkpt>
      <trkpt lat="4.614056" lon="-75.118507">
        <ele>2255.3162</ele>
        <time>2021-11-14T15:41:15Z</time>
      </trkpt>
      <trkpt lat="4.614078" lon="-75.118423">
        <ele>2255.505</ele>
        <time>2021-11-14T15:41:16Z</time>
      </trkpt>
      <trkpt lat="4.614089" lon="-75.11834">
        <ele>2253.7588</ele>
        <time>2021-11-14T15:41:17Z</time>
      </trkpt>
      <trkpt lat="4.614111" lon="-75.11824">
        <ele>2253.7383</ele>
        <time>2021-11-14T15:41:18Z</time>
      </trkpt>
      <trkpt lat="4.614127" lon="-75.118156">
        <ele>2254.0789</ele>
        <time>2021-11-14T15:41:19Z</time>
      </trkpt>
      <trkpt lat="4.614135" lon="-75.118103">
        <ele>2253.9849</ele>
        <time>2021-11-14T15:41:20Z</time>
      </trkpt>
      <trkpt lat="4.614143" lon="-75.118027">
        <ele>2253.5493</ele>
        <time>2021-11-14T15:41:21Z</time>
      </trkpt>
      <trkpt lat="4.614148" lon="-75.117996">
        <ele>2254.6418</ele>
        <time>2021-11-14T15:41:22Z</time>
      </trkpt>
      <trkpt lat="4.614148" lon="-75.117989">
        <ele>2254.7947</ele>
        <time>2021-11-14T15:41:23Z</time>
      </trkpt>
      <trkpt lat="4.614151" lon="-75.117973">
        <ele>2255.1494</ele>
        <time>2021-11-14T15:41:24Z</time>
      </trkpt>
      <trkpt lat="4.614154" lon="-75.117973">
        <ele>2255.161</ele>
        <time>2021-11-14T15:41:25Z</time>
      </trkpt>
      <trkpt lat="4.614154" lon="-75.117973">
        <ele>2255.714</ele>
        <time>2021-11-14T15:41:26Z</time>
      </trkpt>
      <trkpt lat="4.614156" lon="-75.117981">
        <ele>2255.823</ele>
        <time>2021-11-14T15:41:27Z</time>
      </trkpt>
      <trkpt lat="4.614155" lon="-75.117981">
        <ele>2255.7307</ele>
        <time>2021-11-14T15:41:28Z</time>
      </trkpt>
      <trkpt lat="4.614156" lon="-75.117981">
        <ele>2255.6057</ele>
        <time>2021-11-14T15:41:29Z</time>
      </trkpt>
      <trkpt lat="4.614157" lon="-75.117973">
        <ele>2255.1956</ele>
        <time>2021-11-14T15:41:30Z</time>
      </trkpt>
      <trkpt lat="4.614157" lon="-75.117973">
        <ele>2255.495</ele>
        <time>2021-11-14T15:41:31Z</time>
      </trkpt>
      <trkpt lat="4.614158" lon="-75.117973">
        <ele>2255.2136</ele>
        <time>2021-11-14T15:41:32Z</time>
      </trkpt>
      <trkpt lat="4.614154" lon="-75.117981">
        <ele>2254.7605</ele>
        <time>2021-11-14T15:41:34Z</time>
      </trkpt>
      <trkpt lat="4.614153" lon="-75.117981">
        <ele>2254.7783</ele>
        <time>2021-11-14T15:41:35Z</time>
      </trkpt>
      <trkpt lat="4.614152" lon="-75.117981">
        <ele>2254.7812</ele>
        <time>2021-11-14T15:41:36Z</time>
      </trkpt>
      <trkpt lat="4.614152" lon="-75.117981">
        <ele>2254.7568</ele>
        <time>2021-11-14T15:41:37Z</time>
      </trkpt>
      <trkpt lat="4.614152" lon="-75.117981">
        <ele>2254.7588</ele>
        <time>2021-11-14T15:41:38Z</time>
      </trkpt>
      <trkpt lat="4.614152" lon="-75.117981">
        <ele>2255.289</ele>
        <time>2021-11-14T15:41:39Z</time>
      </trkpt>
      <trkpt lat="4.614147" lon="-75.117981">
        <ele>2254.8528</ele>
        <time>2021-11-14T15:41:40Z</time>
      </trkpt>
      <trkpt lat="4.614143" lon="-75.117981">
        <ele>2254.1501</ele>
        <time>2021-11-14T15:41:41Z</time>
      </trkpt>
      <trkpt lat="4.614144" lon="-75.117989">
        <ele>2254.2065</ele>
        <time>2021-11-14T15:41:42Z</time>
      </trkpt>
      <trkpt lat="4.614145" lon="-75.117989">
        <ele>2254.553</ele>
        <time>2021-11-14T15:41:43Z</time>
      </trkpt>
      <trkpt lat="4.614135" lon="-75.118004">
        <ele>2254.3855</ele>
        <time>2021-11-14T15:41:44Z</time>
      </trkpt>
      <trkpt lat="4.614137" lon="-75.118004">
        <ele>2254.339</ele>
        <time>2021-11-14T15:41:45Z</time>
      </trkpt>
      <trkpt lat="4.614138" lon="-75.118011">
        <ele>2254.6018</ele>
        <time>2021-11-14T15:41:46Z</time>
      </trkpt>
      <trkpt lat="4.614138" lon="-75.118011">
        <ele>2254.8755</ele>
        <time>2021-11-14T15:41:47Z</time>
      </trkpt>
      <trkpt lat="4.614138" lon="-75.118011">
        <ele>2255.208</ele>
        <time>2021-11-14T15:41:48Z</time>
      </trkpt>
      <trkpt lat="4.614136" lon="-75.118011">
        <ele>2255.258</ele>
        <time>2021-11-14T15:41:49Z</time>
      </trkpt>
      <trkpt lat="4.614135" lon="-75.118011">
        <ele>2255.5762</ele>
        <time>2021-11-14T15:41:50Z</time>
      </trkpt>
      <trkpt lat="4.614133" lon="-75.118011">
        <ele>2255.8147</ele>
        <time>2021-11-14T15:41:51Z</time>
      </trkpt>
      <trkpt lat="4.614132" lon="-75.118011">
        <ele>2255.9885</ele>
        <time>2021-11-14T15:41:52Z</time>
      </trkpt>
      <trkpt lat="4.614131" lon="-75.118011">
        <ele>2256.2153</ele>
        <time>2021-11-14T15:41:53Z</time>
      </trkpt>
      <trkpt lat="4.614129" lon="-75.118011">
        <ele>2256.2253</ele>
        <time>2021-11-14T15:41:54Z</time>
      </trkpt>
      <trkpt lat="4.614128" lon="-75.118011">
        <ele>2256.4338</ele>
        <time>2021-11-14T15:41:55Z</time>
      </trkpt>
      <trkpt lat="4.614128" lon="-75.118011">
        <ele>2256.4785</ele>
        <time>2021-11-14T15:41:56Z</time>
      </trkpt>
      <trkpt lat="4.614127" lon="-75.118011">
        <ele>2256.4834</ele>
        <time>2021-11-14T15:41:57Z</time>
      </trkpt>
      <trkpt lat="4.614127" lon="-75.118011">
        <ele>2256.5474</ele>
        <time>2021-11-14T15:41:58Z</time>
      </trkpt>
      <trkpt lat="4.614127" lon="-75.118011">
        <ele>2256.544</ele>
        <time>2021-11-14T15:41:59Z</time>
      </trkpt>
      <trkpt lat="4.614127" lon="-75.118011">
        <ele>2256.5483</ele>
        <time>2021-11-14T15:42:00Z</time>
      </trkpt>
      <trkpt lat="4.614127" lon="-75.118011">
        <ele>2256.5457</ele>
        <time>2021-11-14T15:42:01Z</time>
      </trkpt>
      <trkpt lat="4.614127" lon="-75.118011">
        <ele>2256.5488</ele>
        <time>2021-11-14T15:42:02Z</time>
      </trkpt>
      <trkpt lat="4.614127" lon="-75.118011">
        <ele>2256.5513</ele>
        <time>2021-11-14T15:42:03Z</time>
      </trkpt>
      <trkpt lat="4.614127" lon="-75.118011">
        <ele>2256.546</ele>
        <time>2021-11-14T15:42:04Z</time>
      </trkpt>
      <trkpt lat="4.614127" lon="-75.118011">
        <ele>2256.5515</ele>
        <time>2021-11-14T15:42:05Z</time>
      </trkpt>
      <trkpt lat="4.614127" lon="-75.118011">
        <ele>2256.5596</ele>
        <time>2021-11-14T15:42:06Z</time>
      </trkpt>
      <trkpt lat="4.614127" lon="-75.118011">
        <ele>2256.5662</ele>
        <time>2021-11-14T15:42:07Z</time>
      </trkpt>
      <trkpt lat="4.614127" lon="-75.118011">
        <ele>2256.5706</ele>
        <time>2021-11-14T15:42:08Z</time>
      </trkpt>
      <trkpt lat="4.614127" lon="-75.118011">
        <ele>2256.5757</ele>
        <time>2021-11-14T15:42:09Z</time>
      </trkpt>
      <trkpt lat="4.614127" lon="-75.118011">
        <ele>2256.401</ele>
        <time>2021-11-14T15:42:10Z</time>
      </trkpt>
      <trkpt lat="4.614128" lon="-75.118011">
        <ele>2256.3608</ele>
        <time>2021-11-14T15:42:11Z</time>
      </trkpt>
      <trkpt lat="4.61413" lon="-75.118011">
        <ele>2256.1897</ele>
        <time>2021-11-14T15:42:12Z</time>
      </trkpt>
      <trkpt lat="4.614131" lon="-75.118011">
        <ele>2256.128</ele>
        <time>2021-11-14T15:42:13Z</time>
      </trkpt>
      <trkpt lat="4.614135" lon="-75.118004">
        <ele>2256.0437</ele>
        <time>2021-11-14T15:42:14Z</time>
      </trkpt>
      <trkpt lat="4.614124" lon="-75.117966">
        <ele>2255.7532</ele>
        <time>2021-11-14T15:42:15Z</time>
      </trkpt>
      <trkpt lat="4.614132" lon="-75.117989">
        <ele>2255.4988</ele>
        <time>2021-11-14T15:42:16Z</time>
      </trkpt>
      <trkpt lat="4.61413" lon="-75.117989">
        <ele>2255.4636</ele>
        <time>2021-11-14T15:42:17Z</time>
      </trkpt>
      <trkpt lat="4.614129" lon="-75.117989">
        <ele>2255.4385</ele>
        <time>2021-11-14T15:42:18Z</time>
      </trkpt>
      <trkpt lat="4.614129" lon="-75.117989">
        <ele>2255.3826</ele>
        <time>2021-11-14T15:42:19Z</time>
      </trkpt>
      <trkpt lat="4.614131" lon="-75.117989">
        <ele>2255.3254</ele>
        <time>2021-11-14T15:42:20Z</time>
      </trkpt>
      <trkpt lat="4.614131" lon="-75.117989">
        <ele>2255.0479</ele>
        <time>2021-11-14T15:42:21Z</time>
      </trkpt>
      <trkpt lat="4.614131" lon="-75.117981">
        <ele>2254.7742</ele>
        <time>2021-11-14T15:42:22Z</time>
      </trkpt>
      <trkpt lat="4.614135" lon="-75.117928">
        <ele>2254.1099</ele>
        <time>2021-11-14T15:42:23Z</time>
      </trkpt>
      <trkpt lat="4.614135" lon="-75.117928">
        <ele>2253.8386</ele>
        <time>2021-11-14T15:42:24Z</time>
      </trkpt>
      <trkpt lat="4.61415" lon="-75.117851">
        <ele>2253.745</ele>
        <time>2021-11-14T15:42:25Z</time>
      </trkpt>
      <trkpt lat="4.614161" lon="-75.117867">
        <ele>2255.14</ele>
        <time>2021-11-14T15:42:26Z</time>
      </trkpt>
      <trkpt lat="4.614174" lon="-75.117836">
        <ele>2255.2063</ele>
        <time>2021-11-14T15:42:27Z</time>
      </trkpt>
      <trkpt lat="4.614182" lon="-75.117798">
        <ele>2254.302</ele>
        <time>2021-11-14T15:42:28Z</time>
      </trkpt>
      <trkpt lat="4.614183" lon="-75.117775">
        <ele>2254.3115</ele>
        <time>2021-11-14T15:42:29Z</time>
      </trkpt>
      <trkpt lat="4.614193" lon="-75.117706">
        <ele>2254.3022</ele>
        <time>2021-11-14T15:42:31Z</time>
      </trkpt>
      <trkpt lat="4.614206" lon="-75.117683">
        <ele>2254.8203</ele>
        <time>2021-11-14T15:42:32Z</time>
      </trkpt>
      <trkpt lat="4.614225" lon="-75.117622">
        <ele>2255.3037</ele>
        <time>2021-11-14T15:42:33Z</time>
      </trkpt>
      <trkpt lat="4.614236" lon="-75.117577">
        <ele>2256.214</ele>
        <time>2021-11-14T15:42:34Z</time>
      </trkpt>
      <trkpt lat="4.614258" lon="-75.117561">
        <ele>2257.0278</ele>
        <time>2021-11-14T15:42:35Z</time>
      </trkpt>
      <trkpt lat="4.614292" lon="-75.1175">
        <ele>2258.662</ele>
        <time>2021-11-14T15:42:36Z</time>
      </trkpt>
      <trkpt lat="4.614311" lon="-75.11747">
        <ele>2258.764</ele>
        <time>2021-11-14T15:42:37Z</time>
      </trkpt>
      <trkpt lat="4.614337" lon="-75.117439">
        <ele>2259.2107</ele>
        <time>2021-11-14T15:42:38Z</time>
      </trkpt>
      <trkpt lat="4.614342" lon="-75.117447">
        <ele>2258.628</ele>
        <time>2021-11-14T15:42:39Z</time>
      </trkpt>
      <trkpt lat="4.614365" lon="-75.117439">
        <ele>2259.3318</ele>
        <time>2021-11-14T15:42:40Z</time>
      </trkpt>
      <trkpt lat="4.614385" lon="-75.117432">
        <ele>2258.5884</ele>
        <time>2021-11-14T15:42:41Z</time>
      </trkpt>
      <trkpt lat="4.614405" lon="-75.117432">
        <ele>2257.7056</ele>
        <time>2021-11-14T15:42:42Z</time>
      </trkpt>
      <trkpt lat="4.614429" lon="-75.117432">
        <ele>2257.0696</ele>
        <time>2021-11-14T15:42:43Z</time>
      </trkpt>
      <trkpt lat="4.614439" lon="-75.117432">
        <ele>2256.7031</ele>
        <time>2021-11-14T15:42:44Z</time>
      </trkpt>
      <trkpt lat="4.61448" lon="-75.117416">
        <ele>2257.6191</ele>
        <time>2021-11-14T15:42:45Z</time>
      </trkpt>
      <trkpt lat="4.61448" lon="-75.117424">
        <ele>2256.9932</ele>
        <time>2021-11-14T15:42:46Z</time>
      </trkpt>
      <trkpt lat="4.614498" lon="-75.117424">
        <ele>2256.942</ele>
        <time>2021-11-14T15:42:47Z</time>
      </trkpt>
      <trkpt lat="4.614527" lon="-75.117432">
        <ele>2256.9102</ele>
        <time>2021-11-14T15:42:48Z</time>
      </trkpt>
      <trkpt lat="4.614554" lon="-75.117447">
        <ele>2256.9763</ele>
        <time>2021-11-14T15:42:49Z</time>
      </trkpt>
      <trkpt lat="4.614535" lon="-75.117455">
        <ele>2256.4072</ele>
        <time>2021-11-14T15:42:50Z</time>
      </trkpt>
      <trkpt lat="4.614529" lon="-75.117455">
        <ele>2255.9822</ele>
        <time>2021-11-14T15:42:51Z</time>
      </trkpt>
      <trkpt lat="4.614529" lon="-75.117455">
        <ele>2255.8862</ele>
        <time>2021-11-14T15:42:52Z</time>
      </trkpt>
      <trkpt lat="4.614525" lon="-75.117462">
        <ele>2256.1973</ele>
        <time>2021-11-14T15:42:53Z</time>
      </trkpt>
      <trkpt lat="4.614523" lon="-75.117462">
        <ele>2255.9128</ele>
        <time>2021-11-14T15:42:54Z</time>
      </trkpt>
      <trkpt lat="4.614521" lon="-75.117462">
        <ele>2255.7463</ele>
        <time>2021-11-14T15:42:55Z</time>
      </trkpt>
      <trkpt lat="4.614521" lon="-75.117462">
        <ele>2255.7761</ele>
        <time>2021-11-14T15:42:56Z</time>
      </trkpt>
      <trkpt lat="4.614521" lon="-75.11747">
        <ele>2255.947</ele>
        <time>2021-11-14T15:42:57Z</time>
      </trkpt>
      <trkpt lat="4.614521" lon="-75.11747">
        <ele>2256.186</ele>
        <time>2021-11-14T15:42:58Z</time>
      </trkpt>
      <trkpt lat="4.614521" lon="-75.11747">
        <ele>2255.8088</ele>
        <time>2021-11-14T15:42:59Z</time>
      </trkpt>
      <trkpt lat="4.614521" lon="-75.11747">
        <ele>2255.475</ele>
        <time>2021-11-14T15:43:00Z</time>
      </trkpt>
      <trkpt lat="4.61452" lon="-75.11747">
        <ele>2255.2542</ele>
        <time>2021-11-14T15:43:01Z</time>
      </trkpt>
      <trkpt lat="4.614519" lon="-75.11747">
        <ele>2255.0854</ele>
        <time>2021-11-14T15:43:02Z</time>
      </trkpt>
      <trkpt lat="4.614519" lon="-75.11747">
        <ele>2254.983</ele>
        <time>2021-11-14T15:43:03Z</time>
      </trkpt>
      <trkpt lat="4.614519" lon="-75.11747">
        <ele>2254.9521</ele>
        <time>2021-11-14T15:43:04Z</time>
      </trkpt>
      <trkpt lat="4.614518" lon="-75.11747">
        <ele>2255.0042</ele>
        <time>2021-11-14T15:43:05Z</time>
      </trkpt>
      <trkpt lat="4.614518" lon="-75.11747">
        <ele>2255.1133</ele>
        <time>2021-11-14T15:43:06Z</time>
      </trkpt>
      <trkpt lat="4.614517" lon="-75.11747">
        <ele>2255.168</ele>
        <time>2021-11-14T15:43:07Z</time>
      </trkpt>
      <trkpt lat="4.614517" lon="-75.11747">
        <ele>2255.2332</ele>
        <time>2021-11-14T15:43:08Z</time>
      </trkpt>
      <trkpt lat="4.614517" lon="-75.11747">
        <ele>2254.888</ele>
        <time>2021-11-14T15:43:09Z</time>
      </trkpt>
      <trkpt lat="4.614518" lon="-75.11747">
        <ele>2254.8086</ele>
        <time>2021-11-14T15:43:10Z</time>
      </trkpt>
      <trkpt lat="4.614518" lon="-75.11747">
        <ele>2254.858</ele>
        <time>2021-11-14T15:43:11Z</time>
      </trkpt>
      <trkpt lat="4.614517" lon="-75.11747">
        <ele>2255.0396</ele>
        <time>2021-11-14T15:43:12Z</time>
      </trkpt>
      <trkpt lat="4.614516" lon="-75.117477">
        <ele>2255.038</ele>
        <time>2021-11-14T15:43:13Z</time>
      </trkpt>
      <trkpt lat="4.614515" lon="-75.11747">
        <ele>2254.9285</ele>
        <time>2021-11-14T15:43:15Z</time>
      </trkpt>
      <trkpt lat="4.614515" lon="-75.11747">
        <ele>2254.9377</ele>
        <time>2021-11-14T15:43:16Z</time>
      </trkpt>
      <trkpt lat="4.614515" lon="-75.117477">
        <ele>2254.8103</ele>
        <time>2021-11-14T15:43:17Z</time>
      </trkpt>
      <trkpt lat="4.614518" lon="-75.117477">
        <ele>2254.947</ele>
        <time>2021-11-14T15:43:18Z</time>
      </trkpt>
      <trkpt lat="4.614526" lon="-75.117477">
        <ele>2254.8823</ele>
        <time>2021-11-14T15:43:19Z</time>
      </trkpt>
      <trkpt lat="4.614533" lon="-75.117485">
        <ele>2254.838</ele>
        <time>2021-11-14T15:43:20Z</time>
      </trkpt>
      <trkpt lat="4.614539" lon="-75.117493">
        <ele>2254.881</ele>
        <time>2021-11-14T15:43:21Z</time>
      </trkpt>
      <trkpt lat="4.614538" lon="-75.1175">
        <ele>2254.9895</ele>
        <time>2021-11-14T15:43:22Z</time>
      </trkpt>
      <trkpt lat="4.614538" lon="-75.1175">
        <ele>2255.0984</ele>
        <time>2021-11-14T15:43:23Z</time>
      </trkpt>
      <trkpt lat="4.614538" lon="-75.1175">
        <ele>2255.271</ele>
        <time>2021-11-14T15:43:24Z</time>
      </trkpt>
      <trkpt lat="4.614539" lon="-75.1175">
        <ele>2255.174</ele>
        <time>2021-11-14T15:43:25Z</time>
      </trkpt>
      <trkpt lat="4.614542" lon="-75.1175">
        <ele>2255.5857</ele>
        <time>2021-11-14T15:43:26Z</time>
      </trkpt>
      <trkpt lat="4.614544" lon="-75.1175">
        <ele>2255.8252</ele>
        <time>2021-11-14T15:43:27Z</time>
      </trkpt>
      <trkpt lat="4.614545" lon="-75.117508">
        <ele>2255.7449</ele>
        <time>2021-11-14T15:43:28Z</time>
      </trkpt>
      <trkpt lat="4.614546" lon="-75.117508">
        <ele>2255.3037</ele>
        <time>2021-11-14T15:43:29Z</time>
      </trkpt>
      <trkpt lat="4.614546" lon="-75.117508">
        <ele>2254.9182</ele>
        <time>2021-11-14T15:43:30Z</time>
      </trkpt>
      <trkpt lat="4.614545" lon="-75.117508">
        <ele>2254.893</ele>
        <time>2021-11-14T15:43:31Z</time>
      </trkpt>
      <trkpt lat="4.614546" lon="-75.117508">
        <ele>2255.1042</ele>
        <time>2021-11-14T15:43:32Z</time>
      </trkpt>
      <trkpt lat="4.614546" lon="-75.117516">
        <ele>2254.3647</ele>
        <time>2021-11-14T15:43:52Z</time>
      </trkpt>
      <trkpt lat="4.614557" lon="-75.117523">
        <ele>2253.8027</ele>
        <time>2021-11-14T15:43:53Z</time>
      </trkpt>
      <trkpt lat="4.614561" lon="-75.117523">
        <ele>2253.761</ele>
        <time>2021-11-14T15:43:54Z</time>
      </trkpt>
      <trkpt lat="4.614564" lon="-75.117523">
        <ele>2253.6912</ele>
        <time>2021-11-14T15:43:55Z</time>
      </trkpt>
      <trkpt lat="4.614623" lon="-75.117554">
        <ele>2253.2568</ele>
        <time>2021-11-14T15:43:56Z</time>
      </trkpt>
      <trkpt lat="4.614623" lon="-75.117554">
        <ele>2253.5334</ele>
        <time>2021-11-14T15:43:57Z</time>
      </trkpt>
      <trkpt lat="4.61467" lon="-75.117569">
        <ele>2253.2502</ele>
        <time>2021-11-14T15:43:58Z</time>
      </trkpt>
      <trkpt lat="4.614658" lon="-75.117561">
        <ele>2252.3645</ele>
        <time>2021-11-14T15:43:59Z</time>
      </trkpt>
      <trkpt lat="4.614697" lon="-75.117577">
        <ele>2252.3892</ele>
        <time>2021-11-14T15:44:00Z</time>
      </trkpt>
      <trkpt lat="4.614738" lon="-75.117592">
        <ele>2251.947</ele>
        <time>2021-11-14T15:44:01Z</time>
      </trkpt>
      <trkpt lat="4.614748" lon="-75.117599">
        <ele>2251.9497</ele>
        <time>2021-11-14T15:44:02Z</time>
      </trkpt>
      <trkpt lat="4.614767" lon="-75.117615">
        <ele>2251.8171</ele>
        <time>2021-11-14T15:44:03Z</time>
      </trkpt>
      <trkpt lat="4.614784" lon="-75.117622">
        <ele>2250.9326</ele>
        <time>2021-11-14T15:44:04Z</time>
      </trkpt>
      <trkpt lat="4.614826" lon="-75.117653">
        <ele>2251.2603</ele>
        <time>2021-11-14T15:44:05Z</time>
      </trkpt>
      <trkpt lat="4.614849" lon="-75.117668">
        <ele>2251.1594</ele>
        <time>2021-11-14T15:44:06Z</time>
      </trkpt>
      <trkpt lat="4.614852" lon="-75.117668">
        <ele>2251.9802</ele>
        <time>2021-11-14T15:44:07Z</time>
      </trkpt>
      <trkpt lat="4.614883" lon="-75.117683">
        <ele>2251.4438</ele>
        <time>2021-11-14T15:44:08Z</time>
      </trkpt>
      <trkpt lat="4.614925" lon="-75.117699">
        <ele>2251.5728</ele>
        <time>2021-11-14T15:44:09Z</time>
      </trkpt>
      <trkpt lat="4.614964" lon="-75.117714">
        <ele>2251.4585</ele>
        <time>2021-11-14T15:44:11Z</time>
      </trkpt>
      <trkpt lat="4.614997" lon="-75.117722">
        <ele>2251.8442</ele>
        <time>2021-11-14T15:44:12Z</time>
      </trkpt>
      <trkpt lat="4.615037" lon="-75.117737">
        <ele>2251.3794</ele>
        <time>2021-11-14T15:44:13Z</time>
      </trkpt>
      <trkpt lat="4.615071" lon="-75.117744">
        <ele>2251.4019</ele>
        <time>2021-11-14T15:44:14Z</time>
      </trkpt>
      <trkpt lat="4.615102" lon="-75.117752">
        <ele>2250.876</ele>
        <time>2021-11-14T15:44:15Z</time>
      </trkpt>
      <trkpt lat="4.615136" lon="-75.11776">
        <ele>2251.2563</ele>
        <time>2021-11-14T15:44:16Z</time>
      </trkpt>
      <trkpt lat="4.615177" lon="-75.117767">
        <ele>2252.6543</ele>
        <time>2021-11-14T15:44:17Z</time>
      </trkpt>
      <trkpt lat="4.615182" lon="-75.11776">
        <ele>2253.373</ele>
        <time>2021-11-14T15:44:18Z</time>
      </trkpt>
      <trkpt lat="4.615265" lon="-75.11776">
        <ele>2252.788</ele>
        <time>2021-11-14T15:44:19Z</time>
      </trkpt>
      <trkpt lat="4.615259" lon="-75.11776">
        <ele>2252.9194</ele>
        <time>2021-11-14T15:44:20Z</time>
      </trkpt>
      <trkpt lat="4.615279" lon="-75.117744">
        <ele>2253.6511</ele>
        <time>2021-11-14T15:44:21Z</time>
      </trkpt>
      <trkpt lat="4.615306" lon="-75.117729">
        <ele>2253.1885</ele>
        <time>2021-11-14T15:44:22Z</time>
      </trkpt>
      <trkpt lat="4.615326" lon="-75.117722">
        <ele>2253.2812</ele>
        <time>2021-11-14T15:44:23Z</time>
      </trkpt>
      <trkpt lat="4.615334" lon="-75.117706">
        <ele>2254.5703</ele>
        <time>2021-11-14T15:44:24Z</time>
      </trkpt>
      <trkpt lat="4.615373" lon="-75.117676">
        <ele>2254.7795</ele>
        <time>2021-11-14T15:44:25Z</time>
      </trkpt>
      <trkpt lat="4.615373" lon="-75.117676">
        <ele>2253.3154</ele>
        <time>2021-11-14T15:44:26Z</time>
      </trkpt>
      <trkpt lat="4.61536" lon="-75.117676">
        <ele>2252.5432</ele>
        <time>2021-11-14T15:44:27Z</time>
      </trkpt>
      <trkpt lat="4.615376" lon="-75.117615">
        <ele>2250.649</ele>
        <time>2021-11-14T15:44:28Z</time>
      </trkpt>
      <trkpt lat="4.61536" lon="-75.117607">
        <ele>2249.2817</ele>
        <time>2021-11-14T15:44:29Z</time>
      </trkpt>
      <trkpt lat="4.615352" lon="-75.117584">
        <ele>2246.8174</ele>
        <time>2021-11-14T15:44:30Z</time>
      </trkpt>
      <trkpt lat="4.615346" lon="-75.117569">
        <ele>2246.0168</ele>
        <time>2021-11-14T15:44:31Z</time>
      </trkpt>
      <trkpt lat="4.615338" lon="-75.117538">
        <ele>2245.5266</ele>
        <time>2021-11-14T15:44:32Z</time>
      </trkpt>
      <trkpt lat="4.615326" lon="-75.117485">
        <ele>2246.0815</ele>
        <time>2021-11-14T15:44:33Z</time>
      </trkpt>
      <trkpt lat="4.615322" lon="-75.11747">
        <ele>2245.4253</ele>
        <time>2021-11-14T15:44:34Z</time>
      </trkpt>
      <trkpt lat="4.615325" lon="-75.117455">
        <ele>2245.5308</ele>
        <time>2021-11-14T15:44:35Z</time>
      </trkpt>
      <trkpt lat="4.615323" lon="-75.117416">
        <ele>2244.883</ele>
        <time>2021-11-14T15:44:36Z</time>
      </trkpt>
      <trkpt lat="4.615322" lon="-75.117371">
        <ele>2243.9072</ele>
        <time>2021-11-14T15:44:37Z</time>
      </trkpt>
      <trkpt lat="4.61532" lon="-75.117332">
        <ele>2242.9685</ele>
        <time>2021-11-14T15:44:38Z</time>
      </trkpt>
      <trkpt lat="4.615321" lon="-75.117317">
        <ele>2244.6323</ele>
        <time>2021-11-14T15:44:39Z</time>
      </trkpt>
      <trkpt lat="4.615325" lon="-75.117287">
        <ele>2245.4897</ele>
        <time>2021-11-14T15:44:40Z</time>
      </trkpt>
      <trkpt lat="4.615322" lon="-75.117249">
        <ele>2245.0388</ele>
        <time>2021-11-14T15:44:41Z</time>
      </trkpt>
      <trkpt lat="4.615315" lon="-75.117233">
        <ele>2245.2444</ele>
        <time>2021-11-14T15:44:42Z</time>
      </trkpt>
      <trkpt lat="4.61528" lon="-75.117157">
        <ele>2245.1013</ele>
        <time>2021-11-14T15:44:43Z</time>
      </trkpt>
      <trkpt lat="4.615266" lon="-75.117088">
        <ele>2247.1484</ele>
        <time>2021-11-14T15:44:44Z</time>
      </trkpt>
      <trkpt lat="4.615256" lon="-75.117043">
        <ele>2250.1345</ele>
        <time>2021-11-14T15:44:45Z</time>
      </trkpt>
      <trkpt lat="4.615249" lon="-75.117035">
        <ele>2249.2969</ele>
        <time>2021-11-14T15:44:46Z</time>
      </trkpt>
      <trkpt lat="4.615229" lon="-75.116982">
        <ele>2248.2842</ele>
        <time>2021-11-14T15:44:47Z</time>
      </trkpt>
      <trkpt lat="4.615215" lon="-75.116951">
        <ele>2247.739</ele>
        <time>2021-11-14T15:44:48Z</time>
      </trkpt>
      <trkpt lat="4.615197" lon="-75.116905">
        <ele>2246.5957</ele>
        <time>2021-11-14T15:44:49Z</time>
      </trkpt>
      <trkpt lat="4.615197" lon="-75.116905">
        <ele>2246.7607</ele>
        <time>2021-11-14T15:44:50Z</time>
      </trkpt>
      <trkpt lat="4.615202" lon="-75.116913">
        <ele>2246.702</ele>
        <time>2021-11-14T15:44:51Z</time>
      </trkpt>
      <trkpt lat="4.615188" lon="-75.116844">
        <ele>2246.0278</ele>
        <time>2021-11-14T15:44:52Z</time>
      </trkpt>
      <trkpt lat="4.615178" lon="-75.116791">
        <ele>2246.5088</ele>
        <time>2021-11-14T15:44:53Z</time>
      </trkpt>
      <trkpt lat="4.615177" lon="-75.116768">
        <ele>2245.3855</ele>
        <time>2021-11-14T15:44:55Z</time>
      </trkpt>
      <trkpt lat="4.615171" lon="-75.11673">
        <ele>2244.7297</ele>
        <time>2021-11-14T15:44:56Z</time>
      </trkpt>
      <trkpt lat="4.615153" lon="-75.116692">
        <ele>2245.069</ele>
        <time>2021-11-14T15:44:57Z</time>
      </trkpt>
      <trkpt lat="4.615128" lon="-75.116661">
        <ele>2244.4521</ele>
        <time>2021-11-14T15:44:58Z</time>
      </trkpt>
      <trkpt lat="4.615115" lon="-75.116646">
        <ele>2244.501</ele>
        <time>2021-11-14T15:44:59Z</time>
      </trkpt>
      <trkpt lat="4.615097" lon="-75.116608">
        <ele>2244.3228</ele>
        <time>2021-11-14T15:45:00Z</time>
      </trkpt>
      <trkpt lat="4.615075" lon="-75.116554">
        <ele>2244.1575</ele>
        <time>2021-11-14T15:45:01Z</time>
      </trkpt>
      <trkpt lat="4.615065" lon="-75.116531">
        <ele>2243.711</ele>
        <time>2021-11-14T15:45:02Z</time>
      </trkpt>
      <trkpt lat="4.61505" lon="-75.116501">
        <ele>2243.0754</ele>
        <time>2021-11-14T15:45:03Z</time>
      </trkpt>
      <trkpt lat="4.615027" lon="-75.116455">
        <ele>2242.7168</ele>
        <time>2021-11-14T15:45:04Z</time>
      </trkpt>
      <trkpt lat="4.615012" lon="-75.116417">
        <ele>2242.366</ele>
        <time>2021-11-14T15:45:05Z</time>
      </trkpt>
      <trkpt lat="4.61499" lon="-75.116386">
        <ele>2241.8542</ele>
        <time>2021-11-14T15:45:06Z</time>
      </trkpt>
      <trkpt lat="4.614928" lon="-75.116341">
        <ele>2242.7314</ele>
        <time>2021-11-14T15:45:07Z</time>
      </trkpt>
      <trkpt lat="4.614875" lon="-75.116325">
        <ele>2241.0542</ele>
        <time>2021-11-14T15:45:08Z</time>
      </trkpt>
      <trkpt lat="4.61488" lon="-75.116341">
        <ele>2240.2986</ele>
        <time>2021-11-14T15:45:09Z</time>
      </trkpt>
      <trkpt lat="4.6148" lon="-75.116325">
        <ele>2239.6707</ele>
        <time>2021-11-14T15:45:10Z</time>
      </trkpt>
      <trkpt lat="4.614755" lon="-75.116318">
        <ele>2239.5398</ele>
        <time>2021-11-14T15:45:12Z</time>
      </trkpt>
      <trkpt lat="4.614732" lon="-75.116302">
        <ele>2238.804</ele>
        <time>2021-11-14T15:45:13Z</time>
      </trkpt>
      <trkpt lat="4.614705" lon="-75.116295">
        <ele>2240.0557</ele>
        <time>2021-11-14T15:45:14Z</time>
      </trkpt>
      <trkpt lat="4.614633" lon="-75.116264">
        <ele>2239.4368</ele>
        <time>2021-11-14T15:45:15Z</time>
      </trkpt>
      <trkpt lat="4.614612" lon="-75.116264">
        <ele>2238.5083</ele>
        <time>2021-11-14T15:45:16Z</time>
      </trkpt>
      <trkpt lat="4.614559" lon="-75.116234">
        <ele>2238.7812</ele>
        <time>2021-11-14T15:45:17Z</time>
      </trkpt>
      <trkpt lat="4.614559" lon="-75.116219">
        <ele>2239.683</ele>
        <time>2021-11-14T15:45:18Z</time>
      </trkpt>
      <trkpt lat="4.614559" lon="-75.116219">
        <ele>2238.817</ele>
        <time>2021-11-14T15:45:19Z</time>
      </trkpt>
      <trkpt lat="4.614521" lon="-75.116173">
        <ele>2239.0798</ele>
        <time>2021-11-14T15:45:20Z</time>
      </trkpt>
      <trkpt lat="4.614504" lon="-75.116142">
        <ele>2238.9905</ele>
        <time>2021-11-14T15:45:21Z</time>
      </trkpt>
      <trkpt lat="4.61448" lon="-75.116104">
        <ele>2237.4402</ele>
        <time>2021-11-14T15:45:22Z</time>
      </trkpt>
      <trkpt lat="4.61445" lon="-75.116058">
        <ele>2236.9849</ele>
        <time>2021-11-14T15:45:23Z</time>
      </trkpt>
      <trkpt lat="4.614405" lon="-75.115997">
        <ele>2238.0237</ele>
        <time>2021-11-14T15:45:24Z</time>
      </trkpt>
      <trkpt lat="4.614385" lon="-75.115967">
        <ele>2238.586</ele>
        <time>2021-11-14T15:45:25Z</time>
      </trkpt>
      <trkpt lat="4.614356" lon="-75.115929">
        <ele>2238.1572</ele>
        <time>2021-11-14T15:45:26Z</time>
      </trkpt>
      <trkpt lat="4.614331" lon="-75.115891">
        <ele>2237.4517</ele>
        <time>2021-11-14T15:45:27Z</time>
      </trkpt>
      <trkpt lat="4.614312" lon="-75.115868">
        <ele>2237.5596</ele>
        <time>2021-11-14T15:45:28Z</time>
      </trkpt>
      <trkpt lat="4.614284" lon="-75.115822">
        <ele>2236.887</ele>
        <time>2021-11-14T15:45:29Z</time>
      </trkpt>
      <trkpt lat="4.614263" lon="-75.115791">
        <ele>2236.0576</ele>
        <time>2021-11-14T15:45:30Z</time>
      </trkpt>
      <trkpt lat="4.61425" lon="-75.115776">
        <ele>2236.1697</ele>
        <time>2021-11-14T15:45:31Z</time>
      </trkpt>
      <trkpt lat="4.614232" lon="-75.115746">
        <ele>2235.8533</ele>
        <time>2021-11-14T15:45:32Z</time>
      </trkpt>
      <trkpt lat="4.614213" lon="-75.115707">
        <ele>2236.226</ele>
        <time>2021-11-14T15:45:34Z</time>
      </trkpt>
      <trkpt lat="4.614209" lon="-75.115685">
        <ele>2235.6843</ele>
        <time>2021-11-14T15:45:35Z</time>
      </trkpt>
      <trkpt lat="4.614203" lon="-75.115646">
        <ele>2234.9756</ele>
        <time>2021-11-14T15:45:36Z</time>
      </trkpt>
      <trkpt lat="4.614198" lon="-75.115616">
        <ele>2234.152</ele>
        <time>2021-11-14T15:45:37Z</time>
      </trkpt>
      <trkpt lat="4.614205" lon="-75.11557">
        <ele>2234.9343</ele>
        <time>2021-11-14T15:45:38Z</time>
      </trkpt>
      <trkpt lat="4.614219" lon="-75.115524">
        <ele>2233.9478</ele>
        <time>2021-11-14T15:45:39Z</time>
      </trkpt>
      <trkpt lat="4.614234" lon="-75.115517">
        <ele>2232.9885</ele>
        <time>2021-11-14T15:45:40Z</time>
      </trkpt>
      <trkpt lat="4.614248" lon="-75.115479">
        <ele>2231.6135</ele>
        <time>2021-11-14T15:45:41Z</time>
      </trkpt>
      <trkpt lat="4.614275" lon="-75.115456">
        <ele>2230.6677</ele>
        <time>2021-11-14T15:45:42Z</time>
      </trkpt>
      <trkpt lat="4.614338" lon="-75.11541">
        <ele>2229.0134</ele>
        <time>2021-11-14T15:45:43Z</time>
      </trkpt>
      <trkpt lat="4.614427" lon="-75.115417">
        <ele>2227.23</ele>
        <time>2021-11-14T15:45:44Z</time>
      </trkpt>
      <trkpt lat="4.614427" lon="-75.115417">
        <ele>2227.1655</ele>
        <time>2021-11-14T15:45:45Z</time>
      </trkpt>
      <trkpt lat="4.614468" lon="-75.115433">
        <ele>2226.986</ele>
        <time>2021-11-14T15:45:46Z</time>
      </trkpt>
      <trkpt lat="4.614544" lon="-75.11541">
        <ele>2226.458</ele>
        <time>2021-11-14T15:45:47Z</time>
      </trkpt>
      <trkpt lat="4.614567" lon="-75.115402">
        <ele>2226.8074</ele>
        <time>2021-11-14T15:45:48Z</time>
      </trkpt>
      <trkpt lat="4.614633" lon="-75.115364">
        <ele>2225.7615</ele>
        <time>2021-11-14T15:45:49Z</time>
      </trkpt>
      <trkpt lat="4.614667" lon="-75.115349">
        <ele>2223.954</ele>
        <time>2021-11-14T15:45:50Z</time>
      </trkpt>
      <trkpt lat="4.614704" lon="-75.115334">
        <ele>2223.5623</ele>
        <time>2021-11-14T15:45:51Z</time>
      </trkpt>
      <trkpt lat="4.614765" lon="-75.115318">
        <ele>2221.804</ele>
        <time>2021-11-14T15:45:52Z</time>
      </trkpt>
      <trkpt lat="4.614791" lon="-75.115303">
        <ele>2222.408</ele>
        <time>2021-11-14T15:45:53Z</time>
      </trkpt>
      <trkpt lat="4.614843" lon="-75.115295">
        <ele>2221.5144</ele>
        <time>2021-11-14T15:45:54Z</time>
      </trkpt>
      <trkpt lat="4.614906" lon="-75.115288">
        <ele>2221.3328</ele>
        <time>2021-11-14T15:45:55Z</time>
      </trkpt>
      <trkpt lat="4.614951" lon="-75.115295">
        <ele>2221.621</ele>
        <time>2021-11-14T15:45:56Z</time>
      </trkpt>
      <trkpt lat="4.61499" lon="-75.115311">
        <ele>2220.863</ele>
        <time>2021-11-14T15:45:57Z</time>
      </trkpt>
      <trkpt lat="4.615025" lon="-75.115326">
        <ele>2220.6626</ele>
        <time>2021-11-14T15:45:58Z</time>
      </trkpt>
      <trkpt lat="4.615097" lon="-75.115326">
        <ele>2220.439</ele>
        <time>2021-11-14T15:45:59Z</time>
      </trkpt>
      <trkpt lat="4.615155" lon="-75.11528">
        <ele>2220.985</ele>
        <time>2021-11-14T15:46:00Z</time>
      </trkpt>
      <trkpt lat="4.615188" lon="-75.115227">
        <ele>2220.4392</ele>
        <time>2021-11-14T15:46:01Z</time>
      </trkpt>
      <trkpt lat="4.615211" lon="-75.115196">
        <ele>2220.2832</ele>
        <time>2021-11-14T15:46:02Z</time>
      </trkpt>
      <trkpt lat="4.615237" lon="-75.115158">
        <ele>2219.2524</ele>
        <time>2021-11-14T15:46:03Z</time>
      </trkpt>
      <trkpt lat="4.615262" lon="-75.115097">
        <ele>2218.5615</ele>
        <time>2021-11-14T15:46:04Z</time>
      </trkpt>
      <trkpt lat="4.6153" lon="-75.115028">
        <ele>2218.4937</ele>
        <time>2021-11-14T15:46:05Z</time>
      </trkpt>
      <trkpt lat="4.615331" lon="-75.115005">
        <ele>2217.1685</ele>
        <time>2021-11-14T15:46:06Z</time>
      </trkpt>
      <trkpt lat="4.615377" lon="-75.114944">
        <ele>2217.3997</ele>
        <time>2021-11-14T15:46:07Z</time>
      </trkpt>
      <trkpt lat="4.615386" lon="-75.114944">
        <ele>2217.676</ele>
        <time>2021-11-14T15:46:08Z</time>
      </trkpt>
      <trkpt lat="4.615473" lon="-75.114899">
        <ele>2217.251</ele>
        <time>2021-11-14T15:46:09Z</time>
      </trkpt>
      <trkpt lat="4.615502" lon="-75.114861">
        <ele>2217.6938</ele>
        <time>2021-11-14T15:46:11Z</time>
      </trkpt>
      <trkpt lat="4.615522" lon="-75.114868">
        <ele>2219.526</ele>
        <time>2021-11-14T15:46:12Z</time>
      </trkpt>
      <trkpt lat="4.615594" lon="-75.114807">
        <ele>2219.6333</ele>
        <time>2021-11-14T15:46:13Z</time>
      </trkpt>
      <trkpt lat="4.615587" lon="-75.114815">
        <ele>2220.2795</ele>
        <time>2021-11-14T15:46:14Z</time>
      </trkpt>
      <trkpt lat="4.615716" lon="-75.1147">
        <ele>2220.2568</ele>
        <time>2021-11-14T15:46:15Z</time>
      </trkpt>
      <trkpt lat="4.615753" lon="-75.1147">
        <ele>2219.7458</ele>
        <time>2021-11-14T15:46:16Z</time>
      </trkpt>
      <trkpt lat="4.615805" lon="-75.114624">
        <ele>2218.9717</ele>
        <time>2021-11-14T15:46:17Z</time>
      </trkpt>
      <trkpt lat="4.61583" lon="-75.114586">
        <ele>2217.5916</ele>
        <time>2021-11-14T15:46:18Z</time>
      </trkpt>
      <trkpt lat="4.61583" lon="-75.114586">
        <ele>2217.154</ele>
        <time>2021-11-14T15:46:19Z</time>
      </trkpt>
      <trkpt lat="4.615865" lon="-75.114532">
        <ele>2215.8054</ele>
        <time>2021-11-14T15:46:20Z</time>
      </trkpt>
      <trkpt lat="4.615909" lon="-75.114464">
        <ele>2214.6348</ele>
        <time>2021-11-14T15:46:21Z</time>
      </trkpt>
      <trkpt lat="4.615903" lon="-75.114418">
        <ele>2213.6653</ele>
        <time>2021-11-14T15:46:22Z</time>
      </trkpt>
      <trkpt lat="4.615932" lon="-75.114349">
        <ele>2212.668</ele>
        <time>2021-11-14T15:46:23Z</time>
      </trkpt>
      <trkpt lat="4.615956" lon="-75.114296">
        <ele>2212.9373</ele>
        <time>2021-11-14T15:46:24Z</time>
      </trkpt>
      <trkpt lat="4.615983" lon="-75.114197">
        <ele>2211.413</ele>
        <time>2021-11-14T15:46:25Z</time>
      </trkpt>
      <trkpt lat="4.61601" lon="-75.114189">
        <ele>2210.6028</ele>
        <time>2021-11-14T15:46:26Z</time>
      </trkpt>
      <trkpt lat="4.616058" lon="-75.114166">
        <ele>2210.6992</ele>
        <time>2021-11-14T15:46:27Z</time>
      </trkpt>
      <trkpt lat="4.616125" lon="-75.114105">
        <ele>2209.119</ele>
        <time>2021-11-14T15:46:28Z</time>
      </trkpt>
      <trkpt lat="4.61618" lon="-75.114082">
        <ele>2207.026</ele>
        <time>2021-11-14T15:46:29Z</time>
      </trkpt>
      <trkpt lat="4.616329" lon="-75.114044">
        <ele>2202.023</ele>
        <time>2021-11-14T15:46:30Z</time>
      </trkpt>
      <trkpt lat="4.616352" lon="-75.114006">
        <ele>2201.1702</ele>
        <time>2021-11-14T15:46:31Z</time>
      </trkpt>
      <trkpt lat="4.616375" lon="-75.113968">
        <ele>2200.6323</ele>
        <time>2021-11-14T15:46:32Z</time>
      </trkpt>
      <trkpt lat="4.616434" lon="-75.11393">
        <ele>2199.0867</ele>
        <time>2021-11-14T15:46:33Z</time>
      </trkpt>
      <trkpt lat="4.616493" lon="-75.113907">
        <ele>2198.2812</ele>
        <time>2021-11-14T15:46:34Z</time>
      </trkpt>
      <trkpt lat="4.616535" lon="-75.113892">
        <ele>2198.2178</ele>
        <time>2021-11-14T15:46:35Z</time>
      </trkpt>
      <trkpt lat="4.616577" lon="-75.113869">
        <ele>2197.8413</ele>
        <time>2021-11-14T15:46:36Z</time>
      </trkpt>
      <trkpt lat="4.616644" lon="-75.113846">
        <ele>2197.8674</ele>
        <time>2021-11-14T15:46:37Z</time>
      </trkpt>
      <trkpt lat="4.616673" lon="-75.113831">
        <ele>2197.0017</ele>
        <time>2021-11-14T15:46:39Z</time>
      </trkpt>
      <trkpt lat="4.616742" lon="-75.113777">
        <ele>2195.8748</ele>
        <time>2021-11-14T15:46:40Z</time>
      </trkpt>
      <trkpt lat="4.616809" lon="-75.113731">
        <ele>2195.4944</ele>
        <time>2021-11-14T15:46:41Z</time>
      </trkpt>
      <trkpt lat="4.616858" lon="-75.113686">
        <ele>2194.6208</ele>
        <time>2021-11-14T15:46:42Z</time>
      </trkpt>
      <trkpt lat="4.616882" lon="-75.11367">
        <ele>2192.814</ele>
        <time>2021-11-14T15:46:43Z</time>
      </trkpt>
      <trkpt lat="4.616905" lon="-75.113663">
        <ele>2191.1345</ele>
        <time>2021-11-14T15:46:44Z</time>
      </trkpt>
      <trkpt lat="4.61698" lon="-75.113655">
        <ele>2190.3662</ele>
        <time>2021-11-14T15:46:45Z</time>
      </trkpt>
      <trkpt lat="4.617059" lon="-75.113647">
        <ele>2188.3125</ele>
        <time>2021-11-14T15:46:46Z</time>
      </trkpt>
      <trkpt lat="4.617111" lon="-75.113647">
        <ele>2187.596</ele>
        <time>2021-11-14T15:46:47Z</time>
      </trkpt>
      <trkpt lat="4.617204" lon="-75.113625">
        <ele>2186.3665</ele>
        <time>2021-11-14T15:46:48Z</time>
      </trkpt>
      <trkpt lat="4.617246" lon="-75.113594">
        <ele>2186.3674</ele>
        <time>2021-11-14T15:46:49Z</time>
      </trkpt>
      <trkpt lat="4.617272" lon="-75.11351">
        <ele>2185.9646</ele>
        <time>2021-11-14T15:46:50Z</time>
      </trkpt>
      <trkpt lat="4.617308" lon="-75.113449">
        <ele>2183.1802</ele>
        <time>2021-11-14T15:46:51Z</time>
      </trkpt>
      <trkpt lat="4.617297" lon="-75.113388">
        <ele>2182.9424</ele>
        <time>2021-11-14T15:46:52Z</time>
      </trkpt>
      <trkpt lat="4.617314" lon="-75.113312">
        <ele>2182.8179</ele>
        <time>2021-11-14T15:46:53Z</time>
      </trkpt>
      <trkpt lat="4.617355" lon="-75.11319">
        <ele>2182.1704</ele>
        <time>2021-11-14T15:46:54Z</time>
      </trkpt>
      <trkpt lat="4.617374" lon="-75.11319">
        <ele>2183.0586</ele>
        <time>2021-11-14T15:46:55Z</time>
      </trkpt>
      <trkpt lat="4.617416" lon="-75.113106">
        <ele>2183.4739</ele>
        <time>2021-11-14T15:46:56Z</time>
      </trkpt>
      <trkpt lat="4.617487" lon="-75.113007">
        <ele>2181.8738</ele>
        <time>2021-11-14T15:46:57Z</time>
      </trkpt>
      <trkpt lat="4.617524" lon="-75.112968">
        <ele>2181.8394</ele>
        <time>2021-11-14T15:46:58Z</time>
      </trkpt>
      <trkpt lat="4.617554" lon="-75.112923">
        <ele>2182.4597</ele>
        <time>2021-11-14T15:46:59Z</time>
      </trkpt>
      <trkpt lat="4.617616" lon="-75.112892">
        <ele>2183.413</ele>
        <time>2021-11-14T15:47:00Z</time>
      </trkpt>
      <trkpt lat="4.617646" lon="-75.112877">
        <ele>2183.2678</ele>
        <time>2021-11-14T15:47:01Z</time>
      </trkpt>
      <trkpt lat="4.617672" lon="-75.112839">
        <ele>2182.6013</ele>
        <time>2021-11-14T15:47:02Z</time>
      </trkpt>
      <trkpt lat="4.617671" lon="-75.112762">
        <ele>2181.0876</ele>
        <time>2021-11-14T15:47:03Z</time>
      </trkpt>
      <trkpt lat="4.617643" lon="-75.112656">
        <ele>2179.4583</ele>
        <time>2021-11-14T15:47:04Z</time>
      </trkpt>
      <trkpt lat="4.617622" lon="-75.11261">
        <ele>2179.3745</ele>
        <time>2021-11-14T15:47:05Z</time>
      </trkpt>
      <trkpt lat="4.617622" lon="-75.112549">
        <ele>2179.1995</ele>
        <time>2021-11-14T15:47:07Z</time>
      </trkpt>
      <trkpt lat="4.617619" lon="-75.112495">
        <ele>2179.942</ele>
        <time>2021-11-14T15:47:08Z</time>
      </trkpt>
      <trkpt lat="4.617619" lon="-75.112495">
        <ele>2179.7751</ele>
        <time>2021-11-14T15:47:09Z</time>
      </trkpt>
      <trkpt lat="4.617642" lon="-75.112427">
        <ele>2179.9766</ele>
        <time>2021-11-14T15:47:10Z</time>
      </trkpt>
      <trkpt lat="4.617674" lon="-75.112411">
        <ele>2179.069</ele>
        <time>2021-11-14T15:47:11Z</time>
      </trkpt>
      <trkpt lat="4.617712" lon="-75.112366">
        <ele>2178.5842</ele>
        <time>2021-11-14T15:47:12Z</time>
      </trkpt>
      <trkpt lat="4.617772" lon="-75.112343">
        <ele>2178.5168</ele>
        <time>2021-11-14T15:47:13Z</time>
      </trkpt>
      <trkpt lat="4.617816" lon="-75.112305">
        <ele>2178.3914</ele>
        <time>2021-11-14T15:47:14Z</time>
      </trkpt>
      <trkpt lat="4.61786" lon="-75.112244">
        <ele>2178.389</ele>
        <time>2021-11-14T15:47:15Z</time>
      </trkpt>
      <trkpt lat="4.617876" lon="-75.112198">
        <ele>2177.9224</ele>
        <time>2021-11-14T15:47:16Z</time>
      </trkpt>
      <trkpt lat="4.617891" lon="-75.112129">
        <ele>2176.8152</ele>
        <time>2021-11-14T15:47:17Z</time>
      </trkpt>
      <trkpt lat="4.617891" lon="-75.112083">
        <ele>2177.444</ele>
        <time>2021-11-14T15:47:18Z</time>
      </trkpt>
      <trkpt lat="4.617897" lon="-75.111984">
        <ele>2177.1174</ele>
        <time>2021-11-14T15:47:19Z</time>
      </trkpt>
      <trkpt lat="4.617902" lon="-75.111908">
        <ele>2175.5693</ele>
        <time>2021-11-14T15:47:20Z</time>
      </trkpt>
      <trkpt lat="4.617924" lon="-75.11187">
        <ele>2174.809</ele>
        <time>2021-11-14T15:47:21Z</time>
      </trkpt>
      <trkpt lat="4.617953" lon="-75.111801">
        <ele>2174.2883</ele>
        <time>2021-11-14T15:47:22Z</time>
      </trkpt>
      <trkpt lat="4.617997" lon="-75.11174">
        <ele>2173.1714</ele>
        <time>2021-11-14T15:47:23Z</time>
      </trkpt>
      <trkpt lat="4.618038" lon="-75.111687">
        <ele>2172.034</ele>
        <time>2021-11-14T15:47:24Z</time>
      </trkpt>
      <trkpt lat="4.618088" lon="-75.111626">
        <ele>2172.1392</ele>
        <time>2021-11-14T15:47:25Z</time>
      </trkpt>
      <trkpt lat="4.618124" lon="-75.111565">
        <ele>2171.6982</ele>
        <time>2021-11-14T15:47:26Z</time>
      </trkpt>
      <trkpt lat="4.618157" lon="-75.111504">
        <ele>2170.4573</ele>
        <time>2021-11-14T15:47:27Z</time>
      </trkpt>
      <trkpt lat="4.618189" lon="-75.111458">
        <ele>2170.4246</ele>
        <time>2021-11-14T15:47:28Z</time>
      </trkpt>
      <trkpt lat="4.618222" lon="-75.111427">
        <ele>2170.5322</ele>
        <time>2021-11-14T15:47:29Z</time>
      </trkpt>
      <trkpt lat="4.618294" lon="-75.111382">
        <ele>2170.4578</ele>
        <time>2021-11-14T15:47:30Z</time>
      </trkpt>
      <trkpt lat="4.618331" lon="-75.111351">
        <ele>2169.7773</ele>
        <time>2021-11-14T15:47:31Z</time>
      </trkpt>
      <trkpt lat="4.618434" lon="-75.11132">
        <ele>2168.6619</ele>
        <time>2021-11-14T15:47:32Z</time>
      </trkpt>
      <trkpt lat="4.618494" lon="-75.111336">
        <ele>2167.6538</ele>
        <time>2021-11-14T15:47:33Z</time>
      </trkpt>
      <trkpt lat="4.618545" lon="-75.111343">
        <ele>2167.4075</ele>
        <time>2021-11-14T15:47:34Z</time>
      </trkpt>
      <trkpt lat="4.618565" lon="-75.111343">
        <ele>2167.3042</ele>
        <time>2021-11-14T15:47:35Z</time>
      </trkpt>
      <trkpt lat="4.618615" lon="-75.111374">
        <ele>2167.3362</ele>
        <time>2021-11-14T15:47:36Z</time>
      </trkpt>
      <trkpt lat="4.61871" lon="-75.111359">
        <ele>2166.959</ele>
        <time>2021-11-14T15:47:37Z</time>
      </trkpt>
      <trkpt lat="4.618761" lon="-75.111366">
        <ele>2166.3352</ele>
        <time>2021-11-14T15:47:38Z</time>
      </trkpt>
      <trkpt lat="4.61881" lon="-75.111389">
        <ele>2165.9614</ele>
        <time>2021-11-14T15:47:39Z</time>
      </trkpt>
      <trkpt lat="4.61881" lon="-75.111389">
        <ele>2164.9128</ele>
        <time>2021-11-14T15:47:40Z</time>
      </trkpt>
      <trkpt lat="4.618878" lon="-75.111427">
        <ele>2163.3147</ele>
        <time>2021-11-14T15:47:41Z</time>
      </trkpt>
      <trkpt lat="4.618902" lon="-75.111435">
        <ele>2163.5688</ele>
        <time>2021-11-14T15:47:42Z</time>
      </trkpt>
      <trkpt lat="4.619047" lon="-75.111549">
        <ele>2163.105</ele>
        <time>2021-11-14T15:47:43Z</time>
      </trkpt>
      <trkpt lat="4.619101" lon="-75.11161">
        <ele>2162.6606</ele>
        <time>2021-11-14T15:47:45Z</time>
      </trkpt>
      <trkpt lat="4.619115" lon="-75.111626">
        <ele>2162.027</ele>
        <time>2021-11-14T15:47:46Z</time>
      </trkpt>
      <trkpt lat="4.619183" lon="-75.111656">
        <ele>2161.183</ele>
        <time>2021-11-14T15:47:47Z</time>
      </trkpt>
      <trkpt lat="4.619238" lon="-75.111694">
        <ele>2160.6895</ele>
        <time>2021-11-14T15:47:48Z</time>
      </trkpt>
      <trkpt lat="4.619296" lon="-75.11174">
        <ele>2160.0288</ele>
        <time>2021-11-14T15:47:49Z</time>
      </trkpt>
      <trkpt lat="4.619395" lon="-75.111771">
        <ele>2160.7634</ele>
        <time>2021-11-14T15:47:50Z</time>
      </trkpt>
      <trkpt lat="4.619475" lon="-75.111801">
        <ele>2160.9458</ele>
        <time>2021-11-14T15:47:51Z</time>
      </trkpt>
      <trkpt lat="4.619551" lon="-75.111816">
        <ele>2159.1748</ele>
        <time>2021-11-14T15:47:52Z</time>
      </trkpt>
      <trkpt lat="4.619628" lon="-75.11187">
        <ele>2159.034</ele>
        <time>2021-11-14T15:47:53Z</time>
      </trkpt>
      <trkpt lat="4.619705" lon="-75.111916">
        <ele>2158.8093</ele>
        <time>2021-11-14T15:47:54Z</time>
      </trkpt>
      <trkpt lat="4.619824" lon="-75.111954">
        <ele>2159.3083</ele>
        <time>2021-11-14T15:47:55Z</time>
      </trkpt>
      <trkpt lat="4.619862" lon="-75.111954">
        <ele>2159.2734</ele>
        <time>2021-11-14T15:47:56Z</time>
      </trkpt>
      <trkpt lat="4.619963" lon="-75.111984">
        <ele>2158.8987</ele>
        <time>2021-11-14T15:47:57Z</time>
      </trkpt>
      <trkpt lat="4.619985" lon="-75.112">
        <ele>2156.6296</ele>
        <time>2021-11-14T15:47:58Z</time>
      </trkpt>
      <trkpt lat="4.620076" lon="-75.112083">
        <ele>2156.821</ele>
        <time>2021-11-14T15:47:59Z</time>
      </trkpt>
      <trkpt lat="4.620096" lon="-75.112122">
        <ele>2155.6108</ele>
        <time>2021-11-14T15:48:00Z</time>
      </trkpt>
      <trkpt lat="4.6201" lon="-75.11219">
        <ele>2155.1943</ele>
        <time>2021-11-14T15:48:01Z</time>
      </trkpt>
      <trkpt lat="4.620156" lon="-75.112259">
        <ele>2154.062</ele>
        <time>2021-11-14T15:48:02Z</time>
      </trkpt>
      <trkpt lat="4.620198" lon="-75.112297">
        <ele>2153.4453</ele>
        <time>2021-11-14T15:48:03Z</time>
      </trkpt>
      <trkpt lat="4.620205" lon="-75.112366">
        <ele>2153.1484</ele>
        <time>2021-11-14T15:48:04Z</time>
      </trkpt>
      <trkpt lat="4.620262" lon="-75.112381">
        <ele>2151.7205</ele>
        <time>2021-11-14T15:48:05Z</time>
      </trkpt>
      <trkpt lat="4.620345" lon="-75.112419">
        <ele>2152.241</ele>
        <time>2021-11-14T15:48:06Z</time>
      </trkpt>
      <trkpt lat="4.620375" lon="-75.112473">
        <ele>2152.004</ele>
        <time>2021-11-14T15:48:07Z</time>
      </trkpt>
      <trkpt lat="4.620375" lon="-75.112473">
        <ele>2148.5474</ele>
        <time>2021-11-14T15:48:08Z</time>
      </trkpt>
      <trkpt lat="4.620391" lon="-75.112534">
        <ele>2146.738</ele>
        <time>2021-11-14T15:48:09Z</time>
      </trkpt>
      <trkpt lat="4.620386" lon="-75.112595">
        <ele>2146.3005</ele>
        <time>2021-11-14T15:48:10Z</time>
      </trkpt>
      <trkpt lat="4.620427" lon="-75.112686">
        <ele>2144.8477</ele>
        <time>2021-11-14T15:48:11Z</time>
      </trkpt>
      <trkpt lat="4.620502" lon="-75.112778">
        <ele>2144.6484</ele>
        <time>2021-11-14T15:48:12Z</time>
      </trkpt>
      <trkpt lat="4.620564" lon="-75.112846">
        <ele>2143.991</ele>
        <time>2021-11-14T15:48:13Z</time>
      </trkpt>
      <trkpt lat="4.620602" lon="-75.1129">
        <ele>2143.9102</ele>
        <time>2021-11-14T15:48:14Z</time>
      </trkpt>
      <trkpt lat="4.620624" lon="-75.112915">
        <ele>2144.0476</ele>
        <time>2021-11-14T15:48:15Z</time>
      </trkpt>
      <trkpt lat="4.620705" lon="-75.113014">
        <ele>2143.2617</ele>
        <time>2021-11-14T15:48:16Z</time>
      </trkpt>
      <trkpt lat="4.620755" lon="-75.113068">
        <ele>2144.0205</ele>
        <time>2021-11-14T15:48:17Z</time>
      </trkpt>
      <trkpt lat="4.620819" lon="-75.113098">
        <ele>2143.5762</ele>
        <time>2021-11-14T15:48:18Z</time>
      </trkpt>
      <trkpt lat="4.620905" lon="-75.113129">
        <ele>2143.163</ele>
        <time>2021-11-14T15:48:19Z</time>
      </trkpt>
      <trkpt lat="4.620942" lon="-75.113121">
        <ele>2142.575</ele>
        <time>2021-11-14T15:48:20Z</time>
      </trkpt>
      <trkpt lat="4.620981" lon="-75.113129">
        <ele>2144.5125</ele>
        <time>2021-11-14T15:48:21Z</time>
      </trkpt>
      <trkpt lat="4.621074" lon="-75.113098">
        <ele>2144.658</ele>
        <time>2021-11-14T15:48:22Z</time>
      </trkpt>
      <trkpt lat="4.621107" lon="-75.113052">
        <ele>2145.47</ele>
        <time>2021-11-14T15:48:23Z</time>
      </trkpt>
      <trkpt lat="4.62114" lon="-75.113014">
        <ele>2145.3696</ele>
        <time>2021-11-14T15:48:24Z</time>
      </trkpt>
      <trkpt lat="4.621147" lon="-75.112991">
        <ele>2144.842</ele>
        <time>2021-11-14T15:48:25Z</time>
      </trkpt>
      <trkpt lat="4.621158" lon="-75.112862">
        <ele>2144.6816</ele>
        <time>2021-11-14T15:48:26Z</time>
      </trkpt>
      <trkpt lat="4.621125" lon="-75.112823">
        <ele>2144.7515</ele>
        <time>2021-11-14T15:48:27Z</time>
      </trkpt>
      <trkpt lat="4.621117" lon="-75.112762">
        <ele>2143.6753</ele>
        <time>2021-11-14T15:48:28Z</time>
      </trkpt>
      <trkpt lat="4.621075" lon="-75.112625">
        <ele>2143.2988</ele>
        <time>2021-11-14T15:48:29Z</time>
      </trkpt>
      <trkpt lat="4.621104" lon="-75.112617">
        <ele>2143.8057</ele>
        <time>2021-11-14T15:48:30Z</time>
      </trkpt>
      <trkpt lat="4.621104" lon="-75.112564">
        <ele>2143.4448</ele>
        <time>2021-11-14T15:48:31Z</time>
      </trkpt>
      <trkpt lat="4.621109" lon="-75.112518">
        <ele>2142.782</ele>
        <time>2021-11-14T15:48:32Z</time>
      </trkpt>
      <trkpt lat="4.621119" lon="-75.112427">
        <ele>2142.104</ele>
        <time>2021-11-14T15:48:33Z</time>
      </trkpt>
      <trkpt lat="4.621119" lon="-75.112427">
        <ele>2141.6348</ele>
        <time>2021-11-14T15:48:34Z</time>
      </trkpt>
      <trkpt lat="4.621101" lon="-75.112389">
        <ele>2141.3718</ele>
        <time>2021-11-14T15:48:35Z</time>
      </trkpt>
      <trkpt lat="4.621067" lon="-75.112297">
        <ele>2140.358</ele>
        <time>2021-11-14T15:48:36Z</time>
      </trkpt>
      <trkpt lat="4.621053" lon="-75.112221">
        <ele>2139.6824</ele>
        <time>2021-11-14T15:48:37Z</time>
      </trkpt>
      <trkpt lat="4.621049" lon="-75.11216">
        <ele>2138.5837</ele>
        <time>2021-11-14T15:48:38Z</time>
      </trkpt>
      <trkpt lat="4.621036" lon="-75.112091">
        <ele>2137.9338</ele>
        <time>2021-11-14T15:48:39Z</time>
      </trkpt>
      <trkpt lat="4.621022" lon="-75.112038">
        <ele>2135.8777</ele>
        <time>2021-11-14T15:48:40Z</time>
      </trkpt>
      <trkpt lat="4.621016" lon="-75.111984">
        <ele>2135.0012</ele>
        <time>2021-11-14T15:48:41Z</time>
      </trkpt>
      <trkpt lat="4.621027" lon="-75.111916">
        <ele>2134.059</ele>
        <time>2021-11-14T15:48:42Z</time>
      </trkpt>
      <trkpt lat="4.621058" lon="-75.111832">
        <ele>2133.3179</ele>
        <time>2021-11-14T15:48:43Z</time>
      </trkpt>
      <trkpt lat="4.621088" lon="-75.111794">
        <ele>2132.7156</ele>
        <time>2021-11-14T15:48:44Z</time>
      </trkpt>
      <trkpt lat="4.62114" lon="-75.111702">
        <ele>2131.3691</ele>
        <time>2021-11-14T15:48:45Z</time>
      </trkpt>
      <trkpt lat="4.62118" lon="-75.111595">
        <ele>2130.4678</ele>
        <time>2021-11-14T15:48:47Z</time>
      </trkpt>
      <trkpt lat="4.621185" lon="-75.11158">
        <ele>2130.3574</ele>
        <time>2021-11-14T15:48:48Z</time>
      </trkpt>
      <trkpt lat="4.621252" lon="-75.111427">
        <ele>2129.362</ele>
        <time>2021-11-14T15:48:49Z</time>
      </trkpt>
      <trkpt lat="4.62124" lon="-75.111397">
        <ele>2129.6033</ele>
        <time>2021-11-14T15:48:50Z</time>
      </trkpt>
      <trkpt lat="4.621263" lon="-75.111313">
        <ele>2129.0776</ele>
        <time>2021-11-14T15:48:51Z</time>
      </trkpt>
      <trkpt lat="4.621234" lon="-75.111259">
        <ele>2127.9805</ele>
        <time>2021-11-14T15:48:52Z</time>
      </trkpt>
      <trkpt lat="4.621201" lon="-75.111183">
        <ele>2127.3335</ele>
        <time>2021-11-14T15:48:53Z</time>
      </trkpt>
      <trkpt lat="4.621188" lon="-75.111053">
        <ele>2124.9902</ele>
        <time>2021-11-14T15:48:54Z</time>
      </trkpt>
      <trkpt lat="4.621141" lon="-75.111008">
        <ele>2124.398</ele>
        <time>2021-11-14T15:48:55Z</time>
      </trkpt>
      <trkpt lat="4.621118" lon="-75.110939">
        <ele>2123.6753</ele>
        <time>2021-11-14T15:48:56Z</time>
      </trkpt>
      <trkpt lat="4.6211" lon="-75.110847">
        <ele>2123.4822</ele>
        <time>2021-11-14T15:48:57Z</time>
      </trkpt>
      <trkpt lat="4.621092" lon="-75.110771">
        <ele>2123.4172</ele>
        <time>2021-11-14T15:48:58Z</time>
      </trkpt>
      <trkpt lat="4.621099" lon="-75.110695">
        <ele>2123.1714</ele>
        <time>2021-11-14T15:48:59Z</time>
      </trkpt>
      <trkpt lat="4.621099" lon="-75.110695">
        <ele>2121.484</ele>
        <time>2021-11-14T15:49:00Z</time>
      </trkpt>
      <trkpt lat="4.621133" lon="-75.110619">
        <ele>2121.1685</ele>
        <time>2021-11-14T15:49:01Z</time>
      </trkpt>
      <trkpt lat="4.621122" lon="-75.11055">
        <ele>2121.9229</ele>
        <time>2021-11-14T15:49:02Z</time>
      </trkpt>
      <trkpt lat="4.621097" lon="-75.110443">
        <ele>2120.8865</ele>
        <time>2021-11-14T15:49:03Z</time>
      </trkpt>
      <trkpt lat="4.621063" lon="-75.110374">
        <ele>2120.22</ele>
        <time>2021-11-14T15:49:04Z</time>
      </trkpt>
      <trkpt lat="4.62106" lon="-75.110313">
        <ele>2120.2568</ele>
        <time>2021-11-14T15:49:05Z</time>
      </trkpt>
      <trkpt lat="4.62108" lon="-75.110245">
        <ele>2117.9214</ele>
        <time>2021-11-14T15:49:06Z</time>
      </trkpt>
      <trkpt lat="4.621126" lon="-75.110191">
        <ele>2116.0374</ele>
        <time>2021-11-14T15:49:07Z</time>
      </trkpt>
      <trkpt lat="4.621175" lon="-75.110138">
        <ele>2114.7744</ele>
        <time>2021-11-14T15:49:08Z</time>
      </trkpt>
      <trkpt lat="4.621258" lon="-75.110054">
        <ele>2114.0132</ele>
        <time>2021-11-14T15:49:09Z</time>
      </trkpt>
      <trkpt lat="4.621345" lon="-75.109962">
        <ele>2112.926</ele>
        <time>2021-11-14T15:49:10Z</time>
      </trkpt>
      <trkpt lat="4.621395" lon="-75.109894">
        <ele>2112.6172</ele>
        <time>2021-11-14T15:49:11Z</time>
      </trkpt>
      <trkpt lat="4.621418" lon="-75.109856">
        <ele>2112.2488</ele>
        <time>2021-11-14T15:49:12Z</time>
      </trkpt>
      <trkpt lat="4.621455" lon="-75.10981">
        <ele>2111.8154</ele>
        <time>2021-11-14T15:49:13Z</time>
      </trkpt>
      <trkpt lat="4.621504" lon="-75.109749">
        <ele>2111.2908</ele>
        <time>2021-11-14T15:49:14Z</time>
      </trkpt>
      <trkpt lat="4.621535" lon="-75.109711">
        <ele>2111.1538</ele>
        <time>2021-11-14T15:49:15Z</time>
      </trkpt>
      <trkpt lat="4.621583" lon="-75.109634">
        <ele>2109.863</ele>
        <time>2021-11-14T15:49:16Z</time>
      </trkpt>
      <trkpt lat="4.621637" lon="-75.109512">
        <ele>2110.0413</ele>
        <time>2021-11-14T15:49:17Z</time>
      </trkpt>
      <trkpt lat="4.621645" lon="-75.109459">
        <ele>2108.942</ele>
        <time>2021-11-14T15:49:18Z</time>
      </trkpt>
      <trkpt lat="4.621699" lon="-75.109322">
        <ele>2107.1167</ele>
        <time>2021-11-14T15:49:19Z</time>
      </trkpt>
      <trkpt lat="4.621725" lon="-75.109276">
        <ele>2107.0068</ele>
        <time>2021-11-14T15:49:20Z</time>
      </trkpt>
      <trkpt lat="4.621798" lon="-75.109215">
        <ele>2106.7046</ele>
        <time>2021-11-14T15:49:21Z</time>
      </trkpt>
      <trkpt lat="4.621828" lon="-75.109169">
        <ele>2106.7974</ele>
        <time>2021-11-14T15:49:22Z</time>
      </trkpt>
      <trkpt lat="4.621894" lon="-75.109131">
        <ele>2104.641</ele>
        <time>2021-11-14T15:49:23Z</time>
      </trkpt>
      <trkpt lat="4.622004" lon="-75.109062">
        <ele>2103.5076</ele>
        <time>2021-11-14T15:49:24Z</time>
      </trkpt>
      <trkpt lat="4.622067" lon="-75.109039">
        <ele>2106.2803</ele>
        <time>2021-11-14T15:49:25Z</time>
      </trkpt>
      <trkpt lat="4.622169" lon="-75.109009">
        <ele>2103.2366</ele>
        <time>2021-11-14T15:49:26Z</time>
      </trkpt>
      <trkpt lat="4.622207" lon="-75.109032">
        <ele>2102.4138</ele>
        <time>2021-11-14T15:49:27Z</time>
      </trkpt>
      <trkpt lat="4.622256" lon="-75.109047">
        <ele>2101.169</ele>
        <time>2021-11-14T15:49:28Z</time>
      </trkpt>
      <trkpt lat="4.622329" lon="-75.109047">
        <ele>2101.1687</ele>
        <time>2021-11-14T15:49:29Z</time>
      </trkpt>
      <trkpt lat="4.622329" lon="-75.109047">
        <ele>2098.9526</ele>
        <time>2021-11-14T15:49:30Z</time>
      </trkpt>
      <trkpt lat="4.622389" lon="-75.108978">
        <ele>2098.7214</ele>
        <time>2021-11-14T15:49:31Z</time>
      </trkpt>
      <trkpt lat="4.622369" lon="-75.108955">
        <ele>2096.8083</ele>
        <time>2021-11-14T15:49:32Z</time>
      </trkpt>
      <trkpt lat="4.62238" lon="-75.108894">
        <ele>2095.4304</ele>
        <time>2021-11-14T15:49:33Z</time>
      </trkpt>
      <trkpt lat="4.622344" lon="-75.108841">
        <ele>2094.9912</ele>
        <time>2021-11-14T15:49:34Z</time>
      </trkpt>
      <trkpt lat="4.622291" lon="-75.10881">
        <ele>2093.6323</ele>
        <time>2021-11-14T15:49:35Z</time>
      </trkpt>
      <trkpt lat="4.622218" lon="-75.10881">
        <ele>2092.9355</ele>
        <time>2021-11-14T15:49:36Z</time>
      </trkpt>
      <trkpt lat="4.622156" lon="-75.108833">
        <ele>2092.4822</ele>
        <time>2021-11-14T15:49:37Z</time>
      </trkpt>
      <trkpt lat="4.622084" lon="-75.108856">
        <ele>2090.1873</ele>
        <time>2021-11-14T15:49:38Z</time>
      </trkpt>
      <trkpt lat="4.621985" lon="-75.108887">
        <ele>2089.3826</ele>
        <time>2021-11-14T15:49:39Z</time>
      </trkpt>
      <trkpt lat="4.621927" lon="-75.108902">
        <ele>2088.2234</ele>
        <time>2021-11-14T15:49:40Z</time>
      </trkpt>
      <trkpt lat="4.621875" lon="-75.10891">
        <ele>2086.2844</ele>
        <time>2021-11-14T15:49:41Z</time>
      </trkpt>
      <trkpt lat="4.621708" lon="-75.108917">
        <ele>2086.0771</ele>
        <time>2021-11-14T15:49:42Z</time>
      </trkpt>
      <trkpt lat="4.621671" lon="-75.108925">
        <ele>2084.641</ele>
        <time>2021-11-14T15:49:43Z</time>
      </trkpt>
      <trkpt lat="4.621608" lon="-75.108894">
        <ele>2084.5757</ele>
        <time>2021-11-14T15:49:44Z</time>
      </trkpt>
      <trkpt lat="4.621514" lon="-75.108887">
        <ele>2084.1858</ele>
        <time>2021-11-14T15:49:45Z</time>
      </trkpt>
      <trkpt lat="4.62135" lon="-75.108963">
        <ele>2083.8806</ele>
        <time>2021-11-14T15:49:46Z</time>
      </trkpt>
      <trkpt lat="4.621285" lon="-75.109032">
        <ele>2083.5498</ele>
        <time>2021-11-14T15:49:47Z</time>
      </trkpt>
      <trkpt lat="4.621251" lon="-75.109077">
        <ele>2083.189</ele>
        <time>2021-11-14T15:49:48Z</time>
      </trkpt>
      <trkpt lat="4.621199" lon="-75.109146">
        <ele>2082.3901</ele>
        <time>2021-11-14T15:49:49Z</time>
      </trkpt>
      <trkpt lat="4.621144" lon="-75.109222">
        <ele>2081.6096</ele>
        <time>2021-11-14T15:49:50Z</time>
      </trkpt>
      <trkpt lat="4.62113" lon="-75.109238">
        <ele>2079.9707</ele>
        <time>2021-11-14T15:49:52Z</time>
      </trkpt>
      <trkpt lat="4.621083" lon="-75.109299">
        <ele>2079.5188</ele>
        <time>2021-11-14T15:49:53Z</time>
      </trkpt>
      <trkpt lat="4.621031" lon="-75.109352">
        <ele>2079.517</ele>
        <time>2021-11-14T15:49:54Z</time>
      </trkpt>
      <trkpt lat="4.620928" lon="-75.109482">
        <ele>2078.0874</ele>
        <time>2021-11-14T15:49:55Z</time>
      </trkpt>
      <trkpt lat="4.620931" lon="-75.109459">
        <ele>2077.8533</ele>
        <time>2021-11-14T15:49:56Z</time>
      </trkpt>
      <trkpt lat="4.620874" lon="-75.109497">
        <ele>2076.2983</ele>
        <time>2021-11-14T15:49:57Z</time>
      </trkpt>
      <trkpt lat="4.620827" lon="-75.109459">
        <ele>2075.4092</ele>
        <time>2021-11-14T15:49:58Z</time>
      </trkpt>
      <trkpt lat="4.620827" lon="-75.109459">
        <ele>2074.7031</ele>
        <time>2021-11-14T15:49:59Z</time>
      </trkpt>
      <trkpt lat="4.62078" lon="-75.109444">
        <ele>2074.1794</ele>
        <time>2021-11-14T15:50:00Z</time>
      </trkpt>
      <trkpt lat="4.620754" lon="-75.109367">
        <ele>2072.5222</ele>
        <time>2021-11-14T15:50:01Z</time>
      </trkpt>
      <trkpt lat="4.620746" lon="-75.109314">
        <ele>2071.8674</ele>
        <time>2021-11-14T15:50:02Z</time>
      </trkpt>
      <trkpt lat="4.620763" lon="-75.109222">
        <ele>2071.849</ele>
        <time>2021-11-14T15:50:03Z</time>
      </trkpt>
      <trkpt lat="4.620796" lon="-75.109131">
        <ele>2070.7131</ele>
        <time>2021-11-14T15:50:04Z</time>
      </trkpt>
      <trkpt lat="4.620817" lon="-75.109085">
        <ele>2069.5596</ele>
        <time>2021-11-14T15:50:05Z</time>
      </trkpt>
      <trkpt lat="4.620871" lon="-75.109024">
        <ele>2068.4805</ele>
        <time>2021-11-14T15:50:06Z</time>
      </trkpt>
      <trkpt lat="4.620919" lon="-75.108978">
        <ele>2067.1438</ele>
        <time>2021-11-14T15:50:07Z</time>
      </trkpt>
      <trkpt lat="4.620977" lon="-75.108902">
        <ele>2067.0215</ele>
        <time>2021-11-14T15:50:08Z</time>
      </trkpt>
      <trkpt lat="4.621022" lon="-75.108788">
        <ele>2066.0718</ele>
        <time>2021-11-14T15:50:09Z</time>
      </trkpt>
      <trkpt lat="4.621027" lon="-75.108742">
        <ele>2065.705</ele>
        <time>2021-11-14T15:50:10Z</time>
      </trkpt>
      <trkpt lat="4.621098" lon="-75.108681">
        <ele>2063.256</ele>
        <time>2021-11-14T15:50:11Z</time>
      </trkpt>
      <trkpt lat="4.621168" lon="-75.108612">
        <ele>2062.0808</ele>
        <time>2021-11-14T15:50:12Z</time>
      </trkpt>
      <trkpt lat="4.621204" lon="-75.108574">
        <ele>2060.56</ele>
        <time>2021-11-14T15:50:13Z</time>
      </trkpt>
      <trkpt lat="4.62128" lon="-75.108482">
        <ele>2059.4146</ele>
        <time>2021-11-14T15:50:14Z</time>
      </trkpt>
      <trkpt lat="4.621328" lon="-75.108452">
        <ele>2059.1038</ele>
        <time>2021-11-14T15:50:15Z</time>
      </trkpt>
      <trkpt lat="4.621374" lon="-75.108406">
        <ele>2058.5046</ele>
        <time>2021-11-14T15:50:16Z</time>
      </trkpt>
      <trkpt lat="4.621408" lon="-75.108376">
        <ele>2058.0708</ele>
        <time>2021-11-14T15:50:17Z</time>
      </trkpt>
      <trkpt lat="4.621458" lon="-75.108307">
        <ele>2056.5867</ele>
        <time>2021-11-14T15:50:18Z</time>
      </trkpt>
      <trkpt lat="4.621525" lon="-75.108215">
        <ele>2055.1243</ele>
        <time>2021-11-14T15:50:19Z</time>
      </trkpt>
      <trkpt lat="4.62155" lon="-75.10817">
        <ele>2053.2563</ele>
        <time>2021-11-14T15:50:20Z</time>
      </trkpt>
      <trkpt lat="4.621623" lon="-75.108086">
        <ele>2052.205</ele>
        <time>2021-11-14T15:50:21Z</time>
      </trkpt>
      <trkpt lat="4.621657" lon="-75.108009">
        <ele>2051.11</ele>
        <time>2021-11-14T15:50:22Z</time>
      </trkpt>
      <trkpt lat="4.621657" lon="-75.108009">
        <ele>2050.581</ele>
        <time>2021-11-14T15:50:23Z</time>
      </trkpt>
      <trkpt lat="4.621687" lon="-75.107872">
        <ele>2049.6692</ele>
        <time>2021-11-14T15:50:24Z</time>
      </trkpt>
      <trkpt lat="4.621706" lon="-75.107773">
        <ele>2049.2197</ele>
        <time>2021-11-14T15:50:25Z</time>
      </trkpt>
      <trkpt lat="4.621719" lon="-75.107704">
        <ele>2047.7598</ele>
        <time>2021-11-14T15:50:26Z</time>
      </trkpt>
      <trkpt lat="4.621753" lon="-75.107628">
        <ele>2047.6353</ele>
        <time>2021-11-14T15:50:27Z</time>
      </trkpt>
      <trkpt lat="4.621785" lon="-75.107567">
        <ele>2046.2642</ele>
        <time>2021-11-14T15:50:28Z</time>
      </trkpt>
      <trkpt lat="4.621823" lon="-75.107498">
        <ele>2045.1516</ele>
        <time>2021-11-14T15:50:29Z</time>
      </trkpt>
      <trkpt lat="4.621885" lon="-75.107399">
        <ele>2044.2109</ele>
        <time>2021-11-14T15:50:30Z</time>
      </trkpt>
      <trkpt lat="4.621942" lon="-75.107346">
        <ele>2042.9243</ele>
        <time>2021-11-14T15:50:31Z</time>
      </trkpt>
      <trkpt lat="4.622017" lon="-75.107307">
        <ele>2041.499</ele>
        <time>2021-11-14T15:50:32Z</time>
      </trkpt>
      <trkpt lat="4.622113" lon="-75.107277">
        <ele>2040.7661</ele>
        <time>2021-11-14T15:50:33Z</time>
      </trkpt>
      <trkpt lat="4.622209" lon="-75.107231">
        <ele>2041.0425</ele>
        <time>2021-11-14T15:50:34Z</time>
      </trkpt>
      <trkpt lat="4.622269" lon="-75.107201">
        <ele>2041.3784</ele>
        <time>2021-11-14T15:50:35Z</time>
      </trkpt>
      <trkpt lat="4.622332" lon="-75.107155">
        <ele>2040.9651</ele>
        <time>2021-11-14T15:50:36Z</time>
      </trkpt>
      <trkpt lat="4.622394" lon="-75.107132">
        <ele>2039.7783</ele>
        <time>2021-11-14T15:50:37Z</time>
      </trkpt>
      <trkpt lat="4.622485" lon="-75.107018">
        <ele>2039.1648</ele>
        <time>2021-11-14T15:50:38Z</time>
      </trkpt>
      <trkpt lat="4.622488" lon="-75.106934">
        <ele>2038.4062</ele>
        <time>2021-11-14T15:50:39Z</time>
      </trkpt>
      <trkpt lat="4.622535" lon="-75.106827">
        <ele>2038.0723</ele>
        <time>2021-11-14T15:50:41Z</time>
      </trkpt>
      <trkpt lat="4.622559" lon="-75.106712">
        <ele>2037.3833</ele>
        <time>2021-11-14T15:50:42Z</time>
      </trkpt>
      <trkpt lat="4.62256" lon="-75.106651">
        <ele>2035.4834</ele>
        <time>2021-11-14T15:50:43Z</time>
      </trkpt>
      <trkpt lat="4.622585" lon="-75.10659">
        <ele>2033.9626</ele>
        <time>2021-11-14T15:50:44Z</time>
      </trkpt>
      <trkpt lat="4.622653" lon="-75.106483">
        <ele>2033.1104</ele>
        <time>2021-11-14T15:50:45Z</time>
      </trkpt>
      <trkpt lat="4.622713" lon="-75.106461">
        <ele>2032.2544</ele>
        <time>2021-11-14T15:50:46Z</time>
      </trkpt>
      <trkpt lat="4.622762" lon="-75.106438">
        <ele>2032.992</ele>
        <time>2021-11-14T15:50:47Z</time>
      </trkpt>
      <trkpt lat="4.622829" lon="-75.106415">
        <ele>2034.294</ele>
        <time>2021-11-14T15:50:48Z</time>
      </trkpt>
      <trkpt lat="4.622821" lon="-75.1064">
        <ele>2030.9902</ele>
        <time>2021-11-14T15:50:49Z</time>
      </trkpt>
      <trkpt lat="4.622938" lon="-75.106377">
        <ele>2029.2031</ele>
        <time>2021-11-14T15:50:50Z</time>
      </trkpt>
      <trkpt lat="4.622979" lon="-75.106323">
        <ele>2028.4092</ele>
        <time>2021-11-14T15:50:51Z</time>
      </trkpt>
      <trkpt lat="4.623087" lon="-75.106224">
        <ele>2028.0879</ele>
        <time>2021-11-14T15:50:52Z</time>
      </trkpt>
      <trkpt lat="4.623077" lon="-75.10614">
        <ele>2027.7275</ele>
        <time>2021-11-14T15:50:53Z</time>
      </trkpt>
      <trkpt lat="4.623122" lon="-75.106041">
        <ele>2025.6416</ele>
        <time>2021-11-14T15:50:54Z</time>
      </trkpt>
      <trkpt lat="4.623122" lon="-75.106041">
        <ele>2023.0747</ele>
        <time>2021-11-14T15:50:55Z</time>
      </trkpt>
      <trkpt lat="4.623161" lon="-75.106041">
        <ele>2021.1499</ele>
        <time>2021-11-14T15:50:56Z</time>
      </trkpt>
      <trkpt lat="4.623224" lon="-75.106026">
        <ele>2020.9585</ele>
        <time>2021-11-14T15:50:57Z</time>
      </trkpt>
      <trkpt lat="4.623309" lon="-75.105949">
        <ele>2021.3796</ele>
        <time>2021-11-14T15:50:58Z</time>
      </trkpt>
      <trkpt lat="4.623413" lon="-75.105827">
        <ele>2021.0525</ele>
        <time>2021-11-14T15:50:59Z</time>
      </trkpt>
      <trkpt lat="4.623516" lon="-75.10569">
        <ele>2020.6868</ele>
        <time>2021-11-14T15:51:00Z</time>
      </trkpt>
      <trkpt lat="4.623598" lon="-75.105629">
        <ele>2019.813</ele>
        <time>2021-11-14T15:51:01Z</time>
      </trkpt>
      <trkpt lat="4.623651" lon="-75.105568">
        <ele>2018.9849</ele>
        <time>2021-11-14T15:51:02Z</time>
      </trkpt>
      <trkpt lat="4.623695" lon="-75.105507">
        <ele>2018.3726</ele>
        <time>2021-11-14T15:51:03Z</time>
      </trkpt>
      <trkpt lat="4.623724" lon="-75.105438">
        <ele>2018.1875</ele>
        <time>2021-11-14T15:51:04Z</time>
      </trkpt>
      <trkpt lat="4.623754" lon="-75.105309">
        <ele>2016.9937</ele>
        <time>2021-11-14T15:51:05Z</time>
      </trkpt>
      <trkpt lat="4.623776" lon="-75.105263">
        <ele>2017.655</ele>
        <time>2021-11-14T15:51:06Z</time>
      </trkpt>
      <trkpt lat="4.623771" lon="-75.105125">
        <ele>2016.8433</ele>
        <time>2021-11-14T15:51:07Z</time>
      </trkpt>
      <trkpt lat="4.623764" lon="-75.105026">
        <ele>2015.8125</ele>
        <time>2021-11-14T15:51:08Z</time>
      </trkpt>
      <trkpt lat="4.623727" lon="-75.104927">
        <ele>2014.9048</ele>
        <time>2021-11-14T15:51:09Z</time>
      </trkpt>
      <trkpt lat="4.623716" lon="-75.104881">
        <ele>2014.7075</ele>
        <time>2021-11-14T15:51:10Z</time>
      </trkpt>
      <trkpt lat="4.623704" lon="-75.104828">
        <ele>2013.8711</ele>
        <time>2021-11-14T15:51:11Z</time>
      </trkpt>
      <trkpt lat="4.623697" lon="-75.104759">
        <ele>2012.0339</ele>
        <time>2021-11-14T15:51:12Z</time>
      </trkpt>
      <trkpt lat="4.623684" lon="-75.104675">
        <ele>2010.981</ele>
        <time>2021-11-14T15:51:13Z</time>
      </trkpt>
      <trkpt lat="4.623668" lon="-75.104576">
        <ele>2010.106</ele>
        <time>2021-11-14T15:51:14Z</time>
      </trkpt>
      <trkpt lat="4.62361" lon="-75.104485">
        <ele>2008.6172</ele>
        <time>2021-11-14T15:51:15Z</time>
      </trkpt>
      <trkpt lat="4.62357" lon="-75.104439">
        <ele>2007.584</ele>
        <time>2021-11-14T15:51:16Z</time>
      </trkpt>
      <trkpt lat="4.6235" lon="-75.104393">
        <ele>2006.9395</ele>
        <time>2021-11-14T15:51:17Z</time>
      </trkpt>
      <trkpt lat="4.623461" lon="-75.104347">
        <ele>2006.4453</ele>
        <time>2021-11-14T15:51:18Z</time>
      </trkpt>
      <trkpt lat="4.623443" lon="-75.104301">
        <ele>2005.8955</ele>
        <time>2021-11-14T15:51:19Z</time>
      </trkpt>
      <trkpt lat="4.623391" lon="-75.104218">
        <ele>2005.6831</ele>
        <time>2021-11-14T15:51:20Z</time>
      </trkpt>
      <trkpt lat="4.623384" lon="-75.104179">
        <ele>2004.2275</ele>
        <time>2021-11-14T15:51:21Z</time>
      </trkpt>
      <trkpt lat="4.623384" lon="-75.104179">
        <ele>2003.188</ele>
        <time>2021-11-14T15:51:22Z</time>
      </trkpt>
      <trkpt lat="4.623349" lon="-75.104095">
        <ele>2002.8003</ele>
        <time>2021-11-14T15:51:23Z</time>
      </trkpt>
      <trkpt lat="4.623317" lon="-75.104012">
        <ele>2001.0491</ele>
        <time>2021-11-14T15:51:24Z</time>
      </trkpt>
      <trkpt lat="4.623312" lon="-75.103943">
        <ele>2000.0371</ele>
        <time>2021-11-14T15:51:25Z</time>
      </trkpt>
      <trkpt lat="4.623304" lon="-75.103867">
        <ele>1999.126</ele>
        <time>2021-11-14T15:51:26Z</time>
      </trkpt>
      <trkpt lat="4.623271" lon="-75.103806">
        <ele>1997.5273</ele>
        <time>2021-11-14T15:51:27Z</time>
      </trkpt>
      <trkpt lat="4.623233" lon="-75.103706">
        <ele>1995.9739</ele>
        <time>2021-11-14T15:51:28Z</time>
      </trkpt>
      <trkpt lat="4.623183" lon="-75.103615">
        <ele>1995.083</ele>
        <time>2021-11-14T15:51:29Z</time>
      </trkpt>
      <trkpt lat="4.623138" lon="-75.103569">
        <ele>1994.6086</ele>
        <time>2021-11-14T15:51:30Z</time>
      </trkpt>
      <trkpt lat="4.623098" lon="-75.103531">
        <ele>1994.5942</ele>
        <time>2021-11-14T15:51:31Z</time>
      </trkpt>
      <trkpt lat="4.623021" lon="-75.103439">
        <ele>1994.3848</ele>
        <time>2021-11-14T15:51:32Z</time>
      </trkpt>
      <trkpt lat="4.62295" lon="-75.103424">
        <ele>1993.935</ele>
        <time>2021-11-14T15:51:33Z</time>
      </trkpt>
      <trkpt lat="4.622864" lon="-75.103401">
        <ele>1993.1035</ele>
        <time>2021-11-14T15:51:34Z</time>
      </trkpt>
      <trkpt lat="4.622825" lon="-75.103371">
        <ele>1991.9343</ele>
        <time>2021-11-14T15:51:35Z</time>
      </trkpt>
      <trkpt lat="4.622825" lon="-75.10331">
        <ele>1990.7241</ele>
        <time>2021-11-14T15:51:36Z</time>
      </trkpt>
      <trkpt lat="4.622822" lon="-75.10318">
        <ele>1990.4863</ele>
        <time>2021-11-14T15:51:37Z</time>
      </trkpt>
      <trkpt lat="4.62279" lon="-75.103111">
        <ele>1990.3774</ele>
        <time>2021-11-14T15:51:38Z</time>
      </trkpt>
      <trkpt lat="4.622794" lon="-75.10302">
        <ele>1990.3464</ele>
        <time>2021-11-14T15:51:39Z</time>
      </trkpt>
      <trkpt lat="4.622796" lon="-75.102989">
        <ele>1989.8938</ele>
        <time>2021-11-14T15:51:40Z</time>
      </trkpt>
      <trkpt lat="4.622797" lon="-75.102928">
        <ele>1988.5454</ele>
        <time>2021-11-14T15:51:41Z</time>
      </trkpt>
      <trkpt lat="4.622781" lon="-75.102791">
        <ele>1987.564</ele>
        <time>2021-11-14T15:51:42Z</time>
      </trkpt>
      <trkpt lat="4.622785" lon="-75.102722">
        <ele>1986.6677</ele>
        <time>2021-11-14T15:51:43Z</time>
      </trkpt>
      <trkpt lat="4.622793" lon="-75.102684">
        <ele>1986.2161</ele>
        <time>2021-11-14T15:51:44Z</time>
      </trkpt>
      <trkpt lat="4.622796" lon="-75.102592">
        <ele>1985.1084</ele>
        <time>2021-11-14T15:51:45Z</time>
      </trkpt>
      <trkpt lat="4.622819" lon="-75.102539">
        <ele>1984.5496</ele>
        <time>2021-11-14T15:51:47Z</time>
      </trkpt>
      <trkpt lat="4.622834" lon="-75.102463">
        <ele>1984.0234</ele>
        <time>2021-11-14T15:51:48Z</time>
      </trkpt>
      <trkpt lat="4.622849" lon="-75.102356">
        <ele>1983.3179</ele>
        <time>2021-11-14T15:51:49Z</time>
      </trkpt>
      <trkpt lat="4.622869" lon="-75.102257">
        <ele>1982.2065</ele>
        <time>2021-11-14T15:51:50Z</time>
      </trkpt>
      <trkpt lat="4.622881" lon="-75.102219">
        <ele>1981.6929</ele>
        <time>2021-11-14T15:51:51Z</time>
      </trkpt>
      <trkpt lat="4.622901" lon="-75.102119">
        <ele>1980.2463</ele>
        <time>2021-11-14T15:51:52Z</time>
      </trkpt>
      <trkpt lat="4.622901" lon="-75.102081">
        <ele>1979.2583</ele>
        <time>2021-11-14T15:51:53Z</time>
      </trkpt>
      <trkpt lat="4.622919" lon="-75.10199">
        <ele>1979.1177</ele>
        <time>2021-11-14T15:51:54Z</time>
      </trkpt>
      <trkpt lat="4.622932" lon="-75.101906">
        <ele>1979.0244</ele>
        <time>2021-11-14T15:51:55Z</time>
      </trkpt>
      <trkpt lat="4.622942" lon="-75.101822">
        <ele>1978.061</ele>
        <time>2021-11-14T15:51:56Z</time>
      </trkpt>
      <trkpt lat="4.622966" lon="-75.101746">
        <ele>1976.9502</ele>
        <time>2021-11-14T15:51:57Z</time>
      </trkpt>
      <trkpt lat="4.623006" lon="-75.101639">
        <ele>1976.2117</ele>
        <time>2021-11-14T15:51:58Z</time>
      </trkpt>
      <trkpt lat="4.622993" lon="-75.101578">
        <ele>1975.3589</ele>
        <time>2021-11-14T15:51:59Z</time>
      </trkpt>
      <trkpt lat="4.622997" lon="-75.101501">
        <ele>1974.2041</ele>
        <time>2021-11-14T15:52:00Z</time>
      </trkpt>
      <trkpt lat="4.622996" lon="-75.10141">
        <ele>1973.4629</ele>
        <time>2021-11-14T15:52:01Z</time>
      </trkpt>
      <trkpt lat="4.623" lon="-75.101357">
        <ele>1972.8623</ele>
        <time>2021-11-14T15:52:02Z</time>
      </trkpt>
      <trkpt lat="4.623009" lon="-75.101288">
        <ele>1972.2844</ele>
        <time>2021-11-14T15:52:03Z</time>
      </trkpt>
      <trkpt lat="4.623039" lon="-75.101227">
        <ele>1970.492</ele>
        <time>2021-11-14T15:52:04Z</time>
      </trkpt>
      <trkpt lat="4.623102" lon="-75.101173">
        <ele>1968.8657</ele>
        <time>2021-11-14T15:52:05Z</time>
      </trkpt>
      <trkpt lat="4.623113" lon="-75.101158">
        <ele>1968.2705</ele>
        <time>2021-11-14T15:52:06Z</time>
      </trkpt>
      <trkpt lat="4.623191" lon="-75.101105">
        <ele>1966.8975</ele>
        <time>2021-11-14T15:52:07Z</time>
      </trkpt>
      <trkpt lat="4.623213" lon="-75.101105">
        <ele>1966.9436</ele>
        <time>2021-11-14T15:52:08Z</time>
      </trkpt>
      <trkpt lat="4.623281" lon="-75.101074">
        <ele>1965.9138</ele>
        <time>2021-11-14T15:52:09Z</time>
      </trkpt>
      <trkpt lat="4.623408" lon="-75.101143">
        <ele>1966.1211</ele>
        <time>2021-11-14T15:52:10Z</time>
      </trkpt>
      <trkpt lat="4.623488" lon="-75.100983">
        <ele>1967.7295</ele>
        <time>2021-11-14T15:52:11Z</time>
      </trkpt>
      <trkpt lat="4.623535" lon="-75.100975">
        <ele>1966.7483</ele>
        <time>2021-11-14T15:52:12Z</time>
      </trkpt>
      <trkpt lat="4.623535" lon="-75.100975">
        <ele>1966.1748</ele>
        <time>2021-11-14T15:52:13Z</time>
      </trkpt>
      <trkpt lat="4.623535" lon="-75.100975">
        <ele>1963.9722</ele>
        <time>2021-11-14T15:52:14Z</time>
      </trkpt>
      <trkpt lat="4.623538" lon="-75.100975">
        <ele>1963.4004</ele>
        <time>2021-11-14T15:52:15Z</time>
      </trkpt>
      <trkpt lat="4.623538" lon="-75.100975">
        <ele>1963.3157</ele>
        <time>2021-11-14T15:52:16Z</time>
      </trkpt>
      <trkpt lat="4.623538" lon="-75.100975">
        <ele>1962.6128</ele>
        <time>2021-11-14T15:52:17Z</time>
      </trkpt>
      <trkpt lat="4.623538" lon="-75.100975">
        <ele>1962.1687</ele>
        <time>2021-11-14T15:52:18Z</time>
      </trkpt>
      <trkpt lat="4.623538" lon="-75.100975">
        <ele>1961.7715</ele>
        <time>2021-11-14T15:52:19Z</time>
      </trkpt>
      <trkpt lat="4.623538" lon="-75.100975">
        <ele>1961.3567</ele>
        <time>2021-11-14T15:52:20Z</time>
      </trkpt>
      <trkpt lat="4.623538" lon="-75.100975">
        <ele>1961.2368</ele>
        <time>2021-11-14T15:52:21Z</time>
      </trkpt>
      <trkpt lat="4.623538" lon="-75.100975">
        <ele>1961.3789</ele>
        <time>2021-11-14T15:52:22Z</time>
      </trkpt>
      <trkpt lat="4.623538" lon="-75.100975">
        <ele>1961.7031</ele>
        <time>2021-11-14T15:52:23Z</time>
      </trkpt>
      <trkpt lat="4.623538" lon="-75.100975">
        <ele>1962.0767</ele>
        <time>2021-11-14T15:52:24Z</time>
      </trkpt>
      <trkpt lat="4.623538" lon="-75.100975">
        <ele>1962.2734</ele>
        <time>2021-11-14T15:52:25Z</time>
      </trkpt>
      <trkpt lat="4.623538" lon="-75.100975">
        <ele>1962.3774</ele>
        <time>2021-11-14T15:52:26Z</time>
      </trkpt>
      <trkpt lat="4.623538" lon="-75.100975">
        <ele>1962.3774</ele>
        <time>2021-11-14T15:52:27Z</time>
      </trkpt>
      <trkpt lat="4.623538" lon="-75.100975">
        <ele>1962.3662</ele>
        <time>2021-11-14T15:52:28Z</time>
      </trkpt>
      <trkpt lat="4.623538" lon="-75.100975">
        <ele>1961.6841</ele>
        <time>2021-11-14T15:52:29Z</time>
      </trkpt>
      <trkpt lat="4.623538" lon="-75.100975">
        <ele>1961.5874</ele>
        <time>2021-11-14T15:52:30Z</time>
      </trkpt>
      <trkpt lat="4.623538" lon="-75.100975">
        <ele>1960.7405</ele>
        <time>2021-11-14T15:52:31Z</time>
      </trkpt>
      <trkpt lat="4.623538" lon="-75.100975">
        <ele>1960.4404</ele>
        <time>2021-11-14T15:52:32Z</time>
      </trkpt>
      <trkpt lat="4.623538" lon="-75.100975">
        <ele>1960.363</ele>
        <time>2021-11-14T15:52:33Z</time>
      </trkpt>
      <trkpt lat="4.623538" lon="-75.100975">
        <ele>1960.7925</ele>
        <time>2021-11-14T15:52:34Z</time>
      </trkpt>
      <trkpt lat="4.623538" lon="-75.100975">
        <ele>1960.8472</ele>
        <time>2021-11-14T15:52:35Z</time>
      </trkpt>
      <trkpt lat="4.623538" lon="-75.100975">
        <ele>1960.249</ele>
        <time>2021-11-14T15:52:36Z</time>
      </trkpt>
      <trkpt lat="4.623538" lon="-75.100975">
        <ele>1960.0249</ele>
        <time>2021-11-14T15:52:37Z</time>
      </trkpt>
      <trkpt lat="4.623591" lon="-75.10096">
        <ele>1960.0225</ele>
        <time>2021-11-14T15:52:38Z</time>
      </trkpt>
      <trkpt lat="4.623639" lon="-75.100945">
        <ele>1959.5688</ele>
        <time>2021-11-14T15:52:39Z</time>
      </trkpt>
      <trkpt lat="4.623653" lon="-75.100929">
        <ele>1958.8838</ele>
        <time>2021-11-14T15:52:41Z</time>
      </trkpt>
      <trkpt lat="4.623836" lon="-75.100777">
        <ele>1957.2329</ele>
        <time>2021-11-14T15:52:42Z</time>
      </trkpt>
      <trkpt lat="4.623896" lon="-75.100723">
        <ele>1955.8076</ele>
        <time>2021-11-14T15:52:43Z</time>
      </trkpt>
      <trkpt lat="4.623953" lon="-75.10067">
        <ele>1954.5596</ele>
        <time>2021-11-14T15:52:44Z</time>
      </trkpt>
      <trkpt lat="4.624034" lon="-75.100609">
        <ele>1953.7759</ele>
        <time>2021-11-14T15:52:45Z</time>
      </trkpt>
      <trkpt lat="4.624137" lon="-75.100548">
        <ele>1953.136</ele>
        <time>2021-11-14T15:52:46Z</time>
      </trkpt>
      <trkpt lat="4.624229" lon="-75.100494">
        <ele>1952.4111</ele>
        <time>2021-11-14T15:52:47Z</time>
      </trkpt>
      <trkpt lat="4.624277" lon="-75.100464">
        <ele>1952.9023</ele>
        <time>2021-11-14T15:52:48Z</time>
      </trkpt>
      <trkpt lat="4.624356" lon="-75.10041">
        <ele>1951.7305</ele>
        <time>2021-11-14T15:52:49Z</time>
      </trkpt>
      <trkpt lat="4.624403" lon="-75.100365">
        <ele>1950.2678</ele>
        <time>2021-11-14T15:52:50Z</time>
      </trkpt>
      <trkpt lat="4.624454" lon="-75.100311">
        <ele>1949.624</ele>
        <time>2021-11-14T15:52:51Z</time>
      </trkpt>
      <trkpt lat="4.624511" lon="-75.100258">
        <ele>1949.021</ele>
        <time>2021-11-14T15:52:52Z</time>
      </trkpt>
      <trkpt lat="4.624587" lon="-75.100174">
        <ele>1948.3506</ele>
        <time>2021-11-14T15:52:53Z</time>
      </trkpt>
      <trkpt lat="4.624644" lon="-75.100121">
        <ele>1947.4712</ele>
        <time>2021-11-14T15:52:54Z</time>
      </trkpt>
      <trkpt lat="4.624704" lon="-75.10006">
        <ele>1946.6511</ele>
        <time>2021-11-14T15:52:55Z</time>
      </trkpt>
      <trkpt lat="4.624756" lon="-75.099998">
        <ele>1945.9946</ele>
        <time>2021-11-14T15:52:56Z</time>
      </trkpt>
      <trkpt lat="4.624804" lon="-75.099953">
        <ele>1945.2583</ele>
        <time>2021-11-14T15:52:57Z</time>
      </trkpt>
      <trkpt lat="4.624853" lon="-75.099899">
        <ele>1944.9546</ele>
        <time>2021-11-14T15:52:58Z</time>
      </trkpt>
      <trkpt lat="4.624897" lon="-75.099861">
        <ele>1944.7065</ele>
        <time>2021-11-14T15:52:59Z</time>
      </trkpt>
      <trkpt lat="4.624933" lon="-75.099823">
        <ele>1944.5396</ele>
        <time>2021-11-14T15:53:00Z</time>
      </trkpt>
      <trkpt lat="4.624968" lon="-75.099785">
        <ele>1944.9272</ele>
        <time>2021-11-14T15:53:01Z</time>
      </trkpt>
      <trkpt lat="4.624983" lon="-75.09977">
        <ele>1944.7778</ele>
        <time>2021-11-14T15:53:02Z</time>
      </trkpt>
      <trkpt lat="4.624999" lon="-75.099754">
        <ele>1944.6265</ele>
        <time>2021-11-14T15:53:03Z</time>
      </trkpt>
      <trkpt lat="4.625026" lon="-75.099724">
        <ele>1944.571</ele>
        <time>2021-11-14T15:53:04Z</time>
      </trkpt>
      <trkpt lat="4.625026" lon="-75.099724">
        <ele>1944.7544</ele>
        <time>2021-11-14T15:53:05Z</time>
      </trkpt>
      <trkpt lat="4.625045" lon="-75.099709">
        <ele>1944.6377</ele>
        <time>2021-11-14T15:53:06Z</time>
      </trkpt>
      <trkpt lat="4.62506" lon="-75.099693">
        <ele>1944.7456</ele>
        <time>2021-11-14T15:53:07Z</time>
      </trkpt>
      <trkpt lat="4.62507" lon="-75.099678">
        <ele>1944.9087</ele>
        <time>2021-11-14T15:53:08Z</time>
      </trkpt>
      <trkpt lat="4.625079" lon="-75.09967">
        <ele>1945.2454</ele>
        <time>2021-11-14T15:53:09Z</time>
      </trkpt>
      <trkpt lat="4.625086" lon="-75.099663">
        <ele>1945.2131</ele>
        <time>2021-11-14T15:53:10Z</time>
      </trkpt>
      <trkpt lat="4.62509" lon="-75.099663">
        <ele>1945.3132</ele>
        <time>2021-11-14T15:53:11Z</time>
      </trkpt>
      <trkpt lat="4.62509" lon="-75.099663">
        <ele>1945.8018</ele>
        <time>2021-11-14T15:53:12Z</time>
      </trkpt>
      <trkpt lat="4.62509" lon="-75.099663">
        <ele>1945.6377</ele>
        <time>2021-11-14T15:53:13Z</time>
      </trkpt>
      <trkpt lat="4.62509" lon="-75.099663">
        <ele>1945.9736</ele>
        <time>2021-11-14T15:53:14Z</time>
      </trkpt>
      <trkpt lat="4.62509" lon="-75.099663">
        <ele>1946.1172</ele>
        <time>2021-11-14T15:53:15Z</time>
      </trkpt>
      <trkpt lat="4.62509" lon="-75.099663">
        <ele>1946.459</ele>
        <time>2021-11-14T15:53:16Z</time>
      </trkpt>
      <trkpt lat="4.62509" lon="-75.099663">
        <ele>1946.3018</ele>
        <time>2021-11-14T15:53:17Z</time>
      </trkpt>
      <trkpt lat="4.62509" lon="-75.099663">
        <ele>1945.8462</ele>
        <time>2021-11-14T15:53:18Z</time>
      </trkpt>
      <trkpt lat="4.62509" lon="-75.099663">
        <ele>1946.2175</ele>
        <time>2021-11-14T15:53:19Z</time>
      </trkpt>
      <trkpt lat="4.62509" lon="-75.099663">
        <ele>1946.0471</ele>
        <time>2021-11-14T15:53:20Z</time>
      </trkpt>
      <trkpt lat="4.62509" lon="-75.099663">
        <ele>1945.9792</ele>
        <time>2021-11-14T15:53:21Z</time>
      </trkpt>
      <trkpt lat="4.62509" lon="-75.099663">
        <ele>1946.0947</ele>
        <time>2021-11-14T15:53:22Z</time>
      </trkpt>
      <trkpt lat="4.62509" lon="-75.099663">
        <ele>1946.3601</ele>
        <time>2021-11-14T15:53:23Z</time>
      </trkpt>
      <trkpt lat="4.62509" lon="-75.099663">
        <ele>1946.346</ele>
        <time>2021-11-14T15:53:24Z</time>
      </trkpt>
      <trkpt lat="4.62509" lon="-75.099663">
        <ele>1946.239</ele>
        <time>2021-11-14T15:53:26Z</time>
      </trkpt>
      <trkpt lat="4.62509" lon="-75.099663">
        <ele>1946.237</ele>
        <time>2021-11-14T15:53:27Z</time>
      </trkpt>
      <trkpt lat="4.62509" lon="-75.099663">
        <ele>1946.4214</ele>
        <time>2021-11-14T15:53:28Z</time>
      </trkpt>
      <trkpt lat="4.62509" lon="-75.099663">
        <ele>1946.2573</ele>
        <time>2021-11-14T15:53:29Z</time>
      </trkpt>
      <trkpt lat="4.62509" lon="-75.099663">
        <ele>1946.1467</ele>
        <time>2021-11-14T15:53:30Z</time>
      </trkpt>
      <trkpt lat="4.62509" lon="-75.099663">
        <ele>1946.1377</ele>
        <time>2021-11-14T15:53:31Z</time>
      </trkpt>
      <trkpt lat="4.62509" lon="-75.099663">
        <ele>1946.0122</ele>
        <time>2021-11-14T15:53:32Z</time>
      </trkpt>
      <trkpt lat="4.62509" lon="-75.099663">
        <ele>1945.8428</ele>
        <time>2021-11-14T15:53:33Z</time>
      </trkpt>
      <trkpt lat="4.62509" lon="-75.099663">
        <ele>1946.0498</ele>
        <time>2021-11-14T15:53:34Z</time>
      </trkpt>
      <trkpt lat="4.62509" lon="-75.099663">
        <ele>1945.9873</ele>
        <time>2021-11-14T15:53:35Z</time>
      </trkpt>
      <trkpt lat="4.62509" lon="-75.099663">
        <ele>1945.9131</ele>
        <time>2021-11-14T15:53:36Z</time>
      </trkpt>
      <trkpt lat="4.62509" lon="-75.099663">
        <ele>1945.8711</ele>
        <time>2021-11-14T15:53:37Z</time>
      </trkpt>
      <trkpt lat="4.62509" lon="-75.099663">
        <ele>1945.8345</ele>
        <time>2021-11-14T15:53:38Z</time>
      </trkpt>
      <trkpt lat="4.62509" lon="-75.099663">
        <ele>1946.1777</ele>
        <time>2021-11-14T15:53:39Z</time>
      </trkpt>
      <trkpt lat="4.62509" lon="-75.099663">
        <ele>1945.9492</ele>
        <time>2021-11-14T15:53:40Z</time>
      </trkpt>
      <trkpt lat="4.62509" lon="-75.099663">
        <ele>1945.9878</ele>
        <time>2021-11-14T15:53:41Z</time>
      </trkpt>
      <trkpt lat="4.62509" lon="-75.099663">
        <ele>1946.04</ele>
        <time>2021-11-14T15:53:42Z</time>
      </trkpt>
      <trkpt lat="4.62509" lon="-75.099663">
        <ele>1946.283</ele>
        <time>2021-11-14T15:53:43Z</time>
      </trkpt>
      <trkpt lat="4.625152" lon="-75.099625">
        <ele>1946.4194</ele>
        <time>2021-11-14T15:53:44Z</time>
      </trkpt>
      <trkpt lat="4.625244" lon="-75.099571">
        <ele>1946.7014</ele>
        <time>2021-11-14T15:53:45Z</time>
      </trkpt>
      <trkpt lat="4.625305" lon="-75.099533">
        <ele>1947.4434</ele>
        <time>2021-11-14T15:53:46Z</time>
      </trkpt>
      <trkpt lat="4.625345" lon="-75.09951">
        <ele>1948.0508</ele>
        <time>2021-11-14T15:53:47Z</time>
      </trkpt>
      <trkpt lat="4.625389" lon="-75.09948">
        <ele>1949.0522</ele>
        <time>2021-11-14T15:53:48Z</time>
      </trkpt>
      <trkpt lat="4.625475" lon="-75.099426">
        <ele>1950.2202</ele>
        <time>2021-11-14T15:53:49Z</time>
      </trkpt>
      <trkpt lat="4.625555" lon="-75.09938">
        <ele>1951.5435</ele>
        <time>2021-11-14T15:53:50Z</time>
      </trkpt>
      <trkpt lat="4.625634" lon="-75.099335">
        <ele>1952.9302</ele>
        <time>2021-11-14T15:53:51Z</time>
      </trkpt>
      <trkpt lat="4.625691" lon="-75.099297">
        <ele>1954.7996</ele>
        <time>2021-11-14T15:53:52Z</time>
      </trkpt>
      <trkpt lat="4.62573" lon="-75.099258">
        <ele>1955.7432</ele>
        <time>2021-11-14T15:53:53Z</time>
      </trkpt>
      <trkpt lat="4.625779" lon="-75.099213">
        <ele>1957.5532</ele>
        <time>2021-11-14T15:53:54Z</time>
      </trkpt>
      <trkpt lat="4.625836" lon="-75.099152">
        <ele>1958.6094</ele>
        <time>2021-11-14T15:53:55Z</time>
      </trkpt>
      <trkpt lat="4.625881" lon="-75.099106">
        <ele>1960.5317</ele>
        <time>2021-11-14T15:53:56Z</time>
      </trkpt>
      <trkpt lat="4.625935" lon="-75.099037">
        <ele>1961.7505</ele>
        <time>2021-11-14T15:53:57Z</time>
      </trkpt>
      <trkpt lat="4.626006" lon="-75.098953">
        <ele>1963.9458</ele>
        <time>2021-11-14T15:53:58Z</time>
      </trkpt>
      <trkpt lat="4.626086" lon="-75.098862">
        <ele>1966.0708</ele>
        <time>2021-11-14T15:53:59Z</time>
      </trkpt>
      <trkpt lat="4.626148" lon="-75.098793">
        <ele>1968.6458</ele>
        <time>2021-11-14T15:54:00Z</time>
      </trkpt>
      <trkpt lat="4.626184" lon="-75.098747">
        <ele>1970.1772</ele>
        <time>2021-11-14T15:54:01Z</time>
      </trkpt>
      <trkpt lat="4.626211" lon="-75.098717">
        <ele>1972.2153</ele>
        <time>2021-11-14T15:54:02Z</time>
      </trkpt>
      <trkpt lat="4.626266" lon="-75.098656">
        <ele>1973.582</ele>
        <time>2021-11-14T15:54:03Z</time>
      </trkpt>
      <trkpt lat="4.626346" lon="-75.098564">
        <ele>1975.3389</ele>
        <time>2021-11-14T15:54:04Z</time>
      </trkpt>
      <trkpt lat="4.62638" lon="-75.098526">
        <ele>1977.2559</ele>
        <time>2021-11-14T15:54:06Z</time>
      </trkpt>
      <trkpt lat="4.626427" lon="-75.098473">
        <ele>1978.6133</ele>
        <time>2021-11-14T15:54:07Z</time>
      </trkpt>
      <trkpt lat="4.626463" lon="-75.098427">
        <ele>1980.5708</ele>
        <time>2021-11-14T15:54:08Z</time>
      </trkpt>
      <trkpt lat="4.626511" lon="-75.098373">
        <ele>1981.1831</ele>
        <time>2021-11-14T15:54:09Z</time>
      </trkpt>
      <trkpt lat="4.626548" lon="-75.098328">
        <ele>1982.1418</ele>
        <time>2021-11-14T15:54:10Z</time>
      </trkpt>
      <trkpt lat="4.626609" lon="-75.098251">
        <ele>1983.0967</ele>
        <time>2021-11-14T15:54:11Z</time>
      </trkpt>
      <trkpt lat="4.626642" lon="-75.098198">
        <ele>1984.0332</ele>
        <time>2021-11-14T15:54:12Z</time>
      </trkpt>
      <trkpt lat="4.626684" lon="-75.098129">
        <ele>1983.7261</ele>
        <time>2021-11-14T15:54:13Z</time>
      </trkpt>
      <trkpt lat="4.626715" lon="-75.098076">
        <ele>1983.3545</ele>
        <time>2021-11-14T15:54:14Z</time>
      </trkpt>
      <trkpt lat="4.626743" lon="-75.09803">
        <ele>1983.5371</ele>
        <time>2021-11-14T15:54:15Z</time>
      </trkpt>
      <trkpt lat="4.626791" lon="-75.097954">
        <ele>1982.874</ele>
        <time>2021-11-14T15:54:16Z</time>
      </trkpt>
      <trkpt lat="4.626809" lon="-75.097916">
        <ele>1983.45</ele>
        <time>2021-11-14T15:54:17Z</time>
      </trkpt>
      <trkpt lat="4.626809" lon="-75.097916">
        <ele>1983.5459</ele>
        <time>2021-11-14T15:54:18Z</time>
      </trkpt>
      <trkpt lat="4.62684" lon="-75.09787">
        <ele>1983.3052</ele>
        <time>2021-11-14T15:54:19Z</time>
      </trkpt>
      <trkpt lat="4.626902" lon="-75.097763">
        <ele>1984.2866</ele>
        <time>2021-11-14T15:54:20Z</time>
      </trkpt>
      <trkpt lat="4.626941" lon="-75.097702">
        <ele>1983.3916</ele>
        <time>2021-11-14T15:54:21Z</time>
      </trkpt>
      <trkpt lat="4.626999" lon="-75.097603">
        <ele>1984.1108</ele>
        <time>2021-11-14T15:54:22Z</time>
      </trkpt>
      <trkpt lat="4.627045" lon="-75.097527">
        <ele>1985.627</ele>
        <time>2021-11-14T15:54:23Z</time>
      </trkpt>
      <trkpt lat="4.627082" lon="-75.097481">
        <ele>1987.1348</ele>
        <time>2021-11-14T15:54:24Z</time>
      </trkpt>
      <trkpt lat="4.627115" lon="-75.09745">
        <ele>1987.9631</ele>
        <time>2021-11-14T15:54:25Z</time>
      </trkpt>
      <trkpt lat="4.627141" lon="-75.09742">
        <ele>1987.5444</ele>
        <time>2021-11-14T15:54:26Z</time>
      </trkpt>
      <trkpt lat="4.627146" lon="-75.097412">
        <ele>1988.0024</ele>
        <time>2021-11-14T15:54:27Z</time>
      </trkpt>
      <trkpt lat="4.627158" lon="-75.097404">
        <ele>1988.5149</ele>
        <time>2021-11-14T15:54:28Z</time>
      </trkpt>
      <trkpt lat="4.62721" lon="-75.097343">
        <ele>1988.7627</ele>
        <time>2021-11-14T15:54:29Z</time>
      </trkpt>
      <trkpt lat="4.627271" lon="-75.097282">
        <ele>1989.2097</ele>
        <time>2021-11-14T15:54:30Z</time>
      </trkpt>
      <trkpt lat="4.627321" lon="-75.097221">
        <ele>1989.9253</ele>
        <time>2021-11-14T15:54:31Z</time>
      </trkpt>
      <trkpt lat="4.627359" lon="-75.097183">
        <ele>1990.2739</ele>
        <time>2021-11-14T15:54:32Z</time>
      </trkpt>
      <trkpt lat="4.627407" lon="-75.09713">
        <ele>1990.9146</ele>
        <time>2021-11-14T15:54:33Z</time>
      </trkpt>
      <trkpt lat="4.627474" lon="-75.097061">
        <ele>1992.5505</ele>
        <time>2021-11-14T15:54:34Z</time>
      </trkpt>
      <trkpt lat="4.627521" lon="-75.097008">
        <ele>1993.552</ele>
        <time>2021-11-14T15:54:35Z</time>
      </trkpt>
      <trkpt lat="4.6276" lon="-75.096924">
        <ele>1994.6147</ele>
        <time>2021-11-14T15:54:36Z</time>
      </trkpt>
      <trkpt lat="4.627644" lon="-75.09687">
        <ele>1995.5073</ele>
        <time>2021-11-14T15:54:37Z</time>
      </trkpt>
      <trkpt lat="4.62768" lon="-75.096832">
        <ele>1996.3733</ele>
        <time>2021-11-14T15:54:38Z</time>
      </trkpt>
      <trkpt lat="4.627712" lon="-75.096802">
        <ele>1996.5498</ele>
        <time>2021-11-14T15:54:39Z</time>
      </trkpt>
      <trkpt lat="4.62777" lon="-75.096741">
        <ele>1997.5596</ele>
        <time>2021-11-14T15:54:40Z</time>
      </trkpt>
      <trkpt lat="4.62779" lon="-75.096718">
        <ele>1997.2334</ele>
        <time>2021-11-14T15:54:41Z</time>
      </trkpt>
      <trkpt lat="4.627841" lon="-75.096657">
        <ele>1997.81</ele>
        <time>2021-11-14T15:54:42Z</time>
      </trkpt>
      <trkpt lat="4.627886" lon="-75.096626">
        <ele>1997.6089</ele>
        <time>2021-11-14T15:54:43Z</time>
      </trkpt>
      <trkpt lat="4.627886" lon="-75.096626">
        <ele>1998.0767</ele>
        <time>2021-11-14T15:54:44Z</time>
      </trkpt>
      <trkpt lat="4.627931" lon="-75.096603">
        <ele>1998.8301</ele>
        <time>2021-11-14T15:54:45Z</time>
      </trkpt>
      <trkpt lat="4.62803" lon="-75.096542">
        <ele>1998.9116</ele>
        <time>2021-11-14T15:54:46Z</time>
      </trkpt>
      <trkpt lat="4.628065" lon="-75.096527">
        <ele>1997.7083</ele>
        <time>2021-11-14T15:54:48Z</time>
      </trkpt>
      <trkpt lat="4.628098" lon="-75.096504">
        <ele>1998.1704</ele>
        <time>2021-11-14T15:54:49Z</time>
      </trkpt>
      <trkpt lat="4.628168" lon="-75.096466">
        <ele>1998.0557</ele>
        <time>2021-11-14T15:54:50Z</time>
      </trkpt>
      <trkpt lat="4.628222" lon="-75.096436">
        <ele>1999.0874</ele>
        <time>2021-11-14T15:54:51Z</time>
      </trkpt>
      <trkpt lat="4.62826" lon="-75.09642">
        <ele>1997.8235</ele>
        <time>2021-11-14T15:54:52Z</time>
      </trkpt>
      <trkpt lat="4.62831" lon="-75.09639">
        <ele>1996.4619</ele>
        <time>2021-11-14T15:54:53Z</time>
      </trkpt>
      <trkpt lat="4.628351" lon="-75.096367">
        <ele>1995.6233</ele>
        <time>2021-11-14T15:54:54Z</time>
      </trkpt>
      <trkpt lat="4.628416" lon="-75.096329">
        <ele>1994.8921</ele>
        <time>2021-11-14T15:54:55Z</time>
      </trkpt>
      <trkpt lat="4.628478" lon="-75.096298">
        <ele>1992.7441</ele>
        <time>2021-11-14T15:54:56Z</time>
      </trkpt>
      <trkpt lat="4.62851" lon="-75.096275">
        <ele>1993.0884</ele>
        <time>2021-11-14T15:54:57Z</time>
      </trkpt>
      <trkpt lat="4.62851" lon="-75.096275">
        <ele>1993.8315</ele>
        <time>2021-11-14T15:54:58Z</time>
      </trkpt>
      <trkpt lat="4.628535" lon="-75.096268">
        <ele>1994.7427</ele>
        <time>2021-11-14T15:54:59Z</time>
      </trkpt>
      <trkpt lat="4.628589" lon="-75.096237">
        <ele>1994.8704</ele>
        <time>2021-11-14T15:55:00Z</time>
      </trkpt>
      <trkpt lat="4.628682" lon="-75.096191">
        <ele>1995.3428</ele>
        <time>2021-11-14T15:55:01Z</time>
      </trkpt>
      <trkpt lat="4.628722" lon="-75.096176">
        <ele>1995.73</ele>
        <time>2021-11-14T15:55:02Z</time>
      </trkpt>
      <trkpt lat="4.628762" lon="-75.096161">
        <ele>1995.3813</ele>
        <time>2021-11-14T15:55:03Z</time>
      </trkpt>
      <trkpt lat="4.628802" lon="-75.096146">
        <ele>1995.3813</ele>
        <time>2021-11-14T15:55:04Z</time>
      </trkpt>
      <trkpt lat="4.628811" lon="-75.096138">
        <ele>1994.3848</ele>
        <time>2021-11-14T15:55:05Z</time>
      </trkpt>
      <trkpt lat="4.628877" lon="-75.096115">
        <ele>1993.5703</ele>
        <time>2021-11-14T15:55:06Z</time>
      </trkpt>
      <trkpt lat="4.628988" lon="-75.096077">
        <ele>1993.5703</ele>
        <time>2021-11-14T15:55:07Z</time>
      </trkpt>
      <trkpt lat="4.629078" lon="-75.096039">
        <ele>1993.6165</ele>
        <time>2021-11-14T15:55:08Z</time>
      </trkpt>
      <trkpt lat="4.629161" lon="-75.096008">
        <ele>1993.3105</ele>
        <time>2021-11-14T15:55:09Z</time>
      </trkpt>
      <trkpt lat="4.629207" lon="-75.095993">
        <ele>1993.2954</ele>
        <time>2021-11-14T15:55:10Z</time>
      </trkpt>
      <trkpt lat="4.629251" lon="-75.09597">
        <ele>1993.0542</ele>
        <time>2021-11-14T15:55:11Z</time>
      </trkpt>
      <trkpt lat="4.629321" lon="-75.09594">
        <ele>1993.1577</ele>
        <time>2021-11-14T15:55:12Z</time>
      </trkpt>
      <trkpt lat="4.629328" lon="-75.095932">
        <ele>1993.353</ele>
        <time>2021-11-14T15:55:13Z</time>
      </trkpt>
      <trkpt lat="4.629328" lon="-75.095932">
        <ele>1993.353</ele>
        <time>2021-11-14T15:55:14Z</time>
      </trkpt>
      <trkpt lat="4.629329" lon="-75.095932">
        <ele>1993.2961</ele>
        <time>2021-11-14T15:55:15Z</time>
      </trkpt>
      <trkpt lat="4.629412" lon="-75.095894">
        <ele>1993.938</ele>
        <time>2021-11-14T15:55:16Z</time>
      </trkpt>
      <trkpt lat="4.629483" lon="-75.095856">
        <ele>1993.178</ele>
        <time>2021-11-14T15:55:17Z</time>
      </trkpt>
      <trkpt lat="4.629541" lon="-75.095825">
        <ele>1993.804</ele>
        <time>2021-11-14T15:55:18Z</time>
      </trkpt>
      <trkpt lat="4.629634" lon="-75.095779">
        <ele>1993.8413</ele>
        <time>2021-11-14T15:55:19Z</time>
      </trkpt>
      <trkpt lat="4.629663" lon="-75.095764">
        <ele>1993.9551</ele>
        <time>2021-11-14T15:55:20Z</time>
      </trkpt>
      <trkpt lat="4.629738" lon="-75.095726">
        <ele>1993.2227</ele>
        <time>2021-11-14T15:55:21Z</time>
      </trkpt>
      <trkpt lat="4.629794" lon="-75.095695">
        <ele>1992.7961</ele>
        <time>2021-11-14T15:55:22Z</time>
      </trkpt>
      <trkpt lat="4.629796" lon="-75.095695">
        <ele>1993.0581</ele>
        <time>2021-11-14T15:55:23Z</time>
      </trkpt>
      <trkpt lat="4.629812" lon="-75.095688">
        <ele>1994.3467</ele>
        <time>2021-11-14T15:55:24Z</time>
      </trkpt>
      <trkpt lat="4.629847" lon="-75.095665">
        <ele>1994.666</ele>
        <time>2021-11-14T15:55:25Z</time>
      </trkpt>
      <trkpt lat="4.629884" lon="-75.095642">
        <ele>1994.9736</ele>
        <time>2021-11-14T15:55:26Z</time>
      </trkpt>
      <trkpt lat="4.629959" lon="-75.095589">
        <ele>1993.8186</ele>
        <time>2021-11-14T15:55:27Z</time>
      </trkpt>
      <trkpt lat="4.629974" lon="-75.095581">
        <ele>1994.1572</ele>
        <time>2021-11-14T15:55:28Z</time>
      </trkpt>
      <trkpt lat="4.630026" lon="-75.095543">
        <ele>1993.3696</ele>
        <time>2021-11-14T15:55:29Z</time>
      </trkpt>
      <trkpt lat="4.63009" lon="-75.095505">
        <ele>1992.6448</ele>
        <time>2021-11-14T15:55:30Z</time>
      </trkpt>
      <trkpt lat="4.630131" lon="-75.095474">
        <ele>1994.7764</ele>
        <time>2021-11-14T15:55:31Z</time>
      </trkpt>
      <trkpt lat="4.630181" lon="-75.095444">
        <ele>1995.456</ele>
        <time>2021-11-14T15:55:32Z</time>
      </trkpt>
      <trkpt lat="4.630222" lon="-75.095413">
        <ele>1995.7756</ele>
        <time>2021-11-14T15:55:33Z</time>
      </trkpt>
      <trkpt lat="4.630286" lon="-75.095375">
        <ele>1996.104</ele>
        <time>2021-11-14T15:55:34Z</time>
      </trkpt>
      <trkpt lat="4.630329" lon="-75.095345">
        <ele>1996.3252</ele>
        <time>2021-11-14T15:55:35Z</time>
      </trkpt>
      <trkpt lat="4.630356" lon="-75.095322">
        <ele>1995.209</ele>
        <time>2021-11-14T15:55:36Z</time>
      </trkpt>
      <trkpt lat="4.630356" lon="-75.095322">
        <ele>1994.1265</ele>
        <time>2021-11-14T15:55:37Z</time>
      </trkpt>
      <trkpt lat="4.630375" lon="-75.095299">
        <ele>1994.5942</ele>
        <time>2021-11-14T15:55:38Z</time>
      </trkpt>
      <trkpt lat="4.630377" lon="-75.095299">
        <ele>1995.5566</ele>
        <time>2021-11-14T15:55:39Z</time>
      </trkpt>
      <trkpt lat="4.630408" lon="-75.095268">
        <ele>1995.553</ele>
        <time>2021-11-14T15:55:40Z</time>
      </trkpt>
      <trkpt lat="4.630479" lon="-75.095192">
        <ele>1995.4724</ele>
        <time>2021-11-14T15:55:41Z</time>
      </trkpt>
      <trkpt lat="4.63052" lon="-75.095146">
        <ele>1994.6489</ele>
        <time>2021-11-14T15:55:43Z</time>
      </trkpt>
      <trkpt lat="4.630553" lon="-75.095108">
        <ele>1996.4229</ele>
        <time>2021-11-14T15:55:44Z</time>
      </trkpt>
      <trkpt lat="4.630599" lon="-75.095062">
        <ele>1998.5381</ele>
        <time>2021-11-14T15:55:45Z</time>
      </trkpt>
      <trkpt lat="4.630647" lon="-75.095009">
        <ele>1998.7068</ele>
        <time>2021-11-14T15:55:46Z</time>
      </trkpt>
      <trkpt lat="4.630681" lon="-75.094971">
        <ele>1999.2507</ele>
        <time>2021-11-14T15:55:47Z</time>
      </trkpt>
      <trkpt lat="4.630748" lon="-75.094933">
        <ele>1999.2852</ele>
        <time>2021-11-14T15:55:48Z</time>
      </trkpt>
      <trkpt lat="4.630754" lon="-75.094925">
        <ele>1998.8049</ele>
        <time>2021-11-14T15:55:49Z</time>
      </trkpt>
      <trkpt lat="4.630778" lon="-75.09491">
        <ele>1999.315</ele>
        <time>2021-11-14T15:55:50Z</time>
      </trkpt>
      <trkpt lat="4.630828" lon="-75.094887">
        <ele>1999.6182</ele>
        <time>2021-11-14T15:55:51Z</time>
      </trkpt>
      <trkpt lat="4.630915" lon="-75.094833">
        <ele>2000.584</ele>
        <time>2021-11-14T15:55:52Z</time>
      </trkpt>
      <trkpt lat="4.630934" lon="-75.094818">
        <ele>2000.251</ele>
        <time>2021-11-14T15:55:53Z</time>
      </trkpt>
      <trkpt lat="4.630942" lon="-75.094818">
        <ele>2002.2749</ele>
        <time>2021-11-14T15:55:54Z</time>
      </trkpt>
      <trkpt lat="4.630942" lon="-75.094818">
        <ele>2001.9407</ele>
        <time>2021-11-14T15:55:55Z</time>
      </trkpt>
      <trkpt lat="4.630942" lon="-75.094818">
        <ele>2002.0837</ele>
        <time>2021-11-14T15:55:56Z</time>
      </trkpt>
      <trkpt lat="4.630948" lon="-75.09481">
        <ele>2001.0247</ele>
        <time>2021-11-14T15:55:57Z</time>
      </trkpt>
      <trkpt lat="4.630958" lon="-75.094803">
        <ele>2000.7896</ele>
        <time>2021-11-14T15:55:58Z</time>
      </trkpt>
      <trkpt lat="4.630958" lon="-75.094803">
        <ele>2000.2102</ele>
        <time>2021-11-14T15:55:59Z</time>
      </trkpt>
      <trkpt lat="4.630958" lon="-75.094803">
        <ele>2000.5571</ele>
        <time>2021-11-14T15:56:00Z</time>
      </trkpt>
      <trkpt lat="4.630958" lon="-75.094803">
        <ele>2000.8477</ele>
        <time>2021-11-14T15:56:01Z</time>
      </trkpt>
      <trkpt lat="4.630958" lon="-75.094803">
        <ele>2001.1929</ele>
        <time>2021-11-14T15:56:02Z</time>
      </trkpt>
      <trkpt lat="4.630958" lon="-75.094803">
        <ele>2001.3896</ele>
        <time>2021-11-14T15:56:03Z</time>
      </trkpt>
      <trkpt lat="4.630958" lon="-75.094803">
        <ele>2001.544</ele>
        <time>2021-11-14T15:56:04Z</time>
      </trkpt>
      <trkpt lat="4.630958" lon="-75.094803">
        <ele>2001.8416</ele>
        <time>2021-11-14T15:56:05Z</time>
      </trkpt>
      <trkpt lat="4.630958" lon="-75.094803">
        <ele>2001.9395</ele>
        <time>2021-11-14T15:56:06Z</time>
      </trkpt>
      <trkpt lat="4.630958" lon="-75.094803">
        <ele>2002.0205</ele>
        <time>2021-11-14T15:56:07Z</time>
      </trkpt>
      <trkpt lat="4.630958" lon="-75.094803">
        <ele>2002.1401</ele>
        <time>2021-11-14T15:56:08Z</time>
      </trkpt>
      <trkpt lat="4.630958" lon="-75.094803">
        <ele>2002.0376</ele>
        <time>2021-11-14T15:56:09Z</time>
      </trkpt>
      <trkpt lat="4.630958" lon="-75.094803">
        <ele>2002.4458</ele>
        <time>2021-11-14T15:56:10Z</time>
      </trkpt>
      <trkpt lat="4.631017" lon="-75.094757">
        <ele>2003.0769</ele>
        <time>2021-11-14T15:56:11Z</time>
      </trkpt>
      <trkpt lat="4.631091" lon="-75.094696">
        <ele>2003.1724</ele>
        <time>2021-11-14T15:56:12Z</time>
      </trkpt>
      <trkpt lat="4.631107" lon="-75.094688">
        <ele>2003.5376</ele>
        <time>2021-11-14T15:56:13Z</time>
      </trkpt>
      <trkpt lat="4.631124" lon="-75.094673">
        <ele>2003.6079</ele>
        <time>2021-11-14T15:56:14Z</time>
      </trkpt>
      <trkpt lat="4.631127" lon="-75.094673">
        <ele>2003.6101</ele>
        <time>2021-11-14T15:56:15Z</time>
      </trkpt>
      <trkpt lat="4.631127" lon="-75.094673">
        <ele>2004.2971</ele>
        <time>2021-11-14T15:56:16Z</time>
      </trkpt>
      <trkpt lat="4.631127" lon="-75.094673">
        <ele>2004.5454</ele>
        <time>2021-11-14T15:56:17Z</time>
      </trkpt>
      <trkpt lat="4.631127" lon="-75.094673">
        <ele>2004.6064</ele>
        <time>2021-11-14T15:56:18Z</time>
      </trkpt>
      <trkpt lat="4.631127" lon="-75.094673">
        <ele>2004.3198</ele>
        <time>2021-11-14T15:56:19Z</time>
      </trkpt>
      <trkpt lat="4.63113" lon="-75.094666">
        <ele>2004.4009</ele>
        <time>2021-11-14T15:56:20Z</time>
      </trkpt>
      <trkpt lat="4.631153" lon="-75.09465">
        <ele>2004.5273</ele>
        <time>2021-11-14T15:56:21Z</time>
      </trkpt>
      <trkpt lat="4.631153" lon="-75.09465">
        <ele>2004.2571</ele>
        <time>2021-11-14T15:56:22Z</time>
      </trkpt>
      <trkpt lat="4.631155" lon="-75.09465">
        <ele>2004.3032</ele>
        <time>2021-11-14T15:56:23Z</time>
      </trkpt>
      <trkpt lat="4.631175" lon="-75.09465">
        <ele>2004.325</ele>
        <time>2021-11-14T15:56:24Z</time>
      </trkpt>
      <trkpt lat="4.631244" lon="-75.094742">
        <ele>2004.5615</ele>
        <time>2021-11-14T15:56:25Z</time>
      </trkpt>
      <trkpt lat="4.631244" lon="-75.094742">
        <ele>2003.9531</ele>
        <time>2021-11-14T15:56:26Z</time>
      </trkpt>
      <trkpt lat="4.631244" lon="-75.094742">
        <ele>2003.896</ele>
        <time>2021-11-14T15:56:27Z</time>
      </trkpt>
      <trkpt lat="4.631244" lon="-75.094742">
        <ele>2003.9263</ele>
        <time>2021-11-14T15:56:28Z</time>
      </trkpt>
      <trkpt lat="4.631244" lon="-75.094742">
        <ele>2003.5579</ele>
        <time>2021-11-14T15:56:29Z</time>
      </trkpt>
      <trkpt lat="4.631244" lon="-75.094742">
        <ele>2003.0933</ele>
        <time>2021-11-14T15:56:30Z</time>
      </trkpt>
      <trkpt lat="4.631244" lon="-75.094742">
        <ele>2002.8354</ele>
        <time>2021-11-14T15:56:31Z</time>
      </trkpt>
      <trkpt lat="4.631244" lon="-75.094742">
        <ele>2003.0466</ele>
        <time>2021-11-14T15:56:32Z</time>
      </trkpt>
      <trkpt lat="4.631244" lon="-75.094742">
        <ele>2003.1084</ele>
        <time>2021-11-14T15:56:33Z</time>
      </trkpt>
      <trkpt lat="4.631244" lon="-75.094742">
        <ele>2003.0796</ele>
        <time>2021-11-14T15:56:34Z</time>
      </trkpt>
      <trkpt lat="4.631244" lon="-75.094742">
        <ele>2002.9211</ele>
        <time>2021-11-14T15:56:35Z</time>
      </trkpt>
      <trkpt lat="4.631244" lon="-75.094742">
        <ele>2002.6104</ele>
        <time>2021-11-14T15:56:36Z</time>
      </trkpt>
      <trkpt lat="4.631244" lon="-75.094742">
        <ele>2002.5476</ele>
        <time>2021-11-14T15:56:37Z</time>
      </trkpt>
      <trkpt lat="4.631244" lon="-75.094742">
        <ele>2002.7483</ele>
        <time>2021-11-14T15:56:38Z</time>
      </trkpt>
      <trkpt lat="4.631244" lon="-75.094742">
        <ele>2002.5752</ele>
        <time>2021-11-14T15:56:39Z</time>
      </trkpt>
      <trkpt lat="4.631244" lon="-75.094742">
        <ele>2002.75</ele>
        <time>2021-11-14T15:56:40Z</time>
      </trkpt>
      <trkpt lat="4.631244" lon="-75.094742">
        <ele>2002.7991</ele>
        <time>2021-11-14T15:56:41Z</time>
      </trkpt>
      <trkpt lat="4.631244" lon="-75.094742">
        <ele>2002.7354</ele>
        <time>2021-11-14T15:56:42Z</time>
      </trkpt>
      <trkpt lat="4.631264" lon="-75.094765">
        <ele>2003.541</ele>
        <time>2021-11-14T15:56:43Z</time>
      </trkpt>
      <trkpt lat="4.631274" lon="-75.09478">
        <ele>2003.8145</ele>
        <time>2021-11-14T15:56:44Z</time>
      </trkpt>
      <trkpt lat="4.631292" lon="-75.094803">
        <ele>2003.6445</ele>
        <time>2021-11-14T15:56:45Z</time>
      </trkpt>
      <trkpt lat="4.631296" lon="-75.09481">
        <ele>2003.429</ele>
        <time>2021-11-14T15:56:46Z</time>
      </trkpt>
      <trkpt lat="4.631297" lon="-75.09481">
        <ele>2001.6343</ele>
        <time>2021-11-14T15:56:47Z</time>
      </trkpt>
      <trkpt lat="4.631322" lon="-75.094795">
        <ele>2000.5029</ele>
        <time>2021-11-14T15:56:48Z</time>
      </trkpt>
      <trkpt lat="4.631323" lon="-75.094788">
        <ele>1998.9658</ele>
        <time>2021-11-14T15:56:49Z</time>
      </trkpt>
      <trkpt lat="4.631332" lon="-75.09478">
        <ele>1998.1309</ele>
        <time>2021-11-14T15:56:50Z</time>
      </trkpt>
      <trkpt lat="4.63134" lon="-75.094772">
        <ele>1998.3271</ele>
        <time>2021-11-14T15:56:51Z</time>
      </trkpt>
      <trkpt lat="4.631361" lon="-75.094757">
        <ele>1997.915</ele>
        <time>2021-11-14T15:56:53Z</time>
      </trkpt>
      <trkpt lat="4.631412" lon="-75.094719">
        <ele>1998.9468</ele>
        <time>2021-11-14T15:56:54Z</time>
      </trkpt>
      <trkpt lat="4.631427" lon="-75.094704">
        <ele>1999.9812</ele>
        <time>2021-11-14T15:56:55Z</time>
      </trkpt>
      <trkpt lat="4.631459" lon="-75.094681">
        <ele>1999.0923</ele>
        <time>2021-11-14T15:56:56Z</time>
      </trkpt>
      <trkpt lat="4.631521" lon="-75.094627">
        <ele>1998.626</ele>
        <time>2021-11-14T15:56:57Z</time>
      </trkpt>
      <trkpt lat="4.631539" lon="-75.094612">
        <ele>1998.2354</ele>
        <time>2021-11-14T15:56:58Z</time>
      </trkpt>
      <trkpt lat="4.63156" lon="-75.094597">
        <ele>1999.1348</ele>
        <time>2021-11-14T15:56:59Z</time>
      </trkpt>
      <trkpt lat="4.631619" lon="-75.094551">
        <ele>1999.5801</ele>
        <time>2021-11-14T15:57:00Z</time>
      </trkpt>
      <trkpt lat="4.631664" lon="-75.094513">
        <ele>1999.5801</ele>
        <time>2021-11-14T15:57:01Z</time>
      </trkpt>
      <trkpt lat="4.6317" lon="-75.094482">
        <ele>1998.5693</ele>
        <time>2021-11-14T15:57:02Z</time>
      </trkpt>
      <trkpt lat="4.631736" lon="-75.094452">
        <ele>1999.5</ele>
        <time>2021-11-14T15:57:03Z</time>
      </trkpt>
      <trkpt lat="4.631779" lon="-75.094421">
        <ele>2001.0391</ele>
        <time>2021-11-14T15:57:04Z</time>
      </trkpt>
      <trkpt lat="4.631824" lon="-75.094383">
        <ele>2001.7168</ele>
        <time>2021-11-14T15:57:05Z</time>
      </trkpt>
      <trkpt lat="4.631854" lon="-75.094353">
        <ele>2002.1821</ele>
        <time>2021-11-14T15:57:06Z</time>
      </trkpt>
      <trkpt lat="4.631894" lon="-75.094322">
        <ele>2001.6609</ele>
        <time>2021-11-14T15:57:07Z</time>
      </trkpt>
      <trkpt lat="4.631966" lon="-75.094254">
        <ele>2001.4756</ele>
        <time>2021-11-14T15:57:08Z</time>
      </trkpt>
      <trkpt lat="4.632" lon="-75.094231">
        <ele>2000.7256</ele>
        <time>2021-11-14T15:57:09Z</time>
      </trkpt>
      <trkpt lat="4.632056" lon="-75.094177">
        <ele>2000.8032</ele>
        <time>2021-11-14T15:57:10Z</time>
      </trkpt>
      <trkpt lat="4.632105" lon="-75.094131">
        <ele>2000.4631</ele>
        <time>2021-11-14T15:57:11Z</time>
      </trkpt>
      <trkpt lat="4.632135" lon="-75.094109">
        <ele>2000.6235</ele>
        <time>2021-11-14T15:57:12Z</time>
      </trkpt>
      <trkpt lat="4.632135" lon="-75.094109">
        <ele>2001.0347</ele>
        <time>2021-11-14T15:57:13Z</time>
      </trkpt>
      <trkpt lat="4.632236" lon="-75.094017">
        <ele>1999.1985</ele>
        <time>2021-11-14T15:57:14Z</time>
      </trkpt>
      <trkpt lat="4.632273" lon="-75.093987">
        <ele>1999.2886</ele>
        <time>2021-11-14T15:57:15Z</time>
      </trkpt>
      <trkpt lat="4.632295" lon="-75.093971">
        <ele>1999.4233</ele>
        <time>2021-11-14T15:57:16Z</time>
      </trkpt>
      <trkpt lat="4.632345" lon="-75.093933">
        <ele>2002.0835</ele>
        <time>2021-11-14T15:57:17Z</time>
      </trkpt>
      <trkpt lat="4.632411" lon="-75.09388">
        <ele>2003.4563</ele>
        <time>2021-11-14T15:57:18Z</time>
      </trkpt>
      <trkpt lat="4.632503" lon="-75.093811">
        <ele>2003.8499</ele>
        <time>2021-11-14T15:57:19Z</time>
      </trkpt>
      <trkpt lat="4.632553" lon="-75.093765">
        <ele>2004.1343</ele>
        <time>2021-11-14T15:57:20Z</time>
      </trkpt>
      <trkpt lat="4.63259" lon="-75.093742">
        <ele>2004.2593</ele>
        <time>2021-11-14T15:57:21Z</time>
      </trkpt>
      <trkpt lat="4.632676" lon="-75.093674">
        <ele>2005.3225</ele>
        <time>2021-11-14T15:57:22Z</time>
      </trkpt>
      <trkpt lat="4.632731" lon="-75.093628">
        <ele>2004.9312</ele>
        <time>2021-11-14T15:57:23Z</time>
      </trkpt>
      <trkpt lat="4.632784" lon="-75.093582">
        <ele>2005.2048</ele>
        <time>2021-11-14T15:57:24Z</time>
      </trkpt>
      <trkpt lat="4.632836" lon="-75.093536">
        <ele>2004.8105</ele>
        <time>2021-11-14T15:57:25Z</time>
      </trkpt>
      <trkpt lat="4.63286" lon="-75.093521">
        <ele>2005.0396</ele>
        <time>2021-11-14T15:57:26Z</time>
      </trkpt>
      <trkpt lat="4.632963" lon="-75.09343">
        <ele>2005.603</ele>
        <time>2021-11-14T15:57:27Z</time>
      </trkpt>
      <trkpt lat="4.633024" lon="-75.093376">
        <ele>2007.4143</ele>
        <time>2021-11-14T15:57:28Z</time>
      </trkpt>
      <trkpt lat="4.63304" lon="-75.093361">
        <ele>2007.855</ele>
        <time>2021-11-14T15:57:29Z</time>
      </trkpt>
      <trkpt lat="4.633087" lon="-75.093323">
        <ele>2008.1421</ele>
        <time>2021-11-14T15:57:30Z</time>
      </trkpt>
      <trkpt lat="4.633124" lon="-75.093292">
        <ele>2008.0645</ele>
        <time>2021-11-14T15:57:31Z</time>
      </trkpt>
      <trkpt lat="4.633138" lon="-75.093277">
        <ele>2007.8628</ele>
        <time>2021-11-14T15:57:32Z</time>
      </trkpt>
      <trkpt lat="4.63319" lon="-75.093231">
        <ele>2007.3179</ele>
        <time>2021-11-14T15:57:33Z</time>
      </trkpt>
      <trkpt lat="4.633212" lon="-75.093208">
        <ele>2006.6138</ele>
        <time>2021-11-14T15:57:34Z</time>
      </trkpt>
      <trkpt lat="4.633225" lon="-75.093201">
        <ele>2007.3623</ele>
        <time>2021-11-14T15:57:35Z</time>
      </trkpt>
      <trkpt lat="4.633225" lon="-75.093201">
        <ele>2007.8821</ele>
        <time>2021-11-14T15:57:36Z</time>
      </trkpt>
      <trkpt lat="4.633225" lon="-75.093201">
        <ele>2008.3748</ele>
        <time>2021-11-14T15:57:37Z</time>
      </trkpt>
      <trkpt lat="4.633225" lon="-75.093201">
        <ele>2008.4805</ele>
        <time>2021-11-14T15:57:38Z</time>
      </trkpt>
      <trkpt lat="4.633225" lon="-75.093201">
        <ele>2008.5815</ele>
        <time>2021-11-14T15:57:39Z</time>
      </trkpt>
      <trkpt lat="4.633225" lon="-75.093201">
        <ele>2008.3223</ele>
        <time>2021-11-14T15:57:40Z</time>
      </trkpt>
      <trkpt lat="4.633225" lon="-75.093201">
        <ele>2007.3035</ele>
        <time>2021-11-14T15:57:41Z</time>
      </trkpt>
      <trkpt lat="4.633225" lon="-75.093201">
        <ele>2007.2495</ele>
        <time>2021-11-14T15:57:42Z</time>
      </trkpt>
      <trkpt lat="4.633225" lon="-75.093201">
        <ele>2007.3628</ele>
        <time>2021-11-14T15:57:43Z</time>
      </trkpt>
      <trkpt lat="4.633225" lon="-75.093201">
        <ele>2007.5972</ele>
        <time>2021-11-14T15:57:44Z</time>
      </trkpt>
      <trkpt lat="4.633225" lon="-75.093201">
        <ele>2007.8081</ele>
        <time>2021-11-14T15:57:45Z</time>
      </trkpt>
      <trkpt lat="4.633225" lon="-75.093201">
        <ele>2008.1558</ele>
        <time>2021-11-14T15:57:46Z</time>
      </trkpt>
      <trkpt lat="4.633225" lon="-75.093201">
        <ele>2008.3069</ele>
        <time>2021-11-14T15:57:47Z</time>
      </trkpt>
      <trkpt lat="4.633225" lon="-75.093201">
        <ele>2008.4983</ele>
        <time>2021-11-14T15:57:48Z</time>
      </trkpt>
      <trkpt lat="4.633225" lon="-75.093201">
        <ele>2008.5</ele>
        <time>2021-11-14T15:57:50Z</time>
      </trkpt>
      <trkpt lat="4.633225" lon="-75.093201">
        <ele>2008.5044</ele>
        <time>2021-11-14T15:57:51Z</time>
      </trkpt>
      <trkpt lat="4.633225" lon="-75.093201">
        <ele>2008.5039</ele>
        <time>2021-11-14T15:57:52Z</time>
      </trkpt>
      <trkpt lat="4.633225" lon="-75.093201">
        <ele>2008.5049</ele>
        <time>2021-11-14T15:57:53Z</time>
      </trkpt>
      <trkpt lat="4.633225" lon="-75.093201">
        <ele>2008.5059</ele>
        <time>2021-11-14T15:57:54Z</time>
      </trkpt>
      <trkpt lat="4.633225" lon="-75.093201">
        <ele>2008.5076</ele>
        <time>2021-11-14T15:57:55Z</time>
      </trkpt>
      <trkpt lat="4.633225" lon="-75.093201">
        <ele>2008.5125</ele>
        <time>2021-11-14T15:57:56Z</time>
      </trkpt>
      <trkpt lat="4.633225" lon="-75.093201">
        <ele>2008.5132</ele>
        <time>2021-11-14T15:57:57Z</time>
      </trkpt>
      <trkpt lat="4.633225" lon="-75.093201">
        <ele>2008.5156</ele>
        <time>2021-11-14T15:57:58Z</time>
      </trkpt>
      <trkpt lat="4.633225" lon="-75.093201">
        <ele>2008.522</ele>
        <time>2021-11-14T15:57:59Z</time>
      </trkpt>
      <trkpt lat="4.633225" lon="-75.093201">
        <ele>2008.523</ele>
        <time>2021-11-14T15:58:00Z</time>
      </trkpt>
      <trkpt lat="4.633225" lon="-75.093201">
        <ele>2008.5232</ele>
        <time>2021-11-14T15:58:01Z</time>
      </trkpt>
      <trkpt lat="4.633225" lon="-75.093201">
        <ele>2008.522</ele>
        <time>2021-11-14T15:58:02Z</time>
      </trkpt>
      <trkpt lat="4.633225" lon="-75.093201">
        <ele>2008.5222</ele>
        <time>2021-11-14T15:58:03Z</time>
      </trkpt>
      <trkpt lat="4.633225" lon="-75.093201">
        <ele>2008.52</ele>
        <time>2021-11-14T15:58:04Z</time>
      </trkpt>
      <trkpt lat="4.633225" lon="-75.093201">
        <ele>2008.5198</ele>
        <time>2021-11-14T15:58:05Z</time>
      </trkpt>
      <trkpt lat="4.633225" lon="-75.093201">
        <ele>2008.5212</ele>
        <time>2021-11-14T15:58:06Z</time>
      </trkpt>
      <trkpt lat="4.633225" lon="-75.093201">
        <ele>2008.521</ele>
        <time>2021-11-14T15:58:07Z</time>
      </trkpt>
      <trkpt lat="4.633225" lon="-75.093201">
        <ele>2008.5168</ele>
        <time>2021-11-14T15:58:08Z</time>
      </trkpt>
      <trkpt lat="4.633225" lon="-75.093201">
        <ele>2008.5176</ele>
        <time>2021-11-14T15:58:09Z</time>
      </trkpt>
      <trkpt lat="4.633225" lon="-75.093201">
        <ele>2008.5156</ele>
        <time>2021-11-14T15:58:10Z</time>
      </trkpt>
      <trkpt lat="4.633225" lon="-75.093201">
        <ele>2008.5139</ele>
        <time>2021-11-14T15:58:11Z</time>
      </trkpt>
      <trkpt lat="4.633225" lon="-75.093201">
        <ele>2008.5149</ele>
        <time>2021-11-14T15:58:12Z</time>
      </trkpt>
      <trkpt lat="4.633225" lon="-75.093201">
        <ele>2008.5132</ele>
        <time>2021-11-14T15:58:13Z</time>
      </trkpt>
      <trkpt lat="4.633225" lon="-75.093201">
        <ele>2008.511</ele>
        <time>2021-11-14T15:58:14Z</time>
      </trkpt>
      <trkpt lat="4.633225" lon="-75.093201">
        <ele>2008.5107</ele>
        <time>2021-11-14T15:58:15Z</time>
      </trkpt>
      <trkpt lat="4.633225" lon="-75.093201">
        <ele>2008.5078</ele>
        <time>2021-11-14T15:58:16Z</time>
      </trkpt>
      <trkpt lat="4.633225" lon="-75.093201">
        <ele>2008.5037</ele>
        <time>2021-11-14T15:58:17Z</time>
      </trkpt>
      <trkpt lat="4.633225" lon="-75.093201">
        <ele>2008.5032</ele>
        <time>2021-11-14T15:58:18Z</time>
      </trkpt>
      <trkpt lat="4.633225" lon="-75.093201">
        <ele>2008.5032</ele>
        <time>2021-11-14T15:58:19Z</time>
      </trkpt>
      <trkpt lat="4.633225" lon="-75.093201">
        <ele>2008.4995</ele>
        <time>2021-11-14T15:58:20Z</time>
      </trkpt>
      <trkpt lat="4.633225" lon="-75.093201">
        <ele>2008.5005</ele>
        <time>2021-11-14T15:58:21Z</time>
      </trkpt>
      <trkpt lat="4.633225" lon="-75.093201">
        <ele>2008.4956</ele>
        <time>2021-11-14T15:58:22Z</time>
      </trkpt>
      <trkpt lat="4.633225" lon="-75.093201">
        <ele>2008.4932</ele>
        <time>2021-11-14T15:58:23Z</time>
      </trkpt>
      <trkpt lat="4.633225" lon="-75.093201">
        <ele>2008.4941</ele>
        <time>2021-11-14T15:58:24Z</time>
      </trkpt>
      <trkpt lat="4.633225" lon="-75.093201">
        <ele>2008.4956</ele>
        <time>2021-11-14T15:58:25Z</time>
      </trkpt>
      <trkpt lat="4.633225" lon="-75.093201">
        <ele>2008.4966</ele>
        <time>2021-11-14T15:58:26Z</time>
      </trkpt>
      <trkpt lat="4.633225" lon="-75.093201">
        <ele>2008.4966</ele>
        <time>2021-11-14T15:58:27Z</time>
      </trkpt>
      <trkpt lat="4.633225" lon="-75.093201">
        <ele>2008.4941</ele>
        <time>2021-11-14T15:58:28Z</time>
      </trkpt>
      <trkpt lat="4.633225" lon="-75.093201">
        <ele>2008.4949</ele>
        <time>2021-11-14T15:58:29Z</time>
      </trkpt>
      <trkpt lat="4.633225" lon="-75.093201">
        <ele>2008.4912</ele>
        <time>2021-11-14T15:58:30Z</time>
      </trkpt>
      <trkpt lat="4.633225" lon="-75.093201">
        <ele>2008.4893</ele>
        <time>2021-11-14T15:58:31Z</time>
      </trkpt>
      <trkpt lat="4.633225" lon="-75.093201">
        <ele>2008.4863</ele>
        <time>2021-11-14T15:58:32Z</time>
      </trkpt>
      <trkpt lat="4.633225" lon="-75.093201">
        <ele>2008.4868</ele>
        <time>2021-11-14T15:58:33Z</time>
      </trkpt>
      <trkpt lat="4.633225" lon="-75.093201">
        <ele>2008.4888</ele>
        <time>2021-11-14T15:58:34Z</time>
      </trkpt>
      <trkpt lat="4.633225" lon="-75.093201">
        <ele>2008.4883</ele>
        <time>2021-11-14T15:58:35Z</time>
      </trkpt>
      <trkpt lat="4.633225" lon="-75.093201">
        <ele>2008.4863</ele>
        <time>2021-11-14T15:58:36Z</time>
      </trkpt>
      <trkpt lat="4.633225" lon="-75.093201">
        <ele>2008.4863</ele>
        <time>2021-11-14T15:58:37Z</time>
      </trkpt>
      <trkpt lat="4.633225" lon="-75.093201">
        <ele>2008.4861</ele>
        <time>2021-11-14T15:58:38Z</time>
      </trkpt>
      <trkpt lat="4.633225" lon="-75.093201">
        <ele>2008.4873</ele>
        <time>2021-11-14T15:58:39Z</time>
      </trkpt>
      <trkpt lat="4.633225" lon="-75.093201">
        <ele>2008.4775</ele>
        <time>2021-11-14T15:58:40Z</time>
      </trkpt>
      <trkpt lat="4.633225" lon="-75.093201">
        <ele>2008.4756</ele>
        <time>2021-11-14T15:58:41Z</time>
      </trkpt>
      <trkpt lat="4.633225" lon="-75.093201">
        <ele>2008.4741</ele>
        <time>2021-11-14T15:58:42Z</time>
      </trkpt>
      <trkpt lat="4.633225" lon="-75.093201">
        <ele>2008.4678</ele>
        <time>2021-11-14T15:58:43Z</time>
      </trkpt>
      <trkpt lat="4.633225" lon="-75.093201">
        <ele>2008.4673</ele>
        <time>2021-11-14T15:58:44Z</time>
      </trkpt>
      <trkpt lat="4.633225" lon="-75.093201">
        <ele>2008.4656</ele>
        <time>2021-11-14T15:58:46Z</time>
      </trkpt>
      <trkpt lat="4.633225" lon="-75.093201">
        <ele>2008.4624</ele>
        <time>2021-11-14T15:58:47Z</time>
      </trkpt>
      <trkpt lat="4.633225" lon="-75.093201">
        <ele>2008.4592</ele>
        <time>2021-11-14T15:58:48Z</time>
      </trkpt>
      <trkpt lat="4.633225" lon="-75.093201">
        <ele>2008.456</ele>
        <time>2021-11-14T15:58:49Z</time>
      </trkpt>
      <trkpt lat="4.633225" lon="-75.093201">
        <ele>2008.4541</ele>
        <time>2021-11-14T15:58:50Z</time>
      </trkpt>
      <trkpt lat="4.633225" lon="-75.093201">
        <ele>2008.4502</ele>
        <time>2021-11-14T15:58:51Z</time>
      </trkpt>
      <trkpt lat="4.633225" lon="-75.093201">
        <ele>2008.4453</ele>
        <time>2021-11-14T15:58:52Z</time>
      </trkpt>
      <trkpt lat="4.633225" lon="-75.093201">
        <ele>2008.4446</ele>
        <time>2021-11-14T15:58:53Z</time>
      </trkpt>
      <trkpt lat="4.633225" lon="-75.093201">
        <ele>2008.4424</ele>
        <time>2021-11-14T15:58:54Z</time>
      </trkpt>
      <trkpt lat="4.633225" lon="-75.093201">
        <ele>2008.4387</ele>
        <time>2021-11-14T15:58:55Z</time>
      </trkpt>
      <trkpt lat="4.633225" lon="-75.093201">
        <ele>2008.4365</ele>
        <time>2021-11-14T15:58:56Z</time>
      </trkpt>
      <trkpt lat="4.633225" lon="-75.093201">
        <ele>2008.4346</ele>
        <time>2021-11-14T15:58:57Z</time>
      </trkpt>
      <trkpt lat="4.633225" lon="-75.093201">
        <ele>2008.4331</ele>
        <time>2021-11-14T15:58:58Z</time>
      </trkpt>
      <trkpt lat="4.633225" lon="-75.093201">
        <ele>2008.4336</ele>
        <time>2021-11-14T15:58:59Z</time>
      </trkpt>
      <trkpt lat="4.633225" lon="-75.093201">
        <ele>2008.4336</ele>
        <time>2021-11-14T15:59:00Z</time>
      </trkpt>
      <trkpt lat="4.633225" lon="-75.093201">
        <ele>2008.4297</ele>
        <time>2021-11-14T15:59:01Z</time>
      </trkpt>
      <trkpt lat="4.633225" lon="-75.093201">
        <ele>2008.4253</ele>
        <time>2021-11-14T15:59:02Z</time>
      </trkpt>
      <trkpt lat="4.633225" lon="-75.093201">
        <ele>2008.4199</ele>
        <time>2021-11-14T15:59:03Z</time>
      </trkpt>
      <trkpt lat="4.633225" lon="-75.093201">
        <ele>2008.4104</ele>
        <time>2021-11-14T15:59:04Z</time>
      </trkpt>
      <trkpt lat="4.633225" lon="-75.093201">
        <ele>2008.4077</ele>
        <time>2021-11-14T15:59:05Z</time>
      </trkpt>
      <trkpt lat="4.633225" lon="-75.093201">
        <ele>2008.4094</ele>
        <time>2021-11-14T15:59:06Z</time>
      </trkpt>
      <trkpt lat="4.633225" lon="-75.093201">
        <ele>2008.4084</ele>
        <time>2021-11-14T15:59:07Z</time>
      </trkpt>
      <trkpt lat="4.633225" lon="-75.093201">
        <ele>2008.4106</ele>
        <time>2021-11-14T15:59:08Z</time>
      </trkpt>
      <trkpt lat="4.633225" lon="-75.093201">
        <ele>2008.4097</ele>
        <time>2021-11-14T15:59:09Z</time>
      </trkpt>
      <trkpt lat="4.633225" lon="-75.093201">
        <ele>2008.0259</ele>
        <time>2021-11-14T15:59:10Z</time>
      </trkpt>
      <trkpt lat="4.63325" lon="-75.093178">
        <ele>2009.0535</ele>
        <time>2021-11-14T15:59:11Z</time>
      </trkpt>
      <trkpt lat="4.633294" lon="-75.093147">
        <ele>2009.3057</ele>
        <time>2021-11-14T15:59:12Z</time>
      </trkpt>
      <trkpt lat="4.633294" lon="-75.093147">
        <ele>2009.697</ele>
        <time>2021-11-14T15:59:13Z</time>
      </trkpt>
      <trkpt lat="4.633343" lon="-75.093109">
        <ele>2008.2136</ele>
        <time>2021-11-14T15:59:14Z</time>
      </trkpt>
      <trkpt lat="4.633418" lon="-75.093048">
        <ele>2007.021</ele>
        <time>2021-11-14T15:59:15Z</time>
      </trkpt>
      <trkpt lat="4.633461" lon="-75.093018">
        <ele>2006.3181</ele>
        <time>2021-11-14T15:59:16Z</time>
      </trkpt>
      <trkpt lat="4.633506" lon="-75.092987">
        <ele>2006.6321</ele>
        <time>2021-11-14T15:59:17Z</time>
      </trkpt>
      <trkpt lat="4.633575" lon="-75.092934">
        <ele>2006.0586</ele>
        <time>2021-11-14T15:59:18Z</time>
      </trkpt>
      <trkpt lat="4.633654" lon="-75.092873">
        <ele>2005.9131</ele>
        <time>2021-11-14T15:59:19Z</time>
      </trkpt>
      <trkpt lat="4.633721" lon="-75.092827">
        <ele>2006.0195</ele>
        <time>2021-11-14T15:59:20Z</time>
      </trkpt>
      <trkpt lat="4.633721" lon="-75.092827">
        <ele>2005.79</ele>
        <time>2021-11-14T15:59:21Z</time>
      </trkpt>
      <trkpt lat="4.633759" lon="-75.092804">
        <ele>2005.7104</ele>
        <time>2021-11-14T15:59:22Z</time>
      </trkpt>
      <trkpt lat="4.633843" lon="-75.092766">
        <ele>2005.2197</ele>
        <time>2021-11-14T15:59:23Z</time>
      </trkpt>
      <trkpt lat="4.63391" lon="-75.092728">
        <ele>2005.7461</ele>
        <time>2021-11-14T15:59:24Z</time>
      </trkpt>
      <trkpt lat="4.633924" lon="-75.09272">
        <ele>2006.0029</ele>
        <time>2021-11-14T15:59:25Z</time>
      </trkpt>
      <trkpt lat="4.63396" lon="-75.092705">
        <ele>2005.6262</ele>
        <time>2021-11-14T15:59:26Z</time>
      </trkpt>
      <trkpt lat="4.633985" lon="-75.09269">
        <ele>2005.9246</ele>
        <time>2021-11-14T15:59:27Z</time>
      </trkpt>
      <trkpt lat="4.634016" lon="-75.092674">
        <ele>2005.78</ele>
        <time>2021-11-14T15:59:28Z</time>
      </trkpt>
      <trkpt lat="4.634108" lon="-75.092621">
        <ele>2005.7383</ele>
        <time>2021-11-14T15:59:29Z</time>
      </trkpt>
      <trkpt lat="4.634155" lon="-75.092598">
        <ele>2005.9897</ele>
        <time>2021-11-14T15:59:30Z</time>
      </trkpt>
      <trkpt lat="4.634176" lon="-75.092583">
        <ele>2007.1287</ele>
        <time>2021-11-14T15:59:31Z</time>
      </trkpt>
      <trkpt lat="4.634244" lon="-75.092545">
        <ele>2007.2192</ele>
        <time>2021-11-14T15:59:32Z</time>
      </trkpt>
      <trkpt lat="4.634334" lon="-75.092484">
        <ele>2006.5708</ele>
        <time>2021-11-14T15:59:33Z</time>
      </trkpt>
      <trkpt lat="4.634403" lon="-75.092445">
        <ele>2006.0845</ele>
        <time>2021-11-14T15:59:34Z</time>
      </trkpt>
      <trkpt lat="4.634501" lon="-75.092377">
        <ele>2005.4077</ele>
        <time>2021-11-14T15:59:35Z</time>
      </trkpt>
      <trkpt lat="4.634551" lon="-75.092346">
        <ele>2004.6709</ele>
        <time>2021-11-14T15:59:36Z</time>
      </trkpt>
      <trkpt lat="4.634612" lon="-75.092308">
        <ele>2003.0999</ele>
        <time>2021-11-14T15:59:37Z</time>
      </trkpt>
      <trkpt lat="4.634812" lon="-75.092606">
        <ele>2002.6235</ele>
        <time>2021-11-14T15:59:38Z</time>
      </trkpt>
      <trkpt lat="4.634909" lon="-75.09259">
        <ele>2001.6567</ele>
        <time>2021-11-14T15:59:40Z</time>
      </trkpt>
      <trkpt lat="4.635012" lon="-75.092575">
        <ele>2001.1438</ele>
        <time>2021-11-14T15:59:41Z</time>
      </trkpt>
      <trkpt lat="4.635115" lon="-75.092567">
        <ele>1999.7134</ele>
        <time>2021-11-14T15:59:42Z</time>
      </trkpt>
      <trkpt lat="4.635202" lon="-75.092552">
        <ele>1997.9521</ele>
        <time>2021-11-14T15:59:43Z</time>
      </trkpt>
      <trkpt lat="4.635311" lon="-75.092522">
        <ele>1996.6294</ele>
        <time>2021-11-14T15:59:44Z</time>
      </trkpt>
      <trkpt lat="4.635466" lon="-75.092476">
        <ele>1996.1187</ele>
        <time>2021-11-14T15:59:45Z</time>
      </trkpt>
      <trkpt lat="4.635562" lon="-75.092453">
        <ele>1995.4004</ele>
        <time>2021-11-14T15:59:46Z</time>
      </trkpt>
      <trkpt lat="4.635699" lon="-75.092415">
        <ele>1994.459</ele>
        <time>2021-11-14T15:59:47Z</time>
      </trkpt>
      <trkpt lat="4.635813" lon="-75.092361">
        <ele>1994.0911</ele>
        <time>2021-11-14T15:59:48Z</time>
      </trkpt>
      <trkpt lat="4.635925" lon="-75.0923">
        <ele>1993.7764</ele>
        <time>2021-11-14T15:59:49Z</time>
      </trkpt>
      <trkpt lat="4.636061" lon="-75.092194">
        <ele>1991.5815</ele>
        <time>2021-11-14T15:59:50Z</time>
      </trkpt>
      <trkpt lat="4.636166" lon="-75.092087">
        <ele>1991.6157</ele>
        <time>2021-11-14T15:59:51Z</time>
      </trkpt>
      <trkpt lat="4.636225" lon="-75.092033">
        <ele>1990.0581</ele>
        <time>2021-11-14T15:59:52Z</time>
      </trkpt>
      <trkpt lat="4.636285" lon="-75.091972">
        <ele>1988.0437</ele>
        <time>2021-11-14T15:59:53Z</time>
      </trkpt>
      <trkpt lat="4.636339" lon="-75.091911">
        <ele>1987.6206</ele>
        <time>2021-11-14T15:59:54Z</time>
      </trkpt>
      <trkpt lat="4.636385" lon="-75.091835">
        <ele>1986.9126</ele>
        <time>2021-11-14T15:59:55Z</time>
      </trkpt>
      <trkpt lat="4.636425" lon="-75.091766">
        <ele>1986.0288</ele>
        <time>2021-11-14T15:59:56Z</time>
      </trkpt>
      <trkpt lat="4.636489" lon="-75.091667">
        <ele>1985.5103</ele>
        <time>2021-11-14T15:59:57Z</time>
      </trkpt>
      <trkpt lat="4.636489" lon="-75.091667">
        <ele>1983.0825</ele>
        <time>2021-11-14T15:59:58Z</time>
      </trkpt>
      <trkpt lat="4.63656" lon="-75.091545">
        <ele>1981.949</ele>
        <time>2021-11-14T15:59:59Z</time>
      </trkpt>
      <trkpt lat="4.636641" lon="-75.091408">
        <ele>1979.7102</ele>
        <time>2021-11-14T16:00:00Z</time>
      </trkpt>
      <trkpt lat="4.636681" lon="-75.091278">
        <ele>1977.447</ele>
        <time>2021-11-14T16:00:01Z</time>
      </trkpt>
      <trkpt lat="4.636717" lon="-75.091164">
        <ele>1975.9114</ele>
        <time>2021-11-14T16:00:02Z</time>
      </trkpt>
      <trkpt lat="4.63676" lon="-75.091026">
        <ele>1975.3354</ele>
        <time>2021-11-14T16:00:03Z</time>
      </trkpt>
      <trkpt lat="4.636799" lon="-75.090897">
        <ele>1973.5757</ele>
        <time>2021-11-14T16:00:04Z</time>
      </trkpt>
      <trkpt lat="4.636829" lon="-75.090797">
        <ele>1972.5891</ele>
        <time>2021-11-14T16:00:05Z</time>
      </trkpt>
      <trkpt lat="4.636861" lon="-75.090698">
        <ele>1971.6873</ele>
        <time>2021-11-14T16:00:06Z</time>
      </trkpt>
      <trkpt lat="4.636888" lon="-75.090607">
        <ele>1970.7786</ele>
        <time>2021-11-14T16:00:07Z</time>
      </trkpt>
      <trkpt lat="4.636927" lon="-75.090553">
        <ele>1970.291</ele>
        <time>2021-11-14T16:00:08Z</time>
      </trkpt>
      <trkpt lat="4.636955" lon="-75.090515">
        <ele>1968.7434</ele>
        <time>2021-11-14T16:00:09Z</time>
      </trkpt>
      <trkpt lat="4.636976" lon="-75.090492">
        <ele>1968.6963</ele>
        <time>2021-11-14T16:00:10Z</time>
      </trkpt>
      <trkpt lat="4.637035" lon="-75.090416">
        <ele>1968.3887</ele>
        <time>2021-11-14T16:00:11Z</time>
      </trkpt>
      <trkpt lat="4.637121" lon="-75.090309">
        <ele>1967.7036</ele>
        <time>2021-11-14T16:00:12Z</time>
      </trkpt>
      <trkpt lat="4.637171" lon="-75.09024">
        <ele>1967.678</ele>
        <time>2021-11-14T16:00:13Z</time>
      </trkpt>
      <trkpt lat="4.637224" lon="-75.090164">
        <ele>1967.52</ele>
        <time>2021-11-14T16:00:14Z</time>
      </trkpt>
      <trkpt lat="4.63727" lon="-75.09008">
        <ele>1966.6968</ele>
        <time>2021-11-14T16:00:15Z</time>
      </trkpt>
      <trkpt lat="4.637298" lon="-75.090027">
        <ele>1966.8452</ele>
        <time>2021-11-14T16:00:16Z</time>
      </trkpt>
      <trkpt lat="4.637316" lon="-75.089981">
        <ele>1966.332</ele>
        <time>2021-11-14T16:00:17Z</time>
      </trkpt>
      <trkpt lat="4.637334" lon="-75.089935">
        <ele>1965.6301</ele>
        <time>2021-11-14T16:00:18Z</time>
      </trkpt>
      <trkpt lat="4.637342" lon="-75.089912">
        <ele>1965.3733</ele>
        <time>2021-11-14T16:00:19Z</time>
      </trkpt>
      <trkpt lat="4.637353" lon="-75.08989">
        <ele>1964.2808</ele>
        <time>2021-11-14T16:00:20Z</time>
      </trkpt>
      <trkpt lat="4.637385" lon="-75.089806">
        <ele>1963.2676</ele>
        <time>2021-11-14T16:00:21Z</time>
      </trkpt>
      <trkpt lat="4.637416" lon="-75.089691">
        <ele>1962.8625</ele>
        <time>2021-11-14T16:00:22Z</time>
      </trkpt>
      <trkpt lat="4.637435" lon="-75.089622">
        <ele>1961.6685</ele>
        <time>2021-11-14T16:00:23Z</time>
      </trkpt>
      <trkpt lat="4.637444" lon="-75.089592">
        <ele>1961.1587</ele>
        <time>2021-11-14T16:00:24Z</time>
      </trkpt>
      <trkpt lat="4.637453" lon="-75.089554">
        <ele>1960.0876</ele>
        <time>2021-11-14T16:00:25Z</time>
      </trkpt>
      <trkpt lat="4.63746" lon="-75.089531">
        <ele>1959.645</ele>
        <time>2021-11-14T16:00:26Z</time>
      </trkpt>
      <trkpt lat="4.637465" lon="-75.089508">
        <ele>1958.8218</ele>
        <time>2021-11-14T16:00:27Z</time>
      </trkpt>
      <trkpt lat="4.637494" lon="-75.089386">
        <ele>1957.9087</ele>
        <time>2021-11-14T16:00:28Z</time>
      </trkpt>
      <trkpt lat="4.637512" lon="-75.089272">
        <ele>1957.5039</ele>
        <time>2021-11-14T16:00:29Z</time>
      </trkpt>
      <trkpt lat="4.637512" lon="-75.089272">
        <ele>1957.3655</ele>
        <time>2021-11-14T16:00:30Z</time>
      </trkpt>
      <trkpt lat="4.637518" lon="-75.089241">
        <ele>1957.0845</ele>
        <time>2021-11-14T16:00:31Z</time>
      </trkpt>
      <trkpt lat="4.637519" lon="-75.089233">
        <ele>1956.8301</ele>
        <time>2021-11-14T16:00:32Z</time>
      </trkpt>
      <trkpt lat="4.637523" lon="-75.089211">
        <ele>1956.0383</ele>
        <time>2021-11-14T16:00:33Z</time>
      </trkpt>
      <trkpt lat="4.637533" lon="-75.089149">
        <ele>1955.3513</ele>
        <time>2021-11-14T16:00:34Z</time>
      </trkpt>
      <trkpt lat="4.637556" lon="-75.089005">
        <ele>1955.0791</ele>
        <time>2021-11-14T16:00:35Z</time>
      </trkpt>
      <trkpt lat="4.637582" lon="-75.088867">
        <ele>1954.2554</ele>
        <time>2021-11-14T16:00:36Z</time>
      </trkpt>
      <trkpt lat="4.637614" lon="-75.08876">
        <ele>1953.9802</ele>
        <time>2021-11-14T16:00:37Z</time>
      </trkpt>
      <trkpt lat="4.637635" lon="-75.088684">
        <ele>1953.3462</ele>
        <time>2021-11-14T16:00:39Z</time>
      </trkpt>
      <trkpt lat="4.637672" lon="-75.088608">
        <ele>1952.9434</ele>
        <time>2021-11-14T16:00:40Z</time>
      </trkpt>
      <trkpt lat="4.637743" lon="-75.088493">
        <ele>1954.0369</ele>
        <time>2021-11-14T16:00:41Z</time>
      </trkpt>
      <trkpt lat="4.637791" lon="-75.088425">
        <ele>1954.2148</ele>
        <time>2021-11-14T16:00:42Z</time>
      </trkpt>
      <trkpt lat="4.637859" lon="-75.088333">
        <ele>1954.1555</ele>
        <time>2021-11-14T16:00:43Z</time>
      </trkpt>
      <trkpt lat="4.637896" lon="-75.08828">
        <ele>1954.7393</ele>
        <time>2021-11-14T16:00:44Z</time>
      </trkpt>
      <trkpt lat="4.637932" lon="-75.088234">
        <ele>1954.0312</ele>
        <time>2021-11-14T16:00:45Z</time>
      </trkpt>
      <trkpt lat="4.637983" lon="-75.08815">
        <ele>1954.2607</ele>
        <time>2021-11-14T16:00:46Z</time>
      </trkpt>
      <trkpt lat="4.638021" lon="-75.088066">
        <ele>1954.1384</ele>
        <time>2021-11-14T16:00:47Z</time>
      </trkpt>
      <trkpt lat="4.63806" lon="-75.08799">
        <ele>1953.8203</ele>
        <time>2021-11-14T16:00:48Z</time>
      </trkpt>
      <trkpt lat="4.638099" lon="-75.087906">
        <ele>1953.4531</ele>
        <time>2021-11-14T16:00:49Z</time>
      </trkpt>
      <trkpt lat="4.638147" lon="-75.08783">
        <ele>1953.2148</ele>
        <time>2021-11-14T16:00:50Z</time>
      </trkpt>
      <trkpt lat="4.638188" lon="-75.087784">
        <ele>1952.6328</ele>
        <time>2021-11-14T16:00:51Z</time>
      </trkpt>
      <trkpt lat="4.638242" lon="-75.08773">
        <ele>1952.3418</ele>
        <time>2021-11-14T16:00:52Z</time>
      </trkpt>
      <trkpt lat="4.638309" lon="-75.087685">
        <ele>1951.9751</ele>
        <time>2021-11-14T16:00:53Z</time>
      </trkpt>
      <trkpt lat="4.638383" lon="-75.087631">
        <ele>1951.8416</ele>
        <time>2021-11-14T16:00:54Z</time>
      </trkpt>
      <trkpt lat="4.638498" lon="-75.087563">
        <ele>1951.748</ele>
        <time>2021-11-14T16:00:55Z</time>
      </trkpt>
      <trkpt lat="4.638594" lon="-75.087509">
        <ele>1951.5735</ele>
        <time>2021-11-14T16:00:56Z</time>
      </trkpt>
      <trkpt lat="4.638671" lon="-75.087463">
        <ele>1951.4512</ele>
        <time>2021-11-14T16:00:57Z</time>
      </trkpt>
      <trkpt lat="4.638737" lon="-75.087425">
        <ele>1950.7883</ele>
        <time>2021-11-14T16:00:58Z</time>
      </trkpt>
      <trkpt lat="4.638823" lon="-75.087379">
        <ele>1951.7935</ele>
        <time>2021-11-14T16:00:59Z</time>
      </trkpt>
      <trkpt lat="4.638877" lon="-75.087349">
        <ele>1951.5054</ele>
        <time>2021-11-14T16:01:00Z</time>
      </trkpt>
      <trkpt lat="4.63893" lon="-75.087318">
        <ele>1952.302</ele>
        <time>2021-11-14T16:01:01Z</time>
      </trkpt>
      <trkpt lat="4.638954" lon="-75.087311">
        <ele>1952.742</ele>
        <time>2021-11-14T16:01:02Z</time>
      </trkpt>
      <trkpt lat="4.638954" lon="-75.087311">
        <ele>1952.5679</ele>
        <time>2021-11-14T16:01:03Z</time>
      </trkpt>
      <trkpt lat="4.638976" lon="-75.087296">
        <ele>1952.1023</ele>
        <time>2021-11-14T16:01:04Z</time>
      </trkpt>
      <trkpt lat="4.639004" lon="-75.08728">
        <ele>1953.5728</ele>
        <time>2021-11-14T16:01:05Z</time>
      </trkpt>
      <trkpt lat="4.639025" lon="-75.087265">
        <ele>1953.7119</ele>
        <time>2021-11-14T16:01:06Z</time>
      </trkpt>
      <trkpt lat="4.639118" lon="-75.087189">
        <ele>1954.0635</ele>
        <time>2021-11-14T16:01:07Z</time>
      </trkpt>
      <trkpt lat="4.639201" lon="-75.087105">
        <ele>1953.6519</ele>
        <time>2021-11-14T16:01:08Z</time>
      </trkpt>
      <trkpt lat="4.639243" lon="-75.087059">
        <ele>1953.4282</ele>
        <time>2021-11-14T16:01:09Z</time>
      </trkpt>
      <trkpt lat="4.639274" lon="-75.087021">
        <ele>1953.4902</ele>
        <time>2021-11-14T16:01:10Z</time>
      </trkpt>
      <trkpt lat="4.639285" lon="-75.087006">
        <ele>1953.8359</ele>
        <time>2021-11-14T16:01:11Z</time>
      </trkpt>
      <trkpt lat="4.639309" lon="-75.086975">
        <ele>1953.8477</ele>
        <time>2021-11-14T16:01:12Z</time>
      </trkpt>
      <trkpt lat="4.639316" lon="-75.086967">
        <ele>1953.918</ele>
        <time>2021-11-14T16:01:13Z</time>
      </trkpt>
      <trkpt lat="4.639316" lon="-75.086967">
        <ele>1953.0901</ele>
        <time>2021-11-14T16:01:14Z</time>
      </trkpt>
      <trkpt lat="4.639316" lon="-75.086967">
        <ele>1953.0264</ele>
        <time>2021-11-14T16:01:15Z</time>
      </trkpt>
      <trkpt lat="4.639316" lon="-75.086967">
        <ele>1953.0713</ele>
        <time>2021-11-14T16:01:16Z</time>
      </trkpt>
      <trkpt lat="4.639316" lon="-75.086967">
        <ele>1952.9082</ele>
        <time>2021-11-14T16:01:17Z</time>
      </trkpt>
      <trkpt lat="4.639316" lon="-75.086967">
        <ele>1952.7969</ele>
        <time>2021-11-14T16:01:18Z</time>
      </trkpt>
      <trkpt lat="4.639316" lon="-75.086967">
        <ele>1952.9395</ele>
        <time>2021-11-14T16:01:19Z</time>
      </trkpt>
      <trkpt lat="4.639316" lon="-75.086967">
        <ele>1952.708</ele>
        <time>2021-11-14T16:01:20Z</time>
      </trkpt>
      <trkpt lat="4.639316" lon="-75.086967">
        <ele>1952.9868</ele>
        <time>2021-11-14T16:01:21Z</time>
      </trkpt>
      <trkpt lat="4.639316" lon="-75.086967">
        <ele>1952.731</ele>
        <time>2021-11-14T16:01:22Z</time>
      </trkpt>
      <trkpt lat="4.639316" lon="-75.086967">
        <ele>1952.8364</ele>
        <time>2021-11-14T16:01:23Z</time>
      </trkpt>
      <trkpt lat="4.639316" lon="-75.086967">
        <ele>1952.8516</ele>
        <time>2021-11-14T16:01:24Z</time>
      </trkpt>
      <trkpt lat="4.639316" lon="-75.086967">
        <ele>1952.894</ele>
        <time>2021-11-14T16:01:25Z</time>
      </trkpt>
      <trkpt lat="4.639316" lon="-75.086967">
        <ele>1952.918</ele>
        <time>2021-11-14T16:01:26Z</time>
      </trkpt>
      <trkpt lat="4.639316" lon="-75.086967">
        <ele>1952.917</ele>
        <time>2021-11-14T16:01:27Z</time>
      </trkpt>
      <trkpt lat="4.639316" lon="-75.086967">
        <ele>1952.8796</ele>
        <time>2021-11-14T16:01:28Z</time>
      </trkpt>
      <trkpt lat="4.639316" lon="-75.086967">
        <ele>1952.8811</ele>
        <time>2021-11-14T16:01:29Z</time>
      </trkpt>
      <trkpt lat="4.639316" lon="-75.086967">
        <ele>1952.6836</ele>
        <time>2021-11-14T16:01:30Z</time>
      </trkpt>
      <trkpt lat="4.639316" lon="-75.086967">
        <ele>1952.5029</ele>
        <time>2021-11-14T16:01:31Z</time>
      </trkpt>
      <trkpt lat="4.639316" lon="-75.086967">
        <ele>1952.0259</ele>
        <time>2021-11-14T16:01:32Z</time>
      </trkpt>
      <trkpt lat="4.639413" lon="-75.086845">
        <ele>1951.98</ele>
        <time>2021-11-14T16:01:33Z</time>
      </trkpt>
      <trkpt lat="4.63947" lon="-75.086777">
        <ele>1951.7429</ele>
        <time>2021-11-14T16:01:34Z</time>
      </trkpt>
      <trkpt lat="4.63952" lon="-75.086716">
        <ele>1951.2686</ele>
        <time>2021-11-14T16:01:35Z</time>
      </trkpt>
      <trkpt lat="4.639573" lon="-75.086647">
        <ele>1950.6667</ele>
        <time>2021-11-14T16:01:36Z</time>
      </trkpt>
      <trkpt lat="4.639573" lon="-75.086647">
        <ele>1949.5061</ele>
        <time>2021-11-14T16:01:37Z</time>
      </trkpt>
      <trkpt lat="4.639624" lon="-75.086586">
        <ele>1948.3247</ele>
        <time>2021-11-14T16:01:38Z</time>
      </trkpt>
      <trkpt lat="4.639727" lon="-75.086479">
        <ele>1947.6274</ele>
        <time>2021-11-14T16:01:39Z</time>
      </trkpt>
      <trkpt lat="4.639845" lon="-75.08638">
        <ele>1946.561</ele>
        <time>2021-11-14T16:01:40Z</time>
      </trkpt>
      <trkpt lat="4.639923" lon="-75.086334">
        <ele>1946.0308</ele>
        <time>2021-11-14T16:01:41Z</time>
      </trkpt>
      <trkpt lat="4.64007" lon="-75.08625">
        <ele>1946.4548</ele>
        <time>2021-11-14T16:01:42Z</time>
      </trkpt>
      <trkpt lat="4.64018" lon="-75.086197">
        <ele>1945.6895</ele>
        <time>2021-11-14T16:01:43Z</time>
      </trkpt>
      <trkpt lat="4.640337" lon="-75.086121">
        <ele>1945.7781</ele>
        <time>2021-11-14T16:01:44Z</time>
      </trkpt>
      <trkpt lat="4.640482" lon="-75.086044">
        <ele>1945.0486</ele>
        <time>2021-11-14T16:01:45Z</time>
      </trkpt>
      <trkpt lat="4.640636" lon="-75.085968">
        <ele>1944.5371</ele>
        <time>2021-11-14T16:01:46Z</time>
      </trkpt>
      <trkpt lat="4.64074" lon="-75.085915">
        <ele>1944.4434</ele>
        <time>2021-11-14T16:01:47Z</time>
      </trkpt>
      <trkpt lat="4.640884" lon="-75.085831">
        <ele>1944.0029</ele>
        <time>2021-11-14T16:01:49Z</time>
      </trkpt>
      <trkpt lat="4.640982" lon="-75.08577">
        <ele>1943.9941</ele>
        <time>2021-11-14T16:01:50Z</time>
      </trkpt>
      <trkpt lat="4.641061" lon="-75.085693">
        <ele>1942.706</ele>
        <time>2021-11-14T16:01:51Z</time>
      </trkpt>
      <trkpt lat="4.641099" lon="-75.085632">
        <ele>1942.3716</ele>
        <time>2021-11-14T16:01:52Z</time>
      </trkpt>
      <trkpt lat="4.641122" lon="-75.085533">
        <ele>1939.5693</ele>
        <time>2021-11-14T16:01:53Z</time>
      </trkpt>
      <trkpt lat="4.641112" lon="-75.085419">
        <ele>1938.887</ele>
        <time>2021-11-14T16:01:54Z</time>
      </trkpt>
      <trkpt lat="4.64106" lon="-75.085289">
        <ele>1937.8677</ele>
        <time>2021-11-14T16:01:55Z</time>
      </trkpt>
      <trkpt lat="4.640997" lon="-75.085167">
        <ele>1937.2952</ele>
        <time>2021-11-14T16:01:56Z</time>
      </trkpt>
      <trkpt lat="4.640949" lon="-75.085014">
        <ele>1936.1885</ele>
        <time>2021-11-14T16:01:57Z</time>
      </trkpt>
      <trkpt lat="4.640937" lon="-75.084877">
        <ele>1936.6052</ele>
        <time>2021-11-14T16:01:58Z</time>
      </trkpt>
      <trkpt lat="4.640931" lon="-75.084763">
        <ele>1936.5525</ele>
        <time>2021-11-14T16:01:59Z</time>
      </trkpt>
      <trkpt lat="4.640933" lon="-75.084595">
        <ele>1935.5957</ele>
        <time>2021-11-14T16:02:00Z</time>
      </trkpt>
      <trkpt lat="4.640939" lon="-75.084419">
        <ele>1935.4839</ele>
        <time>2021-11-14T16:02:01Z</time>
      </trkpt>
      <trkpt lat="4.640917" lon="-75.084251">
        <ele>1935.2693</ele>
        <time>2021-11-14T16:02:02Z</time>
      </trkpt>
      <trkpt lat="4.640917" lon="-75.084251">
        <ele>1934.6799</ele>
        <time>2021-11-14T16:02:03Z</time>
      </trkpt>
      <trkpt lat="4.640853" lon="-75.084099">
        <ele>1934.2349</ele>
        <time>2021-11-14T16:02:04Z</time>
      </trkpt>
      <trkpt lat="4.640811" lon="-75.083984">
        <ele>1934.0752</ele>
        <time>2021-11-14T16:02:05Z</time>
      </trkpt>
      <trkpt lat="4.640808" lon="-75.08387">
        <ele>1933.5374</ele>
        <time>2021-11-14T16:02:06Z</time>
      </trkpt>
      <trkpt lat="4.640846" lon="-75.083755">
        <ele>1932.8789</ele>
        <time>2021-11-14T16:02:07Z</time>
      </trkpt>
      <trkpt lat="4.640902" lon="-75.083656">
        <ele>1931.5669</ele>
        <time>2021-11-14T16:02:08Z</time>
      </trkpt>
      <trkpt lat="4.641019" lon="-75.083565">
        <ele>1931.6013</ele>
        <time>2021-11-14T16:02:09Z</time>
      </trkpt>
      <trkpt lat="4.641172" lon="-75.083542">
        <ele>1929.2207</ele>
        <time>2021-11-14T16:02:10Z</time>
      </trkpt>
      <trkpt lat="4.641273" lon="-75.083534">
        <ele>1928.3911</ele>
        <time>2021-11-14T16:02:11Z</time>
      </trkpt>
      <trkpt lat="4.641497" lon="-75.083511">
        <ele>1930.135</ele>
        <time>2021-11-14T16:02:12Z</time>
      </trkpt>
      <trkpt lat="4.641521" lon="-75.083504">
        <ele>1929.7686</ele>
        <time>2021-11-14T16:02:13Z</time>
      </trkpt>
      <trkpt lat="4.641568" lon="-75.083504">
        <ele>1929.7961</ele>
        <time>2021-11-14T16:02:14Z</time>
      </trkpt>
      <trkpt lat="4.641622" lon="-75.083496">
        <ele>1929.388</ele>
        <time>2021-11-14T16:02:15Z</time>
      </trkpt>
      <trkpt lat="4.641717" lon="-75.083481">
        <ele>1929.4937</ele>
        <time>2021-11-14T16:02:16Z</time>
      </trkpt>
      <trkpt lat="4.641836" lon="-75.083466">
        <ele>1929.564</ele>
        <time>2021-11-14T16:02:17Z</time>
      </trkpt>
      <trkpt lat="4.641905" lon="-75.08345">
        <ele>1928.2686</ele>
        <time>2021-11-14T16:02:18Z</time>
      </trkpt>
      <trkpt lat="4.641985" lon="-75.08342">
        <ele>1927.4727</ele>
        <time>2021-11-14T16:02:19Z</time>
      </trkpt>
      <trkpt lat="4.642057" lon="-75.083382">
        <ele>1927.2866</ele>
        <time>2021-11-14T16:02:20Z</time>
      </trkpt>
      <trkpt lat="4.642111" lon="-75.083328">
        <ele>1926.5996</ele>
        <time>2021-11-14T16:02:21Z</time>
      </trkpt>
      <trkpt lat="4.642171" lon="-75.083237">
        <ele>1926.6016</ele>
        <time>2021-11-14T16:02:22Z</time>
      </trkpt>
      <trkpt lat="4.642203" lon="-75.083138">
        <ele>1925.9932</ele>
        <time>2021-11-14T16:02:23Z</time>
      </trkpt>
      <trkpt lat="4.642224" lon="-75.083008">
        <ele>1925.4707</ele>
        <time>2021-11-14T16:02:24Z</time>
      </trkpt>
      <trkpt lat="4.642237" lon="-75.082909">
        <ele>1925.0891</ele>
        <time>2021-11-14T16:02:25Z</time>
      </trkpt>
      <trkpt lat="4.642249" lon="-75.082809">
        <ele>1924.5281</ele>
        <time>2021-11-14T16:02:26Z</time>
      </trkpt>
      <trkpt lat="4.642249" lon="-75.082809">
        <ele>1924.606</ele>
        <time>2021-11-14T16:02:27Z</time>
      </trkpt>
      <trkpt lat="4.642276" lon="-75.08271">
        <ele>1924.6667</ele>
        <time>2021-11-14T16:02:28Z</time>
      </trkpt>
      <trkpt lat="4.642302" lon="-75.082611">
        <ele>1924.2656</ele>
        <time>2021-11-14T16:02:29Z</time>
      </trkpt>
      <trkpt lat="4.642339" lon="-75.082512">
        <ele>1924.5371</ele>
        <time>2021-11-14T16:02:30Z</time>
      </trkpt>
      <trkpt lat="4.642398" lon="-75.08242">
        <ele>1923.8721</ele>
        <time>2021-11-14T16:02:31Z</time>
      </trkpt>
      <trkpt lat="4.642458" lon="-75.082375">
        <ele>1922.5669</ele>
        <time>2021-11-14T16:02:32Z</time>
      </trkpt>
      <trkpt lat="4.642633" lon="-75.082321">
        <ele>1920.104</ele>
        <time>2021-11-14T16:02:33Z</time>
      </trkpt>
      <trkpt lat="4.642762" lon="-75.082314">
        <ele>1920.7454</ele>
        <time>2021-11-14T16:02:34Z</time>
      </trkpt>
      <trkpt lat="4.642867" lon="-75.082329">
        <ele>1919.8179</ele>
        <time>2021-11-14T16:02:35Z</time>
      </trkpt>
      <trkpt lat="4.642985" lon="-75.08239">
        <ele>1920.074</ele>
        <time>2021-11-14T16:02:36Z</time>
      </trkpt>
      <trkpt lat="4.643038" lon="-75.082458">
        <ele>1918.2979</ele>
        <time>2021-11-14T16:02:37Z</time>
      </trkpt>
      <trkpt lat="4.643066" lon="-75.082581">
        <ele>1917.5117</ele>
        <time>2021-11-14T16:02:38Z</time>
      </trkpt>
      <trkpt lat="4.643077" lon="-75.082703">
        <ele>1918.3022</ele>
        <time>2021-11-14T16:02:39Z</time>
      </trkpt>
      <trkpt lat="4.643071" lon="-75.082794">
        <ele>1918.7476</ele>
        <time>2021-11-14T16:02:40Z</time>
      </trkpt>
      <trkpt lat="4.643064" lon="-75.082932">
        <ele>1918.6216</ele>
        <time>2021-11-14T16:02:42Z</time>
      </trkpt>
      <trkpt lat="4.643106" lon="-75.083008">
        <ele>1918.2927</ele>
        <time>2021-11-14T16:02:43Z</time>
      </trkpt>
      <trkpt lat="4.643144" lon="-75.083061">
        <ele>1918.625</ele>
        <time>2021-11-14T16:02:44Z</time>
      </trkpt>
      <trkpt lat="4.643191" lon="-75.083107">
        <ele>1918.3838</ele>
        <time>2021-11-14T16:02:45Z</time>
      </trkpt>
      <trkpt lat="4.643251" lon="-75.083138">
        <ele>1919.0156</ele>
        <time>2021-11-14T16:02:46Z</time>
      </trkpt>
      <trkpt lat="4.643303" lon="-75.083138">
        <ele>1919.3877</ele>
        <time>2021-11-14T16:02:47Z</time>
      </trkpt>
      <trkpt lat="4.643386" lon="-75.083122">
        <ele>1919.7681</ele>
        <time>2021-11-14T16:02:48Z</time>
      </trkpt>
      <trkpt lat="4.643482" lon="-75.083084">
        <ele>1919.8906</ele>
        <time>2021-11-14T16:02:49Z</time>
      </trkpt>
      <trkpt lat="4.643557" lon="-75.083054">
        <ele>1918.9331</ele>
        <time>2021-11-14T16:02:50Z</time>
      </trkpt>
      <trkpt lat="4.643703" lon="-75.083">
        <ele>1919.2158</ele>
        <time>2021-11-14T16:02:51Z</time>
      </trkpt>
      <trkpt lat="4.643814" lon="-75.082939">
        <ele>1918.7073</ele>
        <time>2021-11-14T16:02:52Z</time>
      </trkpt>
      <trkpt lat="4.643914" lon="-75.082893">
        <ele>1918.3633</ele>
        <time>2021-11-14T16:02:53Z</time>
      </trkpt>
      <trkpt lat="4.644005" lon="-75.082855">
        <ele>1918.6843</ele>
        <time>2021-11-14T16:02:54Z</time>
      </trkpt>
      <trkpt lat="4.64415" lon="-75.082825">
        <ele>1917.4197</ele>
        <time>2021-11-14T16:02:55Z</time>
      </trkpt>
      <trkpt lat="4.644235" lon="-75.082802">
        <ele>1917.8447</ele>
        <time>2021-11-14T16:02:56Z</time>
      </trkpt>
      <trkpt lat="4.644235" lon="-75.082802">
        <ele>1917.6909</ele>
        <time>2021-11-14T16:02:57Z</time>
      </trkpt>
      <trkpt lat="4.644374" lon="-75.082794">
        <ele>1916.7778</ele>
        <time>2021-11-14T16:02:58Z</time>
      </trkpt>
      <trkpt lat="4.644475" lon="-75.082787">
        <ele>1916.5073</ele>
        <time>2021-11-14T16:02:59Z</time>
      </trkpt>
      <trkpt lat="4.644545" lon="-75.082779">
        <ele>1917.7202</ele>
        <time>2021-11-14T16:03:00Z</time>
      </trkpt>
      <trkpt lat="4.644673" lon="-75.082764">
        <ele>1917.4565</ele>
        <time>2021-11-14T16:03:01Z</time>
      </trkpt>
      <trkpt lat="4.644824" lon="-75.082726">
        <ele>1917.166</ele>
        <time>2021-11-14T16:03:02Z</time>
      </trkpt>
      <trkpt lat="4.644977" lon="-75.08268">
        <ele>1916.1719</ele>
        <time>2021-11-14T16:03:03Z</time>
      </trkpt>
      <trkpt lat="4.645125" lon="-75.082626">
        <ele>1915.2803</ele>
        <time>2021-11-14T16:03:04Z</time>
      </trkpt>
      <trkpt lat="4.645293" lon="-75.08255">
        <ele>1915.2136</ele>
        <time>2021-11-14T16:03:05Z</time>
      </trkpt>
      <trkpt lat="4.645376" lon="-75.082504">
        <ele>1914.7344</ele>
        <time>2021-11-14T16:03:06Z</time>
      </trkpt>
      <trkpt lat="4.645505" lon="-75.082458">
        <ele>1914.0808</ele>
        <time>2021-11-14T16:03:07Z</time>
      </trkpt>
      <trkpt lat="4.645638" lon="-75.082428">
        <ele>1913.3594</ele>
        <time>2021-11-14T16:03:08Z</time>
      </trkpt>
      <trkpt lat="4.645744" lon="-75.082413">
        <ele>1912.8186</ele>
        <time>2021-11-14T16:03:09Z</time>
      </trkpt>
      <trkpt lat="4.645849" lon="-75.082413">
        <ele>1912.7505</ele>
        <time>2021-11-14T16:03:10Z</time>
      </trkpt>
      <trkpt lat="4.64602" lon="-75.082413">
        <ele>1913.7173</ele>
        <time>2021-11-14T16:03:11Z</time>
      </trkpt>
      <trkpt lat="4.646199" lon="-75.08242">
        <ele>1913.9619</ele>
        <time>2021-11-14T16:03:12Z</time>
      </trkpt>
      <trkpt lat="4.646314" lon="-75.08242">
        <ele>1913.0835</ele>
        <time>2021-11-14T16:03:13Z</time>
      </trkpt>
      <trkpt lat="4.646385" lon="-75.08242">
        <ele>1914.1907</ele>
        <time>2021-11-14T16:03:14Z</time>
      </trkpt>
      <trkpt lat="4.646484" lon="-75.082413">
        <ele>1913.5234</ele>
        <time>2021-11-14T16:03:15Z</time>
      </trkpt>
      <trkpt lat="4.646613" lon="-75.082405">
        <ele>1913.0708</ele>
        <time>2021-11-14T16:03:16Z</time>
      </trkpt>
      <trkpt lat="4.646781" lon="-75.082382">
        <ele>1912.6772</ele>
        <time>2021-11-14T16:03:17Z</time>
      </trkpt>
      <trkpt lat="4.64685" lon="-75.082367">
        <ele>1912.1455</ele>
        <time>2021-11-14T16:03:18Z</time>
      </trkpt>
      <trkpt lat="4.646946" lon="-75.082329">
        <ele>1910.5923</ele>
        <time>2021-11-14T16:03:19Z</time>
      </trkpt>
      <trkpt lat="4.646946" lon="-75.082329">
        <ele>1911.405</ele>
        <time>2021-11-14T16:03:20Z</time>
      </trkpt>
      <trkpt lat="4.64703" lon="-75.082237">
        <ele>1911.4185</ele>
        <time>2021-11-14T16:03:21Z</time>
      </trkpt>
      <trkpt lat="4.647088" lon="-75.082153">
        <ele>1911.1089</ele>
        <time>2021-11-14T16:03:22Z</time>
      </trkpt>
      <trkpt lat="4.647144" lon="-75.082031">
        <ele>1909.937</ele>
        <time>2021-11-14T16:03:23Z</time>
      </trkpt>
      <trkpt lat="4.647256" lon="-75.081688">
        <ele>1907.7954</ele>
        <time>2021-11-14T16:03:24Z</time>
      </trkpt>
      <trkpt lat="4.647303" lon="-75.081497">
        <ele>1907.8291</ele>
        <time>2021-11-14T16:03:25Z</time>
      </trkpt>
      <trkpt lat="4.64732" lon="-75.081337">
        <ele>1907.0024</ele>
        <time>2021-11-14T16:03:26Z</time>
      </trkpt>
      <trkpt lat="4.647341" lon="-75.0812">
        <ele>1906.761</ele>
        <time>2021-11-14T16:03:27Z</time>
      </trkpt>
      <trkpt lat="4.647389" lon="-75.081093">
        <ele>1905.7402</ele>
        <time>2021-11-14T16:03:28Z</time>
      </trkpt>
      <trkpt lat="4.647444" lon="-75.081032">
        <ele>1905.7458</ele>
        <time>2021-11-14T16:03:29Z</time>
      </trkpt>
      <trkpt lat="4.647578" lon="-75.080933">
        <ele>1904.0322</ele>
        <time>2021-11-14T16:03:30Z</time>
      </trkpt>
      <trkpt lat="4.647685" lon="-75.080849">
        <ele>1903.5254</ele>
        <time>2021-11-14T16:03:31Z</time>
      </trkpt>
      <trkpt lat="4.647805" lon="-75.080696">
        <ele>1902.4575</ele>
        <time>2021-11-14T16:03:32Z</time>
      </trkpt>
      <trkpt lat="4.647852" lon="-75.080612">
        <ele>1902.8757</ele>
        <time>2021-11-14T16:03:33Z</time>
      </trkpt>
      <trkpt lat="4.647899" lon="-75.080521">
        <ele>1902.2397</ele>
        <time>2021-11-14T16:03:34Z</time>
      </trkpt>
      <trkpt lat="4.647948" lon="-75.080399">
        <ele>1899.8828</ele>
        <time>2021-11-14T16:03:35Z</time>
      </trkpt>
      <trkpt lat="4.647978" lon="-75.080276">
        <ele>1899.7363</ele>
        <time>2021-11-14T16:03:36Z</time>
      </trkpt>
      <trkpt lat="4.647922" lon="-75.080223">
        <ele>1899.5383</ele>
        <time>2021-11-14T16:03:37Z</time>
      </trkpt>
      <trkpt lat="4.647836" lon="-75.080185">
        <ele>1899.4604</ele>
        <time>2021-11-14T16:03:38Z</time>
      </trkpt>
      <trkpt lat="4.647798" lon="-75.080162">
        <ele>1899.6489</ele>
        <time>2021-11-14T16:03:39Z</time>
      </trkpt>
      <trkpt lat="4.647717" lon="-75.080086">
        <ele>1898.4585</ele>
        <time>2021-11-14T16:03:40Z</time>
      </trkpt>
      <trkpt lat="4.64761" lon="-75.079987">
        <ele>1896.1226</ele>
        <time>2021-11-14T16:03:42Z</time>
      </trkpt>
      <trkpt lat="4.647505" lon="-75.07988">
        <ele>1893.9277</ele>
        <time>2021-11-14T16:03:43Z</time>
      </trkpt>
      <trkpt lat="4.647505" lon="-75.07988">
        <ele>1892.9868</ele>
        <time>2021-11-14T16:03:44Z</time>
      </trkpt>
      <trkpt lat="4.647436" lon="-75.079811">
        <ele>1892.5222</ele>
        <time>2021-11-14T16:03:45Z</time>
      </trkpt>
      <trkpt lat="4.647375" lon="-75.07972">
        <ele>1892.2771</ele>
        <time>2021-11-14T16:03:46Z</time>
      </trkpt>
      <trkpt lat="4.647373" lon="-75.079704">
        <ele>1892.6589</ele>
        <time>2021-11-14T16:03:47Z</time>
      </trkpt>
      <trkpt lat="4.647426" lon="-75.079597">
        <ele>1891.7305</ele>
        <time>2021-11-14T16:03:48Z</time>
      </trkpt>
      <trkpt lat="4.647483" lon="-75.079536">
        <ele>1890.7427</ele>
        <time>2021-11-14T16:03:49Z</time>
      </trkpt>
      <trkpt lat="4.647525" lon="-75.079498">
        <ele>1890.3159</ele>
        <time>2021-11-14T16:03:50Z</time>
      </trkpt>
      <trkpt lat="4.647561" lon="-75.079468">
        <ele>1890.1157</ele>
        <time>2021-11-14T16:03:51Z</time>
      </trkpt>
      <trkpt lat="4.647597" lon="-75.07943">
        <ele>1888.6765</ele>
        <time>2021-11-14T16:03:52Z</time>
      </trkpt>
      <trkpt lat="4.647657" lon="-75.079376">
        <ele>1887.439</ele>
        <time>2021-11-14T16:03:53Z</time>
      </trkpt>
      <trkpt lat="4.647737" lon="-75.079292">
        <ele>1888.1431</ele>
        <time>2021-11-14T16:03:54Z</time>
      </trkpt>
      <trkpt lat="4.647819" lon="-75.07917">
        <ele>1886.1738</ele>
        <time>2021-11-14T16:03:55Z</time>
      </trkpt>
      <trkpt lat="4.647883" lon="-75.079086">
        <ele>1885.7627</ele>
        <time>2021-11-14T16:03:56Z</time>
      </trkpt>
      <trkpt lat="4.647926" lon="-75.079025">
        <ele>1885.1274</ele>
        <time>2021-11-14T16:03:57Z</time>
      </trkpt>
      <trkpt lat="4.647974" lon="-75.078957">
        <ele>1883.749</ele>
        <time>2021-11-14T16:03:58Z</time>
      </trkpt>
      <trkpt lat="4.648011" lon="-75.078903">
        <ele>1882.1633</ele>
        <time>2021-11-14T16:03:59Z</time>
      </trkpt>
      <trkpt lat="4.648044" lon="-75.078857">
        <ele>1881.0088</ele>
        <time>2021-11-14T16:04:00Z</time>
      </trkpt>
      <trkpt lat="4.648073" lon="-75.078819">
        <ele>1879.0444</ele>
        <time>2021-11-14T16:04:01Z</time>
      </trkpt>
      <trkpt lat="4.648116" lon="-75.078758">
        <ele>1878.2808</ele>
        <time>2021-11-14T16:04:02Z</time>
      </trkpt>
      <trkpt lat="4.648152" lon="-75.078705">
        <ele>1875.4531</ele>
        <time>2021-11-14T16:04:03Z</time>
      </trkpt>
      <trkpt lat="4.648189" lon="-75.078659">
        <ele>1875.1616</ele>
        <time>2021-11-14T16:04:04Z</time>
      </trkpt>
      <trkpt lat="4.648203" lon="-75.078636">
        <ele>1873.8965</ele>
        <time>2021-11-14T16:04:05Z</time>
      </trkpt>
      <trkpt lat="4.648214" lon="-75.078629">
        <ele>1872.5581</ele>
        <time>2021-11-14T16:04:06Z</time>
      </trkpt>
      <trkpt lat="4.64826" lon="-75.078575">
        <ele>1872.4583</ele>
        <time>2021-11-14T16:04:07Z</time>
      </trkpt>
      <trkpt lat="4.648288" lon="-75.078545">
        <ele>1872.489</ele>
        <time>2021-11-14T16:04:08Z</time>
      </trkpt>
      <trkpt lat="4.648298" lon="-75.078529">
        <ele>1872.1296</ele>
        <time>2021-11-14T16:04:09Z</time>
      </trkpt>
      <trkpt lat="4.648327" lon="-75.078499">
        <ele>1872.6995</ele>
        <time>2021-11-14T16:04:10Z</time>
      </trkpt>
      <trkpt lat="4.648339" lon="-75.078484">
        <ele>1872.6663</ele>
        <time>2021-11-14T16:04:11Z</time>
      </trkpt>
      <trkpt lat="4.648342" lon="-75.078484">
        <ele>1872.2573</ele>
        <time>2021-11-14T16:04:12Z</time>
      </trkpt>
      <trkpt lat="4.648347" lon="-75.078476">
        <ele>1872.2476</ele>
        <time>2021-11-14T16:04:13Z</time>
      </trkpt>
      <trkpt lat="4.648347" lon="-75.078476">
        <ele>1872.5571</ele>
        <time>2021-11-14T16:04:14Z</time>
      </trkpt>
      <trkpt lat="4.648347" lon="-75.078476">
        <ele>1872.3809</ele>
        <time>2021-11-14T16:04:15Z</time>
      </trkpt>
      <trkpt lat="4.648347" lon="-75.078476">
        <ele>1872.7324</ele>
        <time>2021-11-14T16:04:16Z</time>
      </trkpt>
      <trkpt lat="4.648347" lon="-75.078476">
        <ele>1873.3682</ele>
        <time>2021-11-14T16:04:17Z</time>
      </trkpt>
      <trkpt lat="4.648347" lon="-75.078476">
        <ele>1873.1108</ele>
        <time>2021-11-14T16:04:18Z</time>
      </trkpt>
      <trkpt lat="4.648347" lon="-75.078476">
        <ele>1873.3574</ele>
        <time>2021-11-14T16:04:19Z</time>
      </trkpt>
      <trkpt lat="4.648356" lon="-75.078468">
        <ele>1873.0701</ele>
        <time>2021-11-14T16:04:20Z</time>
      </trkpt>
      <trkpt lat="4.648415" lon="-75.078423">
        <ele>1872.4001</ele>
        <time>2021-11-14T16:04:21Z</time>
      </trkpt>
      <trkpt lat="4.648508" lon="-75.078377">
        <ele>1871.4976</ele>
        <time>2021-11-14T16:04:22Z</time>
      </trkpt>
      <trkpt lat="4.64864" lon="-75.078369">
        <ele>1870.135</ele>
        <time>2021-11-14T16:04:23Z</time>
      </trkpt>
      <trkpt lat="4.648741" lon="-75.078369">
        <ele>1869.065</ele>
        <time>2021-11-14T16:04:24Z</time>
      </trkpt>
      <trkpt lat="4.648836" lon="-75.078369">
        <ele>1867.9873</ele>
        <time>2021-11-14T16:04:26Z</time>
      </trkpt>
      <trkpt lat="4.648957" lon="-75.078323">
        <ele>1866.6624</ele>
        <time>2021-11-14T16:04:27Z</time>
      </trkpt>
      <trkpt lat="4.649064" lon="-75.078239">
        <ele>1865.813</ele>
        <time>2021-11-14T16:04:28Z</time>
      </trkpt>
      <trkpt lat="4.649159" lon="-75.078148">
        <ele>1865.2817</ele>
        <time>2021-11-14T16:04:29Z</time>
      </trkpt>
      <trkpt lat="4.649198" lon="-75.078094">
        <ele>1864.477</ele>
        <time>2021-11-14T16:04:30Z</time>
      </trkpt>
      <trkpt lat="4.649233" lon="-75.078041">
        <ele>1864.4219</ele>
        <time>2021-11-14T16:04:31Z</time>
      </trkpt>
      <trkpt lat="4.64928" lon="-75.077957">
        <ele>1864.4521</ele>
        <time>2021-11-14T16:04:32Z</time>
      </trkpt>
      <trkpt lat="4.649292" lon="-75.077835">
        <ele>1862.6284</ele>
        <time>2021-11-14T16:04:33Z</time>
      </trkpt>
      <trkpt lat="4.649285" lon="-75.077682">
        <ele>1862.3438</ele>
        <time>2021-11-14T16:04:34Z</time>
      </trkpt>
      <trkpt lat="4.649266" lon="-75.07753">
        <ele>1861.7969</ele>
        <time>2021-11-14T16:04:35Z</time>
      </trkpt>
      <trkpt lat="4.649267" lon="-75.077423">
        <ele>1861.47</ele>
        <time>2021-11-14T16:04:36Z</time>
      </trkpt>
      <trkpt lat="4.649286" lon="-75.077347">
        <ele>1861.4241</ele>
        <time>2021-11-14T16:04:37Z</time>
      </trkpt>
      <trkpt lat="4.649317" lon="-75.077278">
        <ele>1861.1787</ele>
        <time>2021-11-14T16:04:38Z</time>
      </trkpt>
      <trkpt lat="4.649382" lon="-75.077209">
        <ele>1859.6655</ele>
        <time>2021-11-14T16:04:39Z</time>
      </trkpt>
      <trkpt lat="4.649472" lon="-75.077118">
        <ele>1859.7285</ele>
        <time>2021-11-14T16:04:40Z</time>
      </trkpt>
      <trkpt lat="4.649542" lon="-75.077042">
        <ele>1858.438</ele>
        <time>2021-11-14T16:04:41Z</time>
      </trkpt>
      <trkpt lat="4.649713" lon="-75.076897">
        <ele>1856.9243</ele>
        <time>2021-11-14T16:04:42Z</time>
      </trkpt>
      <trkpt lat="4.6498" lon="-75.076843">
        <ele>1857.9438</ele>
        <time>2021-11-14T16:04:43Z</time>
      </trkpt>
      <trkpt lat="4.649865" lon="-75.07682">
        <ele>1856.2988</ele>
        <time>2021-11-14T16:04:44Z</time>
      </trkpt>
      <trkpt lat="4.649865" lon="-75.07682">
        <ele>1855.5518</ele>
        <time>2021-11-14T16:04:45Z</time>
      </trkpt>
      <trkpt lat="4.649952" lon="-75.076813">
        <ele>1854.8784</ele>
        <time>2021-11-14T16:04:46Z</time>
      </trkpt>
      <trkpt lat="4.65005" lon="-75.076836">
        <ele>1853.8594</ele>
        <time>2021-11-14T16:04:47Z</time>
      </trkpt>
      <trkpt lat="4.650148" lon="-75.076874">
        <ele>1852.9023</ele>
        <time>2021-11-14T16:04:48Z</time>
      </trkpt>
      <trkpt lat="4.650239" lon="-75.076942">
        <ele>1852.7961</ele>
        <time>2021-11-14T16:04:49Z</time>
      </trkpt>
      <trkpt lat="4.650306" lon="-75.077042">
        <ele>1851.8726</ele>
        <time>2021-11-14T16:04:50Z</time>
      </trkpt>
      <trkpt lat="4.650376" lon="-75.077187">
        <ele>1851.9204</ele>
        <time>2021-11-14T16:04:51Z</time>
      </trkpt>
      <trkpt lat="4.650435" lon="-75.077332">
        <ele>1851.8608</ele>
        <time>2021-11-14T16:04:52Z</time>
      </trkpt>
      <trkpt lat="4.650484" lon="-75.077461">
        <ele>1849.7427</ele>
        <time>2021-11-14T16:04:53Z</time>
      </trkpt>
      <trkpt lat="4.650531" lon="-75.077568">
        <ele>1848.8193</ele>
        <time>2021-11-14T16:04:54Z</time>
      </trkpt>
      <trkpt lat="4.650585" lon="-75.07766">
        <ele>1847.6445</ele>
        <time>2021-11-14T16:04:55Z</time>
      </trkpt>
      <trkpt lat="4.650613" lon="-75.077705">
        <ele>1846.4946</ele>
        <time>2021-11-14T16:04:56Z</time>
      </trkpt>
      <trkpt lat="4.65065" lon="-75.077751">
        <ele>1846.0803</ele>
        <time>2021-11-14T16:04:57Z</time>
      </trkpt>
      <trkpt lat="4.650701" lon="-75.077805">
        <ele>1843.8169</ele>
        <time>2021-11-14T16:04:58Z</time>
      </trkpt>
      <trkpt lat="4.650798" lon="-75.077843">
        <ele>1843.5137</ele>
        <time>2021-11-14T16:04:59Z</time>
      </trkpt>
      <trkpt lat="4.650879" lon="-75.077858">
        <ele>1841.5557</ele>
        <time>2021-11-14T16:05:00Z</time>
      </trkpt>
      <trkpt lat="4.651065" lon="-75.077866">
        <ele>1843.4072</ele>
        <time>2021-11-14T16:05:01Z</time>
      </trkpt>
      <trkpt lat="4.651144" lon="-75.077866">
        <ele>1843.4465</ele>
        <time>2021-11-14T16:05:02Z</time>
      </trkpt>
      <trkpt lat="4.651184" lon="-75.077858">
        <ele>1841.1792</ele>
        <time>2021-11-14T16:05:03Z</time>
      </trkpt>
      <trkpt lat="4.651269" lon="-75.07785">
        <ele>1840.1587</ele>
        <time>2021-11-14T16:05:04Z</time>
      </trkpt>
      <trkpt lat="4.651394" lon="-75.077827">
        <ele>1841.1724</ele>
        <time>2021-11-14T16:05:05Z</time>
      </trkpt>
      <trkpt lat="4.651493" lon="-75.077751">
        <ele>1841.7681</ele>
        <time>2021-11-14T16:05:06Z</time>
      </trkpt>
      <trkpt lat="4.651506" lon="-75.077713">
        <ele>1841.7273</ele>
        <time>2021-11-14T16:05:07Z</time>
      </trkpt>
      <trkpt lat="4.651519" lon="-75.07766">
        <ele>1840.7119</ele>
        <time>2021-11-14T16:05:08Z</time>
      </trkpt>
      <trkpt lat="4.651525" lon="-75.077583">
        <ele>1840.6157</ele>
        <time>2021-11-14T16:05:09Z</time>
      </trkpt>
      <trkpt lat="4.651522" lon="-75.077538">
        <ele>1838.8125</ele>
        <time>2021-11-14T16:05:10Z</time>
      </trkpt>
      <trkpt lat="4.651522" lon="-75.077538">
        <ele>1837.9287</ele>
        <time>2021-11-14T16:05:11Z</time>
      </trkpt>
      <trkpt lat="4.651512" lon="-75.077484">
        <ele>1837.7114</ele>
        <time>2021-11-14T16:05:12Z</time>
      </trkpt>
      <trkpt lat="4.651494" lon="-75.077332">
        <ele>1836.4766</ele>
        <time>2021-11-14T16:05:13Z</time>
      </trkpt>
      <trkpt lat="4.651497" lon="-75.077309">
        <ele>1834.8613</ele>
        <time>2021-11-14T16:05:14Z</time>
      </trkpt>
      <trkpt lat="4.651629" lon="-75.077194">
        <ele>1834.1738</ele>
        <time>2021-11-14T16:05:15Z</time>
      </trkpt>
      <trkpt lat="4.651738" lon="-75.077133">
        <ele>1832.2231</ele>
        <time>2021-11-14T16:05:16Z</time>
      </trkpt>
      <trkpt lat="4.651909" lon="-75.077065">
        <ele>1831.04</ele>
        <time>2021-11-14T16:05:17Z</time>
      </trkpt>
      <trkpt lat="4.652153" lon="-75.076996">
        <ele>1829.6707</ele>
        <time>2021-11-14T16:05:18Z</time>
      </trkpt>
      <trkpt lat="4.65223" lon="-75.076973">
        <ele>1828.7917</ele>
        <time>2021-11-14T16:05:19Z</time>
      </trkpt>
      <trkpt lat="4.652342" lon="-75.076958">
        <ele>1828.7356</ele>
        <time>2021-11-14T16:05:20Z</time>
      </trkpt>
      <trkpt lat="4.652477" lon="-75.076965">
        <ele>1827.3848</ele>
        <time>2021-11-14T16:05:21Z</time>
      </trkpt>
      <trkpt lat="4.652643" lon="-75.076973">
        <ele>1825.2676</ele>
        <time>2021-11-14T16:05:22Z</time>
      </trkpt>
      <trkpt lat="4.65282" lon="-75.076981">
        <ele>1823.7422</ele>
        <time>2021-11-14T16:05:23Z</time>
      </trkpt>
      <trkpt lat="4.652951" lon="-75.076996">
        <ele>1822.7993</ele>
        <time>2021-11-14T16:05:24Z</time>
      </trkpt>
      <trkpt lat="4.653079" lon="-75.077003">
        <ele>1822.0205</ele>
        <time>2021-11-14T16:05:25Z</time>
      </trkpt>
      <trkpt lat="4.65317" lon="-75.076973">
        <ele>1820.6304</ele>
        <time>2021-11-14T16:05:26Z</time>
      </trkpt>
      <trkpt lat="4.653246" lon="-75.076927">
        <ele>1820.0115</ele>
        <time>2021-11-14T16:05:27Z</time>
      </trkpt>
      <trkpt lat="4.653307" lon="-75.076874">
        <ele>1819.5562</ele>
        <time>2021-11-14T16:05:28Z</time>
      </trkpt>
      <trkpt lat="4.653378" lon="-75.07679">
        <ele>1818.3228</ele>
        <time>2021-11-14T16:05:29Z</time>
      </trkpt>
      <trkpt lat="4.653472" lon="-75.07666">
        <ele>1817.3027</ele>
        <time>2021-11-14T16:05:30Z</time>
      </trkpt>
      <trkpt lat="4.653527" lon="-75.076538">
        <ele>1815.7583</ele>
        <time>2021-11-14T16:05:31Z</time>
      </trkpt>
      <trkpt lat="4.653575" lon="-75.076385">
        <ele>1815.1157</ele>
        <time>2021-11-14T16:05:32Z</time>
      </trkpt>
      <trkpt lat="4.653604" lon="-75.076294">
        <ele>1814.1587</ele>
        <time>2021-11-14T16:05:34Z</time>
      </trkpt>
      <trkpt lat="4.653658" lon="-75.076172">
        <ele>1813.2041</ele>
        <time>2021-11-14T16:05:35Z</time>
      </trkpt>
      <trkpt lat="4.653731" lon="-75.07608">
        <ele>1811.6772</ele>
        <time>2021-11-14T16:05:36Z</time>
      </trkpt>
      <trkpt lat="4.653833" lon="-75.076004">
        <ele>1810.3848</ele>
        <time>2021-11-14T16:05:37Z</time>
      </trkpt>
      <trkpt lat="4.65393" lon="-75.075951">
        <ele>1809.5796</ele>
        <time>2021-11-14T16:05:38Z</time>
      </trkpt>
      <trkpt lat="4.654021" lon="-75.07592">
        <ele>1809.2783</ele>
        <time>2021-11-14T16:05:39Z</time>
      </trkpt>
      <trkpt lat="4.654117" lon="-75.075905">
        <ele>1808.814</ele>
        <time>2021-11-14T16:05:40Z</time>
      </trkpt>
      <trkpt lat="4.654117" lon="-75.075905">
        <ele>1807.4932</ele>
        <time>2021-11-14T16:05:41Z</time>
      </trkpt>
      <trkpt lat="4.654297" lon="-75.07592">
        <ele>1807.5322</ele>
        <time>2021-11-14T16:05:42Z</time>
      </trkpt>
      <trkpt lat="4.654444" lon="-75.075966">
        <ele>1806.9429</ele>
        <time>2021-11-14T16:05:43Z</time>
      </trkpt>
      <trkpt lat="4.654611" lon="-75.076012">
        <ele>1807.3052</ele>
        <time>2021-11-14T16:05:44Z</time>
      </trkpt>
      <trkpt lat="4.654719" lon="-75.076027">
        <ele>1806.585</ele>
        <time>2021-11-14T16:05:45Z</time>
      </trkpt>
      <trkpt lat="4.65477" lon="-75.076019">
        <ele>1806.8025</ele>
        <time>2021-11-14T16:05:46Z</time>
      </trkpt>
      <trkpt lat="4.654867" lon="-75.075996">
        <ele>1806.512</ele>
        <time>2021-11-14T16:05:47Z</time>
      </trkpt>
      <trkpt lat="4.654984" lon="-75.075958">
        <ele>1807.4507</ele>
        <time>2021-11-14T16:05:48Z</time>
      </trkpt>
      <trkpt lat="4.655131" lon="-75.075882">
        <ele>1808.564</ele>
        <time>2021-11-14T16:05:49Z</time>
      </trkpt>
      <trkpt lat="4.655281" lon="-75.075783">
        <ele>1809.102</ele>
        <time>2021-11-14T16:05:50Z</time>
      </trkpt>
      <trkpt lat="4.655418" lon="-75.075676">
        <ele>1810.3662</ele>
        <time>2021-11-14T16:05:51Z</time>
      </trkpt>
      <trkpt lat="4.655535" lon="-75.075562">
        <ele>1811.0166</ele>
        <time>2021-11-14T16:05:52Z</time>
      </trkpt>
      <trkpt lat="4.655603" lon="-75.075485">
        <ele>1812.0981</ele>
        <time>2021-11-14T16:05:53Z</time>
      </trkpt>
      <trkpt lat="4.655674" lon="-75.075371">
        <ele>1813.2139</ele>
        <time>2021-11-14T16:05:54Z</time>
      </trkpt>
      <trkpt lat="4.655763" lon="-75.075226">
        <ele>1814.4277</ele>
        <time>2021-11-14T16:05:55Z</time>
      </trkpt>
      <trkpt lat="4.655829" lon="-75.075142">
        <ele>1814.957</ele>
        <time>2021-11-14T16:05:56Z</time>
      </trkpt>
      <trkpt lat="4.655907" lon="-75.075066">
        <ele>1815.3057</ele>
        <time>2021-11-14T16:05:57Z</time>
      </trkpt>
      <trkpt lat="4.655982" lon="-75.075005">
        <ele>1815.9175</ele>
        <time>2021-11-14T16:05:58Z</time>
      </trkpt>
      <trkpt lat="4.656074" lon="-75.074959">
        <ele>1816.0901</ele>
        <time>2021-11-14T16:05:59Z</time>
      </trkpt>
      <trkpt lat="4.656205" lon="-75.074905">
        <ele>1815.4104</ele>
        <time>2021-11-14T16:06:00Z</time>
      </trkpt>
      <trkpt lat="4.656351" lon="-75.074852">
        <ele>1814.939</ele>
        <time>2021-11-14T16:06:01Z</time>
      </trkpt>
      <trkpt lat="4.656498" lon="-75.074844">
        <ele>1813.9277</ele>
        <time>2021-11-14T16:06:02Z</time>
      </trkpt>
      <trkpt lat="4.656688" lon="-75.074806">
        <ele>1812.9204</ele>
        <time>2021-11-14T16:06:03Z</time>
      </trkpt>
      <trkpt lat="4.656888" lon="-75.07476">
        <ele>1811.2051</ele>
        <time>2021-11-14T16:06:04Z</time>
      </trkpt>
      <trkpt lat="4.657017" lon="-75.074707">
        <ele>1809.8667</ele>
        <time>2021-11-14T16:06:05Z</time>
      </trkpt>
      <trkpt lat="4.657167" lon="-75.074638">
        <ele>1810.6387</ele>
        <time>2021-11-14T16:06:06Z</time>
      </trkpt>
      <trkpt lat="4.657309" lon="-75.074577">
        <ele>1811.9702</ele>
        <time>2021-11-14T16:06:07Z</time>
      </trkpt>
      <trkpt lat="4.657426" lon="-75.074532">
        <ele>1811.8328</ele>
        <time>2021-11-14T16:06:08Z</time>
      </trkpt>
      <trkpt lat="4.657578" lon="-75.074425">
        <ele>1811.8442</ele>
        <time>2021-11-14T16:06:09Z</time>
      </trkpt>
      <trkpt lat="4.657675" lon="-75.074356">
        <ele>1811.3833</ele>
        <time>2021-11-14T16:06:10Z</time>
      </trkpt>
      <trkpt lat="4.657826" lon="-75.074295">
        <ele>1811.0146</ele>
        <time>2021-11-14T16:06:11Z</time>
      </trkpt>
      <trkpt lat="4.657967" lon="-75.074242">
        <ele>1811.3425</ele>
        <time>2021-11-14T16:06:12Z</time>
      </trkpt>
      <trkpt lat="4.658046" lon="-75.074203">
        <ele>1813.2524</ele>
        <time>2021-11-14T16:06:13Z</time>
      </trkpt>
      <trkpt lat="4.658132" lon="-75.074142">
        <ele>1813.0332</ele>
        <time>2021-11-14T16:06:14Z</time>
      </trkpt>
      <trkpt lat="4.658168" lon="-75.074112">
        <ele>1813.2192</ele>
        <time>2021-11-14T16:06:15Z</time>
      </trkpt>
      <trkpt lat="4.658189" lon="-75.074081">
        <ele>1814.0381</ele>
        <time>2021-11-14T16:06:16Z</time>
      </trkpt>
      <trkpt lat="4.658234" lon="-75.07402">
        <ele>1814.8425</ele>
        <time>2021-11-14T16:06:17Z</time>
      </trkpt>
      <trkpt lat="4.65828" lon="-75.073906">
        <ele>1815.0906</ele>
        <time>2021-11-14T16:06:18Z</time>
      </trkpt>
      <trkpt lat="4.658316" lon="-75.073753">
        <ele>1815.6733</ele>
        <time>2021-11-14T16:06:19Z</time>
      </trkpt>
      <trkpt lat="4.658344" lon="-75.073616">
        <ele>1816.9778</ele>
        <time>2021-11-14T16:06:20Z</time>
      </trkpt>
      <trkpt lat="4.658359" lon="-75.073456">
        <ele>1815.9238</ele>
        <time>2021-11-14T16:06:21Z</time>
      </trkpt>
      <trkpt lat="4.658361" lon="-75.073372">
        <ele>1817.4106</ele>
        <time>2021-11-14T16:06:22Z</time>
      </trkpt>
      <trkpt lat="4.658361" lon="-75.073372">
        <ele>1817.5176</ele>
        <time>2021-11-14T16:06:23Z</time>
      </trkpt>
      <trkpt lat="4.658361" lon="-75.073372">
        <ele>1817.386</ele>
        <time>2021-11-14T16:06:24Z</time>
      </trkpt>
      <trkpt lat="4.658362" lon="-75.073334">
        <ele>1816.7715</ele>
        <time>2021-11-14T16:06:25Z</time>
      </trkpt>
      <trkpt lat="4.658364" lon="-75.07325">
        <ele>1816.7051</ele>
        <time>2021-11-14T16:06:26Z</time>
      </trkpt>
      <trkpt lat="4.658379" lon="-75.07309">
        <ele>1816.4346</ele>
        <time>2021-11-14T16:06:27Z</time>
      </trkpt>
      <trkpt lat="4.658411" lon="-75.07296">
        <ele>1815.709</ele>
        <time>2021-11-14T16:06:28Z</time>
      </trkpt>
      <trkpt lat="4.658476" lon="-75.072838">
        <ele>1815.1675</ele>
        <time>2021-11-14T16:06:29Z</time>
      </trkpt>
      <trkpt lat="4.658542" lon="-75.072739">
        <ele>1814.6304</ele>
        <time>2021-11-14T16:06:30Z</time>
      </trkpt>
      <trkpt lat="4.658627" lon="-75.072647">
        <ele>1812.6631</ele>
        <time>2021-11-14T16:06:32Z</time>
      </trkpt>
      <trkpt lat="4.658757" lon="-75.072517">
        <ele>1811.4746</ele>
        <time>2021-11-14T16:06:33Z</time>
      </trkpt>
      <trkpt lat="4.65891" lon="-75.07238">
        <ele>1811.3828</ele>
        <time>2021-11-14T16:06:34Z</time>
      </trkpt>
      <trkpt lat="4.65891" lon="-75.07238">
        <ele>1810.6184</ele>
        <time>2021-11-14T16:06:35Z</time>
      </trkpt>
      <trkpt lat="4.659084" lon="-75.072243">
        <ele>1810.1992</ele>
        <time>2021-11-14T16:06:36Z</time>
      </trkpt>
      <trkpt lat="4.659227" lon="-75.072136">
        <ele>1809.9741</ele>
        <time>2021-11-14T16:06:37Z</time>
      </trkpt>
      <trkpt lat="4.659372" lon="-75.072021">
        <ele>1808.9597</ele>
        <time>2021-11-14T16:06:38Z</time>
      </trkpt>
      <trkpt lat="4.659534" lon="-75.071892">
        <ele>1809.5828</ele>
        <time>2021-11-14T16:06:39Z</time>
      </trkpt>
      <trkpt lat="4.659717" lon="-75.071732">
        <ele>1809.0552</ele>
        <time>2021-11-14T16:06:40Z</time>
      </trkpt>
      <trkpt lat="4.659877" lon="-75.071594">
        <ele>1807.354</ele>
        <time>2021-11-14T16:06:41Z</time>
      </trkpt>
      <trkpt lat="4.659999" lon="-75.071472">
        <ele>1807.0178</ele>
        <time>2021-11-14T16:06:42Z</time>
      </trkpt>
      <trkpt lat="4.660135" lon="-75.071312">
        <ele>1806.4429</ele>
        <time>2021-11-14T16:06:43Z</time>
      </trkpt>
      <trkpt lat="4.6602" lon="-75.071228">
        <ele>1806.531</ele>
        <time>2021-11-14T16:06:44Z</time>
      </trkpt>
      <trkpt lat="4.660244" lon="-75.071136">
        <ele>1805.2188</ele>
        <time>2021-11-14T16:06:45Z</time>
      </trkpt>
      <trkpt lat="4.660251" lon="-75.071045">
        <ele>1804.2168</ele>
        <time>2021-11-14T16:06:46Z</time>
      </trkpt>
      <trkpt lat="4.660246" lon="-75.070961">
        <ele>1803.8447</ele>
        <time>2021-11-14T16:06:47Z</time>
      </trkpt>
      <trkpt lat="4.660236" lon="-75.070831">
        <ele>1802.8105</ele>
        <time>2021-11-14T16:06:48Z</time>
      </trkpt>
      <trkpt lat="4.660204" lon="-75.070663">
        <ele>1802.3389</ele>
        <time>2021-11-14T16:06:49Z</time>
      </trkpt>
      <trkpt lat="4.660177" lon="-75.070518">
        <ele>1801.9253</ele>
        <time>2021-11-14T16:06:50Z</time>
      </trkpt>
      <trkpt lat="4.660168" lon="-75.070381">
        <ele>1802.1719</ele>
        <time>2021-11-14T16:06:51Z</time>
      </trkpt>
      <trkpt lat="4.660185" lon="-75.070259">
        <ele>1800.8894</ele>
        <time>2021-11-14T16:06:52Z</time>
      </trkpt>
      <trkpt lat="4.660208" lon="-75.07016">
        <ele>1799.8372</ele>
        <time>2021-11-14T16:06:53Z</time>
      </trkpt>
      <trkpt lat="4.660234" lon="-75.070053">
        <ele>1798.354</ele>
        <time>2021-11-14T16:06:54Z</time>
      </trkpt>
      <trkpt lat="4.660256" lon="-75.069862">
        <ele>1799.8564</ele>
        <time>2021-11-14T16:06:55Z</time>
      </trkpt>
      <trkpt lat="4.660255" lon="-75.06974">
        <ele>1798.7847</ele>
        <time>2021-11-14T16:06:56Z</time>
      </trkpt>
      <trkpt lat="4.660253" lon="-75.069717">
        <ele>1798.7539</ele>
        <time>2021-11-14T16:06:57Z</time>
      </trkpt>
      <trkpt lat="4.660229" lon="-75.069641">
        <ele>1798.1865</ele>
        <time>2021-11-14T16:06:58Z</time>
      </trkpt>
      <trkpt lat="4.66018" lon="-75.069565">
        <ele>1798.6997</ele>
        <time>2021-11-14T16:06:59Z</time>
      </trkpt>
      <trkpt lat="4.660071" lon="-75.069458">
        <ele>1797.6406</ele>
        <time>2021-11-14T16:07:00Z</time>
      </trkpt>
      <trkpt lat="4.660071" lon="-75.069458">
        <ele>1796.1392</ele>
        <time>2021-11-14T16:07:01Z</time>
      </trkpt>
      <trkpt lat="4.659961" lon="-75.069374">
        <ele>1793.4751</ele>
        <time>2021-11-14T16:07:02Z</time>
      </trkpt>
      <trkpt lat="4.659841" lon="-75.069275">
        <ele>1794.0232</ele>
        <time>2021-11-14T16:07:03Z</time>
      </trkpt>
      <trkpt lat="4.659763" lon="-75.06916">
        <ele>1793.2383</ele>
        <time>2021-11-14T16:07:04Z</time>
      </trkpt>
      <trkpt lat="4.659775" lon="-75.069031">
        <ele>1791.9465</ele>
        <time>2021-11-14T16:07:05Z</time>
      </trkpt>
      <trkpt lat="4.659821" lon="-75.068954">
        <ele>1791.053</ele>
        <time>2021-11-14T16:07:06Z</time>
      </trkpt>
      <trkpt lat="4.659928" lon="-75.068886">
        <ele>1789.5386</ele>
        <time>2021-11-14T16:07:07Z</time>
      </trkpt>
      <trkpt lat="4.660024" lon="-75.068863">
        <ele>1789.9873</ele>
        <time>2021-11-14T16:07:08Z</time>
      </trkpt>
      <trkpt lat="4.660186" lon="-75.068855">
        <ele>1786.499</ele>
        <time>2021-11-14T16:07:09Z</time>
      </trkpt>
      <trkpt lat="4.660297" lon="-75.068863">
        <ele>1785.1929</ele>
        <time>2021-11-14T16:07:10Z</time>
      </trkpt>
      <trkpt lat="4.660418" lon="-75.068878">
        <ele>1785.0315</ele>
        <time>2021-11-14T16:07:11Z</time>
      </trkpt>
      <trkpt lat="4.660585" lon="-75.068893">
        <ele>1785.2134</ele>
        <time>2021-11-14T16:07:12Z</time>
      </trkpt>
      <trkpt lat="4.660837" lon="-75.06884">
        <ele>1784.9695</ele>
        <time>2021-11-14T16:07:13Z</time>
      </trkpt>
      <trkpt lat="4.660946" lon="-75.068771">
        <ele>1784.8701</ele>
        <time>2021-11-14T16:07:14Z</time>
      </trkpt>
      <trkpt lat="4.661092" lon="-75.068665">
        <ele>1785.4077</ele>
        <time>2021-11-14T16:07:15Z</time>
      </trkpt>
      <trkpt lat="4.661297" lon="-75.068504">
        <ele>1786.3608</ele>
        <time>2021-11-14T16:07:16Z</time>
      </trkpt>
      <trkpt lat="4.661472" lon="-75.068398">
        <ele>1785.8186</ele>
        <time>2021-11-14T16:07:17Z</time>
      </trkpt>
      <trkpt lat="4.661578" lon="-75.068336">
        <ele>1784.3271</ele>
        <time>2021-11-14T16:07:18Z</time>
      </trkpt>
      <trkpt lat="4.661681" lon="-75.068268">
        <ele>1783.8706</ele>
        <time>2021-11-14T16:07:19Z</time>
      </trkpt>
      <trkpt lat="4.661824" lon="-75.068184">
        <ele>1783.1904</ele>
        <time>2021-11-14T16:07:20Z</time>
      </trkpt>
      <trkpt lat="4.661959" lon="-75.068069">
        <ele>1783.19</ele>
        <time>2021-11-14T16:07:21Z</time>
      </trkpt>
      <trkpt lat="4.662026" lon="-75.068001">
        <ele>1783.5015</ele>
        <time>2021-11-14T16:07:22Z</time>
      </trkpt>
      <trkpt lat="4.662095" lon="-75.067879">
        <ele>1783.4875</ele>
        <time>2021-11-14T16:07:23Z</time>
      </trkpt>
      <trkpt lat="4.662135" lon="-75.067764">
        <ele>1782.5137</ele>
        <time>2021-11-14T16:07:24Z</time>
      </trkpt>
      <trkpt lat="4.662165" lon="-75.06765">
        <ele>1781.5022</ele>
        <time>2021-11-14T16:07:26Z</time>
      </trkpt>
      <trkpt lat="4.662173" lon="-75.067505">
        <ele>1781.5994</ele>
        <time>2021-11-14T16:07:27Z</time>
      </trkpt>
      <trkpt lat="4.662178" lon="-75.067413">
        <ele>1780.2705</ele>
        <time>2021-11-14T16:07:28Z</time>
      </trkpt>
      <trkpt lat="4.662178" lon="-75.067413">
        <ele>1779.2808</ele>
        <time>2021-11-14T16:07:29Z</time>
      </trkpt>
      <trkpt lat="4.662192" lon="-75.067368">
        <ele>1778.1104</ele>
        <time>2021-11-14T16:07:30Z</time>
      </trkpt>
      <trkpt lat="4.662287" lon="-75.067268">
        <ele>1775.7603</ele>
        <time>2021-11-14T16:07:31Z</time>
      </trkpt>
      <trkpt lat="4.662419" lon="-75.067238">
        <ele>1774.2554</ele>
        <time>2021-11-14T16:07:32Z</time>
      </trkpt>
      <trkpt lat="4.662588" lon="-75.067207">
        <ele>1773.9407</ele>
        <time>2021-11-14T16:07:33Z</time>
      </trkpt>
      <trkpt lat="4.662766" lon="-75.067146">
        <ele>1772.1411</ele>
        <time>2021-11-14T16:07:34Z</time>
      </trkpt>
      <trkpt lat="4.662962" lon="-75.06707">
        <ele>1771.1287</ele>
        <time>2021-11-14T16:07:35Z</time>
      </trkpt>
      <trkpt lat="4.663072" lon="-75.067024">
        <ele>1770.3066</ele>
        <time>2021-11-14T16:07:36Z</time>
      </trkpt>
      <trkpt lat="4.663146" lon="-75.066978">
        <ele>1768.8208</ele>
        <time>2021-11-14T16:07:37Z</time>
      </trkpt>
      <trkpt lat="4.663221" lon="-75.066933">
        <ele>1768.6489</ele>
        <time>2021-11-14T16:07:38Z</time>
      </trkpt>
      <trkpt lat="4.663274" lon="-75.066849">
        <ele>1767.4956</ele>
        <time>2021-11-14T16:07:39Z</time>
      </trkpt>
      <trkpt lat="4.663297" lon="-75.066689">
        <ele>1767.2842</ele>
        <time>2021-11-14T16:07:40Z</time>
      </trkpt>
      <trkpt lat="4.663367" lon="-75.066559">
        <ele>1766.1213</ele>
        <time>2021-11-14T16:07:41Z</time>
      </trkpt>
      <trkpt lat="4.663433" lon="-75.066467">
        <ele>1764.5928</ele>
        <time>2021-11-14T16:07:42Z</time>
      </trkpt>
      <trkpt lat="4.663486" lon="-75.066399">
        <ele>1764.0107</ele>
        <time>2021-11-14T16:07:43Z</time>
      </trkpt>
      <trkpt lat="4.663526" lon="-75.066345">
        <ele>1763.3105</ele>
        <time>2021-11-14T16:07:44Z</time>
      </trkpt>
      <trkpt lat="4.663576" lon="-75.066322">
        <ele>1761.44</ele>
        <time>2021-11-14T16:07:45Z</time>
      </trkpt>
      <trkpt lat="4.663703" lon="-75.06633">
        <ele>1762.1396</ele>
        <time>2021-11-14T16:07:46Z</time>
      </trkpt>
      <trkpt lat="4.663787" lon="-75.06633">
        <ele>1762.3555</ele>
        <time>2021-11-14T16:07:47Z</time>
      </trkpt>
      <trkpt lat="4.663948" lon="-75.066299">
        <ele>1761.2861</ele>
        <time>2021-11-14T16:07:48Z</time>
      </trkpt>
      <trkpt lat="4.663974" lon="-75.066277">
        <ele>1762.3188</ele>
        <time>2021-11-14T16:07:49Z</time>
      </trkpt>
      <trkpt lat="4.664" lon="-75.066238">
        <ele>1761.3438</ele>
        <time>2021-11-14T16:07:50Z</time>
      </trkpt>
      <trkpt lat="4.664044" lon="-75.066124">
        <ele>1761.2705</ele>
        <time>2021-11-14T16:07:51Z</time>
      </trkpt>
      <trkpt lat="4.664008" lon="-75.06604">
        <ele>1761.1257</ele>
        <time>2021-11-14T16:07:52Z</time>
      </trkpt>
      <trkpt lat="4.66398" lon="-75.065948">
        <ele>1759.9932</ele>
        <time>2021-11-14T16:07:53Z</time>
      </trkpt>
      <trkpt lat="4.663847" lon="-75.065804">
        <ele>1757.7295</ele>
        <time>2021-11-14T16:07:54Z</time>
      </trkpt>
      <trkpt lat="4.66375" lon="-75.065704">
        <ele>1757.0703</ele>
        <time>2021-11-14T16:07:55Z</time>
      </trkpt>
      <trkpt lat="4.663672" lon="-75.065598">
        <ele>1755.9822</ele>
        <time>2021-11-14T16:07:56Z</time>
      </trkpt>
      <trkpt lat="4.663594" lon="-75.065483">
        <ele>1756.1487</ele>
        <time>2021-11-14T16:07:57Z</time>
      </trkpt>
      <trkpt lat="4.66354" lon="-75.065399">
        <ele>1753.3633</ele>
        <time>2021-11-14T16:07:58Z</time>
      </trkpt>
      <trkpt lat="4.66354" lon="-75.065399">
        <ele>1751.7224</ele>
        <time>2021-11-14T16:07:59Z</time>
      </trkpt>
      <trkpt lat="4.663484" lon="-75.0653">
        <ele>1749.9907</ele>
        <time>2021-11-14T16:08:00Z</time>
      </trkpt>
      <trkpt lat="4.663421" lon="-75.065147">
        <ele>1749.9851</ele>
        <time>2021-11-14T16:08:01Z</time>
      </trkpt>
      <trkpt lat="4.663376" lon="-75.06498">
        <ele>1749.3284</ele>
        <time>2021-11-14T16:08:02Z</time>
      </trkpt>
      <trkpt lat="4.663336" lon="-75.064819">
        <ele>1748.126</ele>
        <time>2021-11-14T16:08:03Z</time>
      </trkpt>
      <trkpt lat="4.663276" lon="-75.064659">
        <ele>1748.2207</ele>
        <time>2021-11-14T16:08:04Z</time>
      </trkpt>
      <trkpt lat="4.663228" lon="-75.06456">
        <ele>1748.0381</ele>
        <time>2021-11-14T16:08:05Z</time>
      </trkpt>
      <trkpt lat="4.663207" lon="-75.06443">
        <ele>1746.4753</ele>
        <time>2021-11-14T16:08:06Z</time>
      </trkpt>
      <trkpt lat="4.66323" lon="-75.064362">
        <ele>1745.9177</ele>
        <time>2021-11-14T16:08:07Z</time>
      </trkpt>
      <trkpt lat="4.663262" lon="-75.064301">
        <ele>1745.5247</ele>
        <time>2021-11-14T16:08:08Z</time>
      </trkpt>
      <trkpt lat="4.66329" lon="-75.06424">
        <ele>1745.3975</ele>
        <time>2021-11-14T16:08:09Z</time>
      </trkpt>
      <trkpt lat="4.663309" lon="-75.064194">
        <ele>1745.1711</ele>
        <time>2021-11-14T16:08:10Z</time>
      </trkpt>
      <trkpt lat="4.66331" lon="-75.064194">
        <ele>1745.0986</ele>
        <time>2021-11-14T16:08:11Z</time>
      </trkpt>
      <trkpt lat="4.66332" lon="-75.064178">
        <ele>1744.8721</ele>
        <time>2021-11-14T16:08:12Z</time>
      </trkpt>
      <trkpt lat="4.663332" lon="-75.064148">
        <ele>1744.7322</ele>
        <time>2021-11-14T16:08:13Z</time>
      </trkpt>
      <trkpt lat="4.663357" lon="-75.064079">
        <ele>1744.7175</ele>
        <time>2021-11-14T16:08:14Z</time>
      </trkpt>
      <trkpt lat="4.663374" lon="-75.064018">
        <ele>1744.3772</ele>
        <time>2021-11-14T16:08:15Z</time>
      </trkpt>
      <trkpt lat="4.663404" lon="-75.063927">
        <ele>1742.7878</ele>
        <time>2021-11-14T16:08:16Z</time>
      </trkpt>
      <trkpt lat="4.663446" lon="-75.06382">
        <ele>1743.1343</ele>
        <time>2021-11-14T16:08:17Z</time>
      </trkpt>
      <trkpt lat="4.663522" lon="-75.063683">
        <ele>1740.5522</ele>
        <time>2021-11-14T16:08:18Z</time>
      </trkpt>
      <trkpt lat="4.663545" lon="-75.063644">
        <ele>1739.7014</ele>
        <time>2021-11-14T16:08:19Z</time>
      </trkpt>
      <trkpt lat="4.663645" lon="-75.063538">
        <ele>1737.5498</ele>
        <time>2021-11-14T16:08:20Z</time>
      </trkpt>
      <trkpt lat="4.663787" lon="-75.063377">
        <ele>1737.7915</ele>
        <time>2021-11-14T16:08:21Z</time>
      </trkpt>
      <trkpt lat="4.66383" lon="-75.063309">
        <ele>1735.9536</ele>
        <time>2021-11-14T16:08:22Z</time>
      </trkpt>
      <trkpt lat="4.663842" lon="-75.063286">
        <ele>1735.4165</ele>
        <time>2021-11-14T16:08:23Z</time>
      </trkpt>
      <trkpt lat="4.663881" lon="-75.063187">
        <ele>1734.6772</ele>
        <time>2021-11-14T16:08:24Z</time>
      </trkpt>
      <trkpt lat="4.663882" lon="-75.063095">
        <ele>1732.6829</ele>
        <time>2021-11-14T16:08:25Z</time>
      </trkpt>
      <trkpt lat="4.663842" lon="-75.063011">
        <ele>1730.9875</ele>
        <time>2021-11-14T16:08:26Z</time>
      </trkpt>
      <trkpt lat="4.663842" lon="-75.063011">
        <ele>1730.4282</ele>
        <time>2021-11-14T16:08:27Z</time>
      </trkpt>
      <trkpt lat="4.663802" lon="-75.06295">
        <ele>1730.4111</ele>
        <time>2021-11-14T16:08:28Z</time>
      </trkpt>
      <trkpt lat="4.663763" lon="-75.062912">
        <ele>1729.5703</ele>
        <time>2021-11-14T16:08:29Z</time>
      </trkpt>
      <trkpt lat="4.663671" lon="-75.062904">
        <ele>1728.9236</ele>
        <time>2021-11-14T16:08:30Z</time>
      </trkpt>
      <trkpt lat="4.663553" lon="-75.062935">
        <ele>1727.9744</ele>
        <time>2021-11-14T16:08:31Z</time>
      </trkpt>
      <trkpt lat="4.663362" lon="-75.063095">
        <ele>1726.6074</ele>
        <time>2021-11-14T16:08:32Z</time>
      </trkpt>
      <trkpt lat="4.663306" lon="-75.063202">
        <ele>1725.5527</ele>
        <time>2021-11-14T16:08:34Z</time>
      </trkpt>
      <trkpt lat="4.663242" lon="-75.063339">
        <ele>1724.7656</ele>
        <time>2021-11-14T16:08:35Z</time>
      </trkpt>
      <trkpt lat="4.663184" lon="-75.063522">
        <ele>1723.9331</ele>
        <time>2021-11-14T16:08:36Z</time>
      </trkpt>
      <trkpt lat="4.663138" lon="-75.063667">
        <ele>1723.1836</ele>
        <time>2021-11-14T16:08:37Z</time>
      </trkpt>
      <trkpt lat="4.663112" lon="-75.063744">
        <ele>1722.72</ele>
        <time>2021-11-14T16:08:38Z</time>
      </trkpt>
      <trkpt lat="4.663075" lon="-75.06382">
        <ele>1722.1772</ele>
        <time>2021-11-14T16:08:39Z</time>
      </trkpt>
      <trkpt lat="4.662996" lon="-75.063904">
        <ele>1721.1562</ele>
        <time>2021-11-14T16:08:40Z</time>
      </trkpt>
      <trkpt lat="4.662854" lon="-75.064003">
        <ele>1720.9136</ele>
        <time>2021-11-14T16:08:41Z</time>
      </trkpt>
      <trkpt lat="4.662789" lon="-75.064056">
        <ele>1720.8098</ele>
        <time>2021-11-14T16:08:42Z</time>
      </trkpt>
      <trkpt lat="4.662786" lon="-75.064056">
        <ele>1720.3857</ele>
        <time>2021-11-14T16:08:43Z</time>
      </trkpt>
      <trkpt lat="4.662754" lon="-75.064079">
        <ele>1720.502</ele>
        <time>2021-11-14T16:08:44Z</time>
      </trkpt>
      <trkpt lat="4.662726" lon="-75.064102">
        <ele>1720.0483</ele>
        <time>2021-11-14T16:08:45Z</time>
      </trkpt>
      <trkpt lat="4.662659" lon="-75.064156">
        <ele>1719.291</ele>
        <time>2021-11-14T16:08:46Z</time>
      </trkpt>
      <trkpt lat="4.662604" lon="-75.064308">
        <ele>1718.438</ele>
        <time>2021-11-14T16:08:47Z</time>
      </trkpt>
      <trkpt lat="4.66264" lon="-75.064445">
        <ele>1717.6074</ele>
        <time>2021-11-14T16:08:48Z</time>
      </trkpt>
      <trkpt lat="4.662654" lon="-75.064484">
        <ele>1716.7568</ele>
        <time>2021-11-14T16:08:49Z</time>
      </trkpt>
      <trkpt lat="4.662686" lon="-75.064568">
        <ele>1715.9575</ele>
        <time>2021-11-14T16:08:50Z</time>
      </trkpt>
      <trkpt lat="4.662749" lon="-75.064705">
        <ele>1715.3884</ele>
        <time>2021-11-14T16:08:51Z</time>
      </trkpt>
      <trkpt lat="4.66284" lon="-75.06488">
        <ele>1715.2314</ele>
        <time>2021-11-14T16:08:52Z</time>
      </trkpt>
      <trkpt lat="4.662902" lon="-75.06501">
        <ele>1714.9556</ele>
        <time>2021-11-14T16:08:53Z</time>
      </trkpt>
      <trkpt lat="4.662949" lon="-75.065163">
        <ele>1714.79</ele>
        <time>2021-11-14T16:08:54Z</time>
      </trkpt>
      <trkpt lat="4.662949" lon="-75.065163">
        <ele>1713.6614</ele>
        <time>2021-11-14T16:08:55Z</time>
      </trkpt>
      <trkpt lat="4.662952" lon="-75.065201">
        <ele>1712.708</ele>
        <time>2021-11-14T16:08:56Z</time>
      </trkpt>
      <trkpt lat="4.662952" lon="-75.065331">
        <ele>1713.1436</ele>
        <time>2021-11-14T16:08:57Z</time>
      </trkpt>
      <trkpt lat="4.662941" lon="-75.065399">
        <ele>1712.1426</ele>
        <time>2021-11-14T16:08:58Z</time>
      </trkpt>
      <trkpt lat="4.662867" lon="-75.065506">
        <ele>1711.9915</ele>
        <time>2021-11-14T16:08:59Z</time>
      </trkpt>
      <trkpt lat="4.662842" lon="-75.065529">
        <ele>1712.0596</ele>
        <time>2021-11-14T16:09:00Z</time>
      </trkpt>
      <trkpt lat="4.662761" lon="-75.065552">
        <ele>1711.6333</ele>
        <time>2021-11-14T16:09:01Z</time>
      </trkpt>
      <trkpt lat="4.662622" lon="-75.065536">
        <ele>1711.4336</ele>
        <time>2021-11-14T16:09:02Z</time>
      </trkpt>
      <trkpt lat="4.6625" lon="-75.065483">
        <ele>1711.5034</ele>
        <time>2021-11-14T16:09:03Z</time>
      </trkpt>
      <trkpt lat="4.662444" lon="-75.065453">
        <ele>1711.7239</ele>
        <time>2021-11-14T16:09:04Z</time>
      </trkpt>
      <trkpt lat="4.66235" lon="-75.065392">
        <ele>1711.8584</ele>
        <time>2021-11-14T16:09:05Z</time>
      </trkpt>
      <trkpt lat="4.662152" lon="-75.065262">
        <ele>1711.3496</ele>
        <time>2021-11-14T16:09:06Z</time>
      </trkpt>
      <trkpt lat="4.661992" lon="-75.065186">
        <ele>1711.4424</ele>
        <time>2021-11-14T16:09:07Z</time>
      </trkpt>
      <trkpt lat="4.661913" lon="-75.065163">
        <ele>1710.9177</ele>
        <time>2021-11-14T16:09:08Z</time>
      </trkpt>
      <trkpt lat="4.661728" lon="-75.065132">
        <ele>1709.9868</ele>
        <time>2021-11-14T16:09:09Z</time>
      </trkpt>
      <trkpt lat="4.661572" lon="-75.065132">
        <ele>1709.6277</ele>
        <time>2021-11-14T16:09:10Z</time>
      </trkpt>
      <trkpt lat="4.661533" lon="-75.065147">
        <ele>1709.3235</ele>
        <time>2021-11-14T16:09:11Z</time>
      </trkpt>
      <trkpt lat="4.661476" lon="-75.065186">
        <ele>1708.7754</ele>
        <time>2021-11-14T16:09:12Z</time>
      </trkpt>
      <trkpt lat="4.66141" lon="-75.065269">
        <ele>1708.6826</ele>
        <time>2021-11-14T16:09:13Z</time>
      </trkpt>
      <trkpt lat="4.661353" lon="-75.065369">
        <ele>1707.3726</ele>
        <time>2021-11-14T16:09:14Z</time>
      </trkpt>
      <trkpt lat="4.661308" lon="-75.065506">
        <ele>1707.0427</ele>
        <time>2021-11-14T16:09:15Z</time>
      </trkpt>
      <trkpt lat="4.661282" lon="-75.065659">
        <ele>1705.9648</ele>
        <time>2021-11-14T16:09:16Z</time>
      </trkpt>
      <trkpt lat="4.661275" lon="-75.065773">
        <ele>1705.8735</ele>
        <time>2021-11-14T16:09:17Z</time>
      </trkpt>
      <trkpt lat="4.661272" lon="-75.065849">
        <ele>1705.5642</ele>
        <time>2021-11-14T16:09:18Z</time>
      </trkpt>
      <trkpt lat="4.661267" lon="-75.065987">
        <ele>1705.1445</ele>
        <time>2021-11-14T16:09:19Z</time>
      </trkpt>
      <trkpt lat="4.661222" lon="-75.066109">
        <ele>1705.1243</ele>
        <time>2021-11-14T16:09:20Z</time>
      </trkpt>
      <trkpt lat="4.661147" lon="-75.066185">
        <ele>1705.1907</ele>
        <time>2021-11-14T16:09:21Z</time>
      </trkpt>
      <trkpt lat="4.661098" lon="-75.066216">
        <ele>1705.3184</ele>
        <time>2021-11-14T16:09:22Z</time>
      </trkpt>
      <trkpt lat="4.661098" lon="-75.066216">
        <ele>1704.1294</ele>
        <time>2021-11-14T16:09:23Z</time>
      </trkpt>
      <trkpt lat="4.660989" lon="-75.066261">
        <ele>1703.7598</ele>
        <time>2021-11-14T16:09:24Z</time>
      </trkpt>
      <trkpt lat="4.660933" lon="-75.066284">
        <ele>1703.6519</ele>
        <time>2021-11-14T16:09:25Z</time>
      </trkpt>
      <trkpt lat="4.660872" lon="-75.066284">
        <ele>1702.846</ele>
        <time>2021-11-14T16:09:26Z</time>
      </trkpt>
      <trkpt lat="4.660687" lon="-75.066292">
        <ele>1701.8394</ele>
        <time>2021-11-14T16:09:27Z</time>
      </trkpt>
      <trkpt lat="4.66053" lon="-75.066322">
        <ele>1701.1909</ele>
        <time>2021-11-14T16:09:28Z</time>
      </trkpt>
      <trkpt lat="4.660421" lon="-75.06633">
        <ele>1700.3428</ele>
        <time>2021-11-14T16:09:29Z</time>
      </trkpt>
      <trkpt lat="4.660326" lon="-75.066307">
        <ele>1700.3821</ele>
        <time>2021-11-14T16:09:30Z</time>
      </trkpt>
      <trkpt lat="4.660227" lon="-75.066269">
        <ele>1700.6372</ele>
        <time>2021-11-14T16:09:31Z</time>
      </trkpt>
      <trkpt lat="4.66009" lon="-75.066208">
        <ele>1699.0374</ele>
        <time>2021-11-14T16:09:32Z</time>
      </trkpt>
      <trkpt lat="4.659873" lon="-75.066109">
        <ele>1698.4792</ele>
        <time>2021-11-14T16:09:33Z</time>
      </trkpt>
      <trkpt lat="4.659701" lon="-75.066017">
        <ele>1697.2673</ele>
        <time>2021-11-14T16:09:34Z</time>
      </trkpt>
      <trkpt lat="4.659587" lon="-75.065956">
        <ele>1696.1616</ele>
        <time>2021-11-14T16:09:35Z</time>
      </trkpt>
      <trkpt lat="4.659465" lon="-75.065887">
        <ele>1695.1646</ele>
        <time>2021-11-14T16:09:36Z</time>
      </trkpt>
      <trkpt lat="4.659239" lon="-75.065727">
        <ele>1693.3975</ele>
        <time>2021-11-14T16:09:37Z</time>
      </trkpt>
      <trkpt lat="4.659149" lon="-75.065613">
        <ele>1691.8857</ele>
        <time>2021-11-14T16:09:39Z</time>
      </trkpt>
      <trkpt lat="4.659019" lon="-75.065475">
        <ele>1691.5215</ele>
        <time>2021-11-14T16:09:40Z</time>
      </trkpt>
      <trkpt lat="4.658914" lon="-75.065407">
        <ele>1691.4092</ele>
        <time>2021-11-14T16:09:41Z</time>
      </trkpt>
      <trkpt lat="4.658819" lon="-75.065338">
        <ele>1689.8345</ele>
        <time>2021-11-14T16:09:42Z</time>
      </trkpt>
      <trkpt lat="4.658789" lon="-75.065323">
        <ele>1689.5574</ele>
        <time>2021-11-14T16:09:43Z</time>
      </trkpt>
      <trkpt lat="4.658651" lon="-75.065231">
        <ele>1689.0254</ele>
        <time>2021-11-14T16:09:44Z</time>
      </trkpt>
      <trkpt lat="4.658651" lon="-75.065231">
        <ele>1687.4419</ele>
        <time>2021-11-14T16:09:45Z</time>
      </trkpt>
      <trkpt lat="4.658514" lon="-75.065163">
        <ele>1685.7163</ele>
        <time>2021-11-14T16:09:46Z</time>
      </trkpt>
      <trkpt lat="4.658398" lon="-75.065102">
        <ele>1684.6477</ele>
        <time>2021-11-14T16:09:47Z</time>
      </trkpt>
      <trkpt lat="4.658308" lon="-75.065079">
        <ele>1683.8394</ele>
        <time>2021-11-14T16:09:48Z</time>
      </trkpt>
      <trkpt lat="4.658216" lon="-75.065071">
        <ele>1682.7402</ele>
        <time>2021-11-14T16:09:49Z</time>
      </trkpt>
      <trkpt lat="4.65815" lon="-75.065094">
        <ele>1681.7725</ele>
        <time>2021-11-14T16:09:50Z</time>
      </trkpt>
      <trkpt lat="4.658098" lon="-75.065132">
        <ele>1680.5981</ele>
        <time>2021-11-14T16:09:51Z</time>
      </trkpt>
      <trkpt lat="4.658044" lon="-75.065186">
        <ele>1679.4888</ele>
        <time>2021-11-14T16:09:52Z</time>
      </trkpt>
      <trkpt lat="4.658006" lon="-75.065269">
        <ele>1678.3767</ele>
        <time>2021-11-14T16:09:53Z</time>
      </trkpt>
      <trkpt lat="4.657972" lon="-75.065392">
        <ele>1677.4751</ele>
        <time>2021-11-14T16:09:54Z</time>
      </trkpt>
      <trkpt lat="4.657936" lon="-75.065559">
        <ele>1675.865</ele>
        <time>2021-11-14T16:09:55Z</time>
      </trkpt>
      <trkpt lat="4.657885" lon="-75.065727">
        <ele>1675.0835</ele>
        <time>2021-11-14T16:09:56Z</time>
      </trkpt>
      <trkpt lat="4.657848" lon="-75.065849">
        <ele>1673.8604</ele>
        <time>2021-11-14T16:09:57Z</time>
      </trkpt>
      <trkpt lat="4.657808" lon="-75.065941">
        <ele>1673.1123</ele>
        <time>2021-11-14T16:09:58Z</time>
      </trkpt>
      <trkpt lat="4.657746" lon="-75.066048">
        <ele>1672.5413</ele>
        <time>2021-11-14T16:09:59Z</time>
      </trkpt>
      <trkpt lat="4.65767" lon="-75.066132">
        <ele>1671.438</ele>
        <time>2021-11-14T16:10:00Z</time>
      </trkpt>
      <trkpt lat="4.65754" lon="-75.066238">
        <ele>1670.3159</ele>
        <time>2021-11-14T16:10:01Z</time>
      </trkpt>
      <trkpt lat="4.657378" lon="-75.066353">
        <ele>1669.3323</ele>
        <time>2021-11-14T16:10:02Z</time>
      </trkpt>
      <trkpt lat="4.657234" lon="-75.066444">
        <ele>1668.0605</ele>
        <time>2021-11-14T16:10:03Z</time>
      </trkpt>
      <trkpt lat="4.657143" lon="-75.066521">
        <ele>1667.4194</ele>
        <time>2021-11-14T16:10:04Z</time>
      </trkpt>
      <trkpt lat="4.657041" lon="-75.066605">
        <ele>1666.4976</ele>
        <time>2021-11-14T16:10:05Z</time>
      </trkpt>
      <trkpt lat="4.656982" lon="-75.066658">
        <ele>1665.981</ele>
        <time>2021-11-14T16:10:06Z</time>
      </trkpt>
      <trkpt lat="4.656941" lon="-75.066727">
        <ele>1665.1567</ele>
        <time>2021-11-14T16:10:07Z</time>
      </trkpt>
      <trkpt lat="4.656947" lon="-75.066818">
        <ele>1664.0332</ele>
        <time>2021-11-14T16:10:08Z</time>
      </trkpt>
      <trkpt lat="4.65701" lon="-75.066895">
        <ele>1663.4255</ele>
        <time>2021-11-14T16:10:09Z</time>
      </trkpt>
      <trkpt lat="4.657056" lon="-75.066948">
        <ele>1661.8271</ele>
        <time>2021-11-14T16:10:10Z</time>
      </trkpt>
      <trkpt lat="4.65716" lon="-75.06707">
        <ele>1661.261</ele>
        <time>2021-11-14T16:10:11Z</time>
      </trkpt>
      <trkpt lat="4.657249" lon="-75.0672">
        <ele>1660.4756</ele>
        <time>2021-11-14T16:10:12Z</time>
      </trkpt>
      <trkpt lat="4.657282" lon="-75.067261">
        <ele>1659.6531</ele>
        <time>2021-11-14T16:10:13Z</time>
      </trkpt>
      <trkpt lat="4.6573" lon="-75.067307">
        <ele>1659.0615</ele>
        <time>2021-11-14T16:10:14Z</time>
      </trkpt>
      <trkpt lat="4.657309" lon="-75.067406">
        <ele>1658.3506</ele>
        <time>2021-11-14T16:10:15Z</time>
      </trkpt>
      <trkpt lat="4.657294" lon="-75.067467">
        <ele>1658.1465</ele>
        <time>2021-11-14T16:10:16Z</time>
      </trkpt>
      <trkpt lat="4.657294" lon="-75.067467">
        <ele>1658.5933</ele>
        <time>2021-11-14T16:10:17Z</time>
      </trkpt>
      <trkpt lat="4.657253" lon="-75.067543">
        <ele>1658.647</ele>
        <time>2021-11-14T16:10:18Z</time>
      </trkpt>
      <trkpt lat="4.657174" lon="-75.067619">
        <ele>1658.293</ele>
        <time>2021-11-14T16:10:19Z</time>
      </trkpt>
      <trkpt lat="4.657144" lon="-75.067635">
        <ele>1657.1206</ele>
        <time>2021-11-14T16:10:20Z</time>
      </trkpt>
      <trkpt lat="4.657022" lon="-75.067696">
        <ele>1656.7632</ele>
        <time>2021-11-14T16:10:21Z</time>
      </trkpt>
      <trkpt lat="4.656833" lon="-75.067757">
        <ele>1655.8008</ele>
        <time>2021-11-14T16:10:22Z</time>
      </trkpt>
      <trkpt lat="4.656719" lon="-75.067795">
        <ele>1655.0642</ele>
        <time>2021-11-14T16:10:23Z</time>
      </trkpt>
      <trkpt lat="4.656561" lon="-75.067848">
        <ele>1653.4683</ele>
        <time>2021-11-14T16:10:24Z</time>
      </trkpt>
      <trkpt lat="4.656464" lon="-75.067894">
        <ele>1653.1267</ele>
        <time>2021-11-14T16:10:25Z</time>
      </trkpt>
      <trkpt lat="4.656363" lon="-75.067955">
        <ele>1652.0703</ele>
        <time>2021-11-14T16:10:26Z</time>
      </trkpt>
      <trkpt lat="4.656269" lon="-75.068031">
        <ele>1650.5786</ele>
        <time>2021-11-14T16:10:27Z</time>
      </trkpt>
      <trkpt lat="4.656207" lon="-75.068108">
        <ele>1650.0801</ele>
        <time>2021-11-14T16:10:28Z</time>
      </trkpt>
      <trkpt lat="4.656156" lon="-75.068214">
        <ele>1648.3857</ele>
        <time>2021-11-14T16:10:29Z</time>
      </trkpt>
      <trkpt lat="4.656105" lon="-75.068352">
        <ele>1647.3472</ele>
        <time>2021-11-14T16:10:30Z</time>
      </trkpt>
      <trkpt lat="4.656038" lon="-75.068542">
        <ele>1646.4512</ele>
        <time>2021-11-14T16:10:31Z</time>
      </trkpt>
      <trkpt lat="4.65597" lon="-75.068687">
        <ele>1645.1089</ele>
        <time>2021-11-14T16:10:32Z</time>
      </trkpt>
      <trkpt lat="4.655907" lon="-75.068787">
        <ele>1643.9263</ele>
        <time>2021-11-14T16:10:33Z</time>
      </trkpt>
      <trkpt lat="4.65588" lon="-75.068817">
        <ele>1643.2021</ele>
        <time>2021-11-14T16:10:34Z</time>
      </trkpt>
      <trkpt lat="4.655779" lon="-75.068878">
        <ele>1641.7671</ele>
        <time>2021-11-14T16:10:35Z</time>
      </trkpt>
      <trkpt lat="4.655725" lon="-75.068886">
        <ele>1640.2173</ele>
        <time>2021-11-14T16:10:36Z</time>
      </trkpt>
      <trkpt lat="4.655616" lon="-75.068855">
        <ele>1639.2344</ele>
        <time>2021-11-14T16:10:37Z</time>
      </trkpt>
      <trkpt lat="4.655606" lon="-75.068848">
        <ele>1638.2534</ele>
        <time>2021-11-14T16:10:38Z</time>
      </trkpt>
      <trkpt lat="4.655556" lon="-75.068802">
        <ele>1638.0925</ele>
        <time>2021-11-14T16:10:39Z</time>
      </trkpt>
      <trkpt lat="4.655509" lon="-75.068703">
        <ele>1638.1436</ele>
        <time>2021-11-14T16:10:40Z</time>
      </trkpt>
      <trkpt lat="4.655453" lon="-75.068428">
        <ele>1637.6465</ele>
        <time>2021-11-14T16:10:42Z</time>
      </trkpt>
      <trkpt lat="4.655453" lon="-75.068428">
        <ele>1636.8438</ele>
        <time>2021-11-14T16:10:43Z</time>
      </trkpt>
      <trkpt lat="4.655441" lon="-75.068283">
        <ele>1635.7656</ele>
        <time>2021-11-14T16:10:44Z</time>
      </trkpt>
      <trkpt lat="4.655412" lon="-75.068146">
        <ele>1635.1279</ele>
        <time>2021-11-14T16:10:45Z</time>
      </trkpt>
      <trkpt lat="4.655373" lon="-75.068069">
        <ele>1633.1582</ele>
        <time>2021-11-14T16:10:46Z</time>
      </trkpt>
      <trkpt lat="4.655335" lon="-75.068001">
        <ele>1632.5454</ele>
        <time>2021-11-14T16:10:47Z</time>
      </trkpt>
      <trkpt lat="4.655287" lon="-75.067947">
        <ele>1632.6357</ele>
        <time>2021-11-14T16:10:48Z</time>
      </trkpt>
      <trkpt lat="4.655207" lon="-75.067871">
        <ele>1631.8894</ele>
        <time>2021-11-14T16:10:49Z</time>
      </trkpt>
      <trkpt lat="4.655107" lon="-75.067833">
        <ele>1631.8093</ele>
        <time>2021-11-14T16:10:50Z</time>
      </trkpt>
      <trkpt lat="4.655065" lon="-75.06781">
        <ele>1632.127</ele>
        <time>2021-11-14T16:10:51Z</time>
      </trkpt>
      <trkpt lat="4.655042" lon="-75.067787">
        <ele>1631.8315</ele>
        <time>2021-11-14T16:10:52Z</time>
      </trkpt>
      <trkpt lat="4.655021" lon="-75.067741">
        <ele>1631.3015</ele>
        <time>2021-11-14T16:10:53Z</time>
      </trkpt>
      <trkpt lat="4.654999" lon="-75.067665">
        <ele>1631.2495</ele>
        <time>2021-11-14T16:10:54Z</time>
      </trkpt>
      <trkpt lat="4.654981" lon="-75.067551">
        <ele>1631.894</ele>
        <time>2021-11-14T16:10:55Z</time>
      </trkpt>
      <trkpt lat="4.654947" lon="-75.067337">
        <ele>1629.7432</ele>
        <time>2021-11-14T16:10:56Z</time>
      </trkpt>
      <trkpt lat="4.654918" lon="-75.067184">
        <ele>1628.4272</ele>
        <time>2021-11-14T16:10:57Z</time>
      </trkpt>
      <trkpt lat="4.654889" lon="-75.067116">
        <ele>1626.1387</ele>
        <time>2021-11-14T16:10:58Z</time>
      </trkpt>
      <trkpt lat="4.654827" lon="-75.067039">
        <ele>1625.2668</ele>
        <time>2021-11-14T16:10:59Z</time>
      </trkpt>
      <trkpt lat="4.654762" lon="-75.066978">
        <ele>1623.3726</ele>
        <time>2021-11-14T16:11:00Z</time>
      </trkpt>
      <trkpt lat="4.654672" lon="-75.066948">
        <ele>1623.1455</ele>
        <time>2021-11-14T16:11:01Z</time>
      </trkpt>
      <trkpt lat="4.654576" lon="-75.066986">
        <ele>1622.3247</ele>
        <time>2021-11-14T16:11:02Z</time>
      </trkpt>
      <trkpt lat="4.654496" lon="-75.06707">
        <ele>1620.7122</ele>
        <time>2021-11-14T16:11:03Z</time>
      </trkpt>
      <trkpt lat="4.654459" lon="-75.067154">
        <ele>1620.2869</ele>
        <time>2021-11-14T16:11:04Z</time>
      </trkpt>
      <trkpt lat="4.654429" lon="-75.067261">
        <ele>1619.3037</ele>
        <time>2021-11-14T16:11:05Z</time>
      </trkpt>
      <trkpt lat="4.654418" lon="-75.067436">
        <ele>1618.5508</ele>
        <time>2021-11-14T16:11:06Z</time>
      </trkpt>
      <trkpt lat="4.654421" lon="-75.06749">
        <ele>1617.5132</ele>
        <time>2021-11-14T16:11:07Z</time>
      </trkpt>
      <trkpt lat="4.654434" lon="-75.067574">
        <ele>1616.6826</ele>
        <time>2021-11-14T16:11:08Z</time>
      </trkpt>
      <trkpt lat="4.654484" lon="-75.067772">
        <ele>1616.1646</ele>
        <time>2021-11-14T16:11:09Z</time>
      </trkpt>
      <trkpt lat="4.65452" lon="-75.067902">
        <ele>1615.3975</ele>
        <time>2021-11-14T16:11:10Z</time>
      </trkpt>
      <trkpt lat="4.65456" lon="-75.068031">
        <ele>1614.0337</ele>
        <time>2021-11-14T16:11:11Z</time>
      </trkpt>
      <trkpt lat="4.65456" lon="-75.068031">
        <ele>1612.8315</ele>
        <time>2021-11-14T16:11:12Z</time>
      </trkpt>
      <trkpt lat="4.654592" lon="-75.068169">
        <ele>1612.1455</ele>
        <time>2021-11-14T16:11:13Z</time>
      </trkpt>
      <trkpt lat="4.654599" lon="-75.068245">
        <ele>1610.752</ele>
        <time>2021-11-14T16:11:14Z</time>
      </trkpt>
      <trkpt lat="4.654591" lon="-75.068329">
        <ele>1610.3782</ele>
        <time>2021-11-14T16:11:15Z</time>
      </trkpt>
      <trkpt lat="4.654558" lon="-75.068428">
        <ele>1609.7954</ele>
        <time>2021-11-14T16:11:16Z</time>
      </trkpt>
      <trkpt lat="4.654497" lon="-75.06852">
        <ele>1609.1118</ele>
        <time>2021-11-14T16:11:17Z</time>
      </trkpt>
      <trkpt lat="4.654417" lon="-75.068596">
        <ele>1608.5698</ele>
        <time>2021-11-14T16:11:18Z</time>
      </trkpt>
      <trkpt lat="4.654318" lon="-75.068634">
        <ele>1608.0312</ele>
        <time>2021-11-14T16:11:19Z</time>
      </trkpt>
      <trkpt lat="4.654237" lon="-75.068634">
        <ele>1607.4878</ele>
        <time>2021-11-14T16:11:20Z</time>
      </trkpt>
      <trkpt lat="4.654189" lon="-75.068626">
        <ele>1607.0576</ele>
        <time>2021-11-14T16:11:21Z</time>
      </trkpt>
      <trkpt lat="4.654137" lon="-75.068619">
        <ele>1606.3284</ele>
        <time>2021-11-14T16:11:22Z</time>
      </trkpt>
      <trkpt lat="4.654076" lon="-75.068588">
        <ele>1605.751</ele>
        <time>2021-11-14T16:11:23Z</time>
      </trkpt>
      <trkpt lat="4.654046" lon="-75.068573">
        <ele>1605.0742</ele>
        <time>2021-11-14T16:11:24Z</time>
      </trkpt>
      <trkpt lat="4.653936" lon="-75.068443">
        <ele>1604.9023</ele>
        <time>2021-11-14T16:11:25Z</time>
      </trkpt>
      <trkpt lat="4.653885" lon="-75.068306">
        <ele>1604.4912</ele>
        <time>2021-11-14T16:11:26Z</time>
      </trkpt>
      <trkpt lat="4.653842" lon="-75.068199">
        <ele>1603.6914</ele>
        <time>2021-11-14T16:11:27Z</time>
      </trkpt>
      <trkpt lat="4.653765" lon="-75.068077">
        <ele>1602.885</ele>
        <time>2021-11-14T16:11:28Z</time>
      </trkpt>
      <trkpt lat="4.653682" lon="-75.067978">
        <ele>1602.6301</ele>
        <time>2021-11-14T16:11:29Z</time>
      </trkpt>
      <trkpt lat="4.653611" lon="-75.067917">
        <ele>1602.2354</ele>
        <time>2021-11-14T16:11:30Z</time>
      </trkpt>
      <trkpt lat="4.653514" lon="-75.067863">
        <ele>1602.1375</ele>
        <time>2021-11-14T16:11:31Z</time>
      </trkpt>
      <trkpt lat="4.653428" lon="-75.067833">
        <ele>1601.1597</ele>
        <time>2021-11-14T16:11:32Z</time>
      </trkpt>
      <trkpt lat="4.653336" lon="-75.067841">
        <ele>1600.1895</ele>
        <time>2021-11-14T16:11:33Z</time>
      </trkpt>
      <trkpt lat="4.653192" lon="-75.067886">
        <ele>1599.1328</ele>
        <time>2021-11-14T16:11:34Z</time>
      </trkpt>
      <trkpt lat="4.653085" lon="-75.067909">
        <ele>1598.8452</ele>
        <time>2021-11-14T16:11:35Z</time>
      </trkpt>
      <trkpt lat="4.653042" lon="-75.067902">
        <ele>1598.3315</ele>
        <time>2021-11-14T16:11:36Z</time>
      </trkpt>
      <trkpt lat="4.652989" lon="-75.067871">
        <ele>1597.9575</ele>
        <time>2021-11-14T16:11:37Z</time>
      </trkpt>
      <trkpt lat="4.652926" lon="-75.067818">
        <ele>1597.2261</ele>
        <time>2021-11-14T16:11:38Z</time>
      </trkpt>
      <trkpt lat="4.652918" lon="-75.067802">
        <ele>1596.685</ele>
        <time>2021-11-14T16:11:40Z</time>
      </trkpt>
      <trkpt lat="4.652855" lon="-75.067642">
        <ele>1595.0608</ele>
        <time>2021-11-14T16:11:41Z</time>
      </trkpt>
      <trkpt lat="4.652855" lon="-75.067642">
        <ele>1594.2795</ele>
        <time>2021-11-14T16:11:42Z</time>
      </trkpt>
      <trkpt lat="4.652839" lon="-75.06749">
        <ele>1592.8315</ele>
        <time>2021-11-14T16:11:43Z</time>
      </trkpt>
      <trkpt lat="4.652844" lon="-75.067307">
        <ele>1590.5234</ele>
        <time>2021-11-14T16:11:44Z</time>
      </trkpt>
      <trkpt lat="4.652847" lon="-75.067116">
        <ele>1588.6555</ele>
        <time>2021-11-14T16:11:45Z</time>
      </trkpt>
      <trkpt lat="4.652827" lon="-75.066895">
        <ele>1587.1416</ele>
        <time>2021-11-14T16:11:46Z</time>
      </trkpt>
      <trkpt lat="4.652813" lon="-75.066757">
        <ele>1585.1084</ele>
        <time>2021-11-14T16:11:47Z</time>
      </trkpt>
      <trkpt lat="4.652803" lon="-75.066658">
        <ele>1584.1343</ele>
        <time>2021-11-14T16:11:48Z</time>
      </trkpt>
      <trkpt lat="4.652771" lon="-75.066521">
        <ele>1582.377</ele>
        <time>2021-11-14T16:11:49Z</time>
      </trkpt>
      <trkpt lat="4.652735" lon="-75.066376">
        <ele>1580.852</ele>
        <time>2021-11-14T16:11:50Z</time>
      </trkpt>
      <trkpt lat="4.652675" lon="-75.066246">
        <ele>1580.022</ele>
        <time>2021-11-14T16:11:51Z</time>
      </trkpt>
      <trkpt lat="4.652588" lon="-75.066139">
        <ele>1579.6631</ele>
        <time>2021-11-14T16:11:52Z</time>
      </trkpt>
      <trkpt lat="4.652498" lon="-75.066071">
        <ele>1578.2754</ele>
        <time>2021-11-14T16:11:53Z</time>
      </trkpt>
      <trkpt lat="4.652394" lon="-75.065994">
        <ele>1577.5713</ele>
        <time>2021-11-14T16:11:54Z</time>
      </trkpt>
      <trkpt lat="4.652209" lon="-75.065918">
        <ele>1576.5889</ele>
        <time>2021-11-14T16:11:55Z</time>
      </trkpt>
      <trkpt lat="4.652058" lon="-75.065857">
        <ele>1575.6338</ele>
        <time>2021-11-14T16:11:56Z</time>
      </trkpt>
      <trkpt lat="4.65195" lon="-75.065796">
        <ele>1575.1555</ele>
        <time>2021-11-14T16:11:57Z</time>
      </trkpt>
      <trkpt lat="4.651841" lon="-75.065742">
        <ele>1574.5776</ele>
        <time>2021-11-14T16:11:58Z</time>
      </trkpt>
      <trkpt lat="4.651727" lon="-75.065712">
        <ele>1574.064</ele>
        <time>2021-11-14T16:11:59Z</time>
      </trkpt>
      <trkpt lat="4.651628" lon="-75.065712">
        <ele>1573.9048</ele>
        <time>2021-11-14T16:12:00Z</time>
      </trkpt>
      <trkpt lat="4.651518" lon="-75.065758">
        <ele>1573.7515</ele>
        <time>2021-11-14T16:12:01Z</time>
      </trkpt>
      <trkpt lat="4.651439" lon="-75.065826">
        <ele>1573.5151</ele>
        <time>2021-11-14T16:12:02Z</time>
      </trkpt>
      <trkpt lat="4.651383" lon="-75.065903">
        <ele>1573.4546</ele>
        <time>2021-11-14T16:12:03Z</time>
      </trkpt>
      <trkpt lat="4.651325" lon="-75.066032">
        <ele>1572.9341</ele>
        <time>2021-11-14T16:12:04Z</time>
      </trkpt>
      <trkpt lat="4.651294" lon="-75.066177">
        <ele>1572.3252</ele>
        <time>2021-11-14T16:12:05Z</time>
      </trkpt>
      <trkpt lat="4.651271" lon="-75.066284">
        <ele>1572.2349</ele>
        <time>2021-11-14T16:12:06Z</time>
      </trkpt>
      <trkpt lat="4.651227" lon="-75.066429">
        <ele>1571.7009</ele>
        <time>2021-11-14T16:12:07Z</time>
      </trkpt>
      <trkpt lat="4.651207" lon="-75.066483">
        <ele>1571.3108</ele>
        <time>2021-11-14T16:12:08Z</time>
      </trkpt>
      <trkpt lat="4.651193" lon="-75.066513">
        <ele>1571.032</ele>
        <time>2021-11-14T16:12:09Z</time>
      </trkpt>
      <trkpt lat="4.65118" lon="-75.066536">
        <ele>1570.5605</ele>
        <time>2021-11-14T16:12:10Z</time>
      </trkpt>
      <trkpt lat="4.65118" lon="-75.066536">
        <ele>1570.2261</ele>
        <time>2021-11-14T16:12:11Z</time>
      </trkpt>
      <trkpt lat="4.651144" lon="-75.066612">
        <ele>1569.9531</ele>
        <time>2021-11-14T16:12:12Z</time>
      </trkpt>
      <trkpt lat="4.65111" lon="-75.06665">
        <ele>1569.685</ele>
        <time>2021-11-14T16:12:13Z</time>
      </trkpt>
      <trkpt lat="4.651056" lon="-75.066704">
        <ele>1569.5293</ele>
        <time>2021-11-14T16:12:14Z</time>
      </trkpt>
      <trkpt lat="4.65099" lon="-75.066734">
        <ele>1569.2346</ele>
        <time>2021-11-14T16:12:15Z</time>
      </trkpt>
      <trkpt lat="4.650923" lon="-75.066742">
        <ele>1569.2056</ele>
        <time>2021-11-14T16:12:16Z</time>
      </trkpt>
      <trkpt lat="4.650824" lon="-75.066711">
        <ele>1568.6841</ele>
        <time>2021-11-14T16:12:17Z</time>
      </trkpt>
      <trkpt lat="4.650719" lon="-75.066628">
        <ele>1568.3198</ele>
        <time>2021-11-14T16:12:18Z</time>
      </trkpt>
      <trkpt lat="4.650649" lon="-75.066566">
        <ele>1568.4536</ele>
        <time>2021-11-14T16:12:19Z</time>
      </trkpt>
      <trkpt lat="4.650636" lon="-75.066528">
        <ele>1567.6045</ele>
        <time>2021-11-14T16:12:20Z</time>
      </trkpt>
      <trkpt lat="4.650605" lon="-75.066429">
        <ele>1566.3008</ele>
        <time>2021-11-14T16:12:21Z</time>
      </trkpt>
      <trkpt lat="4.650565" lon="-75.066238">
        <ele>1565.041</ele>
        <time>2021-11-14T16:12:22Z</time>
      </trkpt>
      <trkpt lat="4.650538" lon="-75.066025">
        <ele>1563.3062</ele>
        <time>2021-11-14T16:12:23Z</time>
      </trkpt>
      <trkpt lat="4.650516" lon="-75.065834">
        <ele>1561.1836</ele>
        <time>2021-11-14T16:12:24Z</time>
      </trkpt>
      <trkpt lat="4.650486" lon="-75.065643">
        <ele>1559.1865</ele>
        <time>2021-11-14T16:12:25Z</time>
      </trkpt>
      <trkpt lat="4.65044" lon="-75.06546">
        <ele>1557.3364</ele>
        <time>2021-11-14T16:12:26Z</time>
      </trkpt>
      <trkpt lat="4.650401" lon="-75.065292">
        <ele>1556.0415</ele>
        <time>2021-11-14T16:12:28Z</time>
      </trkpt>
      <trkpt lat="4.650352" lon="-75.06514">
        <ele>1554.998</ele>
        <time>2021-11-14T16:12:29Z</time>
      </trkpt>
      <trkpt lat="4.65032" lon="-75.065025">
        <ele>1554.0273</ele>
        <time>2021-11-14T16:12:30Z</time>
      </trkpt>
      <trkpt lat="4.650322" lon="-75.064987">
        <ele>1553.0894</ele>
        <time>2021-11-14T16:12:31Z</time>
      </trkpt>
      <trkpt lat="4.650328" lon="-75.064804">
        <ele>1553.5483</ele>
        <time>2021-11-14T16:12:32Z</time>
      </trkpt>
      <trkpt lat="4.650333" lon="-75.064674">
        <ele>1555.0566</ele>
        <time>2021-11-14T16:12:33Z</time>
      </trkpt>
      <trkpt lat="4.650343" lon="-75.064407">
        <ele>1553.2837</ele>
        <time>2021-11-14T16:12:34Z</time>
      </trkpt>
      <trkpt lat="4.650354" lon="-75.06424">
        <ele>1551.6279</ele>
        <time>2021-11-14T16:12:35Z</time>
      </trkpt>
      <trkpt lat="4.650368" lon="-75.064102">
        <ele>1550.9966</ele>
        <time>2021-11-14T16:12:36Z</time>
      </trkpt>
      <trkpt lat="4.650384" lon="-75.063911">
        <ele>1549.4849</ele>
        <time>2021-11-14T16:12:37Z</time>
      </trkpt>
      <trkpt lat="4.650376" lon="-75.063683">
        <ele>1547.4802</ele>
        <time>2021-11-14T16:12:38Z</time>
      </trkpt>
      <trkpt lat="4.650344" lon="-75.063545">
        <ele>1546.5408</ele>
        <time>2021-11-14T16:12:39Z</time>
      </trkpt>
      <trkpt lat="4.650304" lon="-75.063408">
        <ele>1544.8713</ele>
        <time>2021-11-14T16:12:40Z</time>
      </trkpt>
      <trkpt lat="4.650304" lon="-75.063408">
        <ele>1543.8352</ele>
        <time>2021-11-14T16:12:41Z</time>
      </trkpt>
      <trkpt lat="4.650236" lon="-75.063248">
        <ele>1542.0255</ele>
        <time>2021-11-14T16:12:42Z</time>
      </trkpt>
      <trkpt lat="4.650209" lon="-75.063103">
        <ele>1540.5557</ele>
        <time>2021-11-14T16:12:43Z</time>
      </trkpt>
      <trkpt lat="4.650202" lon="-75.063004">
        <ele>1539.7004</ele>
        <time>2021-11-14T16:12:44Z</time>
      </trkpt>
      <trkpt lat="4.650214" lon="-75.062897">
        <ele>1538.2986</ele>
        <time>2021-11-14T16:12:45Z</time>
      </trkpt>
      <trkpt lat="4.650238" lon="-75.062782">
        <ele>1538.4353</ele>
        <time>2021-11-14T16:12:46Z</time>
      </trkpt>
      <trkpt lat="4.650283" lon="-75.062622">
        <ele>1537.1709</ele>
        <time>2021-11-14T16:12:47Z</time>
      </trkpt>
      <trkpt lat="4.65034" lon="-75.062447">
        <ele>1537.0924</ele>
        <time>2021-11-14T16:12:48Z</time>
      </trkpt>
      <trkpt lat="4.650402" lon="-75.062317">
        <ele>1536.9128</ele>
        <time>2021-11-14T16:12:49Z</time>
      </trkpt>
      <trkpt lat="4.650445" lon="-75.062195">
        <ele>1537.6069</ele>
        <time>2021-11-14T16:12:50Z</time>
      </trkpt>
      <trkpt lat="4.65046" lon="-75.062111">
        <ele>1537.7806</ele>
        <time>2021-11-14T16:12:51Z</time>
      </trkpt>
      <trkpt lat="4.650472" lon="-75.062035">
        <ele>1537.5033</ele>
        <time>2021-11-14T16:12:52Z</time>
      </trkpt>
      <trkpt lat="4.650442" lon="-75.061905">
        <ele>1537.6339</ele>
        <time>2021-11-14T16:12:53Z</time>
      </trkpt>
      <trkpt lat="4.650388" lon="-75.061752">
        <ele>1537.9719</ele>
        <time>2021-11-14T16:12:54Z</time>
      </trkpt>
      <trkpt lat="4.650334" lon="-75.061676">
        <ele>1536.9915</ele>
        <time>2021-11-14T16:12:55Z</time>
      </trkpt>
      <trkpt lat="4.650272" lon="-75.061615">
        <ele>1537.6696</ele>
        <time>2021-11-14T16:12:56Z</time>
      </trkpt>
      <trkpt lat="4.65018" lon="-75.061554">
        <ele>1538.1522</ele>
        <time>2021-11-14T16:12:57Z</time>
      </trkpt>
      <trkpt lat="4.650056" lon="-75.061493">
        <ele>1538.4468</ele>
        <time>2021-11-14T16:12:58Z</time>
      </trkpt>
      <trkpt lat="4.649915" lon="-75.061417">
        <ele>1539.2355</ele>
        <time>2021-11-14T16:12:59Z</time>
      </trkpt>
      <trkpt lat="4.649801" lon="-75.06131">
        <ele>1538.9504</ele>
        <time>2021-11-14T16:13:00Z</time>
      </trkpt>
      <trkpt lat="4.64969" lon="-75.06118">
        <ele>1540.243</ele>
        <time>2021-11-14T16:13:01Z</time>
      </trkpt>
      <trkpt lat="4.649534" lon="-75.061005">
        <ele>1540.6606</ele>
        <time>2021-11-14T16:13:02Z</time>
      </trkpt>
      <trkpt lat="4.649476" lon="-75.060928">
        <ele>1541.1132</ele>
        <time>2021-11-14T16:13:03Z</time>
      </trkpt>
      <trkpt lat="4.649425" lon="-75.060844">
        <ele>1540.9342</ele>
        <time>2021-11-14T16:13:04Z</time>
      </trkpt>
      <trkpt lat="4.649397" lon="-75.060745">
        <ele>1541.9791</ele>
        <time>2021-11-14T16:13:05Z</time>
      </trkpt>
      <trkpt lat="4.649356" lon="-75.060539">
        <ele>1541.7185</ele>
        <time>2021-11-14T16:13:06Z</time>
      </trkpt>
      <trkpt lat="4.649305" lon="-75.060356">
        <ele>1542.0016</ele>
        <time>2021-11-14T16:13:07Z</time>
      </trkpt>
      <trkpt lat="4.649231" lon="-75.060257">
        <ele>1541.7933</ele>
        <time>2021-11-14T16:13:08Z</time>
      </trkpt>
      <trkpt lat="4.649171" lon="-75.060188">
        <ele>1541.7361</ele>
        <time>2021-11-14T16:13:09Z</time>
      </trkpt>
      <trkpt lat="4.649056" lon="-75.060104">
        <ele>1541.9414</ele>
        <time>2021-11-14T16:13:10Z</time>
      </trkpt>
      <trkpt lat="4.648886" lon="-75.05999">
        <ele>1542.8043</ele>
        <time>2021-11-14T16:13:11Z</time>
      </trkpt>
      <trkpt lat="4.648886" lon="-75.05999">
        <ele>1543.2762</ele>
        <time>2021-11-14T16:13:12Z</time>
      </trkpt>
      <trkpt lat="4.648731" lon="-75.059891">
        <ele>1543.9175</ele>
        <time>2021-11-14T16:13:13Z</time>
      </trkpt>
      <trkpt lat="4.648619" lon="-75.059814">
        <ele>1544.8169</ele>
        <time>2021-11-14T16:13:14Z</time>
      </trkpt>
      <trkpt lat="4.648534" lon="-75.059746">
        <ele>1545.4999</ele>
        <time>2021-11-14T16:13:15Z</time>
      </trkpt>
      <trkpt lat="4.648447" lon="-75.059669">
        <ele>1546.1348</ele>
        <time>2021-11-14T16:13:16Z</time>
      </trkpt>
      <trkpt lat="4.648355" lon="-75.05957">
        <ele>1546.7544</ele>
        <time>2021-11-14T16:13:17Z</time>
      </trkpt>
      <trkpt lat="4.648282" lon="-75.059433">
        <ele>1547.7219</ele>
        <time>2021-11-14T16:13:18Z</time>
      </trkpt>
      <trkpt lat="4.648225" lon="-75.059296">
        <ele>1548.3271</ele>
        <time>2021-11-14T16:13:19Z</time>
      </trkpt>
      <trkpt lat="4.64817" lon="-75.059158">
        <ele>1550.1353</ele>
        <time>2021-11-14T16:13:20Z</time>
      </trkpt>
      <trkpt lat="4.648122" lon="-75.058983">
        <ele>1550.7334</ele>
        <time>2021-11-14T16:13:21Z</time>
      </trkpt>
      <trkpt lat="4.648079" lon="-75.058823">
        <ele>1552.8469</ele>
        <time>2021-11-14T16:13:22Z</time>
      </trkpt>
      <trkpt lat="4.648036" lon="-75.058655">
        <ele>1553.8157</ele>
        <time>2021-11-14T16:13:23Z</time>
      </trkpt>
      <trkpt lat="4.648002" lon="-75.058487">
        <ele>1555.4683</ele>
        <time>2021-11-14T16:13:24Z</time>
      </trkpt>
      <trkpt lat="4.647959" lon="-75.058319">
        <ele>1555.6929</ele>
        <time>2021-11-14T16:13:25Z</time>
      </trkpt>
      <trkpt lat="4.64791" lon="-75.058228">
        <ele>1556.9839</ele>
        <time>2021-11-14T16:13:26Z</time>
      </trkpt>
      <trkpt lat="4.647872" lon="-75.058197">
        <ele>1557.1182</ele>
        <time>2021-11-14T16:13:27Z</time>
      </trkpt>
      <trkpt lat="4.647786" lon="-75.058151">
        <ele>1558.5078</ele>
        <time>2021-11-14T16:13:28Z</time>
      </trkpt>
      <trkpt lat="4.647712" lon="-75.058128">
        <ele>1559.5239</ele>
        <time>2021-11-14T16:13:29Z</time>
      </trkpt>
      <trkpt lat="4.647558" lon="-75.058105">
        <ele>1561.0029</ele>
        <time>2021-11-14T16:13:30Z</time>
      </trkpt>
      <trkpt lat="4.647401" lon="-75.058083">
        <ele>1562.9578</ele>
        <time>2021-11-14T16:13:31Z</time>
      </trkpt>
      <trkpt lat="4.647274" lon="-75.058029">
        <ele>1564.3474</ele>
        <time>2021-11-14T16:13:32Z</time>
      </trkpt>
      <trkpt lat="4.647159" lon="-75.05793">
        <ele>1565.8896</ele>
        <time>2021-11-14T16:13:33Z</time>
      </trkpt>
      <trkpt lat="4.647097" lon="-75.057861">
        <ele>1566.023</ele>
        <time>2021-11-14T16:13:34Z</time>
      </trkpt>
      <trkpt lat="4.647055" lon="-75.057747">
        <ele>1566.7612</ele>
        <time>2021-11-14T16:13:35Z</time>
      </trkpt>
      <trkpt lat="4.647054" lon="-75.057617">
        <ele>1567.4106</ele>
        <time>2021-11-14T16:13:36Z</time>
      </trkpt>
      <trkpt lat="4.647073" lon="-75.057472">
        <ele>1568.4834</ele>
        <time>2021-11-14T16:13:37Z</time>
      </trkpt>
      <trkpt lat="4.647073" lon="-75.057472">
        <ele>1569.6636</ele>
        <time>2021-11-14T16:13:38Z</time>
      </trkpt>
      <trkpt lat="4.647131" lon="-75.057312">
        <ele>1571.4971</ele>
        <time>2021-11-14T16:13:39Z</time>
      </trkpt>
      <trkpt lat="4.647182" lon="-75.057152">
        <ele>1572.592</ele>
        <time>2021-11-14T16:13:41Z</time>
      </trkpt>
      <trkpt lat="4.647186" lon="-75.056992">
        <ele>1573.5381</ele>
        <time>2021-11-14T16:13:42Z</time>
      </trkpt>
      <trkpt lat="4.647176" lon="-75.056831">
        <ele>1573.4309</ele>
        <time>2021-11-14T16:13:43Z</time>
      </trkpt>
      <trkpt lat="4.647171" lon="-75.05674">
        <ele>1573.4473</ele>
        <time>2021-11-14T16:13:44Z</time>
      </trkpt>
      <trkpt lat="4.647166" lon="-75.056648">
        <ele>1573.624</ele>
        <time>2021-11-14T16:13:45Z</time>
      </trkpt>
      <trkpt lat="4.647155" lon="-75.056473">
        <ele>1573.2378</ele>
        <time>2021-11-14T16:13:46Z</time>
      </trkpt>
      <trkpt lat="4.647159" lon="-75.056313">
        <ele>1573.1108</ele>
        <time>2021-11-14T16:13:47Z</time>
      </trkpt>
      <trkpt lat="4.647171" lon="-75.056236">
        <ele>1572.7173</ele>
        <time>2021-11-14T16:13:48Z</time>
      </trkpt>
      <trkpt lat="4.647202" lon="-75.056168">
        <ele>1572.2561</ele>
        <time>2021-11-14T16:13:49Z</time>
      </trkpt>
      <trkpt lat="4.647291" lon="-75.056068">
        <ele>1572.8096</ele>
        <time>2021-11-14T16:13:50Z</time>
      </trkpt>
      <trkpt lat="4.647426" lon="-75.055962">
        <ele>1572.7827</ele>
        <time>2021-11-14T16:13:51Z</time>
      </trkpt>
      <trkpt lat="4.647519" lon="-75.055862">
        <ele>1572.5127</ele>
        <time>2021-11-14T16:13:52Z</time>
      </trkpt>
      <trkpt lat="4.647583" lon="-75.055794">
        <ele>1571.4844</ele>
        <time>2021-11-14T16:13:53Z</time>
      </trkpt>
      <trkpt lat="4.647657" lon="-75.05571">
        <ele>1570.6521</ele>
        <time>2021-11-14T16:13:54Z</time>
      </trkpt>
      <trkpt lat="4.647713" lon="-75.055626">
        <ele>1569.8457</ele>
        <time>2021-11-14T16:13:55Z</time>
      </trkpt>
      <trkpt lat="4.647756" lon="-75.055557">
        <ele>1570.3472</ele>
        <time>2021-11-14T16:13:56Z</time>
      </trkpt>
      <trkpt lat="4.647798" lon="-75.055466">
        <ele>1568.2656</ele>
        <time>2021-11-14T16:13:57Z</time>
      </trkpt>
      <trkpt lat="4.647834" lon="-75.055374">
        <ele>1567.4927</ele>
        <time>2021-11-14T16:13:58Z</time>
      </trkpt>
      <trkpt lat="4.647872" lon="-75.055283">
        <ele>1566.6509</ele>
        <time>2021-11-14T16:13:59Z</time>
      </trkpt>
      <trkpt lat="4.647933" lon="-75.055122">
        <ele>1564.9392</ele>
        <time>2021-11-14T16:14:00Z</time>
      </trkpt>
      <trkpt lat="4.647957" lon="-75.055069">
        <ele>1563.5493</ele>
        <time>2021-11-14T16:14:01Z</time>
      </trkpt>
      <trkpt lat="4.647978" lon="-75.055016">
        <ele>1563.2649</ele>
        <time>2021-11-14T16:14:02Z</time>
      </trkpt>
      <trkpt lat="4.647995" lon="-75.054985">
        <ele>1563.0745</ele>
        <time>2021-11-14T16:14:03Z</time>
      </trkpt>
      <trkpt lat="4.648041" lon="-75.054916">
        <ele>1562.5696</ele>
        <time>2021-11-14T16:14:04Z</time>
      </trkpt>
      <trkpt lat="4.648155" lon="-75.054817">
        <ele>1562.1133</ele>
        <time>2021-11-14T16:14:05Z</time>
      </trkpt>
      <trkpt lat="4.648291" lon="-75.05471">
        <ele>1562.4316</ele>
        <time>2021-11-14T16:14:06Z</time>
      </trkpt>
      <trkpt lat="4.648383" lon="-75.054604">
        <ele>1561.7842</ele>
        <time>2021-11-14T16:14:07Z</time>
      </trkpt>
      <trkpt lat="4.648436" lon="-75.054512">
        <ele>1561.448</ele>
        <time>2021-11-14T16:14:08Z</time>
      </trkpt>
      <trkpt lat="4.648474" lon="-75.054443">
        <ele>1561.4412</ele>
        <time>2021-11-14T16:14:09Z</time>
      </trkpt>
      <trkpt lat="4.648505" lon="-75.054352">
        <ele>1560.6343</ele>
        <time>2021-11-14T16:14:10Z</time>
      </trkpt>
      <trkpt lat="4.6485" lon="-75.054253">
        <ele>1559.6904</ele>
        <time>2021-11-14T16:14:11Z</time>
      </trkpt>
      <trkpt lat="4.648449" lon="-75.054153">
        <ele>1559.3708</ele>
        <time>2021-11-14T16:14:12Z</time>
      </trkpt>
      <trkpt lat="4.648373" lon="-75.054054">
        <ele>1559.1174</ele>
        <time>2021-11-14T16:14:13Z</time>
      </trkpt>
      <trkpt lat="4.648273" lon="-75.053955">
        <ele>1559.4175</ele>
        <time>2021-11-14T16:14:14Z</time>
      </trkpt>
      <trkpt lat="4.648188" lon="-75.053871">
        <ele>1559.5298</ele>
        <time>2021-11-14T16:14:15Z</time>
      </trkpt>
      <trkpt lat="4.648095" lon="-75.05378">
        <ele>1559.5566</ele>
        <time>2021-11-14T16:14:16Z</time>
      </trkpt>
      <trkpt lat="4.648095" lon="-75.05378">
        <ele>1559.6055</ele>
        <time>2021-11-14T16:14:17Z</time>
      </trkpt>
      <trkpt lat="4.648002" lon="-75.05368">
        <ele>1559.8091</ele>
        <time>2021-11-14T16:14:18Z</time>
      </trkpt>
      <trkpt lat="4.647945" lon="-75.053596">
        <ele>1559.667</ele>
        <time>2021-11-14T16:14:19Z</time>
      </trkpt>
      <trkpt lat="4.647913" lon="-75.053551">
        <ele>1559.6953</ele>
        <time>2021-11-14T16:14:20Z</time>
      </trkpt>
      <trkpt lat="4.647887" lon="-75.053497">
        <ele>1559.5728</ele>
        <time>2021-11-14T16:14:21Z</time>
      </trkpt>
      <trkpt lat="4.647856" lon="-75.053444">
        <ele>1559.9309</ele>
        <time>2021-11-14T16:14:22Z</time>
      </trkpt>
      <trkpt lat="4.647831" lon="-75.053391">
        <ele>1559.2207</ele>
        <time>2021-11-14T16:14:23Z</time>
      </trkpt>
      <trkpt lat="4.64781" lon="-75.053337">
        <ele>1559.0801</ele>
        <time>2021-11-14T16:14:24Z</time>
      </trkpt>
      <trkpt lat="4.647775" lon="-75.053238">
        <ele>1558.6011</ele>
        <time>2021-11-14T16:14:25Z</time>
      </trkpt>
      <trkpt lat="4.647745" lon="-75.053131">
        <ele>1558.9182</ele>
        <time>2021-11-14T16:14:26Z</time>
      </trkpt>
      <trkpt lat="4.647724" lon="-75.053032">
        <ele>1558.7085</ele>
        <time>2021-11-14T16:14:27Z</time>
      </trkpt>
      <trkpt lat="4.647719" lon="-75.052902">
        <ele>1559.2898</ele>
        <time>2021-11-14T16:14:28Z</time>
      </trkpt>
      <trkpt lat="4.647747" lon="-75.052734">
        <ele>1559.935</ele>
        <time>2021-11-14T16:14:29Z</time>
      </trkpt>
      <trkpt lat="4.647781" lon="-75.052582">
        <ele>1560.5183</ele>
        <time>2021-11-14T16:14:30Z</time>
      </trkpt>
      <trkpt lat="4.647817" lon="-75.052429">
        <ele>1560.6421</ele>
        <time>2021-11-14T16:14:31Z</time>
      </trkpt>
      <trkpt lat="4.647807" lon="-75.052307">
        <ele>1560.7266</ele>
        <time>2021-11-14T16:14:32Z</time>
      </trkpt>
      <trkpt lat="4.647764" lon="-75.052193">
        <ele>1561.1919</ele>
        <time>2021-11-14T16:14:33Z</time>
      </trkpt>
      <trkpt lat="4.647708" lon="-75.052116">
        <ele>1561.8452</ele>
        <time>2021-11-14T16:14:34Z</time>
      </trkpt>
      <trkpt lat="4.647627" lon="-75.052017">
        <ele>1561.6108</ele>
        <time>2021-11-14T16:14:35Z</time>
      </trkpt>
      <trkpt lat="4.647491" lon="-75.051872">
        <ele>1562.1074</ele>
        <time>2021-11-14T16:14:36Z</time>
      </trkpt>
      <trkpt lat="4.647382" lon="-75.051727">
        <ele>1562.3726</ele>
        <time>2021-11-14T16:14:37Z</time>
      </trkpt>
      <trkpt lat="4.64729" lon="-75.051575">
        <ele>1563.0117</ele>
        <time>2021-11-14T16:14:38Z</time>
      </trkpt>
      <trkpt lat="4.647241" lon="-75.051483">
        <ele>1563.5925</ele>
        <time>2021-11-14T16:14:39Z</time>
      </trkpt>
      <trkpt lat="4.647234" lon="-75.051468">
        <ele>1563.9578</ele>
        <time>2021-11-14T16:14:40Z</time>
      </trkpt>
      <trkpt lat="4.647212" lon="-75.051422">
        <ele>1563.8694</ele>
        <time>2021-11-14T16:14:41Z</time>
      </trkpt>
      <trkpt lat="4.647186" lon="-75.051346">
        <ele>1564.2144</ele>
        <time>2021-11-14T16:14:43Z</time>
      </trkpt>
      <trkpt lat="4.647162" lon="-75.051277">
        <ele>1564.1494</ele>
        <time>2021-11-14T16:14:44Z</time>
      </trkpt>
      <trkpt lat="4.647162" lon="-75.051277">
        <ele>1563.9243</ele>
        <time>2021-11-14T16:14:45Z</time>
      </trkpt>
      <trkpt lat="4.647151" lon="-75.051247">
        <ele>1564.1646</ele>
        <time>2021-11-14T16:14:46Z</time>
      </trkpt>
      <trkpt lat="4.647143" lon="-75.051163">
        <ele>1564.3306</ele>
        <time>2021-11-14T16:14:47Z</time>
      </trkpt>
      <trkpt lat="4.647179" lon="-75.051018">
        <ele>1564.7393</ele>
        <time>2021-11-14T16:14:48Z</time>
      </trkpt>
      <trkpt lat="4.647228" lon="-75.050911">
        <ele>1564.8638</ele>
        <time>2021-11-14T16:14:49Z</time>
      </trkpt>
      <trkpt lat="4.64726" lon="-75.050827">
        <ele>1564.3325</ele>
        <time>2021-11-14T16:14:50Z</time>
      </trkpt>
      <trkpt lat="4.647338" lon="-75.050735">
        <ele>1564.8706</ele>
        <time>2021-11-14T16:14:51Z</time>
      </trkpt>
      <trkpt lat="4.647469" lon="-75.050613">
        <ele>1564.5903</ele>
        <time>2021-11-14T16:14:52Z</time>
      </trkpt>
      <trkpt lat="4.647508" lon="-75.050583">
        <ele>1564.0652</ele>
        <time>2021-11-14T16:14:53Z</time>
      </trkpt>
      <trkpt lat="4.647555" lon="-75.050537">
        <ele>1565.4741</ele>
        <time>2021-11-14T16:14:54Z</time>
      </trkpt>
      <trkpt lat="4.647591" lon="-75.050507">
        <ele>1565.4226</ele>
        <time>2021-11-14T16:14:55Z</time>
      </trkpt>
      <trkpt lat="4.647619" lon="-75.050484">
        <ele>1566.0454</ele>
        <time>2021-11-14T16:14:56Z</time>
      </trkpt>
      <trkpt lat="4.647676" lon="-75.05043">
        <ele>1566.7368</ele>
        <time>2021-11-14T16:14:57Z</time>
      </trkpt>
      <trkpt lat="4.647787" lon="-75.050323">
        <ele>1566.7324</ele>
        <time>2021-11-14T16:14:58Z</time>
      </trkpt>
      <trkpt lat="4.64788" lon="-75.050232">
        <ele>1567.2183</ele>
        <time>2021-11-14T16:14:59Z</time>
      </trkpt>
      <trkpt lat="4.648046" lon="-75.050079">
        <ele>1568.8037</ele>
        <time>2021-11-14T16:15:00Z</time>
      </trkpt>
      <trkpt lat="4.648188" lon="-75.049942">
        <ele>1570.3604</ele>
        <time>2021-11-14T16:15:01Z</time>
      </trkpt>
      <trkpt lat="4.648315" lon="-75.049835">
        <ele>1570.6123</ele>
        <time>2021-11-14T16:15:02Z</time>
      </trkpt>
      <trkpt lat="4.648424" lon="-75.049782">
        <ele>1571.6807</ele>
        <time>2021-11-14T16:15:03Z</time>
      </trkpt>
      <trkpt lat="4.64864" lon="-75.049667">
        <ele>1573.065</ele>
        <time>2021-11-14T16:15:04Z</time>
      </trkpt>
      <trkpt lat="4.648755" lon="-75.049606">
        <ele>1575.4534</ele>
        <time>2021-11-14T16:15:05Z</time>
      </trkpt>
      <trkpt lat="4.648816" lon="-75.049515">
        <ele>1575.4534</ele>
        <time>2021-11-14T16:15:06Z</time>
      </trkpt>
      <trkpt lat="4.648855" lon="-75.049377">
        <ele>1577.2136</ele>
        <time>2021-11-14T16:15:07Z</time>
      </trkpt>
      <trkpt lat="4.648864" lon="-75.049248">
        <ele>1578.19</ele>
        <time>2021-11-14T16:15:08Z</time>
      </trkpt>
      <trkpt lat="4.648864" lon="-75.049248">
        <ele>1578.19</ele>
        <time>2021-11-14T16:15:09Z</time>
      </trkpt>
      <trkpt lat="4.648854" lon="-75.049133">
        <ele>1577.824</ele>
        <time>2021-11-14T16:15:10Z</time>
      </trkpt>
      <trkpt lat="4.648809" lon="-75.048996">
        <ele>1576.9622</ele>
        <time>2021-11-14T16:15:11Z</time>
      </trkpt>
      <trkpt lat="4.648749" lon="-75.04882">
        <ele>1575.262</ele>
        <time>2021-11-14T16:15:12Z</time>
      </trkpt>
      <trkpt lat="4.648729" lon="-75.048653">
        <ele>1574.5298</ele>
        <time>2021-11-14T16:15:13Z</time>
      </trkpt>
      <trkpt lat="4.648714" lon="-75.048531">
        <ele>1574.5298</ele>
        <time>2021-11-14T16:15:14Z</time>
      </trkpt>
      <trkpt lat="4.648703" lon="-75.048431">
        <ele>1573.2515</ele>
        <time>2021-11-14T16:15:15Z</time>
      </trkpt>
      <trkpt lat="4.648715" lon="-75.048332">
        <ele>1573.1501</ele>
        <time>2021-11-14T16:15:16Z</time>
      </trkpt>
      <trkpt lat="4.648752" lon="-75.048195">
        <ele>1573.1035</ele>
        <time>2021-11-14T16:15:17Z</time>
      </trkpt>
      <trkpt lat="4.648809" lon="-75.048058">
        <ele>1573.5042</ele>
        <time>2021-11-14T16:15:18Z</time>
      </trkpt>
      <trkpt lat="4.648845" lon="-75.047981">
        <ele>1573.6926</ele>
        <time>2021-11-14T16:15:19Z</time>
      </trkpt>
      <trkpt lat="4.64885" lon="-75.047974">
        <ele>1573.5654</ele>
        <time>2021-11-14T16:15:20Z</time>
      </trkpt>
      <trkpt lat="4.648885" lon="-75.047897">
        <ele>1573.3901</ele>
        <time>2021-11-14T16:15:21Z</time>
      </trkpt>
      <trkpt lat="4.648906" lon="-75.047852">
        <ele>1574.0742</ele>
        <time>2021-11-14T16:15:22Z</time>
      </trkpt>
      <trkpt lat="4.648958" lon="-75.047737">
        <ele>1573.0947</ele>
        <time>2021-11-14T16:15:23Z</time>
      </trkpt>
      <trkpt lat="4.649021" lon="-75.047577">
        <ele>1572.3452</ele>
        <time>2021-11-14T16:15:24Z</time>
      </trkpt>
      <trkpt lat="4.649032" lon="-75.047447">
        <ele>1571.7031</ele>
        <time>2021-11-14T16:15:25Z</time>
      </trkpt>
      <trkpt lat="4.649035" lon="-75.047424">
        <ele>1571.0283</ele>
        <time>2021-11-14T16:15:26Z</time>
      </trkpt>
      <trkpt lat="4.649036" lon="-75.047409">
        <ele>1570.6125</ele>
        <time>2021-11-14T16:15:27Z</time>
      </trkpt>
      <trkpt lat="4.649041" lon="-75.047356">
        <ele>1570.7036</ele>
        <time>2021-11-14T16:15:28Z</time>
      </trkpt>
      <trkpt lat="4.64905" lon="-75.047241">
        <ele>1570.4307</ele>
        <time>2021-11-14T16:15:29Z</time>
      </trkpt>
      <trkpt lat="4.649062" lon="-75.047134">
        <ele>1569.8989</ele>
        <time>2021-11-14T16:15:30Z</time>
      </trkpt>
      <trkpt lat="4.649117" lon="-75.047058">
        <ele>1569.2671</ele>
        <time>2021-11-14T16:15:31Z</time>
      </trkpt>
      <trkpt lat="4.649193" lon="-75.046989">
        <ele>1570.4524</ele>
        <time>2021-11-14T16:15:32Z</time>
      </trkpt>
      <trkpt lat="4.649331" lon="-75.046913">
        <ele>1570.9236</ele>
        <time>2021-11-14T16:15:33Z</time>
      </trkpt>
      <trkpt lat="4.649391" lon="-75.046852">
        <ele>1570.258</ele>
        <time>2021-11-14T16:15:34Z</time>
      </trkpt>
      <trkpt lat="4.649417" lon="-75.046814">
        <ele>1570.0125</ele>
        <time>2021-11-14T16:15:35Z</time>
      </trkpt>
      <trkpt lat="4.649417" lon="-75.046814">
        <ele>1569.2727</ele>
        <time>2021-11-14T16:15:36Z</time>
      </trkpt>
      <trkpt lat="4.649464" lon="-75.046738">
        <ele>1569.2549</ele>
        <time>2021-11-14T16:15:37Z</time>
      </trkpt>
      <trkpt lat="4.649526" lon="-75.046646">
        <ele>1568.5425</ele>
        <time>2021-11-14T16:15:38Z</time>
      </trkpt>
      <trkpt lat="4.64959" lon="-75.046547">
        <ele>1569.4133</ele>
        <time>2021-11-14T16:15:39Z</time>
      </trkpt>
      <trkpt lat="4.649562" lon="-75.046394">
        <ele>1569.9307</ele>
        <time>2021-11-14T16:15:40Z</time>
      </trkpt>
      <trkpt lat="4.649514" lon="-75.046326">
        <ele>1570.0186</ele>
        <time>2021-11-14T16:15:41Z</time>
      </trkpt>
      <trkpt lat="4.649437" lon="-75.046234">
        <ele>1570.102</ele>
        <time>2021-11-14T16:15:42Z</time>
      </trkpt>
      <trkpt lat="4.649339" lon="-75.046112">
        <ele>1571.1887</ele>
        <time>2021-11-14T16:15:43Z</time>
      </trkpt>
      <trkpt lat="4.649304" lon="-75.046074">
        <ele>1571.637</ele>
        <time>2021-11-14T16:15:44Z</time>
      </trkpt>
      <trkpt lat="4.649271" lon="-75.046028">
        <ele>1572.5725</ele>
        <time>2021-11-14T16:15:46Z</time>
      </trkpt>
      <trkpt lat="4.649177" lon="-75.045914">
        <ele>1575.5596</ele>
        <time>2021-11-14T16:15:47Z</time>
      </trkpt>
      <trkpt lat="4.649096" lon="-75.045784">
        <ele>1576.9094</ele>
        <time>2021-11-14T16:15:48Z</time>
      </trkpt>
      <trkpt lat="4.64907" lon="-75.045677">
        <ele>1577.9756</ele>
        <time>2021-11-14T16:15:49Z</time>
      </trkpt>
      <trkpt lat="4.64909" lon="-75.045532">
        <ele>1578.2651</ele>
        <time>2021-11-14T16:15:50Z</time>
      </trkpt>
      <trkpt lat="4.649135" lon="-75.045387">
        <ele>1579.0581</ele>
        <time>2021-11-14T16:15:51Z</time>
      </trkpt>
      <trkpt lat="4.649192" lon="-75.045311">
        <ele>1579.6465</ele>
        <time>2021-11-14T16:15:52Z</time>
      </trkpt>
      <trkpt lat="4.649245" lon="-75.045265">
        <ele>1580.7031</ele>
        <time>2021-11-14T16:15:53Z</time>
      </trkpt>
      <trkpt lat="4.649314" lon="-75.045242">
        <ele>1580.3433</ele>
        <time>2021-11-14T16:15:54Z</time>
      </trkpt>
      <trkpt lat="4.649424" lon="-75.045235">
        <ele>1580.5952</ele>
        <time>2021-11-14T16:15:55Z</time>
      </trkpt>
      <trkpt lat="4.649591" lon="-75.045265">
        <ele>1581.1758</ele>
        <time>2021-11-14T16:15:56Z</time>
      </trkpt>
      <trkpt lat="4.649686" lon="-75.045296">
        <ele>1579.2722</ele>
        <time>2021-11-14T16:15:57Z</time>
      </trkpt>
      <trkpt lat="4.649872" lon="-75.045296">
        <ele>1580.771</ele>
        <time>2021-11-14T16:15:58Z</time>
      </trkpt>
      <trkpt lat="4.649957" lon="-75.045273">
        <ele>1582.0679</ele>
        <time>2021-11-14T16:15:59Z</time>
      </trkpt>
      <trkpt lat="4.650079" lon="-75.045174">
        <ele>1583.8574</ele>
        <time>2021-11-14T16:16:00Z</time>
      </trkpt>
      <trkpt lat="4.650173" lon="-75.045105">
        <ele>1584.5776</ele>
        <time>2021-11-14T16:16:01Z</time>
      </trkpt>
      <trkpt lat="4.650303" lon="-75.044998">
        <ele>1585.0991</ele>
        <time>2021-11-14T16:16:02Z</time>
      </trkpt>
      <trkpt lat="4.650419" lon="-75.04493">
        <ele>1586.5796</ele>
        <time>2021-11-14T16:16:03Z</time>
      </trkpt>
      <trkpt lat="4.650542" lon="-75.044853">
        <ele>1587.4507</ele>
        <time>2021-11-14T16:16:04Z</time>
      </trkpt>
      <trkpt lat="4.650666" lon="-75.044785">
        <ele>1588.7422</ele>
        <time>2021-11-14T16:16:05Z</time>
      </trkpt>
      <trkpt lat="4.650794" lon="-75.044701">
        <ele>1590.377</ele>
        <time>2021-11-14T16:16:06Z</time>
      </trkpt>
      <trkpt lat="4.650904" lon="-75.04464">
        <ele>1592.3159</ele>
        <time>2021-11-14T16:16:07Z</time>
      </trkpt>
      <trkpt lat="4.650968" lon="-75.044586">
        <ele>1593.1562</ele>
        <time>2021-11-14T16:16:08Z</time>
      </trkpt>
      <trkpt lat="4.650968" lon="-75.044586">
        <ele>1593.3159</ele>
        <time>2021-11-14T16:16:09Z</time>
      </trkpt>
      <trkpt lat="4.65105" lon="-75.044502">
        <ele>1593.8076</ele>
        <time>2021-11-14T16:16:10Z</time>
      </trkpt>
      <trkpt lat="4.651127" lon="-75.044434">
        <ele>1594.0574</ele>
        <time>2021-11-14T16:16:11Z</time>
      </trkpt>
      <trkpt lat="4.651224" lon="-75.044373">
        <ele>1594.439</ele>
        <time>2021-11-14T16:16:12Z</time>
      </trkpt>
      <trkpt lat="4.651314" lon="-75.044334">
        <ele>1594.2656</ele>
        <time>2021-11-14T16:16:13Z</time>
      </trkpt>
      <trkpt lat="4.651396" lon="-75.044312">
        <ele>1593.3804</ele>
        <time>2021-11-14T16:16:14Z</time>
      </trkpt>
      <trkpt lat="4.651484" lon="-75.04425">
        <ele>1594.8081</ele>
        <time>2021-11-14T16:16:15Z</time>
      </trkpt>
      <trkpt lat="4.651579" lon="-75.044189">
        <ele>1593.8337</ele>
        <time>2021-11-14T16:16:16Z</time>
      </trkpt>
      <trkpt lat="4.651638" lon="-75.044144">
        <ele>1593.7646</ele>
        <time>2021-11-14T16:16:17Z</time>
      </trkpt>
      <trkpt lat="4.651696" lon="-75.044106">
        <ele>1593.1758</ele>
        <time>2021-11-14T16:16:18Z</time>
      </trkpt>
      <trkpt lat="4.651747" lon="-75.044044">
        <ele>1593.1521</ele>
        <time>2021-11-14T16:16:19Z</time>
      </trkpt>
      <trkpt lat="4.651788" lon="-75.043907">
        <ele>1593.9316</ele>
        <time>2021-11-14T16:16:20Z</time>
      </trkpt>
      <trkpt lat="4.651795" lon="-75.043884">
        <ele>1593.8672</ele>
        <time>2021-11-14T16:16:21Z</time>
      </trkpt>
      <trkpt lat="4.651895" lon="-75.043541">
        <ele>1593.8423</ele>
        <time>2021-11-14T16:16:22Z</time>
      </trkpt>
      <trkpt lat="4.651904" lon="-75.04351">
        <ele>1593.2998</ele>
        <time>2021-11-14T16:16:23Z</time>
      </trkpt>
      <trkpt lat="4.651971" lon="-75.043343">
        <ele>1594.1963</ele>
        <time>2021-11-14T16:16:24Z</time>
      </trkpt>
      <trkpt lat="4.652071" lon="-75.043167">
        <ele>1594.823</ele>
        <time>2021-11-14T16:16:25Z</time>
      </trkpt>
      <trkpt lat="4.652142" lon="-75.043045">
        <ele>1594.0791</ele>
        <time>2021-11-14T16:16:26Z</time>
      </trkpt>
      <trkpt lat="4.652211" lon="-75.042931">
        <ele>1593.5969</ele>
        <time>2021-11-14T16:16:27Z</time>
      </trkpt>
      <trkpt lat="4.652276" lon="-75.042816">
        <ele>1591.1304</ele>
        <time>2021-11-14T16:16:28Z</time>
      </trkpt>
      <trkpt lat="4.652354" lon="-75.042679">
        <ele>1590.5469</ele>
        <time>2021-11-14T16:16:29Z</time>
      </trkpt>
      <trkpt lat="4.652428" lon="-75.042549">
        <ele>1588.8376</ele>
        <time>2021-11-14T16:16:30Z</time>
      </trkpt>
      <trkpt lat="4.652473" lon="-75.042458">
        <ele>1589.375</ele>
        <time>2021-11-14T16:16:31Z</time>
      </trkpt>
      <trkpt lat="4.652495" lon="-75.042358">
        <ele>1587.5747</ele>
        <time>2021-11-14T16:16:32Z</time>
      </trkpt>
      <trkpt lat="4.652527" lon="-75.042221">
        <ele>1587.8491</ele>
        <time>2021-11-14T16:16:34Z</time>
      </trkpt>
      <trkpt lat="4.652582" lon="-75.042099">
        <ele>1587.2256</ele>
        <time>2021-11-14T16:16:35Z</time>
      </trkpt>
      <trkpt lat="4.652638" lon="-75.041969">
        <ele>1585.8555</ele>
        <time>2021-11-14T16:16:36Z</time>
      </trkpt>
      <trkpt lat="4.652684" lon="-75.04187">
        <ele>1584.2878</ele>
        <time>2021-11-14T16:16:37Z</time>
      </trkpt>
      <trkpt lat="4.652745" lon="-75.041779">
        <ele>1583.3242</ele>
        <time>2021-11-14T16:16:38Z</time>
      </trkpt>
      <trkpt lat="4.652745" lon="-75.041779">
        <ele>1582.104</ele>
        <time>2021-11-14T16:16:39Z</time>
      </trkpt>
      <trkpt lat="4.652879" lon="-75.041641">
        <ele>1581.3247</ele>
        <time>2021-11-14T16:16:40Z</time>
      </trkpt>
      <trkpt lat="4.652953" lon="-75.041512">
        <ele>1580.0132</ele>
        <time>2021-11-14T16:16:41Z</time>
      </trkpt>
      <trkpt lat="4.653013" lon="-75.041412">
        <ele>1578.1709</ele>
        <time>2021-11-14T16:16:42Z</time>
      </trkpt>
      <trkpt lat="4.653061" lon="-75.041328">
        <ele>1575.8333</ele>
        <time>2021-11-14T16:16:43Z</time>
      </trkpt>
      <trkpt lat="4.653119" lon="-75.041229">
        <ele>1574.2461</ele>
        <time>2021-11-14T16:16:44Z</time>
      </trkpt>
      <trkpt lat="4.653174" lon="-75.041084">
        <ele>1572.6382</ele>
        <time>2021-11-14T16:16:45Z</time>
      </trkpt>
      <trkpt lat="4.653261" lon="-75.040855">
        <ele>1570.3708</ele>
        <time>2021-11-14T16:16:46Z</time>
      </trkpt>
      <trkpt lat="4.653313" lon="-75.040726">
        <ele>1569.418</ele>
        <time>2021-11-14T16:16:47Z</time>
      </trkpt>
      <trkpt lat="4.653357" lon="-75.04052">
        <ele>1567.9656</ele>
        <time>2021-11-14T16:16:48Z</time>
      </trkpt>
      <trkpt lat="4.653367" lon="-75.040398">
        <ele>1567.9216</ele>
        <time>2021-11-14T16:16:49Z</time>
      </trkpt>
      <trkpt lat="4.653374" lon="-75.040314">
        <ele>1568.0383</ele>
        <time>2021-11-14T16:16:50Z</time>
      </trkpt>
      <trkpt lat="4.653384" lon="-75.040192">
        <ele>1567.6311</ele>
        <time>2021-11-14T16:16:51Z</time>
      </trkpt>
      <trkpt lat="4.65339" lon="-75.040115">
        <ele>1567.477</ele>
        <time>2021-11-14T16:16:52Z</time>
      </trkpt>
      <trkpt lat="4.653397" lon="-75.039978">
        <ele>1567.3938</ele>
        <time>2021-11-14T16:16:53Z</time>
      </trkpt>
      <trkpt lat="4.653388" lon="-75.039856">
        <ele>1567.9741</ele>
        <time>2021-11-14T16:16:54Z</time>
      </trkpt>
      <trkpt lat="4.653379" lon="-75.039726">
        <ele>1569.0737</ele>
        <time>2021-11-14T16:16:55Z</time>
      </trkpt>
      <trkpt lat="4.653368" lon="-75.039566">
        <ele>1569.0681</ele>
        <time>2021-11-14T16:16:56Z</time>
      </trkpt>
      <trkpt lat="4.653359" lon="-75.039436">
        <ele>1569.9316</ele>
        <time>2021-11-14T16:16:57Z</time>
      </trkpt>
      <trkpt lat="4.653349" lon="-75.039268">
        <ele>1569.0171</ele>
        <time>2021-11-14T16:16:58Z</time>
      </trkpt>
      <trkpt lat="4.653368" lon="-75.039108">
        <ele>1569.583</ele>
        <time>2021-11-14T16:16:59Z</time>
      </trkpt>
      <trkpt lat="4.653384" lon="-75.038956">
        <ele>1571.4858</ele>
        <time>2021-11-14T16:17:00Z</time>
      </trkpt>
      <trkpt lat="4.653402" lon="-75.038803">
        <ele>1571.4097</ele>
        <time>2021-11-14T16:17:01Z</time>
      </trkpt>
      <trkpt lat="4.653424" lon="-75.038612">
        <ele>1571.5559</ele>
        <time>2021-11-14T16:17:02Z</time>
      </trkpt>
      <trkpt lat="4.653442" lon="-75.038445">
        <ele>1573.5586</ele>
        <time>2021-11-14T16:17:03Z</time>
      </trkpt>
      <trkpt lat="4.65346" lon="-75.038284">
        <ele>1576.501</ele>
        <time>2021-11-14T16:17:04Z</time>
      </trkpt>
      <trkpt lat="4.65348" lon="-75.038109">
        <ele>1578.7664</ele>
        <time>2021-11-14T16:17:05Z</time>
      </trkpt>
      <trkpt lat="4.653502" lon="-75.037941">
        <ele>1580.175</ele>
        <time>2021-11-14T16:17:06Z</time>
      </trkpt>
      <trkpt lat="4.653502" lon="-75.037941">
        <ele>1580.6362</ele>
        <time>2021-11-14T16:17:07Z</time>
      </trkpt>
      <trkpt lat="4.653551" lon="-75.037842">
        <ele>1580.4978</ele>
        <time>2021-11-14T16:17:08Z</time>
      </trkpt>
      <trkpt lat="4.6536" lon="-75.037735">
        <ele>1581.898</ele>
        <time>2021-11-14T16:17:09Z</time>
      </trkpt>
      <trkpt lat="4.653653" lon="-75.037628">
        <ele>1582.4658</ele>
        <time>2021-11-14T16:17:10Z</time>
      </trkpt>
      <trkpt lat="4.653755" lon="-75.037529">
        <ele>1580.8867</ele>
        <time>2021-11-14T16:17:11Z</time>
      </trkpt>
      <trkpt lat="4.65387" lon="-75.037422">
        <ele>1581.0657</ele>
        <time>2021-11-14T16:17:12Z</time>
      </trkpt>
      <trkpt lat="4.653942" lon="-75.037354">
        <ele>1581.7993</ele>
        <time>2021-11-14T16:17:13Z</time>
      </trkpt>
      <trkpt lat="4.654106" lon="-75.037201">
        <ele>1583.8511</ele>
        <time>2021-11-14T16:17:14Z</time>
      </trkpt>
      <trkpt lat="4.654182" lon="-75.037102">
        <ele>1584.3384</ele>
        <time>2021-11-14T16:17:15Z</time>
      </trkpt>
      <trkpt lat="4.654213" lon="-75.037025">
        <ele>1584.5527</ele>
        <time>2021-11-14T16:17:16Z</time>
      </trkpt>
      <trkpt lat="4.654265" lon="-75.036888">
        <ele>1585.1143</ele>
        <time>2021-11-14T16:17:17Z</time>
      </trkpt>
      <trkpt lat="4.6543" lon="-75.036797">
        <ele>1586.0332</ele>
        <time>2021-11-14T16:17:18Z</time>
      </trkpt>
      <trkpt lat="4.654314" lon="-75.036766">
        <ele>1586.377</ele>
        <time>2021-11-14T16:17:19Z</time>
      </trkpt>
      <trkpt lat="4.654245" lon="-75.036659">
        <ele>1588.134</ele>
        <time>2021-11-14T16:17:20Z</time>
      </trkpt>
      <trkpt lat="4.654056" lon="-75.036438">
        <ele>1589.6963</ele>
        <time>2021-11-14T16:17:21Z</time>
      </trkpt>
      <trkpt lat="4.654008" lon="-75.036377">
        <ele>1589.98</ele>
        <time>2021-11-14T16:17:22Z</time>
      </trkpt>
      <trkpt lat="4.653995" lon="-75.036324">
        <ele>1590.7886</ele>
        <time>2021-11-14T16:17:23Z</time>
      </trkpt>
      <trkpt lat="4.65404" lon="-75.03627">
        <ele>1592.0137</ele>
        <time>2021-11-14T16:17:24Z</time>
      </trkpt>
      <trkpt lat="4.654083" lon="-75.036217">
        <ele>1592.1455</ele>
        <time>2021-11-14T16:17:25Z</time>
      </trkpt>
      <trkpt lat="4.654127" lon="-75.036163">
        <ele>1593.9934</ele>
        <time>2021-11-14T16:17:26Z</time>
      </trkpt>
      <trkpt lat="4.654193" lon="-75.036087">
        <ele>1594.0193</ele>
        <time>2021-11-14T16:17:27Z</time>
      </trkpt>
      <trkpt lat="4.654267" lon="-75.035957">
        <ele>1594.8027</ele>
        <time>2021-11-14T16:17:29Z</time>
      </trkpt>
      <trkpt lat="4.654297" lon="-75.035858">
        <ele>1594.604</ele>
        <time>2021-11-14T16:17:30Z</time>
      </trkpt>
      <trkpt lat="4.654331" lon="-75.035751">
        <ele>1595.1528</ele>
        <time>2021-11-14T16:17:31Z</time>
      </trkpt>
      <trkpt lat="4.654351" lon="-75.035683">
        <ele>1594.9956</ele>
        <time>2021-11-14T16:17:32Z</time>
      </trkpt>
      <trkpt lat="4.654395" lon="-75.035538">
        <ele>1597.0684</ele>
        <time>2021-11-14T16:17:33Z</time>
      </trkpt>
      <trkpt lat="4.654441" lon="-75.035385">
        <ele>1599.5239</ele>
        <time>2021-11-14T16:17:34Z</time>
      </trkpt>
      <trkpt lat="4.654466" lon="-75.035278">
        <ele>1597.7637</ele>
        <time>2021-11-14T16:17:35Z</time>
      </trkpt>
      <trkpt lat="4.654447" lon="-75.035187">
        <ele>1596.8494</ele>
        <time>2021-11-14T16:17:36Z</time>
      </trkpt>
      <trkpt lat="4.654447" lon="-75.035187">
        <ele>1597.2046</ele>
        <time>2021-11-14T16:17:37Z</time>
      </trkpt>
      <trkpt lat="4.654427" lon="-75.035088">
        <ele>1597.3291</ele>
        <time>2021-11-14T16:17:38Z</time>
      </trkpt>
      <trkpt lat="4.654408" lon="-75.034988">
        <ele>1597.3499</ele>
        <time>2021-11-14T16:17:39Z</time>
      </trkpt>
      <trkpt lat="4.654428" lon="-75.034882">
        <ele>1597.1816</ele>
        <time>2021-11-14T16:17:40Z</time>
      </trkpt>
      <trkpt lat="4.654456" lon="-75.034737">
        <ele>1596.4673</ele>
        <time>2021-11-14T16:17:41Z</time>
      </trkpt>
      <trkpt lat="4.654479" lon="-75.034607">
        <ele>1596.1543</ele>
        <time>2021-11-14T16:17:42Z</time>
      </trkpt>
      <trkpt lat="4.65449" lon="-75.034554">
        <ele>1595.9475</ele>
        <time>2021-11-14T16:17:43Z</time>
      </trkpt>
      <trkpt lat="4.654506" lon="-75.03447">
        <ele>1595.6821</ele>
        <time>2021-11-14T16:17:44Z</time>
      </trkpt>
      <trkpt lat="4.65451" lon="-75.034225">
        <ele>1596.0479</ele>
        <time>2021-11-14T16:17:45Z</time>
      </trkpt>
      <trkpt lat="4.654431" lon="-75.03418">
        <ele>1595.1453</ele>
        <time>2021-11-14T16:17:46Z</time>
      </trkpt>
      <trkpt lat="4.654334" lon="-75.034134">
        <ele>1593.322</ele>
        <time>2021-11-14T16:17:47Z</time>
      </trkpt>
      <trkpt lat="4.654159" lon="-75.03405">
        <ele>1591.8418</ele>
        <time>2021-11-14T16:17:48Z</time>
      </trkpt>
      <trkpt lat="4.654052" lon="-75.033981">
        <ele>1587.1975</ele>
        <time>2021-11-14T16:17:49Z</time>
      </trkpt>
      <trkpt lat="4.653979" lon="-75.033928">
        <ele>1587.5789</ele>
        <time>2021-11-14T16:17:50Z</time>
      </trkpt>
      <trkpt lat="4.653958" lon="-75.033836">
        <ele>1587.2153</ele>
        <time>2021-11-14T16:17:51Z</time>
      </trkpt>
      <trkpt lat="4.653961" lon="-75.033821">
        <ele>1587.4624</ele>
        <time>2021-11-14T16:17:52Z</time>
      </trkpt>
      <trkpt lat="4.653983" lon="-75.033684">
        <ele>1586.6875</ele>
        <time>2021-11-14T16:17:53Z</time>
      </trkpt>
      <trkpt lat="4.654" lon="-75.033569">
        <ele>1586.7607</ele>
        <time>2021-11-14T16:17:54Z</time>
      </trkpt>
      <trkpt lat="4.654017" lon="-75.033447">
        <ele>1586.5332</ele>
        <time>2021-11-14T16:17:55Z</time>
      </trkpt>
      <trkpt lat="4.653977" lon="-75.033371">
        <ele>1586.708</ele>
        <time>2021-11-14T16:17:56Z</time>
      </trkpt>
      <trkpt lat="4.653923" lon="-75.033272">
        <ele>1586.8638</ele>
        <time>2021-11-14T16:17:57Z</time>
      </trkpt>
      <trkpt lat="4.653874" lon="-75.03318">
        <ele>1586.6035</ele>
        <time>2021-11-14T16:17:58Z</time>
      </trkpt>
      <trkpt lat="4.653814" lon="-75.033066">
        <ele>1586.1333</ele>
        <time>2021-11-14T16:17:59Z</time>
      </trkpt>
      <trkpt lat="4.653732" lon="-75.032913">
        <ele>1585.8867</ele>
        <time>2021-11-14T16:18:00Z</time>
      </trkpt>
      <trkpt lat="4.653661" lon="-75.032784">
        <ele>1585.3135</ele>
        <time>2021-11-14T16:18:01Z</time>
      </trkpt>
      <trkpt lat="4.6536" lon="-75.032669">
        <ele>1584.0564</ele>
        <time>2021-11-14T16:18:02Z</time>
      </trkpt>
      <trkpt lat="4.653555" lon="-75.032585">
        <ele>1584.4121</ele>
        <time>2021-11-14T16:18:03Z</time>
      </trkpt>
      <trkpt lat="4.653527" lon="-75.032532">
        <ele>1584.4585</ele>
        <time>2021-11-14T16:18:04Z</time>
      </trkpt>
      <trkpt lat="4.653485" lon="-75.032455">
        <ele>1585.877</ele>
        <time>2021-11-14T16:18:05Z</time>
      </trkpt>
      <trkpt lat="4.653434" lon="-75.032364">
        <ele>1583.0798</ele>
        <time>2021-11-14T16:18:06Z</time>
      </trkpt>
      <trkpt lat="4.653386" lon="-75.032272">
        <ele>1583.81</ele>
        <time>2021-11-14T16:18:07Z</time>
      </trkpt>
      <trkpt lat="4.653337" lon="-75.032181">
        <ele>1583.9409</ele>
        <time>2021-11-14T16:18:08Z</time>
      </trkpt>
      <trkpt lat="4.653265" lon="-75.032043">
        <ele>1582.6353</ele>
        <time>2021-11-14T16:18:09Z</time>
      </trkpt>
      <trkpt lat="4.653265" lon="-75.032043">
        <ele>1583.4873</ele>
        <time>2021-11-14T16:18:10Z</time>
      </trkpt>
      <trkpt lat="4.653204" lon="-75.031937">
        <ele>1583.4822</ele>
        <time>2021-11-14T16:18:11Z</time>
      </trkpt>
      <trkpt lat="4.653177" lon="-75.031883">
        <ele>1584.0693</ele>
        <time>2021-11-14T16:18:12Z</time>
      </trkpt>
      <trkpt lat="4.653139" lon="-75.031792">
        <ele>1582.9575</ele>
        <time>2021-11-14T16:18:13Z</time>
      </trkpt>
      <trkpt lat="4.653139" lon="-75.031662">
        <ele>1580.689</ele>
        <time>2021-11-14T16:18:14Z</time>
      </trkpt>
      <trkpt lat="4.653209" lon="-75.03157">
        <ele>1579.6597</ele>
        <time>2021-11-14T16:18:15Z</time>
      </trkpt>
      <trkpt lat="4.653323" lon="-75.031509">
        <ele>1577.6436</ele>
        <time>2021-11-14T16:18:16Z</time>
      </trkpt>
      <trkpt lat="4.65343" lon="-75.031525">
        <ele>1576.0459</ele>
        <time>2021-11-14T16:18:17Z</time>
      </trkpt>
      <trkpt lat="4.653536" lon="-75.031525">
        <ele>1574.3516</ele>
        <time>2021-11-14T16:18:18Z</time>
      </trkpt>
      <trkpt lat="4.653683" lon="-75.03154">
        <ele>1573.178</ele>
        <time>2021-11-14T16:18:19Z</time>
      </trkpt>
      <trkpt lat="4.653814" lon="-75.031548">
        <ele>1571.7468</ele>
        <time>2021-11-14T16:18:20Z</time>
      </trkpt>
      <trkpt lat="4.653978" lon="-75.031555">
        <ele>1570.2615</ele>
        <time>2021-11-14T16:18:21Z</time>
      </trkpt>
      <trkpt lat="4.654141" lon="-75.03157">
        <ele>1569.633</ele>
        <time>2021-11-14T16:18:22Z</time>
      </trkpt>
      <trkpt lat="4.654267" lon="-75.031578">
        <ele>1568.9185</ele>
        <time>2021-11-14T16:18:24Z</time>
      </trkpt>
      <trkpt lat="4.654351" lon="-75.031563">
        <ele>1567.6504</ele>
        <time>2021-11-14T16:18:25Z</time>
      </trkpt>
      <trkpt lat="4.654376" lon="-75.031548">
        <ele>1567.1113</ele>
        <time>2021-11-14T16:18:26Z</time>
      </trkpt>
      <trkpt lat="4.654422" lon="-75.031525">
        <ele>1567.209</ele>
        <time>2021-11-14T16:18:27Z</time>
      </trkpt>
      <trkpt lat="4.654465" lon="-75.031502">
        <ele>1566.8076</ele>
        <time>2021-11-14T16:18:28Z</time>
      </trkpt>
      <trkpt lat="4.654501" lon="-75.031456">
        <ele>1566.794</ele>
        <time>2021-11-14T16:18:29Z</time>
      </trkpt>
      <trkpt lat="4.654543" lon="-75.031364">
        <ele>1567.3335</ele>
        <time>2021-11-14T16:18:30Z</time>
      </trkpt>
      <trkpt lat="4.654563" lon="-75.031242">
        <ele>1567.523</ele>
        <time>2021-11-14T16:18:31Z</time>
      </trkpt>
      <trkpt lat="4.654526" lon="-75.031151">
        <ele>1567.865</ele>
        <time>2021-11-14T16:18:32Z</time>
      </trkpt>
      <trkpt lat="4.65446" lon="-75.030991">
        <ele>1567.2029</ele>
        <time>2021-11-14T16:18:33Z</time>
      </trkpt>
      <trkpt lat="4.654417" lon="-75.030884">
        <ele>1566.8091</ele>
        <time>2021-11-14T16:18:34Z</time>
      </trkpt>
      <trkpt lat="4.654385" lon="-75.030807">
        <ele>1566.9004</ele>
        <time>2021-11-14T16:18:35Z</time>
      </trkpt>
      <trkpt lat="4.65438" lon="-75.030716">
        <ele>1567.7349</ele>
        <time>2021-11-14T16:18:36Z</time>
      </trkpt>
      <trkpt lat="4.654441" lon="-75.030647">
        <ele>1567.2146</ele>
        <time>2021-11-14T16:18:37Z</time>
      </trkpt>
      <trkpt lat="4.654451" lon="-75.030632">
        <ele>1566.543</ele>
        <time>2021-11-14T16:18:38Z</time>
      </trkpt>
      <trkpt lat="4.654451" lon="-75.030632">
        <ele>1563.9141</ele>
        <time>2021-11-14T16:18:39Z</time>
      </trkpt>
      <trkpt lat="4.654552" lon="-75.03051">
        <ele>1562.956</ele>
        <time>2021-11-14T16:18:40Z</time>
      </trkpt>
      <trkpt lat="4.654728" lon="-75.030304">
        <ele>1562.1262</ele>
        <time>2021-11-14T16:18:41Z</time>
      </trkpt>
      <trkpt lat="4.65479" lon="-75.030228">
        <ele>1561.0674</ele>
        <time>2021-11-14T16:18:42Z</time>
      </trkpt>
      <trkpt lat="4.6548" lon="-75.030167">
        <ele>1560.3652</ele>
        <time>2021-11-14T16:18:43Z</time>
      </trkpt>
      <trkpt lat="4.654816" lon="-75.030083">
        <ele>1560.4543</ele>
        <time>2021-11-14T16:18:44Z</time>
      </trkpt>
      <trkpt lat="4.654806" lon="-75.029953">
        <ele>1560.4639</ele>
        <time>2021-11-14T16:18:45Z</time>
      </trkpt>
      <trkpt lat="4.654642" lon="-75.029671">
        <ele>1556.2971</ele>
        <time>2021-11-14T16:18:46Z</time>
      </trkpt>
      <trkpt lat="4.654571" lon="-75.029579">
        <ele>1554.9155</ele>
        <time>2021-11-14T16:18:47Z</time>
      </trkpt>
      <trkpt lat="4.654477" lon="-75.029465">
        <ele>1553.7783</ele>
        <time>2021-11-14T16:18:48Z</time>
      </trkpt>
      <trkpt lat="4.654454" lon="-75.029381">
        <ele>1551.8306</ele>
        <time>2021-11-14T16:18:49Z</time>
      </trkpt>
      <trkpt lat="4.654435" lon="-75.029289">
        <ele>1550.5952</ele>
        <time>2021-11-14T16:18:50Z</time>
      </trkpt>
      <trkpt lat="4.654107" lon="-75.029442">
        <ele>1550.0984</ele>
        <time>2021-11-14T16:18:51Z</time>
      </trkpt>
      <trkpt lat="4.654021" lon="-75.029388">
        <ele>1549.0032</ele>
        <time>2021-11-14T16:18:52Z</time>
      </trkpt>
      <trkpt lat="4.653966" lon="-75.02932">
        <ele>1549.5859</ele>
        <time>2021-11-14T16:18:53Z</time>
      </trkpt>
      <trkpt lat="4.653943" lon="-75.029228">
        <ele>1550.3999</ele>
        <time>2021-11-14T16:18:54Z</time>
      </trkpt>
      <trkpt lat="4.654006" lon="-75.029129">
        <ele>1550.6089</ele>
        <time>2021-11-14T16:18:55Z</time>
      </trkpt>
      <trkpt lat="4.654122" lon="-75.029015">
        <ele>1549.1157</ele>
        <time>2021-11-14T16:18:56Z</time>
      </trkpt>
      <trkpt lat="4.654242" lon="-75.028931">
        <ele>1549.7412</ele>
        <time>2021-11-14T16:18:57Z</time>
      </trkpt>
      <trkpt lat="4.65426" lon="-75.028831">
        <ele>1547.9783</ele>
        <time>2021-11-14T16:18:58Z</time>
      </trkpt>
      <trkpt lat="4.654299" lon="-75.028709">
        <ele>1545.8684</ele>
        <time>2021-11-14T16:18:59Z</time>
      </trkpt>
      <trkpt lat="4.65428" lon="-75.02861">
        <ele>1545.1808</ele>
        <time>2021-11-14T16:19:00Z</time>
      </trkpt>
      <trkpt lat="4.6542" lon="-75.028519">
        <ele>1544.5963</ele>
        <time>2021-11-14T16:19:01Z</time>
      </trkpt>
      <trkpt lat="4.65411" lon="-75.028442">
        <ele>1544.3855</ele>
        <time>2021-11-14T16:19:02Z</time>
      </trkpt>
      <trkpt lat="4.653907" lon="-75.028458">
        <ele>1543.6575</ele>
        <time>2021-11-14T16:19:03Z</time>
      </trkpt>
      <trkpt lat="4.6538" lon="-75.028358">
        <ele>1542.8765</ele>
        <time>2021-11-14T16:19:04Z</time>
      </trkpt>
      <trkpt lat="4.653709" lon="-75.028214">
        <ele>1537.8438</ele>
        <time>2021-11-14T16:19:05Z</time>
      </trkpt>
      <trkpt lat="4.653655" lon="-75.028122">
        <ele>1535.5222</ele>
        <time>2021-11-14T16:19:06Z</time>
      </trkpt>
      <trkpt lat="4.65361" lon="-75.02803">
        <ele>1532.8582</ele>
        <time>2021-11-14T16:19:07Z</time>
      </trkpt>
      <trkpt lat="4.653625" lon="-75.027924">
        <ele>1533.3619</ele>
        <time>2021-11-14T16:19:08Z</time>
      </trkpt>
      <trkpt lat="4.653646" lon="-75.027779">
        <ele>1533.6233</ele>
        <time>2021-11-14T16:19:09Z</time>
      </trkpt>
      <trkpt lat="4.653675" lon="-75.02758">
        <ele>1532.4934</ele>
        <time>2021-11-14T16:19:10Z</time>
      </trkpt>
      <trkpt lat="4.653675" lon="-75.02758">
        <ele>1532.2587</ele>
        <time>2021-11-14T16:19:11Z</time>
      </trkpt>
      <trkpt lat="4.653702" lon="-75.027397">
        <ele>1532.27</ele>
        <time>2021-11-14T16:19:13Z</time>
      </trkpt>
      <trkpt lat="4.653721" lon="-75.027267">
        <ele>1530.6185</ele>
        <time>2021-11-14T16:19:14Z</time>
      </trkpt>
      <trkpt lat="4.653749" lon="-75.027077">
        <ele>1528.479</ele>
        <time>2021-11-14T16:19:15Z</time>
      </trkpt>
      <trkpt lat="4.653776" lon="-75.026886">
        <ele>1528.2019</ele>
        <time>2021-11-14T16:19:16Z</time>
      </trkpt>
      <trkpt lat="4.653814" lon="-75.026733">
        <ele>1528.0336</ele>
        <time>2021-11-14T16:19:17Z</time>
      </trkpt>
      <trkpt lat="4.653849" lon="-75.026588">
        <ele>1525.8414</ele>
        <time>2021-11-14T16:19:18Z</time>
      </trkpt>
      <trkpt lat="4.65389" lon="-75.026421">
        <ele>1525.1771</ele>
        <time>2021-11-14T16:19:19Z</time>
      </trkpt>
      <trkpt lat="4.653948" lon="-75.026253">
        <ele>1523.6342</ele>
        <time>2021-11-14T16:19:20Z</time>
      </trkpt>
      <trkpt lat="4.653989" lon="-75.026131">
        <ele>1523.2429</ele>
        <time>2021-11-14T16:19:21Z</time>
      </trkpt>
      <trkpt lat="4.65402" lon="-75.026039">
        <ele>1522.8447</ele>
        <time>2021-11-14T16:19:22Z</time>
      </trkpt>
      <trkpt lat="4.654072" lon="-75.025887">
        <ele>1523.003</ele>
        <time>2021-11-14T16:19:23Z</time>
      </trkpt>
      <trkpt lat="4.654157" lon="-75.025818">
        <ele>1521.803</ele>
        <time>2021-11-14T16:19:24Z</time>
      </trkpt>
      <trkpt lat="4.654238" lon="-75.025772">
        <ele>1520.7524</ele>
        <time>2021-11-14T16:19:25Z</time>
      </trkpt>
      <trkpt lat="4.654303" lon="-75.025757">
        <ele>1519.6082</ele>
        <time>2021-11-14T16:19:26Z</time>
      </trkpt>
      <trkpt lat="4.65436" lon="-75.025742">
        <ele>1517.8408</ele>
        <time>2021-11-14T16:19:27Z</time>
      </trkpt>
      <trkpt lat="4.654434" lon="-75.025749">
        <ele>1516.344</ele>
        <time>2021-11-14T16:19:28Z</time>
      </trkpt>
      <trkpt lat="4.654547" lon="-75.025772">
        <ele>1514.097</ele>
        <time>2021-11-14T16:19:29Z</time>
      </trkpt>
      <trkpt lat="4.654623" lon="-75.025826">
        <ele>1512.8336</ele>
        <time>2021-11-14T16:19:30Z</time>
      </trkpt>
      <trkpt lat="4.654634" lon="-75.025833">
        <ele>1511.8376</ele>
        <time>2021-11-14T16:19:31Z</time>
      </trkpt>
      <trkpt lat="4.654654" lon="-75.025848">
        <ele>1511.0889</ele>
        <time>2021-11-14T16:19:32Z</time>
      </trkpt>
      <trkpt lat="4.654659" lon="-75.025932">
        <ele>1510.7877</ele>
        <time>2021-11-14T16:19:33Z</time>
      </trkpt>
      <trkpt lat="4.654659" lon="-75.025978">
        <ele>1510.7104</ele>
        <time>2021-11-14T16:19:34Z</time>
      </trkpt>
      <trkpt lat="4.654659" lon="-75.026024">
        <ele>1509.507</ele>
        <time>2021-11-14T16:19:35Z</time>
      </trkpt>
      <trkpt lat="4.654625" lon="-75.026138">
        <ele>1510.4691</ele>
        <time>2021-11-14T16:19:36Z</time>
      </trkpt>
      <trkpt lat="4.654616" lon="-75.026161">
        <ele>1509.1586</ele>
        <time>2021-11-14T16:19:37Z</time>
      </trkpt>
      <trkpt lat="4.6546" lon="-75.026199">
        <ele>1507.8071</ele>
        <time>2021-11-14T16:19:38Z</time>
      </trkpt>
      <trkpt lat="4.654587" lon="-75.02623">
        <ele>1507.9796</ele>
        <time>2021-11-14T16:19:39Z</time>
      </trkpt>
      <trkpt lat="4.654562" lon="-75.026291">
        <ele>1507.0842</ele>
        <time>2021-11-14T16:19:40Z</time>
      </trkpt>
      <trkpt lat="4.654563" lon="-75.02636">
        <ele>1505.1206</ele>
        <time>2021-11-14T16:19:41Z</time>
      </trkpt>
      <trkpt lat="4.654569" lon="-75.026421">
        <ele>1504.4169</ele>
        <time>2021-11-14T16:19:42Z</time>
      </trkpt>
      <trkpt lat="4.65458" lon="-75.026543">
        <ele>1504.127</ele>
        <time>2021-11-14T16:19:43Z</time>
      </trkpt>
      <trkpt lat="4.65459" lon="-75.026649">
        <ele>1503.2085</ele>
        <time>2021-11-14T16:19:44Z</time>
      </trkpt>
      <trkpt lat="4.6546" lon="-75.026756">
        <ele>1501.6556</ele>
        <time>2021-11-14T16:19:45Z</time>
      </trkpt>
      <trkpt lat="4.654609" lon="-75.026848">
        <ele>1500.6373</ele>
        <time>2021-11-14T16:19:46Z</time>
      </trkpt>
      <trkpt lat="4.654618" lon="-75.026947">
        <ele>1500.1932</ele>
        <time>2021-11-14T16:19:47Z</time>
      </trkpt>
      <trkpt lat="4.65463" lon="-75.027069">
        <ele>1498.8676</ele>
        <time>2021-11-14T16:19:48Z</time>
      </trkpt>
      <trkpt lat="4.654639" lon="-75.027176">
        <ele>1499.5945</ele>
        <time>2021-11-14T16:19:49Z</time>
      </trkpt>
      <trkpt lat="4.654645" lon="-75.027237">
        <ele>1499.3776</ele>
        <time>2021-11-14T16:19:50Z</time>
      </trkpt>
      <trkpt lat="4.654655" lon="-75.027344">
        <ele>1498.6206</ele>
        <time>2021-11-14T16:19:51Z</time>
      </trkpt>
      <trkpt lat="4.654957" lon="-75.027245">
        <ele>1498.3617</ele>
        <time>2021-11-14T16:19:52Z</time>
      </trkpt>
      <trkpt lat="4.655082" lon="-75.027252">
        <ele>1498.9314</ele>
        <time>2021-11-14T16:19:53Z</time>
      </trkpt>
      <trkpt lat="4.655246" lon="-75.027237">
        <ele>1499.4116</ele>
        <time>2021-11-14T16:19:54Z</time>
      </trkpt>
      <trkpt lat="4.655315" lon="-75.027267">
        <ele>1495.4586</ele>
        <time>2021-11-14T16:19:55Z</time>
      </trkpt>
      <trkpt lat="4.65537" lon="-75.02729">
        <ele>1496.2264</ele>
        <time>2021-11-14T16:19:56Z</time>
      </trkpt>
      <trkpt lat="4.655467" lon="-75.027428">
        <ele>1494.9268</ele>
        <time>2021-11-14T16:19:57Z</time>
      </trkpt>
      <trkpt lat="4.655524" lon="-75.027588">
        <ele>1494.2471</ele>
        <time>2021-11-14T16:19:58Z</time>
      </trkpt>
      <trkpt lat="4.655533" lon="-75.027649">
        <ele>1494.5999</ele>
        <time>2021-11-14T16:19:59Z</time>
      </trkpt>
      <trkpt lat="4.655393" lon="-75.027885">
        <ele>1493.419</ele>
        <time>2021-11-14T16:20:00Z</time>
      </trkpt>
      <trkpt lat="4.655421" lon="-75.027977">
        <ele>1493.1681</ele>
        <time>2021-11-14T16:20:01Z</time>
      </trkpt>
      <trkpt lat="4.655432" lon="-75.028015">
        <ele>1492.2947</ele>
        <time>2021-11-14T16:20:02Z</time>
      </trkpt>
      <trkpt lat="4.655447" lon="-75.028061">
        <ele>1490.8826</ele>
        <time>2021-11-14T16:20:03Z</time>
      </trkpt>
      <trkpt lat="4.65546" lon="-75.028099">
        <ele>1489.1792</ele>
        <time>2021-11-14T16:20:04Z</time>
      </trkpt>
      <trkpt lat="4.655464" lon="-75.028114">
        <ele>1488.4045</ele>
        <time>2021-11-14T16:20:05Z</time>
      </trkpt>
      <trkpt lat="4.655504" lon="-75.028221">
        <ele>1488.2417</ele>
        <time>2021-11-14T16:20:06Z</time>
      </trkpt>
      <trkpt lat="4.655715" lon="-75.028122">
        <ele>1488.9655</ele>
        <time>2021-11-14T16:20:07Z</time>
      </trkpt>
      <trkpt lat="4.655791" lon="-75.027992">
        <ele>1489.3864</ele>
        <time>2021-11-14T16:20:08Z</time>
      </trkpt>
      <trkpt lat="4.655827" lon="-75.027931">
        <ele>1489.7717</ele>
        <time>2021-11-14T16:20:09Z</time>
      </trkpt>
      <trkpt lat="4.655878" lon="-75.027847">
        <ele>1488.5665</ele>
        <time>2021-11-14T16:20:10Z</time>
      </trkpt>
      <trkpt lat="4.65592" lon="-75.027779">
        <ele>1487.1205</ele>
        <time>2021-11-14T16:20:11Z</time>
      </trkpt>
      <trkpt lat="4.65603" lon="-75.027596">
        <ele>1486.2383</ele>
        <time>2021-11-14T16:20:12Z</time>
      </trkpt>
      <trkpt lat="4.65603" lon="-75.027596">
        <ele>1485.3213</ele>
        <time>2021-11-14T16:20:13Z</time>
      </trkpt>
      <trkpt lat="4.656124" lon="-75.027435">
        <ele>1485.3016</ele>
        <time>2021-11-14T16:20:14Z</time>
      </trkpt>
      <trkpt lat="4.656184" lon="-75.027336">
        <ele>1485.1653</ele>
        <time>2021-11-14T16:20:15Z</time>
      </trkpt>
      <trkpt lat="4.656252" lon="-75.02726">
        <ele>1484.9161</ele>
        <time>2021-11-14T16:20:16Z</time>
      </trkpt>
      <trkpt lat="4.656312" lon="-75.027199">
        <ele>1483.8833</ele>
        <time>2021-11-14T16:20:17Z</time>
      </trkpt>
      <trkpt lat="4.656391" lon="-75.027176">
        <ele>1483.0762</ele>
        <time>2021-11-14T16:20:18Z</time>
      </trkpt>
      <trkpt lat="4.656451" lon="-75.027161">
        <ele>1482.9792</ele>
        <time>2021-11-14T16:20:19Z</time>
      </trkpt>
      <trkpt lat="4.656523" lon="-75.027145">
        <ele>1482.5562</ele>
        <time>2021-11-14T16:20:21Z</time>
      </trkpt>
      <trkpt lat="4.656614" lon="-75.027145">
        <ele>1480.023</ele>
        <time>2021-11-14T16:20:22Z</time>
      </trkpt>
      <trkpt lat="4.656816" lon="-75.027176">
        <ele>1479.6818</ele>
        <time>2021-11-14T16:20:23Z</time>
      </trkpt>
      <trkpt lat="4.656911" lon="-75.027199">
        <ele>1477.8932</ele>
        <time>2021-11-14T16:20:24Z</time>
      </trkpt>
      <trkpt lat="4.656953" lon="-75.027252">
        <ele>1476.1652</ele>
        <time>2021-11-14T16:20:25Z</time>
      </trkpt>
      <trkpt lat="4.657015" lon="-75.027344">
        <ele>1475.965</ele>
        <time>2021-11-14T16:20:26Z</time>
      </trkpt>
      <trkpt lat="4.657099" lon="-75.027466">
        <ele>1475.2151</ele>
        <time>2021-11-14T16:20:27Z</time>
      </trkpt>
      <trkpt lat="4.657134" lon="-75.027534">
        <ele>1473.4517</ele>
        <time>2021-11-14T16:20:28Z</time>
      </trkpt>
      <trkpt lat="4.657195" lon="-75.027672">
        <ele>1474.365</ele>
        <time>2021-11-14T16:20:29Z</time>
      </trkpt>
      <trkpt lat="4.657226" lon="-75.027725">
        <ele>1472.3461</ele>
        <time>2021-11-14T16:20:30Z</time>
      </trkpt>
      <trkpt lat="4.657293" lon="-75.027756">
        <ele>1471.7346</ele>
        <time>2021-11-14T16:20:31Z</time>
      </trkpt>
      <trkpt lat="4.657402" lon="-75.027771">
        <ele>1471.591</ele>
        <time>2021-11-14T16:20:32Z</time>
      </trkpt>
      <trkpt lat="4.657481" lon="-75.027756">
        <ele>1471.2867</ele>
        <time>2021-11-14T16:20:33Z</time>
      </trkpt>
      <trkpt lat="4.657592" lon="-75.027733">
        <ele>1470.7655</ele>
        <time>2021-11-14T16:20:34Z</time>
      </trkpt>
      <trkpt lat="4.657667" lon="-75.027702">
        <ele>1470.1892</ele>
        <time>2021-11-14T16:20:35Z</time>
      </trkpt>
      <trkpt lat="4.657745" lon="-75.027672">
        <ele>1469.3698</ele>
        <time>2021-11-14T16:20:36Z</time>
      </trkpt>
      <trkpt lat="4.657796" lon="-75.027649">
        <ele>1468.5745</ele>
        <time>2021-11-14T16:20:37Z</time>
      </trkpt>
      <trkpt lat="4.65782" lon="-75.027618">
        <ele>1468.8094</ele>
        <time>2021-11-14T16:20:38Z</time>
      </trkpt>
      <trkpt lat="4.657847" lon="-75.02758">
        <ele>1468.1882</ele>
        <time>2021-11-14T16:20:39Z</time>
      </trkpt>
      <trkpt lat="4.657873" lon="-75.027534">
        <ele>1467.6575</ele>
        <time>2021-11-14T16:20:40Z</time>
      </trkpt>
      <trkpt lat="4.657929" lon="-75.027451">
        <ele>1466.8123</ele>
        <time>2021-11-14T16:20:41Z</time>
      </trkpt>
      <trkpt lat="4.658025" lon="-75.027306">
        <ele>1467.0105</ele>
        <time>2021-11-14T16:20:42Z</time>
      </trkpt>
      <trkpt lat="4.658126" lon="-75.027153">
        <ele>1467.4323</ele>
        <time>2021-11-14T16:20:43Z</time>
      </trkpt>
      <trkpt lat="4.65818" lon="-75.027069">
        <ele>1467.7617</ele>
        <time>2021-11-14T16:20:44Z</time>
      </trkpt>
      <trkpt lat="4.658221" lon="-75.027008">
        <ele>1465.4244</ele>
        <time>2021-11-14T16:20:45Z</time>
      </trkpt>
      <trkpt lat="4.658304" lon="-75.026955">
        <ele>1464.8047</ele>
        <time>2021-11-14T16:20:46Z</time>
      </trkpt>
      <trkpt lat="4.658304" lon="-75.026955">
        <ele>1463.1866</ele>
        <time>2021-11-14T16:20:47Z</time>
      </trkpt>
      <trkpt lat="4.658409" lon="-75.026939">
        <ele>1460.2312</ele>
        <time>2021-11-14T16:20:48Z</time>
      </trkpt>
      <trkpt lat="4.658478" lon="-75.026962">
        <ele>1458.1775</ele>
        <time>2021-11-14T16:20:49Z</time>
      </trkpt>
      <trkpt lat="4.658724" lon="-75.027061">
        <ele>1457.5237</ele>
        <time>2021-11-14T16:20:50Z</time>
      </trkpt>
      <trkpt lat="4.658765" lon="-75.027092">
        <ele>1458.7262</ele>
        <time>2021-11-14T16:20:51Z</time>
      </trkpt>
      <trkpt lat="4.658817" lon="-75.02713">
        <ele>1457.8479</ele>
        <time>2021-11-14T16:20:52Z</time>
      </trkpt>
      <trkpt lat="4.658852" lon="-75.027153">
        <ele>1457.5375</ele>
        <time>2021-11-14T16:20:53Z</time>
      </trkpt>
      <trkpt lat="4.658932" lon="-75.027206">
        <ele>1457.8081</ele>
        <time>2021-11-14T16:20:54Z</time>
      </trkpt>
      <trkpt lat="4.659042" lon="-75.027237">
        <ele>1463.2185</ele>
        <time>2021-11-14T16:20:55Z</time>
      </trkpt>
      <trkpt lat="4.659072" lon="-75.027237">
        <ele>1464.6998</ele>
        <time>2021-11-14T16:20:56Z</time>
      </trkpt>
      <trkpt lat="4.659167" lon="-75.027237">
        <ele>1462.2944</ele>
        <time>2021-11-14T16:20:57Z</time>
      </trkpt>
      <trkpt lat="4.65924" lon="-75.027237">
        <ele>1461.5679</ele>
        <time>2021-11-14T16:20:58Z</time>
      </trkpt>
      <trkpt lat="4.659362" lon="-75.027229">
        <ele>1460.4141</ele>
        <time>2021-11-14T16:20:59Z</time>
      </trkpt>
      <trkpt lat="4.659525" lon="-75.027229">
        <ele>1459.3782</ele>
        <time>2021-11-14T16:21:00Z</time>
      </trkpt>
      <trkpt lat="4.659636" lon="-75.027222">
        <ele>1458.4137</ele>
        <time>2021-11-14T16:21:01Z</time>
      </trkpt>
      <trkpt lat="4.659744" lon="-75.027222">
        <ele>1457.7427</ele>
        <time>2021-11-14T16:21:02Z</time>
      </trkpt>
      <trkpt lat="4.659814" lon="-75.027222">
        <ele>1454.6857</ele>
        <time>2021-11-14T16:21:03Z</time>
      </trkpt>
      <trkpt lat="4.6599" lon="-75.027245">
        <ele>1454.9353</ele>
        <time>2021-11-14T16:21:04Z</time>
      </trkpt>
      <trkpt lat="4.659952" lon="-75.027306">
        <ele>1455.531</ele>
        <time>2021-11-14T16:21:05Z</time>
      </trkpt>
      <trkpt lat="4.659999" lon="-75.027412">
        <ele>1454.6901</ele>
        <time>2021-11-14T16:21:06Z</time>
      </trkpt>
      <trkpt lat="4.660053" lon="-75.027542">
        <ele>1453.2744</ele>
        <time>2021-11-14T16:21:07Z</time>
      </trkpt>
      <trkpt lat="4.66007" lon="-75.02758">
        <ele>1451.7686</ele>
        <time>2021-11-14T16:21:08Z</time>
      </trkpt>
      <trkpt lat="4.660077" lon="-75.027596">
        <ele>1451.6039</ele>
        <time>2021-11-14T16:21:09Z</time>
      </trkpt>
      <trkpt lat="4.66009" lon="-75.027634">
        <ele>1451.0292</ele>
        <time>2021-11-14T16:21:10Z</time>
      </trkpt>
      <trkpt lat="4.660131" lon="-75.027718">
        <ele>1450.6484</ele>
        <time>2021-11-14T16:21:11Z</time>
      </trkpt>
      <trkpt lat="4.660293" lon="-75.027695">
        <ele>1449.9408</ele>
        <time>2021-11-14T16:21:12Z</time>
      </trkpt>
      <trkpt lat="4.660406" lon="-75.027618">
        <ele>1448.9612</ele>
        <time>2021-11-14T16:21:13Z</time>
      </trkpt>
      <trkpt lat="4.660475" lon="-75.027573">
        <ele>1448.3165</ele>
        <time>2021-11-14T16:21:14Z</time>
      </trkpt>
      <trkpt lat="4.660564" lon="-75.027504">
        <ele>1447.2854</ele>
        <time>2021-11-14T16:21:15Z</time>
      </trkpt>
      <trkpt lat="4.66063" lon="-75.027458">
        <ele>1446.962</ele>
        <time>2021-11-14T16:21:16Z</time>
      </trkpt>
      <trkpt lat="4.660729" lon="-75.027382">
        <ele>1447.2023</ele>
        <time>2021-11-14T16:21:18Z</time>
      </trkpt>
      <trkpt lat="4.660729" lon="-75.027382">
        <ele>1446.0247</ele>
        <time>2021-11-14T16:21:19Z</time>
      </trkpt>
      <trkpt lat="4.660807" lon="-75.027328">
        <ele>1446.2031</ele>
        <time>2021-11-14T16:21:20Z</time>
      </trkpt>
      <trkpt lat="4.660881" lon="-75.027275">
        <ele>1443.7942</ele>
        <time>2021-11-14T16:21:21Z</time>
      </trkpt>
      <trkpt lat="4.660978" lon="-75.027206">
        <ele>1442.8843</ele>
        <time>2021-11-14T16:21:22Z</time>
      </trkpt>
      <trkpt lat="4.661054" lon="-75.027145">
        <ele>1441.9087</ele>
        <time>2021-11-14T16:21:23Z</time>
      </trkpt>
      <trkpt lat="4.661108" lon="-75.027107">
        <ele>1439.199</ele>
        <time>2021-11-14T16:21:24Z</time>
      </trkpt>
      <trkpt lat="4.661134" lon="-75.027092">
        <ele>1437.808</ele>
        <time>2021-11-14T16:21:25Z</time>
      </trkpt>
      <trkpt lat="4.661172" lon="-75.027046">
        <ele>1439.5052</ele>
        <time>2021-11-14T16:21:26Z</time>
      </trkpt>
      <trkpt lat="4.661201" lon="-75.027">
        <ele>1438.856</ele>
        <time>2021-11-14T16:21:27Z</time>
      </trkpt>
      <trkpt lat="4.661205" lon="-75.026993">
        <ele>1439.5969</ele>
        <time>2021-11-14T16:21:28Z</time>
      </trkpt>
      <trkpt lat="4.661225" lon="-75.026962">
        <ele>1439.3898</ele>
        <time>2021-11-14T16:21:29Z</time>
      </trkpt>
      <trkpt lat="4.661251" lon="-75.026917">
        <ele>1440.1431</ele>
        <time>2021-11-14T16:21:30Z</time>
      </trkpt>
      <trkpt lat="4.661275" lon="-75.026878">
        <ele>1440.0372</ele>
        <time>2021-11-14T16:21:31Z</time>
      </trkpt>
      <trkpt lat="4.661284" lon="-75.026863">
        <ele>1439.1526</ele>
        <time>2021-11-14T16:21:32Z</time>
      </trkpt>
      <trkpt lat="4.66132" lon="-75.026802">
        <ele>1438.4987</ele>
        <time>2021-11-14T16:21:33Z</time>
      </trkpt>
      <trkpt lat="4.661337" lon="-75.026779">
        <ele>1437.9325</ele>
        <time>2021-11-14T16:21:34Z</time>
      </trkpt>
      <trkpt lat="4.661389" lon="-75.026688">
        <ele>1436.4741</ele>
        <time>2021-11-14T16:21:35Z</time>
      </trkpt>
      <trkpt lat="4.661426" lon="-75.026588">
        <ele>1436.3625</ele>
        <time>2021-11-14T16:21:36Z</time>
      </trkpt>
      <trkpt lat="4.661442" lon="-75.026474">
        <ele>1433.6093</ele>
        <time>2021-11-14T16:21:37Z</time>
      </trkpt>
      <trkpt lat="4.661456" lon="-75.026382">
        <ele>1432.186</ele>
        <time>2021-11-14T16:21:38Z</time>
      </trkpt>
      <trkpt lat="4.661476" lon="-75.026245">
        <ele>1432.516</ele>
        <time>2021-11-14T16:21:39Z</time>
      </trkpt>
      <trkpt lat="4.6615" lon="-75.026077">
        <ele>1431.5637</ele>
        <time>2021-11-14T16:21:40Z</time>
      </trkpt>
      <trkpt lat="4.661526" lon="-75.025902">
        <ele>1430.4946</ele>
        <time>2021-11-14T16:21:41Z</time>
      </trkpt>
      <trkpt lat="4.661552" lon="-75.025726">
        <ele>1427.9788</ele>
        <time>2021-11-14T16:21:42Z</time>
      </trkpt>
      <trkpt lat="4.66157" lon="-75.025604">
        <ele>1427.2661</ele>
        <time>2021-11-14T16:21:43Z</time>
      </trkpt>
      <trkpt lat="4.661592" lon="-75.025452">
        <ele>1424.6865</ele>
        <time>2021-11-14T16:21:44Z</time>
      </trkpt>
      <trkpt lat="4.661592" lon="-75.025452">
        <ele>1424.0277</ele>
        <time>2021-11-14T16:21:45Z</time>
      </trkpt>
      <trkpt lat="4.661615" lon="-75.025322">
        <ele>1424.5203</ele>
        <time>2021-11-14T16:21:46Z</time>
      </trkpt>
      <trkpt lat="4.661688" lon="-75.025223">
        <ele>1423.3567</ele>
        <time>2021-11-14T16:21:47Z</time>
      </trkpt>
      <trkpt lat="4.661773" lon="-75.025131">
        <ele>1422.0338</ele>
        <time>2021-11-14T16:21:48Z</time>
      </trkpt>
      <trkpt lat="4.661919" lon="-75.025024">
        <ele>1422.7073</ele>
        <time>2021-11-14T16:21:49Z</time>
      </trkpt>
      <trkpt lat="4.661952" lon="-75.024986">
        <ele>1422.7007</ele>
        <time>2021-11-14T16:21:50Z</time>
      </trkpt>
      <trkpt lat="4.66198" lon="-75.02494">
        <ele>1421.546</ele>
        <time>2021-11-14T16:21:51Z</time>
      </trkpt>
      <trkpt lat="4.662034" lon="-75.024849">
        <ele>1420.7112</ele>
        <time>2021-11-14T16:21:52Z</time>
      </trkpt>
      <trkpt lat="4.662114" lon="-75.024811">
        <ele>1420.9604</ele>
        <time>2021-11-14T16:21:53Z</time>
      </trkpt>
      <trkpt lat="4.662162" lon="-75.024796">
        <ele>1419.8265</ele>
        <time>2021-11-14T16:21:54Z</time>
      </trkpt>
      <trkpt lat="4.662173" lon="-75.024788">
        <ele>1418.918</ele>
        <time>2021-11-14T16:21:55Z</time>
      </trkpt>
      <trkpt lat="4.662273" lon="-75.02478">
        <ele>1416.911</ele>
        <time>2021-11-14T16:21:56Z</time>
      </trkpt>
      <trkpt lat="4.662418" lon="-75.02478">
        <ele>1416.7963</ele>
        <time>2021-11-14T16:21:57Z</time>
      </trkpt>
      <trkpt lat="4.662495" lon="-75.024811">
        <ele>1416.4604</ele>
        <time>2021-11-14T16:21:58Z</time>
      </trkpt>
      <trkpt lat="4.662529" lon="-75.024826">
        <ele>1416.5922</ele>
        <time>2021-11-14T16:21:59Z</time>
      </trkpt>
      <trkpt lat="4.6626" lon="-75.024872">
        <ele>1416.6406</ele>
        <time>2021-11-14T16:22:00Z</time>
      </trkpt>
      <trkpt lat="4.662669" lon="-75.02491">
        <ele>1414.6646</ele>
        <time>2021-11-14T16:22:01Z</time>
      </trkpt>
      <trkpt lat="4.662779" lon="-75.024971">
        <ele>1413.2109</ele>
        <time>2021-11-14T16:22:02Z</time>
      </trkpt>
      <trkpt lat="4.662839" lon="-75.025009">
        <ele>1410.3932</ele>
        <time>2021-11-14T16:22:03Z</time>
      </trkpt>
      <trkpt lat="4.662934" lon="-75.025063">
        <ele>1409.7711</ele>
        <time>2021-11-14T16:22:04Z</time>
      </trkpt>
      <trkpt lat="4.663041" lon="-75.025124">
        <ele>1408.2507</ele>
        <time>2021-11-14T16:22:05Z</time>
      </trkpt>
      <trkpt lat="4.66314" lon="-75.025169">
        <ele>1406.3531</ele>
        <time>2021-11-14T16:22:06Z</time>
      </trkpt>
      <trkpt lat="4.663244" lon="-75.025215">
        <ele>1406.4432</ele>
        <time>2021-11-14T16:22:07Z</time>
      </trkpt>
      <trkpt lat="4.663336" lon="-75.025215">
        <ele>1406.4106</ele>
        <time>2021-11-14T16:22:08Z</time>
      </trkpt>
      <trkpt lat="4.663439" lon="-75.025162">
        <ele>1406.0054</ele>
        <time>2021-11-14T16:22:09Z</time>
      </trkpt>
      <trkpt lat="4.663439" lon="-75.025162">
        <ele>1406.5846</ele>
        <time>2021-11-14T16:22:10Z</time>
      </trkpt>
      <trkpt lat="4.663507" lon="-75.025078">
        <ele>1406.5387</ele>
        <time>2021-11-14T16:22:11Z</time>
      </trkpt>
      <trkpt lat="4.663536" lon="-75.025017">
        <ele>1403.7517</ele>
        <time>2021-11-14T16:22:12Z</time>
      </trkpt>
      <trkpt lat="4.663554" lon="-75.024979">
        <ele>1403.5261</ele>
        <time>2021-11-14T16:22:13Z</time>
      </trkpt>
      <trkpt lat="4.6636" lon="-75.024879">
        <ele>1403.4844</ele>
        <time>2021-11-14T16:22:14Z</time>
      </trkpt>
      <trkpt lat="4.663642" lon="-75.024788">
        <ele>1403.0797</ele>
        <time>2021-11-14T16:22:15Z</time>
      </trkpt>
      <trkpt lat="4.663709" lon="-75.024651">
        <ele>1403.316</ele>
        <time>2021-11-14T16:22:16Z</time>
      </trkpt>
      <trkpt lat="4.663775" lon="-75.024582">
        <ele>1402.5195</ele>
        <time>2021-11-14T16:22:17Z</time>
      </trkpt>
      <trkpt lat="4.663838" lon="-75.024529">
        <ele>1403.2711</ele>
        <time>2021-11-14T16:22:18Z</time>
      </trkpt>
      <trkpt lat="4.66391" lon="-75.024467">
        <ele>1399.178</ele>
        <time>2021-11-14T16:22:19Z</time>
      </trkpt>
      <trkpt lat="4.664054" lon="-75.024338">
        <ele>1397.7435</ele>
        <time>2021-11-14T16:22:20Z</time>
      </trkpt>
      <trkpt lat="4.664193" lon="-75.024223">
        <ele>1397.8871</ele>
        <time>2021-11-14T16:22:21Z</time>
      </trkpt>
      <trkpt lat="4.664246" lon="-75.024178">
        <ele>1397.9843</ele>
        <time>2021-11-14T16:22:22Z</time>
      </trkpt>
      <trkpt lat="4.66435" lon="-75.024063">
        <ele>1397.6136</ele>
        <time>2021-11-14T16:22:23Z</time>
      </trkpt>
      <trkpt lat="4.664424" lon="-75.023941">
        <ele>1397.7129</ele>
        <time>2021-11-14T16:22:24Z</time>
      </trkpt>
      <trkpt lat="4.664468" lon="-75.023827">
        <ele>1396.9808</ele>
        <time>2021-11-14T16:22:25Z</time>
      </trkpt>
      <trkpt lat="4.664518" lon="-75.023705">
        <ele>1396.5486</ele>
        <time>2021-11-14T16:22:26Z</time>
      </trkpt>
      <trkpt lat="4.664597" lon="-75.02359">
        <ele>1394.9277</ele>
        <time>2021-11-14T16:22:27Z</time>
      </trkpt>
      <trkpt lat="4.664648" lon="-75.023521">
        <ele>1394.7626</ele>
        <time>2021-11-14T16:22:28Z</time>
      </trkpt>
      <trkpt lat="4.664723" lon="-75.023422">
        <ele>1393.1525</ele>
        <time>2021-11-14T16:22:29Z</time>
      </trkpt>
      <trkpt lat="4.664808" lon="-75.0233">
        <ele>1390.5696</ele>
        <time>2021-11-14T16:22:30Z</time>
      </trkpt>
      <trkpt lat="4.664865" lon="-75.02317">
        <ele>1389.2742</ele>
        <time>2021-11-14T16:22:31Z</time>
      </trkpt>
      <trkpt lat="4.664914" lon="-75.023064">
        <ele>1387.0306</ele>
        <time>2021-11-14T16:22:32Z</time>
      </trkpt>
      <trkpt lat="4.664964" lon="-75.022964">
        <ele>1386.2063</ele>
        <time>2021-11-14T16:22:33Z</time>
      </trkpt>
      <trkpt lat="4.665008" lon="-75.022865">
        <ele>1384.7523</ele>
        <time>2021-11-14T16:22:35Z</time>
      </trkpt>
      <trkpt lat="4.665039" lon="-75.022758">
        <ele>1384.3391</ele>
        <time>2021-11-14T16:22:36Z</time>
      </trkpt>
      <trkpt lat="4.665052" lon="-75.022682">
        <ele>1383.7242</ele>
        <time>2021-11-14T16:22:37Z</time>
      </trkpt>
      <trkpt lat="4.665072" lon="-75.022552">
        <ele>1383.419</ele>
        <time>2021-11-14T16:22:38Z</time>
      </trkpt>
      <trkpt lat="4.665093" lon="-75.02243">
        <ele>1383.0597</ele>
        <time>2021-11-14T16:22:39Z</time>
      </trkpt>
      <trkpt lat="4.665104" lon="-75.022362">
        <ele>1383.544</ele>
        <time>2021-11-14T16:22:40Z</time>
      </trkpt>
      <trkpt lat="4.665173" lon="-75.022331">
        <ele>1382.6571</ele>
        <time>2021-11-14T16:22:41Z</time>
      </trkpt>
      <trkpt lat="4.665374" lon="-75.022346">
        <ele>1382.9541</ele>
        <time>2021-11-14T16:22:42Z</time>
      </trkpt>
      <trkpt lat="4.665509" lon="-75.0224">
        <ele>1378.9686</ele>
        <time>2021-11-14T16:22:43Z</time>
      </trkpt>
      <trkpt lat="4.665515" lon="-75.022408">
        <ele>1376.506</ele>
        <time>2021-11-14T16:22:44Z</time>
      </trkpt>
      <trkpt lat="4.665592" lon="-75.022453">
        <ele>1374.4175</ele>
        <time>2021-11-14T16:22:45Z</time>
      </trkpt>
      <trkpt lat="4.665745" lon="-75.022575">
        <ele>1374.4177</ele>
        <time>2021-11-14T16:22:46Z</time>
      </trkpt>
      <trkpt lat="4.665844" lon="-75.022667">
        <ele>1373.2787</ele>
        <time>2021-11-14T16:22:47Z</time>
      </trkpt>
      <trkpt lat="4.66591" lon="-75.022728">
        <ele>1372.4653</ele>
        <time>2021-11-14T16:22:48Z</time>
      </trkpt>
      <trkpt lat="4.66591" lon="-75.022728">
        <ele>1372.0415</ele>
        <time>2021-11-14T16:22:49Z</time>
      </trkpt>
      <trkpt lat="4.66596" lon="-75.022774">
        <ele>1373.8041</ele>
        <time>2021-11-14T16:22:50Z</time>
      </trkpt>
      <trkpt lat="4.666074" lon="-75.02282">
        <ele>1371.7645</ele>
        <time>2021-11-14T16:22:51Z</time>
      </trkpt>
      <trkpt lat="4.666123" lon="-75.02282">
        <ele>1371.6968</ele>
        <time>2021-11-14T16:22:52Z</time>
      </trkpt>
      <trkpt lat="4.666282" lon="-75.022781">
        <ele>1370.2511</ele>
        <time>2021-11-14T16:22:53Z</time>
      </trkpt>
      <trkpt lat="4.666437" lon="-75.022705">
        <ele>1368.4265</ele>
        <time>2021-11-14T16:22:54Z</time>
      </trkpt>
      <trkpt lat="4.666551" lon="-75.022644">
        <ele>1367.7219</ele>
        <time>2021-11-14T16:22:55Z</time>
      </trkpt>
      <trkpt lat="4.666657" lon="-75.022591">
        <ele>1365.5576</ele>
        <time>2021-11-14T16:22:56Z</time>
      </trkpt>
      <trkpt lat="4.666769" lon="-75.022507">
        <ele>1364.6292</ele>
        <time>2021-11-14T16:22:57Z</time>
      </trkpt>
      <trkpt lat="4.666874" lon="-75.02243">
        <ele>1362.7266</ele>
        <time>2021-11-14T16:22:58Z</time>
      </trkpt>
      <trkpt lat="4.666977" lon="-75.022354">
        <ele>1362.5063</ele>
        <time>2021-11-14T16:22:59Z</time>
      </trkpt>
      <trkpt lat="4.667088" lon="-75.022263">
        <ele>1363.0833</ele>
        <time>2021-11-14T16:23:00Z</time>
      </trkpt>
      <trkpt lat="4.667192" lon="-75.022156">
        <ele>1361.3214</ele>
        <time>2021-11-14T16:23:01Z</time>
      </trkpt>
      <trkpt lat="4.667302" lon="-75.022049">
        <ele>1360.7041</ele>
        <time>2021-11-14T16:23:02Z</time>
      </trkpt>
      <trkpt lat="4.66744" lon="-75.021919">
        <ele>1358.6432</ele>
        <time>2021-11-14T16:23:03Z</time>
      </trkpt>
      <trkpt lat="4.667553" lon="-75.021805">
        <ele>1357.4308</ele>
        <time>2021-11-14T16:23:04Z</time>
      </trkpt>
      <trkpt lat="4.667642" lon="-75.021721">
        <ele>1356.2167</ele>
        <time>2021-11-14T16:23:05Z</time>
      </trkpt>
      <trkpt lat="4.667706" lon="-75.021591">
        <ele>1355.608</ele>
        <time>2021-11-14T16:23:06Z</time>
      </trkpt>
      <trkpt lat="4.667754" lon="-75.021461">
        <ele>1354.8209</ele>
        <time>2021-11-14T16:23:07Z</time>
      </trkpt>
      <trkpt lat="4.667808" lon="-75.021317">
        <ele>1353.4213</ele>
        <time>2021-11-14T16:23:08Z</time>
      </trkpt>
      <trkpt lat="4.667855" lon="-75.021187">
        <ele>1352.2948</ele>
        <time>2021-11-14T16:23:09Z</time>
      </trkpt>
      <trkpt lat="4.667896" lon="-75.02108">
        <ele>1352.0187</ele>
        <time>2021-11-14T16:23:10Z</time>
      </trkpt>
      <trkpt lat="4.667999" lon="-75.020775">
        <ele>1350.0378</ele>
        <time>2021-11-14T16:23:11Z</time>
      </trkpt>
      <trkpt lat="4.668029" lon="-75.02063">
        <ele>1349.6256</ele>
        <time>2021-11-14T16:23:12Z</time>
      </trkpt>
      <trkpt lat="4.668051" lon="-75.020523">
        <ele>1348.71</ele>
        <time>2021-11-14T16:23:13Z</time>
      </trkpt>
      <trkpt lat="4.668108" lon="-75.020393">
        <ele>1348.1661</ele>
        <time>2021-11-14T16:23:14Z</time>
      </trkpt>
      <trkpt lat="4.668108" lon="-75.020393">
        <ele>1347.7214</ele>
        <time>2021-11-14T16:23:15Z</time>
      </trkpt>
      <trkpt lat="4.668215" lon="-75.020248">
        <ele>1346.7429</ele>
        <time>2021-11-14T16:23:16Z</time>
      </trkpt>
      <trkpt lat="4.668289" lon="-75.020164">
        <ele>1346.202</ele>
        <time>2021-11-14T16:23:17Z</time>
      </trkpt>
      <trkpt lat="4.668357" lon="-75.020096">
        <ele>1345.1777</ele>
        <time>2021-11-14T16:23:18Z</time>
      </trkpt>
      <trkpt lat="4.668395" lon="-75.020065">
        <ele>1344.8317</ele>
        <time>2021-11-14T16:23:19Z</time>
      </trkpt>
      <trkpt lat="4.668466" lon="-75.019997">
        <ele>1345.0216</ele>
        <time>2021-11-14T16:23:20Z</time>
      </trkpt>
      <trkpt lat="4.668538" lon="-75.019936">
        <ele>1344.5922</ele>
        <time>2021-11-14T16:23:21Z</time>
      </trkpt>
      <trkpt lat="4.668585" lon="-75.01989">
        <ele>1344.6426</ele>
        <time>2021-11-14T16:23:22Z</time>
      </trkpt>
      <trkpt lat="4.668605" lon="-75.019867">
        <ele>1344.0359</ele>
        <time>2021-11-14T16:23:23Z</time>
      </trkpt>
      <trkpt lat="4.668693" lon="-75.019791">
        <ele>1343.6554</ele>
        <time>2021-11-14T16:23:24Z</time>
      </trkpt>
      <trkpt lat="4.6688" lon="-75.019684">
        <ele>1343.3004</ele>
        <time>2021-11-14T16:23:25Z</time>
      </trkpt>
      <trkpt lat="4.668848" lon="-75.019585">
        <ele>1343.3688</ele>
        <time>2021-11-14T16:23:26Z</time>
      </trkpt>
      <trkpt lat="4.668872" lon="-75.019478">
        <ele>1342.0037</ele>
        <time>2021-11-14T16:23:27Z</time>
      </trkpt>
      <trkpt lat="4.66888" lon="-75.019379">
        <ele>1342.1693</ele>
        <time>2021-11-14T16:23:28Z</time>
      </trkpt>
      <trkpt lat="4.668886" lon="-75.019302">
        <ele>1341.054</ele>
        <time>2021-11-14T16:23:29Z</time>
      </trkpt>
      <trkpt lat="4.668891" lon="-75.019234">
        <ele>1340.5643</ele>
        <time>2021-11-14T16:23:30Z</time>
      </trkpt>
      <trkpt lat="4.668897" lon="-75.019165">
        <ele>1340.8082</ele>
        <time>2021-11-14T16:23:31Z</time>
      </trkpt>
      <trkpt lat="4.668903" lon="-75.019096">
        <ele>1340.5614</ele>
        <time>2021-11-14T16:23:32Z</time>
      </trkpt>
      <trkpt lat="4.668909" lon="-75.019012">
        <ele>1340.0173</ele>
        <time>2021-11-14T16:23:33Z</time>
      </trkpt>
      <trkpt lat="4.668919" lon="-75.018898">
        <ele>1339.7135</ele>
        <time>2021-11-14T16:23:34Z</time>
      </trkpt>
      <trkpt lat="4.668926" lon="-75.018799">
        <ele>1339.0443</ele>
        <time>2021-11-14T16:23:35Z</time>
      </trkpt>
      <trkpt lat="4.668933" lon="-75.018753">
        <ele>1338.3348</ele>
        <time>2021-11-14T16:23:36Z</time>
      </trkpt>
      <trkpt lat="4.66895" lon="-75.018684">
        <ele>1337.6558</ele>
        <time>2021-11-14T16:23:37Z</time>
      </trkpt>
      <trkpt lat="4.668976" lon="-75.018578">
        <ele>1336.9913</ele>
        <time>2021-11-14T16:23:39Z</time>
      </trkpt>
      <trkpt lat="4.669006" lon="-75.018456">
        <ele>1335.8921</ele>
        <time>2021-11-14T16:23:40Z</time>
      </trkpt>
      <trkpt lat="4.669025" lon="-75.018379">
        <ele>1335.7659</ele>
        <time>2021-11-14T16:23:41Z</time>
      </trkpt>
      <trkpt lat="4.669051" lon="-75.018303">
        <ele>1334.9158</ele>
        <time>2021-11-14T16:23:42Z</time>
      </trkpt>
      <trkpt lat="4.669166" lon="-75.018173">
        <ele>1335.126</ele>
        <time>2021-11-14T16:23:43Z</time>
      </trkpt>
      <trkpt lat="4.669166" lon="-75.018173">
        <ele>1334.3644</ele>
        <time>2021-11-14T16:23:44Z</time>
      </trkpt>
      <trkpt lat="4.669236" lon="-75.018105">
        <ele>1333.3284</ele>
        <time>2021-11-14T16:23:45Z</time>
      </trkpt>
      <trkpt lat="4.669316" lon="-75.018044">
        <ele>1331.479</ele>
        <time>2021-11-14T16:23:46Z</time>
      </trkpt>
      <trkpt lat="4.669391" lon="-75.01799">
        <ele>1330.2155</ele>
        <time>2021-11-14T16:23:47Z</time>
      </trkpt>
      <trkpt lat="4.669536" lon="-75.017883">
        <ele>1329.1881</ele>
        <time>2021-11-14T16:23:48Z</time>
      </trkpt>
      <trkpt lat="4.669611" lon="-75.01783">
        <ele>1329.0793</ele>
        <time>2021-11-14T16:23:49Z</time>
      </trkpt>
      <trkpt lat="4.669703" lon="-75.017769">
        <ele>1328.8809</ele>
        <time>2021-11-14T16:23:50Z</time>
      </trkpt>
      <trkpt lat="4.669772" lon="-75.017715">
        <ele>1327.8584</ele>
        <time>2021-11-14T16:23:51Z</time>
      </trkpt>
      <trkpt lat="4.669883" lon="-75.017639">
        <ele>1327.4307</ele>
        <time>2021-11-14T16:23:52Z</time>
      </trkpt>
      <trkpt lat="4.669977" lon="-75.017548">
        <ele>1327.1543</ele>
        <time>2021-11-14T16:23:53Z</time>
      </trkpt>
      <trkpt lat="4.670057" lon="-75.017456">
        <ele>1326.5099</ele>
        <time>2021-11-14T16:23:54Z</time>
      </trkpt>
      <trkpt lat="4.670129" lon="-75.017342">
        <ele>1326.2985</ele>
        <time>2021-11-14T16:23:55Z</time>
      </trkpt>
      <trkpt lat="4.670183" lon="-75.017235">
        <ele>1325.825</ele>
        <time>2021-11-14T16:23:56Z</time>
      </trkpt>
      <trkpt lat="4.670229" lon="-75.01712">
        <ele>1326.2992</ele>
        <time>2021-11-14T16:23:57Z</time>
      </trkpt>
      <trkpt lat="4.670251" lon="-75.017021">
        <ele>1326.5792</ele>
        <time>2021-11-14T16:23:58Z</time>
      </trkpt>
      <trkpt lat="4.670262" lon="-75.016975">
        <ele>1326.4111</ele>
        <time>2021-11-14T16:23:59Z</time>
      </trkpt>
      <trkpt lat="4.670278" lon="-75.016899">
        <ele>1326.8273</ele>
        <time>2021-11-14T16:24:00Z</time>
      </trkpt>
      <trkpt lat="4.670307" lon="-75.016777">
        <ele>1326.778</ele>
        <time>2021-11-14T16:24:01Z</time>
      </trkpt>
      <trkpt lat="4.670334" lon="-75.016663">
        <ele>1327.5026</ele>
        <time>2021-11-14T16:24:02Z</time>
      </trkpt>
      <trkpt lat="4.670379" lon="-75.016541">
        <ele>1327.415</ele>
        <time>2021-11-14T16:24:03Z</time>
      </trkpt>
      <trkpt lat="4.670465" lon="-75.01638">
        <ele>1326.9069</ele>
        <time>2021-11-14T16:24:04Z</time>
      </trkpt>
      <trkpt lat="4.670535" lon="-75.016251">
        <ele>1326.1135</ele>
        <time>2021-11-14T16:24:05Z</time>
      </trkpt>
      <trkpt lat="4.67058" lon="-75.016144">
        <ele>1326.322</ele>
        <time>2021-11-14T16:24:06Z</time>
      </trkpt>
      <trkpt lat="4.670586" lon="-75.016022">
        <ele>1325.72</ele>
        <time>2021-11-14T16:24:07Z</time>
      </trkpt>
      <trkpt lat="4.670596" lon="-75.015808">
        <ele>1325.2303</ele>
        <time>2021-11-14T16:24:08Z</time>
      </trkpt>
      <trkpt lat="4.670596" lon="-75.015808">
        <ele>1324.7065</ele>
        <time>2021-11-14T16:24:09Z</time>
      </trkpt>
      <trkpt lat="4.670603" lon="-75.015671">
        <ele>1323.8092</ele>
        <time>2021-11-14T16:24:10Z</time>
      </trkpt>
      <trkpt lat="4.670606" lon="-75.015602">
        <ele>1322.9061</ele>
        <time>2021-11-14T16:24:11Z</time>
      </trkpt>
      <trkpt lat="4.670635" lon="-75.015526">
        <ele>1322.9884</ele>
        <time>2021-11-14T16:24:12Z</time>
      </trkpt>
      <trkpt lat="4.670699" lon="-75.015419">
        <ele>1321.4265</ele>
        <time>2021-11-14T16:24:13Z</time>
      </trkpt>
      <trkpt lat="4.670784" lon="-75.015282">
        <ele>1321.5751</ele>
        <time>2021-11-14T16:24:14Z</time>
      </trkpt>
      <trkpt lat="4.670887" lon="-75.015152">
        <ele>1321.6448</ele>
        <time>2021-11-14T16:24:15Z</time>
      </trkpt>
      <trkpt lat="4.670977" lon="-75.01503">
        <ele>1321.1521</ele>
        <time>2021-11-14T16:24:16Z</time>
      </trkpt>
      <trkpt lat="4.671122" lon="-75.014778">
        <ele>1319.3115</ele>
        <time>2021-11-14T16:24:17Z</time>
      </trkpt>
      <trkpt lat="4.671174" lon="-75.014687">
        <ele>1319.1903</ele>
        <time>2021-11-14T16:24:18Z</time>
      </trkpt>
      <trkpt lat="4.671248" lon="-75.014557">
        <ele>1318.1868</ele>
        <time>2021-11-14T16:24:19Z</time>
      </trkpt>
      <trkpt lat="4.671256" lon="-75.014412">
        <ele>1316.8988</ele>
        <time>2021-11-14T16:24:20Z</time>
      </trkpt>
      <trkpt lat="4.671262" lon="-75.014267">
        <ele>1316.5009</ele>
        <time>2021-11-14T16:24:21Z</time>
      </trkpt>
      <trkpt lat="4.671283" lon="-75.014107">
        <ele>1315.259</ele>
        <time>2021-11-14T16:24:22Z</time>
      </trkpt>
      <trkpt lat="4.671313" lon="-75.014015">
        <ele>1314.6825</ele>
        <time>2021-11-14T16:24:23Z</time>
      </trkpt>
      <trkpt lat="4.671356" lon="-75.013901">
        <ele>1313.8253</ele>
        <time>2021-11-14T16:24:24Z</time>
      </trkpt>
      <trkpt lat="4.671389" lon="-75.013802">
        <ele>1312.8251</ele>
        <time>2021-11-14T16:24:25Z</time>
      </trkpt>
      <trkpt lat="4.671442" lon="-75.013725">
        <ele>1313.3069</ele>
        <time>2021-11-14T16:24:26Z</time>
      </trkpt>
      <trkpt lat="4.671525" lon="-75.013634">
        <ele>1312.5007</ele>
        <time>2021-11-14T16:24:27Z</time>
      </trkpt>
      <trkpt lat="4.671629" lon="-75.013519">
        <ele>1311.6587</ele>
        <time>2021-11-14T16:24:28Z</time>
      </trkpt>
      <trkpt lat="4.671745" lon="-75.013397">
        <ele>1310.7764</ele>
        <time>2021-11-14T16:24:29Z</time>
      </trkpt>
      <trkpt lat="4.671844" lon="-75.01329">
        <ele>1309.8684</ele>
        <time>2021-11-14T16:24:30Z</time>
      </trkpt>
      <trkpt lat="4.671922" lon="-75.013206">
        <ele>1309.16</ele>
        <time>2021-11-14T16:24:31Z</time>
      </trkpt>
      <trkpt lat="4.672015" lon="-75.013107">
        <ele>1308.5818</ele>
        <time>2021-11-14T16:24:32Z</time>
      </trkpt>
      <trkpt lat="4.672067" lon="-75.013023">
        <ele>1307.7804</ele>
        <time>2021-11-14T16:24:33Z</time>
      </trkpt>
      <trkpt lat="4.672117" lon="-75.012924">
        <ele>1306.9209</ele>
        <time>2021-11-14T16:24:34Z</time>
      </trkpt>
      <trkpt lat="4.672117" lon="-75.012924">
        <ele>1306.2518</ele>
        <time>2021-11-14T16:24:35Z</time>
      </trkpt>
      <trkpt lat="4.672161" lon="-75.012794">
        <ele>1305.3319</ele>
        <time>2021-11-14T16:24:36Z</time>
      </trkpt>
      <trkpt lat="4.672123" lon="-75.012657">
        <ele>1305.2076</ele>
        <time>2021-11-14T16:24:38Z</time>
      </trkpt>
      <trkpt lat="4.672078" lon="-75.012489">
        <ele>1305.1063</ele>
        <time>2021-11-14T16:24:39Z</time>
      </trkpt>
      <trkpt lat="4.672036" lon="-75.012337">
        <ele>1305.3651</ele>
        <time>2021-11-14T16:24:40Z</time>
      </trkpt>
      <trkpt lat="4.672032" lon="-75.012238">
        <ele>1304.6449</ele>
        <time>2021-11-14T16:24:41Z</time>
      </trkpt>
      <trkpt lat="4.672079" lon="-75.012115">
        <ele>1305.3488</ele>
        <time>2021-11-14T16:24:42Z</time>
      </trkpt>
      <trkpt lat="4.672126" lon="-75.011993">
        <ele>1302.845</ele>
        <time>2021-11-14T16:24:43Z</time>
      </trkpt>
      <trkpt lat="4.672261" lon="-75.01178">
        <ele>1302.936</ele>
        <time>2021-11-14T16:24:44Z</time>
      </trkpt>
      <trkpt lat="4.672337" lon="-75.011665">
        <ele>1302.284</ele>
        <time>2021-11-14T16:24:45Z</time>
      </trkpt>
      <trkpt lat="4.672419" lon="-75.011551">
        <ele>1302.9396</ele>
        <time>2021-11-14T16:24:46Z</time>
      </trkpt>
      <trkpt lat="4.672499" lon="-75.011436">
        <ele>1300.4031</ele>
        <time>2021-11-14T16:24:47Z</time>
      </trkpt>
      <trkpt lat="4.672563" lon="-75.011337">
        <ele>1299.6377</ele>
        <time>2021-11-14T16:24:48Z</time>
      </trkpt>
      <trkpt lat="4.672609" lon="-75.011276">
        <ele>1300.1738</ele>
        <time>2021-11-14T16:24:49Z</time>
      </trkpt>
      <trkpt lat="4.672653" lon="-75.011215">
        <ele>1300.1227</ele>
        <time>2021-11-14T16:24:50Z</time>
      </trkpt>
      <trkpt lat="4.6727" lon="-75.011147">
        <ele>1299.61</ele>
        <time>2021-11-14T16:24:51Z</time>
      </trkpt>
      <trkpt lat="4.672726" lon="-75.01107">
        <ele>1299.2367</ele>
        <time>2021-11-14T16:24:52Z</time>
      </trkpt>
      <trkpt lat="4.672746" lon="-75.011009">
        <ele>1299.2035</ele>
        <time>2021-11-14T16:24:53Z</time>
      </trkpt>
      <trkpt lat="4.67276" lon="-75.010933">
        <ele>1299.3748</ele>
        <time>2021-11-14T16:24:54Z</time>
      </trkpt>
      <trkpt lat="4.672701" lon="-75.010857">
        <ele>1299.1025</ele>
        <time>2021-11-14T16:24:55Z</time>
      </trkpt>
      <trkpt lat="4.672654" lon="-75.010796">
        <ele>1298.7562</ele>
        <time>2021-11-14T16:24:56Z</time>
      </trkpt>
      <trkpt lat="4.672611" lon="-75.010735">
        <ele>1298.4188</ele>
        <time>2021-11-14T16:24:57Z</time>
      </trkpt>
      <trkpt lat="4.67255" lon="-75.010658">
        <ele>1295.6365</ele>
        <time>2021-11-14T16:24:58Z</time>
      </trkpt>
      <trkpt lat="4.672421" lon="-75.010513">
        <ele>1295.5436</ele>
        <time>2021-11-14T16:24:59Z</time>
      </trkpt>
      <trkpt lat="4.672338" lon="-75.010422">
        <ele>1295.3824</ele>
        <time>2021-11-14T16:25:00Z</time>
      </trkpt>
      <trkpt lat="4.672338" lon="-75.010345">
        <ele>1295.0724</ele>
        <time>2021-11-14T16:25:01Z</time>
      </trkpt>
      <trkpt lat="4.672338" lon="-75.010284">
        <ele>1295.1666</ele>
        <time>2021-11-14T16:25:02Z</time>
      </trkpt>
      <trkpt lat="4.67236" lon="-75.010185">
        <ele>1294.7063</ele>
        <time>2021-11-14T16:25:03Z</time>
      </trkpt>
      <trkpt lat="4.672422" lon="-75.010101">
        <ele>1293.6101</ele>
        <time>2021-11-14T16:25:04Z</time>
      </trkpt>
      <trkpt lat="4.672561" lon="-75.009911">
        <ele>1292.2642</ele>
        <time>2021-11-14T16:25:05Z</time>
      </trkpt>
      <trkpt lat="4.672596" lon="-75.00985">
        <ele>1290.9764</ele>
        <time>2021-11-14T16:25:06Z</time>
      </trkpt>
      <trkpt lat="4.672572" lon="-75.009712">
        <ele>1289.5068</ele>
        <time>2021-11-14T16:25:07Z</time>
      </trkpt>
      <trkpt lat="4.672553" lon="-75.00956">
        <ele>1288.4424</ele>
        <time>2021-11-14T16:25:08Z</time>
      </trkpt>
      <trkpt lat="4.672542" lon="-75.009399">
        <ele>1287.5419</ele>
        <time>2021-11-14T16:25:09Z</time>
      </trkpt>
      <trkpt lat="4.67253" lon="-75.009216">
        <ele>1287.626</ele>
        <time>2021-11-14T16:25:10Z</time>
      </trkpt>
      <trkpt lat="4.67253" lon="-75.009216">
        <ele>1286.0675</ele>
        <time>2021-11-14T16:25:11Z</time>
      </trkpt>
      <trkpt lat="4.67252" lon="-75.009033">
        <ele>1282.5006</ele>
        <time>2021-11-14T16:25:12Z</time>
      </trkpt>
      <trkpt lat="4.672569" lon="-75.008934">
        <ele>1281.763</ele>
        <time>2021-11-14T16:25:13Z</time>
      </trkpt>
      <trkpt lat="4.672629" lon="-75.00882">
        <ele>1281.7201</ele>
        <time>2021-11-14T16:25:14Z</time>
      </trkpt>
      <trkpt lat="4.672688" lon="-75.008705">
        <ele>1281.0629</ele>
        <time>2021-11-14T16:25:15Z</time>
      </trkpt>
      <trkpt lat="4.67273" lon="-75.008614">
        <ele>1279.9601</ele>
        <time>2021-11-14T16:25:16Z</time>
      </trkpt>
      <trkpt lat="4.672703" lon="-75.008369">
        <ele>1277.1879</ele>
        <time>2021-11-14T16:25:17Z</time>
      </trkpt>
      <trkpt lat="4.672664" lon="-75.008255">
        <ele>1276.6052</ele>
        <time>2021-11-14T16:25:18Z</time>
      </trkpt>
      <trkpt lat="4.672619" lon="-75.008118">
        <ele>1275.6666</ele>
        <time>2021-11-14T16:25:19Z</time>
      </trkpt>
      <trkpt lat="4.672576" lon="-75.00798">
        <ele>1275.056</ele>
        <time>2021-11-14T16:25:20Z</time>
      </trkpt>
      <trkpt lat="4.672555" lon="-75.007919">
        <ele>1274.9276</ele>
        <time>2021-11-14T16:25:21Z</time>
      </trkpt>
      <trkpt lat="4.67254" lon="-75.007866">
        <ele>1272.6116</ele>
        <time>2021-11-14T16:25:22Z</time>
      </trkpt>
      <trkpt lat="4.672549" lon="-75.007828">
        <ele>1271.4298</ele>
        <time>2021-11-14T16:25:23Z</time>
      </trkpt>
      <trkpt lat="4.672563" lon="-75.007767">
        <ele>1270.9207</ele>
        <time>2021-11-14T16:25:24Z</time>
      </trkpt>
      <trkpt lat="4.672583" lon="-75.00769">
        <ele>1270.9786</ele>
        <time>2021-11-14T16:25:25Z</time>
      </trkpt>
      <trkpt lat="4.672616" lon="-75.007553">
        <ele>1269.533</ele>
        <time>2021-11-14T16:25:26Z</time>
      </trkpt>
      <trkpt lat="4.672664" lon="-75.007355">
        <ele>1268.0392</ele>
        <time>2021-11-14T16:25:27Z</time>
      </trkpt>
      <trkpt lat="4.672685" lon="-75.00721">
        <ele>1267.3219</ele>
        <time>2021-11-14T16:25:29Z</time>
      </trkpt>
      <trkpt lat="4.672678" lon="-75.007149">
        <ele>1267.0123</ele>
        <time>2021-11-14T16:25:30Z</time>
      </trkpt>
      <trkpt lat="4.672667" lon="-75.00705">
        <ele>1266.4156</ele>
        <time>2021-11-14T16:25:31Z</time>
      </trkpt>
      <trkpt lat="4.672631" lon="-75.006897">
        <ele>1266.2839</ele>
        <time>2021-11-14T16:25:32Z</time>
      </trkpt>
      <trkpt lat="4.672606" lon="-75.006783">
        <ele>1266.2856</ele>
        <time>2021-11-14T16:25:33Z</time>
      </trkpt>
      <trkpt lat="4.672604" lon="-75.006714">
        <ele>1265.9758</ele>
        <time>2021-11-14T16:25:34Z</time>
      </trkpt>
      <trkpt lat="4.672612" lon="-75.006668">
        <ele>1265.8632</ele>
        <time>2021-11-14T16:25:35Z</time>
      </trkpt>
      <trkpt lat="4.672627" lon="-75.006607">
        <ele>1264.5885</ele>
        <time>2021-11-14T16:25:36Z</time>
      </trkpt>
      <trkpt lat="4.672627" lon="-75.006607">
        <ele>1263.7637</ele>
        <time>2021-11-14T16:25:37Z</time>
      </trkpt>
      <trkpt lat="4.672647" lon="-75.006569">
        <ele>1261.7435</ele>
        <time>2021-11-14T16:25:38Z</time>
      </trkpt>
      <trkpt lat="4.672681" lon="-75.0065">
        <ele>1260.923</ele>
        <time>2021-11-14T16:25:39Z</time>
      </trkpt>
      <trkpt lat="4.672731" lon="-75.006409">
        <ele>1259.2125</ele>
        <time>2021-11-14T16:25:40Z</time>
      </trkpt>
      <trkpt lat="4.672742" lon="-75.006317">
        <ele>1258.5178</ele>
        <time>2021-11-14T16:25:41Z</time>
      </trkpt>
      <trkpt lat="4.672739" lon="-75.006287">
        <ele>1258.2434</ele>
        <time>2021-11-14T16:25:42Z</time>
      </trkpt>
      <trkpt lat="4.672721" lon="-75.006134">
        <ele>1257.9854</ele>
        <time>2021-11-14T16:25:43Z</time>
      </trkpt>
      <trkpt lat="4.672716" lon="-75.006088">
        <ele>1258.374</ele>
        <time>2021-11-14T16:25:44Z</time>
      </trkpt>
      <trkpt lat="4.672698" lon="-75.005974">
        <ele>1259.9501</ele>
        <time>2021-11-14T16:25:45Z</time>
      </trkpt>
      <trkpt lat="4.672696" lon="-75.005966">
        <ele>1259.8383</ele>
        <time>2021-11-14T16:25:46Z</time>
      </trkpt>
      <trkpt lat="4.672683" lon="-75.005905">
        <ele>1259.4857</ele>
        <time>2021-11-14T16:25:47Z</time>
      </trkpt>
      <trkpt lat="4.672652" lon="-75.00576">
        <ele>1258.2301</ele>
        <time>2021-11-14T16:25:48Z</time>
      </trkpt>
      <trkpt lat="4.672624" lon="-75.00563">
        <ele>1257.9263</ele>
        <time>2021-11-14T16:25:49Z</time>
      </trkpt>
      <trkpt lat="4.672592" lon="-75.005585">
        <ele>1256.8887</ele>
        <time>2021-11-14T16:25:50Z</time>
      </trkpt>
      <trkpt lat="4.672531" lon="-75.005524">
        <ele>1256.5348</ele>
        <time>2021-11-14T16:25:51Z</time>
      </trkpt>
      <trkpt lat="4.672447" lon="-75.00544">
        <ele>1257.0858</ele>
        <time>2021-11-14T16:25:52Z</time>
      </trkpt>
      <trkpt lat="4.672376" lon="-75.005371">
        <ele>1257.1212</ele>
        <time>2021-11-14T16:25:53Z</time>
      </trkpt>
      <trkpt lat="4.672298" lon="-75.005287">
        <ele>1256.3634</ele>
        <time>2021-11-14T16:25:54Z</time>
      </trkpt>
      <trkpt lat="4.672196" lon="-75.00518">
        <ele>1255.4939</ele>
        <time>2021-11-14T16:25:55Z</time>
      </trkpt>
      <trkpt lat="4.672132" lon="-75.005104">
        <ele>1255.1943</ele>
        <time>2021-11-14T16:25:56Z</time>
      </trkpt>
      <trkpt lat="4.672076" lon="-75.005043">
        <ele>1253.82</ele>
        <time>2021-11-14T16:25:57Z</time>
      </trkpt>
      <trkpt lat="4.672003" lon="-75.004959">
        <ele>1252.552</ele>
        <time>2021-11-14T16:25:58Z</time>
      </trkpt>
      <trkpt lat="4.671948" lon="-75.00489">
        <ele>1250.6941</ele>
        <time>2021-11-14T16:25:59Z</time>
      </trkpt>
      <trkpt lat="4.671879" lon="-75.004807">
        <ele>1249.7296</ele>
        <time>2021-11-14T16:26:00Z</time>
      </trkpt>
      <trkpt lat="4.671842" lon="-75.004768">
        <ele>1249.0988</ele>
        <time>2021-11-14T16:26:01Z</time>
      </trkpt>
      <trkpt lat="4.671823" lon="-75.004745">
        <ele>1248.8369</ele>
        <time>2021-11-14T16:26:02Z</time>
      </trkpt>
      <trkpt lat="4.671795" lon="-75.004715">
        <ele>1248.6387</ele>
        <time>2021-11-14T16:26:03Z</time>
      </trkpt>
      <trkpt lat="4.671743" lon="-75.004662">
        <ele>1248.1068</ele>
        <time>2021-11-14T16:26:04Z</time>
      </trkpt>
      <trkpt lat="4.671633" lon="-75.004631">
        <ele>1247.4204</ele>
        <time>2021-11-14T16:26:05Z</time>
      </trkpt>
      <trkpt lat="4.671508" lon="-75.004623">
        <ele>1246.4078</ele>
        <time>2021-11-14T16:26:06Z</time>
      </trkpt>
      <trkpt lat="4.671349" lon="-75.004608">
        <ele>1245.2961</ele>
        <time>2021-11-14T16:26:07Z</time>
      </trkpt>
      <trkpt lat="4.671349" lon="-75.004608">
        <ele>1244.4094</ele>
        <time>2021-11-14T16:26:08Z</time>
      </trkpt>
      <trkpt lat="4.671229" lon="-75.004601">
        <ele>1243.1064</ele>
        <time>2021-11-14T16:26:09Z</time>
      </trkpt>
      <trkpt lat="4.671084" lon="-75.004585">
        <ele>1241.9214</ele>
        <time>2021-11-14T16:26:10Z</time>
      </trkpt>
      <trkpt lat="4.670925" lon="-75.004623">
        <ele>1240.2792</ele>
        <time>2021-11-14T16:26:11Z</time>
      </trkpt>
      <trkpt lat="4.670764" lon="-75.004692">
        <ele>1238.9158</ele>
        <time>2021-11-14T16:26:12Z</time>
      </trkpt>
      <trkpt lat="4.67063" lon="-75.004745">
        <ele>1237.1305</ele>
        <time>2021-11-14T16:26:13Z</time>
      </trkpt>
      <trkpt lat="4.670496" lon="-75.004799">
        <ele>1235.568</ele>
        <time>2021-11-14T16:26:14Z</time>
      </trkpt>
      <trkpt lat="4.670341" lon="-75.004814">
        <ele>1234.2432</ele>
        <time>2021-11-14T16:26:15Z</time>
      </trkpt>
      <trkpt lat="4.670215" lon="-75.004829">
        <ele>1233.5592</ele>
        <time>2021-11-14T16:26:16Z</time>
      </trkpt>
      <trkpt lat="4.67002" lon="-75.004829">
        <ele>1230.515</ele>
        <time>2021-11-14T16:26:17Z</time>
      </trkpt>
      <trkpt lat="4.669981" lon="-75.004784">
        <ele>1229.5898</ele>
        <time>2021-11-14T16:26:18Z</time>
      </trkpt>
      <trkpt lat="4.669924" lon="-75.004707">
        <ele>1229.6954</ele>
        <time>2021-11-14T16:26:19Z</time>
      </trkpt>
      <trkpt lat="4.669831" lon="-75.004593">
        <ele>1228.8226</ele>
        <time>2021-11-14T16:26:20Z</time>
      </trkpt>
      <trkpt lat="4.669753" lon="-75.004501">
        <ele>1229.4233</ele>
        <time>2021-11-14T16:26:21Z</time>
      </trkpt>
      <trkpt lat="4.669727" lon="-75.004471">
        <ele>1229.2942</ele>
        <time>2021-11-14T16:26:22Z</time>
      </trkpt>
      <trkpt lat="4.669663" lon="-75.004395">
        <ele>1228.88</ele>
        <time>2021-11-14T16:26:23Z</time>
      </trkpt>
      <trkpt lat="4.669658" lon="-75.004295">
        <ele>1227.7426</ele>
        <time>2021-11-14T16:26:24Z</time>
      </trkpt>
      <trkpt lat="4.669681" lon="-75.004189">
        <ele>1226.7712</ele>
        <time>2021-11-14T16:26:25Z</time>
      </trkpt>
      <trkpt lat="4.669711" lon="-75.004112">
        <ele>1224.9683</ele>
        <time>2021-11-14T16:26:26Z</time>
      </trkpt>
      <trkpt lat="4.669796" lon="-75.004021">
        <ele>1223.8616</ele>
        <time>2021-11-14T16:26:27Z</time>
      </trkpt>
      <trkpt lat="4.669865" lon="-75.003975">
        <ele>1224.6653</ele>
        <time>2021-11-14T16:26:28Z</time>
      </trkpt>
      <trkpt lat="4.669984" lon="-75.003937">
        <ele>1222.4172</ele>
        <time>2021-11-14T16:26:29Z</time>
      </trkpt>
      <trkpt lat="4.670117" lon="-75.003906">
        <ele>1220.9535</ele>
        <time>2021-11-14T16:26:30Z</time>
      </trkpt>
      <trkpt lat="4.67028" lon="-75.003876">
        <ele>1220.1466</ele>
        <time>2021-11-14T16:26:31Z</time>
      </trkpt>
      <trkpt lat="4.670388" lon="-75.003853">
        <ele>1220.1635</ele>
        <time>2021-11-14T16:26:32Z</time>
      </trkpt>
      <trkpt lat="4.670517" lon="-75.003815">
        <ele>1218.2438</ele>
        <time>2021-11-14T16:26:33Z</time>
      </trkpt>
      <trkpt lat="4.670616" lon="-75.003777">
        <ele>1216.3175</ele>
        <time>2021-11-14T16:26:34Z</time>
      </trkpt>
      <trkpt lat="4.67066" lon="-75.003761">
        <ele>1214.7098</ele>
        <time>2021-11-14T16:26:35Z</time>
      </trkpt>
      <trkpt lat="4.670716" lon="-75.003731">
        <ele>1213.9401</ele>
        <time>2021-11-14T16:26:36Z</time>
      </trkpt>
      <trkpt lat="4.670716" lon="-75.003731">
        <ele>1213.8466</ele>
        <time>2021-11-14T16:26:37Z</time>
      </trkpt>
      <trkpt lat="4.670787" lon="-75.003685">
        <ele>1211.8785</ele>
        <time>2021-11-14T16:26:39Z</time>
      </trkpt>
      <trkpt lat="4.670854" lon="-75.003624">
        <ele>1210.7296</ele>
        <time>2021-11-14T16:26:40Z</time>
      </trkpt>
      <trkpt lat="4.670946" lon="-75.003525">
        <ele>1210.4348</ele>
        <time>2021-11-14T16:26:41Z</time>
      </trkpt>
      <trkpt lat="4.671037" lon="-75.003426">
        <ele>1210.5933</ele>
        <time>2021-11-14T16:26:42Z</time>
      </trkpt>
      <trkpt lat="4.671116" lon="-75.003304">
        <ele>1208.105</ele>
        <time>2021-11-14T16:26:43Z</time>
      </trkpt>
      <trkpt lat="4.671186" lon="-75.003174">
        <ele>1206.6007</ele>
        <time>2021-11-14T16:26:44Z</time>
      </trkpt>
      <trkpt lat="4.671281" lon="-75.002998">
        <ele>1205.9423</ele>
        <time>2021-11-14T16:26:45Z</time>
      </trkpt>
      <trkpt lat="4.671338" lon="-75.002892">
        <ele>1204.8531</ele>
        <time>2021-11-14T16:26:46Z</time>
      </trkpt>
      <trkpt lat="4.671396" lon="-75.002693">
        <ele>1204.2594</ele>
        <time>2021-11-14T16:26:47Z</time>
      </trkpt>
      <trkpt lat="4.671444" lon="-75.002525">
        <ele>1203.3024</ele>
        <time>2021-11-14T16:26:48Z</time>
      </trkpt>
      <trkpt lat="4.67152" lon="-75.002434">
        <ele>1201.4531</ele>
        <time>2021-11-14T16:26:49Z</time>
      </trkpt>
      <trkpt lat="4.671592" lon="-75.00238">
        <ele>1200.0117</ele>
        <time>2021-11-14T16:26:50Z</time>
      </trkpt>
      <trkpt lat="4.671656" lon="-75.002327">
        <ele>1198.2417</ele>
        <time>2021-11-14T16:26:51Z</time>
      </trkpt>
      <trkpt lat="4.671746" lon="-75.002335">
        <ele>1196.7656</ele>
        <time>2021-11-14T16:26:52Z</time>
      </trkpt>
      <trkpt lat="4.671853" lon="-75.00238">
        <ele>1196.211</ele>
        <time>2021-11-14T16:26:53Z</time>
      </trkpt>
      <trkpt lat="4.671981" lon="-75.002434">
        <ele>1195.0355</ele>
        <time>2021-11-14T16:26:54Z</time>
      </trkpt>
      <trkpt lat="4.672025" lon="-75.002426">
        <ele>1193.7646</ele>
        <time>2021-11-14T16:26:55Z</time>
      </trkpt>
      <trkpt lat="4.672054" lon="-75.002403">
        <ele>1193.0265</ele>
        <time>2021-11-14T16:26:56Z</time>
      </trkpt>
      <trkpt lat="4.672097" lon="-75.00238">
        <ele>1191.1956</ele>
        <time>2021-11-14T16:26:57Z</time>
      </trkpt>
      <trkpt lat="4.672121" lon="-75.002365">
        <ele>1191.3517</ele>
        <time>2021-11-14T16:26:58Z</time>
      </trkpt>
      <trkpt lat="4.672162" lon="-75.002342">
        <ele>1190.6364</ele>
        <time>2021-11-14T16:26:59Z</time>
      </trkpt>
      <trkpt lat="4.672219" lon="-75.002289">
        <ele>1189.2933</ele>
        <time>2021-11-14T16:27:00Z</time>
      </trkpt>
      <trkpt lat="4.672248" lon="-75.002228">
        <ele>1187.0693</ele>
        <time>2021-11-14T16:27:01Z</time>
      </trkpt>
      <trkpt lat="4.672276" lon="-75.002167">
        <ele>1186.9294</ele>
        <time>2021-11-14T16:27:02Z</time>
      </trkpt>
      <trkpt lat="4.672331" lon="-75.002052">
        <ele>1186.7405</ele>
        <time>2021-11-14T16:27:03Z</time>
      </trkpt>
      <trkpt lat="4.672362" lon="-75.001984">
        <ele>1186.8258</ele>
        <time>2021-11-14T16:27:04Z</time>
      </trkpt>
      <trkpt lat="4.67242" lon="-75.001862">
        <ele>1186.67</ele>
        <time>2021-11-14T16:27:05Z</time>
      </trkpt>
      <trkpt lat="4.672423" lon="-75.001854">
        <ele>1185.6156</ele>
        <time>2021-11-14T16:27:06Z</time>
      </trkpt>
      <trkpt lat="4.672423" lon="-75.001854">
        <ele>1184.837</ele>
        <time>2021-11-14T16:27:07Z</time>
      </trkpt>
      <trkpt lat="4.672471" lon="-75.001762">
        <ele>1185.1082</ele>
        <time>2021-11-14T16:27:08Z</time>
      </trkpt>
      <trkpt lat="4.672527" lon="-75.001656">
        <ele>1184.3513</ele>
        <time>2021-11-14T16:27:09Z</time>
      </trkpt>
      <trkpt lat="4.672713" lon="-75.001549">
        <ele>1181.5968</ele>
        <time>2021-11-14T16:27:10Z</time>
      </trkpt>
      <trkpt lat="4.672866" lon="-75.001495">
        <ele>1179.9058</ele>
        <time>2021-11-14T16:27:11Z</time>
      </trkpt>
      <trkpt lat="4.672971" lon="-75.001442">
        <ele>1180.2493</ele>
        <time>2021-11-14T16:27:12Z</time>
      </trkpt>
      <trkpt lat="4.673029" lon="-75.001396">
        <ele>1179.0001</ele>
        <time>2021-11-14T16:27:13Z</time>
      </trkpt>
      <trkpt lat="4.673147" lon="-75.001305">
        <ele>1177.2402</ele>
        <time>2021-11-14T16:27:14Z</time>
      </trkpt>
      <trkpt lat="4.67326" lon="-75.001213">
        <ele>1177.4133</ele>
        <time>2021-11-14T16:27:15Z</time>
      </trkpt>
      <trkpt lat="4.673337" lon="-75.001144">
        <ele>1174.9155</ele>
        <time>2021-11-14T16:27:16Z</time>
      </trkpt>
      <trkpt lat="4.673426" lon="-75.001076">
        <ele>1175.2535</ele>
        <time>2021-11-14T16:27:17Z</time>
      </trkpt>
      <trkpt lat="4.673515" lon="-75.000999">
        <ele>1173.7462</ele>
        <time>2021-11-14T16:27:18Z</time>
      </trkpt>
      <trkpt lat="4.673564" lon="-75.000854">
        <ele>1172.5912</ele>
        <time>2021-11-14T16:27:19Z</time>
      </trkpt>
      <trkpt lat="4.673604" lon="-75.00061">
        <ele>1170.0867</ele>
        <time>2021-11-14T16:27:20Z</time>
      </trkpt>
      <trkpt lat="4.673551" lon="-75.000504">
        <ele>1169.288</ele>
        <time>2021-11-14T16:27:21Z</time>
      </trkpt>
      <trkpt lat="4.673497" lon="-75.000336">
        <ele>1167.5978</ele>
        <time>2021-11-14T16:27:22Z</time>
      </trkpt>
      <trkpt lat="4.673491" lon="-75.000145">
        <ele>1166.4171</ele>
        <time>2021-11-14T16:27:23Z</time>
      </trkpt>
      <trkpt lat="4.673487" lon="-75.000008">
        <ele>1164.209</ele>
        <time>2021-11-14T16:27:24Z</time>
      </trkpt>
      <trkpt lat="4.673483" lon="-74.999901">
        <ele>1163.2316</ele>
        <time>2021-11-14T16:27:25Z</time>
      </trkpt>
      <trkpt lat="4.673479" lon="-74.999779">
        <ele>1162.2607</ele>
        <time>2021-11-14T16:27:26Z</time>
      </trkpt>
      <trkpt lat="4.673398" lon="-74.999634">
        <ele>1161.6438</ele>
        <time>2021-11-14T16:27:27Z</time>
      </trkpt>
      <trkpt lat="4.673317" lon="-74.999535">
        <ele>1161.1733</ele>
        <time>2021-11-14T16:27:28Z</time>
      </trkpt>
      <trkpt lat="4.673186" lon="-74.999474">
        <ele>1161.0231</ele>
        <time>2021-11-14T16:27:29Z</time>
      </trkpt>
      <trkpt lat="4.673064" lon="-74.999413">
        <ele>1160.2021</ele>
        <time>2021-11-14T16:27:30Z</time>
      </trkpt>
      <trkpt lat="4.672933" lon="-74.999352">
        <ele>1159.3126</ele>
        <time>2021-11-14T16:27:31Z</time>
      </trkpt>
      <trkpt lat="4.672791" lon="-74.999275">
        <ele>1158.2068</ele>
        <time>2021-11-14T16:27:32Z</time>
      </trkpt>
      <trkpt lat="4.672689" lon="-74.999229">
        <ele>1157.2661</ele>
        <time>2021-11-14T16:27:33Z</time>
      </trkpt>
      <trkpt lat="4.67257" lon="-74.999168">
        <ele>1156.1975</ele>
        <time>2021-11-14T16:27:34Z</time>
      </trkpt>
      <trkpt lat="4.67257" lon="-74.999168">
        <ele>1154.88</ele>
        <time>2021-11-14T16:27:35Z</time>
      </trkpt>
      <trkpt lat="4.672447" lon="-74.999107">
        <ele>1153.194</ele>
        <time>2021-11-14T16:27:36Z</time>
      </trkpt>
      <trkpt lat="4.672337" lon="-74.999023">
        <ele>1152.1149</ele>
        <time>2021-11-14T16:27:37Z</time>
      </trkpt>
      <trkpt lat="4.672273" lon="-74.998962">
        <ele>1151.8134</ele>
        <time>2021-11-14T16:27:38Z</time>
      </trkpt>
      <trkpt lat="4.672195" lon="-74.998856">
        <ele>1150.8765</ele>
        <time>2021-11-14T16:27:39Z</time>
      </trkpt>
      <trkpt lat="4.672136" lon="-74.998672">
        <ele>1149.555</ele>
        <time>2021-11-14T16:27:40Z</time>
      </trkpt>
      <trkpt lat="4.672081" lon="-74.998566">
        <ele>1148.6129</ele>
        <time>2021-11-14T16:27:41Z</time>
      </trkpt>
      <trkpt lat="4.671992" lon="-74.998505">
        <ele>1147.811</ele>
        <time>2021-11-14T16:27:42Z</time>
      </trkpt>
      <trkpt lat="4.67191" lon="-74.998451">
        <ele>1147.549</ele>
        <time>2021-11-14T16:27:43Z</time>
      </trkpt>
      <trkpt lat="4.671794" lon="-74.998375">
        <ele>1146.1537</ele>
        <time>2021-11-14T16:27:45Z</time>
      </trkpt>
      <trkpt lat="4.671676" lon="-74.998299">
        <ele>1145.498</ele>
        <time>2021-11-14T16:27:46Z</time>
      </trkpt>
      <trkpt lat="4.671608" lon="-74.998253">
        <ele>1145.048</ele>
        <time>2021-11-14T16:27:47Z</time>
      </trkpt>
      <trkpt lat="4.671572" lon="-74.998161">
        <ele>1143.4705</ele>
        <time>2021-11-14T16:27:48Z</time>
      </trkpt>
      <trkpt lat="4.671509" lon="-74.998001">
        <ele>1142.2837</ele>
        <time>2021-11-14T16:27:49Z</time>
      </trkpt>
      <trkpt lat="4.671445" lon="-74.997841">
        <ele>1141.622</ele>
        <time>2021-11-14T16:27:50Z</time>
      </trkpt>
      <trkpt lat="4.671425" lon="-74.997688">
        <ele>1140.4525</ele>
        <time>2021-11-14T16:27:51Z</time>
      </trkpt>
      <trkpt lat="4.671412" lon="-74.997543">
        <ele>1138.9717</ele>
        <time>2021-11-14T16:27:52Z</time>
      </trkpt>
      <trkpt lat="4.671399" lon="-74.997414">
        <ele>1137.0397</ele>
        <time>2021-11-14T16:27:53Z</time>
      </trkpt>
      <trkpt lat="4.671382" lon="-74.997238">
        <ele>1135.7494</ele>
        <time>2021-11-14T16:27:54Z</time>
      </trkpt>
      <trkpt lat="4.671365" lon="-74.997055">
        <ele>1134.6649</ele>
        <time>2021-11-14T16:27:55Z</time>
      </trkpt>
      <trkpt lat="4.671366" lon="-74.996941">
        <ele>1133.0752</ele>
        <time>2021-11-14T16:27:56Z</time>
      </trkpt>
      <trkpt lat="4.671385" lon="-74.996803">
        <ele>1132.6682</ele>
        <time>2021-11-14T16:27:57Z</time>
      </trkpt>
      <trkpt lat="4.671401" lon="-74.996681">
        <ele>1131.6659</ele>
        <time>2021-11-14T16:27:58Z</time>
      </trkpt>
      <trkpt lat="4.671422" lon="-74.996559">
        <ele>1130.3444</ele>
        <time>2021-11-14T16:27:59Z</time>
      </trkpt>
      <trkpt lat="4.671466" lon="-74.996506">
        <ele>1129.4486</ele>
        <time>2021-11-14T16:28:00Z</time>
      </trkpt>
      <trkpt lat="4.671587" lon="-74.996353">
        <ele>1128.0586</ele>
        <time>2021-11-14T16:28:01Z</time>
      </trkpt>
      <trkpt lat="4.671715" lon="-74.996201">
        <ele>1126.6307</ele>
        <time>2021-11-14T16:28:02Z</time>
      </trkpt>
      <trkpt lat="4.671763" lon="-74.996117">
        <ele>1124.8846</ele>
        <time>2021-11-14T16:28:03Z</time>
      </trkpt>
      <trkpt lat="4.671805" lon="-74.996025">
        <ele>1124.3514</ele>
        <time>2021-11-14T16:28:04Z</time>
      </trkpt>
      <trkpt lat="4.671802" lon="-74.995926">
        <ele>1122.9548</ele>
        <time>2021-11-14T16:28:05Z</time>
      </trkpt>
      <trkpt lat="4.671728" lon="-74.995766">
        <ele>1122.2013</ele>
        <time>2021-11-14T16:28:06Z</time>
      </trkpt>
      <trkpt lat="4.671728" lon="-74.995766">
        <ele>1120.7947</ele>
        <time>2021-11-14T16:28:07Z</time>
      </trkpt>
      <trkpt lat="4.671645" lon="-74.99559">
        <ele>1119.3594</ele>
        <time>2021-11-14T16:28:08Z</time>
      </trkpt>
      <trkpt lat="4.671663" lon="-74.995476">
        <ele>1119.4373</ele>
        <time>2021-11-14T16:28:09Z</time>
      </trkpt>
      <trkpt lat="4.67167" lon="-74.995453">
        <ele>1116.7333</ele>
        <time>2021-11-14T16:28:10Z</time>
      </trkpt>
      <trkpt lat="4.671717" lon="-74.995277">
        <ele>1114.7456</ele>
        <time>2021-11-14T16:28:11Z</time>
      </trkpt>
      <trkpt lat="4.671731" lon="-74.995094">
        <ele>1113.4545</ele>
        <time>2021-11-14T16:28:12Z</time>
      </trkpt>
      <trkpt lat="4.671726" lon="-74.994965">
        <ele>1111.5981</ele>
        <time>2021-11-14T16:28:13Z</time>
      </trkpt>
      <trkpt lat="4.671692" lon="-74.994843">
        <ele>1109.9583</ele>
        <time>2021-11-14T16:28:14Z</time>
      </trkpt>
      <trkpt lat="4.671651" lon="-74.994682">
        <ele>1109.0879</ele>
        <time>2021-11-14T16:28:15Z</time>
      </trkpt>
      <trkpt lat="4.671613" lon="-74.994537">
        <ele>1107.3942</ele>
        <time>2021-11-14T16:28:16Z</time>
      </trkpt>
      <trkpt lat="4.67159" lon="-74.994453">
        <ele>1106.8842</ele>
        <time>2021-11-14T16:28:17Z</time>
      </trkpt>
      <trkpt lat="4.67164" lon="-74.994331">
        <ele>1104.4246</ele>
        <time>2021-11-14T16:28:18Z</time>
      </trkpt>
      <trkpt lat="4.671721" lon="-74.994164">
        <ele>1103.0577</ele>
        <time>2021-11-14T16:28:19Z</time>
      </trkpt>
      <trkpt lat="4.67178" lon="-74.994041">
        <ele>1101.5302</ele>
        <time>2021-11-14T16:28:20Z</time>
      </trkpt>
      <trkpt lat="4.671843" lon="-74.993912">
        <ele>1099.5913</ele>
        <time>2021-11-14T16:28:21Z</time>
      </trkpt>
      <trkpt lat="4.67194" lon="-74.993797">
        <ele>1099.6978</ele>
        <time>2021-11-14T16:28:22Z</time>
      </trkpt>
      <trkpt lat="4.672036" lon="-74.99369">
        <ele>1099.287</ele>
        <time>2021-11-14T16:28:23Z</time>
      </trkpt>
      <trkpt lat="4.672112" lon="-74.993599">
        <ele>1098.361</ele>
        <time>2021-11-14T16:28:24Z</time>
      </trkpt>
      <trkpt lat="4.672123" lon="-74.993561">
        <ele>1097.0646</ele>
        <time>2021-11-14T16:28:25Z</time>
      </trkpt>
      <trkpt lat="4.672094" lon="-74.993439">
        <ele>1096.0913</ele>
        <time>2021-11-14T16:28:26Z</time>
      </trkpt>
      <trkpt lat="4.672002" lon="-74.993355">
        <ele>1096.035</ele>
        <time>2021-11-14T16:28:27Z</time>
      </trkpt>
      <trkpt lat="4.671959" lon="-74.993324">
        <ele>1095.8846</ele>
        <time>2021-11-14T16:28:28Z</time>
      </trkpt>
      <trkpt lat="4.671794" lon="-74.993286">
        <ele>1095.3489</ele>
        <time>2021-11-14T16:28:29Z</time>
      </trkpt>
      <trkpt lat="4.671794" lon="-74.993286">
        <ele>1093.6891</ele>
        <time>2021-11-14T16:28:30Z</time>
      </trkpt>
      <trkpt lat="4.671694" lon="-74.993317">
        <ele>1093.074</ele>
        <time>2021-11-14T16:28:31Z</time>
      </trkpt>
      <trkpt lat="4.671556" lon="-74.993362">
        <ele>1092.3187</ele>
        <time>2021-11-14T16:28:32Z</time>
      </trkpt>
      <trkpt lat="4.671431" lon="-74.993401">
        <ele>1092.5566</ele>
        <time>2021-11-14T16:28:33Z</time>
      </trkpt>
      <trkpt lat="4.671305" lon="-74.993378">
        <ele>1092.2349</ele>
        <time>2021-11-14T16:28:34Z</time>
      </trkpt>
      <trkpt lat="4.671086" lon="-74.993332">
        <ele>1092.0562</ele>
        <time>2021-11-14T16:28:35Z</time>
      </trkpt>
      <trkpt lat="4.670997" lon="-74.993355">
        <ele>1091.4731</ele>
        <time>2021-11-14T16:28:36Z</time>
      </trkpt>
      <trkpt lat="4.670925" lon="-74.993378">
        <ele>1090.769</ele>
        <time>2021-11-14T16:28:37Z</time>
      </trkpt>
      <trkpt lat="4.670847" lon="-74.993431">
        <ele>1090.3417</ele>
        <time>2021-11-14T16:28:38Z</time>
      </trkpt>
      <trkpt lat="4.670722" lon="-74.993523">
        <ele>1089.632</ele>
        <time>2021-11-14T16:28:39Z</time>
      </trkpt>
      <trkpt lat="4.670683" lon="-74.993645">
        <ele>1089.3074</ele>
        <time>2021-11-14T16:28:40Z</time>
      </trkpt>
      <trkpt lat="4.670656" lon="-74.993774">
        <ele>1088.2107</ele>
        <time>2021-11-14T16:28:41Z</time>
      </trkpt>
      <trkpt lat="4.670611" lon="-74.994049">
        <ele>1086.7686</ele>
        <time>2021-11-14T16:28:42Z</time>
      </trkpt>
      <trkpt lat="4.670592" lon="-74.994171">
        <ele>1086.445</ele>
        <time>2021-11-14T16:28:43Z</time>
      </trkpt>
      <trkpt lat="4.670559" lon="-74.994301">
        <ele>1084.9202</ele>
        <time>2021-11-14T16:28:44Z</time>
      </trkpt>
      <trkpt lat="4.670515" lon="-74.994385">
        <ele>1084.3855</ele>
        <time>2021-11-14T16:28:45Z</time>
      </trkpt>
      <trkpt lat="4.670465" lon="-74.994492">
        <ele>1082.9698</ele>
        <time>2021-11-14T16:28:46Z</time>
      </trkpt>
      <trkpt lat="4.670384" lon="-74.994606">
        <ele>1082.1101</ele>
        <time>2021-11-14T16:28:47Z</time>
      </trkpt>
      <trkpt lat="4.670246" lon="-74.994751">
        <ele>1080.9452</ele>
        <time>2021-11-14T16:28:48Z</time>
      </trkpt>
      <trkpt lat="4.670125" lon="-74.994873">
        <ele>1079.5848</ele>
        <time>2021-11-14T16:28:49Z</time>
      </trkpt>
      <trkpt lat="4.670072" lon="-74.994972">
        <ele>1078.1301</ele>
        <time>2021-11-14T16:28:50Z</time>
      </trkpt>
      <trkpt lat="4.67008" lon="-74.995094">
        <ele>1077.0424</ele>
        <time>2021-11-14T16:28:51Z</time>
      </trkpt>
      <trkpt lat="4.670092" lon="-74.995239">
        <ele>1075.6887</ele>
        <time>2021-11-14T16:28:52Z</time>
      </trkpt>
      <trkpt lat="4.670113" lon="-74.995377">
        <ele>1074.1134</ele>
        <time>2021-11-14T16:28:53Z</time>
      </trkpt>
      <trkpt lat="4.670136" lon="-74.995529">
        <ele>1072.9104</ele>
        <time>2021-11-14T16:28:54Z</time>
      </trkpt>
      <trkpt lat="4.67016" lon="-74.995689">
        <ele>1072.2853</ele>
        <time>2021-11-14T16:28:55Z</time>
      </trkpt>
      <trkpt lat="4.670169" lon="-74.995743">
        <ele>1072.271</ele>
        <time>2021-11-14T16:28:56Z</time>
      </trkpt>
      <trkpt lat="4.670161" lon="-74.995834">
        <ele>1071.0103</ele>
        <time>2021-11-14T16:28:57Z</time>
      </trkpt>
      <trkpt lat="4.670095" lon="-74.995941">
        <ele>1071.3093</ele>
        <time>2021-11-14T16:28:58Z</time>
      </trkpt>
      <trkpt lat="4.670095" lon="-74.995941">
        <ele>1070.2477</ele>
        <time>2021-11-14T16:28:59Z</time>
      </trkpt>
      <trkpt lat="4.670009" lon="-74.996078">
        <ele>1069.6954</ele>
        <time>2021-11-14T16:29:00Z</time>
      </trkpt>
      <trkpt lat="4.669946" lon="-74.996178">
        <ele>1067.7104</ele>
        <time>2021-11-14T16:29:02Z</time>
      </trkpt>
      <trkpt lat="4.669819" lon="-74.996277">
        <ele>1067.1366</ele>
        <time>2021-11-14T16:29:03Z</time>
      </trkpt>
      <trkpt lat="4.669716" lon="-74.996361">
        <ele>1065.4756</ele>
        <time>2021-11-14T16:29:04Z</time>
      </trkpt>
      <trkpt lat="4.66961" lon="-74.996445">
        <ele>1064.8557</ele>
        <time>2021-11-14T16:29:05Z</time>
      </trkpt>
      <trkpt lat="4.669571" lon="-74.996513">
        <ele>1064.0022</ele>
        <time>2021-11-14T16:29:06Z</time>
      </trkpt>
      <trkpt lat="4.669506" lon="-74.996635">
        <ele>1063.2523</ele>
        <time>2021-11-14T16:29:07Z</time>
      </trkpt>
      <trkpt lat="4.669444" lon="-74.996742">
        <ele>1062.3801</ele>
        <time>2021-11-14T16:29:08Z</time>
      </trkpt>
      <trkpt lat="4.669367" lon="-74.996788">
        <ele>1061.3381</ele>
        <time>2021-11-14T16:29:09Z</time>
      </trkpt>
      <trkpt lat="4.669264" lon="-74.996826">
        <ele>1060.4784</ele>
        <time>2021-11-14T16:29:10Z</time>
      </trkpt>
      <trkpt lat="4.669158" lon="-74.996857">
        <ele>1060.0543</ele>
        <time>2021-11-14T16:29:11Z</time>
      </trkpt>
      <trkpt lat="4.669043" lon="-74.996872">
        <ele>1059.9985</ele>
        <time>2021-11-14T16:29:12Z</time>
      </trkpt>
      <trkpt lat="4.668945" lon="-74.996841">
        <ele>1059.3973</ele>
        <time>2021-11-14T16:29:13Z</time>
      </trkpt>
      <trkpt lat="4.66891" lon="-74.996819">
        <ele>1058.0067</ele>
        <time>2021-11-14T16:29:14Z</time>
      </trkpt>
      <trkpt lat="4.668889" lon="-74.996758">
        <ele>1058.3885</ele>
        <time>2021-11-14T16:29:15Z</time>
      </trkpt>
      <trkpt lat="4.6689" lon="-74.996658">
        <ele>1058.9708</ele>
        <time>2021-11-14T16:29:16Z</time>
      </trkpt>
      <trkpt lat="4.668932" lon="-74.99649">
        <ele>1058.1271</ele>
        <time>2021-11-14T16:29:17Z</time>
      </trkpt>
      <trkpt lat="4.668961" lon="-74.996384">
        <ele>1059.1449</ele>
        <time>2021-11-14T16:29:18Z</time>
      </trkpt>
      <trkpt lat="4.669004" lon="-74.996277">
        <ele>1058.7495</ele>
        <time>2021-11-14T16:29:19Z</time>
      </trkpt>
      <trkpt lat="4.66905" lon="-74.99617">
        <ele>1057.1528</ele>
        <time>2021-11-14T16:29:20Z</time>
      </trkpt>
      <trkpt lat="4.669084" lon="-74.996086">
        <ele>1057.5625</ele>
        <time>2021-11-14T16:29:21Z</time>
      </trkpt>
      <trkpt lat="4.669124" lon="-74.995995">
        <ele>1055.499</ele>
        <time>2021-11-14T16:29:22Z</time>
      </trkpt>
      <trkpt lat="4.669188" lon="-74.995842">
        <ele>1054.915</ele>
        <time>2021-11-14T16:29:23Z</time>
      </trkpt>
      <trkpt lat="4.669225" lon="-74.995689">
        <ele>1054.1853</ele>
        <time>2021-11-14T16:29:24Z</time>
      </trkpt>
      <trkpt lat="4.669238" lon="-74.995613">
        <ele>1052.7216</ele>
        <time>2021-11-14T16:29:25Z</time>
      </trkpt>
      <trkpt lat="4.669241" lon="-74.995529">
        <ele>1051.1141</ele>
        <time>2021-11-14T16:29:26Z</time>
      </trkpt>
      <trkpt lat="4.669203" lon="-74.995422">
        <ele>1049.9226</ele>
        <time>2021-11-14T16:29:27Z</time>
      </trkpt>
      <trkpt lat="4.669144" lon="-74.995293">
        <ele>1049.1128</ele>
        <time>2021-11-14T16:29:28Z</time>
      </trkpt>
      <trkpt lat="4.669065" lon="-74.995209">
        <ele>1048.6675</ele>
        <time>2021-11-14T16:29:29Z</time>
      </trkpt>
      <trkpt lat="4.669065" lon="-74.995209">
        <ele>1047.716</ele>
        <time>2021-11-14T16:29:30Z</time>
      </trkpt>
      <trkpt lat="4.668949" lon="-74.995079">
        <ele>1047.1995</ele>
        <time>2021-11-14T16:29:31Z</time>
      </trkpt>
      <trkpt lat="4.668948" lon="-74.995018">
        <ele>1046.5338</ele>
        <time>2021-11-14T16:29:32Z</time>
      </trkpt>
      <trkpt lat="4.668948" lon="-74.994934">
        <ele>1046.0833</ele>
        <time>2021-11-14T16:29:33Z</time>
      </trkpt>
      <trkpt lat="4.668976" lon="-74.994804">
        <ele>1045.7295</ele>
        <time>2021-11-14T16:29:34Z</time>
      </trkpt>
      <trkpt lat="4.669006" lon="-74.99472">
        <ele>1043.9447</ele>
        <time>2021-11-14T16:29:35Z</time>
      </trkpt>
      <trkpt lat="4.669034" lon="-74.994659">
        <ele>1044.8389</ele>
        <time>2021-11-14T16:29:36Z</time>
      </trkpt>
      <trkpt lat="4.669113" lon="-74.994499">
        <ele>1044.9454</ele>
        <time>2021-11-14T16:29:37Z</time>
      </trkpt>
      <trkpt lat="4.66923" lon="-74.994324">
        <ele>1044.901</ele>
        <time>2021-11-14T16:29:38Z</time>
      </trkpt>
      <trkpt lat="4.66924" lon="-74.994263">
        <ele>1042.5178</ele>
        <time>2021-11-14T16:29:39Z</time>
      </trkpt>
      <trkpt lat="4.669264" lon="-74.994118">
        <ele>1041.1636</ele>
        <time>2021-11-14T16:29:40Z</time>
      </trkpt>
      <trkpt lat="4.669285" lon="-74.993988">
        <ele>1040.2611</ele>
        <time>2021-11-14T16:29:41Z</time>
      </trkpt>
      <trkpt lat="4.669308" lon="-74.993851">
        <ele>1038.714</ele>
        <time>2021-11-14T16:29:42Z</time>
      </trkpt>
      <trkpt lat="4.669286" lon="-74.993713">
        <ele>1038.5719</ele>
        <time>2021-11-14T16:29:43Z</time>
      </trkpt>
      <trkpt lat="4.669244" lon="-74.993607">
        <ele>1038.5902</ele>
        <time>2021-11-14T16:29:44Z</time>
      </trkpt>
      <trkpt lat="4.669201" lon="-74.9935">
        <ele>1038.1995</ele>
        <time>2021-11-14T16:29:45Z</time>
      </trkpt>
      <trkpt lat="4.669146" lon="-74.993431">
        <ele>1037.908</ele>
        <time>2021-11-14T16:29:46Z</time>
      </trkpt>
      <trkpt lat="4.669018" lon="-74.993317">
        <ele>1037.6835</ele>
        <time>2021-11-14T16:29:47Z</time>
      </trkpt>
      <trkpt lat="4.668887" lon="-74.993195">
        <ele>1034.9946</ele>
        <time>2021-11-14T16:29:48Z</time>
      </trkpt>
      <trkpt lat="4.668804" lon="-74.993111">
        <ele>1034.5862</ele>
        <time>2021-11-14T16:29:49Z</time>
      </trkpt>
      <trkpt lat="4.668733" lon="-74.993019">
        <ele>1034.4343</ele>
        <time>2021-11-14T16:29:50Z</time>
      </trkpt>
      <trkpt lat="4.668656" lon="-74.992928">
        <ele>1034.4933</ele>
        <time>2021-11-14T16:29:51Z</time>
      </trkpt>
      <trkpt lat="4.668628" lon="-74.992821">
        <ele>1032.4999</ele>
        <time>2021-11-14T16:29:52Z</time>
      </trkpt>
      <trkpt lat="4.668628" lon="-74.992767">
        <ele>1032.2673</ele>
        <time>2021-11-14T16:29:53Z</time>
      </trkpt>
      <trkpt lat="4.668628" lon="-74.992638">
        <ele>1032.1381</ele>
        <time>2021-11-14T16:29:54Z</time>
      </trkpt>
      <trkpt lat="4.668654" lon="-74.992462">
        <ele>1030.4727</ele>
        <time>2021-11-14T16:29:55Z</time>
      </trkpt>
      <trkpt lat="4.668698" lon="-74.992279">
        <ele>1028.5206</ele>
        <time>2021-11-14T16:29:56Z</time>
      </trkpt>
      <trkpt lat="4.668724" lon="-74.991982">
        <ele>1025.4818</ele>
        <time>2021-11-14T16:29:57Z</time>
      </trkpt>
      <trkpt lat="4.668729" lon="-74.991806">
        <ele>1024.3054</ele>
        <time>2021-11-14T16:29:58Z</time>
      </trkpt>
      <trkpt lat="4.668729" lon="-74.991806">
        <ele>1022.0261</ele>
        <time>2021-11-14T16:29:59Z</time>
      </trkpt>
      <trkpt lat="4.668735" lon="-74.991615">
        <ele>1021.0686</ele>
        <time>2021-11-14T16:30:00Z</time>
      </trkpt>
      <trkpt lat="4.668735" lon="-74.991463">
        <ele>1020.022</ele>
        <time>2021-11-14T16:30:01Z</time>
      </trkpt>
      <trkpt lat="4.668726" lon="-74.991302">
        <ele>1020.67175</ele>
        <time>2021-11-14T16:30:02Z</time>
      </trkpt>
      <trkpt lat="4.668722" lon="-74.991226">
        <ele>1019.18896</ele>
        <time>2021-11-14T16:30:03Z</time>
      </trkpt>
      <trkpt lat="4.668715" lon="-74.991104">
        <ele>1018.8627</ele>
        <time>2021-11-14T16:30:04Z</time>
      </trkpt>
      <trkpt lat="4.668703" lon="-74.990906">
        <ele>1017.2639</ele>
        <time>2021-11-14T16:30:05Z</time>
      </trkpt>
      <trkpt lat="4.668691" lon="-74.990776">
        <ele>1015.829</ele>
        <time>2021-11-14T16:30:06Z</time>
      </trkpt>
      <trkpt lat="4.668666" lon="-74.990646">
        <ele>1014.9503</ele>
        <time>2021-11-14T16:30:07Z</time>
      </trkpt>
      <trkpt lat="4.668631" lon="-74.990479">
        <ele>1013.376</ele>
        <time>2021-11-14T16:30:08Z</time>
      </trkpt>
      <trkpt lat="4.668599" lon="-74.990318">
        <ele>1012.03174</ele>
        <time>2021-11-14T16:30:10Z</time>
      </trkpt>
      <trkpt lat="4.66857" lon="-74.990166">
        <ele>1010.4403</ele>
        <time>2021-11-14T16:30:11Z</time>
      </trkpt>
      <trkpt lat="4.668531" lon="-74.990013">
        <ele>1009.2737</ele>
        <time>2021-11-14T16:30:12Z</time>
      </trkpt>
      <trkpt lat="4.668478" lon="-74.989861">
        <ele>1007.91895</ele>
        <time>2021-11-14T16:30:13Z</time>
      </trkpt>
      <trkpt lat="4.668428" lon="-74.989716">
        <ele>1006.63135</ele>
        <time>2021-11-14T16:30:14Z</time>
      </trkpt>
      <trkpt lat="4.668391" lon="-74.989609">
        <ele>1005.2749</ele>
        <time>2021-11-14T16:30:15Z</time>
      </trkpt>
      <trkpt lat="4.668372" lon="-74.989494">
        <ele>1004.0093</ele>
        <time>2021-11-14T16:30:16Z</time>
      </trkpt>
      <trkpt lat="4.668384" lon="-74.989326">
        <ele>1002.3601</ele>
        <time>2021-11-14T16:30:17Z</time>
      </trkpt>
      <trkpt lat="4.668396" lon="-74.989143">
        <ele>1000.9568</ele>
        <time>2021-11-14T16:30:18Z</time>
      </trkpt>
      <trkpt lat="4.668331" lon="-74.988976">
        <ele>1000.38184</ele>
        <time>2021-11-14T16:30:19Z</time>
      </trkpt>
      <trkpt lat="4.668321" lon="-74.988815">
        <ele>999.5559</ele>
        <time>2021-11-14T16:30:20Z</time>
      </trkpt>
      <trkpt lat="4.668341" lon="-74.988663">
        <ele>998.0121</ele>
        <time>2021-11-14T16:30:21Z</time>
      </trkpt>
      <trkpt lat="4.668362" lon="-74.988487">
        <ele>996.292</ele>
        <time>2021-11-14T16:30:22Z</time>
      </trkpt>
      <trkpt lat="4.668368" lon="-74.988281">
        <ele>994.3364</ele>
        <time>2021-11-14T16:30:23Z</time>
      </trkpt>
      <trkpt lat="4.668368" lon="-74.988152">
        <ele>992.75903</ele>
        <time>2021-11-14T16:30:24Z</time>
      </trkpt>
      <trkpt lat="4.668355" lon="-74.987991">
        <ele>990.90894</ele>
        <time>2021-11-14T16:30:25Z</time>
      </trkpt>
      <trkpt lat="4.66833" lon="-74.987862">
        <ele>989.21765</ele>
        <time>2021-11-14T16:30:26Z</time>
      </trkpt>
      <trkpt lat="4.668356" lon="-74.987747">
        <ele>987.7969</ele>
        <time>2021-11-14T16:30:27Z</time>
      </trkpt>
      <trkpt lat="4.668398" lon="-74.987587">
        <ele>985.85815</ele>
        <time>2021-11-14T16:30:28Z</time>
      </trkpt>
      <trkpt lat="4.668445" lon="-74.987419">
        <ele>984.1123</ele>
        <time>2021-11-14T16:30:29Z</time>
      </trkpt>
      <trkpt lat="4.668472" lon="-74.98732">
        <ele>982.75256</ele>
        <time>2021-11-14T16:30:30Z</time>
      </trkpt>
      <trkpt lat="4.668472" lon="-74.98732">
        <ele>982.27856</ele>
        <time>2021-11-14T16:30:31Z</time>
      </trkpt>
      <trkpt lat="4.66851" lon="-74.987244">
        <ele>981.36206</ele>
        <time>2021-11-14T16:30:32Z</time>
      </trkpt>
      <trkpt lat="4.668577" lon="-74.987137">
        <ele>980.22363</ele>
        <time>2021-11-14T16:30:33Z</time>
      </trkpt>
      <trkpt lat="4.66864" lon="-74.98703">
        <ele>978.87354</ele>
        <time>2021-11-14T16:30:34Z</time>
      </trkpt>
      <trkpt lat="4.668673" lon="-74.986984">
        <ele>977.35864</ele>
        <time>2021-11-14T16:30:35Z</time>
      </trkpt>
      <trkpt lat="4.668718" lon="-74.986908">
        <ele>976.4603</ele>
        <time>2021-11-14T16:30:36Z</time>
      </trkpt>
      <trkpt lat="4.668789" lon="-74.986794">
        <ele>975.42236</ele>
        <time>2021-11-14T16:30:37Z</time>
      </trkpt>
      <trkpt lat="4.668846" lon="-74.986702">
        <ele>973.80164</ele>
        <time>2021-11-14T16:30:38Z</time>
      </trkpt>
      <trkpt lat="4.6689" lon="-74.986618">
        <ele>973.1355</ele>
        <time>2021-11-14T16:30:39Z</time>
      </trkpt>
      <trkpt lat="4.668971" lon="-74.986526">
        <ele>971.2219</ele>
        <time>2021-11-14T16:30:40Z</time>
      </trkpt>
      <trkpt lat="4.669091" lon="-74.986443">
        <ele>969.6283</ele>
        <time>2021-11-14T16:30:41Z</time>
      </trkpt>
      <trkpt lat="4.669213" lon="-74.986366">
        <ele>968.33923</ele>
        <time>2021-11-14T16:30:42Z</time>
      </trkpt>
      <trkpt lat="4.669346" lon="-74.98629">
        <ele>966.97095</ele>
        <time>2021-11-14T16:30:43Z</time>
      </trkpt>
      <trkpt lat="4.669458" lon="-74.986229">
        <ele>965.9728</ele>
        <time>2021-11-14T16:30:44Z</time>
      </trkpt>
      <trkpt lat="4.669546" lon="-74.98616">
        <ele>964.5073</ele>
        <time>2021-11-14T16:30:45Z</time>
      </trkpt>
      <trkpt lat="4.669617" lon="-74.986092">
        <ele>963.1006</ele>
        <time>2021-11-14T16:30:46Z</time>
      </trkpt>
      <trkpt lat="4.669808" lon="-74.985825">
        <ele>961.58923</ele>
        <time>2021-11-14T16:30:47Z</time>
      </trkpt>
      <trkpt lat="4.669849" lon="-74.985764">
        <ele>961.2595</ele>
        <time>2021-11-14T16:30:48Z</time>
      </trkpt>
      <trkpt lat="4.669944" lon="-74.98568">
        <ele>960.52905</ele>
        <time>2021-11-14T16:30:50Z</time>
      </trkpt>
      <trkpt lat="4.670093" lon="-74.98558">
        <ele>959.1504</ele>
        <time>2021-11-14T16:30:51Z</time>
      </trkpt>
      <trkpt lat="4.670184" lon="-74.985527">
        <ele>957.8108</ele>
        <time>2021-11-14T16:30:52Z</time>
      </trkpt>
      <trkpt lat="4.670289" lon="-74.985527">
        <ele>957.8872</ele>
        <time>2021-11-14T16:30:53Z</time>
      </trkpt>
      <trkpt lat="4.670425" lon="-74.985519">
        <ele>956.04553</ele>
        <time>2021-11-14T16:30:54Z</time>
      </trkpt>
      <trkpt lat="4.67065" lon="-74.985466">
        <ele>955.07117</ele>
        <time>2021-11-14T16:30:55Z</time>
      </trkpt>
      <trkpt lat="4.67065" lon="-74.985466">
        <ele>954.1029</ele>
        <time>2021-11-14T16:30:56Z</time>
      </trkpt>
      <trkpt lat="4.670719" lon="-74.985435">
        <ele>953.5299</ele>
        <time>2021-11-14T16:30:57Z</time>
      </trkpt>
      <trkpt lat="4.670828" lon="-74.985359">
        <ele>951.73376</ele>
        <time>2021-11-14T16:30:58Z</time>
      </trkpt>
      <trkpt lat="4.670944" lon="-74.985298">
        <ele>949.90576</ele>
        <time>2021-11-14T16:30:59Z</time>
      </trkpt>
      <trkpt lat="4.671119" lon="-74.985214">
        <ele>948.5491</ele>
        <time>2021-11-14T16:31:00Z</time>
      </trkpt>
      <trkpt lat="4.671284" lon="-74.985138">
        <ele>947.7412</ele>
        <time>2021-11-14T16:31:01Z</time>
      </trkpt>
      <trkpt lat="4.671423" lon="-74.985077">
        <ele>946.02075</ele>
        <time>2021-11-14T16:31:02Z</time>
      </trkpt>
      <trkpt lat="4.671538" lon="-74.985008">
        <ele>944.6489</ele>
        <time>2021-11-14T16:31:03Z</time>
      </trkpt>
      <trkpt lat="4.671677" lon="-74.984947">
        <ele>943.3208</ele>
        <time>2021-11-14T16:31:04Z</time>
      </trkpt>
      <trkpt lat="4.67181" lon="-74.984909">
        <ele>942.9446</ele>
        <time>2021-11-14T16:31:05Z</time>
      </trkpt>
      <trkpt lat="4.671921" lon="-74.984871">
        <ele>942.3082</ele>
        <time>2021-11-14T16:31:06Z</time>
      </trkpt>
      <trkpt lat="4.672033" lon="-74.98484">
        <ele>940.9514</ele>
        <time>2021-11-14T16:31:07Z</time>
      </trkpt>
      <trkpt lat="4.672118" lon="-74.984795">
        <ele>940.6572</ele>
        <time>2021-11-14T16:31:08Z</time>
      </trkpt>
      <trkpt lat="4.672178" lon="-74.984749">
        <ele>938.13574</ele>
        <time>2021-11-14T16:31:09Z</time>
      </trkpt>
      <trkpt lat="4.672234" lon="-74.98465">
        <ele>936.50476</ele>
        <time>2021-11-14T16:31:10Z</time>
      </trkpt>
      <trkpt lat="4.672313" lon="-74.984482">
        <ele>934.98315</ele>
        <time>2021-11-14T16:31:11Z</time>
      </trkpt>
      <trkpt lat="4.672362" lon="-74.984383">
        <ele>934.36914</ele>
        <time>2021-11-14T16:31:12Z</time>
      </trkpt>
      <trkpt lat="4.672417" lon="-74.984276">
        <ele>933.73267</ele>
        <time>2021-11-14T16:31:13Z</time>
      </trkpt>
      <trkpt lat="4.672477" lon="-74.9842">
        <ele>933.0448</ele>
        <time>2021-11-14T16:31:14Z</time>
      </trkpt>
      <trkpt lat="4.672556" lon="-74.984154">
        <ele>932.068</ele>
        <time>2021-11-14T16:31:15Z</time>
      </trkpt>
      <trkpt lat="4.672728" lon="-74.9841">
        <ele>931.124</ele>
        <time>2021-11-14T16:31:16Z</time>
      </trkpt>
      <trkpt lat="4.67292" lon="-74.984055">
        <ele>929.38965</ele>
        <time>2021-11-14T16:31:17Z</time>
      </trkpt>
      <trkpt lat="4.673071" lon="-74.984009">
        <ele>928.12744</ele>
        <time>2021-11-14T16:31:18Z</time>
      </trkpt>
      <trkpt lat="4.673199" lon="-74.983948">
        <ele>927.6748</ele>
        <time>2021-11-14T16:31:19Z</time>
      </trkpt>
      <trkpt lat="4.673335" lon="-74.983856">
        <ele>925.7136</ele>
        <time>2021-11-14T16:31:20Z</time>
      </trkpt>
      <trkpt lat="4.673467" lon="-74.983765">
        <ele>924.86743</ele>
        <time>2021-11-14T16:31:21Z</time>
      </trkpt>
      <trkpt lat="4.673619" lon="-74.983665">
        <ele>923.1102</ele>
        <time>2021-11-14T16:31:22Z</time>
      </trkpt>
      <trkpt lat="4.673619" lon="-74.983665">
        <ele>922.3074</ele>
        <time>2021-11-14T16:31:23Z</time>
      </trkpt>
      <trkpt lat="4.673762" lon="-74.983612">
        <ele>921.9697</ele>
        <time>2021-11-14T16:31:24Z</time>
      </trkpt>
      <trkpt lat="4.673938" lon="-74.983559">
        <ele>921.4287</ele>
        <time>2021-11-14T16:31:25Z</time>
      </trkpt>
      <trkpt lat="4.674089" lon="-74.983498">
        <ele>920.249</ele>
        <time>2021-11-14T16:31:26Z</time>
      </trkpt>
      <trkpt lat="4.674228" lon="-74.983307">
        <ele>918.3977</ele>
        <time>2021-11-14T16:31:27Z</time>
      </trkpt>
      <trkpt lat="4.674253" lon="-74.983185">
        <ele>916.896</ele>
        <time>2021-11-14T16:31:28Z</time>
      </trkpt>
      <trkpt lat="4.674249" lon="-74.98304">
        <ele>916.55164</ele>
        <time>2021-11-14T16:31:29Z</time>
      </trkpt>
      <trkpt lat="4.674233" lon="-74.98288">
        <ele>914.90234</ele>
        <time>2021-11-14T16:31:30Z</time>
      </trkpt>
      <trkpt lat="4.674215" lon="-74.982697">
        <ele>913.03516</ele>
        <time>2021-11-14T16:31:31Z</time>
      </trkpt>
      <trkpt lat="4.674226" lon="-74.982582">
        <ele>912.00244</ele>
        <time>2021-11-14T16:31:33Z</time>
      </trkpt>
      <trkpt lat="4.674238" lon="-74.982536">
        <ele>911.20715</ele>
        <time>2021-11-14T16:31:34Z</time>
      </trkpt>
      <trkpt lat="4.67431" lon="-74.982452">
        <ele>909.93616</ele>
        <time>2021-11-14T16:31:35Z</time>
      </trkpt>
      <trkpt lat="4.674407" lon="-74.982338">
        <ele>909.51636</ele>
        <time>2021-11-14T16:31:36Z</time>
      </trkpt>
      <trkpt lat="4.674605" lon="-74.982124">
        <ele>907.959</ele>
        <time>2021-11-14T16:31:37Z</time>
      </trkpt>
      <trkpt lat="4.674708" lon="-74.981949">
        <ele>906.59717</ele>
        <time>2021-11-14T16:31:38Z</time>
      </trkpt>
      <trkpt lat="4.674859" lon="-74.981728">
        <ele>904.6677</ele>
        <time>2021-11-14T16:31:39Z</time>
      </trkpt>
      <trkpt lat="4.674931" lon="-74.981644">
        <ele>904.3672</ele>
        <time>2021-11-14T16:31:40Z</time>
      </trkpt>
      <trkpt lat="4.674971" lon="-74.98159">
        <ele>903.6167</ele>
        <time>2021-11-14T16:31:41Z</time>
      </trkpt>
      <trkpt lat="4.674999" lon="-74.981522">
        <ele>903.0576</ele>
        <time>2021-11-14T16:31:42Z</time>
      </trkpt>
      <trkpt lat="4.674987" lon="-74.981415">
        <ele>902.8262</ele>
        <time>2021-11-14T16:31:43Z</time>
      </trkpt>
      <trkpt lat="4.674938" lon="-74.981262">
        <ele>902.4844</ele>
        <time>2021-11-14T16:31:44Z</time>
      </trkpt>
      <trkpt lat="4.674844" lon="-74.981216">
        <ele>901.0327</ele>
        <time>2021-11-14T16:31:45Z</time>
      </trkpt>
      <trkpt lat="4.674707" lon="-74.981148">
        <ele>900.80457</ele>
        <time>2021-11-14T16:31:46Z</time>
      </trkpt>
      <trkpt lat="4.674515" lon="-74.981049">
        <ele>898.9114</ele>
        <time>2021-11-14T16:31:47Z</time>
      </trkpt>
      <trkpt lat="4.674515" lon="-74.981049">
        <ele>898.3096</ele>
        <time>2021-11-14T16:31:48Z</time>
      </trkpt>
      <trkpt lat="4.674345" lon="-74.980965">
        <ele>897.3972</ele>
        <time>2021-11-14T16:31:49Z</time>
      </trkpt>
      <trkpt lat="4.674252" lon="-74.980911">
        <ele>896.7395</ele>
        <time>2021-11-14T16:31:50Z</time>
      </trkpt>
      <trkpt lat="4.674127" lon="-74.98085">
        <ele>896.4778</ele>
        <time>2021-11-14T16:31:51Z</time>
      </trkpt>
      <trkpt lat="4.673934" lon="-74.980751">
        <ele>895.7368</ele>
        <time>2021-11-14T16:31:52Z</time>
      </trkpt>
      <trkpt lat="4.67381" lon="-74.980705">
        <ele>895.0906</ele>
        <time>2021-11-14T16:31:53Z</time>
      </trkpt>
      <trkpt lat="4.67375" lon="-74.980682">
        <ele>894.73804</ele>
        <time>2021-11-14T16:31:54Z</time>
      </trkpt>
      <trkpt lat="4.673655" lon="-74.980682">
        <ele>894.0476</ele>
        <time>2021-11-14T16:31:55Z</time>
      </trkpt>
      <trkpt lat="4.673558" lon="-74.980736">
        <ele>893.16785</ele>
        <time>2021-11-14T16:31:56Z</time>
      </trkpt>
      <trkpt lat="4.673454" lon="-74.980789">
        <ele>892.19995</ele>
        <time>2021-11-14T16:31:57Z</time>
      </trkpt>
      <trkpt lat="4.673312" lon="-74.98085">
        <ele>891.5902</ele>
        <time>2021-11-14T16:31:58Z</time>
      </trkpt>
      <trkpt lat="4.673201" lon="-74.98085">
        <ele>890.46265</ele>
        <time>2021-11-14T16:31:59Z</time>
      </trkpt>
      <trkpt lat="4.67313" lon="-74.980812">
        <ele>890.07324</ele>
        <time>2021-11-14T16:32:00Z</time>
      </trkpt>
      <trkpt lat="4.673085" lon="-74.980751">
        <ele>890.6642</ele>
        <time>2021-11-14T16:32:01Z</time>
      </trkpt>
      <trkpt lat="4.673004" lon="-74.980644">
        <ele>889.6543</ele>
        <time>2021-11-14T16:32:02Z</time>
      </trkpt>
      <trkpt lat="4.672944" lon="-74.980568">
        <ele>888.3252</ele>
        <time>2021-11-14T16:32:03Z</time>
      </trkpt>
      <trkpt lat="4.672786" lon="-74.980438">
        <ele>887.44006</ele>
        <time>2021-11-14T16:32:04Z</time>
      </trkpt>
      <trkpt lat="4.672734" lon="-74.980408">
        <ele>886.24146</ele>
        <time>2021-11-14T16:32:05Z</time>
      </trkpt>
      <trkpt lat="4.672652" lon="-74.980431">
        <ele>885.2174</ele>
        <time>2021-11-14T16:32:06Z</time>
      </trkpt>
      <trkpt lat="4.672538" lon="-74.980469">
        <ele>884.5991</ele>
        <time>2021-11-14T16:32:07Z</time>
      </trkpt>
      <trkpt lat="4.672436" lon="-74.980568">
        <ele>883.30225</ele>
        <time>2021-11-14T16:32:08Z</time>
      </trkpt>
      <trkpt lat="4.672333" lon="-74.980721">
        <ele>882.1267</ele>
        <time>2021-11-14T16:32:09Z</time>
      </trkpt>
      <trkpt lat="4.67226" lon="-74.980797">
        <ele>881.8513</ele>
        <time>2021-11-14T16:32:10Z</time>
      </trkpt>
      <trkpt lat="4.672213" lon="-74.980843">
        <ele>881.11426</ele>
        <time>2021-11-14T16:32:11Z</time>
      </trkpt>
      <trkpt lat="4.672096" lon="-74.980865">
        <ele>880.69556</ele>
        <time>2021-11-14T16:32:12Z</time>
      </trkpt>
      <trkpt lat="4.672012" lon="-74.980858">
        <ele>878.2549</ele>
        <time>2021-11-14T16:32:13Z</time>
      </trkpt>
      <trkpt lat="4.671965" lon="-74.98082">
        <ele>877.19824</ele>
        <time>2021-11-14T16:32:14Z</time>
      </trkpt>
      <trkpt lat="4.67195" lon="-74.980782">
        <ele>877.02856</ele>
        <time>2021-11-14T16:32:15Z</time>
      </trkpt>
      <trkpt lat="4.671897" lon="-74.980659">
        <ele>876.74976</ele>
        <time>2021-11-14T16:32:16Z</time>
      </trkpt>
      <trkpt lat="4.671897" lon="-74.980659">
        <ele>877.0491</ele>
        <time>2021-11-14T16:32:17Z</time>
      </trkpt>
      <trkpt lat="4.671836" lon="-74.980492">
        <ele>876.63196</ele>
        <time>2021-11-14T16:32:18Z</time>
      </trkpt>
      <trkpt lat="4.671796" lon="-74.98037">
        <ele>874.0941</ele>
        <time>2021-11-14T16:32:19Z</time>
      </trkpt>
      <trkpt lat="4.671759" lon="-74.980125">
        <ele>873.0947</ele>
        <time>2021-11-14T16:32:20Z</time>
      </trkpt>
      <trkpt lat="4.671683" lon="-74.979836">
        <ele>872.62573</ele>
        <time>2021-11-14T16:32:21Z</time>
      </trkpt>
      <trkpt lat="4.671682" lon="-74.979836">
        <ele>871.2566</ele>
        <time>2021-11-14T16:32:22Z</time>
      </trkpt>
      <trkpt lat="4.671653" lon="-74.979805">
        <ele>870.79895</ele>
        <time>2021-11-14T16:32:23Z</time>
      </trkpt>
      <trkpt lat="4.671558" lon="-74.979744">
        <ele>869.80664</ele>
        <time>2021-11-14T16:32:24Z</time>
      </trkpt>
      <trkpt lat="4.671437" lon="-74.979675">
        <ele>868.2706</ele>
        <time>2021-11-14T16:32:25Z</time>
      </trkpt>
      <trkpt lat="4.671308" lon="-74.979568">
        <ele>867.9169</ele>
        <time>2021-11-14T16:32:26Z</time>
      </trkpt>
      <trkpt lat="4.671227" lon="-74.979477">
        <ele>867.47</ele>
        <time>2021-11-14T16:32:27Z</time>
      </trkpt>
      <trkpt lat="4.67113" lon="-74.979347">
        <ele>867.0491</ele>
        <time>2021-11-14T16:32:28Z</time>
      </trkpt>
      <trkpt lat="4.671051" lon="-74.97924">
        <ele>866.625</ele>
        <time>2021-11-14T16:32:29Z</time>
      </trkpt>
      <trkpt lat="4.670929" lon="-74.979073">
        <ele>864.09863</ele>
        <time>2021-11-14T16:32:30Z</time>
      </trkpt>
      <trkpt lat="4.670828" lon="-74.978935">
        <ele>862.8917</ele>
        <time>2021-11-14T16:32:31Z</time>
      </trkpt>
      <trkpt lat="4.670798" lon="-74.978889">
        <ele>862.3882</ele>
        <time>2021-11-14T16:32:32Z</time>
      </trkpt>
      <trkpt lat="4.670744" lon="-74.978783">
        <ele>861.01587</ele>
        <time>2021-11-14T16:32:33Z</time>
      </trkpt>
      <trkpt lat="4.67069" lon="-74.978676">
        <ele>860.272</ele>
        <time>2021-11-14T16:32:34Z</time>
      </trkpt>
      <trkpt lat="4.67059" lon="-74.978508">
        <ele>859.0342</ele>
        <time>2021-11-14T16:32:35Z</time>
      </trkpt>
      <trkpt lat="4.670423" lon="-74.978394">
        <ele>855.9398</ele>
        <time>2021-11-14T16:32:37Z</time>
      </trkpt>
      <trkpt lat="4.670245" lon="-74.97831">
        <ele>854.8729</ele>
        <time>2021-11-14T16:32:38Z</time>
      </trkpt>
      <trkpt lat="4.670229" lon="-74.978287">
        <ele>853.82324</ele>
        <time>2021-11-14T16:32:39Z</time>
      </trkpt>
      <trkpt lat="4.670126" lon="-74.97818">
        <ele>853.1062</ele>
        <time>2021-11-14T16:32:40Z</time>
      </trkpt>
      <trkpt lat="4.670018" lon="-74.978065">
        <ele>851.5359</ele>
        <time>2021-11-14T16:32:41Z</time>
      </trkpt>
      <trkpt lat="4.669859" lon="-74.977966">
        <ele>850.4447</ele>
        <time>2021-11-14T16:32:42Z</time>
      </trkpt>
      <trkpt lat="4.669846" lon="-74.977959">
        <ele>847.8478</ele>
        <time>2021-11-14T16:32:43Z</time>
      </trkpt>
      <trkpt lat="4.669774" lon="-74.977936">
        <ele>846.839</ele>
        <time>2021-11-14T16:32:44Z</time>
      </trkpt>
      <trkpt lat="4.669774" lon="-74.977936">
        <ele>846.10864</ele>
        <time>2021-11-14T16:32:45Z</time>
      </trkpt>
      <trkpt lat="4.669681" lon="-74.978004">
        <ele>845.298</ele>
        <time>2021-11-14T16:32:46Z</time>
      </trkpt>
      <trkpt lat="4.66957" lon="-74.978096">
        <ele>843.8529</ele>
        <time>2021-11-14T16:32:47Z</time>
      </trkpt>
      <trkpt lat="4.669431" lon="-74.97821">
        <ele>842.3706</ele>
        <time>2021-11-14T16:32:48Z</time>
      </trkpt>
      <trkpt lat="4.669277" lon="-74.978294">
        <ele>840.4276</ele>
        <time>2021-11-14T16:32:49Z</time>
      </trkpt>
      <trkpt lat="4.669085" lon="-74.978394">
        <ele>838.7788</ele>
        <time>2021-11-14T16:32:50Z</time>
      </trkpt>
      <trkpt lat="4.668935" lon="-74.978462">
        <ele>837.2246</ele>
        <time>2021-11-14T16:32:51Z</time>
      </trkpt>
      <trkpt lat="4.668867" lon="-74.978485">
        <ele>836.3174</ele>
        <time>2021-11-14T16:32:52Z</time>
      </trkpt>
      <trkpt lat="4.668708" lon="-74.978493">
        <ele>835.1128</ele>
        <time>2021-11-14T16:32:53Z</time>
      </trkpt>
      <trkpt lat="4.668523" lon="-74.97847">
        <ele>834.31116</ele>
        <time>2021-11-14T16:32:54Z</time>
      </trkpt>
      <trkpt lat="4.668398" lon="-74.978508">
        <ele>833.1028</ele>
        <time>2021-11-14T16:32:55Z</time>
      </trkpt>
      <trkpt lat="4.668277" lon="-74.978577">
        <ele>832.20264</ele>
        <time>2021-11-14T16:32:56Z</time>
      </trkpt>
      <trkpt lat="4.668111" lon="-74.978699">
        <ele>830.6102</ele>
        <time>2021-11-14T16:32:57Z</time>
      </trkpt>
      <trkpt lat="4.667975" lon="-74.978737">
        <ele>829.1548</ele>
        <time>2021-11-14T16:32:58Z</time>
      </trkpt>
      <trkpt lat="4.667794" lon="-74.978767">
        <ele>828.1122</ele>
        <time>2021-11-14T16:32:59Z</time>
      </trkpt>
      <trkpt lat="4.667521" lon="-74.978813">
        <ele>826.5852</ele>
        <time>2021-11-14T16:33:00Z</time>
      </trkpt>
      <trkpt lat="4.667392" lon="-74.978836">
        <ele>825.66724</ele>
        <time>2021-11-14T16:33:01Z</time>
      </trkpt>
      <trkpt lat="4.667263" lon="-74.978859">
        <ele>824.2534</ele>
        <time>2021-11-14T16:33:02Z</time>
      </trkpt>
      <trkpt lat="4.667187" lon="-74.978882">
        <ele>823.089</ele>
        <time>2021-11-14T16:33:03Z</time>
      </trkpt>
      <trkpt lat="4.667055" lon="-74.978958">
        <ele>821.45215</ele>
        <time>2021-11-14T16:33:04Z</time>
      </trkpt>
      <trkpt lat="4.666981" lon="-74.979073">
        <ele>820.5459</ele>
        <time>2021-11-14T16:33:05Z</time>
      </trkpt>
      <trkpt lat="4.666897" lon="-74.979202">
        <ele>819.2606</ele>
        <time>2021-11-14T16:33:06Z</time>
      </trkpt>
      <trkpt lat="4.666787" lon="-74.979355">
        <ele>818.1655</ele>
        <time>2021-11-14T16:33:07Z</time>
      </trkpt>
      <trkpt lat="4.666787" lon="-74.979355">
        <ele>817.9192</ele>
        <time>2021-11-14T16:33:08Z</time>
      </trkpt>
      <trkpt lat="4.666714" lon="-74.979424">
        <ele>817.62585</ele>
        <time>2021-11-14T16:33:09Z</time>
      </trkpt>
      <trkpt lat="4.666648" lon="-74.979424">
        <ele>817.32104</ele>
        <time>2021-11-14T16:33:10Z</time>
      </trkpt>
      <trkpt lat="4.666541" lon="-74.979408">
        <ele>816.9463</ele>
        <time>2021-11-14T16:33:11Z</time>
      </trkpt>
      <trkpt lat="4.66636" lon="-74.979332">
        <ele>816.08984</ele>
        <time>2021-11-14T16:33:12Z</time>
      </trkpt>
      <trkpt lat="4.666211" lon="-74.979248">
        <ele>815.1887</ele>
        <time>2021-11-14T16:33:13Z</time>
      </trkpt>
      <trkpt lat="4.666139" lon="-74.979202">
        <ele>814.4485</ele>
        <time>2021-11-14T16:33:14Z</time>
      </trkpt>
      <trkpt lat="4.666091" lon="-74.979164">
        <ele>813.15674</ele>
        <time>2021-11-14T16:33:15Z</time>
      </trkpt>
      <trkpt lat="4.666027" lon="-74.97908">
        <ele>812.6858</ele>
        <time>2021-11-14T16:33:16Z</time>
      </trkpt>
      <trkpt lat="4.665993" lon="-74.978966">
        <ele>811.4535</ele>
        <time>2021-11-14T16:33:17Z</time>
      </trkpt>
      <trkpt lat="4.666001" lon="-74.978844">
        <ele>810.6699</ele>
        <time>2021-11-14T16:33:18Z</time>
      </trkpt>
      <trkpt lat="4.666008" lon="-74.978729">
        <ele>810.0708</ele>
        <time>2021-11-14T16:33:19Z</time>
      </trkpt>
      <trkpt lat="4.666014" lon="-74.978638">
        <ele>809.94604</ele>
        <time>2021-11-14T16:33:20Z</time>
      </trkpt>
      <trkpt lat="4.66601" lon="-74.978477">
        <ele>811.4447</ele>
        <time>2021-11-14T16:33:21Z</time>
      </trkpt>
      <trkpt lat="4.665983" lon="-74.978394">
        <ele>810.9541</ele>
        <time>2021-11-14T16:33:22Z</time>
      </trkpt>
      <trkpt lat="4.665921" lon="-74.978302">
        <ele>809.51465</ele>
        <time>2021-11-14T16:33:23Z</time>
      </trkpt>
      <trkpt lat="4.6658" lon="-74.978157">
        <ele>806.96277</ele>
        <time>2021-11-14T16:33:24Z</time>
      </trkpt>
      <trkpt lat="4.665646" lon="-74.977974">
        <ele>805.5829</ele>
        <time>2021-11-14T16:33:25Z</time>
      </trkpt>
      <trkpt lat="4.665538" lon="-74.977791">
        <ele>803.7825</ele>
        <time>2021-11-14T16:33:26Z</time>
      </trkpt>
      <trkpt lat="4.665457" lon="-74.977654">
        <ele>802.01746</ele>
        <time>2021-11-14T16:33:27Z</time>
      </trkpt>
      <trkpt lat="4.665366" lon="-74.977501">
        <ele>801.6046</ele>
        <time>2021-11-14T16:33:28Z</time>
      </trkpt>
      <trkpt lat="4.665223" lon="-74.977219">
        <ele>798.5187</ele>
        <time>2021-11-14T16:33:29Z</time>
      </trkpt>
      <trkpt lat="4.665089" lon="-74.976944">
        <ele>797.7822</ele>
        <time>2021-11-14T16:33:30Z</time>
      </trkpt>
      <trkpt lat="4.664988" lon="-74.976776">
        <ele>796.34937</ele>
        <time>2021-11-14T16:33:31Z</time>
      </trkpt>
      <trkpt lat="4.66486" lon="-74.976601">
        <ele>793.7589</ele>
        <time>2021-11-14T16:33:32Z</time>
      </trkpt>
      <trkpt lat="4.664792" lon="-74.976509">
        <ele>791.3976</ele>
        <time>2021-11-14T16:33:33Z</time>
      </trkpt>
      <trkpt lat="4.66477" lon="-74.976433">
        <ele>789.75</ele>
        <time>2021-11-14T16:33:34Z</time>
      </trkpt>
      <trkpt lat="4.66477" lon="-74.976433">
        <ele>789.2151</ele>
        <time>2021-11-14T16:33:35Z</time>
      </trkpt>
      <trkpt lat="4.664723" lon="-74.976242">
        <ele>787.06885</ele>
        <time>2021-11-14T16:33:36Z</time>
      </trkpt>
      <trkpt lat="4.664701" lon="-74.976112">
        <ele>785.9856</ele>
        <time>2021-11-14T16:33:37Z</time>
      </trkpt>
      <trkpt lat="4.664712" lon="-74.975929">
        <ele>783.8677</ele>
        <time>2021-11-14T16:33:38Z</time>
      </trkpt>
      <trkpt lat="4.664726" lon="-74.975708">
        <ele>782.23364</ele>
        <time>2021-11-14T16:33:39Z</time>
      </trkpt>
      <trkpt lat="4.664761" lon="-74.975548">
        <ele>780.49146</ele>
        <time>2021-11-14T16:33:40Z</time>
      </trkpt>
      <trkpt lat="4.664786" lon="-74.975456">
        <ele>779.77026</ele>
        <time>2021-11-14T16:33:41Z</time>
      </trkpt>
      <trkpt lat="4.664811" lon="-74.975388">
        <ele>779.5552</ele>
        <time>2021-11-14T16:33:42Z</time>
      </trkpt>
      <trkpt lat="4.66488" lon="-74.975327">
        <ele>777.3635</ele>
        <time>2021-11-14T16:33:43Z</time>
      </trkpt>
      <trkpt lat="4.664967" lon="-74.975319">
        <ele>776.20264</ele>
        <time>2021-11-14T16:33:44Z</time>
      </trkpt>
      <trkpt lat="4.665029" lon="-74.975319">
        <ele>775.48083</ele>
        <time>2021-11-14T16:33:45Z</time>
      </trkpt>
      <trkpt lat="4.665146" lon="-74.975349">
        <ele>773.1914</ele>
        <time>2021-11-14T16:33:46Z</time>
      </trkpt>
      <trkpt lat="4.665251" lon="-74.975449">
        <ele>771.9834</ele>
        <time>2021-11-14T16:33:47Z</time>
      </trkpt>
      <trkpt lat="4.665281" lon="-74.975502">
        <ele>772.30884</ele>
        <time>2021-11-14T16:33:48Z</time>
      </trkpt>
      <trkpt lat="4.665282" lon="-74.975662">
        <ele>771.827</ele>
        <time>2021-11-14T16:33:50Z</time>
      </trkpt>
      <trkpt lat="4.665273" lon="-74.975731">
        <ele>769.41394</ele>
        <time>2021-11-14T16:33:51Z</time>
      </trkpt>
      <trkpt lat="4.665256" lon="-74.976089">
        <ele>769.0073</ele>
        <time>2021-11-14T16:33:52Z</time>
      </trkpt>
      <trkpt lat="4.665258" lon="-74.976105">
        <ele>767.1367</ele>
        <time>2021-11-14T16:33:53Z</time>
      </trkpt>
      <trkpt lat="4.665261" lon="-74.97612">
        <ele>765.69434</ele>
        <time>2021-11-14T16:33:54Z</time>
      </trkpt>
      <trkpt lat="4.665275" lon="-74.976189">
        <ele>764.5646</ele>
        <time>2021-11-14T16:33:55Z</time>
      </trkpt>
      <trkpt lat="4.665329" lon="-74.976242">
        <ele>764.5928</ele>
        <time>2021-11-14T16:33:56Z</time>
      </trkpt>
      <trkpt lat="4.665511" lon="-74.976334">
        <ele>763.15405</ele>
        <time>2021-11-14T16:33:57Z</time>
      </trkpt>
      <trkpt lat="4.665555" lon="-74.976372">
        <ele>763.0879</ele>
        <time>2021-11-14T16:33:58Z</time>
      </trkpt>
      <trkpt lat="4.66565" lon="-74.976463">
        <ele>761.3274</ele>
        <time>2021-11-14T16:33:59Z</time>
      </trkpt>
      <trkpt lat="4.66565" lon="-74.976463">
        <ele>760.0925</ele>
        <time>2021-11-14T16:34:00Z</time>
      </trkpt>
      <trkpt lat="4.665717" lon="-74.976616">
        <ele>759.20215</ele>
        <time>2021-11-14T16:34:01Z</time>
      </trkpt>
      <trkpt lat="4.66578" lon="-74.976784">
        <ele>757.37256</ele>
        <time>2021-11-14T16:34:02Z</time>
      </trkpt>
      <trkpt lat="4.66584" lon="-74.976944">
        <ele>756.6515</ele>
        <time>2021-11-14T16:34:03Z</time>
      </trkpt>
      <trkpt lat="4.66589" lon="-74.977036">
        <ele>754.0481</ele>
        <time>2021-11-14T16:34:04Z</time>
      </trkpt>
      <trkpt lat="4.665944" lon="-74.977119">
        <ele>752.26184</ele>
        <time>2021-11-14T16:34:05Z</time>
      </trkpt>
      <trkpt lat="4.666027" lon="-74.977165">
        <ele>750.3313</ele>
        <time>2021-11-14T16:34:06Z</time>
      </trkpt>
      <trkpt lat="4.666098" lon="-74.977203">
        <ele>749.78674</ele>
        <time>2021-11-14T16:34:07Z</time>
      </trkpt>
      <trkpt lat="4.666215" lon="-74.977242">
        <ele>749.3723</ele>
        <time>2021-11-14T16:34:08Z</time>
      </trkpt>
      <trkpt lat="4.666425" lon="-74.977264">
        <ele>749.374</ele>
        <time>2021-11-14T16:34:09Z</time>
      </trkpt>
      <trkpt lat="4.666575" lon="-74.977287">
        <ele>748.67456</ele>
        <time>2021-11-14T16:34:10Z</time>
      </trkpt>
      <trkpt lat="4.666762" lon="-74.97731">
        <ele>747.3699</ele>
        <time>2021-11-14T16:34:11Z</time>
      </trkpt>
      <trkpt lat="4.666937" lon="-74.977325">
        <ele>746.1212</ele>
        <time>2021-11-14T16:34:12Z</time>
      </trkpt>
      <trkpt lat="4.667008" lon="-74.977318">
        <ele>745.49585</ele>
        <time>2021-11-14T16:34:13Z</time>
      </trkpt>
      <trkpt lat="4.667095" lon="-74.977303">
        <ele>744.98145</ele>
        <time>2021-11-14T16:34:14Z</time>
      </trkpt>
      <trkpt lat="4.667208" lon="-74.977188">
        <ele>744.9136</ele>
        <time>2021-11-14T16:34:15Z</time>
      </trkpt>
      <trkpt lat="4.667285" lon="-74.977097">
        <ele>743.3795</ele>
        <time>2021-11-14T16:34:16Z</time>
      </trkpt>
      <trkpt lat="4.667385" lon="-74.976982">
        <ele>742.3928</ele>
        <time>2021-11-14T16:34:17Z</time>
      </trkpt>
      <trkpt lat="4.667514" lon="-74.97683">
        <ele>741.9408</ele>
        <time>2021-11-14T16:34:18Z</time>
      </trkpt>
      <trkpt lat="4.667621" lon="-74.976715">
        <ele>740.56335</ele>
        <time>2021-11-14T16:34:19Z</time>
      </trkpt>
      <trkpt lat="4.667716" lon="-74.976669">
        <ele>741.115</ele>
        <time>2021-11-14T16:34:20Z</time>
      </trkpt>
      <trkpt lat="4.667912" lon="-74.97657">
        <ele>740.2202</ele>
        <time>2021-11-14T16:34:21Z</time>
      </trkpt>
      <trkpt lat="4.668074" lon="-74.976486">
        <ele>739.28076</ele>
        <time>2021-11-14T16:34:22Z</time>
      </trkpt>
      <trkpt lat="4.668165" lon="-74.97644">
        <ele>737.89966</ele>
        <time>2021-11-14T16:34:23Z</time>
      </trkpt>
      <trkpt lat="4.668247" lon="-74.976395">
        <ele>736.5531</ele>
        <time>2021-11-14T16:34:24Z</time>
      </trkpt>
      <trkpt lat="4.668324" lon="-74.976303">
        <ele>734.53735</ele>
        <time>2021-11-14T16:34:25Z</time>
      </trkpt>
      <trkpt lat="4.66839" lon="-74.976196">
        <ele>733.7654</ele>
        <time>2021-11-14T16:34:26Z</time>
      </trkpt>
      <trkpt lat="4.668472" lon="-74.976044">
        <ele>732.1228</ele>
        <time>2021-11-14T16:34:27Z</time>
      </trkpt>
      <trkpt lat="4.668556" lon="-74.975845">
        <ele>731.66284</ele>
        <time>2021-11-14T16:34:28Z</time>
      </trkpt>
      <trkpt lat="4.668556" lon="-74.975845">
        <ele>730.86475</ele>
        <time>2021-11-14T16:34:29Z</time>
      </trkpt>
      <trkpt lat="4.668618" lon="-74.975708">
        <ele>729.8004</ele>
        <time>2021-11-14T16:34:30Z</time>
      </trkpt>
      <trkpt lat="4.668673" lon="-74.975639">
        <ele>729.1852</ele>
        <time>2021-11-14T16:34:31Z</time>
      </trkpt>
      <trkpt lat="4.668726" lon="-74.975586">
        <ele>727.6421</ele>
        <time>2021-11-14T16:34:32Z</time>
      </trkpt>
      <trkpt lat="4.668797" lon="-74.975563">
        <ele>727.21313</ele>
        <time>2021-11-14T16:34:33Z</time>
      </trkpt>
      <trkpt lat="4.668873" lon="-74.975555">
        <ele>726.317</ele>
        <time>2021-11-14T16:34:34Z</time>
      </trkpt>
      <trkpt lat="4.668998" lon="-74.975555">
        <ele>725.09644</ele>
        <time>2021-11-14T16:34:35Z</time>
      </trkpt>
      <trkpt lat="4.669211" lon="-74.975571">
        <ele>723.3015</ele>
        <time>2021-11-14T16:34:36Z</time>
      </trkpt>
      <trkpt lat="4.669386" lon="-74.975586">
        <ele>722.14136</ele>
        <time>2021-11-14T16:34:37Z</time>
      </trkpt>
      <trkpt lat="4.669526" lon="-74.975594">
        <ele>721.3596</ele>
        <time>2021-11-14T16:34:38Z</time>
      </trkpt>
      <trkpt lat="4.669652" lon="-74.975624">
        <ele>720.3722</ele>
        <time>2021-11-14T16:34:39Z</time>
      </trkpt>
      <trkpt lat="4.669784" lon="-74.975693">
        <ele>719.54004</ele>
        <time>2021-11-14T16:34:40Z</time>
      </trkpt>
      <trkpt lat="4.669957" lon="-74.975769">
        <ele>718.1747</ele>
        <time>2021-11-14T16:34:41Z</time>
      </trkpt>
      <trkpt lat="4.670096" lon="-74.975822">
        <ele>717.6382</ele>
        <time>2021-11-14T16:34:42Z</time>
      </trkpt>
      <trkpt lat="4.670183" lon="-74.97583">
        <ele>716.49146</ele>
        <time>2021-11-14T16:34:43Z</time>
      </trkpt>
      <trkpt lat="4.67029" lon="-74.97583">
        <ele>715.3888</ele>
        <time>2021-11-14T16:34:44Z</time>
      </trkpt>
      <trkpt lat="4.670436" lon="-74.975822">
        <ele>714.1575</ele>
        <time>2021-11-14T16:34:45Z</time>
      </trkpt>
      <trkpt lat="4.67064" lon="-74.975807">
        <ele>713.1704</ele>
        <time>2021-11-14T16:34:46Z</time>
      </trkpt>
      <trkpt lat="4.670799" lon="-74.975784">
        <ele>712.25415</ele>
        <time>2021-11-14T16:34:47Z</time>
      </trkpt>
      <trkpt lat="4.670876" lon="-74.975723">
        <ele>710.69666</ele>
        <time>2021-11-14T16:34:48Z</time>
      </trkpt>
      <trkpt lat="4.670934" lon="-74.975677">
        <ele>710.19775</ele>
        <time>2021-11-14T16:34:49Z</time>
      </trkpt>
      <trkpt lat="4.671007" lon="-74.975624">
        <ele>711.02747</ele>
        <time>2021-11-14T16:34:50Z</time>
      </trkpt>
      <trkpt lat="4.671073" lon="-74.975571">
        <ele>708.88257</ele>
        <time>2021-11-14T16:34:51Z</time>
      </trkpt>
      <trkpt lat="4.671127" lon="-74.975471">
        <ele>708.75464</ele>
        <time>2021-11-14T16:34:52Z</time>
      </trkpt>
      <trkpt lat="4.671196" lon="-74.975311">
        <ele>707.79614</ele>
        <time>2021-11-14T16:34:53Z</time>
      </trkpt>
      <trkpt lat="4.671196" lon="-74.975311">
        <ele>707.6194</ele>
        <time>2021-11-14T16:34:54Z</time>
      </trkpt>
      <trkpt lat="4.671163" lon="-74.975136">
        <ele>706.5471</ele>
        <time>2021-11-14T16:34:55Z</time>
      </trkpt>
      <trkpt lat="4.671146" lon="-74.975037">
        <ele>706.09546</ele>
        <time>2021-11-14T16:34:56Z</time>
      </trkpt>
      <trkpt lat="4.671114" lon="-74.974869">
        <ele>705.12085</ele>
        <time>2021-11-14T16:34:57Z</time>
      </trkpt>
      <trkpt lat="4.671072" lon="-74.974648">
        <ele>704.21497</ele>
        <time>2021-11-14T16:34:58Z</time>
      </trkpt>
      <trkpt lat="4.671066" lon="-74.97448">
        <ele>704.0781</ele>
        <time>2021-11-14T16:34:59Z</time>
      </trkpt>
      <trkpt lat="4.671089" lon="-74.974365">
        <ele>702.0525</ele>
        <time>2021-11-14T16:35:00Z</time>
      </trkpt>
      <trkpt lat="4.671116" lon="-74.974304">
        <ele>701.5836</ele>
        <time>2021-11-14T16:35:01Z</time>
      </trkpt>
      <trkpt lat="4.67121" lon="-74.974236">
        <ele>696.40967</ele>
        <time>2021-11-14T16:35:02Z</time>
      </trkpt>
      <trkpt lat="4.671283" lon="-74.97419">
        <ele>696.15186</ele>
        <time>2021-11-14T16:35:03Z</time>
      </trkpt>
      <trkpt lat="4.671415" lon="-74.974213">
        <ele>696.4822</ele>
        <time>2021-11-14T16:35:04Z</time>
      </trkpt>
      <trkpt lat="4.671451" lon="-74.974213">
        <ele>694.0687</ele>
        <time>2021-11-14T16:35:05Z</time>
      </trkpt>
      <trkpt lat="4.671577" lon="-74.974266">
        <ele>693.2529</ele>
        <time>2021-11-14T16:35:06Z</time>
      </trkpt>
      <trkpt lat="4.671717" lon="-74.974335">
        <ele>692.6658</ele>
        <time>2021-11-14T16:35:07Z</time>
      </trkpt>
      <trkpt lat="4.671843" lon="-74.974396">
        <ele>691.87976</ele>
        <time>2021-11-14T16:35:08Z</time>
      </trkpt>
      <trkpt lat="4.671996" lon="-74.974472">
        <ele>690.9674</ele>
        <time>2021-11-14T16:35:09Z</time>
      </trkpt>
      <trkpt lat="4.672042" lon="-74.974487">
        <ele>690.23596</ele>
        <time>2021-11-14T16:35:10Z</time>
      </trkpt>
      <trkpt lat="4.672084" lon="-74.974495">
        <ele>689.9818</ele>
        <time>2021-11-14T16:35:11Z</time>
      </trkpt>
      <trkpt lat="4.672176" lon="-74.97448">
        <ele>690.15283</ele>
        <time>2021-11-14T16:35:12Z</time>
      </trkpt>
      <trkpt lat="4.672244" lon="-74.974403">
        <ele>689.9619</ele>
        <time>2021-11-14T16:35:13Z</time>
      </trkpt>
      <trkpt lat="4.672275" lon="-74.97435">
        <ele>688.9647</ele>
        <time>2021-11-14T16:35:14Z</time>
      </trkpt>
      <trkpt lat="4.672313" lon="-74.974289">
        <ele>688.156</ele>
        <time>2021-11-14T16:35:16Z</time>
      </trkpt>
      <trkpt lat="4.67243" lon="-74.974106">
        <ele>687.166</ele>
        <time>2021-11-14T16:35:17Z</time>
      </trkpt>
      <trkpt lat="4.672579" lon="-74.973991">
        <ele>687.66394</ele>
        <time>2021-11-14T16:35:18Z</time>
      </trkpt>
      <trkpt lat="4.672702" lon="-74.973946">
        <ele>687.29297</ele>
        <time>2021-11-14T16:35:19Z</time>
      </trkpt>
      <trkpt lat="4.672806" lon="-74.973946">
        <ele>687.2378</ele>
        <time>2021-11-14T16:35:20Z</time>
      </trkpt>
      <trkpt lat="4.672925" lon="-74.973953">
        <ele>687.4962</ele>
        <time>2021-11-14T16:35:21Z</time>
      </trkpt>
      <trkpt lat="4.672925" lon="-74.973953">
        <ele>685.5132</ele>
        <time>2021-11-14T16:35:22Z</time>
      </trkpt>
      <trkpt lat="4.673075" lon="-74.973923">
        <ele>683.6223</ele>
        <time>2021-11-14T16:35:23Z</time>
      </trkpt>
      <trkpt lat="4.67313" lon="-74.973839">
        <ele>683.33276</ele>
        <time>2021-11-14T16:35:24Z</time>
      </trkpt>
      <trkpt lat="4.673157" lon="-74.973785">
        <ele>682.8198</ele>
        <time>2021-11-14T16:35:25Z</time>
      </trkpt>
      <trkpt lat="4.673162" lon="-74.973778">
        <ele>681.9492</ele>
        <time>2021-11-14T16:35:26Z</time>
      </trkpt>
      <trkpt lat="4.673183" lon="-74.973679">
        <ele>679.636</ele>
        <time>2021-11-14T16:35:27Z</time>
      </trkpt>
      <trkpt lat="4.673176" lon="-74.973557">
        <ele>679.01074</ele>
        <time>2021-11-14T16:35:28Z</time>
      </trkpt>
      <trkpt lat="4.673116" lon="-74.973297">
        <ele>679.67114</ele>
        <time>2021-11-14T16:35:29Z</time>
      </trkpt>
      <trkpt lat="4.673028" lon="-74.972885">
        <ele>677.103</ele>
        <time>2021-11-14T16:35:30Z</time>
      </trkpt>
      <trkpt lat="4.673033" lon="-74.972839">
        <ele>675.81885</ele>
        <time>2021-11-14T16:35:31Z</time>
      </trkpt>
      <trkpt lat="4.67304" lon="-74.972771">
        <ele>673.12305</ele>
        <time>2021-11-14T16:35:32Z</time>
      </trkpt>
      <trkpt lat="4.673058" lon="-74.972603">
        <ele>671.2207</ele>
        <time>2021-11-14T16:35:33Z</time>
      </trkpt>
      <trkpt lat="4.673099" lon="-74.972404">
        <ele>668.7173</ele>
        <time>2021-11-14T16:35:34Z</time>
      </trkpt>
      <trkpt lat="4.673115" lon="-74.972321">
        <ele>666.8247</ele>
        <time>2021-11-14T16:35:35Z</time>
      </trkpt>
      <trkpt lat="4.673098" lon="-74.972267">
        <ele>665.3357</ele>
        <time>2021-11-14T16:35:36Z</time>
      </trkpt>
      <trkpt lat="4.673068" lon="-74.972191">
        <ele>664.5867</ele>
        <time>2021-11-14T16:35:37Z</time>
      </trkpt>
      <trkpt lat="4.672999" lon="-74.972092">
        <ele>663.4905</ele>
        <time>2021-11-14T16:35:38Z</time>
      </trkpt>
      <trkpt lat="4.672906" lon="-74.972">
        <ele>662.58545</ele>
        <time>2021-11-14T16:35:39Z</time>
      </trkpt>
      <trkpt lat="4.672765" lon="-74.971855">
        <ele>662.10046</ele>
        <time>2021-11-14T16:35:40Z</time>
      </trkpt>
      <trkpt lat="4.672646" lon="-74.971725">
        <ele>661.1028</ele>
        <time>2021-11-14T16:35:41Z</time>
      </trkpt>
      <trkpt lat="4.672613" lon="-74.97168">
        <ele>661.00525</ele>
        <time>2021-11-14T16:35:42Z</time>
      </trkpt>
      <trkpt lat="4.6726" lon="-74.971603">
        <ele>659.574</ele>
        <time>2021-11-14T16:35:43Z</time>
      </trkpt>
      <trkpt lat="4.672611" lon="-74.971504">
        <ele>660.2427</ele>
        <time>2021-11-14T16:35:44Z</time>
      </trkpt>
      <trkpt lat="4.672682" lon="-74.97139">
        <ele>659.7811</ele>
        <time>2021-11-14T16:35:45Z</time>
      </trkpt>
      <trkpt lat="4.672682" lon="-74.97139">
        <ele>659.933</ele>
        <time>2021-11-14T16:35:46Z</time>
      </trkpt>
      <trkpt lat="4.672722" lon="-74.971329">
        <ele>657.12463</ele>
        <time>2021-11-14T16:35:47Z</time>
      </trkpt>
      <trkpt lat="4.672906" lon="-74.971077">
        <ele>655.2656</ele>
        <time>2021-11-14T16:35:48Z</time>
      </trkpt>
      <trkpt lat="4.673042" lon="-74.970886">
        <ele>653.74854</ele>
        <time>2021-11-14T16:35:49Z</time>
      </trkpt>
      <trkpt lat="4.673118" lon="-74.970787">
        <ele>653.15564</ele>
        <time>2021-11-14T16:35:50Z</time>
      </trkpt>
      <trkpt lat="4.673205" lon="-74.970665">
        <ele>652.51636</ele>
        <time>2021-11-14T16:35:51Z</time>
      </trkpt>
      <trkpt lat="4.673295" lon="-74.970543">
        <ele>651.9575</ele>
        <time>2021-11-14T16:35:52Z</time>
      </trkpt>
      <trkpt lat="4.673396" lon="-74.970406">
        <ele>650.79663</ele>
        <time>2021-11-14T16:35:53Z</time>
      </trkpt>
      <trkpt lat="4.673502" lon="-74.970261">
        <ele>648.5845</ele>
        <time>2021-11-14T16:35:54Z</time>
      </trkpt>
      <trkpt lat="4.6736" lon="-74.970131">
        <ele>648.32275</ele>
        <time>2021-11-14T16:35:55Z</time>
      </trkpt>
      <trkpt lat="4.673705" lon="-74.969978">
        <ele>647.56213</ele>
        <time>2021-11-14T16:35:56Z</time>
      </trkpt>
      <trkpt lat="4.673802" lon="-74.969826">
        <ele>644.6633</ele>
        <time>2021-11-14T16:35:57Z</time>
      </trkpt>
      <trkpt lat="4.673866" lon="-74.969704">
        <ele>643.43774</ele>
        <time>2021-11-14T16:35:58Z</time>
      </trkpt>
      <trkpt lat="4.673938" lon="-74.969543">
        <ele>641.478</ele>
        <time>2021-11-14T16:35:59Z</time>
      </trkpt>
      <trkpt lat="4.674035" lon="-74.969444">
        <ele>640.11865</ele>
        <time>2021-11-14T16:36:00Z</time>
      </trkpt>
      <trkpt lat="4.674135" lon="-74.969368">
        <ele>639.47046</ele>
        <time>2021-11-14T16:36:01Z</time>
      </trkpt>
      <trkpt lat="4.674263" lon="-74.969254">
        <ele>639.4094</ele>
        <time>2021-11-14T16:36:02Z</time>
      </trkpt>
      <trkpt lat="4.67433" lon="-74.969177">
        <ele>638.27954</ele>
        <time>2021-11-14T16:36:03Z</time>
      </trkpt>
      <trkpt lat="4.674392" lon="-74.969101">
        <ele>637.5354</ele>
        <time>2021-11-14T16:36:04Z</time>
      </trkpt>
      <trkpt lat="4.674419" lon="-74.969017">
        <ele>636.1647</ele>
        <time>2021-11-14T16:36:05Z</time>
      </trkpt>
      <trkpt lat="4.674438" lon="-74.968925">
        <ele>634.98145</ele>
        <time>2021-11-14T16:36:06Z</time>
      </trkpt>
      <trkpt lat="4.674442" lon="-74.968849">
        <ele>633.6023</ele>
        <time>2021-11-14T16:36:07Z</time>
      </trkpt>
      <trkpt lat="4.674399" lon="-74.968719">
        <ele>632.8645</ele>
        <time>2021-11-14T16:36:08Z</time>
      </trkpt>
      <trkpt lat="4.67433" lon="-74.968613">
        <ele>631.9297</ele>
        <time>2021-11-14T16:36:09Z</time>
      </trkpt>
      <trkpt lat="4.674245" lon="-74.968506">
        <ele>630.74255</ele>
        <time>2021-11-14T16:36:10Z</time>
      </trkpt>
      <trkpt lat="4.674157" lon="-74.968437">
        <ele>629.62744</ele>
        <time>2021-11-14T16:36:11Z</time>
      </trkpt>
      <trkpt lat="4.67403" lon="-74.968338">
        <ele>628.7334</ele>
        <time>2021-11-14T16:36:12Z</time>
      </trkpt>
      <trkpt lat="4.673883" lon="-74.968231">
        <ele>628.1858</ele>
        <time>2021-11-14T16:36:13Z</time>
      </trkpt>
      <trkpt lat="4.673793" lon="-74.968163">
        <ele>628.16724</ele>
        <time>2021-11-14T16:36:14Z</time>
      </trkpt>
      <trkpt lat="4.673751" lon="-74.968109">
        <ele>626.9429</ele>
        <time>2021-11-14T16:36:15Z</time>
      </trkpt>
      <trkpt lat="4.673701" lon="-74.968033">
        <ele>626.11426</ele>
        <time>2021-11-14T16:36:16Z</time>
      </trkpt>
      <trkpt lat="4.673678" lon="-74.967934">
        <ele>625.59143</ele>
        <time>2021-11-14T16:36:17Z</time>
      </trkpt>
      <trkpt lat="4.673691" lon="-74.967804">
        <ele>624.49133</ele>
        <time>2021-11-14T16:36:18Z</time>
      </trkpt>
      <trkpt lat="4.673691" lon="-74.967804">
        <ele>624.0526</ele>
        <time>2021-11-14T16:36:19Z</time>
      </trkpt>
      <trkpt lat="4.673736" lon="-74.967743">
        <ele>623.40186</ele>
        <time>2021-11-14T16:36:20Z</time>
      </trkpt>
      <trkpt lat="4.673813" lon="-74.967651">
        <ele>622.7793</ele>
        <time>2021-11-14T16:36:21Z</time>
      </trkpt>
      <trkpt lat="4.673926" lon="-74.967491">
        <ele>623.6483</ele>
        <time>2021-11-14T16:36:23Z</time>
      </trkpt>
      <trkpt lat="4.673986" lon="-74.967377">
        <ele>623.00464</ele>
        <time>2021-11-14T16:36:24Z</time>
      </trkpt>
      <trkpt lat="4.67399" lon="-74.967285">
        <ele>622.62134</ele>
        <time>2021-11-14T16:36:25Z</time>
      </trkpt>
      <trkpt lat="4.673994" lon="-74.967209">
        <ele>622.02856</ele>
        <time>2021-11-14T16:36:26Z</time>
      </trkpt>
      <trkpt lat="4.673995" lon="-74.967186">
        <ele>622.87964</ele>
        <time>2021-11-14T16:36:27Z</time>
      </trkpt>
      <trkpt lat="4.673972" lon="-74.966972">
        <ele>620.219</ele>
        <time>2021-11-14T16:36:28Z</time>
      </trkpt>
      <trkpt lat="4.67395" lon="-74.966843">
        <ele>620.3208</ele>
        <time>2021-11-14T16:36:29Z</time>
      </trkpt>
      <trkpt lat="4.673948" lon="-74.966705">
        <ele>619.838</ele>
        <time>2021-11-14T16:36:30Z</time>
      </trkpt>
      <trkpt lat="4.673956" lon="-74.96666">
        <ele>619.20215</ele>
        <time>2021-11-14T16:36:31Z</time>
      </trkpt>
      <trkpt lat="4.673988" lon="-74.966568">
        <ele>618.62134</ele>
        <time>2021-11-14T16:36:32Z</time>
      </trkpt>
      <trkpt lat="4.674174" lon="-74.966324">
        <ele>618.6958</ele>
        <time>2021-11-14T16:36:33Z</time>
      </trkpt>
      <trkpt lat="4.674205" lon="-74.966286">
        <ele>618.4341</ele>
        <time>2021-11-14T16:36:34Z</time>
      </trkpt>
      <trkpt lat="4.674253" lon="-74.966148">
        <ele>617.8552</ele>
        <time>2021-11-14T16:36:35Z</time>
      </trkpt>
      <trkpt lat="4.674303" lon="-74.965988">
        <ele>616.5487</ele>
        <time>2021-11-14T16:36:36Z</time>
      </trkpt>
      <trkpt lat="4.67435" lon="-74.96579">
        <ele>616.48376</ele>
        <time>2021-11-14T16:36:37Z</time>
      </trkpt>
      <trkpt lat="4.674407" lon="-74.965591">
        <ele>616.47424</ele>
        <time>2021-11-14T16:36:38Z</time>
      </trkpt>
      <trkpt lat="4.67453" lon="-74.96537">
        <ele>614.64136</ele>
        <time>2021-11-14T16:36:39Z</time>
      </trkpt>
      <trkpt lat="4.67463" lon="-74.965187">
        <ele>613.2283</ele>
        <time>2021-11-14T16:36:40Z</time>
      </trkpt>
      <trkpt lat="4.674683" lon="-74.965088">
        <ele>612.2296</ele>
        <time>2021-11-14T16:36:41Z</time>
      </trkpt>
      <trkpt lat="4.674757" lon="-74.964958">
        <ele>611.9109</ele>
        <time>2021-11-14T16:36:42Z</time>
      </trkpt>
      <trkpt lat="4.674775" lon="-74.964836">
        <ele>612.1931</ele>
        <time>2021-11-14T16:36:43Z</time>
      </trkpt>
      <trkpt lat="4.674788" lon="-74.964722">
        <ele>611.8142</ele>
        <time>2021-11-14T16:36:44Z</time>
      </trkpt>
      <trkpt lat="4.674796" lon="-74.964561">
        <ele>611.49695</ele>
        <time>2021-11-14T16:36:45Z</time>
      </trkpt>
      <trkpt lat="4.674787" lon="-74.964439">
        <ele>610.3369</ele>
        <time>2021-11-14T16:36:46Z</time>
      </trkpt>
      <trkpt lat="4.674787" lon="-74.964439">
        <ele>609.8379</ele>
        <time>2021-11-14T16:36:47Z</time>
      </trkpt>
      <trkpt lat="4.674775" lon="-74.964371">
        <ele>609.1228</ele>
        <time>2021-11-14T16:36:48Z</time>
      </trkpt>
      <trkpt lat="4.674735" lon="-74.964256">
        <ele>608.229</ele>
        <time>2021-11-14T16:36:49Z</time>
      </trkpt>
      <trkpt lat="4.674662" lon="-74.964088">
        <ele>608.8031</ele>
        <time>2021-11-14T16:36:50Z</time>
      </trkpt>
      <trkpt lat="4.674588" lon="-74.963943">
        <ele>608.5652</ele>
        <time>2021-11-14T16:36:51Z</time>
      </trkpt>
      <trkpt lat="4.67452" lon="-74.963821">
        <ele>607.797</ele>
        <time>2021-11-14T16:36:52Z</time>
      </trkpt>
      <trkpt lat="4.674433" lon="-74.963654">
        <ele>607.6432</ele>
        <time>2021-11-14T16:36:53Z</time>
      </trkpt>
      <trkpt lat="4.67434" lon="-74.963478">
        <ele>607.99414</ele>
        <time>2021-11-14T16:36:54Z</time>
      </trkpt>
      <trkpt lat="4.674253" lon="-74.96331">
        <ele>606.75073</ele>
        <time>2021-11-14T16:36:55Z</time>
      </trkpt>
      <trkpt lat="4.674155" lon="-74.963127">
        <ele>606.08594</ele>
        <time>2021-11-14T16:36:56Z</time>
      </trkpt>
      <trkpt lat="4.674059" lon="-74.962944">
        <ele>605.5891</ele>
        <time>2021-11-14T16:36:57Z</time>
      </trkpt>
      <trkpt lat="4.673999" lon="-74.96283">
        <ele>605.772</ele>
        <time>2021-11-14T16:36:58Z</time>
      </trkpt>
      <trkpt lat="4.673926" lon="-74.962692">
        <ele>606.1909</ele>
        <time>2021-11-14T16:36:59Z</time>
      </trkpt>
      <trkpt lat="4.673855" lon="-74.962555">
        <ele>605.4949</ele>
        <time>2021-11-14T16:37:00Z</time>
      </trkpt>
      <trkpt lat="4.673765" lon="-74.962387">
        <ele>605.46313</ele>
        <time>2021-11-14T16:37:01Z</time>
      </trkpt>
      <trkpt lat="4.673705" lon="-74.962273">
        <ele>605.3528</ele>
        <time>2021-11-14T16:37:02Z</time>
      </trkpt>
      <trkpt lat="4.673633" lon="-74.962135">
        <ele>605.6533</ele>
        <time>2021-11-14T16:37:03Z</time>
      </trkpt>
      <trkpt lat="4.673539" lon="-74.961952">
        <ele>606.32104</ele>
        <time>2021-11-14T16:37:04Z</time>
      </trkpt>
      <trkpt lat="4.673415" lon="-74.961807">
        <ele>606.92993</ele>
        <time>2021-11-14T16:37:05Z</time>
      </trkpt>
      <trkpt lat="4.673332" lon="-74.961716">
        <ele>606.9292</ele>
        <time>2021-11-14T16:37:06Z</time>
      </trkpt>
      <trkpt lat="4.673216" lon="-74.961594">
        <ele>606.7346</ele>
        <time>2021-11-14T16:37:07Z</time>
      </trkpt>
      <trkpt lat="4.673089" lon="-74.961479">
        <ele>606.4756</ele>
        <time>2021-11-14T16:37:08Z</time>
      </trkpt>
      <trkpt lat="4.672929" lon="-74.961327">
        <ele>606.1383</ele>
        <time>2021-11-14T16:37:09Z</time>
      </trkpt>
      <trkpt lat="4.672782" lon="-74.961189">
        <ele>605.218</ele>
        <time>2021-11-14T16:37:10Z</time>
      </trkpt>
      <trkpt lat="4.672639" lon="-74.961052">
        <ele>605.5488</ele>
        <time>2021-11-14T16:37:11Z</time>
      </trkpt>
      <trkpt lat="4.672639" lon="-74.961052">
        <ele>605.18506</ele>
        <time>2021-11-14T16:37:12Z</time>
      </trkpt>
      <trkpt lat="4.672525" lon="-74.960945">
        <ele>604.96985</ele>
        <time>2021-11-14T16:37:13Z</time>
      </trkpt>
      <trkpt lat="4.672429" lon="-74.960854">
        <ele>604.6852</ele>
        <time>2021-11-14T16:37:15Z</time>
      </trkpt>
      <trkpt lat="4.67234" lon="-74.960732">
        <ele>604.2256</ele>
        <time>2021-11-14T16:37:16Z</time>
      </trkpt>
      <trkpt lat="4.672259" lon="-74.960609">
        <ele>602.7119</ele>
        <time>2021-11-14T16:37:17Z</time>
      </trkpt>
      <trkpt lat="4.672235" lon="-74.960503">
        <ele>602.88086</ele>
        <time>2021-11-14T16:37:18Z</time>
      </trkpt>
      <trkpt lat="4.672235" lon="-74.960365">
        <ele>601.39087</ele>
        <time>2021-11-14T16:37:19Z</time>
      </trkpt>
      <trkpt lat="4.672251" lon="-74.960243">
        <ele>600.48694</ele>
        <time>2021-11-14T16:37:20Z</time>
      </trkpt>
      <trkpt lat="4.672288" lon="-74.960098">
        <ele>599.7893</ele>
        <time>2021-11-14T16:37:21Z</time>
      </trkpt>
      <trkpt lat="4.672353" lon="-74.959908">
        <ele>599.2551</ele>
        <time>2021-11-14T16:37:22Z</time>
      </trkpt>
      <trkpt lat="4.672402" lon="-74.959763">
        <ele>598.95557</ele>
        <time>2021-11-14T16:37:23Z</time>
      </trkpt>
      <trkpt lat="4.672459" lon="-74.959549">
        <ele>598.95557</ele>
        <time>2021-11-14T16:37:24Z</time>
      </trkpt>
      <trkpt lat="4.672471" lon="-74.959419">
        <ele>597.52515</ele>
        <time>2021-11-14T16:37:25Z</time>
      </trkpt>
      <trkpt lat="4.672489" lon="-74.959244">
        <ele>596.5276</ele>
        <time>2021-11-14T16:37:26Z</time>
      </trkpt>
      <trkpt lat="4.672497" lon="-74.959152">
        <ele>596.1144</ele>
        <time>2021-11-14T16:37:27Z</time>
      </trkpt>
      <trkpt lat="4.672514" lon="-74.958977">
        <ele>595.3955</ele>
        <time>2021-11-14T16:37:28Z</time>
      </trkpt>
      <trkpt lat="4.672492" lon="-74.958855">
        <ele>594.42664</ele>
        <time>2021-11-14T16:37:29Z</time>
      </trkpt>
      <trkpt lat="4.67239" lon="-74.958649">
        <ele>593.1279</ele>
        <time>2021-11-14T16:37:30Z</time>
      </trkpt>
      <trkpt lat="4.672291" lon="-74.958542">
        <ele>593.1279</ele>
        <time>2021-11-14T16:37:31Z</time>
      </trkpt>
      <trkpt lat="4.6722" lon="-74.958443">
        <ele>590.7825</ele>
        <time>2021-11-14T16:37:32Z</time>
      </trkpt>
      <trkpt lat="4.672063" lon="-74.958298">
        <ele>590.3113</ele>
        <time>2021-11-14T16:37:33Z</time>
      </trkpt>
      <trkpt lat="4.671925" lon="-74.958153">
        <ele>589.0232</ele>
        <time>2021-11-14T16:37:34Z</time>
      </trkpt>
      <trkpt lat="4.671863" lon="-74.958084">
        <ele>588.4968</ele>
        <time>2021-11-14T16:37:35Z</time>
      </trkpt>
      <trkpt lat="4.671829" lon="-74.957985">
        <ele>588.1987</ele>
        <time>2021-11-14T16:37:36Z</time>
      </trkpt>
      <trkpt lat="4.671802" lon="-74.957817">
        <ele>587.12573</ele>
        <time>2021-11-14T16:37:37Z</time>
      </trkpt>
      <trkpt lat="4.671815" lon="-74.957626">
        <ele>585.9392</ele>
        <time>2021-11-14T16:37:38Z</time>
      </trkpt>
      <trkpt lat="4.671815" lon="-74.957626">
        <ele>584.0012</ele>
        <time>2021-11-14T16:37:39Z</time>
      </trkpt>
      <trkpt lat="4.671847" lon="-74.957466">
        <ele>583.2986</ele>
        <time>2021-11-14T16:37:40Z</time>
      </trkpt>
      <trkpt lat="4.671883" lon="-74.957291">
        <ele>581.6061</ele>
        <time>2021-11-14T16:37:41Z</time>
      </trkpt>
      <trkpt lat="4.671897" lon="-74.957146">
        <ele>579.6963</ele>
        <time>2021-11-14T16:37:42Z</time>
      </trkpt>
      <trkpt lat="4.671895" lon="-74.957016">
        <ele>578.15906</ele>
        <time>2021-11-14T16:37:43Z</time>
      </trkpt>
      <trkpt lat="4.671899" lon="-74.956879">
        <ele>577.6262</ele>
        <time>2021-11-14T16:37:44Z</time>
      </trkpt>
      <trkpt lat="4.671901" lon="-74.956764">
        <ele>575.7173</ele>
        <time>2021-11-14T16:37:45Z</time>
      </trkpt>
      <trkpt lat="4.671919" lon="-74.956635">
        <ele>574.2529</ele>
        <time>2021-11-14T16:37:46Z</time>
      </trkpt>
      <trkpt lat="4.672002" lon="-74.956413">
        <ele>573.0464</ele>
        <time>2021-11-14T16:37:47Z</time>
      </trkpt>
      <trkpt lat="4.672067" lon="-74.956238">
        <ele>571.598</ele>
        <time>2021-11-14T16:37:48Z</time>
      </trkpt>
      <trkpt lat="4.672112" lon="-74.956116">
        <ele>570.4297</ele>
        <time>2021-11-14T16:37:49Z</time>
      </trkpt>
      <trkpt lat="4.672189" lon="-74.955994">
        <ele>569.7754</ele>
        <time>2021-11-14T16:37:50Z</time>
      </trkpt>
      <trkpt lat="4.672297" lon="-74.955864">
        <ele>568.75415</ele>
        <time>2021-11-14T16:37:51Z</time>
      </trkpt>
      <trkpt lat="4.672379" lon="-74.955765">
        <ele>567.8644</ele>
        <time>2021-11-14T16:37:52Z</time>
      </trkpt>
      <trkpt lat="4.672452" lon="-74.955666">
        <ele>567.3956</ele>
        <time>2021-11-14T16:37:53Z</time>
      </trkpt>
      <trkpt lat="4.672506" lon="-74.955566">
        <ele>566.24084</ele>
        <time>2021-11-14T16:37:54Z</time>
      </trkpt>
      <trkpt lat="4.672499" lon="-74.955452">
        <ele>565.56213</ele>
        <time>2021-11-14T16:37:55Z</time>
      </trkpt>
      <trkpt lat="4.672443" lon="-74.955322">
        <ele>564.5503</ele>
        <time>2021-11-14T16:37:56Z</time>
      </trkpt>
      <trkpt lat="4.672349" lon="-74.955254">
        <ele>563.86426</ele>
        <time>2021-11-14T16:37:58Z</time>
      </trkpt>
      <trkpt lat="4.672246" lon="-74.955223">
        <ele>562.97534</ele>
        <time>2021-11-14T16:37:59Z</time>
      </trkpt>
      <trkpt lat="4.672103" lon="-74.955208">
        <ele>561.8696</ele>
        <time>2021-11-14T16:38:00Z</time>
      </trkpt>
      <trkpt lat="4.671924" lon="-74.955185">
        <ele>561.43896</ele>
        <time>2021-11-14T16:38:01Z</time>
      </trkpt>
      <trkpt lat="4.671722" lon="-74.955162">
        <ele>560.3541</ele>
        <time>2021-11-14T16:38:02Z</time>
      </trkpt>
      <trkpt lat="4.671554" lon="-74.955139">
        <ele>559.30286</ele>
        <time>2021-11-14T16:38:03Z</time>
      </trkpt>
      <trkpt lat="4.671426" lon="-74.955124">
        <ele>558.469</ele>
        <time>2021-11-14T16:38:04Z</time>
      </trkpt>
      <trkpt lat="4.671298" lon="-74.955086">
        <ele>557.5139</ele>
        <time>2021-11-14T16:38:05Z</time>
      </trkpt>
      <trkpt lat="4.671184" lon="-74.95504">
        <ele>556.51794</ele>
        <time>2021-11-14T16:38:06Z</time>
      </trkpt>
      <trkpt lat="4.671184" lon="-74.95504">
        <ele>555.6299</ele>
        <time>2021-11-14T16:38:07Z</time>
      </trkpt>
      <trkpt lat="4.671059" lon="-74.954994">
        <ele>555.0244</ele>
        <time>2021-11-14T16:38:08Z</time>
      </trkpt>
      <trkpt lat="4.670937" lon="-74.95488">
        <ele>554.7107</ele>
        <time>2021-11-14T16:38:09Z</time>
      </trkpt>
      <trkpt lat="4.670845" lon="-74.954704">
        <ele>553.60767</ele>
        <time>2021-11-14T16:38:10Z</time>
      </trkpt>
      <trkpt lat="4.670809" lon="-74.954552">
        <ele>552.69556</ele>
        <time>2021-11-14T16:38:11Z</time>
      </trkpt>
      <trkpt lat="4.670783" lon="-74.95443">
        <ele>551.26074</ele>
        <time>2021-11-14T16:38:12Z</time>
      </trkpt>
      <trkpt lat="4.670794" lon="-74.954315">
        <ele>550.6743</ele>
        <time>2021-11-14T16:38:13Z</time>
      </trkpt>
      <trkpt lat="4.670879" lon="-74.954117">
        <ele>548.761</ele>
        <time>2021-11-14T16:38:14Z</time>
      </trkpt>
      <trkpt lat="4.670996" lon="-74.953957">
        <ele>547.97266</ele>
        <time>2021-11-14T16:38:15Z</time>
      </trkpt>
      <trkpt lat="4.671111" lon="-74.953796">
        <ele>546.93384</ele>
        <time>2021-11-14T16:38:16Z</time>
      </trkpt>
      <trkpt lat="4.671137" lon="-74.953697">
        <ele>546.18726</ele>
        <time>2021-11-14T16:38:17Z</time>
      </trkpt>
      <trkpt lat="4.671147" lon="-74.953659">
        <ele>545.3374</ele>
        <time>2021-11-14T16:38:18Z</time>
      </trkpt>
      <trkpt lat="4.671126" lon="-74.953522">
        <ele>544.5763</ele>
        <time>2021-11-14T16:38:19Z</time>
      </trkpt>
      <trkpt lat="4.67104" lon="-74.953384">
        <ele>543.7158</ele>
        <time>2021-11-14T16:38:20Z</time>
      </trkpt>
      <trkpt lat="4.67093" lon="-74.953255">
        <ele>541.6162</ele>
        <time>2021-11-14T16:38:21Z</time>
      </trkpt>
      <trkpt lat="4.670826" lon="-74.953186">
        <ele>540.677</ele>
        <time>2021-11-14T16:38:22Z</time>
      </trkpt>
      <trkpt lat="4.670691" lon="-74.95311">
        <ele>539.09937</ele>
        <time>2021-11-14T16:38:23Z</time>
      </trkpt>
      <trkpt lat="4.670531" lon="-74.953018">
        <ele>538.426</ele>
        <time>2021-11-14T16:38:24Z</time>
      </trkpt>
      <trkpt lat="4.67041" lon="-74.952965">
        <ele>537.5957</ele>
        <time>2021-11-14T16:38:25Z</time>
      </trkpt>
      <trkpt lat="4.670318" lon="-74.952873">
        <ele>536.2351</ele>
        <time>2021-11-14T16:38:26Z</time>
      </trkpt>
      <trkpt lat="4.670229" lon="-74.952759">
        <ele>536.24</ele>
        <time>2021-11-14T16:38:27Z</time>
      </trkpt>
      <trkpt lat="4.670136" lon="-74.952591">
        <ele>534.80664</ele>
        <time>2021-11-14T16:38:28Z</time>
      </trkpt>
      <trkpt lat="4.670065" lon="-74.952469">
        <ele>533.1489</ele>
        <time>2021-11-14T16:38:29Z</time>
      </trkpt>
      <trkpt lat="4.669995" lon="-74.952347">
        <ele>532.4424</ele>
        <time>2021-11-14T16:38:30Z</time>
      </trkpt>
      <trkpt lat="4.669907" lon="-74.952202">
        <ele>530.87244</ele>
        <time>2021-11-14T16:38:31Z</time>
      </trkpt>
      <trkpt lat="4.669799" lon="-74.952141">
        <ele>529.8259</ele>
        <time>2021-11-14T16:38:32Z</time>
      </trkpt>
      <trkpt lat="4.669799" lon="-74.952141">
        <ele>528.5178</ele>
        <time>2021-11-14T16:38:33Z</time>
      </trkpt>
      <trkpt lat="4.669699" lon="-74.952095">
        <ele>527.3209</ele>
        <time>2021-11-14T16:38:34Z</time>
      </trkpt>
      <trkpt lat="4.669583" lon="-74.952057">
        <ele>525.8799</ele>
        <time>2021-11-14T16:38:35Z</time>
      </trkpt>
      <trkpt lat="4.669417" lon="-74.951996">
        <ele>524.6587</ele>
        <time>2021-11-14T16:38:36Z</time>
      </trkpt>
      <trkpt lat="4.66926" lon="-74.951927">
        <ele>524.3756</ele>
        <time>2021-11-14T16:38:37Z</time>
      </trkpt>
      <trkpt lat="4.669134" lon="-74.951881">
        <ele>524.0005</ele>
        <time>2021-11-14T16:38:38Z</time>
      </trkpt>
      <trkpt lat="4.669028" lon="-74.951866">
        <ele>522.252</ele>
        <time>2021-11-14T16:38:39Z</time>
      </trkpt>
      <trkpt lat="4.668918" lon="-74.951843">
        <ele>521.2652</ele>
        <time>2021-11-14T16:38:40Z</time>
      </trkpt>
      <trkpt lat="4.668731" lon="-74.951866">
        <ele>519.8683</ele>
        <time>2021-11-14T16:38:41Z</time>
      </trkpt>
      <trkpt lat="4.668505" lon="-74.951897">
        <ele>518.2932</ele>
        <time>2021-11-14T16:38:42Z</time>
      </trkpt>
      <trkpt lat="4.668346" lon="-74.95192">
        <ele>517.54443</ele>
        <time>2021-11-14T16:38:43Z</time>
      </trkpt>
      <trkpt lat="4.668207" lon="-74.95192">
        <ele>517.4582</ele>
        <time>2021-11-14T16:38:44Z</time>
      </trkpt>
      <trkpt lat="4.668053" lon="-74.951897">
        <ele>516.4608</ele>
        <time>2021-11-14T16:38:45Z</time>
      </trkpt>
      <trkpt lat="4.667938" lon="-74.951874">
        <ele>515.8817</ele>
        <time>2021-11-14T16:38:46Z</time>
      </trkpt>
      <trkpt lat="4.667837" lon="-74.951851">
        <ele>514.9086</ele>
        <time>2021-11-14T16:38:48Z</time>
      </trkpt>
      <trkpt lat="4.667636" lon="-74.951759">
        <ele>513.8854</ele>
        <time>2021-11-14T16:38:49Z</time>
      </trkpt>
      <trkpt lat="4.667499" lon="-74.951691">
        <ele>513.05225</ele>
        <time>2021-11-14T16:38:50Z</time>
      </trkpt>
      <trkpt lat="4.667331" lon="-74.951607">
        <ele>512.28516</ele>
        <time>2021-11-14T16:38:51Z</time>
      </trkpt>
      <trkpt lat="4.667124" lon="-74.951546">
        <ele>511.97717</ele>
        <time>2021-11-14T16:38:52Z</time>
      </trkpt>
      <trkpt lat="4.666999" lon="-74.95153">
        <ele>511.4743</ele>
        <time>2021-11-14T16:38:53Z</time>
      </trkpt>
      <trkpt lat="4.66685" lon="-74.951508">
        <ele>510.54742</ele>
        <time>2021-11-14T16:38:54Z</time>
      </trkpt>
      <trkpt lat="4.666732" lon="-74.951485">
        <ele>509.38245</ele>
        <time>2021-11-14T16:38:55Z</time>
      </trkpt>
      <trkpt lat="4.666647" lon="-74.951416">
        <ele>508.95007</ele>
        <time>2021-11-14T16:38:56Z</time>
      </trkpt>
      <trkpt lat="4.666572" lon="-74.951317">
        <ele>508.44672</ele>
        <time>2021-11-14T16:38:57Z</time>
      </trkpt>
      <trkpt lat="4.666505" lon="-74.95121">
        <ele>508.00958</ele>
        <time>2021-11-14T16:38:58Z</time>
      </trkpt>
      <trkpt lat="4.666423" lon="-74.951065">
        <ele>506.86438</ele>
        <time>2021-11-14T16:38:59Z</time>
      </trkpt>
      <trkpt lat="4.666331" lon="-74.950905">
        <ele>506.04333</ele>
        <time>2021-11-14T16:39:00Z</time>
      </trkpt>
      <trkpt lat="4.66625" lon="-74.95076">
        <ele>505.00427</ele>
        <time>2021-11-14T16:39:01Z</time>
      </trkpt>
      <trkpt lat="4.666174" lon="-74.95063">
        <ele>502.9441</ele>
        <time>2021-11-14T16:39:02Z</time>
      </trkpt>
      <trkpt lat="4.666135" lon="-74.950523">
        <ele>503.04004</ele>
        <time>2021-11-14T16:39:03Z</time>
      </trkpt>
      <trkpt lat="4.666109" lon="-74.950432">
        <ele>503.393</ele>
        <time>2021-11-14T16:39:04Z</time>
      </trkpt>
      <trkpt lat="4.666116" lon="-74.95034">
        <ele>504.1303</ele>
        <time>2021-11-14T16:39:05Z</time>
      </trkpt>
      <trkpt lat="4.666143" lon="-74.950241">
        <ele>502.14117</ele>
        <time>2021-11-14T16:39:06Z</time>
      </trkpt>
      <trkpt lat="4.666175" lon="-74.950127">
        <ele>501.30713</ele>
        <time>2021-11-14T16:39:07Z</time>
      </trkpt>
      <trkpt lat="4.666297" lon="-74.950027">
        <ele>501.51068</ele>
        <time>2021-11-14T16:39:08Z</time>
      </trkpt>
      <trkpt lat="4.666441" lon="-74.949959">
        <ele>501.0924</ele>
        <time>2021-11-14T16:39:09Z</time>
      </trkpt>
      <trkpt lat="4.666637" lon="-74.94986">
        <ele>499.74426</ele>
        <time>2021-11-14T16:39:10Z</time>
      </trkpt>
      <trkpt lat="4.666795" lon="-74.949799">
        <ele>499.01526</ele>
        <time>2021-11-14T16:39:11Z</time>
      </trkpt>
      <trkpt lat="4.666953" lon="-74.949745">
        <ele>497.75195</ele>
        <time>2021-11-14T16:39:12Z</time>
      </trkpt>
      <trkpt lat="4.667101" lon="-74.949699">
        <ele>496.3996</ele>
        <time>2021-11-14T16:39:13Z</time>
      </trkpt>
      <trkpt lat="4.667276" lon="-74.949646">
        <ele>495.91272</ele>
        <time>2021-11-14T16:39:14Z</time>
      </trkpt>
      <trkpt lat="4.667429" lon="-74.9496">
        <ele>494.9685</ele>
        <time>2021-11-14T16:39:15Z</time>
      </trkpt>
      <trkpt lat="4.667555" lon="-74.94957">
        <ele>493.99432</ele>
        <time>2021-11-14T16:39:16Z</time>
      </trkpt>
      <trkpt lat="4.667698" lon="-74.94957">
        <ele>492.5121</ele>
        <time>2021-11-14T16:39:17Z</time>
      </trkpt>
      <trkpt lat="4.667863" lon="-74.949577">
        <ele>491.64362</ele>
        <time>2021-11-14T16:39:18Z</time>
      </trkpt>
      <trkpt lat="4.668064" lon="-74.9496">
        <ele>489.91058</ele>
        <time>2021-11-14T16:39:19Z</time>
      </trkpt>
      <trkpt lat="4.668258" lon="-74.949615">
        <ele>489.91058</ele>
        <time>2021-11-14T16:39:20Z</time>
      </trkpt>
      <trkpt lat="4.66848" lon="-74.949631">
        <ele>487.729</ele>
        <time>2021-11-14T16:39:21Z</time>
      </trkpt>
      <trkpt lat="4.668667" lon="-74.949615">
        <ele>487.9308</ele>
        <time>2021-11-14T16:39:22Z</time>
      </trkpt>
      <trkpt lat="4.668855" lon="-74.949585">
        <ele>486.87683</ele>
        <time>2021-11-14T16:39:23Z</time>
      </trkpt>
      <trkpt lat="4.668985" lon="-74.949547">
        <ele>486.54828</ele>
        <time>2021-11-14T16:39:24Z</time>
      </trkpt>
      <trkpt lat="4.669092" lon="-74.949493">
        <ele>483.97772</ele>
        <time>2021-11-14T16:39:25Z</time>
      </trkpt>
      <trkpt lat="4.669202" lon="-74.949432">
        <ele>482.4386</ele>
        <time>2021-11-14T16:39:26Z</time>
      </trkpt>
      <trkpt lat="4.669202" lon="-74.949432">
        <ele>482.0747</ele>
        <time>2021-11-14T16:39:27Z</time>
      </trkpt>
      <trkpt lat="4.669305" lon="-74.949341">
        <ele>480.01697</ele>
        <time>2021-11-14T16:39:28Z</time>
      </trkpt>
      <trkpt lat="4.669439" lon="-74.949226">
        <ele>480.227</ele>
        <time>2021-11-14T16:39:29Z</time>
      </trkpt>
      <trkpt lat="4.669564" lon="-74.949112">
        <ele>478.28992</ele>
        <time>2021-11-14T16:39:30Z</time>
      </trkpt>
      <trkpt lat="4.669672" lon="-74.949028">
        <ele>478.85486</ele>
        <time>2021-11-14T16:39:31Z</time>
      </trkpt>
      <trkpt lat="4.669769" lon="-74.948975">
        <ele>477.97357</ele>
        <time>2021-11-14T16:39:32Z</time>
      </trkpt>
      <trkpt lat="4.669879" lon="-74.948944">
        <ele>476.37054</ele>
        <time>2021-11-14T16:39:33Z</time>
      </trkpt>
      <trkpt lat="4.670001" lon="-74.948959">
        <ele>475.23657</ele>
        <time>2021-11-14T16:39:34Z</time>
      </trkpt>
      <trkpt lat="4.670068" lon="-74.948967">
        <ele>474.37988</ele>
        <time>2021-11-14T16:39:35Z</time>
      </trkpt>
      <trkpt lat="4.670138" lon="-74.948975">
        <ele>473.90308</ele>
        <time>2021-11-14T16:39:36Z</time>
      </trkpt>
      <trkpt lat="4.670267" lon="-74.948975">
        <ele>472.8556</ele>
        <time>2021-11-14T16:39:37Z</time>
      </trkpt>
      <trkpt lat="4.670374" lon="-74.948936">
        <ele>472.2586</ele>
        <time>2021-11-14T16:39:38Z</time>
      </trkpt>
      <trkpt lat="4.670451" lon="-74.948868">
        <ele>471.66608</ele>
        <time>2021-11-14T16:39:39Z</time>
      </trkpt>
      <trkpt lat="4.670502" lon="-74.948814">
        <ele>471.20605</ele>
        <time>2021-11-14T16:39:40Z</time>
      </trkpt>
      <trkpt lat="4.670548" lon="-74.948708">
        <ele>471.13147</ele>
        <time>2021-11-14T16:39:41Z</time>
      </trkpt>
      <trkpt lat="4.670553" lon="-74.948563">
        <ele>469.9807</ele>
        <time>2021-11-14T16:39:42Z</time>
      </trkpt>
      <trkpt lat="4.670551" lon="-74.948448">
        <ele>470.31097</ele>
        <time>2021-11-14T16:39:44Z</time>
      </trkpt>
      <trkpt lat="4.670546" lon="-74.948311">
        <ele>468.98523</ele>
        <time>2021-11-14T16:39:45Z</time>
      </trkpt>
      <trkpt lat="4.670542" lon="-74.948212">
        <ele>469.40375</ele>
        <time>2021-11-14T16:39:46Z</time>
      </trkpt>
      <trkpt lat="4.670537" lon="-74.948105">
        <ele>469.04102</ele>
        <time>2021-11-14T16:39:47Z</time>
      </trkpt>
      <trkpt lat="4.670533" lon="-74.947998">
        <ele>468.69946</ele>
        <time>2021-11-14T16:39:48Z</time>
      </trkpt>
      <trkpt lat="4.670531" lon="-74.947945">
        <ele>468.5265</ele>
        <time>2021-11-14T16:39:49Z</time>
      </trkpt>
      <trkpt lat="4.670527" lon="-74.947838">
        <ele>468.32043</ele>
        <time>2021-11-14T16:39:50Z</time>
      </trkpt>
      <trkpt lat="4.67052" lon="-74.947678">
        <ele>467.73376</ele>
        <time>2021-11-14T16:39:51Z</time>
      </trkpt>
      <trkpt lat="4.670497" lon="-74.947548">
        <ele>467.3222</ele>
        <time>2021-11-14T16:39:52Z</time>
      </trkpt>
      <trkpt lat="4.670474" lon="-74.947502">
        <ele>466.72156</ele>
        <time>2021-11-14T16:39:53Z</time>
      </trkpt>
      <trkpt lat="4.670442" lon="-74.947456">
        <ele>466.2954</ele>
        <time>2021-11-14T16:39:54Z</time>
      </trkpt>
      <trkpt lat="4.670442" lon="-74.947456">
        <ele>465.80518</ele>
        <time>2021-11-14T16:39:55Z</time>
      </trkpt>
      <trkpt lat="4.67037" lon="-74.947411">
        <ele>466.55005</ele>
        <time>2021-11-14T16:39:56Z</time>
      </trkpt>
      <trkpt lat="4.670275" lon="-74.947357">
        <ele>465.6394</ele>
        <time>2021-11-14T16:39:57Z</time>
      </trkpt>
      <trkpt lat="4.670195" lon="-74.947319">
        <ele>465.83203</ele>
        <time>2021-11-14T16:39:58Z</time>
      </trkpt>
      <trkpt lat="4.670103" lon="-74.947296">
        <ele>465.52905</ele>
        <time>2021-11-14T16:39:59Z</time>
      </trkpt>
      <trkpt lat="4.67003" lon="-74.947289">
        <ele>465.64307</ele>
        <time>2021-11-14T16:40:00Z</time>
      </trkpt>
      <trkpt lat="4.669865" lon="-74.947258">
        <ele>465.7964</ele>
        <time>2021-11-14T16:40:01Z</time>
      </trkpt>
      <trkpt lat="4.66967" lon="-74.947227">
        <ele>465.53918</ele>
        <time>2021-11-14T16:40:02Z</time>
      </trkpt>
      <trkpt lat="4.669166" lon="-74.947144">
        <ele>463.73804</ele>
        <time>2021-11-14T16:40:03Z</time>
      </trkpt>
      <trkpt lat="4.668876" lon="-74.947098">
        <ele>462.60986</ele>
        <time>2021-11-14T16:40:04Z</time>
      </trkpt>
      <trkpt lat="4.66857" lon="-74.947052">
        <ele>462.0807</ele>
        <time>2021-11-14T16:40:05Z</time>
      </trkpt>
      <trkpt lat="4.668281" lon="-74.946999">
        <ele>460.917</ele>
        <time>2021-11-14T16:40:06Z</time>
      </trkpt>
      <trkpt lat="4.668004" lon="-74.94696">
        <ele>461.04272</ele>
        <time>2021-11-14T16:40:07Z</time>
      </trkpt>
      <trkpt lat="4.667851" lon="-74.94693">
        <ele>460.21973</ele>
        <time>2021-11-14T16:40:08Z</time>
      </trkpt>
      <trkpt lat="4.667526" lon="-74.946877">
        <ele>459.3568</ele>
        <time>2021-11-14T16:40:09Z</time>
      </trkpt>
      <trkpt lat="4.667276" lon="-74.946838">
        <ele>458.8695</ele>
        <time>2021-11-14T16:40:10Z</time>
      </trkpt>
      <trkpt lat="4.666979" lon="-74.946793">
        <ele>457.96985</ele>
        <time>2021-11-14T16:40:11Z</time>
      </trkpt>
      <trkpt lat="4.666761" lon="-74.946754">
        <ele>457.14148</ele>
        <time>2021-11-14T16:40:12Z</time>
      </trkpt>
      <trkpt lat="4.666548" lon="-74.946716">
        <ele>456.1314</ele>
        <time>2021-11-14T16:40:13Z</time>
      </trkpt>
      <trkpt lat="4.66632" lon="-74.946686">
        <ele>455.98926</ele>
        <time>2021-11-14T16:40:14Z</time>
      </trkpt>
      <trkpt lat="4.666073" lon="-74.94664">
        <ele>454.94434</ele>
        <time>2021-11-14T16:40:15Z</time>
      </trkpt>
      <trkpt lat="4.665877" lon="-74.946609">
        <ele>453.86627</ele>
        <time>2021-11-14T16:40:16Z</time>
      </trkpt>
      <trkpt lat="4.665687" lon="-74.946579">
        <ele>453.7409</ele>
        <time>2021-11-14T16:40:17Z</time>
      </trkpt>
      <trkpt lat="4.665503" lon="-74.946548">
        <ele>453.02386</ele>
        <time>2021-11-14T16:40:18Z</time>
      </trkpt>
      <trkpt lat="4.665372" lon="-74.946518">
        <ele>452.93585</ele>
        <time>2021-11-14T16:40:19Z</time>
      </trkpt>
      <trkpt lat="4.665279" lon="-74.946487">
        <ele>452.64392</ele>
        <time>2021-11-14T16:40:20Z</time>
      </trkpt>
      <trkpt lat="4.665279" lon="-74.946487">
        <ele>451.72943</ele>
        <time>2021-11-14T16:40:21Z</time>
      </trkpt>
      <trkpt lat="4.665087" lon="-74.946426">
        <ele>451.68835</ele>
        <time>2021-11-14T16:40:22Z</time>
      </trkpt>
      <trkpt lat="4.664867" lon="-74.946304">
        <ele>450.62207</ele>
        <time>2021-11-14T16:40:23Z</time>
      </trkpt>
      <trkpt lat="4.664642" lon="-74.946152">
        <ele>449.26758</ele>
        <time>2021-11-14T16:40:24Z</time>
      </trkpt>
      <trkpt lat="4.664439" lon="-74.946007">
        <ele>448.53064</ele>
        <time>2021-11-14T16:40:25Z</time>
      </trkpt>
      <trkpt lat="4.664257" lon="-74.945885">
        <ele>448.90564</ele>
        <time>2021-11-14T16:40:26Z</time>
      </trkpt>
      <trkpt lat="4.664071" lon="-74.945755">
        <ele>448.55518</ele>
        <time>2021-11-14T16:40:27Z</time>
      </trkpt>
      <trkpt lat="4.663905" lon="-74.945641">
        <ele>449.63446</ele>
        <time>2021-11-14T16:40:28Z</time>
      </trkpt>
      <trkpt lat="4.663681" lon="-74.94548">
        <ele>450.43384</ele>
        <time>2021-11-14T16:40:29Z</time>
      </trkpt>
      <trkpt lat="4.663514" lon="-74.945366">
        <ele>449.5774</ele>
        <time>2021-11-14T16:40:30Z</time>
      </trkpt>
      <trkpt lat="4.663319" lon="-74.945229">
        <ele>448.8692</ele>
        <time>2021-11-14T16:40:31Z</time>
      </trkpt>
      <trkpt lat="4.66311" lon="-74.945084">
        <ele>448.0719</ele>
        <time>2021-11-14T16:40:32Z</time>
      </trkpt>
      <trkpt lat="4.662906" lon="-74.944946">
        <ele>447.61438</ele>
        <time>2021-11-14T16:40:33Z</time>
      </trkpt>
      <trkpt lat="4.662703" lon="-74.944801">
        <ele>447.02838</ele>
        <time>2021-11-14T16:40:34Z</time>
      </trkpt>
      <trkpt lat="4.662508" lon="-74.944672">
        <ele>445.97998</ele>
        <time>2021-11-14T16:40:35Z</time>
      </trkpt>
      <trkpt lat="4.662302" lon="-74.944527">
        <ele>445.67725</ele>
        <time>2021-11-14T16:40:36Z</time>
      </trkpt>
      <trkpt lat="4.662111" lon="-74.944397">
        <ele>445.3283</ele>
        <time>2021-11-14T16:40:37Z</time>
      </trkpt>
      <trkpt lat="4.661917" lon="-74.94426">
        <ele>444.62927</ele>
        <time>2021-11-14T16:40:38Z</time>
      </trkpt>
      <trkpt lat="4.661714" lon="-74.944122">
        <ele>444.06958</ele>
        <time>2021-11-14T16:40:39Z</time>
      </trkpt>
      <trkpt lat="4.661532" lon="-74.944">
        <ele>443.20618</ele>
        <time>2021-11-14T16:40:40Z</time>
      </trkpt>
      <trkpt lat="4.661341" lon="-74.943871">
        <ele>442.75677</ele>
        <time>2021-11-14T16:40:42Z</time>
      </trkpt>
      <trkpt lat="4.661106" lon="-74.943703">
        <ele>441.98065</ele>
        <time>2021-11-14T16:40:43Z</time>
      </trkpt>
      <trkpt lat="4.660882" lon="-74.94355">
        <ele>441.3177</ele>
        <time>2021-11-14T16:40:44Z</time>
      </trkpt>
      <trkpt lat="4.660674" lon="-74.943405">
        <ele>440.90424</ele>
        <time>2021-11-14T16:40:45Z</time>
      </trkpt>
      <trkpt lat="4.660471" lon="-74.943268">
        <ele>440.79077</ele>
        <time>2021-11-14T16:40:46Z</time>
      </trkpt>
      <trkpt lat="4.660257" lon="-74.943123">
        <ele>440.0204</ele>
        <time>2021-11-14T16:40:47Z</time>
      </trkpt>
      <trkpt lat="4.660039" lon="-74.94297">
        <ele>439.50647</ele>
        <time>2021-11-14T16:40:48Z</time>
      </trkpt>
      <trkpt lat="4.659827" lon="-74.942825">
        <ele>439.01074</ele>
        <time>2021-11-14T16:40:49Z</time>
      </trkpt>
      <trkpt lat="4.659827" lon="-74.942825">
        <ele>438.7356</ele>
        <time>2021-11-14T16:40:50Z</time>
      </trkpt>
      <trkpt lat="4.659594" lon="-74.942665">
        <ele>438.03052</ele>
        <time>2021-11-14T16:40:51Z</time>
      </trkpt>
      <trkpt lat="4.659371" lon="-74.942513">
        <ele>437.5066</ele>
        <time>2021-11-14T16:40:52Z</time>
      </trkpt>
      <trkpt lat="4.659157" lon="-74.942368">
        <ele>437.16077</ele>
        <time>2021-11-14T16:40:53Z</time>
      </trkpt>
      <trkpt lat="4.658911" lon="-74.942192">
        <ele>436.73413</ele>
        <time>2021-11-14T16:40:54Z</time>
      </trkpt>
      <trkpt lat="4.658704" lon="-74.942055">
        <ele>436.2937</ele>
        <time>2021-11-14T16:40:55Z</time>
      </trkpt>
      <trkpt lat="4.658527" lon="-74.941933">
        <ele>435.63086</ele>
        <time>2021-11-14T16:40:56Z</time>
      </trkpt>
      <trkpt lat="4.65835" lon="-74.941811">
        <ele>435.01794</ele>
        <time>2021-11-14T16:40:57Z</time>
      </trkpt>
      <trkpt lat="4.658161" lon="-74.941681">
        <ele>433.98828</ele>
        <time>2021-11-14T16:40:58Z</time>
      </trkpt>
      <trkpt lat="4.657987" lon="-74.941559">
        <ele>433.56866</ele>
        <time>2021-11-14T16:40:59Z</time>
      </trkpt>
      <trkpt lat="4.657776" lon="-74.941414">
        <ele>432.7022</ele>
        <time>2021-11-14T16:41:00Z</time>
      </trkpt>
      <trkpt lat="4.657407" lon="-74.94117">
        <ele>430.98553</ele>
        <time>2021-11-14T16:41:01Z</time>
      </trkpt>
      <trkpt lat="4.657168" lon="-74.941017">
        <ele>430.27185</ele>
        <time>2021-11-14T16:41:02Z</time>
      </trkpt>
      <trkpt lat="4.656951" lon="-74.94088">
        <ele>429.45526</ele>
        <time>2021-11-14T16:41:03Z</time>
      </trkpt>
      <trkpt lat="4.656771" lon="-74.940773">
        <ele>428.26886</ele>
        <time>2021-11-14T16:41:04Z</time>
      </trkpt>
      <trkpt lat="4.656568" lon="-74.940643">
        <ele>427.1632</ele>
        <time>2021-11-14T16:41:05Z</time>
      </trkpt>
      <trkpt lat="4.656342" lon="-74.940498">
        <ele>426.9535</ele>
        <time>2021-11-14T16:41:06Z</time>
      </trkpt>
      <trkpt lat="4.656172" lon="-74.940384">
        <ele>426.50195</ele>
        <time>2021-11-14T16:41:07Z</time>
      </trkpt>
      <trkpt lat="4.656006" lon="-74.940269">
        <ele>426.52393</ele>
        <time>2021-11-14T16:41:08Z</time>
      </trkpt>
      <trkpt lat="4.655831" lon="-74.940155">
        <ele>425.92688</ele>
        <time>2021-11-14T16:41:09Z</time>
      </trkpt>
      <trkpt lat="4.655671" lon="-74.940041">
        <ele>424.80487</ele>
        <time>2021-11-14T16:41:10Z</time>
      </trkpt>
      <trkpt lat="4.655501" lon="-74.939926">
        <ele>423.9732</ele>
        <time>2021-11-14T16:41:11Z</time>
      </trkpt>
      <trkpt lat="4.655357" lon="-74.939827">
        <ele>424.3402</ele>
        <time>2021-11-14T16:41:12Z</time>
      </trkpt>
      <trkpt lat="4.6552" lon="-74.93972">
        <ele>424.4275</ele>
        <time>2021-11-14T16:41:13Z</time>
      </trkpt>
      <trkpt lat="4.655033" lon="-74.939606">
        <ele>424.7367</ele>
        <time>2021-11-14T16:41:14Z</time>
      </trkpt>
      <trkpt lat="4.654863" lon="-74.939491">
        <ele>424.6963</ele>
        <time>2021-11-14T16:41:15Z</time>
      </trkpt>
      <trkpt lat="4.654698" lon="-74.939377">
        <ele>424.94543</ele>
        <time>2021-11-14T16:41:16Z</time>
      </trkpt>
      <trkpt lat="4.654698" lon="-74.939377">
        <ele>424.25647</ele>
        <time>2021-11-14T16:41:17Z</time>
      </trkpt>
      <trkpt lat="4.654567" lon="-74.939293">
        <ele>423.6197</ele>
        <time>2021-11-14T16:41:18Z</time>
      </trkpt>
      <trkpt lat="4.654405" lon="-74.939178">
        <ele>422.74805</ele>
        <time>2021-11-14T16:41:19Z</time>
      </trkpt>
      <trkpt lat="4.65425" lon="-74.939072">
        <ele>422.74805</ele>
        <time>2021-11-14T16:41:20Z</time>
      </trkpt>
      <trkpt lat="4.654087" lon="-74.938965">
        <ele>421.1654</ele>
        <time>2021-11-14T16:41:21Z</time>
      </trkpt>
      <trkpt lat="4.653937" lon="-74.938858">
        <ele>420.66638</ele>
        <time>2021-11-14T16:41:22Z</time>
      </trkpt>
      <trkpt lat="4.65377" lon="-74.938744">
        <ele>420.06598</ele>
        <time>2021-11-14T16:41:23Z</time>
      </trkpt>
      <trkpt lat="4.653607" lon="-74.938637">
        <ele>419.07452</ele>
        <time>2021-11-14T16:41:24Z</time>
      </trkpt>
      <trkpt lat="4.653416" lon="-74.938507">
        <ele>418.8039</ele>
        <time>2021-11-14T16:41:25Z</time>
      </trkpt>
      <trkpt lat="4.65328" lon="-74.938416">
        <ele>418.74982</ele>
        <time>2021-11-14T16:41:26Z</time>
      </trkpt>
      <trkpt lat="4.653159" lon="-74.938332">
        <ele>418.4624</ele>
        <time>2021-11-14T16:41:27Z</time>
      </trkpt>
      <trkpt lat="4.65298" lon="-74.93821">
        <ele>417.9311</ele>
        <time>2021-11-14T16:41:28Z</time>
      </trkpt>
      <trkpt lat="4.652789" lon="-74.93808">
        <ele>416.93152</ele>
        <time>2021-11-14T16:41:29Z</time>
      </trkpt>
      <trkpt lat="4.652617" lon="-74.937958">
        <ele>416.1626</ele>
        <time>2021-11-14T16:41:30Z</time>
      </trkpt>
      <trkpt lat="4.652444" lon="-74.937843">
        <ele>414.6316</ele>
        <time>2021-11-14T16:41:31Z</time>
      </trkpt>
      <trkpt lat="4.652241" lon="-74.937706">
        <ele>414.5</ele>
        <time>2021-11-14T16:41:32Z</time>
      </trkpt>
      <trkpt lat="4.652" lon="-74.937538">
        <ele>414.42627</ele>
        <time>2021-11-14T16:41:33Z</time>
      </trkpt>
      <trkpt lat="4.651793" lon="-74.937393">
        <ele>413.7555</ele>
        <time>2021-11-14T16:41:35Z</time>
      </trkpt>
      <trkpt lat="4.65157" lon="-74.937233">
        <ele>413.57788</ele>
        <time>2021-11-14T16:41:36Z</time>
      </trkpt>
      <trkpt lat="4.651335" lon="-74.937065">
        <ele>413.44904</ele>
        <time>2021-11-14T16:41:37Z</time>
      </trkpt>
      <trkpt lat="4.65115" lon="-74.936935">
        <ele>412.53278</ele>
        <time>2021-11-14T16:41:38Z</time>
      </trkpt>
      <trkpt lat="4.650965" lon="-74.936798">
        <ele>412.14783</ele>
        <time>2021-11-14T16:41:39Z</time>
      </trkpt>
      <trkpt lat="4.650776" lon="-74.936661">
        <ele>412.02722</ele>
        <time>2021-11-14T16:41:40Z</time>
      </trkpt>
      <trkpt lat="4.650571" lon="-74.936516">
        <ele>411.90338</ele>
        <time>2021-11-14T16:41:41Z</time>
      </trkpt>
      <trkpt lat="4.650366" lon="-74.936363">
        <ele>411.9748</ele>
        <time>2021-11-14T16:41:42Z</time>
      </trkpt>
      <trkpt lat="4.650188" lon="-74.936234">
        <ele>411.70203</ele>
        <time>2021-11-14T16:41:43Z</time>
      </trkpt>
      <trkpt lat="4.650031" lon="-74.936119">
        <ele>411.65387</ele>
        <time>2021-11-14T16:41:44Z</time>
      </trkpt>
      <trkpt lat="4.649904" lon="-74.936028">
        <ele>411.37726</ele>
        <time>2021-11-14T16:41:45Z</time>
      </trkpt>
      <trkpt lat="4.649747" lon="-74.935913">
        <ele>411.21777</ele>
        <time>2021-11-14T16:41:46Z</time>
      </trkpt>
      <trkpt lat="4.649607" lon="-74.935814">
        <ele>410.6831</ele>
        <time>2021-11-14T16:41:47Z</time>
      </trkpt>
      <trkpt lat="4.649499" lon="-74.935738">
        <ele>410.8051</ele>
        <time>2021-11-14T16:41:48Z</time>
      </trkpt>
      <trkpt lat="4.649386" lon="-74.935654">
        <ele>410.4912</ele>
        <time>2021-11-14T16:41:49Z</time>
      </trkpt>
      <trkpt lat="4.649264" lon="-74.935562">
        <ele>411.53998</ele>
        <time>2021-11-14T16:41:50Z</time>
      </trkpt>
      <trkpt lat="4.64912" lon="-74.935463">
        <ele>411.3504</ele>
        <time>2021-11-14T16:41:51Z</time>
      </trkpt>
      <trkpt lat="4.649059" lon="-74.935387">
        <ele>411.46094</ele>
        <time>2021-11-14T16:41:52Z</time>
      </trkpt>
      <trkpt lat="4.648982" lon="-74.935287">
        <ele>411.26282</ele>
        <time>2021-11-14T16:41:53Z</time>
      </trkpt>
      <trkpt lat="4.648898" lon="-74.935181">
        <ele>411.1151</ele>
        <time>2021-11-14T16:41:54Z</time>
      </trkpt>
      <trkpt lat="4.648845" lon="-74.935089">
        <ele>410.51733</ele>
        <time>2021-11-14T16:41:55Z</time>
      </trkpt>
      <trkpt lat="4.648807" lon="-74.935013">
        <ele>410.34253</ele>
        <time>2021-11-14T16:41:56Z</time>
      </trkpt>
      <trkpt lat="4.648785" lon="-74.934967">
        <ele>410.28198</ele>
        <time>2021-11-14T16:41:57Z</time>
      </trkpt>
      <trkpt lat="4.648761" lon="-74.93486">
        <ele>410.31213</ele>
        <time>2021-11-14T16:41:58Z</time>
      </trkpt>
      <trkpt lat="4.648768" lon="-74.934723">
        <ele>410.14563</ele>
        <time>2021-11-14T16:41:59Z</time>
      </trkpt>
      <trkpt lat="4.648772" lon="-74.934654">
        <ele>410.23108</ele>
        <time>2021-11-14T16:42:00Z</time>
      </trkpt>
      <trkpt lat="4.648773" lon="-74.934631">
        <ele>409.59473</ele>
        <time>2021-11-14T16:42:01Z</time>
      </trkpt>
      <trkpt lat="4.648774" lon="-74.934616">
        <ele>409.29132</ele>
        <time>2021-11-14T16:42:02Z</time>
      </trkpt>
      <trkpt lat="4.648776" lon="-74.934578">
        <ele>408.833</ele>
        <time>2021-11-14T16:42:03Z</time>
      </trkpt>
      <trkpt lat="4.648812" lon="-74.934525">
        <ele>408.66602</ele>
        <time>2021-11-14T16:42:04Z</time>
      </trkpt>
      <trkpt lat="4.648767" lon="-74.934479">
        <ele>408.677</ele>
        <time>2021-11-14T16:42:05Z</time>
      </trkpt>
      <trkpt lat="4.648568" lon="-74.934471">
        <ele>408.76898</ele>
        <time>2021-11-14T16:42:06Z</time>
      </trkpt>
      <trkpt lat="4.648535" lon="-74.934471">
        <ele>409.20312</ele>
        <time>2021-11-14T16:42:07Z</time>
      </trkpt>
      <trkpt lat="4.648432" lon="-74.934471">
        <ele>408.7118</ele>
        <time>2021-11-14T16:42:08Z</time>
      </trkpt>
      <trkpt lat="4.648353" lon="-74.934464">
        <ele>408.55823</ele>
        <time>2021-11-14T16:42:09Z</time>
      </trkpt>
      <trkpt lat="4.648253" lon="-74.934464">
        <ele>408.1477</ele>
        <time>2021-11-14T16:42:10Z</time>
      </trkpt>
      <trkpt lat="4.648182" lon="-74.934464">
        <ele>407.7329</ele>
        <time>2021-11-14T16:42:11Z</time>
      </trkpt>
      <trkpt lat="4.648038" lon="-74.934456">
        <ele>406.2813</ele>
        <time>2021-11-14T16:42:12Z</time>
      </trkpt>
      <trkpt lat="4.64784" lon="-74.934448">
        <ele>405.3994</ele>
        <time>2021-11-14T16:42:13Z</time>
      </trkpt>
      <trkpt lat="4.647583" lon="-74.934441">
        <ele>404.7442</ele>
        <time>2021-11-14T16:42:14Z</time>
      </trkpt>
      <trkpt lat="4.647352" lon="-74.934433">
        <ele>404.3496</ele>
        <time>2021-11-14T16:42:15Z</time>
      </trkpt>
      <trkpt lat="4.647001" lon="-74.934425">
        <ele>403.2511</ele>
        <time>2021-11-14T16:42:16Z</time>
      </trkpt>
      <trkpt lat="4.646696" lon="-74.93441">
        <ele>402.59106</ele>
        <time>2021-11-14T16:42:17Z</time>
      </trkpt>
      <trkpt lat="4.646696" lon="-74.93441">
        <ele>401.7838</ele>
        <time>2021-11-14T16:42:18Z</time>
      </trkpt>
      <trkpt lat="4.646348" lon="-74.934402">
        <ele>401.4851</ele>
        <time>2021-11-14T16:42:19Z</time>
      </trkpt>
      <trkpt lat="4.645984" lon="-74.934387">
        <ele>399.6991</ele>
        <time>2021-11-14T16:42:20Z</time>
      </trkpt>
      <trkpt lat="4.645682" lon="-74.93438">
        <ele>398.97864</ele>
        <time>2021-11-14T16:42:21Z</time>
      </trkpt>
      <trkpt lat="4.645412" lon="-74.934372">
        <ele>397.9875</ele>
        <time>2021-11-14T16:42:22Z</time>
      </trkpt>
      <trkpt lat="4.645078" lon="-74.934357">
        <ele>397.784</ele>
        <time>2021-11-14T16:42:23Z</time>
      </trkpt>
      <trkpt lat="4.644753" lon="-74.934341">
        <ele>397.7389</ele>
        <time>2021-11-14T16:42:24Z</time>
      </trkpt>
      <trkpt lat="4.644444" lon="-74.934334">
        <ele>396.57562</ele>
        <time>2021-11-14T16:42:25Z</time>
      </trkpt>
      <trkpt lat="4.644141" lon="-74.934319">
        <ele>395.68115</ele>
        <time>2021-11-14T16:42:27Z</time>
      </trkpt>
      <trkpt lat="4.643816" lon="-74.934303">
        <ele>394.47668</ele>
        <time>2021-11-14T16:42:28Z</time>
      </trkpt>
      <trkpt lat="4.643541" lon="-74.934296">
        <ele>393.45325</ele>
        <time>2021-11-14T16:42:29Z</time>
      </trkpt>
      <trkpt lat="4.643229" lon="-74.93428">
        <ele>392.59216</ele>
        <time>2021-11-14T16:42:30Z</time>
      </trkpt>
      <trkpt lat="4.643062" lon="-74.934273">
        <ele>392.4702</ele>
        <time>2021-11-14T16:42:31Z</time>
      </trkpt>
      <trkpt lat="4.642787" lon="-74.934265">
        <ele>393.03198</ele>
        <time>2021-11-14T16:42:32Z</time>
      </trkpt>
      <trkpt lat="4.642564" lon="-74.934258">
        <ele>392.9718</ele>
        <time>2021-11-14T16:42:33Z</time>
      </trkpt>
      <trkpt lat="4.642342" lon="-74.934242">
        <ele>392.86426</ele>
        <time>2021-11-14T16:42:34Z</time>
      </trkpt>
      <trkpt lat="4.642102" lon="-74.934235">
        <ele>392.17822</ele>
        <time>2021-11-14T16:42:35Z</time>
      </trkpt>
      <trkpt lat="4.641863" lon="-74.934227">
        <ele>391.1671</ele>
        <time>2021-11-14T16:42:36Z</time>
      </trkpt>
      <trkpt lat="4.641662" lon="-74.934219">
        <ele>390.55786</ele>
        <time>2021-11-14T16:42:37Z</time>
      </trkpt>
      <trkpt lat="4.641219" lon="-74.934204">
        <ele>388.85352</ele>
        <time>2021-11-14T16:42:38Z</time>
      </trkpt>
      <trkpt lat="4.641042" lon="-74.934196">
        <ele>388.4571</ele>
        <time>2021-11-14T16:42:39Z</time>
      </trkpt>
      <trkpt lat="4.640819" lon="-74.934181">
        <ele>388.13226</ele>
        <time>2021-11-14T16:42:40Z</time>
      </trkpt>
      <trkpt lat="4.640605" lon="-74.934174">
        <ele>387.81152</ele>
        <time>2021-11-14T16:42:41Z</time>
      </trkpt>
      <trkpt lat="4.640392" lon="-74.934166">
        <ele>387.20764</ele>
        <time>2021-11-14T16:42:42Z</time>
      </trkpt>
      <trkpt lat="4.640167" lon="-74.934158">
        <ele>386.64294</ele>
        <time>2021-11-14T16:42:43Z</time>
      </trkpt>
      <trkpt lat="4.640167" lon="-74.934158">
        <ele>385.61523</ele>
        <time>2021-11-14T16:42:44Z</time>
      </trkpt>
      <trkpt lat="4.63994" lon="-74.934151">
        <ele>385.2237</ele>
        <time>2021-11-14T16:42:45Z</time>
      </trkpt>
      <trkpt lat="4.639693" lon="-74.934135">
        <ele>385.11816</ele>
        <time>2021-11-14T16:42:46Z</time>
      </trkpt>
      <trkpt lat="4.639397" lon="-74.934128">
        <ele>384.33887</ele>
        <time>2021-11-14T16:42:47Z</time>
      </trkpt>
      <trkpt lat="4.63909" lon="-74.934113">
        <ele>383.22064</ele>
        <time>2021-11-14T16:42:48Z</time>
      </trkpt>
      <trkpt lat="4.63877" lon="-74.934105">
        <ele>382.4408</ele>
        <time>2021-11-14T16:42:49Z</time>
      </trkpt>
      <trkpt lat="4.638429" lon="-74.93409">
        <ele>381.82397</ele>
        <time>2021-11-14T16:42:50Z</time>
      </trkpt>
      <trkpt lat="4.638093" lon="-74.934074">
        <ele>381.96478</ele>
        <time>2021-11-14T16:42:51Z</time>
      </trkpt>
      <trkpt lat="4.637723" lon="-74.934059">
        <ele>381.5393</ele>
        <time>2021-11-14T16:42:52Z</time>
      </trkpt>
      <trkpt lat="4.637385" lon="-74.934044">
        <ele>381.49475</ele>
        <time>2021-11-14T16:42:53Z</time>
      </trkpt>
      <trkpt lat="4.637003" lon="-74.934029">
        <ele>381.1106</ele>
        <time>2021-11-14T16:42:54Z</time>
      </trkpt>
      <trkpt lat="4.63664" lon="-74.934013">
        <ele>380.77972</ele>
        <time>2021-11-14T16:42:55Z</time>
      </trkpt>
      <trkpt lat="4.636295" lon="-74.934006">
        <ele>380.79993</ele>
        <time>2021-11-14T16:42:56Z</time>
      </trkpt>
      <trkpt lat="4.635957" lon="-74.933998">
        <ele>380.5968</ele>
        <time>2021-11-14T16:42:57Z</time>
      </trkpt>
      <trkpt lat="4.635603" lon="-74.93399">
        <ele>379.71802</ele>
        <time>2021-11-14T16:42:58Z</time>
      </trkpt>
      <trkpt lat="4.635268" lon="-74.933975">
        <ele>379.1184</ele>
        <time>2021-11-14T16:42:59Z</time>
      </trkpt>
      <trkpt lat="4.634933" lon="-74.933968">
        <ele>379.07782</ele>
        <time>2021-11-14T16:43:00Z</time>
      </trkpt>
      <trkpt lat="4.634611" lon="-74.93396">
        <ele>379.1488</ele>
        <time>2021-11-14T16:43:01Z</time>
      </trkpt>
      <trkpt lat="4.634319" lon="-74.933952">
        <ele>378.99316</ele>
        <time>2021-11-14T16:43:02Z</time>
      </trkpt>
      <trkpt lat="4.634089" lon="-74.933945">
        <ele>378.60828</ele>
        <time>2021-11-14T16:43:03Z</time>
      </trkpt>
      <trkpt lat="4.633877" lon="-74.933945">
        <ele>378.8496</ele>
        <time>2021-11-14T16:43:04Z</time>
      </trkpt>
      <trkpt lat="4.633611" lon="-74.933937">
        <ele>377.88477</ele>
        <time>2021-11-14T16:43:05Z</time>
      </trkpt>
      <trkpt lat="4.633369" lon="-74.933929">
        <ele>377.46362</ele>
        <time>2021-11-14T16:43:06Z</time>
      </trkpt>
      <trkpt lat="4.633099" lon="-74.933937">
        <ele>376.6892</ele>
        <time>2021-11-14T16:43:07Z</time>
      </trkpt>
      <trkpt lat="4.632819" lon="-74.934044">
        <ele>375.8512</ele>
        <time>2021-11-14T16:43:08Z</time>
      </trkpt>
      <trkpt lat="4.632577" lon="-74.934135">
        <ele>375.07446</ele>
        <time>2021-11-14T16:43:09Z</time>
      </trkpt>
      <trkpt lat="4.632577" lon="-74.934135">
        <ele>374.84265</ele>
        <time>2021-11-14T16:43:10Z</time>
      </trkpt>
      <trkpt lat="4.632356" lon="-74.934219">
        <ele>374.36316</ele>
        <time>2021-11-14T16:43:11Z</time>
      </trkpt>
      <trkpt lat="4.632146" lon="-74.934303">
        <ele>373.8324</ele>
        <time>2021-11-14T16:43:12Z</time>
      </trkpt>
      <trkpt lat="4.631909" lon="-74.934433">
        <ele>374.22815</ele>
        <time>2021-11-14T16:43:13Z</time>
      </trkpt>
      <trkpt lat="4.631665" lon="-74.934563">
        <ele>373.65955</ele>
        <time>2021-11-14T16:43:14Z</time>
      </trkpt>
      <trkpt lat="4.631411" lon="-74.934708">
        <ele>373.13165</ele>
        <time>2021-11-14T16:43:15Z</time>
      </trkpt>
      <trkpt lat="4.631156" lon="-74.934845">
        <ele>372.3999</ele>
        <time>2021-11-14T16:43:16Z</time>
      </trkpt>
      <trkpt lat="4.630897" lon="-74.93499">
        <ele>371.6908</ele>
        <time>2021-11-14T16:43:17Z</time>
      </trkpt>
      <trkpt lat="4.63064" lon="-74.935127">
        <ele>370.5763</ele>
        <time>2021-11-14T16:43:18Z</time>
      </trkpt>
      <trkpt lat="4.630372" lon="-74.935272">
        <ele>369.99548</ele>
        <time>2021-11-14T16:43:19Z</time>
      </trkpt>
      <trkpt lat="4.630074" lon="-74.935432">
        <ele>369.49615</ele>
        <time>2021-11-14T16:43:20Z</time>
      </trkpt>
      <trkpt lat="4.62978" lon="-74.935501">
        <ele>370.16858</ele>
        <time>2021-11-14T16:43:21Z</time>
      </trkpt>
      <trkpt lat="4.629462" lon="-74.93557">
        <ele>370.47986</ele>
        <time>2021-11-14T16:43:22Z</time>
      </trkpt>
      <trkpt lat="4.629143" lon="-74.935646">
        <ele>371.10596</ele>
        <time>2021-11-14T16:43:24Z</time>
      </trkpt>
      <trkpt lat="4.628824" lon="-74.935715">
        <ele>372.71265</ele>
        <time>2021-11-14T16:43:25Z</time>
      </trkpt>
      <trkpt lat="4.628502" lon="-74.935783">
        <ele>374.03424</ele>
        <time>2021-11-14T16:43:26Z</time>
      </trkpt>
      <trkpt lat="4.628178" lon="-74.935852">
        <ele>374.5896</ele>
        <time>2021-11-14T16:43:27Z</time>
      </trkpt>
      <trkpt lat="4.627916" lon="-74.935905">
        <ele>376.2616</ele>
        <time>2021-11-14T16:43:28Z</time>
      </trkpt>
      <trkpt lat="4.627648" lon="-74.935966">
        <ele>377.1853</ele>
        <time>2021-11-14T16:43:29Z</time>
      </trkpt>
      <trkpt lat="4.627391" lon="-74.93602">
        <ele>377.67395</ele>
        <time>2021-11-14T16:43:30Z</time>
      </trkpt>
      <trkpt lat="4.627208" lon="-74.936058">
        <ele>377.88568</ele>
        <time>2021-11-14T16:43:31Z</time>
      </trkpt>
      <trkpt lat="4.627002" lon="-74.936096">
        <ele>377.87787</ele>
        <time>2021-11-14T16:43:32Z</time>
      </trkpt>
      <trkpt lat="4.626794" lon="-74.936142">
        <ele>378.00397</ele>
        <time>2021-11-14T16:43:33Z</time>
      </trkpt>
      <trkpt lat="4.62659" lon="-74.936188">
        <ele>377.43317</ele>
        <time>2021-11-14T16:43:34Z</time>
      </trkpt>
      <trkpt lat="4.626424" lon="-74.936218">
        <ele>377.4273</ele>
        <time>2021-11-14T16:43:35Z</time>
      </trkpt>
      <trkpt lat="4.626202" lon="-74.936264">
        <ele>377.32495</ele>
        <time>2021-11-14T16:43:36Z</time>
      </trkpt>
      <trkpt lat="4.625962" lon="-74.936317">
        <ele>376.48816</ele>
        <time>2021-11-14T16:43:37Z</time>
      </trkpt>
      <trkpt lat="4.62573" lon="-74.936363">
        <ele>375.63232</ele>
        <time>2021-11-14T16:43:38Z</time>
      </trkpt>
      <trkpt lat="4.625456" lon="-74.936424">
        <ele>374.5504</ele>
        <time>2021-11-14T16:43:39Z</time>
      </trkpt>
      <trkpt lat="4.625175" lon="-74.936478">
        <ele>373.19415</ele>
        <time>2021-11-14T16:43:40Z</time>
      </trkpt>
      <trkpt lat="4.625175" lon="-74.936478">
        <ele>372.14026</ele>
        <time>2021-11-14T16:43:41Z</time>
      </trkpt>
      <trkpt lat="4.62487" lon="-74.936539">
        <ele>371.01508</ele>
        <time>2021-11-14T16:43:42Z</time>
      </trkpt>
      <trkpt lat="4.624601" lon="-74.936592">
        <ele>370.2578</ele>
        <time>2021-11-14T16:43:43Z</time>
      </trkpt>
      <trkpt lat="4.624363" lon="-74.936638">
        <ele>369.14734</ele>
        <time>2021-11-14T16:43:44Z</time>
      </trkpt>
      <trkpt lat="4.624117" lon="-74.936691">
        <ele>368.39014</ele>
        <time>2021-11-14T16:43:45Z</time>
      </trkpt>
      <trkpt lat="4.623563" lon="-74.936798">
        <ele>367.07642</ele>
        <time>2021-11-14T16:43:46Z</time>
      </trkpt>
      <trkpt lat="4.623354" lon="-74.936836">
        <ele>366.307</ele>
        <time>2021-11-14T16:43:47Z</time>
      </trkpt>
      <trkpt lat="4.623062" lon="-74.936897">
        <ele>365.7567</ele>
        <time>2021-11-14T16:43:48Z</time>
      </trkpt>
      <trkpt lat="4.62277" lon="-74.936958">
        <ele>364.89624</ele>
        <time>2021-11-14T16:43:49Z</time>
      </trkpt>
      <trkpt lat="4.622473" lon="-74.937012">
        <ele>364.48425</ele>
        <time>2021-11-14T16:43:50Z</time>
      </trkpt>
      <trkpt lat="4.622174" lon="-74.937073">
        <ele>363.08044</ele>
        <time>2021-11-14T16:43:51Z</time>
      </trkpt>
      <trkpt lat="4.621829" lon="-74.937141">
        <ele>361.9298</ele>
        <time>2021-11-14T16:43:52Z</time>
      </trkpt>
      <trkpt lat="4.621498" lon="-74.93721">
        <ele>360.00024</ele>
        <time>2021-11-14T16:43:53Z</time>
      </trkpt>
      <trkpt lat="4.62116" lon="-74.937279">
        <ele>358.53284</ele>
        <time>2021-11-14T16:43:54Z</time>
      </trkpt>
      <trkpt lat="4.62087" lon="-74.937332">
        <ele>357.99457</ele>
        <time>2021-11-14T16:43:55Z</time>
      </trkpt>
      <trkpt lat="4.62057" lon="-74.937393">
        <ele>356.88782</ele>
        <time>2021-11-14T16:43:56Z</time>
      </trkpt>
      <trkpt lat="4.620243" lon="-74.937454">
        <ele>357.18762</ele>
        <time>2021-11-14T16:43:57Z</time>
      </trkpt>
      <trkpt lat="4.619926" lon="-74.937523">
        <ele>357.7882</ele>
        <time>2021-11-14T16:43:58Z</time>
      </trkpt>
      <trkpt lat="4.619625" lon="-74.937584">
        <ele>358.87976</ele>
        <time>2021-11-14T16:43:59Z</time>
      </trkpt>
      <trkpt lat="4.619299" lon="-74.937645">
        <ele>360.20667</ele>
        <time>2021-11-14T16:44:00Z</time>
      </trkpt>
      <trkpt lat="4.619001" lon="-74.937706">
        <ele>361.05334</ele>
        <time>2021-11-14T16:44:01Z</time>
      </trkpt>
      <trkpt lat="4.618733" lon="-74.937759">
        <ele>362.30103</ele>
        <time>2021-11-14T16:44:02Z</time>
      </trkpt>
      <trkpt lat="4.61845" lon="-74.937813">
        <ele>361.66895</ele>
        <time>2021-11-14T16:44:03Z</time>
      </trkpt>
      <trkpt lat="4.618126" lon="-74.937881">
        <ele>361.08215</ele>
        <time>2021-11-14T16:44:04Z</time>
      </trkpt>
      <trkpt lat="4.617809" lon="-74.93795">
        <ele>361.20435</ele>
        <time>2021-11-14T16:44:05Z</time>
      </trkpt>
      <trkpt lat="4.617491" lon="-74.938019">
        <ele>360.35034</ele>
        <time>2021-11-14T16:44:06Z</time>
      </trkpt>
      <trkpt lat="4.617491" lon="-74.938019">
        <ele>361.3014</ele>
        <time>2021-11-14T16:44:07Z</time>
      </trkpt>
      <trkpt lat="4.6172" lon="-74.93808">
        <ele>361.21765</ele>
        <time>2021-11-14T16:44:08Z</time>
      </trkpt>
      <trkpt lat="4.616853" lon="-74.938148">
        <ele>362.19623</ele>
        <time>2021-11-14T16:44:09Z</time>
      </trkpt>
      <trkpt lat="4.616531" lon="-74.938217">
        <ele>362.06348</ele>
        <time>2021-11-14T16:44:10Z</time>
      </trkpt>
      <trkpt lat="4.616215" lon="-74.938286">
        <ele>361.53992</ele>
        <time>2021-11-14T16:44:11Z</time>
      </trkpt>
      <trkpt lat="4.615882" lon="-74.938354">
        <ele>361.8938</ele>
        <time>2021-11-14T16:44:12Z</time>
      </trkpt>
      <trkpt lat="4.615565" lon="-74.938423">
        <ele>361.63</ele>
        <time>2021-11-14T16:44:13Z</time>
      </trkpt>
      <trkpt lat="4.615237" lon="-74.938492">
        <ele>361.97937</ele>
        <time>2021-11-14T16:44:14Z</time>
      </trkpt>
      <trkpt lat="4.614965" lon="-74.938545">
        <ele>362.62036</ele>
        <time>2021-11-14T16:44:15Z</time>
      </trkpt>
      <trkpt lat="4.614676" lon="-74.938606">
        <ele>362.43854</ele>
        <time>2021-11-14T16:44:16Z</time>
      </trkpt>
      <trkpt lat="4.61438" lon="-74.938667">
        <ele>362.3692</ele>
        <time>2021-11-14T16:44:17Z</time>
      </trkpt>
      <trkpt lat="4.614138" lon="-74.938721">
        <ele>361.33044</ele>
        <time>2021-11-14T16:44:18Z</time>
      </trkpt>
      <trkpt lat="4.613847" lon="-74.938782">
        <ele>361.02588</ele>
        <time>2021-11-14T16:44:19Z</time>
      </trkpt>
      <trkpt lat="4.61354" lon="-74.938843">
        <ele>360.92017</ele>
        <time>2021-11-14T16:44:20Z</time>
      </trkpt>
      <trkpt lat="4.613246" lon="-74.938896">
        <ele>361.24615</ele>
        <time>2021-11-14T16:44:21Z</time>
      </trkpt>
      <trkpt lat="4.612944" lon="-74.938957">
        <ele>361.32782</ele>
        <time>2021-11-14T16:44:22Z</time>
      </trkpt>
      <trkpt lat="4.612629" lon="-74.939018">
        <ele>361.96027</ele>
        <time>2021-11-14T16:44:23Z</time>
      </trkpt>
      <trkpt lat="4.612318" lon="-74.939079">
        <ele>362.15277</ele>
        <time>2021-11-14T16:44:24Z</time>
      </trkpt>
      <trkpt lat="4.61201" lon="-74.93914">
        <ele>362.79956</ele>
        <time>2021-11-14T16:44:26Z</time>
      </trkpt>
      <trkpt lat="4.61169" lon="-74.939209">
        <ele>363.42554</ele>
        <time>2021-11-14T16:44:27Z</time>
      </trkpt>
      <trkpt lat="4.611413" lon="-74.939262">
        <ele>363.6134</ele>
        <time>2021-11-14T16:44:28Z</time>
      </trkpt>
      <trkpt lat="4.611168" lon="-74.939316">
        <ele>364.68567</ele>
        <time>2021-11-14T16:44:29Z</time>
      </trkpt>
      <trkpt lat="4.610896" lon="-74.939369">
        <ele>365.0918</ele>
        <time>2021-11-14T16:44:30Z</time>
      </trkpt>
      <trkpt lat="4.610626" lon="-74.93943">
        <ele>365.39697</ele>
        <time>2021-11-14T16:44:31Z</time>
      </trkpt>
      <trkpt lat="4.610333" lon="-74.939491">
        <ele>366.48315</ele>
        <time>2021-11-14T16:44:32Z</time>
      </trkpt>
      <trkpt lat="4.610039" lon="-74.939545">
        <ele>367.13562</ele>
        <time>2021-11-14T16:44:33Z</time>
      </trkpt>
      <trkpt lat="4.609742" lon="-74.939613">
        <ele>367.22913</ele>
        <time>2021-11-14T16:44:34Z</time>
      </trkpt>
      <trkpt lat="4.60945" lon="-74.939667">
        <ele>368.3094</ele>
        <time>2021-11-14T16:44:35Z</time>
      </trkpt>
      <trkpt lat="4.609149" lon="-74.939735">
        <ele>368.68494</ele>
        <time>2021-11-14T16:44:36Z</time>
      </trkpt>
      <trkpt lat="4.608882" lon="-74.939789">
        <ele>369.36804</ele>
        <time>2021-11-14T16:44:37Z</time>
      </trkpt>
      <trkpt lat="4.608882" lon="-74.939789">
        <ele>370.42456</ele>
        <time>2021-11-14T16:44:38Z</time>
      </trkpt>
      <trkpt lat="4.608591" lon="-74.93985">
        <ele>370.68298</ele>
        <time>2021-11-14T16:44:39Z</time>
      </trkpt>
      <trkpt lat="4.608339" lon="-74.939903">
        <ele>371.19403</ele>
        <time>2021-11-14T16:44:40Z</time>
      </trkpt>
      <trkpt lat="4.608109" lon="-74.939949">
        <ele>370.96753</ele>
        <time>2021-11-14T16:44:41Z</time>
      </trkpt>
      <trkpt lat="4.607912" lon="-74.939987">
        <ele>371.02734</ele>
        <time>2021-11-14T16:44:42Z</time>
      </trkpt>
      <trkpt lat="4.607716" lon="-74.940033">
        <ele>371.06262</ele>
        <time>2021-11-14T16:44:43Z</time>
      </trkpt>
      <trkpt lat="4.607526" lon="-74.940071">
        <ele>371.38513</ele>
        <time>2021-11-14T16:44:44Z</time>
      </trkpt>
      <trkpt lat="4.607364" lon="-74.940102">
        <ele>371.5691</ele>
        <time>2021-11-14T16:44:45Z</time>
      </trkpt>
      <trkpt lat="4.607264" lon="-74.940125">
        <ele>372.52466</ele>
        <time>2021-11-14T16:44:46Z</time>
      </trkpt>
      <trkpt lat="4.607133" lon="-74.940147">
        <ele>372.52307</ele>
        <time>2021-11-14T16:44:47Z</time>
      </trkpt>
      <trkpt lat="4.607003" lon="-74.94017">
        <ele>372.5531</ele>
        <time>2021-11-14T16:44:48Z</time>
      </trkpt>
      <trkpt lat="4.606759" lon="-74.940224">
        <ele>373.09235</ele>
        <time>2021-11-14T16:44:49Z</time>
      </trkpt>
      <trkpt lat="4.60661" lon="-74.940247">
        <ele>371.8711</ele>
        <time>2021-11-14T16:44:50Z</time>
      </trkpt>
      <trkpt lat="4.606479" lon="-74.940277">
        <ele>371.64978</ele>
        <time>2021-11-14T16:44:51Z</time>
      </trkpt>
      <trkpt lat="4.606313" lon="-74.940308">
        <ele>370.96277</ele>
        <time>2021-11-14T16:44:52Z</time>
      </trkpt>
      <trkpt lat="4.606035" lon="-74.940361">
        <ele>369.3838</ele>
        <time>2021-11-14T16:44:53Z</time>
      </trkpt>
      <trkpt lat="4.60573" lon="-74.940422">
        <ele>368.87225</ele>
        <time>2021-11-14T16:44:54Z</time>
      </trkpt>
      <trkpt lat="4.605485" lon="-74.940475">
        <ele>368.8819</ele>
        <time>2021-11-14T16:44:55Z</time>
      </trkpt>
      <trkpt lat="4.605189" lon="-74.940529">
        <ele>369.49884</ele>
        <time>2021-11-14T16:44:56Z</time>
      </trkpt>
      <trkpt lat="4.604849" lon="-74.940598">
        <ele>369.26764</ele>
        <time>2021-11-14T16:44:57Z</time>
      </trkpt>
      <trkpt lat="4.604526" lon="-74.940666">
        <ele>370.04895</ele>
        <time>2021-11-14T16:44:58Z</time>
      </trkpt>
      <trkpt lat="4.604194" lon="-74.940727">
        <ele>370.5315</ele>
        <time>2021-11-14T16:44:59Z</time>
      </trkpt>
      <trkpt lat="4.60385" lon="-74.940796">
        <ele>371.2621</ele>
        <time>2021-11-14T16:45:00Z</time>
      </trkpt>
      <trkpt lat="4.603481" lon="-74.940872">
        <ele>372.02234</ele>
        <time>2021-11-14T16:45:01Z</time>
      </trkpt>
      <trkpt lat="4.603142" lon="-74.940941">
        <ele>372.7699</ele>
        <time>2021-11-14T16:45:02Z</time>
      </trkpt>
      <trkpt lat="4.602826" lon="-74.94101">
        <ele>373.3452</ele>
        <time>2021-11-14T16:45:03Z</time>
      </trkpt>
      <trkpt lat="4.602557" lon="-74.941063">
        <ele>373.90942</ele>
        <time>2021-11-14T16:45:04Z</time>
      </trkpt>
      <trkpt lat="4.602256" lon="-74.941124">
        <ele>374.66516</ele>
        <time>2021-11-14T16:45:05Z</time>
      </trkpt>
      <trkpt lat="4.60196" lon="-74.941185">
        <ele>375.51923</ele>
        <time>2021-11-14T16:45:06Z</time>
      </trkpt>
      <trkpt lat="4.601702" lon="-74.941238">
        <ele>376.01562</ele>
        <time>2021-11-14T16:45:07Z</time>
      </trkpt>
      <trkpt lat="4.601508" lon="-74.941284">
        <ele>376.70032</ele>
        <time>2021-11-14T16:45:08Z</time>
      </trkpt>
      <trkpt lat="4.601294" lon="-74.94133">
        <ele>376.8955</ele>
        <time>2021-11-14T16:45:09Z</time>
      </trkpt>
      <trkpt lat="4.601294" lon="-74.94133">
        <ele>377.13757</ele>
        <time>2021-11-14T16:45:10Z</time>
      </trkpt>
      <trkpt lat="4.601044" lon="-74.941376">
        <ele>377.24365</ele>
        <time>2021-11-14T16:45:11Z</time>
      </trkpt>
      <trkpt lat="4.600821" lon="-74.941429">
        <ele>376.80164</ele>
        <time>2021-11-14T16:45:12Z</time>
      </trkpt>
      <trkpt lat="4.600589" lon="-74.941475">
        <ele>375.7777</ele>
        <time>2021-11-14T16:45:13Z</time>
      </trkpt>
      <trkpt lat="4.600332" lon="-74.941528">
        <ele>375.13904</ele>
        <time>2021-11-14T16:45:14Z</time>
      </trkpt>
      <trkpt lat="4.600061" lon="-74.941582">
        <ele>374.57776</ele>
        <time>2021-11-14T16:45:15Z</time>
      </trkpt>
      <trkpt lat="4.59978" lon="-74.941643">
        <ele>373.5503</ele>
        <time>2021-11-14T16:45:16Z</time>
      </trkpt>
      <trkpt lat="4.599521" lon="-74.941696">
        <ele>372.81403</ele>
        <time>2021-11-14T16:45:17Z</time>
      </trkpt>
      <trkpt lat="4.599231" lon="-74.941757">
        <ele>372.16724</ele>
        <time>2021-11-14T16:45:18Z</time>
      </trkpt>
      <trkpt lat="4.598952" lon="-74.941818">
        <ele>372.00403</ele>
        <time>2021-11-14T16:45:19Z</time>
      </trkpt>
      <trkpt lat="4.598663" lon="-74.941879">
        <ele>372.26465</ele>
        <time>2021-11-14T16:45:20Z</time>
      </trkpt>
      <trkpt lat="4.598411" lon="-74.941933">
        <ele>371.62207</ele>
        <time>2021-11-14T16:45:21Z</time>
      </trkpt>
      <trkpt lat="4.59817" lon="-74.941978">
        <ele>371.526</ele>
        <time>2021-11-14T16:45:23Z</time>
      </trkpt>
      <trkpt lat="4.597946" lon="-74.942024">
        <ele>371.83215</ele>
        <time>2021-11-14T16:45:24Z</time>
      </trkpt>
      <trkpt lat="4.597702" lon="-74.94207">
        <ele>372.90057</ele>
        <time>2021-11-14T16:45:25Z</time>
      </trkpt>
      <trkpt lat="4.597487" lon="-74.942108">
        <ele>374.12793</ele>
        <time>2021-11-14T16:45:26Z</time>
      </trkpt>
      <trkpt lat="4.597284" lon="-74.942139">
        <ele>374.11188</ele>
        <time>2021-11-14T16:45:27Z</time>
      </trkpt>
      <trkpt lat="4.597086" lon="-74.942169">
        <ele>373.39532</ele>
        <time>2021-11-14T16:45:28Z</time>
      </trkpt>
      <trkpt lat="4.596902" lon="-74.942192">
        <ele>373.63647</ele>
        <time>2021-11-14T16:45:29Z</time>
      </trkpt>
      <trkpt lat="4.596684" lon="-74.942223">
        <ele>373.38293</ele>
        <time>2021-11-14T16:45:30Z</time>
      </trkpt>
      <trkpt lat="4.596469" lon="-74.942223">
        <ele>373.71094</ele>
        <time>2021-11-14T16:45:31Z</time>
      </trkpt>
      <trkpt lat="4.596288" lon="-74.942223">
        <ele>373.84302</ele>
        <time>2021-11-14T16:45:32Z</time>
      </trkpt>
      <trkpt lat="4.596073" lon="-74.942207">
        <ele>374.33643</ele>
        <time>2021-11-14T16:45:33Z</time>
      </trkpt>
      <trkpt lat="4.595828" lon="-74.942169">
        <ele>374.76178</ele>
        <time>2021-11-14T16:45:34Z</time>
      </trkpt>
      <trkpt lat="4.595567" lon="-74.942116">
        <ele>375.2224</ele>
        <time>2021-11-14T16:45:35Z</time>
      </trkpt>
      <trkpt lat="4.595309" lon="-74.941994">
        <ele>375.45898</ele>
        <time>2021-11-14T16:45:36Z</time>
      </trkpt>
      <trkpt lat="4.595088" lon="-74.941864">
        <ele>375.19287</ele>
        <time>2021-11-14T16:45:37Z</time>
      </trkpt>
      <trkpt lat="4.594872" lon="-74.941711">
        <ele>375.54547</ele>
        <time>2021-11-14T16:45:38Z</time>
      </trkpt>
      <trkpt lat="4.594679" lon="-74.941566">
        <ele>375.73364</ele>
        <time>2021-11-14T16:45:39Z</time>
      </trkpt>
      <trkpt lat="4.594679" lon="-74.941566">
        <ele>375.4126</ele>
        <time>2021-11-14T16:45:40Z</time>
      </trkpt>
      <trkpt lat="4.594474" lon="-74.941406">
        <ele>375.36932</ele>
        <time>2021-11-14T16:45:41Z</time>
      </trkpt>
      <trkpt lat="4.594263" lon="-74.941238">
        <ele>375.2527</ele>
        <time>2021-11-14T16:45:42Z</time>
      </trkpt>
      <trkpt lat="4.594069" lon="-74.941086">
        <ele>375.0091</ele>
        <time>2021-11-14T16:45:43Z</time>
      </trkpt>
      <trkpt lat="4.593856" lon="-74.94091">
        <ele>375.66736</ele>
        <time>2021-11-14T16:45:44Z</time>
      </trkpt>
      <trkpt lat="4.593579" lon="-74.940674">
        <ele>378.4718</ele>
        <time>2021-11-14T16:45:45Z</time>
      </trkpt>
      <trkpt lat="4.59337" lon="-74.940491">
        <ele>379.36652</ele>
        <time>2021-11-14T16:45:46Z</time>
      </trkpt>
      <trkpt lat="4.593114" lon="-74.940285">
        <ele>382.25305</ele>
        <time>2021-11-14T16:45:47Z</time>
      </trkpt>
      <trkpt lat="4.59288" lon="-74.940094">
        <ele>383.75574</ele>
        <time>2021-11-14T16:45:48Z</time>
      </trkpt>
      <trkpt lat="4.592652" lon="-74.939911">
        <ele>384.93152</ele>
        <time>2021-11-14T16:45:49Z</time>
      </trkpt>
      <trkpt lat="4.592215" lon="-74.93959">
        <ele>388.58142</ele>
        <time>2021-11-14T16:45:50Z</time>
      </trkpt>
      <trkpt lat="4.591942" lon="-74.939445">
        <ele>389.95135</ele>
        <time>2021-11-14T16:45:51Z</time>
      </trkpt>
      <trkpt lat="4.591686" lon="-74.939323">
        <ele>391.84253</ele>
        <time>2021-11-14T16:45:52Z</time>
      </trkpt>
      <trkpt lat="4.591419" lon="-74.939247">
        <ele>393.17603</ele>
        <time>2021-11-14T16:45:53Z</time>
      </trkpt>
      <trkpt lat="4.591154" lon="-74.939217">
        <ele>394.6808</ele>
        <time>2021-11-14T16:45:54Z</time>
      </trkpt>
      <trkpt lat="4.590894" lon="-74.939186">
        <ele>396.16327</ele>
        <time>2021-11-14T16:45:55Z</time>
      </trkpt>
      <trkpt lat="4.590617" lon="-74.939148">
        <ele>397.4712</ele>
        <time>2021-11-14T16:45:56Z</time>
      </trkpt>
      <trkpt lat="4.590373" lon="-74.939117">
        <ele>398.4566</ele>
        <time>2021-11-14T16:45:57Z</time>
      </trkpt>
      <trkpt lat="4.590131" lon="-74.939125">
        <ele>399.26453</ele>
        <time>2021-11-14T16:45:58Z</time>
      </trkpt>
      <trkpt lat="4.589886" lon="-74.939178">
        <ele>399.78876</ele>
        <time>2021-11-14T16:45:59Z</time>
      </trkpt>
      <trkpt lat="4.589646" lon="-74.939232">
        <ele>399.81702</ele>
        <time>2021-11-14T16:46:00Z</time>
      </trkpt>
      <trkpt lat="4.589394" lon="-74.939285">
        <ele>399.79797</ele>
        <time>2021-11-14T16:46:01Z</time>
      </trkpt>
      <trkpt lat="4.589178" lon="-74.939384">
        <ele>400.12872</ele>
        <time>2021-11-14T16:46:02Z</time>
      </trkpt>
      <trkpt lat="4.588951" lon="-74.939529">
        <ele>400.52246</ele>
        <time>2021-11-14T16:46:03Z</time>
      </trkpt>
      <trkpt lat="4.588731" lon="-74.939674">
        <ele>401.20374</ele>
        <time>2021-11-14T16:46:04Z</time>
      </trkpt>
      <trkpt lat="4.588507" lon="-74.939812">
        <ele>401.82397</ele>
        <time>2021-11-14T16:46:05Z</time>
      </trkpt>
      <trkpt lat="4.588259" lon="-74.93998">
        <ele>402.5744</ele>
        <time>2021-11-14T16:46:06Z</time>
      </trkpt>
      <trkpt lat="4.588028" lon="-74.94017">
        <ele>403.0357</ele>
        <time>2021-11-14T16:46:07Z</time>
      </trkpt>
      <trkpt lat="4.588028" lon="-74.94017">
        <ele>403.59778</ele>
        <time>2021-11-14T16:46:08Z</time>
      </trkpt>
      <trkpt lat="4.587768" lon="-74.940399">
        <ele>404.20905</ele>
        <time>2021-11-14T16:46:09Z</time>
      </trkpt>
      <trkpt lat="4.587504" lon="-74.94062">
        <ele>404.67065</ele>
        <time>2021-11-14T16:46:10Z</time>
      </trkpt>
      <trkpt lat="4.587239" lon="-74.940849">
        <ele>405.08105</ele>
        <time>2021-11-14T16:46:11Z</time>
      </trkpt>
      <trkpt lat="4.586985" lon="-74.941071">
        <ele>405.59808</ele>
        <time>2021-11-14T16:46:12Z</time>
      </trkpt>
      <trkpt lat="4.586701" lon="-74.941315">
        <ele>406.05316</ele>
        <time>2021-11-14T16:46:13Z</time>
      </trkpt>
      <trkpt lat="4.58642" lon="-74.941551">
        <ele>406.33167</ele>
        <time>2021-11-14T16:46:14Z</time>
      </trkpt>
      <trkpt lat="4.586132" lon="-74.941795">
        <ele>406.15466</ele>
        <time>2021-11-14T16:46:15Z</time>
      </trkpt>
      <trkpt lat="4.585853" lon="-74.942039">
        <ele>406.61963</ele>
        <time>2021-11-14T16:46:16Z</time>
      </trkpt>
      <trkpt lat="4.585575" lon="-74.942276">
        <ele>406.6161</ele>
        <time>2021-11-14T16:46:17Z</time>
      </trkpt>
      <trkpt lat="4.585335" lon="-74.942482">
        <ele>406.92133</ele>
        <time>2021-11-14T16:46:18Z</time>
      </trkpt>
      <trkpt lat="4.585106" lon="-74.94268">
        <ele>407.35175</ele>
        <time>2021-11-14T16:46:19Z</time>
      </trkpt>
      <trkpt lat="4.584885" lon="-74.942863">
        <ele>408.01196</ele>
        <time>2021-11-14T16:46:21Z</time>
      </trkpt>
      <trkpt lat="4.584673" lon="-74.943047">
        <ele>408.04626</ele>
        <time>2021-11-14T16:46:22Z</time>
      </trkpt>
      <trkpt lat="4.584437" lon="-74.943253">
        <ele>408.3667</ele>
        <time>2021-11-14T16:46:23Z</time>
      </trkpt>
      <trkpt lat="4.584173" lon="-74.943474">
        <ele>408.65533</ele>
        <time>2021-11-14T16:46:24Z</time>
      </trkpt>
      <trkpt lat="4.583929" lon="-74.943687">
        <ele>409.305</ele>
        <time>2021-11-14T16:46:25Z</time>
      </trkpt>
      <trkpt lat="4.583683" lon="-74.943893">
        <ele>409.6676</ele>
        <time>2021-11-14T16:46:26Z</time>
      </trkpt>
      <trkpt lat="4.583435" lon="-74.944107">
        <ele>410.3864</ele>
        <time>2021-11-14T16:46:27Z</time>
      </trkpt>
      <trkpt lat="4.583181" lon="-74.944328">
        <ele>410.91418</ele>
        <time>2021-11-14T16:46:28Z</time>
      </trkpt>
      <trkpt lat="4.582912" lon="-74.944557">
        <ele>411.78723</ele>
        <time>2021-11-14T16:46:29Z</time>
      </trkpt>
      <trkpt lat="4.582656" lon="-74.944771">
        <ele>412.77393</ele>
        <time>2021-11-14T16:46:30Z</time>
      </trkpt>
      <trkpt lat="4.582435" lon="-74.944962">
        <ele>413.29175</ele>
        <time>2021-11-14T16:46:31Z</time>
      </trkpt>
      <trkpt lat="4.582206" lon="-74.94516">
        <ele>413.81274</ele>
        <time>2021-11-14T16:46:32Z</time>
      </trkpt>
      <trkpt lat="4.581959" lon="-74.945374">
        <ele>414.51843</ele>
        <time>2021-11-14T16:46:33Z</time>
      </trkpt>
      <trkpt lat="4.58172" lon="-74.94558">
        <ele>415.30945</ele>
        <time>2021-11-14T16:46:34Z</time>
      </trkpt>
      <trkpt lat="4.58172" lon="-74.94558">
        <ele>415.9756</ele>
        <time>2021-11-14T16:46:35Z</time>
      </trkpt>
      <trkpt lat="4.581525" lon="-74.94574">
        <ele>416.51715</ele>
        <time>2021-11-14T16:46:36Z</time>
      </trkpt>
      <trkpt lat="4.581333" lon="-74.945892">
        <ele>417.38757</ele>
        <time>2021-11-14T16:46:37Z</time>
      </trkpt>
      <trkpt lat="4.581114" lon="-74.946075">
        <ele>417.78064</ele>
        <time>2021-11-14T16:46:38Z</time>
      </trkpt>
      <trkpt lat="4.580882" lon="-74.946259">
        <ele>417.9702</ele>
        <time>2021-11-14T16:46:39Z</time>
      </trkpt>
      <trkpt lat="4.580671" lon="-74.946404">
        <ele>418.54993</ele>
        <time>2021-11-14T16:46:40Z</time>
      </trkpt>
      <trkpt lat="4.580443" lon="-74.946571">
        <ele>419.28833</ele>
        <time>2021-11-14T16:46:41Z</time>
      </trkpt>
      <trkpt lat="4.580215" lon="-74.946732">
        <ele>420.19653</ele>
        <time>2021-11-14T16:46:42Z</time>
      </trkpt>
      <trkpt lat="4.579987" lon="-74.946899">
        <ele>420.88123</ele>
        <time>2021-11-14T16:46:43Z</time>
      </trkpt>
      <trkpt lat="4.579737" lon="-74.947067">
        <ele>421.27026</ele>
        <time>2021-11-14T16:46:44Z</time>
      </trkpt>
      <trkpt lat="4.579495" lon="-74.947212">
        <ele>421.86218</ele>
        <time>2021-11-14T16:46:45Z</time>
      </trkpt>
      <trkpt lat="4.579248" lon="-74.947365">
        <ele>422.21582</ele>
        <time>2021-11-14T16:46:46Z</time>
      </trkpt>
      <trkpt lat="4.579002" lon="-74.94751">
        <ele>422.78473</ele>
        <time>2021-11-14T16:46:47Z</time>
      </trkpt>
      <trkpt lat="4.578749" lon="-74.947662">
        <ele>423.38647</ele>
        <time>2021-11-14T16:46:48Z</time>
      </trkpt>
      <trkpt lat="4.578485" lon="-74.947823">
        <ele>423.8105</ele>
        <time>2021-11-14T16:46:49Z</time>
      </trkpt>
      <trkpt lat="4.578201" lon="-74.94799">
        <ele>424.0531</ele>
        <time>2021-11-14T16:46:50Z</time>
      </trkpt>
      <trkpt lat="4.577933" lon="-74.948151">
        <ele>424.44556</ele>
        <time>2021-11-14T16:46:51Z</time>
      </trkpt>
      <trkpt lat="4.577658" lon="-74.948311">
        <ele>425.19446</ele>
        <time>2021-11-14T16:46:52Z</time>
      </trkpt>
      <trkpt lat="4.577362" lon="-74.948479">
        <ele>426.13318</ele>
        <time>2021-11-14T16:46:53Z</time>
      </trkpt>
      <trkpt lat="4.577074" lon="-74.948639">
        <ele>426.56067</ele>
        <time>2021-11-14T16:46:54Z</time>
      </trkpt>
      <trkpt lat="4.57679" lon="-74.948799">
        <ele>427.14233</ele>
        <time>2021-11-14T16:46:55Z</time>
      </trkpt>
      <trkpt lat="4.576508" lon="-74.948959">
        <ele>427.42896</ele>
        <time>2021-11-14T16:46:56Z</time>
      </trkpt>
      <trkpt lat="4.576227" lon="-74.94912">
        <ele>427.9641</ele>
        <time>2021-11-14T16:46:57Z</time>
      </trkpt>
      <trkpt lat="4.575956" lon="-74.94928">
        <ele>428.53943</ele>
        <time>2021-11-14T16:46:58Z</time>
      </trkpt>
      <trkpt lat="4.57569" lon="-74.949425">
        <ele>429.14532</ele>
        <time>2021-11-14T16:46:59Z</time>
      </trkpt>
      <trkpt lat="4.575426" lon="-74.949577">
        <ele>429.57037</ele>
        <time>2021-11-14T16:47:00Z</time>
      </trkpt>
      <trkpt lat="4.575155" lon="-74.949738">
        <ele>429.93433</ele>
        <time>2021-11-14T16:47:01Z</time>
      </trkpt>
      <trkpt lat="4.574602" lon="-74.95005">
        <ele>430.81952</ele>
        <time>2021-11-14T16:47:02Z</time>
      </trkpt>
      <trkpt lat="4.574316" lon="-74.950211">
        <ele>431.65112</ele>
        <time>2021-11-14T16:47:03Z</time>
      </trkpt>
      <trkpt lat="4.574041" lon="-74.950371">
        <ele>431.73267</ele>
        <time>2021-11-14T16:47:04Z</time>
      </trkpt>
      <trkpt lat="4.573772" lon="-74.950523">
        <ele>432.3844</ele>
        <time>2021-11-14T16:47:05Z</time>
      </trkpt>
      <trkpt lat="4.573772" lon="-74.950523">
        <ele>432.52112</ele>
        <time>2021-11-14T16:47:06Z</time>
      </trkpt>
      <trkpt lat="4.573483" lon="-74.950684">
        <ele>433.0702</ele>
        <time>2021-11-14T16:47:07Z</time>
      </trkpt>
      <trkpt lat="4.573215" lon="-74.950836">
        <ele>433.6958</ele>
        <time>2021-11-14T16:47:08Z</time>
      </trkpt>
      <trkpt lat="4.572959" lon="-74.950981">
        <ele>434.6411</ele>
        <time>2021-11-14T16:47:09Z</time>
      </trkpt>
      <trkpt lat="4.572708" lon="-74.951073">
        <ele>435.1256</ele>
        <time>2021-11-14T16:47:10Z</time>
      </trkpt>
      <trkpt lat="4.572488" lon="-74.95118">
        <ele>435.38702</ele>
        <time>2021-11-14T16:47:11Z</time>
      </trkpt>
      <trkpt lat="4.572289" lon="-74.951393">
        <ele>435.7259</ele>
        <time>2021-11-14T16:47:12Z</time>
      </trkpt>
      <trkpt lat="4.572047" lon="-74.951645">
        <ele>436.2771</ele>
        <time>2021-11-14T16:47:13Z</time>
      </trkpt>
      <trkpt lat="4.571878" lon="-74.95182">
        <ele>436.2478</ele>
        <time>2021-11-14T16:47:14Z</time>
      </trkpt>
      <trkpt lat="4.571711" lon="-74.951988">
        <ele>436.0824</ele>
        <time>2021-11-14T16:47:15Z</time>
      </trkpt>
      <trkpt lat="4.571573" lon="-74.952126">
        <ele>436.36304</ele>
        <time>2021-11-14T16:47:16Z</time>
      </trkpt>
      <trkpt lat="4.571462" lon="-74.952248">
        <ele>436.04626</ele>
        <time>2021-11-14T16:47:17Z</time>
      </trkpt>
      <trkpt lat="4.571373" lon="-74.952347">
        <ele>436.6855</ele>
        <time>2021-11-14T16:47:18Z</time>
      </trkpt>
      <trkpt lat="4.571302" lon="-74.952431">
        <ele>438.22668</ele>
        <time>2021-11-14T16:47:19Z</time>
      </trkpt>
      <trkpt lat="4.571205" lon="-74.952553">
        <ele>437.9115</ele>
        <time>2021-11-14T16:47:20Z</time>
      </trkpt>
      <trkpt lat="4.571105" lon="-74.952667">
        <ele>438.22803</ele>
        <time>2021-11-14T16:47:22Z</time>
      </trkpt>
      <trkpt lat="4.570994" lon="-74.952805">
        <ele>438.1211</ele>
        <time>2021-11-14T16:47:23Z</time>
      </trkpt>
      <trkpt lat="4.570879" lon="-74.952934">
        <ele>438.4906</ele>
        <time>2021-11-14T16:47:24Z</time>
      </trkpt>
      <trkpt lat="4.570763" lon="-74.953072">
        <ele>438.57312</ele>
        <time>2021-11-14T16:47:25Z</time>
      </trkpt>
      <trkpt lat="4.570639" lon="-74.953224">
        <ele>438.78522</ele>
        <time>2021-11-14T16:47:26Z</time>
      </trkpt>
      <trkpt lat="4.570525" lon="-74.953369">
        <ele>439.07983</ele>
        <time>2021-11-14T16:47:27Z</time>
      </trkpt>
      <trkpt lat="4.570412" lon="-74.953514">
        <ele>439.052</ele>
        <time>2021-11-14T16:47:28Z</time>
      </trkpt>
      <trkpt lat="4.570289" lon="-74.953674">
        <ele>439.38593</ele>
        <time>2021-11-14T16:47:29Z</time>
      </trkpt>
      <trkpt lat="4.570139" lon="-74.953819">
        <ele>439.49048</ele>
        <time>2021-11-14T16:47:30Z</time>
      </trkpt>
      <trkpt lat="4.569956" lon="-74.953957">
        <ele>440.35913</ele>
        <time>2021-11-14T16:47:31Z</time>
      </trkpt>
      <trkpt lat="4.569818" lon="-74.954063">
        <ele>440.89935</ele>
        <time>2021-11-14T16:47:32Z</time>
      </trkpt>
      <trkpt lat="4.569663" lon="-74.954163">
        <ele>440.48157</ele>
        <time>2021-11-14T16:47:33Z</time>
      </trkpt>
      <trkpt lat="4.569473" lon="-74.954269">
        <ele>440.82776</ele>
        <time>2021-11-14T16:47:34Z</time>
      </trkpt>
      <trkpt lat="4.569289" lon="-74.954376">
        <ele>440.65796</ele>
        <time>2021-11-14T16:47:35Z</time>
      </trkpt>
      <trkpt lat="4.569289" lon="-74.954376">
        <ele>440.7467</ele>
        <time>2021-11-14T16:47:36Z</time>
      </trkpt>
      <trkpt lat="4.569136" lon="-74.95446">
        <ele>440.5196</ele>
        <time>2021-11-14T16:47:37Z</time>
      </trkpt>
      <trkpt lat="4.568999" lon="-74.954529">
        <ele>440.41406</ele>
        <time>2021-11-14T16:47:38Z</time>
      </trkpt>
      <trkpt lat="4.568895" lon="-74.954575">
        <ele>440.84033</ele>
        <time>2021-11-14T16:47:39Z</time>
      </trkpt>
      <trkpt lat="4.568772" lon="-74.954628">
        <ele>440.27515</ele>
        <time>2021-11-14T16:47:40Z</time>
      </trkpt>
      <trkpt lat="4.568634" lon="-74.954681">
        <ele>440.3239</ele>
        <time>2021-11-14T16:47:41Z</time>
      </trkpt>
      <trkpt lat="4.5685" lon="-74.954735">
        <ele>440.45496</ele>
        <time>2021-11-14T16:47:42Z</time>
      </trkpt>
      <trkpt lat="4.568334" lon="-74.954803">
        <ele>440.6277</ele>
        <time>2021-11-14T16:47:43Z</time>
      </trkpt>
      <trkpt lat="4.568171" lon="-74.954872">
        <ele>441.10144</ele>
        <time>2021-11-14T16:47:44Z</time>
      </trkpt>
      <trkpt lat="4.567995" lon="-74.954941">
        <ele>441.6062</ele>
        <time>2021-11-14T16:47:45Z</time>
      </trkpt>
      <trkpt lat="4.567818" lon="-74.955009">
        <ele>441.74384</ele>
        <time>2021-11-14T16:47:46Z</time>
      </trkpt>
      <trkpt lat="4.567609" lon="-74.955086">
        <ele>441.9065</ele>
        <time>2021-11-14T16:47:47Z</time>
      </trkpt>
      <trkpt lat="4.567433" lon="-74.955154">
        <ele>442.50916</ele>
        <time>2021-11-14T16:47:48Z</time>
      </trkpt>
      <trkpt lat="4.567247" lon="-74.955223">
        <ele>442.64148</ele>
        <time>2021-11-14T16:47:49Z</time>
      </trkpt>
      <trkpt lat="4.567048" lon="-74.955284">
        <ele>442.9928</ele>
        <time>2021-11-14T16:47:50Z</time>
      </trkpt>
      <trkpt lat="4.566864" lon="-74.955338">
        <ele>443.62952</ele>
        <time>2021-11-14T16:47:51Z</time>
      </trkpt>
      <trkpt lat="4.566691" lon="-74.955399">
        <ele>443.77075</ele>
        <time>2021-11-14T16:47:52Z</time>
      </trkpt>
      <trkpt lat="4.566567" lon="-74.955452">
        <ele>444.0785</ele>
        <time>2021-11-14T16:47:53Z</time>
      </trkpt>
      <trkpt lat="4.566434" lon="-74.955505">
        <ele>444.25848</ele>
        <time>2021-11-14T16:47:54Z</time>
      </trkpt>
      <trkpt lat="4.566287" lon="-74.955574">
        <ele>444.77747</ele>
        <time>2021-11-14T16:47:55Z</time>
      </trkpt>
      <trkpt lat="4.566175" lon="-74.95562">
        <ele>445.1996</ele>
        <time>2021-11-14T16:47:56Z</time>
      </trkpt>
      <trkpt lat="4.566072" lon="-74.955666">
        <ele>445.51538</ele>
        <time>2021-11-14T16:47:57Z</time>
      </trkpt>
      <trkpt lat="4.565921" lon="-74.955704">
        <ele>445.54504</ele>
        <time>2021-11-14T16:47:58Z</time>
      </trkpt>
      <trkpt lat="4.565751" lon="-74.955742">
        <ele>445.9994</ele>
        <time>2021-11-14T16:47:59Z</time>
      </trkpt>
      <trkpt lat="4.565547" lon="-74.955788">
        <ele>446.2633</ele>
        <time>2021-11-14T16:48:00Z</time>
      </trkpt>
      <trkpt lat="4.565313" lon="-74.955833">
        <ele>446.6455</ele>
        <time>2021-11-14T16:48:01Z</time>
      </trkpt>
      <trkpt lat="4.564851" lon="-74.955841">
        <ele>447.11206</ele>
        <time>2021-11-14T16:48:02Z</time>
      </trkpt>
      <trkpt lat="4.564583" lon="-74.955841">
        <ele>447.34607</ele>
        <time>2021-11-14T16:48:03Z</time>
      </trkpt>
      <trkpt lat="4.564362" lon="-74.955833">
        <ele>446.49463</ele>
        <time>2021-11-14T16:48:04Z</time>
      </trkpt>
      <trkpt lat="4.564145" lon="-74.955811">
        <ele>446.64417</ele>
        <time>2021-11-14T16:48:05Z</time>
      </trkpt>
      <trkpt lat="4.563913" lon="-74.955788">
        <ele>447.6703</ele>
        <time>2021-11-14T16:48:06Z</time>
      </trkpt>
      <trkpt lat="4.563742" lon="-74.955765">
        <ele>448.2232</ele>
        <time>2021-11-14T16:48:07Z</time>
      </trkpt>
      <trkpt lat="4.563742" lon="-74.955765">
        <ele>448.67175</ele>
        <time>2021-11-14T16:48:08Z</time>
      </trkpt>
      <trkpt lat="4.563577" lon="-74.955742">
        <ele>448.96667</ele>
        <time>2021-11-14T16:48:09Z</time>
      </trkpt>
      <trkpt lat="4.563431" lon="-74.955727">
        <ele>449.1952</ele>
        <time>2021-11-14T16:48:10Z</time>
      </trkpt>
      <trkpt lat="4.563249" lon="-74.955696">
        <ele>449.34143</ele>
        <time>2021-11-14T16:48:11Z</time>
      </trkpt>
      <trkpt lat="4.56311" lon="-74.955681">
        <ele>449.46912</ele>
        <time>2021-11-14T16:48:12Z</time>
      </trkpt>
      <trkpt lat="4.562963" lon="-74.955658">
        <ele>450.27966</ele>
        <time>2021-11-14T16:48:13Z</time>
      </trkpt>
      <trkpt lat="4.562821" lon="-74.955635">
        <ele>450.74622</ele>
        <time>2021-11-14T16:48:14Z</time>
      </trkpt>
      <trkpt lat="4.562655" lon="-74.955612">
        <ele>451.00385</ele>
        <time>2021-11-14T16:48:15Z</time>
      </trkpt>
      <trkpt lat="4.562426" lon="-74.955597">
        <ele>451.4704</ele>
        <time>2021-11-14T16:48:16Z</time>
      </trkpt>
      <trkpt lat="4.562212" lon="-74.955589">
        <ele>451.86188</ele>
        <time>2021-11-14T16:48:17Z</time>
      </trkpt>
      <trkpt lat="4.561988" lon="-74.955597">
        <ele>452.17767</ele>
        <time>2021-11-14T16:48:18Z</time>
      </trkpt>
      <trkpt lat="4.561788" lon="-74.95562">
        <ele>451.7345</ele>
        <time>2021-11-14T16:48:19Z</time>
      </trkpt>
      <trkpt lat="4.561593" lon="-74.955643">
        <ele>452.39</ele>
        <time>2021-11-14T16:48:20Z</time>
      </trkpt>
      <trkpt lat="4.561374" lon="-74.955681">
        <ele>452.7848</ele>
        <time>2021-11-14T16:48:22Z</time>
      </trkpt>
      <trkpt lat="4.561155" lon="-74.955719">
        <ele>452.99927</ele>
        <time>2021-11-14T16:48:23Z</time>
      </trkpt>
      <trkpt lat="4.560995" lon="-74.955765">
        <ele>453.69592</ele>
        <time>2021-11-14T16:48:24Z</time>
      </trkpt>
      <trkpt lat="4.56079" lon="-74.955849">
        <ele>454.4886</ele>
        <time>2021-11-14T16:48:25Z</time>
      </trkpt>
      <trkpt lat="4.560569" lon="-74.955956">
        <ele>455.0349</ele>
        <time>2021-11-14T16:48:26Z</time>
      </trkpt>
      <trkpt lat="4.560355" lon="-74.956055">
        <ele>455.128</ele>
        <time>2021-11-14T16:48:27Z</time>
      </trkpt>
      <trkpt lat="4.560143" lon="-74.956154">
        <ele>456.15698</ele>
        <time>2021-11-14T16:48:28Z</time>
      </trkpt>
      <trkpt lat="4.559912" lon="-74.956261">
        <ele>456.39893</ele>
        <time>2021-11-14T16:48:29Z</time>
      </trkpt>
      <trkpt lat="4.559701" lon="-74.956352">
        <ele>456.79327</ele>
        <time>2021-11-14T16:48:30Z</time>
      </trkpt>
      <trkpt lat="4.559501" lon="-74.956444">
        <ele>457.3427</ele>
        <time>2021-11-14T16:48:31Z</time>
      </trkpt>
      <trkpt lat="4.559268" lon="-74.956543">
        <ele>457.55188</ele>
        <time>2021-11-14T16:48:32Z</time>
      </trkpt>
      <trkpt lat="4.559043" lon="-74.956642">
        <ele>458.26257</ele>
        <time>2021-11-14T16:48:33Z</time>
      </trkpt>
      <trkpt lat="4.558821" lon="-74.956741">
        <ele>458.94928</ele>
        <time>2021-11-14T16:48:34Z</time>
      </trkpt>
      <trkpt lat="4.558586" lon="-74.956848">
        <ele>459.87744</ele>
        <time>2021-11-14T16:48:35Z</time>
      </trkpt>
      <trkpt lat="4.558304" lon="-74.95697">
        <ele>460.45154</ele>
        <time>2021-11-14T16:48:36Z</time>
      </trkpt>
      <trkpt lat="4.558058" lon="-74.957077">
        <ele>461.31042</ele>
        <time>2021-11-14T16:48:37Z</time>
      </trkpt>
      <trkpt lat="4.558058" lon="-74.957077">
        <ele>462.19427</ele>
        <time>2021-11-14T16:48:38Z</time>
      </trkpt>
      <trkpt lat="4.557786" lon="-74.957199">
        <ele>462.92773</ele>
        <time>2021-11-14T16:48:39Z</time>
      </trkpt>
      <trkpt lat="4.557512" lon="-74.957321">
        <ele>463.82617</ele>
        <time>2021-11-14T16:48:40Z</time>
      </trkpt>
      <trkpt lat="4.557216" lon="-74.957451">
        <ele>464.5907</ele>
        <time>2021-11-14T16:48:41Z</time>
      </trkpt>
      <trkpt lat="4.556964" lon="-74.957558">
        <ele>465.10272</ele>
        <time>2021-11-14T16:48:42Z</time>
      </trkpt>
      <trkpt lat="4.5567" lon="-74.957672">
        <ele>465.74414</ele>
        <time>2021-11-14T16:48:43Z</time>
      </trkpt>
      <trkpt lat="4.556434" lon="-74.957771">
        <ele>466.01672</ele>
        <time>2021-11-14T16:48:44Z</time>
      </trkpt>
      <trkpt lat="4.556153" lon="-74.95787">
        <ele>466.90894</ele>
        <time>2021-11-14T16:48:45Z</time>
      </trkpt>
      <trkpt lat="4.555851" lon="-74.957977">
        <ele>467.33826</ele>
        <time>2021-11-14T16:48:46Z</time>
      </trkpt>
      <trkpt lat="4.555553" lon="-74.958076">
        <ele>467.98486</ele>
        <time>2021-11-14T16:48:47Z</time>
      </trkpt>
      <trkpt lat="4.555286" lon="-74.95816">
        <ele>468.57886</ele>
        <time>2021-11-14T16:48:48Z</time>
      </trkpt>
      <trkpt lat="4.555022" lon="-74.95826">
        <ele>468.61487</ele>
        <time>2021-11-14T16:48:49Z</time>
      </trkpt>
      <trkpt lat="4.554739" lon="-74.958366">
        <ele>469.17725</ele>
        <time>2021-11-14T16:48:50Z</time>
      </trkpt>
      <trkpt lat="4.554485" lon="-74.958466">
        <ele>469.66992</ele>
        <time>2021-11-14T16:48:51Z</time>
      </trkpt>
      <trkpt lat="4.554239" lon="-74.958557">
        <ele>470.11554</ele>
        <time>2021-11-14T16:48:52Z</time>
      </trkpt>
      <trkpt lat="4.553959" lon="-74.958664">
        <ele>470.39154</ele>
        <time>2021-11-14T16:48:53Z</time>
      </trkpt>
      <trkpt lat="4.553684" lon="-74.958771">
        <ele>470.46533</ele>
        <time>2021-11-14T16:48:54Z</time>
      </trkpt>
      <trkpt lat="4.553126" lon="-74.958984">
        <ele>471.06323</ele>
        <time>2021-11-14T16:48:55Z</time>
      </trkpt>
      <trkpt lat="4.552866" lon="-74.959091">
        <ele>471.27783</ele>
        <time>2021-11-14T16:48:56Z</time>
      </trkpt>
      <trkpt lat="4.552617" lon="-74.959183">
        <ele>471.60352</ele>
        <time>2021-11-14T16:48:57Z</time>
      </trkpt>
      <trkpt lat="4.552351" lon="-74.95929">
        <ele>472.00684</ele>
        <time>2021-11-14T16:48:58Z</time>
      </trkpt>
      <trkpt lat="4.552061" lon="-74.959396">
        <ele>472.3416</ele>
        <time>2021-11-14T16:48:59Z</time>
      </trkpt>
      <trkpt lat="4.551812" lon="-74.959496">
        <ele>472.80823</ele>
        <time>2021-11-14T16:49:00Z</time>
      </trkpt>
      <trkpt lat="4.551541" lon="-74.959618">
        <ele>473.15686</ele>
        <time>2021-11-14T16:49:01Z</time>
      </trkpt>
      <trkpt lat="4.551271" lon="-74.959763">
        <ele>473.50476</ele>
        <time>2021-11-14T16:49:02Z</time>
      </trkpt>
      <trkpt lat="4.551019" lon="-74.959892">
        <ele>474.06628</ele>
        <time>2021-11-14T16:49:03Z</time>
      </trkpt>
      <trkpt lat="4.55076" lon="-74.96003">
        <ele>474.6822</ele>
        <time>2021-11-14T16:49:04Z</time>
      </trkpt>
      <trkpt lat="4.550518" lon="-74.960152">
        <ele>475.4331</ele>
        <time>2021-11-14T16:49:05Z</time>
      </trkpt>
      <trkpt lat="4.550306" lon="-74.960266">
        <ele>475.95544</ele>
        <time>2021-11-14T16:49:06Z</time>
      </trkpt>
      <trkpt lat="4.550072" lon="-74.960388">
        <ele>476.75592</ele>
        <time>2021-11-14T16:49:07Z</time>
      </trkpt>
      <trkpt lat="4.549841" lon="-74.96051">
        <ele>477.26416</ele>
        <time>2021-11-14T16:49:08Z</time>
      </trkpt>
      <trkpt lat="4.549616" lon="-74.960632">
        <ele>477.77454</ele>
        <time>2021-11-14T16:49:09Z</time>
      </trkpt>
      <trkpt lat="4.549398" lon="-74.960747">
        <ele>478.2688</ele>
        <time>2021-11-14T16:49:10Z</time>
      </trkpt>
      <trkpt lat="4.549223" lon="-74.960838">
        <ele>478.74878</ele>
        <time>2021-11-14T16:49:11Z</time>
      </trkpt>
      <trkpt lat="4.549014" lon="-74.960953">
        <ele>479.34503</ele>
        <time>2021-11-14T16:49:12Z</time>
      </trkpt>
      <trkpt lat="4.549014" lon="-74.960953">
        <ele>480.2976</ele>
        <time>2021-11-14T16:49:13Z</time>
      </trkpt>
      <trkpt lat="4.548828" lon="-74.961052">
        <ele>480.4911</ele>
        <time>2021-11-14T16:49:14Z</time>
      </trkpt>
      <trkpt lat="4.548591" lon="-74.961182">
        <ele>481.14197</ele>
        <time>2021-11-14T16:49:15Z</time>
      </trkpt>
      <trkpt lat="4.548403" lon="-74.961288">
        <ele>481.5016</ele>
        <time>2021-11-14T16:49:16Z</time>
      </trkpt>
      <trkpt lat="4.548245" lon="-74.961372">
        <ele>482.01624</ele>
        <time>2021-11-14T16:49:17Z</time>
      </trkpt>
      <trkpt lat="4.548075" lon="-74.961464">
        <ele>482.71454</ele>
        <time>2021-11-14T16:49:18Z</time>
      </trkpt>
      <trkpt lat="4.547922" lon="-74.961548">
        <ele>482.92792</ele>
        <time>2021-11-14T16:49:19Z</time>
      </trkpt>
      <trkpt lat="4.54779" lon="-74.961617">
        <ele>483.30505</ele>
        <time>2021-11-14T16:49:20Z</time>
      </trkpt>
      <trkpt lat="4.547667" lon="-74.961685">
        <ele>483.36462</ele>
        <time>2021-11-14T16:49:21Z</time>
      </trkpt>
      <trkpt lat="4.547549" lon="-74.961754">
        <ele>483.57422</ele>
        <time>2021-11-14T16:49:22Z</time>
      </trkpt>
      <trkpt lat="4.547446" lon="-74.961807">
        <ele>483.85754</ele>
        <time>2021-11-14T16:49:23Z</time>
      </trkpt>
      <trkpt lat="4.547351" lon="-74.961861">
        <ele>484.04144</ele>
        <time>2021-11-14T16:49:24Z</time>
      </trkpt>
      <trkpt lat="4.54727" lon="-74.961906">
        <ele>484.3322</ele>
        <time>2021-11-14T16:49:25Z</time>
      </trkpt>
      <trkpt lat="4.547224" lon="-74.961929">
        <ele>484.4428</ele>
        <time>2021-11-14T16:49:27Z</time>
      </trkpt>
      <trkpt lat="4.547179" lon="-74.961952">
        <ele>484.5133</ele>
        <time>2021-11-14T16:49:28Z</time>
      </trkpt>
      <trkpt lat="4.547121" lon="-74.961983">
        <ele>484.46503</ele>
        <time>2021-11-14T16:49:29Z</time>
      </trkpt>
      <trkpt lat="4.547073" lon="-74.962013">
        <ele>484.74487</ele>
        <time>2021-11-14T16:49:30Z</time>
      </trkpt>
      <trkpt lat="4.547062" lon="-74.962021">
        <ele>484.59973</ele>
        <time>2021-11-14T16:49:31Z</time>
      </trkpt>
      <trkpt lat="4.547062" lon="-74.962021">
        <ele>484.56067</ele>
        <time>2021-11-14T16:49:32Z</time>
      </trkpt>
      <trkpt lat="4.547062" lon="-74.962021">
        <ele>484.7627</ele>
        <time>2021-11-14T16:49:33Z</time>
      </trkpt>
      <trkpt lat="4.547062" lon="-74.962021">
        <ele>483.984</ele>
        <time>2021-11-14T16:49:34Z</time>
      </trkpt>
      <trkpt lat="4.54705" lon="-74.962029">
        <ele>484.47162</ele>
        <time>2021-11-14T16:49:35Z</time>
      </trkpt>
      <trkpt lat="4.547016" lon="-74.962044">
        <ele>484.01147</ele>
        <time>2021-11-14T16:49:36Z</time>
      </trkpt>
      <trkpt lat="4.547136" lon="-74.961861">
        <ele>483.70093</ele>
        <time>2021-11-14T16:49:37Z</time>
      </trkpt>
      <trkpt lat="4.547136" lon="-74.961861">
        <ele>483.16364</ele>
        <time>2021-11-14T16:49:38Z</time>
      </trkpt>
      <trkpt lat="4.547137" lon="-74.961815">
        <ele>482.99292</ele>
        <time>2021-11-14T16:49:39Z</time>
      </trkpt>
      <trkpt lat="4.547101" lon="-74.961784">
        <ele>483.07104</ele>
        <time>2021-11-14T16:49:40Z</time>
      </trkpt>
      <trkpt lat="4.547071" lon="-74.961769">
        <ele>482.54834</ele>
        <time>2021-11-14T16:49:41Z</time>
      </trkpt>
      <trkpt lat="4.547067" lon="-74.961777">
        <ele>481.63428</ele>
        <time>2021-11-14T16:49:42Z</time>
      </trkpt>
      <trkpt lat="4.547038" lon="-74.961761">
        <ele>481.33484</ele>
        <time>2021-11-14T16:49:43Z</time>
      </trkpt>
      <trkpt lat="4.546935" lon="-74.961708">
        <ele>481.72083</ele>
        <time>2021-11-14T16:49:44Z</time>
      </trkpt>
      <trkpt lat="4.546957" lon="-74.961678">
        <ele>481.51886</ele>
        <time>2021-11-14T16:49:45Z</time>
      </trkpt>
      <trkpt lat="4.546974" lon="-74.961594">
        <ele>481.22247</ele>
        <time>2021-11-14T16:49:46Z</time>
      </trkpt>
      <trkpt lat="4.546956" lon="-74.961578">
        <ele>481.4552</ele>
        <time>2021-11-14T16:49:47Z</time>
      </trkpt>
      <trkpt lat="4.546932" lon="-74.961555">
        <ele>481.19525</ele>
        <time>2021-11-14T16:49:48Z</time>
      </trkpt>
      <trkpt lat="4.546898" lon="-74.961533">
        <ele>481.29877</ele>
        <time>2021-11-14T16:49:49Z</time>
      </trkpt>
      <trkpt lat="4.546849" lon="-74.961525">
        <ele>482.03107</ele>
        <time>2021-11-14T16:49:50Z</time>
      </trkpt>
      <trkpt lat="4.546812" lon="-74.961533">
        <ele>481.7981</ele>
        <time>2021-11-14T16:49:51Z</time>
      </trkpt>
      <trkpt lat="4.546791" lon="-74.961563">
        <ele>481.96582</ele>
        <time>2021-11-14T16:49:52Z</time>
      </trkpt>
      <trkpt lat="4.546758" lon="-74.961594">
        <ele>482.12878</ele>
        <time>2021-11-14T16:49:53Z</time>
      </trkpt>
      <trkpt lat="4.54674" lon="-74.961601">
        <ele>481.78516</ele>
        <time>2021-11-14T16:49:54Z</time>
      </trkpt>
      <trkpt lat="4.546713" lon="-74.961609">
        <ele>481.6911</ele>
        <time>2021-11-14T16:49:55Z</time>
      </trkpt>
      <trkpt lat="4.546694" lon="-74.961617">
        <ele>481.9751</ele>
        <time>2021-11-14T16:49:56Z</time>
      </trkpt>
      <trkpt lat="4.546665" lon="-74.961632">
        <ele>481.95068</ele>
        <time>2021-11-14T16:49:57Z</time>
      </trkpt>
      <trkpt lat="4.546646" lon="-74.961639">
        <ele>482.32434</ele>
        <time>2021-11-14T16:49:58Z</time>
      </trkpt>
      <trkpt lat="4.546618" lon="-74.961662">
        <ele>482.63513</ele>
        <time>2021-11-14T16:49:59Z</time>
      </trkpt>
      <trkpt lat="4.54661" lon="-74.96167">
        <ele>482.68127</ele>
        <time>2021-11-14T16:50:00Z</time>
      </trkpt>
      <trkpt lat="4.546575" lon="-74.961693">
        <ele>482.3617</ele>
        <time>2021-11-14T16:50:01Z</time>
      </trkpt>
      <trkpt lat="4.546567" lon="-74.961693">
        <ele>482.2296</ele>
        <time>2021-11-14T16:50:02Z</time>
      </trkpt>
      <trkpt lat="4.546548" lon="-74.9617">
        <ele>481.914</ele>
        <time>2021-11-14T16:50:03Z</time>
      </trkpt>
      <trkpt lat="4.546536" lon="-74.961708">
        <ele>482.0111</ele>
        <time>2021-11-14T16:50:04Z</time>
      </trkpt>
      <trkpt lat="4.546531" lon="-74.961708">
        <ele>481.6643</ele>
        <time>2021-11-14T16:50:05Z</time>
      </trkpt>
      <trkpt lat="4.546527" lon="-74.961716">
        <ele>481.7351</ele>
        <time>2021-11-14T16:50:06Z</time>
      </trkpt>
      <trkpt lat="4.546521" lon="-74.961716">
        <ele>481.57227</ele>
        <time>2021-11-14T16:50:07Z</time>
      </trkpt>
      <trkpt lat="4.546521" lon="-74.961716">
        <ele>481.64575</ele>
        <time>2021-11-14T16:50:08Z</time>
      </trkpt>
      <trkpt lat="4.546512" lon="-74.961723">
        <ele>481.4402</ele>
        <time>2021-11-14T16:50:09Z</time>
      </trkpt>
      <trkpt lat="4.546511" lon="-74.961723">
        <ele>481.5099</ele>
        <time>2021-11-14T16:50:10Z</time>
      </trkpt>
      <trkpt lat="4.546513" lon="-74.961723">
        <ele>481.48218</ele>
        <time>2021-11-14T16:50:11Z</time>
      </trkpt>
      <trkpt lat="4.546514" lon="-74.961716">
        <ele>481.36383</ele>
        <time>2021-11-14T16:50:12Z</time>
      </trkpt>
      <trkpt lat="4.546515" lon="-74.961716">
        <ele>481.19684</ele>
        <time>2021-11-14T16:50:13Z</time>
      </trkpt>
      <trkpt lat="4.546517" lon="-74.961716">
        <ele>481.40015</ele>
        <time>2021-11-14T16:50:14Z</time>
      </trkpt>
      <trkpt lat="4.546515" lon="-74.961716">
        <ele>481.33887</ele>
        <time>2021-11-14T16:50:15Z</time>
      </trkpt>
      <trkpt lat="4.546509" lon="-74.961716">
        <ele>482.0464</ele>
        <time>2021-11-14T16:50:16Z</time>
      </trkpt>
      <trkpt lat="4.546493" lon="-74.961708">
        <ele>482.07715</ele>
        <time>2021-11-14T16:50:17Z</time>
      </trkpt>
      <trkpt lat="4.546479" lon="-74.961685">
        <ele>481.4665</ele>
        <time>2021-11-14T16:50:18Z</time>
      </trkpt>
      <trkpt lat="4.546483" lon="-74.961685">
        <ele>481.6366</ele>
        <time>2021-11-14T16:50:19Z</time>
      </trkpt>
      <trkpt lat="4.546484" lon="-74.961678">
        <ele>481.76904</ele>
        <time>2021-11-14T16:50:20Z</time>
      </trkpt>
      <trkpt lat="4.546487" lon="-74.961678">
        <ele>481.78223</ele>
        <time>2021-11-14T16:50:21Z</time>
      </trkpt>
      <trkpt lat="4.546491" lon="-74.96167">
        <ele>481.7016</ele>
        <time>2021-11-14T16:50:22Z</time>
      </trkpt>
      <trkpt lat="4.546494" lon="-74.96167">
        <ele>481.77313</ele>
        <time>2021-11-14T16:50:23Z</time>
      </trkpt>
      <trkpt lat="4.546499" lon="-74.96167">
        <ele>481.77942</ele>
        <time>2021-11-14T16:50:24Z</time>
      </trkpt>
      <trkpt lat="4.546501" lon="-74.96167">
        <ele>481.69434</ele>
        <time>2021-11-14T16:50:25Z</time>
      </trkpt>
      <trkpt lat="4.546503" lon="-74.96167">
        <ele>481.83478</ele>
        <time>2021-11-14T16:50:26Z</time>
      </trkpt>
      <trkpt lat="4.546504" lon="-74.96167">
        <ele>481.7226</ele>
        <time>2021-11-14T16:50:27Z</time>
      </trkpt>
      <trkpt lat="4.546504" lon="-74.96167">
        <ele>481.77472</ele>
        <time>2021-11-14T16:50:28Z</time>
      </trkpt>
      <trkpt lat="4.546505" lon="-74.96167">
        <ele>481.55957</ele>
        <time>2021-11-14T16:50:29Z</time>
      </trkpt>
    </trkseg>
  </trk>
</gpx>
